<?xml version="1.0" encoding="UTF-8" standalone="no" ?>
<gpx xmlns="http://www.topografix.com/GPX/1/1" xmlns:xsi="http://www.w3.org/2001/XMLSchema-instance" xsi:schemaLocation="http://www.topografix.com/GPX/1/1 http://www.topografix.com/GPX/1/1/gpx.xsd" version="1.1" creator="VisuGPX - https://www.visugpx.com">
  <metadata>
    <name>GOUTRENS 2011-01-09</name>
    <desc><![CDATA[2011-01-09-GOUTRENS]]></desc>
  </metadata>
  <trk>
    <name><![CDATA[2011-01-09-GOUTRENS]]></name>
    <trkseg>
      <trkpt lat="44.44258" lon="2.37119">
        <ele>548.6</ele>
        <time>2011-01-09T08:10:07Z</time>
      </trkpt>
      <trkpt lat="44.44258" lon="2.37119">
        <ele>548.8</ele>
        <time>2011-01-09T08:10:08Z</time>
      </trkpt>
      <trkpt lat="44.44266" lon="2.37122">
        <ele>548.1</ele>
        <time>2011-01-09T08:10:49Z</time>
      </trkpt>
      <trkpt lat="44.4427" lon="2.37122">
        <ele>547.8</ele>
        <time>2011-01-09T08:11:05Z</time>
      </trkpt>
      <trkpt lat="44.44269" lon="2.37128">
        <ele>548.1</ele>
        <time>2011-01-09T08:12:49Z</time>
      </trkpt>
      <trkpt lat="44.44269" lon="2.37128">
        <ele>547.9</ele>
        <time>2011-01-09T08:12:50Z</time>
      </trkpt>
      <trkpt lat="44.44269" lon="2.37127">
        <ele>547.6</ele>
        <time>2011-01-09T08:13:44Z</time>
      </trkpt>
      <trkpt lat="44.44265" lon="2.37125">
        <ele>548</ele>
        <time>2011-01-09T08:14:16Z</time>
      </trkpt>
      <trkpt lat="44.44265" lon="2.37125">
        <ele>548.2</ele>
        <time>2011-01-09T08:14:17Z</time>
      </trkpt>
      <trkpt lat="44.44257" lon="2.37123">
        <ele>547.9</ele>
        <time>2011-01-09T08:15:26Z</time>
      </trkpt>
      <trkpt lat="44.44257" lon="2.37123">
        <ele>548.2</ele>
        <time>2011-01-09T08:15:27Z</time>
      </trkpt>
      <trkpt lat="44.44263" lon="2.37118">
        <ele>548.5</ele>
        <time>2011-01-09T08:16:54Z</time>
      </trkpt>
      <trkpt lat="44.44264" lon="2.37117">
        <ele>548.5</ele>
        <time>2011-01-09T08:16:55Z</time>
      </trkpt>
      <trkpt lat="44.44268" lon="2.37108">
        <ele>549</ele>
        <time>2011-01-09T08:17:02Z</time>
      </trkpt>
      <trkpt lat="44.44272" lon="2.37105">
        <ele>549.6</ele>
        <time>2011-01-09T08:17:17Z</time>
      </trkpt>
      <trkpt lat="44.44271" lon="2.37108">
        <ele>549.5</ele>
        <time>2011-01-09T08:19:32Z</time>
      </trkpt>
      <trkpt lat="44.44271" lon="2.37112">
        <ele>549.5</ele>
        <time>2011-01-09T08:19:33Z</time>
      </trkpt>
      <trkpt lat="44.4427" lon="2.37116">
        <ele>549.4</ele>
        <time>2011-01-09T08:19:34Z</time>
      </trkpt>
      <trkpt lat="44.4427" lon="2.37121">
        <ele>549.4</ele>
        <time>2011-01-09T08:19:35Z</time>
      </trkpt>
      <trkpt lat="44.44269" lon="2.37126">
        <ele>549.3</ele>
        <time>2011-01-09T08:19:36Z</time>
      </trkpt>
      <trkpt lat="44.44269" lon="2.37131">
        <ele>549.2</ele>
        <time>2011-01-09T08:19:37Z</time>
      </trkpt>
      <trkpt lat="44.44268" lon="2.37136">
        <ele>549.1</ele>
        <time>2011-01-09T08:19:38Z</time>
      </trkpt>
      <trkpt lat="44.44267" lon="2.37141">
        <ele>548.9</ele>
        <time>2011-01-09T08:19:39Z</time>
      </trkpt>
      <trkpt lat="44.44266" lon="2.37146">
        <ele>548.8</ele>
        <time>2011-01-09T08:19:40Z</time>
      </trkpt>
      <trkpt lat="44.44264" lon="2.3715">
        <ele>548.7</ele>
        <time>2011-01-09T08:19:41Z</time>
      </trkpt>
      <trkpt lat="44.44262" lon="2.37155">
        <ele>548.8</ele>
        <time>2011-01-09T08:19:42Z</time>
      </trkpt>
      <trkpt lat="44.44261" lon="2.3716">
        <ele>548.9</ele>
        <time>2011-01-09T08:19:43Z</time>
      </trkpt>
      <trkpt lat="44.44259" lon="2.37165">
        <ele>549</ele>
        <time>2011-01-09T08:19:44Z</time>
      </trkpt>
      <trkpt lat="44.44257" lon="2.3717">
        <ele>549.4</ele>
        <time>2011-01-09T08:19:45Z</time>
      </trkpt>
      <trkpt lat="44.44255" lon="2.37175">
        <ele>549.8</ele>
        <time>2011-01-09T08:19:46Z</time>
      </trkpt>
      <trkpt lat="44.44254" lon="2.37179">
        <ele>550</ele>
        <time>2011-01-09T08:19:47Z</time>
      </trkpt>
      <trkpt lat="44.44252" lon="2.37184">
        <ele>550.1</ele>
        <time>2011-01-09T08:19:48Z</time>
      </trkpt>
      <trkpt lat="44.4425" lon="2.37188">
        <ele>550.1</ele>
        <time>2011-01-09T08:19:49Z</time>
      </trkpt>
      <trkpt lat="44.44249" lon="2.37193">
        <ele>550.1</ele>
        <time>2011-01-09T08:19:50Z</time>
      </trkpt>
      <trkpt lat="44.44247" lon="2.37197">
        <ele>550.2</ele>
        <time>2011-01-09T08:19:51Z</time>
      </trkpt>
      <trkpt lat="44.44246" lon="2.37201">
        <ele>549.8</ele>
        <time>2011-01-09T08:19:52Z</time>
      </trkpt>
      <trkpt lat="44.44244" lon="2.37205">
        <ele>549.5</ele>
        <time>2011-01-09T08:19:53Z</time>
      </trkpt>
      <trkpt lat="44.44243" lon="2.37209">
        <ele>549.3</ele>
        <time>2011-01-09T08:19:54Z</time>
      </trkpt>
      <trkpt lat="44.44242" lon="2.37212">
        <ele>549.7</ele>
        <time>2011-01-09T08:19:55Z</time>
      </trkpt>
      <trkpt lat="44.4424" lon="2.37216">
        <ele>550</ele>
        <time>2011-01-09T08:19:56Z</time>
      </trkpt>
      <trkpt lat="44.44239" lon="2.37219">
        <ele>550.2</ele>
        <time>2011-01-09T08:19:57Z</time>
      </trkpt>
      <trkpt lat="44.44238" lon="2.37223">
        <ele>550</ele>
        <time>2011-01-09T08:19:58Z</time>
      </trkpt>
      <trkpt lat="44.44236" lon="2.37227">
        <ele>549.8</ele>
        <time>2011-01-09T08:19:59Z</time>
      </trkpt>
      <trkpt lat="44.44234" lon="2.3723">
        <ele>549.7</ele>
        <time>2011-01-09T08:20:00Z</time>
      </trkpt>
      <trkpt lat="44.44233" lon="2.37234">
        <ele>550</ele>
        <time>2011-01-09T08:20:01Z</time>
      </trkpt>
      <trkpt lat="44.44231" lon="2.37237">
        <ele>550.2</ele>
        <time>2011-01-09T08:20:02Z</time>
      </trkpt>
      <trkpt lat="44.44229" lon="2.3724">
        <ele>550.4</ele>
        <time>2011-01-09T08:20:03Z</time>
      </trkpt>
      <trkpt lat="44.44226" lon="2.37244">
        <ele>551.4</ele>
        <time>2011-01-09T08:20:05Z</time>
      </trkpt>
      <trkpt lat="44.44224" lon="2.37244">
        <ele>551.7</ele>
        <time>2011-01-09T08:20:06Z</time>
      </trkpt>
      <trkpt lat="44.44221" lon="2.37242">
        <ele>551.9</ele>
        <time>2011-01-09T08:20:07Z</time>
      </trkpt>
      <trkpt lat="44.44217" lon="2.37241">
        <ele>552.1</ele>
        <time>2011-01-09T08:20:08Z</time>
      </trkpt>
      <trkpt lat="44.44213" lon="2.37238">
        <ele>552.2</ele>
        <time>2011-01-09T08:20:09Z</time>
      </trkpt>
      <trkpt lat="44.44209" lon="2.37236">
        <ele>552.3</ele>
        <time>2011-01-09T08:20:10Z</time>
      </trkpt>
      <trkpt lat="44.44205" lon="2.37234">
        <ele>552.3</ele>
        <time>2011-01-09T08:20:11Z</time>
      </trkpt>
      <trkpt lat="44.44202" lon="2.37231">
        <ele>552.3</ele>
        <time>2011-01-09T08:20:12Z</time>
      </trkpt>
      <trkpt lat="44.44198" lon="2.37228">
        <ele>552.2</ele>
        <time>2011-01-09T08:20:13Z</time>
      </trkpt>
      <trkpt lat="44.44195" lon="2.37226">
        <ele>551.8</ele>
        <time>2011-01-09T08:20:14Z</time>
      </trkpt>
      <trkpt lat="44.44192" lon="2.37223">
        <ele>551.4</ele>
        <time>2011-01-09T08:20:15Z</time>
      </trkpt>
      <trkpt lat="44.44188" lon="2.3722">
        <ele>551.2</ele>
        <time>2011-01-09T08:20:16Z</time>
      </trkpt>
      <trkpt lat="44.44184" lon="2.37216">
        <ele>550.9</ele>
        <time>2011-01-09T08:20:17Z</time>
      </trkpt>
      <trkpt lat="44.44181" lon="2.37213">
        <ele>550.7</ele>
        <time>2011-01-09T08:20:18Z</time>
      </trkpt>
      <trkpt lat="44.44177" lon="2.37211">
        <ele>550.6</ele>
        <time>2011-01-09T08:20:19Z</time>
      </trkpt>
      <trkpt lat="44.44173" lon="2.37209">
        <ele>550.3</ele>
        <time>2011-01-09T08:20:20Z</time>
      </trkpt>
      <trkpt lat="44.44169" lon="2.37207">
        <ele>550</ele>
        <time>2011-01-09T08:20:21Z</time>
      </trkpt>
      <trkpt lat="44.44165" lon="2.37205">
        <ele>549.8</ele>
        <time>2011-01-09T08:20:22Z</time>
      </trkpt>
      <trkpt lat="44.44161" lon="2.37204">
        <ele>549.4</ele>
        <time>2011-01-09T08:20:23Z</time>
      </trkpt>
      <trkpt lat="44.44156" lon="2.37203">
        <ele>549</ele>
        <time>2011-01-09T08:20:24Z</time>
      </trkpt>
      <trkpt lat="44.44151" lon="2.37203">
        <ele>548.8</ele>
        <time>2011-01-09T08:20:25Z</time>
      </trkpt>
      <trkpt lat="44.44147" lon="2.37203">
        <ele>548.6</ele>
        <time>2011-01-09T08:20:26Z</time>
      </trkpt>
      <trkpt lat="44.44142" lon="2.37203">
        <ele>548</ele>
        <time>2011-01-09T08:20:27Z</time>
      </trkpt>
      <trkpt lat="44.44137" lon="2.37203">
        <ele>547.5</ele>
        <time>2011-01-09T08:20:28Z</time>
      </trkpt>
      <trkpt lat="44.44132" lon="2.37203">
        <ele>547.2</ele>
        <time>2011-01-09T08:20:29Z</time>
      </trkpt>
      <trkpt lat="44.44128" lon="2.37204">
        <ele>546.9</ele>
        <time>2011-01-09T08:20:30Z</time>
      </trkpt>
      <trkpt lat="44.44123" lon="2.37205">
        <ele>546.6</ele>
        <time>2011-01-09T08:20:31Z</time>
      </trkpt>
      <trkpt lat="44.44118" lon="2.37206">
        <ele>546.4</ele>
        <time>2011-01-09T08:20:32Z</time>
      </trkpt>
      <trkpt lat="44.44113" lon="2.37206">
        <ele>546.3</ele>
        <time>2011-01-09T08:20:33Z</time>
      </trkpt>
      <trkpt lat="44.44108" lon="2.37206">
        <ele>546.2</ele>
        <time>2011-01-09T08:20:34Z</time>
      </trkpt>
      <trkpt lat="44.44103" lon="2.37206">
        <ele>546.2</ele>
        <time>2011-01-09T08:20:35Z</time>
      </trkpt>
      <trkpt lat="44.44098" lon="2.37205">
        <ele>545.9</ele>
        <time>2011-01-09T08:20:36Z</time>
      </trkpt>
      <trkpt lat="44.44094" lon="2.37204">
        <ele>545.7</ele>
        <time>2011-01-09T08:20:37Z</time>
      </trkpt>
      <trkpt lat="44.44089" lon="2.37201">
        <ele>545.5</ele>
        <time>2011-01-09T08:20:38Z</time>
      </trkpt>
      <trkpt lat="44.44084" lon="2.37199">
        <ele>545.7</ele>
        <time>2011-01-09T08:20:39Z</time>
      </trkpt>
      <trkpt lat="44.4408" lon="2.37196">
        <ele>545.7</ele>
        <time>2011-01-09T08:20:40Z</time>
      </trkpt>
      <trkpt lat="44.44076" lon="2.37194">
        <ele>545.8</ele>
        <time>2011-01-09T08:20:41Z</time>
      </trkpt>
      <trkpt lat="44.44072" lon="2.37191">
        <ele>545.9</ele>
        <time>2011-01-09T08:20:42Z</time>
      </trkpt>
      <trkpt lat="44.44069" lon="2.37189">
        <ele>545.4</ele>
        <time>2011-01-09T08:20:43Z</time>
      </trkpt>
      <trkpt lat="44.44065" lon="2.37187">
        <ele>545</ele>
        <time>2011-01-09T08:20:44Z</time>
      </trkpt>
      <trkpt lat="44.44061" lon="2.37184">
        <ele>544.8</ele>
        <time>2011-01-09T08:20:45Z</time>
      </trkpt>
      <trkpt lat="44.44057" lon="2.37182">
        <ele>545</ele>
        <time>2011-01-09T08:20:46Z</time>
      </trkpt>
      <trkpt lat="44.44052" lon="2.37181">
        <ele>545.2</ele>
        <time>2011-01-09T08:20:47Z</time>
      </trkpt>
      <trkpt lat="44.44048" lon="2.37181">
        <ele>545.3</ele>
        <time>2011-01-09T08:20:48Z</time>
      </trkpt>
      <trkpt lat="44.44043" lon="2.3718">
        <ele>545.4</ele>
        <time>2011-01-09T08:20:49Z</time>
      </trkpt>
      <trkpt lat="44.44039" lon="2.3718">
        <ele>545.4</ele>
        <time>2011-01-09T08:20:50Z</time>
      </trkpt>
      <trkpt lat="44.44035" lon="2.3718">
        <ele>545.5</ele>
        <time>2011-01-09T08:20:51Z</time>
      </trkpt>
      <trkpt lat="44.4403" lon="2.3718">
        <ele>545.3</ele>
        <time>2011-01-09T08:20:52Z</time>
      </trkpt>
      <trkpt lat="44.44026" lon="2.3718">
        <ele>545.2</ele>
        <time>2011-01-09T08:20:53Z</time>
      </trkpt>
      <trkpt lat="44.44021" lon="2.3718">
        <ele>545.1</ele>
        <time>2011-01-09T08:20:54Z</time>
      </trkpt>
      <trkpt lat="44.44017" lon="2.3718">
        <ele>545.3</ele>
        <time>2011-01-09T08:20:55Z</time>
      </trkpt>
      <trkpt lat="44.44012" lon="2.37181">
        <ele>545.4</ele>
        <time>2011-01-09T08:20:56Z</time>
      </trkpt>
      <trkpt lat="44.44008" lon="2.37181">
        <ele>545.5</ele>
        <time>2011-01-09T08:20:57Z</time>
      </trkpt>
      <trkpt lat="44.44004" lon="2.37181">
        <ele>545.6</ele>
        <time>2011-01-09T08:20:58Z</time>
      </trkpt>
      <trkpt lat="44.44" lon="2.37182">
        <ele>545.7</ele>
        <time>2011-01-09T08:20:59Z</time>
      </trkpt>
      <trkpt lat="44.43996" lon="2.37182">
        <ele>545.7</ele>
        <time>2011-01-09T08:21:00Z</time>
      </trkpt>
      <trkpt lat="44.43992" lon="2.37183">
        <ele>545.8</ele>
        <time>2011-01-09T08:21:01Z</time>
      </trkpt>
      <trkpt lat="44.43988" lon="2.37184">
        <ele>545.7</ele>
        <time>2011-01-09T08:21:02Z</time>
      </trkpt>
      <trkpt lat="44.43984" lon="2.37184">
        <ele>545.7</ele>
        <time>2011-01-09T08:21:03Z</time>
      </trkpt>
      <trkpt lat="44.4398" lon="2.37185">
        <ele>545.6</ele>
        <time>2011-01-09T08:21:04Z</time>
      </trkpt>
      <trkpt lat="44.43976" lon="2.37185">
        <ele>545.9</ele>
        <time>2011-01-09T08:21:05Z</time>
      </trkpt>
      <trkpt lat="44.43972" lon="2.37186">
        <ele>546</ele>
        <time>2011-01-09T08:21:06Z</time>
      </trkpt>
      <trkpt lat="44.43968" lon="2.37187">
        <ele>546.2</ele>
        <time>2011-01-09T08:21:07Z</time>
      </trkpt>
      <trkpt lat="44.43964" lon="2.37187">
        <ele>546</ele>
        <time>2011-01-09T08:21:08Z</time>
      </trkpt>
      <trkpt lat="44.4396" lon="2.37187">
        <ele>545.8</ele>
        <time>2011-01-09T08:21:09Z</time>
      </trkpt>
      <trkpt lat="44.43956" lon="2.37187">
        <ele>545.7</ele>
        <time>2011-01-09T08:21:10Z</time>
      </trkpt>
      <trkpt lat="44.43953" lon="2.37186">
        <ele>545.9</ele>
        <time>2011-01-09T08:21:11Z</time>
      </trkpt>
      <trkpt lat="44.43949" lon="2.37186">
        <ele>546</ele>
        <time>2011-01-09T08:21:12Z</time>
      </trkpt>
      <trkpt lat="44.43945" lon="2.37184">
        <ele>546.1</ele>
        <time>2011-01-09T08:21:13Z</time>
      </trkpt>
      <trkpt lat="44.43942" lon="2.37182">
        <ele>546.2</ele>
        <time>2011-01-09T08:21:14Z</time>
      </trkpt>
      <trkpt lat="44.43938" lon="2.37181">
        <ele>546.3</ele>
        <time>2011-01-09T08:21:15Z</time>
      </trkpt>
      <trkpt lat="44.43934" lon="2.37179">
        <ele>546.4</ele>
        <time>2011-01-09T08:21:16Z</time>
      </trkpt>
      <trkpt lat="44.4393" lon="2.37178">
        <ele>546.4</ele>
        <time>2011-01-09T08:21:17Z</time>
      </trkpt>
      <trkpt lat="44.43926" lon="2.37176">
        <ele>546.4</ele>
        <time>2011-01-09T08:21:18Z</time>
      </trkpt>
      <trkpt lat="44.43922" lon="2.37174">
        <ele>546.4</ele>
        <time>2011-01-09T08:21:19Z</time>
      </trkpt>
      <trkpt lat="44.43918" lon="2.37173">
        <ele>546.5</ele>
        <time>2011-01-09T08:21:20Z</time>
      </trkpt>
      <trkpt lat="44.43914" lon="2.37171">
        <ele>546.9</ele>
        <time>2011-01-09T08:21:21Z</time>
      </trkpt>
      <trkpt lat="44.4391" lon="2.37168">
        <ele>547.2</ele>
        <time>2011-01-09T08:21:22Z</time>
      </trkpt>
      <trkpt lat="44.43906" lon="2.37166">
        <ele>547.5</ele>
        <time>2011-01-09T08:21:23Z</time>
      </trkpt>
      <trkpt lat="44.43902" lon="2.37164">
        <ele>547.1</ele>
        <time>2011-01-09T08:21:24Z</time>
      </trkpt>
      <trkpt lat="44.43898" lon="2.37163">
        <ele>546.9</ele>
        <time>2011-01-09T08:21:25Z</time>
      </trkpt>
      <trkpt lat="44.43894" lon="2.37161">
        <ele>546.7</ele>
        <time>2011-01-09T08:21:26Z</time>
      </trkpt>
      <trkpt lat="44.43891" lon="2.3716">
        <ele>547.1</ele>
        <time>2011-01-09T08:21:27Z</time>
      </trkpt>
      <trkpt lat="44.43887" lon="2.37159">
        <ele>547.4</ele>
        <time>2011-01-09T08:21:28Z</time>
      </trkpt>
      <trkpt lat="44.43883" lon="2.37157">
        <ele>547.7</ele>
        <time>2011-01-09T08:21:29Z</time>
      </trkpt>
      <trkpt lat="44.43879" lon="2.37155">
        <ele>547.7</ele>
        <time>2011-01-09T08:21:30Z</time>
      </trkpt>
      <trkpt lat="44.43876" lon="2.37154">
        <ele>547.7</ele>
        <time>2011-01-09T08:21:31Z</time>
      </trkpt>
      <trkpt lat="44.43872" lon="2.37153">
        <ele>547.7</ele>
        <time>2011-01-09T08:21:32Z</time>
      </trkpt>
      <trkpt lat="44.43868" lon="2.37153">
        <ele>547.7</ele>
        <time>2011-01-09T08:21:33Z</time>
      </trkpt>
      <trkpt lat="44.43864" lon="2.37153">
        <ele>547.9</ele>
        <time>2011-01-09T08:21:34Z</time>
      </trkpt>
      <trkpt lat="44.43861" lon="2.37154">
        <ele>548.1</ele>
        <time>2011-01-09T08:21:35Z</time>
      </trkpt>
      <trkpt lat="44.43857" lon="2.37154">
        <ele>548.3</ele>
        <time>2011-01-09T08:21:36Z</time>
      </trkpt>
      <trkpt lat="44.43854" lon="2.37154">
        <ele>548</ele>
        <time>2011-01-09T08:21:37Z</time>
      </trkpt>
      <trkpt lat="44.4385" lon="2.37155">
        <ele>547.8</ele>
        <time>2011-01-09T08:21:38Z</time>
      </trkpt>
      <trkpt lat="44.43847" lon="2.37155">
        <ele>547.7</ele>
        <time>2011-01-09T08:21:39Z</time>
      </trkpt>
      <trkpt lat="44.43844" lon="2.37155">
        <ele>547.9</ele>
        <time>2011-01-09T08:21:40Z</time>
      </trkpt>
      <trkpt lat="44.43842" lon="2.37155">
        <ele>548.1</ele>
        <time>2011-01-09T08:21:41Z</time>
      </trkpt>
      <trkpt lat="44.43839" lon="2.37155">
        <ele>548.2</ele>
        <time>2011-01-09T08:21:42Z</time>
      </trkpt>
      <trkpt lat="44.43837" lon="2.37155">
        <ele>548.8</ele>
        <time>2011-01-09T08:21:43Z</time>
      </trkpt>
      <trkpt lat="44.43834" lon="2.37155">
        <ele>549.2</ele>
        <time>2011-01-09T08:21:44Z</time>
      </trkpt>
      <trkpt lat="44.43832" lon="2.37154">
        <ele>549.5</ele>
        <time>2011-01-09T08:21:45Z</time>
      </trkpt>
      <trkpt lat="44.43829" lon="2.37154">
        <ele>549.6</ele>
        <time>2011-01-09T08:21:46Z</time>
      </trkpt>
      <trkpt lat="44.43827" lon="2.37153">
        <ele>549.6</ele>
        <time>2011-01-09T08:21:47Z</time>
      </trkpt>
      <trkpt lat="44.43824" lon="2.37153">
        <ele>549.7</ele>
        <time>2011-01-09T08:21:48Z</time>
      </trkpt>
      <trkpt lat="44.43821" lon="2.37152">
        <ele>549.7</ele>
        <time>2011-01-09T08:21:49Z</time>
      </trkpt>
      <trkpt lat="44.43819" lon="2.37151">
        <ele>550.1</ele>
        <time>2011-01-09T08:21:50Z</time>
      </trkpt>
      <trkpt lat="44.43816" lon="2.37151">
        <ele>550.3</ele>
        <time>2011-01-09T08:21:51Z</time>
      </trkpt>
      <trkpt lat="44.43813" lon="2.3715">
        <ele>550.5</ele>
        <time>2011-01-09T08:21:52Z</time>
      </trkpt>
      <trkpt lat="44.4381" lon="2.3715">
        <ele>551.1</ele>
        <time>2011-01-09T08:21:53Z</time>
      </trkpt>
      <trkpt lat="44.43808" lon="2.37149">
        <ele>551.6</ele>
        <time>2011-01-09T08:21:54Z</time>
      </trkpt>
      <trkpt lat="44.43805" lon="2.37149">
        <ele>551.9</ele>
        <time>2011-01-09T08:21:55Z</time>
      </trkpt>
      <trkpt lat="44.43803" lon="2.37148">
        <ele>552.4</ele>
        <time>2011-01-09T08:21:56Z</time>
      </trkpt>
      <trkpt lat="44.438" lon="2.37148">
        <ele>552.7</ele>
        <time>2011-01-09T08:21:57Z</time>
      </trkpt>
      <trkpt lat="44.43798" lon="2.37147">
        <ele>552.9</ele>
        <time>2011-01-09T08:21:58Z</time>
      </trkpt>
      <trkpt lat="44.43795" lon="2.37146">
        <ele>553.4</ele>
        <time>2011-01-09T08:21:59Z</time>
      </trkpt>
      <trkpt lat="44.43792" lon="2.37145">
        <ele>553.8</ele>
        <time>2011-01-09T08:22:00Z</time>
      </trkpt>
      <trkpt lat="44.43789" lon="2.37145">
        <ele>554</ele>
        <time>2011-01-09T08:22:01Z</time>
      </trkpt>
      <trkpt lat="44.43787" lon="2.37144">
        <ele>554.4</ele>
        <time>2011-01-09T08:22:02Z</time>
      </trkpt>
      <trkpt lat="44.43784" lon="2.37143">
        <ele>554.7</ele>
        <time>2011-01-09T08:22:03Z</time>
      </trkpt>
      <trkpt lat="44.43781" lon="2.37142">
        <ele>554.9</ele>
        <time>2011-01-09T08:22:04Z</time>
      </trkpt>
      <trkpt lat="44.43778" lon="2.37141">
        <ele>555.1</ele>
        <time>2011-01-09T08:22:05Z</time>
      </trkpt>
      <trkpt lat="44.43776" lon="2.37141">
        <ele>555.4</ele>
        <time>2011-01-09T08:22:06Z</time>
      </trkpt>
      <trkpt lat="44.43773" lon="2.3714">
        <ele>555.6</ele>
        <time>2011-01-09T08:22:07Z</time>
      </trkpt>
      <trkpt lat="44.4377" lon="2.3714">
        <ele>555.8</ele>
        <time>2011-01-09T08:22:08Z</time>
      </trkpt>
      <trkpt lat="44.43767" lon="2.37139">
        <ele>555.9</ele>
        <time>2011-01-09T08:22:09Z</time>
      </trkpt>
      <trkpt lat="44.43765" lon="2.37139">
        <ele>555.9</ele>
        <time>2011-01-09T08:22:10Z</time>
      </trkpt>
      <trkpt lat="44.43762" lon="2.37139">
        <ele>555.9</ele>
        <time>2011-01-09T08:22:11Z</time>
      </trkpt>
      <trkpt lat="44.43759" lon="2.37139">
        <ele>556.1</ele>
        <time>2011-01-09T08:22:12Z</time>
      </trkpt>
      <trkpt lat="44.43756" lon="2.37138">
        <ele>556.2</ele>
        <time>2011-01-09T08:22:13Z</time>
      </trkpt>
      <trkpt lat="44.43753" lon="2.37138">
        <ele>556.4</ele>
        <time>2011-01-09T08:22:14Z</time>
      </trkpt>
      <trkpt lat="44.4375" lon="2.37137">
        <ele>556.6</ele>
        <time>2011-01-09T08:22:15Z</time>
      </trkpt>
      <trkpt lat="44.43747" lon="2.37137">
        <ele>556.8</ele>
        <time>2011-01-09T08:22:16Z</time>
      </trkpt>
      <trkpt lat="44.43745" lon="2.37136">
        <ele>557</ele>
        <time>2011-01-09T08:22:17Z</time>
      </trkpt>
      <trkpt lat="44.43742" lon="2.37136">
        <ele>557.1</ele>
        <time>2011-01-09T08:22:18Z</time>
      </trkpt>
      <trkpt lat="44.43739" lon="2.37136">
        <ele>557.2</ele>
        <time>2011-01-09T08:22:19Z</time>
      </trkpt>
      <trkpt lat="44.43736" lon="2.37135">
        <ele>557.3</ele>
        <time>2011-01-09T08:22:20Z</time>
      </trkpt>
      <trkpt lat="44.43733" lon="2.37134">
        <ele>557.4</ele>
        <time>2011-01-09T08:22:21Z</time>
      </trkpt>
      <trkpt lat="44.4373" lon="2.37134">
        <ele>557.6</ele>
        <time>2011-01-09T08:22:22Z</time>
      </trkpt>
      <trkpt lat="44.43728" lon="2.37134">
        <ele>557.7</ele>
        <time>2011-01-09T08:22:23Z</time>
      </trkpt>
      <trkpt lat="44.43725" lon="2.37133">
        <ele>557.8</ele>
        <time>2011-01-09T08:22:24Z</time>
      </trkpt>
      <trkpt lat="44.43722" lon="2.37133">
        <ele>558.1</ele>
        <time>2011-01-09T08:22:25Z</time>
      </trkpt>
      <trkpt lat="44.4372" lon="2.37132">
        <ele>558.4</ele>
        <time>2011-01-09T08:22:26Z</time>
      </trkpt>
      <trkpt lat="44.43717" lon="2.37132">
        <ele>558.5</ele>
        <time>2011-01-09T08:22:27Z</time>
      </trkpt>
      <trkpt lat="44.43714" lon="2.37131">
        <ele>559.1</ele>
        <time>2011-01-09T08:22:28Z</time>
      </trkpt>
      <trkpt lat="44.43712" lon="2.37131">
        <ele>559.6</ele>
        <time>2011-01-09T08:22:29Z</time>
      </trkpt>
      <trkpt lat="44.43709" lon="2.3713">
        <ele>559.9</ele>
        <time>2011-01-09T08:22:30Z</time>
      </trkpt>
      <trkpt lat="44.43707" lon="2.3713">
        <ele>559.9</ele>
        <time>2011-01-09T08:22:31Z</time>
      </trkpt>
      <trkpt lat="44.43704" lon="2.3713">
        <ele>560</ele>
        <time>2011-01-09T08:22:32Z</time>
      </trkpt>
      <trkpt lat="44.43701" lon="2.37129">
        <ele>560</ele>
        <time>2011-01-09T08:22:33Z</time>
      </trkpt>
      <trkpt lat="44.43698" lon="2.37128">
        <ele>560.2</ele>
        <time>2011-01-09T08:22:34Z</time>
      </trkpt>
      <trkpt lat="44.43695" lon="2.37128">
        <ele>560.3</ele>
        <time>2011-01-09T08:22:35Z</time>
      </trkpt>
      <trkpt lat="44.43692" lon="2.37127">
        <ele>560.4</ele>
        <time>2011-01-09T08:22:36Z</time>
      </trkpt>
      <trkpt lat="44.43689" lon="2.37127">
        <ele>560.5</ele>
        <time>2011-01-09T08:22:37Z</time>
      </trkpt>
      <trkpt lat="44.43686" lon="2.37126">
        <ele>560.4</ele>
        <time>2011-01-09T08:22:38Z</time>
      </trkpt>
      <trkpt lat="44.43683" lon="2.37126">
        <ele>560.3</ele>
        <time>2011-01-09T08:22:39Z</time>
      </trkpt>
      <trkpt lat="44.4368" lon="2.37126">
        <ele>560.2</ele>
        <time>2011-01-09T08:22:40Z</time>
      </trkpt>
      <trkpt lat="44.43677" lon="2.37126">
        <ele>560.2</ele>
        <time>2011-01-09T08:22:41Z</time>
      </trkpt>
      <trkpt lat="44.43674" lon="2.37125">
        <ele>560.1</ele>
        <time>2011-01-09T08:22:42Z</time>
      </trkpt>
      <trkpt lat="44.43671" lon="2.37125">
        <ele>560.1</ele>
        <time>2011-01-09T08:22:43Z</time>
      </trkpt>
      <trkpt lat="44.43668" lon="2.37124">
        <ele>560</ele>
        <time>2011-01-09T08:22:44Z</time>
      </trkpt>
      <trkpt lat="44.43665" lon="2.37124">
        <ele>560</ele>
        <time>2011-01-09T08:22:45Z</time>
      </trkpt>
      <trkpt lat="44.43663" lon="2.37123">
        <ele>560</ele>
        <time>2011-01-09T08:22:46Z</time>
      </trkpt>
      <trkpt lat="44.4366" lon="2.37123">
        <ele>560.5</ele>
        <time>2011-01-09T08:22:47Z</time>
      </trkpt>
      <trkpt lat="44.43657" lon="2.37122">
        <ele>560.9</ele>
        <time>2011-01-09T08:22:48Z</time>
      </trkpt>
      <trkpt lat="44.43654" lon="2.37121">
        <ele>561.2</ele>
        <time>2011-01-09T08:22:49Z</time>
      </trkpt>
      <trkpt lat="44.43652" lon="2.37121">
        <ele>560.9</ele>
        <time>2011-01-09T08:22:50Z</time>
      </trkpt>
      <trkpt lat="44.43649" lon="2.3712">
        <ele>560.7</ele>
        <time>2011-01-09T08:22:51Z</time>
      </trkpt>
      <trkpt lat="44.43646" lon="2.3712">
        <ele>560.5</ele>
        <time>2011-01-09T08:22:52Z</time>
      </trkpt>
      <trkpt lat="44.43643" lon="2.37119">
        <ele>560.8</ele>
        <time>2011-01-09T08:22:53Z</time>
      </trkpt>
      <trkpt lat="44.43641" lon="2.37118">
        <ele>561.1</ele>
        <time>2011-01-09T08:22:54Z</time>
      </trkpt>
      <trkpt lat="44.43638" lon="2.37118">
        <ele>561.3</ele>
        <time>2011-01-09T08:22:55Z</time>
      </trkpt>
      <trkpt lat="44.43635" lon="2.37117">
        <ele>561.5</ele>
        <time>2011-01-09T08:22:56Z</time>
      </trkpt>
      <trkpt lat="44.43632" lon="2.37116">
        <ele>561.6</ele>
        <time>2011-01-09T08:22:57Z</time>
      </trkpt>
      <trkpt lat="44.4363" lon="2.37116">
        <ele>561.7</ele>
        <time>2011-01-09T08:22:58Z</time>
      </trkpt>
      <trkpt lat="44.43627" lon="2.37115">
        <ele>561.7</ele>
        <time>2011-01-09T08:22:59Z</time>
      </trkpt>
      <trkpt lat="44.43625" lon="2.37114">
        <ele>561.9</ele>
        <time>2011-01-09T08:23:00Z</time>
      </trkpt>
      <trkpt lat="44.43622" lon="2.37114">
        <ele>562.1</ele>
        <time>2011-01-09T08:23:01Z</time>
      </trkpt>
      <trkpt lat="44.4362" lon="2.37113">
        <ele>562.2</ele>
        <time>2011-01-09T08:23:02Z</time>
      </trkpt>
      <trkpt lat="44.43617" lon="2.37112">
        <ele>562.6</ele>
        <time>2011-01-09T08:23:03Z</time>
      </trkpt>
      <trkpt lat="44.43615" lon="2.37112">
        <ele>562.9</ele>
        <time>2011-01-09T08:23:04Z</time>
      </trkpt>
      <trkpt lat="44.43612" lon="2.37111">
        <ele>563.1</ele>
        <time>2011-01-09T08:23:05Z</time>
      </trkpt>
      <trkpt lat="44.4361" lon="2.3711">
        <ele>563.3</ele>
        <time>2011-01-09T08:23:06Z</time>
      </trkpt>
      <trkpt lat="44.43607" lon="2.37109">
        <ele>563.3</ele>
        <time>2011-01-09T08:23:07Z</time>
      </trkpt>
      <trkpt lat="44.43604" lon="2.37108">
        <ele>563.4</ele>
        <time>2011-01-09T08:23:08Z</time>
      </trkpt>
      <trkpt lat="44.43602" lon="2.37107">
        <ele>563.7</ele>
        <time>2011-01-09T08:23:09Z</time>
      </trkpt>
      <trkpt lat="44.436" lon="2.37106">
        <ele>563.8</ele>
        <time>2011-01-09T08:23:10Z</time>
      </trkpt>
      <trkpt lat="44.43597" lon="2.37105">
        <ele>564</ele>
        <time>2011-01-09T08:23:11Z</time>
      </trkpt>
      <trkpt lat="44.43595" lon="2.37104">
        <ele>564.1</ele>
        <time>2011-01-09T08:23:12Z</time>
      </trkpt>
      <trkpt lat="44.43592" lon="2.37103">
        <ele>564.1</ele>
        <time>2011-01-09T08:23:13Z</time>
      </trkpt>
      <trkpt lat="44.4359" lon="2.37102">
        <ele>564.1</ele>
        <time>2011-01-09T08:23:14Z</time>
      </trkpt>
      <trkpt lat="44.43587" lon="2.371">
        <ele>564.1</ele>
        <time>2011-01-09T08:23:15Z</time>
      </trkpt>
      <trkpt lat="44.43582" lon="2.37098">
        <ele>564.4</ele>
        <time>2011-01-09T08:23:16Z</time>
      </trkpt>
      <trkpt lat="44.4358" lon="2.37097">
        <ele>564.7</ele>
        <time>2011-01-09T08:23:17Z</time>
      </trkpt>
      <trkpt lat="44.43578" lon="2.37097">
        <ele>564.8</ele>
        <time>2011-01-09T08:23:18Z</time>
      </trkpt>
      <trkpt lat="44.43575" lon="2.37096">
        <ele>564.7</ele>
        <time>2011-01-09T08:23:19Z</time>
      </trkpt>
      <trkpt lat="44.43573" lon="2.37095">
        <ele>564.6</ele>
        <time>2011-01-09T08:23:20Z</time>
      </trkpt>
      <trkpt lat="44.4357" lon="2.37095">
        <ele>564.5</ele>
        <time>2011-01-09T08:23:21Z</time>
      </trkpt>
      <trkpt lat="44.43568" lon="2.37094">
        <ele>564.5</ele>
        <time>2011-01-09T08:23:22Z</time>
      </trkpt>
      <trkpt lat="44.43565" lon="2.37093">
        <ele>564.4</ele>
        <time>2011-01-09T08:23:23Z</time>
      </trkpt>
      <trkpt lat="44.43563" lon="2.37092">
        <ele>564.4</ele>
        <time>2011-01-09T08:23:24Z</time>
      </trkpt>
      <trkpt lat="44.4356" lon="2.37091">
        <ele>564.8</ele>
        <time>2011-01-09T08:23:25Z</time>
      </trkpt>
      <trkpt lat="44.43558" lon="2.3709">
        <ele>565.1</ele>
        <time>2011-01-09T08:23:26Z</time>
      </trkpt>
      <trkpt lat="44.43555" lon="2.37089">
        <ele>565.4</ele>
        <time>2011-01-09T08:23:27Z</time>
      </trkpt>
      <trkpt lat="44.43553" lon="2.37088">
        <ele>565.6</ele>
        <time>2011-01-09T08:23:28Z</time>
      </trkpt>
      <trkpt lat="44.43551" lon="2.37087">
        <ele>565.4</ele>
        <time>2011-01-09T08:23:29Z</time>
      </trkpt>
      <trkpt lat="44.43548" lon="2.37087">
        <ele>565.3</ele>
        <time>2011-01-09T08:23:30Z</time>
      </trkpt>
      <trkpt lat="44.43546" lon="2.37086">
        <ele>565.2</ele>
        <time>2011-01-09T08:23:31Z</time>
      </trkpt>
      <trkpt lat="44.43544" lon="2.37085">
        <ele>565.4</ele>
        <time>2011-01-09T08:23:32Z</time>
      </trkpt>
      <trkpt lat="44.43541" lon="2.37084">
        <ele>565.5</ele>
        <time>2011-01-09T08:23:33Z</time>
      </trkpt>
      <trkpt lat="44.43539" lon="2.37083">
        <ele>565.6</ele>
        <time>2011-01-09T08:23:34Z</time>
      </trkpt>
      <trkpt lat="44.43536" lon="2.37081">
        <ele>566</ele>
        <time>2011-01-09T08:23:35Z</time>
      </trkpt>
      <trkpt lat="44.43534" lon="2.3708">
        <ele>566.3</ele>
        <time>2011-01-09T08:23:36Z</time>
      </trkpt>
      <trkpt lat="44.43532" lon="2.37079">
        <ele>566.5</ele>
        <time>2011-01-09T08:23:37Z</time>
      </trkpt>
      <trkpt lat="44.43529" lon="2.37077">
        <ele>566.8</ele>
        <time>2011-01-09T08:23:38Z</time>
      </trkpt>
      <trkpt lat="44.43527" lon="2.37076">
        <ele>567</ele>
        <time>2011-01-09T08:23:39Z</time>
      </trkpt>
      <trkpt lat="44.43524" lon="2.37074">
        <ele>567.1</ele>
        <time>2011-01-09T08:23:40Z</time>
      </trkpt>
      <trkpt lat="44.4352" lon="2.37071">
        <ele>567.5</ele>
        <time>2011-01-09T08:23:42Z</time>
      </trkpt>
      <trkpt lat="44.43518" lon="2.3707">
        <ele>567.6</ele>
        <time>2011-01-09T08:23:43Z</time>
      </trkpt>
      <trkpt lat="44.43516" lon="2.37069">
        <ele>567.7</ele>
        <time>2011-01-09T08:23:44Z</time>
      </trkpt>
      <trkpt lat="44.43513" lon="2.37067">
        <ele>568</ele>
        <time>2011-01-09T08:23:45Z</time>
      </trkpt>
      <trkpt lat="44.43511" lon="2.37066">
        <ele>568.2</ele>
        <time>2011-01-09T08:23:46Z</time>
      </trkpt>
      <trkpt lat="44.43508" lon="2.37065">
        <ele>568.4</ele>
        <time>2011-01-09T08:23:47Z</time>
      </trkpt>
      <trkpt lat="44.43506" lon="2.37064">
        <ele>568.1</ele>
        <time>2011-01-09T08:23:48Z</time>
      </trkpt>
      <trkpt lat="44.43504" lon="2.37063">
        <ele>567.9</ele>
        <time>2011-01-09T08:23:49Z</time>
      </trkpt>
      <trkpt lat="44.43502" lon="2.37062">
        <ele>567.8</ele>
        <time>2011-01-09T08:23:50Z</time>
      </trkpt>
      <trkpt lat="44.43499" lon="2.3706">
        <ele>568</ele>
        <time>2011-01-09T08:23:51Z</time>
      </trkpt>
      <trkpt lat="44.43496" lon="2.37058">
        <ele>568.1</ele>
        <time>2011-01-09T08:23:52Z</time>
      </trkpt>
      <trkpt lat="44.43494" lon="2.37057">
        <ele>568.2</ele>
        <time>2011-01-09T08:23:53Z</time>
      </trkpt>
      <trkpt lat="44.43491" lon="2.37055">
        <ele>568.1</ele>
        <time>2011-01-09T08:23:54Z</time>
      </trkpt>
      <trkpt lat="44.43488" lon="2.37054">
        <ele>568</ele>
        <time>2011-01-09T08:23:55Z</time>
      </trkpt>
      <trkpt lat="44.43486" lon="2.37052">
        <ele>567.9</ele>
        <time>2011-01-09T08:23:56Z</time>
      </trkpt>
      <trkpt lat="44.43483" lon="2.3705">
        <ele>568.1</ele>
        <time>2011-01-09T08:23:57Z</time>
      </trkpt>
      <trkpt lat="44.4348" lon="2.37049">
        <ele>568.3</ele>
        <time>2011-01-09T08:23:58Z</time>
      </trkpt>
      <trkpt lat="44.43477" lon="2.37047">
        <ele>568.5</ele>
        <time>2011-01-09T08:23:59Z</time>
      </trkpt>
      <trkpt lat="44.43474" lon="2.37046">
        <ele>568.6</ele>
        <time>2011-01-09T08:24:00Z</time>
      </trkpt>
      <trkpt lat="44.43471" lon="2.37044">
        <ele>568.8</ele>
        <time>2011-01-09T08:24:01Z</time>
      </trkpt>
      <trkpt lat="44.43469" lon="2.37043">
        <ele>569</ele>
        <time>2011-01-09T08:24:02Z</time>
      </trkpt>
      <trkpt lat="44.43466" lon="2.37041">
        <ele>569.1</ele>
        <time>2011-01-09T08:24:03Z</time>
      </trkpt>
      <trkpt lat="44.43463" lon="2.3704">
        <ele>569.1</ele>
        <time>2011-01-09T08:24:04Z</time>
      </trkpt>
      <trkpt lat="44.43461" lon="2.37038">
        <ele>569.1</ele>
        <time>2011-01-09T08:24:05Z</time>
      </trkpt>
      <trkpt lat="44.43458" lon="2.37036">
        <ele>569.1</ele>
        <time>2011-01-09T08:24:06Z</time>
      </trkpt>
      <trkpt lat="44.43456" lon="2.37035">
        <ele>569.3</ele>
        <time>2011-01-09T08:24:07Z</time>
      </trkpt>
      <trkpt lat="44.43453" lon="2.37033">
        <ele>569.4</ele>
        <time>2011-01-09T08:24:08Z</time>
      </trkpt>
      <trkpt lat="44.4345" lon="2.37031">
        <ele>569.5</ele>
        <time>2011-01-09T08:24:09Z</time>
      </trkpt>
      <trkpt lat="44.43447" lon="2.37029">
        <ele>569.4</ele>
        <time>2011-01-09T08:24:10Z</time>
      </trkpt>
      <trkpt lat="44.43445" lon="2.37028">
        <ele>569.4</ele>
        <time>2011-01-09T08:24:11Z</time>
      </trkpt>
      <trkpt lat="44.43443" lon="2.37026">
        <ele>569.4</ele>
        <time>2011-01-09T08:24:12Z</time>
      </trkpt>
      <trkpt lat="44.43441" lon="2.37025">
        <ele>569.5</ele>
        <time>2011-01-09T08:24:13Z</time>
      </trkpt>
      <trkpt lat="44.43438" lon="2.37023">
        <ele>569.6</ele>
        <time>2011-01-09T08:24:14Z</time>
      </trkpt>
      <trkpt lat="44.43436" lon="2.37022">
        <ele>569.7</ele>
        <time>2011-01-09T08:24:15Z</time>
      </trkpt>
      <trkpt lat="44.43434" lon="2.37021">
        <ele>569.7</ele>
        <time>2011-01-09T08:24:16Z</time>
      </trkpt>
      <trkpt lat="44.43431" lon="2.37019">
        <ele>569.7</ele>
        <time>2011-01-09T08:24:17Z</time>
      </trkpt>
      <trkpt lat="44.43429" lon="2.37018">
        <ele>569.7</ele>
        <time>2011-01-09T08:24:18Z</time>
      </trkpt>
      <trkpt lat="44.43427" lon="2.37017">
        <ele>569.8</ele>
        <time>2011-01-09T08:24:19Z</time>
      </trkpt>
      <trkpt lat="44.43425" lon="2.37015">
        <ele>570</ele>
        <time>2011-01-09T08:24:20Z</time>
      </trkpt>
      <trkpt lat="44.43422" lon="2.37014">
        <ele>570.3</ele>
        <time>2011-01-09T08:24:21Z</time>
      </trkpt>
      <trkpt lat="44.4342" lon="2.37013">
        <ele>570.4</ele>
        <time>2011-01-09T08:24:22Z</time>
      </trkpt>
      <trkpt lat="44.43417" lon="2.37011">
        <ele>570.5</ele>
        <time>2011-01-09T08:24:23Z</time>
      </trkpt>
      <trkpt lat="44.43415" lon="2.37009">
        <ele>570.6</ele>
        <time>2011-01-09T08:24:24Z</time>
      </trkpt>
      <trkpt lat="44.43412" lon="2.37008">
        <ele>570.6</ele>
        <time>2011-01-09T08:24:25Z</time>
      </trkpt>
      <trkpt lat="44.43409" lon="2.37007">
        <ele>571.1</ele>
        <time>2011-01-09T08:24:26Z</time>
      </trkpt>
      <trkpt lat="44.43407" lon="2.37005">
        <ele>571.5</ele>
        <time>2011-01-09T08:24:27Z</time>
      </trkpt>
      <trkpt lat="44.43404" lon="2.37004">
        <ele>571.8</ele>
        <time>2011-01-09T08:24:28Z</time>
      </trkpt>
      <trkpt lat="44.43402" lon="2.37002">
        <ele>571.5</ele>
        <time>2011-01-09T08:24:29Z</time>
      </trkpt>
      <trkpt lat="44.43399" lon="2.37001">
        <ele>571.2</ele>
        <time>2011-01-09T08:24:30Z</time>
      </trkpt>
      <trkpt lat="44.43396" lon="2.36999">
        <ele>571</ele>
        <time>2011-01-09T08:24:31Z</time>
      </trkpt>
      <trkpt lat="44.43394" lon="2.36998">
        <ele>570.9</ele>
        <time>2011-01-09T08:24:32Z</time>
      </trkpt>
      <trkpt lat="44.43391" lon="2.36996">
        <ele>570.9</ele>
        <time>2011-01-09T08:24:33Z</time>
      </trkpt>
      <trkpt lat="44.43388" lon="2.36994">
        <ele>570.9</ele>
        <time>2011-01-09T08:24:34Z</time>
      </trkpt>
      <trkpt lat="44.43386" lon="2.36993">
        <ele>570.9</ele>
        <time>2011-01-09T08:24:35Z</time>
      </trkpt>
      <trkpt lat="44.43383" lon="2.36991">
        <ele>571.3</ele>
        <time>2011-01-09T08:24:36Z</time>
      </trkpt>
      <trkpt lat="44.4338" lon="2.36989">
        <ele>571.5</ele>
        <time>2011-01-09T08:24:37Z</time>
      </trkpt>
      <trkpt lat="44.43377" lon="2.36988">
        <ele>571.7</ele>
        <time>2011-01-09T08:24:38Z</time>
      </trkpt>
      <trkpt lat="44.43375" lon="2.36986">
        <ele>571.9</ele>
        <time>2011-01-09T08:24:39Z</time>
      </trkpt>
      <trkpt lat="44.43372" lon="2.36985">
        <ele>572.1</ele>
        <time>2011-01-09T08:24:40Z</time>
      </trkpt>
      <trkpt lat="44.4337" lon="2.36983">
        <ele>572.2</ele>
        <time>2011-01-09T08:24:41Z</time>
      </trkpt>
      <trkpt lat="44.43367" lon="2.36981">
        <ele>572.4</ele>
        <time>2011-01-09T08:24:42Z</time>
      </trkpt>
      <trkpt lat="44.43364" lon="2.3698">
        <ele>572.6</ele>
        <time>2011-01-09T08:24:43Z</time>
      </trkpt>
      <trkpt lat="44.43362" lon="2.36978">
        <ele>572.7</ele>
        <time>2011-01-09T08:24:44Z</time>
      </trkpt>
      <trkpt lat="44.43359" lon="2.36977">
        <ele>572.9</ele>
        <time>2011-01-09T08:24:45Z</time>
      </trkpt>
      <trkpt lat="44.43356" lon="2.36975">
        <ele>573</ele>
        <time>2011-01-09T08:24:46Z</time>
      </trkpt>
      <trkpt lat="44.43354" lon="2.36974">
        <ele>573.1</ele>
        <time>2011-01-09T08:24:47Z</time>
      </trkpt>
      <trkpt lat="44.43351" lon="2.36973">
        <ele>573</ele>
        <time>2011-01-09T08:24:48Z</time>
      </trkpt>
      <trkpt lat="44.43348" lon="2.36971">
        <ele>572.9</ele>
        <time>2011-01-09T08:24:49Z</time>
      </trkpt>
      <trkpt lat="44.43345" lon="2.36969">
        <ele>572.9</ele>
        <time>2011-01-09T08:24:50Z</time>
      </trkpt>
      <trkpt lat="44.43342" lon="2.36968">
        <ele>572.8</ele>
        <time>2011-01-09T08:24:51Z</time>
      </trkpt>
      <trkpt lat="44.43339" lon="2.36966">
        <ele>573.2</ele>
        <time>2011-01-09T08:24:52Z</time>
      </trkpt>
      <trkpt lat="44.43337" lon="2.36965">
        <ele>573.5</ele>
        <time>2011-01-09T08:24:53Z</time>
      </trkpt>
      <trkpt lat="44.43334" lon="2.36963">
        <ele>573.7</ele>
        <time>2011-01-09T08:24:54Z</time>
      </trkpt>
      <trkpt lat="44.43332" lon="2.36962">
        <ele>573.7</ele>
        <time>2011-01-09T08:24:55Z</time>
      </trkpt>
      <trkpt lat="44.43329" lon="2.36961">
        <ele>573.7</ele>
        <time>2011-01-09T08:24:56Z</time>
      </trkpt>
      <trkpt lat="44.43326" lon="2.36959">
        <ele>573.7</ele>
        <time>2011-01-09T08:24:57Z</time>
      </trkpt>
      <trkpt lat="44.43323" lon="2.36958">
        <ele>573.8</ele>
        <time>2011-01-09T08:24:58Z</time>
      </trkpt>
      <trkpt lat="44.43321" lon="2.36957">
        <ele>574</ele>
        <time>2011-01-09T08:24:59Z</time>
      </trkpt>
      <trkpt lat="44.43318" lon="2.36956">
        <ele>574.1</ele>
        <time>2011-01-09T08:25:00Z</time>
      </trkpt>
      <trkpt lat="44.43315" lon="2.36955">
        <ele>574.4</ele>
        <time>2011-01-09T08:25:01Z</time>
      </trkpt>
      <trkpt lat="44.43313" lon="2.36953">
        <ele>574.7</ele>
        <time>2011-01-09T08:25:02Z</time>
      </trkpt>
      <trkpt lat="44.4331" lon="2.36952">
        <ele>574.9</ele>
        <time>2011-01-09T08:25:03Z</time>
      </trkpt>
      <trkpt lat="44.43307" lon="2.36951">
        <ele>575</ele>
        <time>2011-01-09T08:25:04Z</time>
      </trkpt>
      <trkpt lat="44.43305" lon="2.3695">
        <ele>575.2</ele>
        <time>2011-01-09T08:25:05Z</time>
      </trkpt>
      <trkpt lat="44.43302" lon="2.36948">
        <ele>575.2</ele>
        <time>2011-01-09T08:25:06Z</time>
      </trkpt>
      <trkpt lat="44.43299" lon="2.36947">
        <ele>575.3</ele>
        <time>2011-01-09T08:25:07Z</time>
      </trkpt>
      <trkpt lat="44.43295" lon="2.36946">
        <ele>575.3</ele>
        <time>2011-01-09T08:25:08Z</time>
      </trkpt>
      <trkpt lat="44.43292" lon="2.36945">
        <ele>575.4</ele>
        <time>2011-01-09T08:25:09Z</time>
      </trkpt>
      <trkpt lat="44.43289" lon="2.36943">
        <ele>575.4</ele>
        <time>2011-01-09T08:25:10Z</time>
      </trkpt>
      <trkpt lat="44.43286" lon="2.36942">
        <ele>575.6</ele>
        <time>2011-01-09T08:25:11Z</time>
      </trkpt>
      <trkpt lat="44.43283" lon="2.36941">
        <ele>575.8</ele>
        <time>2011-01-09T08:25:12Z</time>
      </trkpt>
      <trkpt lat="44.4328" lon="2.3694">
        <ele>575.9</ele>
        <time>2011-01-09T08:25:13Z</time>
      </trkpt>
      <trkpt lat="44.43277" lon="2.36939">
        <ele>576.2</ele>
        <time>2011-01-09T08:25:14Z</time>
      </trkpt>
      <trkpt lat="44.43274" lon="2.36938">
        <ele>576.4</ele>
        <time>2011-01-09T08:25:15Z</time>
      </trkpt>
      <trkpt lat="44.43271" lon="2.36937">
        <ele>576.6</ele>
        <time>2011-01-09T08:25:16Z</time>
      </trkpt>
      <trkpt lat="44.43268" lon="2.36936">
        <ele>576.8</ele>
        <time>2011-01-09T08:25:17Z</time>
      </trkpt>
      <trkpt lat="44.43265" lon="2.36935">
        <ele>576.9</ele>
        <time>2011-01-09T08:25:18Z</time>
      </trkpt>
      <trkpt lat="44.43262" lon="2.36933">
        <ele>577.1</ele>
        <time>2011-01-09T08:25:19Z</time>
      </trkpt>
      <trkpt lat="44.43259" lon="2.36933">
        <ele>576.9</ele>
        <time>2011-01-09T08:25:20Z</time>
      </trkpt>
      <trkpt lat="44.43257" lon="2.36932">
        <ele>576.7</ele>
        <time>2011-01-09T08:25:21Z</time>
      </trkpt>
      <trkpt lat="44.43254" lon="2.36931">
        <ele>576.6</ele>
        <time>2011-01-09T08:25:22Z</time>
      </trkpt>
      <trkpt lat="44.43252" lon="2.3693">
        <ele>576.6</ele>
        <time>2011-01-09T08:25:23Z</time>
      </trkpt>
      <trkpt lat="44.43249" lon="2.3693">
        <ele>577.2</ele>
        <time>2011-01-09T08:25:24Z</time>
      </trkpt>
      <trkpt lat="44.43246" lon="2.3693">
        <ele>577.7</ele>
        <time>2011-01-09T08:25:25Z</time>
      </trkpt>
      <trkpt lat="44.43243" lon="2.3693">
        <ele>578.1</ele>
        <time>2011-01-09T08:25:26Z</time>
      </trkpt>
      <trkpt lat="44.43241" lon="2.3693">
        <ele>578.1</ele>
        <time>2011-01-09T08:25:27Z</time>
      </trkpt>
      <trkpt lat="44.43238" lon="2.36931">
        <ele>578.1</ele>
        <time>2011-01-09T08:25:28Z</time>
      </trkpt>
      <trkpt lat="44.43235" lon="2.36932">
        <ele>578.1</ele>
        <time>2011-01-09T08:25:29Z</time>
      </trkpt>
      <trkpt lat="44.43233" lon="2.36932">
        <ele>578.6</ele>
        <time>2011-01-09T08:25:30Z</time>
      </trkpt>
      <trkpt lat="44.4323" lon="2.36933">
        <ele>578.9</ele>
        <time>2011-01-09T08:25:31Z</time>
      </trkpt>
      <trkpt lat="44.43228" lon="2.36933">
        <ele>579.1</ele>
        <time>2011-01-09T08:25:32Z</time>
      </trkpt>
      <trkpt lat="44.43225" lon="2.36934">
        <ele>578.8</ele>
        <time>2011-01-09T08:25:33Z</time>
      </trkpt>
      <trkpt lat="44.43222" lon="2.36935">
        <ele>578.5</ele>
        <time>2011-01-09T08:25:34Z</time>
      </trkpt>
      <trkpt lat="44.4322" lon="2.36935">
        <ele>578.3</ele>
        <time>2011-01-09T08:25:35Z</time>
      </trkpt>
      <trkpt lat="44.43217" lon="2.36936">
        <ele>578.6</ele>
        <time>2011-01-09T08:25:36Z</time>
      </trkpt>
      <trkpt lat="44.43214" lon="2.36936">
        <ele>578.8</ele>
        <time>2011-01-09T08:25:37Z</time>
      </trkpt>
      <trkpt lat="44.43212" lon="2.36937">
        <ele>578.9</ele>
        <time>2011-01-09T08:25:38Z</time>
      </trkpt>
      <trkpt lat="44.43209" lon="2.36938">
        <ele>579</ele>
        <time>2011-01-09T08:25:39Z</time>
      </trkpt>
      <trkpt lat="44.43206" lon="2.36938">
        <ele>579.2</ele>
        <time>2011-01-09T08:25:40Z</time>
      </trkpt>
      <trkpt lat="44.43203" lon="2.36939">
        <ele>579.3</ele>
        <time>2011-01-09T08:25:41Z</time>
      </trkpt>
      <trkpt lat="44.43201" lon="2.3694">
        <ele>579.4</ele>
        <time>2011-01-09T08:25:42Z</time>
      </trkpt>
      <trkpt lat="44.43198" lon="2.3694">
        <ele>579.2</ele>
        <time>2011-01-09T08:25:43Z</time>
      </trkpt>
      <trkpt lat="44.43195" lon="2.36941">
        <ele>579.1</ele>
        <time>2011-01-09T08:25:44Z</time>
      </trkpt>
      <trkpt lat="44.43193" lon="2.36941">
        <ele>579</ele>
        <time>2011-01-09T08:25:45Z</time>
      </trkpt>
      <trkpt lat="44.4319" lon="2.36942">
        <ele>579.2</ele>
        <time>2011-01-09T08:25:46Z</time>
      </trkpt>
      <trkpt lat="44.43188" lon="2.36943">
        <ele>579.3</ele>
        <time>2011-01-09T08:25:47Z</time>
      </trkpt>
      <trkpt lat="44.43185" lon="2.36943">
        <ele>579.4</ele>
        <time>2011-01-09T08:25:48Z</time>
      </trkpt>
      <trkpt lat="44.43183" lon="2.36944">
        <ele>579.8</ele>
        <time>2011-01-09T08:25:49Z</time>
      </trkpt>
      <trkpt lat="44.4318" lon="2.36945">
        <ele>580.1</ele>
        <time>2011-01-09T08:25:50Z</time>
      </trkpt>
      <trkpt lat="44.43178" lon="2.36945">
        <ele>580.4</ele>
        <time>2011-01-09T08:25:51Z</time>
      </trkpt>
      <trkpt lat="44.43174" lon="2.36947">
        <ele>580.9</ele>
        <time>2011-01-09T08:25:53Z</time>
      </trkpt>
      <trkpt lat="44.43171" lon="2.36947">
        <ele>581</ele>
        <time>2011-01-09T08:25:54Z</time>
      </trkpt>
      <trkpt lat="44.43167" lon="2.36949">
        <ele>581</ele>
        <time>2011-01-09T08:25:56Z</time>
      </trkpt>
      <trkpt lat="44.43165" lon="2.36949">
        <ele>580.9</ele>
        <time>2011-01-09T08:25:57Z</time>
      </trkpt>
      <trkpt lat="44.4316" lon="2.3695">
        <ele>580.9</ele>
        <time>2011-01-09T08:25:59Z</time>
      </trkpt>
      <trkpt lat="44.43156" lon="2.36952">
        <ele>581.2</ele>
        <time>2011-01-09T08:26:01Z</time>
      </trkpt>
      <trkpt lat="44.43152" lon="2.36954">
        <ele>581.6</ele>
        <time>2011-01-09T08:26:03Z</time>
      </trkpt>
      <trkpt lat="44.43148" lon="2.36956">
        <ele>581.5</ele>
        <time>2011-01-09T08:26:05Z</time>
      </trkpt>
      <trkpt lat="44.43146" lon="2.36957">
        <ele>581.4</ele>
        <time>2011-01-09T08:26:06Z</time>
      </trkpt>
      <trkpt lat="44.43144" lon="2.36957">
        <ele>581.3</ele>
        <time>2011-01-09T08:26:07Z</time>
      </trkpt>
      <trkpt lat="44.43142" lon="2.36958">
        <ele>581.6</ele>
        <time>2011-01-09T08:26:08Z</time>
      </trkpt>
      <trkpt lat="44.43139" lon="2.36959">
        <ele>581.8</ele>
        <time>2011-01-09T08:26:09Z</time>
      </trkpt>
      <trkpt lat="44.43137" lon="2.3696">
        <ele>582</ele>
        <time>2011-01-09T08:26:10Z</time>
      </trkpt>
      <trkpt lat="44.43135" lon="2.36961">
        <ele>582.3</ele>
        <time>2011-01-09T08:26:11Z</time>
      </trkpt>
      <trkpt lat="44.43132" lon="2.36961">
        <ele>582.5</ele>
        <time>2011-01-09T08:26:12Z</time>
      </trkpt>
      <trkpt lat="44.4313" lon="2.36962">
        <ele>582.7</ele>
        <time>2011-01-09T08:26:13Z</time>
      </trkpt>
      <trkpt lat="44.43128" lon="2.36963">
        <ele>582.8</ele>
        <time>2011-01-09T08:26:14Z</time>
      </trkpt>
      <trkpt lat="44.43125" lon="2.36964">
        <ele>582.8</ele>
        <time>2011-01-09T08:26:15Z</time>
      </trkpt>
      <trkpt lat="44.43123" lon="2.36965">
        <ele>582.9</ele>
        <time>2011-01-09T08:26:16Z</time>
      </trkpt>
      <trkpt lat="44.4312" lon="2.36966">
        <ele>582.9</ele>
        <time>2011-01-09T08:26:17Z</time>
      </trkpt>
      <trkpt lat="44.43118" lon="2.36967">
        <ele>583.1</ele>
        <time>2011-01-09T08:26:18Z</time>
      </trkpt>
      <trkpt lat="44.43115" lon="2.36968">
        <ele>583.2</ele>
        <time>2011-01-09T08:26:19Z</time>
      </trkpt>
      <trkpt lat="44.43113" lon="2.36969">
        <ele>583.3</ele>
        <time>2011-01-09T08:26:20Z</time>
      </trkpt>
      <trkpt lat="44.43111" lon="2.36971">
        <ele>583.6</ele>
        <time>2011-01-09T08:26:21Z</time>
      </trkpt>
      <trkpt lat="44.43109" lon="2.36973">
        <ele>583.8</ele>
        <time>2011-01-09T08:26:22Z</time>
      </trkpt>
      <trkpt lat="44.43107" lon="2.36974">
        <ele>584</ele>
        <time>2011-01-09T08:26:23Z</time>
      </trkpt>
      <trkpt lat="44.43104" lon="2.36976">
        <ele>584.6</ele>
        <time>2011-01-09T08:26:24Z</time>
      </trkpt>
      <trkpt lat="44.43103" lon="2.36978">
        <ele>585</ele>
        <time>2011-01-09T08:26:25Z</time>
      </trkpt>
      <trkpt lat="44.43101" lon="2.3698">
        <ele>585.4</ele>
        <time>2011-01-09T08:26:26Z</time>
      </trkpt>
      <trkpt lat="44.43099" lon="2.36983">
        <ele>585.4</ele>
        <time>2011-01-09T08:26:27Z</time>
      </trkpt>
      <trkpt lat="44.43097" lon="2.36986">
        <ele>585.4</ele>
        <time>2011-01-09T08:26:28Z</time>
      </trkpt>
      <trkpt lat="44.43097" lon="2.36989">
        <ele>585.3</ele>
        <time>2011-01-09T08:26:29Z</time>
      </trkpt>
      <trkpt lat="44.43097" lon="2.36993">
        <ele>585.3</ele>
        <time>2011-01-09T08:26:30Z</time>
      </trkpt>
      <trkpt lat="44.43098" lon="2.36997">
        <ele>585.4</ele>
        <time>2011-01-09T08:26:31Z</time>
      </trkpt>
      <trkpt lat="44.43099" lon="2.37">
        <ele>585.4</ele>
        <time>2011-01-09T08:26:32Z</time>
      </trkpt>
      <trkpt lat="44.431" lon="2.37004">
        <ele>585.4</ele>
        <time>2011-01-09T08:26:33Z</time>
      </trkpt>
      <trkpt lat="44.43101" lon="2.37007">
        <ele>585.2</ele>
        <time>2011-01-09T08:26:34Z</time>
      </trkpt>
      <trkpt lat="44.43103" lon="2.37011">
        <ele>585</ele>
        <time>2011-01-09T08:26:35Z</time>
      </trkpt>
      <trkpt lat="44.43103" lon="2.37016">
        <ele>584.9</ele>
        <time>2011-01-09T08:26:36Z</time>
      </trkpt>
      <trkpt lat="44.43104" lon="2.3702">
        <ele>584.7</ele>
        <time>2011-01-09T08:26:37Z</time>
      </trkpt>
      <trkpt lat="44.43104" lon="2.37025">
        <ele>584.6</ele>
        <time>2011-01-09T08:26:38Z</time>
      </trkpt>
      <trkpt lat="44.43105" lon="2.3703">
        <ele>584.5</ele>
        <time>2011-01-09T08:26:39Z</time>
      </trkpt>
      <trkpt lat="44.43106" lon="2.37035">
        <ele>584.1</ele>
        <time>2011-01-09T08:26:40Z</time>
      </trkpt>
      <trkpt lat="44.43106" lon="2.37041">
        <ele>583.8</ele>
        <time>2011-01-09T08:26:41Z</time>
      </trkpt>
      <trkpt lat="44.43107" lon="2.37046">
        <ele>583.6</ele>
        <time>2011-01-09T08:26:42Z</time>
      </trkpt>
      <trkpt lat="44.43108" lon="2.37052">
        <ele>583.6</ele>
        <time>2011-01-09T08:26:43Z</time>
      </trkpt>
      <trkpt lat="44.43108" lon="2.37057">
        <ele>583.6</ele>
        <time>2011-01-09T08:26:44Z</time>
      </trkpt>
      <trkpt lat="44.43109" lon="2.37062">
        <ele>583.7</ele>
        <time>2011-01-09T08:26:45Z</time>
      </trkpt>
      <trkpt lat="44.4311" lon="2.37068">
        <ele>583.7</ele>
        <time>2011-01-09T08:26:46Z</time>
      </trkpt>
      <trkpt lat="44.4311" lon="2.37073">
        <ele>583.2</ele>
        <time>2011-01-09T08:26:47Z</time>
      </trkpt>
      <trkpt lat="44.43111" lon="2.37079">
        <ele>582.8</ele>
        <time>2011-01-09T08:26:48Z</time>
      </trkpt>
      <trkpt lat="44.43111" lon="2.37085">
        <ele>582.6</ele>
        <time>2011-01-09T08:26:49Z</time>
      </trkpt>
      <trkpt lat="44.43112" lon="2.3709">
        <ele>582.5</ele>
        <time>2011-01-09T08:26:50Z</time>
      </trkpt>
      <trkpt lat="44.43113" lon="2.37095">
        <ele>582.5</ele>
        <time>2011-01-09T08:26:51Z</time>
      </trkpt>
      <trkpt lat="44.43114" lon="2.37101">
        <ele>582.4</ele>
        <time>2011-01-09T08:26:52Z</time>
      </trkpt>
      <trkpt lat="44.43115" lon="2.37106">
        <ele>582.3</ele>
        <time>2011-01-09T08:26:53Z</time>
      </trkpt>
      <trkpt lat="44.43116" lon="2.37111">
        <ele>582.2</ele>
        <time>2011-01-09T08:26:54Z</time>
      </trkpt>
      <trkpt lat="44.43116" lon="2.37116">
        <ele>582.1</ele>
        <time>2011-01-09T08:26:55Z</time>
      </trkpt>
      <trkpt lat="44.43117" lon="2.3712">
        <ele>581.9</ele>
        <time>2011-01-09T08:26:56Z</time>
      </trkpt>
      <trkpt lat="44.43117" lon="2.37123">
        <ele>581.8</ele>
        <time>2011-01-09T08:26:57Z</time>
      </trkpt>
      <trkpt lat="44.43118" lon="2.37127">
        <ele>581.7</ele>
        <time>2011-01-09T08:26:58Z</time>
      </trkpt>
      <trkpt lat="44.43118" lon="2.37131">
        <ele>581.2</ele>
        <time>2011-01-09T08:26:59Z</time>
      </trkpt>
      <trkpt lat="44.43119" lon="2.37135">
        <ele>580.8</ele>
        <time>2011-01-09T08:27:00Z</time>
      </trkpt>
      <trkpt lat="44.43119" lon="2.3714">
        <ele>580.5</ele>
        <time>2011-01-09T08:27:01Z</time>
      </trkpt>
      <trkpt lat="44.4312" lon="2.37144">
        <ele>580.2</ele>
        <time>2011-01-09T08:27:02Z</time>
      </trkpt>
      <trkpt lat="44.4312" lon="2.37147">
        <ele>580.4</ele>
        <time>2011-01-09T08:27:03Z</time>
      </trkpt>
      <trkpt lat="44.43121" lon="2.37151">
        <ele>580.5</ele>
        <time>2011-01-09T08:27:04Z</time>
      </trkpt>
      <trkpt lat="44.43121" lon="2.37154">
        <ele>580.5</ele>
        <time>2011-01-09T08:27:05Z</time>
      </trkpt>
      <trkpt lat="44.43122" lon="2.37158">
        <ele>580.5</ele>
        <time>2011-01-09T08:27:06Z</time>
      </trkpt>
      <trkpt lat="44.43122" lon="2.37161">
        <ele>580.4</ele>
        <time>2011-01-09T08:27:07Z</time>
      </trkpt>
      <trkpt lat="44.43123" lon="2.37165">
        <ele>580.4</ele>
        <time>2011-01-09T08:27:08Z</time>
      </trkpt>
      <trkpt lat="44.43123" lon="2.37168">
        <ele>580.5</ele>
        <time>2011-01-09T08:27:09Z</time>
      </trkpt>
      <trkpt lat="44.43124" lon="2.37172">
        <ele>580.6</ele>
        <time>2011-01-09T08:27:10Z</time>
      </trkpt>
      <trkpt lat="44.43124" lon="2.37175">
        <ele>580.6</ele>
        <time>2011-01-09T08:27:11Z</time>
      </trkpt>
      <trkpt lat="44.43125" lon="2.37179">
        <ele>580.8</ele>
        <time>2011-01-09T08:27:12Z</time>
      </trkpt>
      <trkpt lat="44.43125" lon="2.37184">
        <ele>580.9</ele>
        <time>2011-01-09T08:27:13Z</time>
      </trkpt>
      <trkpt lat="44.43125" lon="2.37187">
        <ele>581</ele>
        <time>2011-01-09T08:27:14Z</time>
      </trkpt>
      <trkpt lat="44.43124" lon="2.37191">
        <ele>580.9</ele>
        <time>2011-01-09T08:27:15Z</time>
      </trkpt>
      <trkpt lat="44.43124" lon="2.37196">
        <ele>580.8</ele>
        <time>2011-01-09T08:27:16Z</time>
      </trkpt>
      <trkpt lat="44.43124" lon="2.372">
        <ele>580.7</ele>
        <time>2011-01-09T08:27:17Z</time>
      </trkpt>
      <trkpt lat="44.43124" lon="2.37204">
        <ele>580.8</ele>
        <time>2011-01-09T08:27:18Z</time>
      </trkpt>
      <trkpt lat="44.43123" lon="2.37209">
        <ele>580.9</ele>
        <time>2011-01-09T08:27:19Z</time>
      </trkpt>
      <trkpt lat="44.43123" lon="2.37213">
        <ele>580.9</ele>
        <time>2011-01-09T08:27:20Z</time>
      </trkpt>
      <trkpt lat="44.43122" lon="2.37216">
        <ele>580.9</ele>
        <time>2011-01-09T08:27:21Z</time>
      </trkpt>
      <trkpt lat="44.43122" lon="2.37221">
        <ele>580.8</ele>
        <time>2011-01-09T08:27:22Z</time>
      </trkpt>
      <trkpt lat="44.43121" lon="2.37225">
        <ele>580.7</ele>
        <time>2011-01-09T08:27:23Z</time>
      </trkpt>
      <trkpt lat="44.43121" lon="2.3723">
        <ele>580.7</ele>
        <time>2011-01-09T08:27:24Z</time>
      </trkpt>
      <trkpt lat="44.4312" lon="2.37234">
        <ele>580.9</ele>
        <time>2011-01-09T08:27:25Z</time>
      </trkpt>
      <trkpt lat="44.43119" lon="2.37239">
        <ele>581.1</ele>
        <time>2011-01-09T08:27:26Z</time>
      </trkpt>
      <trkpt lat="44.43118" lon="2.37244">
        <ele>581.2</ele>
        <time>2011-01-09T08:27:27Z</time>
      </trkpt>
      <trkpt lat="44.43117" lon="2.37249">
        <ele>581.5</ele>
        <time>2011-01-09T08:27:28Z</time>
      </trkpt>
      <trkpt lat="44.43116" lon="2.37253">
        <ele>581.8</ele>
        <time>2011-01-09T08:27:29Z</time>
      </trkpt>
      <trkpt lat="44.43116" lon="2.37258">
        <ele>582</ele>
        <time>2011-01-09T08:27:30Z</time>
      </trkpt>
      <trkpt lat="44.43115" lon="2.37262">
        <ele>582.2</ele>
        <time>2011-01-09T08:27:31Z</time>
      </trkpt>
      <trkpt lat="44.43114" lon="2.37267">
        <ele>582.4</ele>
        <time>2011-01-09T08:27:32Z</time>
      </trkpt>
      <trkpt lat="44.43113" lon="2.37271">
        <ele>582.5</ele>
        <time>2011-01-09T08:27:33Z</time>
      </trkpt>
      <trkpt lat="44.43112" lon="2.37276">
        <ele>582.3</ele>
        <time>2011-01-09T08:27:34Z</time>
      </trkpt>
      <trkpt lat="44.43112" lon="2.3728">
        <ele>582.1</ele>
        <time>2011-01-09T08:27:35Z</time>
      </trkpt>
      <trkpt lat="44.43111" lon="2.37285">
        <ele>581.9</ele>
        <time>2011-01-09T08:27:36Z</time>
      </trkpt>
      <trkpt lat="44.4311" lon="2.37289">
        <ele>581.8</ele>
        <time>2011-01-09T08:27:37Z</time>
      </trkpt>
      <trkpt lat="44.4311" lon="2.37294">
        <ele>582.3</ele>
        <time>2011-01-09T08:27:38Z</time>
      </trkpt>
      <trkpt lat="44.43109" lon="2.37298">
        <ele>582.6</ele>
        <time>2011-01-09T08:27:39Z</time>
      </trkpt>
      <trkpt lat="44.43108" lon="2.37303">
        <ele>582.9</ele>
        <time>2011-01-09T08:27:40Z</time>
      </trkpt>
      <trkpt lat="44.43107" lon="2.37307">
        <ele>582.8</ele>
        <time>2011-01-09T08:27:41Z</time>
      </trkpt>
      <trkpt lat="44.43107" lon="2.37312">
        <ele>582.8</ele>
        <time>2011-01-09T08:27:42Z</time>
      </trkpt>
      <trkpt lat="44.43106" lon="2.37316">
        <ele>582.7</ele>
        <time>2011-01-09T08:27:43Z</time>
      </trkpt>
      <trkpt lat="44.43105" lon="2.37321">
        <ele>582.7</ele>
        <time>2011-01-09T08:27:44Z</time>
      </trkpt>
      <trkpt lat="44.43104" lon="2.37325">
        <ele>582.7</ele>
        <time>2011-01-09T08:27:45Z</time>
      </trkpt>
      <trkpt lat="44.43104" lon="2.3733">
        <ele>582.7</ele>
        <time>2011-01-09T08:27:46Z</time>
      </trkpt>
      <trkpt lat="44.43103" lon="2.37334">
        <ele>583.1</ele>
        <time>2011-01-09T08:27:47Z</time>
      </trkpt>
      <trkpt lat="44.43102" lon="2.37339">
        <ele>583.3</ele>
        <time>2011-01-09T08:27:48Z</time>
      </trkpt>
      <trkpt lat="44.43102" lon="2.37344">
        <ele>583.6</ele>
        <time>2011-01-09T08:27:49Z</time>
      </trkpt>
      <trkpt lat="44.43101" lon="2.37348">
        <ele>583.9</ele>
        <time>2011-01-09T08:27:50Z</time>
      </trkpt>
      <trkpt lat="44.431" lon="2.37353">
        <ele>584.2</ele>
        <time>2011-01-09T08:27:51Z</time>
      </trkpt>
      <trkpt lat="44.431" lon="2.37357">
        <ele>584.4</ele>
        <time>2011-01-09T08:27:52Z</time>
      </trkpt>
      <trkpt lat="44.431" lon="2.37362">
        <ele>584.5</ele>
        <time>2011-01-09T08:27:53Z</time>
      </trkpt>
      <trkpt lat="44.43099" lon="2.37366">
        <ele>584.8</ele>
        <time>2011-01-09T08:27:54Z</time>
      </trkpt>
      <trkpt lat="44.43099" lon="2.3737">
        <ele>585</ele>
        <time>2011-01-09T08:27:55Z</time>
      </trkpt>
      <trkpt lat="44.43099" lon="2.37374">
        <ele>585.2</ele>
        <time>2011-01-09T08:27:56Z</time>
      </trkpt>
      <trkpt lat="44.43099" lon="2.37379">
        <ele>585.1</ele>
        <time>2011-01-09T08:27:57Z</time>
      </trkpt>
      <trkpt lat="44.43099" lon="2.37383">
        <ele>585.1</ele>
        <time>2011-01-09T08:27:58Z</time>
      </trkpt>
      <trkpt lat="44.43099" lon="2.37387">
        <ele>585.1</ele>
        <time>2011-01-09T08:27:59Z</time>
      </trkpt>
      <trkpt lat="44.43099" lon="2.37392">
        <ele>585</ele>
        <time>2011-01-09T08:28:00Z</time>
      </trkpt>
      <trkpt lat="44.43099" lon="2.37396">
        <ele>584.9</ele>
        <time>2011-01-09T08:28:01Z</time>
      </trkpt>
      <trkpt lat="44.43099" lon="2.37401">
        <ele>584.9</ele>
        <time>2011-01-09T08:28:02Z</time>
      </trkpt>
      <trkpt lat="44.43099" lon="2.37405">
        <ele>584.9</ele>
        <time>2011-01-09T08:28:03Z</time>
      </trkpt>
      <trkpt lat="44.43099" lon="2.37409">
        <ele>584.9</ele>
        <time>2011-01-09T08:28:04Z</time>
      </trkpt>
      <trkpt lat="44.43098" lon="2.37413">
        <ele>584.9</ele>
        <time>2011-01-09T08:28:05Z</time>
      </trkpt>
      <trkpt lat="44.43098" lon="2.37417">
        <ele>585.3</ele>
        <time>2011-01-09T08:28:06Z</time>
      </trkpt>
      <trkpt lat="44.43098" lon="2.37422">
        <ele>585.7</ele>
        <time>2011-01-09T08:28:07Z</time>
      </trkpt>
      <trkpt lat="44.43097" lon="2.37426">
        <ele>585.9</ele>
        <time>2011-01-09T08:28:08Z</time>
      </trkpt>
      <trkpt lat="44.43097" lon="2.37431">
        <ele>586.1</ele>
        <time>2011-01-09T08:28:09Z</time>
      </trkpt>
      <trkpt lat="44.43097" lon="2.37436">
        <ele>585.8</ele>
        <time>2011-01-09T08:28:10Z</time>
      </trkpt>
      <trkpt lat="44.43096" lon="2.37439">
        <ele>585.6</ele>
        <time>2011-01-09T08:28:11Z</time>
      </trkpt>
      <trkpt lat="44.43096" lon="2.37444">
        <ele>585.4</ele>
        <time>2011-01-09T08:28:12Z</time>
      </trkpt>
      <trkpt lat="44.43096" lon="2.37448">
        <ele>585.6</ele>
        <time>2011-01-09T08:28:13Z</time>
      </trkpt>
      <trkpt lat="44.43096" lon="2.37453">
        <ele>585.7</ele>
        <time>2011-01-09T08:28:14Z</time>
      </trkpt>
      <trkpt lat="44.43096" lon="2.37457">
        <ele>585.8</ele>
        <time>2011-01-09T08:28:15Z</time>
      </trkpt>
      <trkpt lat="44.43096" lon="2.37461">
        <ele>585.6</ele>
        <time>2011-01-09T08:28:16Z</time>
      </trkpt>
      <trkpt lat="44.43096" lon="2.37465">
        <ele>585.5</ele>
        <time>2011-01-09T08:28:17Z</time>
      </trkpt>
      <trkpt lat="44.43096" lon="2.3747">
        <ele>585.3</ele>
        <time>2011-01-09T08:28:18Z</time>
      </trkpt>
      <trkpt lat="44.43096" lon="2.37474">
        <ele>585.3</ele>
        <time>2011-01-09T08:28:19Z</time>
      </trkpt>
      <trkpt lat="44.43096" lon="2.37479">
        <ele>585.2</ele>
        <time>2011-01-09T08:28:20Z</time>
      </trkpt>
      <trkpt lat="44.43095" lon="2.37484">
        <ele>585.2</ele>
        <time>2011-01-09T08:28:21Z</time>
      </trkpt>
      <trkpt lat="44.43095" lon="2.37488">
        <ele>585.1</ele>
        <time>2011-01-09T08:28:22Z</time>
      </trkpt>
      <trkpt lat="44.43095" lon="2.37492">
        <ele>585</ele>
        <time>2011-01-09T08:28:23Z</time>
      </trkpt>
      <trkpt lat="44.43095" lon="2.37496">
        <ele>585</ele>
        <time>2011-01-09T08:28:24Z</time>
      </trkpt>
      <trkpt lat="44.43094" lon="2.37501">
        <ele>585</ele>
        <time>2011-01-09T08:28:25Z</time>
      </trkpt>
      <trkpt lat="44.43093" lon="2.37505">
        <ele>585.1</ele>
        <time>2011-01-09T08:28:26Z</time>
      </trkpt>
      <trkpt lat="44.43092" lon="2.3751">
        <ele>585.2</ele>
        <time>2011-01-09T08:28:27Z</time>
      </trkpt>
      <trkpt lat="44.43091" lon="2.37515">
        <ele>585.2</ele>
        <time>2011-01-09T08:28:28Z</time>
      </trkpt>
      <trkpt lat="44.43091" lon="2.37519">
        <ele>585.1</ele>
        <time>2011-01-09T08:28:29Z</time>
      </trkpt>
      <trkpt lat="44.4309" lon="2.37523">
        <ele>585</ele>
        <time>2011-01-09T08:28:30Z</time>
      </trkpt>
      <trkpt lat="44.43089" lon="2.37527">
        <ele>585</ele>
        <time>2011-01-09T08:28:31Z</time>
      </trkpt>
      <trkpt lat="44.43088" lon="2.37532">
        <ele>585.1</ele>
        <time>2011-01-09T08:28:32Z</time>
      </trkpt>
      <trkpt lat="44.43088" lon="2.37537">
        <ele>585.2</ele>
        <time>2011-01-09T08:28:33Z</time>
      </trkpt>
      <trkpt lat="44.43087" lon="2.37542">
        <ele>585.3</ele>
        <time>2011-01-09T08:28:34Z</time>
      </trkpt>
      <trkpt lat="44.43086" lon="2.37547">
        <ele>585.8</ele>
        <time>2011-01-09T08:28:35Z</time>
      </trkpt>
      <trkpt lat="44.43086" lon="2.37551">
        <ele>586.1</ele>
        <time>2011-01-09T08:28:36Z</time>
      </trkpt>
      <trkpt lat="44.43085" lon="2.37555">
        <ele>586.4</ele>
        <time>2011-01-09T08:28:37Z</time>
      </trkpt>
      <trkpt lat="44.43085" lon="2.37559">
        <ele>586.1</ele>
        <time>2011-01-09T08:28:38Z</time>
      </trkpt>
      <trkpt lat="44.43085" lon="2.37563">
        <ele>585.9</ele>
        <time>2011-01-09T08:28:39Z</time>
      </trkpt>
      <trkpt lat="44.43085" lon="2.37567">
        <ele>585.8</ele>
        <time>2011-01-09T08:28:40Z</time>
      </trkpt>
      <trkpt lat="44.43085" lon="2.3757">
        <ele>585.6</ele>
        <time>2011-01-09T08:28:41Z</time>
      </trkpt>
      <trkpt lat="44.43084" lon="2.37574">
        <ele>585.5</ele>
        <time>2011-01-09T08:28:42Z</time>
      </trkpt>
      <trkpt lat="44.43085" lon="2.37578">
        <ele>585.3</ele>
        <time>2011-01-09T08:28:43Z</time>
      </trkpt>
      <trkpt lat="44.43085" lon="2.37582">
        <ele>585.3</ele>
        <time>2011-01-09T08:28:44Z</time>
      </trkpt>
      <trkpt lat="44.43085" lon="2.37587">
        <ele>585.1</ele>
        <time>2011-01-09T08:28:45Z</time>
      </trkpt>
      <trkpt lat="44.43085" lon="2.37591">
        <ele>585</ele>
        <time>2011-01-09T08:28:46Z</time>
      </trkpt>
      <trkpt lat="44.43085" lon="2.37596">
        <ele>585</ele>
        <time>2011-01-09T08:28:47Z</time>
      </trkpt>
      <trkpt lat="44.43084" lon="2.376">
        <ele>585.2</ele>
        <time>2011-01-09T08:28:48Z</time>
      </trkpt>
      <trkpt lat="44.43084" lon="2.37605">
        <ele>585.4</ele>
        <time>2011-01-09T08:28:49Z</time>
      </trkpt>
      <trkpt lat="44.43084" lon="2.37609">
        <ele>585.5</ele>
        <time>2011-01-09T08:28:50Z</time>
      </trkpt>
      <trkpt lat="44.43084" lon="2.37614">
        <ele>585.4</ele>
        <time>2011-01-09T08:28:51Z</time>
      </trkpt>
      <trkpt lat="44.43084" lon="2.37618">
        <ele>585.4</ele>
        <time>2011-01-09T08:28:52Z</time>
      </trkpt>
      <trkpt lat="44.43084" lon="2.37623">
        <ele>585.4</ele>
        <time>2011-01-09T08:28:53Z</time>
      </trkpt>
      <trkpt lat="44.43085" lon="2.37627">
        <ele>585.8</ele>
        <time>2011-01-09T08:28:54Z</time>
      </trkpt>
      <trkpt lat="44.43085" lon="2.37632">
        <ele>586</ele>
        <time>2011-01-09T08:28:55Z</time>
      </trkpt>
      <trkpt lat="44.43086" lon="2.37636">
        <ele>586.2</ele>
        <time>2011-01-09T08:28:56Z</time>
      </trkpt>
      <trkpt lat="44.43086" lon="2.3764">
        <ele>585.8</ele>
        <time>2011-01-09T08:28:57Z</time>
      </trkpt>
      <trkpt lat="44.43087" lon="2.37645">
        <ele>585.5</ele>
        <time>2011-01-09T08:28:58Z</time>
      </trkpt>
      <trkpt lat="44.43087" lon="2.37649">
        <ele>585.2</ele>
        <time>2011-01-09T08:28:59Z</time>
      </trkpt>
      <trkpt lat="44.43088" lon="2.37654">
        <ele>585</ele>
        <time>2011-01-09T08:29:00Z</time>
      </trkpt>
      <trkpt lat="44.43088" lon="2.37659">
        <ele>585.2</ele>
        <time>2011-01-09T08:29:01Z</time>
      </trkpt>
      <trkpt lat="44.43088" lon="2.37664">
        <ele>585.3</ele>
        <time>2011-01-09T08:29:02Z</time>
      </trkpt>
      <trkpt lat="44.43088" lon="2.37669">
        <ele>585.3</ele>
        <time>2011-01-09T08:29:03Z</time>
      </trkpt>
      <trkpt lat="44.43087" lon="2.37674">
        <ele>585.5</ele>
        <time>2011-01-09T08:29:04Z</time>
      </trkpt>
      <trkpt lat="44.43087" lon="2.37679">
        <ele>585.6</ele>
        <time>2011-01-09T08:29:05Z</time>
      </trkpt>
      <trkpt lat="44.43086" lon="2.37683">
        <ele>585.6</ele>
        <time>2011-01-09T08:29:06Z</time>
      </trkpt>
      <trkpt lat="44.43085" lon="2.37687">
        <ele>585.6</ele>
        <time>2011-01-09T08:29:07Z</time>
      </trkpt>
      <trkpt lat="44.43085" lon="2.37691">
        <ele>585.6</ele>
        <time>2011-01-09T08:29:08Z</time>
      </trkpt>
      <trkpt lat="44.43084" lon="2.37696">
        <ele>585.6</ele>
        <time>2011-01-09T08:29:09Z</time>
      </trkpt>
      <trkpt lat="44.43084" lon="2.37701">
        <ele>585.9</ele>
        <time>2011-01-09T08:29:10Z</time>
      </trkpt>
      <trkpt lat="44.43084" lon="2.37705">
        <ele>586.1</ele>
        <time>2011-01-09T08:29:11Z</time>
      </trkpt>
      <trkpt lat="44.43084" lon="2.37709">
        <ele>586.2</ele>
        <time>2011-01-09T08:29:12Z</time>
      </trkpt>
      <trkpt lat="44.43085" lon="2.37714">
        <ele>586.1</ele>
        <time>2011-01-09T08:29:13Z</time>
      </trkpt>
      <trkpt lat="44.43086" lon="2.37719">
        <ele>586.1</ele>
        <time>2011-01-09T08:29:14Z</time>
      </trkpt>
      <trkpt lat="44.43086" lon="2.37725">
        <ele>586</ele>
        <time>2011-01-09T08:29:15Z</time>
      </trkpt>
      <trkpt lat="44.43086" lon="2.3773">
        <ele>586</ele>
        <time>2011-01-09T08:29:16Z</time>
      </trkpt>
      <trkpt lat="44.43087" lon="2.37735">
        <ele>586.2</ele>
        <time>2011-01-09T08:29:17Z</time>
      </trkpt>
      <trkpt lat="44.43087" lon="2.37741">
        <ele>586.3</ele>
        <time>2011-01-09T08:29:18Z</time>
      </trkpt>
      <trkpt lat="44.43088" lon="2.37746">
        <ele>586.4</ele>
        <time>2011-01-09T08:29:19Z</time>
      </trkpt>
      <trkpt lat="44.43088" lon="2.37752">
        <ele>586.2</ele>
        <time>2011-01-09T08:29:20Z</time>
      </trkpt>
      <trkpt lat="44.43089" lon="2.37758">
        <ele>586.1</ele>
        <time>2011-01-09T08:29:21Z</time>
      </trkpt>
      <trkpt lat="44.43089" lon="2.37764">
        <ele>586</ele>
        <time>2011-01-09T08:29:22Z</time>
      </trkpt>
      <trkpt lat="44.4309" lon="2.3777">
        <ele>585.8</ele>
        <time>2011-01-09T08:29:23Z</time>
      </trkpt>
      <trkpt lat="44.43091" lon="2.37776">
        <ele>585.7</ele>
        <time>2011-01-09T08:29:24Z</time>
      </trkpt>
      <trkpt lat="44.43091" lon="2.37782">
        <ele>585.6</ele>
        <time>2011-01-09T08:29:25Z</time>
      </trkpt>
      <trkpt lat="44.43092" lon="2.37787">
        <ele>585.2</ele>
        <time>2011-01-09T08:29:26Z</time>
      </trkpt>
      <trkpt lat="44.43093" lon="2.37793">
        <ele>584.9</ele>
        <time>2011-01-09T08:29:27Z</time>
      </trkpt>
      <trkpt lat="44.43094" lon="2.37799">
        <ele>584.6</ele>
        <time>2011-01-09T08:29:28Z</time>
      </trkpt>
      <trkpt lat="44.43095" lon="2.37805">
        <ele>584.3</ele>
        <time>2011-01-09T08:29:29Z</time>
      </trkpt>
      <trkpt lat="44.43096" lon="2.37811">
        <ele>584</ele>
        <time>2011-01-09T08:29:30Z</time>
      </trkpt>
      <trkpt lat="44.43097" lon="2.37818">
        <ele>583.8</ele>
        <time>2011-01-09T08:29:31Z</time>
      </trkpt>
      <trkpt lat="44.43098" lon="2.37824">
        <ele>583.8</ele>
        <time>2011-01-09T08:29:32Z</time>
      </trkpt>
      <trkpt lat="44.43098" lon="2.37829">
        <ele>583.7</ele>
        <time>2011-01-09T08:29:33Z</time>
      </trkpt>
      <trkpt lat="44.43099" lon="2.37835">
        <ele>583.7</ele>
        <time>2011-01-09T08:29:34Z</time>
      </trkpt>
      <trkpt lat="44.431" lon="2.37841">
        <ele>583.7</ele>
        <time>2011-01-09T08:29:35Z</time>
      </trkpt>
      <trkpt lat="44.431" lon="2.37847">
        <ele>583.6</ele>
        <time>2011-01-09T08:29:36Z</time>
      </trkpt>
      <trkpt lat="44.431" lon="2.37852">
        <ele>583.5</ele>
        <time>2011-01-09T08:29:37Z</time>
      </trkpt>
      <trkpt lat="44.431" lon="2.37858">
        <ele>583.4</ele>
        <time>2011-01-09T08:29:38Z</time>
      </trkpt>
      <trkpt lat="44.431" lon="2.37862">
        <ele>583.7</ele>
        <time>2011-01-09T08:29:39Z</time>
      </trkpt>
      <trkpt lat="44.43099" lon="2.37867">
        <ele>583.9</ele>
        <time>2011-01-09T08:29:40Z</time>
      </trkpt>
      <trkpt lat="44.43099" lon="2.37872">
        <ele>584.1</ele>
        <time>2011-01-09T08:29:41Z</time>
      </trkpt>
      <trkpt lat="44.43099" lon="2.37877">
        <ele>583.9</ele>
        <time>2011-01-09T08:29:42Z</time>
      </trkpt>
      <trkpt lat="44.43098" lon="2.37882">
        <ele>583.8</ele>
        <time>2011-01-09T08:29:43Z</time>
      </trkpt>
      <trkpt lat="44.43098" lon="2.37887">
        <ele>583.7</ele>
        <time>2011-01-09T08:29:44Z</time>
      </trkpt>
      <trkpt lat="44.43098" lon="2.37892">
        <ele>583.7</ele>
        <time>2011-01-09T08:29:45Z</time>
      </trkpt>
      <trkpt lat="44.43098" lon="2.37897">
        <ele>583.8</ele>
        <time>2011-01-09T08:29:46Z</time>
      </trkpt>
      <trkpt lat="44.43097" lon="2.37902">
        <ele>583.8</ele>
        <time>2011-01-09T08:29:47Z</time>
      </trkpt>
      <trkpt lat="44.43097" lon="2.37907">
        <ele>583.9</ele>
        <time>2011-01-09T08:29:48Z</time>
      </trkpt>
      <trkpt lat="44.43097" lon="2.37912">
        <ele>583.7</ele>
        <time>2011-01-09T08:29:49Z</time>
      </trkpt>
      <trkpt lat="44.43097" lon="2.37917">
        <ele>583.5</ele>
        <time>2011-01-09T08:29:50Z</time>
      </trkpt>
      <trkpt lat="44.43097" lon="2.37922">
        <ele>583.4</ele>
        <time>2011-01-09T08:29:51Z</time>
      </trkpt>
      <trkpt lat="44.43097" lon="2.37927">
        <ele>583.4</ele>
        <time>2011-01-09T08:29:52Z</time>
      </trkpt>
      <trkpt lat="44.43096" lon="2.37932">
        <ele>583.4</ele>
        <time>2011-01-09T08:29:53Z</time>
      </trkpt>
      <trkpt lat="44.43096" lon="2.37938">
        <ele>583.4</ele>
        <time>2011-01-09T08:29:54Z</time>
      </trkpt>
      <trkpt lat="44.43095" lon="2.37942">
        <ele>583.3</ele>
        <time>2011-01-09T08:29:55Z</time>
      </trkpt>
      <trkpt lat="44.43094" lon="2.37947">
        <ele>583.3</ele>
        <time>2011-01-09T08:29:56Z</time>
      </trkpt>
      <trkpt lat="44.43094" lon="2.37952">
        <ele>583.2</ele>
        <time>2011-01-09T08:29:57Z</time>
      </trkpt>
      <trkpt lat="44.43093" lon="2.37957">
        <ele>583.5</ele>
        <time>2011-01-09T08:29:58Z</time>
      </trkpt>
      <trkpt lat="44.43092" lon="2.37962">
        <ele>583.8</ele>
        <time>2011-01-09T08:29:59Z</time>
      </trkpt>
      <trkpt lat="44.43092" lon="2.37967">
        <ele>584</ele>
        <time>2011-01-09T08:30:00Z</time>
      </trkpt>
      <trkpt lat="44.43091" lon="2.37971">
        <ele>583.9</ele>
        <time>2011-01-09T08:30:01Z</time>
      </trkpt>
      <trkpt lat="44.4309" lon="2.37975">
        <ele>583.8</ele>
        <time>2011-01-09T08:30:02Z</time>
      </trkpt>
      <trkpt lat="44.43089" lon="2.37979">
        <ele>583.8</ele>
        <time>2011-01-09T08:30:03Z</time>
      </trkpt>
      <trkpt lat="44.43088" lon="2.37983">
        <ele>583.6</ele>
        <time>2011-01-09T08:30:04Z</time>
      </trkpt>
      <trkpt lat="44.43088" lon="2.37988">
        <ele>583.5</ele>
        <time>2011-01-09T08:30:05Z</time>
      </trkpt>
      <trkpt lat="44.43087" lon="2.37992">
        <ele>583.5</ele>
        <time>2011-01-09T08:30:06Z</time>
      </trkpt>
      <trkpt lat="44.43087" lon="2.37996">
        <ele>583.4</ele>
        <time>2011-01-09T08:30:07Z</time>
      </trkpt>
      <trkpt lat="44.43086" lon="2.38001">
        <ele>583.1</ele>
        <time>2011-01-09T08:30:08Z</time>
      </trkpt>
      <trkpt lat="44.43086" lon="2.38007">
        <ele>582.9</ele>
        <time>2011-01-09T08:30:09Z</time>
      </trkpt>
      <trkpt lat="44.43085" lon="2.38012">
        <ele>582.7</ele>
        <time>2011-01-09T08:30:10Z</time>
      </trkpt>
      <trkpt lat="44.43085" lon="2.38016">
        <ele>583</ele>
        <time>2011-01-09T08:30:11Z</time>
      </trkpt>
      <trkpt lat="44.43084" lon="2.38021">
        <ele>583.2</ele>
        <time>2011-01-09T08:30:12Z</time>
      </trkpt>
      <trkpt lat="44.43083" lon="2.38026">
        <ele>583.4</ele>
        <time>2011-01-09T08:30:13Z</time>
      </trkpt>
      <trkpt lat="44.43082" lon="2.38031">
        <ele>583.3</ele>
        <time>2011-01-09T08:30:14Z</time>
      </trkpt>
      <trkpt lat="44.43082" lon="2.38035">
        <ele>583.3</ele>
        <time>2011-01-09T08:30:15Z</time>
      </trkpt>
      <trkpt lat="44.43081" lon="2.3804">
        <ele>583.3</ele>
        <time>2011-01-09T08:30:16Z</time>
      </trkpt>
      <trkpt lat="44.4308" lon="2.38044">
        <ele>583.3</ele>
        <time>2011-01-09T08:30:17Z</time>
      </trkpt>
      <trkpt lat="44.43079" lon="2.38049">
        <ele>583.4</ele>
        <time>2011-01-09T08:30:18Z</time>
      </trkpt>
      <trkpt lat="44.43078" lon="2.38053">
        <ele>583.4</ele>
        <time>2011-01-09T08:30:19Z</time>
      </trkpt>
      <trkpt lat="44.43078" lon="2.38058">
        <ele>583.5</ele>
        <time>2011-01-09T08:30:20Z</time>
      </trkpt>
      <trkpt lat="44.43077" lon="2.38062">
        <ele>583.6</ele>
        <time>2011-01-09T08:30:21Z</time>
      </trkpt>
      <trkpt lat="44.43076" lon="2.38067">
        <ele>583.6</ele>
        <time>2011-01-09T08:30:22Z</time>
      </trkpt>
      <trkpt lat="44.43074" lon="2.38071">
        <ele>583.7</ele>
        <time>2011-01-09T08:30:23Z</time>
      </trkpt>
      <trkpt lat="44.43073" lon="2.38075">
        <ele>583.5</ele>
        <time>2011-01-09T08:30:24Z</time>
      </trkpt>
      <trkpt lat="44.43072" lon="2.38079">
        <ele>583.3</ele>
        <time>2011-01-09T08:30:25Z</time>
      </trkpt>
      <trkpt lat="44.4307" lon="2.38083">
        <ele>583.2</ele>
        <time>2011-01-09T08:30:26Z</time>
      </trkpt>
      <trkpt lat="44.43069" lon="2.38087">
        <ele>583</ele>
        <time>2011-01-09T08:30:27Z</time>
      </trkpt>
      <trkpt lat="44.43068" lon="2.38092">
        <ele>582.8</ele>
        <time>2011-01-09T08:30:28Z</time>
      </trkpt>
      <trkpt lat="44.43067" lon="2.38097">
        <ele>582.7</ele>
        <time>2011-01-09T08:30:29Z</time>
      </trkpt>
      <trkpt lat="44.43066" lon="2.38102">
        <ele>582.6</ele>
        <time>2011-01-09T08:30:30Z</time>
      </trkpt>
      <trkpt lat="44.43065" lon="2.38106">
        <ele>582.6</ele>
        <time>2011-01-09T08:30:31Z</time>
      </trkpt>
      <trkpt lat="44.43064" lon="2.38111">
        <ele>582.5</ele>
        <time>2011-01-09T08:30:32Z</time>
      </trkpt>
      <trkpt lat="44.43063" lon="2.38115">
        <ele>582.5</ele>
        <time>2011-01-09T08:30:33Z</time>
      </trkpt>
      <trkpt lat="44.43062" lon="2.3812">
        <ele>582.5</ele>
        <time>2011-01-09T08:30:34Z</time>
      </trkpt>
      <trkpt lat="44.43061" lon="2.38124">
        <ele>582.4</ele>
        <time>2011-01-09T08:30:35Z</time>
      </trkpt>
      <trkpt lat="44.4306" lon="2.38129">
        <ele>582.7</ele>
        <time>2011-01-09T08:30:36Z</time>
      </trkpt>
      <trkpt lat="44.4306" lon="2.38134">
        <ele>582.9</ele>
        <time>2011-01-09T08:30:37Z</time>
      </trkpt>
      <trkpt lat="44.43059" lon="2.38139">
        <ele>583.1</ele>
        <time>2011-01-09T08:30:38Z</time>
      </trkpt>
      <trkpt lat="44.43059" lon="2.38143">
        <ele>583.2</ele>
        <time>2011-01-09T08:30:39Z</time>
      </trkpt>
      <trkpt lat="44.43058" lon="2.38147">
        <ele>583.4</ele>
        <time>2011-01-09T08:30:40Z</time>
      </trkpt>
      <trkpt lat="44.43058" lon="2.38152">
        <ele>583.6</ele>
        <time>2011-01-09T08:30:41Z</time>
      </trkpt>
      <trkpt lat="44.43058" lon="2.38157">
        <ele>583.7</ele>
        <time>2011-01-09T08:30:42Z</time>
      </trkpt>
      <trkpt lat="44.43058" lon="2.38162">
        <ele>583.9</ele>
        <time>2011-01-09T08:30:43Z</time>
      </trkpt>
      <trkpt lat="44.43057" lon="2.38167">
        <ele>584.1</ele>
        <time>2011-01-09T08:30:44Z</time>
      </trkpt>
      <trkpt lat="44.43057" lon="2.38172">
        <ele>584.2</ele>
        <time>2011-01-09T08:30:45Z</time>
      </trkpt>
      <trkpt lat="44.43058" lon="2.38177">
        <ele>584.1</ele>
        <time>2011-01-09T08:30:46Z</time>
      </trkpt>
      <trkpt lat="44.43058" lon="2.38182">
        <ele>584.1</ele>
        <time>2011-01-09T08:30:47Z</time>
      </trkpt>
      <trkpt lat="44.43058" lon="2.38188">
        <ele>584</ele>
        <time>2011-01-09T08:30:48Z</time>
      </trkpt>
      <trkpt lat="44.43057" lon="2.38193">
        <ele>584.4</ele>
        <time>2011-01-09T08:30:49Z</time>
      </trkpt>
      <trkpt lat="44.43057" lon="2.38198">
        <ele>584.7</ele>
        <time>2011-01-09T08:30:50Z</time>
      </trkpt>
      <trkpt lat="44.43057" lon="2.38203">
        <ele>585</ele>
        <time>2011-01-09T08:30:51Z</time>
      </trkpt>
      <trkpt lat="44.43057" lon="2.38208">
        <ele>585.2</ele>
        <time>2011-01-09T08:30:52Z</time>
      </trkpt>
      <trkpt lat="44.43057" lon="2.38213">
        <ele>585.4</ele>
        <time>2011-01-09T08:30:53Z</time>
      </trkpt>
      <trkpt lat="44.43057" lon="2.38218">
        <ele>585.5</ele>
        <time>2011-01-09T08:30:54Z</time>
      </trkpt>
      <trkpt lat="44.43056" lon="2.38222">
        <ele>585.6</ele>
        <time>2011-01-09T08:30:55Z</time>
      </trkpt>
      <trkpt lat="44.43056" lon="2.38227">
        <ele>586.1</ele>
        <time>2011-01-09T08:30:56Z</time>
      </trkpt>
      <trkpt lat="44.43055" lon="2.38232">
        <ele>586.5</ele>
        <time>2011-01-09T08:30:57Z</time>
      </trkpt>
      <trkpt lat="44.43055" lon="2.38237">
        <ele>586.8</ele>
        <time>2011-01-09T08:30:58Z</time>
      </trkpt>
      <trkpt lat="44.43055" lon="2.38242">
        <ele>586.3</ele>
        <time>2011-01-09T08:30:59Z</time>
      </trkpt>
      <trkpt lat="44.43055" lon="2.38247">
        <ele>585.9</ele>
        <time>2011-01-09T08:31:00Z</time>
      </trkpt>
      <trkpt lat="44.43054" lon="2.38253">
        <ele>585.6</ele>
        <time>2011-01-09T08:31:01Z</time>
      </trkpt>
      <trkpt lat="44.43054" lon="2.38258">
        <ele>585.7</ele>
        <time>2011-01-09T08:31:02Z</time>
      </trkpt>
      <trkpt lat="44.43053" lon="2.38262">
        <ele>585.8</ele>
        <time>2011-01-09T08:31:03Z</time>
      </trkpt>
      <trkpt lat="44.43053" lon="2.38267">
        <ele>585.9</ele>
        <time>2011-01-09T08:31:04Z</time>
      </trkpt>
      <trkpt lat="44.43052" lon="2.38271">
        <ele>586.2</ele>
        <time>2011-01-09T08:31:05Z</time>
      </trkpt>
      <trkpt lat="44.43051" lon="2.38276">
        <ele>586.4</ele>
        <time>2011-01-09T08:31:06Z</time>
      </trkpt>
      <trkpt lat="44.43051" lon="2.38281">
        <ele>586.5</ele>
        <time>2011-01-09T08:31:07Z</time>
      </trkpt>
      <trkpt lat="44.4305" lon="2.38286">
        <ele>586.8</ele>
        <time>2011-01-09T08:31:08Z</time>
      </trkpt>
      <trkpt lat="44.43049" lon="2.38291">
        <ele>587</ele>
        <time>2011-01-09T08:31:09Z</time>
      </trkpt>
      <trkpt lat="44.43048" lon="2.38297">
        <ele>587.2</ele>
        <time>2011-01-09T08:31:10Z</time>
      </trkpt>
      <trkpt lat="44.43047" lon="2.38302">
        <ele>586.6</ele>
        <time>2011-01-09T08:31:11Z</time>
      </trkpt>
      <trkpt lat="44.43046" lon="2.38306">
        <ele>586.2</ele>
        <time>2011-01-09T08:31:12Z</time>
      </trkpt>
      <trkpt lat="44.43045" lon="2.38311">
        <ele>585.9</ele>
        <time>2011-01-09T08:31:13Z</time>
      </trkpt>
      <trkpt lat="44.43044" lon="2.38315">
        <ele>585.7</ele>
        <time>2011-01-09T08:31:14Z</time>
      </trkpt>
      <trkpt lat="44.43043" lon="2.38319">
        <ele>585.6</ele>
        <time>2011-01-09T08:31:15Z</time>
      </trkpt>
      <trkpt lat="44.43042" lon="2.38323">
        <ele>585.6</ele>
        <time>2011-01-09T08:31:16Z</time>
      </trkpt>
      <trkpt lat="44.43041" lon="2.38328">
        <ele>585.5</ele>
        <time>2011-01-09T08:31:17Z</time>
      </trkpt>
      <trkpt lat="44.4304" lon="2.38333">
        <ele>585.6</ele>
        <time>2011-01-09T08:31:18Z</time>
      </trkpt>
      <trkpt lat="44.4304" lon="2.38339">
        <ele>585.6</ele>
        <time>2011-01-09T08:31:19Z</time>
      </trkpt>
      <trkpt lat="44.43039" lon="2.38344">
        <ele>585.6</ele>
        <time>2011-01-09T08:31:20Z</time>
      </trkpt>
      <trkpt lat="44.43038" lon="2.3835">
        <ele>585.6</ele>
        <time>2011-01-09T08:31:21Z</time>
      </trkpt>
      <trkpt lat="44.43037" lon="2.38355">
        <ele>585.7</ele>
        <time>2011-01-09T08:31:22Z</time>
      </trkpt>
      <trkpt lat="44.43036" lon="2.38361">
        <ele>585.7</ele>
        <time>2011-01-09T08:31:23Z</time>
      </trkpt>
      <trkpt lat="44.43035" lon="2.38366">
        <ele>585.3</ele>
        <time>2011-01-09T08:31:24Z</time>
      </trkpt>
      <trkpt lat="44.43034" lon="2.38371">
        <ele>585</ele>
        <time>2011-01-09T08:31:25Z</time>
      </trkpt>
      <trkpt lat="44.43032" lon="2.38377">
        <ele>584.8</ele>
        <time>2011-01-09T08:31:26Z</time>
      </trkpt>
      <trkpt lat="44.43032" lon="2.38382">
        <ele>584.6</ele>
        <time>2011-01-09T08:31:27Z</time>
      </trkpt>
      <trkpt lat="44.43031" lon="2.38388">
        <ele>584.5</ele>
        <time>2011-01-09T08:31:28Z</time>
      </trkpt>
      <trkpt lat="44.4303" lon="2.38394">
        <ele>584.4</ele>
        <time>2011-01-09T08:31:29Z</time>
      </trkpt>
      <trkpt lat="44.43029" lon="2.38399">
        <ele>584.3</ele>
        <time>2011-01-09T08:31:30Z</time>
      </trkpt>
      <trkpt lat="44.43028" lon="2.38404">
        <ele>584.4</ele>
        <time>2011-01-09T08:31:31Z</time>
      </trkpt>
      <trkpt lat="44.43027" lon="2.38409">
        <ele>584.4</ele>
        <time>2011-01-09T08:31:32Z</time>
      </trkpt>
      <trkpt lat="44.43026" lon="2.38414">
        <ele>584.4</ele>
        <time>2011-01-09T08:31:33Z</time>
      </trkpt>
      <trkpt lat="44.43025" lon="2.38419">
        <ele>584.5</ele>
        <time>2011-01-09T08:31:34Z</time>
      </trkpt>
      <trkpt lat="44.43024" lon="2.38425">
        <ele>584.7</ele>
        <time>2011-01-09T08:31:35Z</time>
      </trkpt>
      <trkpt lat="44.43024" lon="2.3843">
        <ele>584.7</ele>
        <time>2011-01-09T08:31:36Z</time>
      </trkpt>
      <trkpt lat="44.43023" lon="2.38435">
        <ele>584.2</ele>
        <time>2011-01-09T08:31:37Z</time>
      </trkpt>
      <trkpt lat="44.43023" lon="2.3844">
        <ele>583.8</ele>
        <time>2011-01-09T08:31:38Z</time>
      </trkpt>
      <trkpt lat="44.43023" lon="2.38445">
        <ele>583.4</ele>
        <time>2011-01-09T08:31:39Z</time>
      </trkpt>
      <trkpt lat="44.43023" lon="2.38451">
        <ele>583.4</ele>
        <time>2011-01-09T08:31:40Z</time>
      </trkpt>
      <trkpt lat="44.43023" lon="2.38456">
        <ele>583.4</ele>
        <time>2011-01-09T08:31:41Z</time>
      </trkpt>
      <trkpt lat="44.43023" lon="2.38461">
        <ele>583.3</ele>
        <time>2011-01-09T08:31:42Z</time>
      </trkpt>
      <trkpt lat="44.43024" lon="2.38466">
        <ele>583.5</ele>
        <time>2011-01-09T08:31:43Z</time>
      </trkpt>
      <trkpt lat="44.43025" lon="2.3847">
        <ele>583.6</ele>
        <time>2011-01-09T08:31:44Z</time>
      </trkpt>
      <trkpt lat="44.43026" lon="2.38475">
        <ele>583.7</ele>
        <time>2011-01-09T08:31:45Z</time>
      </trkpt>
      <trkpt lat="44.43027" lon="2.38479">
        <ele>583.8</ele>
        <time>2011-01-09T08:31:46Z</time>
      </trkpt>
      <trkpt lat="44.43029" lon="2.38484">
        <ele>583.8</ele>
        <time>2011-01-09T08:31:47Z</time>
      </trkpt>
      <trkpt lat="44.4303" lon="2.38488">
        <ele>583.8</ele>
        <time>2011-01-09T08:31:48Z</time>
      </trkpt>
      <trkpt lat="44.43032" lon="2.38492">
        <ele>583.9</ele>
        <time>2011-01-09T08:31:49Z</time>
      </trkpt>
      <trkpt lat="44.43033" lon="2.38496">
        <ele>583.9</ele>
        <time>2011-01-09T08:31:50Z</time>
      </trkpt>
      <trkpt lat="44.43035" lon="2.385">
        <ele>584</ele>
        <time>2011-01-09T08:31:51Z</time>
      </trkpt>
      <trkpt lat="44.43036" lon="2.38504">
        <ele>584</ele>
        <time>2011-01-09T08:31:52Z</time>
      </trkpt>
      <trkpt lat="44.43038" lon="2.38508">
        <ele>584.3</ele>
        <time>2011-01-09T08:31:53Z</time>
      </trkpt>
      <trkpt lat="44.4304" lon="2.38512">
        <ele>584.5</ele>
        <time>2011-01-09T08:31:54Z</time>
      </trkpt>
      <trkpt lat="44.43041" lon="2.38516">
        <ele>584.7</ele>
        <time>2011-01-09T08:31:55Z</time>
      </trkpt>
      <trkpt lat="44.43042" lon="2.38519">
        <ele>585.1</ele>
        <time>2011-01-09T08:31:56Z</time>
      </trkpt>
      <trkpt lat="44.43044" lon="2.38523">
        <ele>585.4</ele>
        <time>2011-01-09T08:31:57Z</time>
      </trkpt>
      <trkpt lat="44.43045" lon="2.38527">
        <ele>585.6</ele>
        <time>2011-01-09T08:31:58Z</time>
      </trkpt>
      <trkpt lat="44.43047" lon="2.3853">
        <ele>585.6</ele>
        <time>2011-01-09T08:31:59Z</time>
      </trkpt>
      <trkpt lat="44.43048" lon="2.38534">
        <ele>585.6</ele>
        <time>2011-01-09T08:32:00Z</time>
      </trkpt>
      <trkpt lat="44.43049" lon="2.38538">
        <ele>585.6</ele>
        <time>2011-01-09T08:32:01Z</time>
      </trkpt>
      <trkpt lat="44.43049" lon="2.38541">
        <ele>585.5</ele>
        <time>2011-01-09T08:32:02Z</time>
      </trkpt>
      <trkpt lat="44.4305" lon="2.38545">
        <ele>586.1</ele>
        <time>2011-01-09T08:32:03Z</time>
      </trkpt>
      <trkpt lat="44.43051" lon="2.38549">
        <ele>586.5</ele>
        <time>2011-01-09T08:32:04Z</time>
      </trkpt>
      <trkpt lat="44.43051" lon="2.38553">
        <ele>586.8</ele>
        <time>2011-01-09T08:32:05Z</time>
      </trkpt>
      <trkpt lat="44.43051" lon="2.38557">
        <ele>587.1</ele>
        <time>2011-01-09T08:32:06Z</time>
      </trkpt>
      <trkpt lat="44.43052" lon="2.3856">
        <ele>587.4</ele>
        <time>2011-01-09T08:32:07Z</time>
      </trkpt>
      <trkpt lat="44.43052" lon="2.38564">
        <ele>587.6</ele>
        <time>2011-01-09T08:32:08Z</time>
      </trkpt>
      <trkpt lat="44.43052" lon="2.38568">
        <ele>588.2</ele>
        <time>2011-01-09T08:32:09Z</time>
      </trkpt>
      <trkpt lat="44.43052" lon="2.38571">
        <ele>588.7</ele>
        <time>2011-01-09T08:32:10Z</time>
      </trkpt>
      <trkpt lat="44.43052" lon="2.38575">
        <ele>589.1</ele>
        <time>2011-01-09T08:32:11Z</time>
      </trkpt>
      <trkpt lat="44.43051" lon="2.38578">
        <ele>589.4</ele>
        <time>2011-01-09T08:32:12Z</time>
      </trkpt>
      <trkpt lat="44.43051" lon="2.38582">
        <ele>589.5</ele>
        <time>2011-01-09T08:32:13Z</time>
      </trkpt>
      <trkpt lat="44.43051" lon="2.38586">
        <ele>589.7</ele>
        <time>2011-01-09T08:32:14Z</time>
      </trkpt>
      <trkpt lat="44.43051" lon="2.38589">
        <ele>590.3</ele>
        <time>2011-01-09T08:32:15Z</time>
      </trkpt>
      <trkpt lat="44.43051" lon="2.38593">
        <ele>590.8</ele>
        <time>2011-01-09T08:32:16Z</time>
      </trkpt>
      <trkpt lat="44.43051" lon="2.38597">
        <ele>591.2</ele>
        <time>2011-01-09T08:32:17Z</time>
      </trkpt>
      <trkpt lat="44.43051" lon="2.386">
        <ele>591.4</ele>
        <time>2011-01-09T08:32:18Z</time>
      </trkpt>
      <trkpt lat="44.4305" lon="2.38604">
        <ele>591.7</ele>
        <time>2011-01-09T08:32:19Z</time>
      </trkpt>
      <trkpt lat="44.4305" lon="2.38608">
        <ele>591.9</ele>
        <time>2011-01-09T08:32:20Z</time>
      </trkpt>
      <trkpt lat="44.4305" lon="2.38611">
        <ele>592.1</ele>
        <time>2011-01-09T08:32:21Z</time>
      </trkpt>
      <trkpt lat="44.4305" lon="2.38614">
        <ele>592.3</ele>
        <time>2011-01-09T08:32:22Z</time>
      </trkpt>
      <trkpt lat="44.4305" lon="2.38618">
        <ele>592.4</ele>
        <time>2011-01-09T08:32:23Z</time>
      </trkpt>
      <trkpt lat="44.4305" lon="2.38621">
        <ele>592.5</ele>
        <time>2011-01-09T08:32:24Z</time>
      </trkpt>
      <trkpt lat="44.4305" lon="2.38624">
        <ele>592.9</ele>
        <time>2011-01-09T08:32:25Z</time>
      </trkpt>
      <trkpt lat="44.4305" lon="2.38627">
        <ele>593.2</ele>
        <time>2011-01-09T08:32:26Z</time>
      </trkpt>
      <trkpt lat="44.4305" lon="2.38631">
        <ele>593.4</ele>
        <time>2011-01-09T08:32:27Z</time>
      </trkpt>
      <trkpt lat="44.4305" lon="2.38634">
        <ele>593.4</ele>
        <time>2011-01-09T08:32:28Z</time>
      </trkpt>
      <trkpt lat="44.4305" lon="2.38637">
        <ele>593.4</ele>
        <time>2011-01-09T08:32:29Z</time>
      </trkpt>
      <trkpt lat="44.4305" lon="2.38641">
        <ele>593.4</ele>
        <time>2011-01-09T08:32:30Z</time>
      </trkpt>
      <trkpt lat="44.4305" lon="2.38644">
        <ele>593.7</ele>
        <time>2011-01-09T08:32:31Z</time>
      </trkpt>
      <trkpt lat="44.4305" lon="2.38647">
        <ele>593.9</ele>
        <time>2011-01-09T08:32:32Z</time>
      </trkpt>
      <trkpt lat="44.4305" lon="2.38651">
        <ele>594.1</ele>
        <time>2011-01-09T08:32:33Z</time>
      </trkpt>
      <trkpt lat="44.4305" lon="2.38657">
        <ele>594.4</ele>
        <time>2011-01-09T08:32:35Z</time>
      </trkpt>
      <trkpt lat="44.43049" lon="2.3866">
        <ele>594.5</ele>
        <time>2011-01-09T08:32:36Z</time>
      </trkpt>
      <trkpt lat="44.43049" lon="2.38663">
        <ele>594.6</ele>
        <time>2011-01-09T08:32:37Z</time>
      </trkpt>
      <trkpt lat="44.43049" lon="2.38667">
        <ele>594.9</ele>
        <time>2011-01-09T08:32:38Z</time>
      </trkpt>
      <trkpt lat="44.43049" lon="2.3867">
        <ele>595.1</ele>
        <time>2011-01-09T08:32:39Z</time>
      </trkpt>
      <trkpt lat="44.43048" lon="2.38674">
        <ele>595.2</ele>
        <time>2011-01-09T08:32:40Z</time>
      </trkpt>
      <trkpt lat="44.43048" lon="2.38677">
        <ele>595.6</ele>
        <time>2011-01-09T08:32:41Z</time>
      </trkpt>
      <trkpt lat="44.43047" lon="2.3868">
        <ele>595.9</ele>
        <time>2011-01-09T08:32:42Z</time>
      </trkpt>
      <trkpt lat="44.43047" lon="2.38684">
        <ele>596.1</ele>
        <time>2011-01-09T08:32:43Z</time>
      </trkpt>
      <trkpt lat="44.43046" lon="2.38687">
        <ele>596.4</ele>
        <time>2011-01-09T08:32:44Z</time>
      </trkpt>
      <trkpt lat="44.43046" lon="2.3869">
        <ele>596.6</ele>
        <time>2011-01-09T08:32:45Z</time>
      </trkpt>
      <trkpt lat="44.43046" lon="2.38694">
        <ele>596.7</ele>
        <time>2011-01-09T08:32:46Z</time>
      </trkpt>
      <trkpt lat="44.43045" lon="2.38697">
        <ele>596.8</ele>
        <time>2011-01-09T08:32:47Z</time>
      </trkpt>
      <trkpt lat="44.43045" lon="2.38701">
        <ele>596.8</ele>
        <time>2011-01-09T08:32:48Z</time>
      </trkpt>
      <trkpt lat="44.43045" lon="2.38704">
        <ele>596.8</ele>
        <time>2011-01-09T08:32:49Z</time>
      </trkpt>
      <trkpt lat="44.43044" lon="2.38708">
        <ele>597.1</ele>
        <time>2011-01-09T08:32:50Z</time>
      </trkpt>
      <trkpt lat="44.43044" lon="2.38711">
        <ele>597.4</ele>
        <time>2011-01-09T08:32:51Z</time>
      </trkpt>
      <trkpt lat="44.43043" lon="2.38715">
        <ele>597.6</ele>
        <time>2011-01-09T08:32:52Z</time>
      </trkpt>
      <trkpt lat="44.43043" lon="2.38718">
        <ele>597.7</ele>
        <time>2011-01-09T08:32:53Z</time>
      </trkpt>
      <trkpt lat="44.43043" lon="2.38723">
        <ele>597.9</ele>
        <time>2011-01-09T08:32:54Z</time>
      </trkpt>
      <trkpt lat="44.43042" lon="2.38726">
        <ele>598</ele>
        <time>2011-01-09T08:32:55Z</time>
      </trkpt>
      <trkpt lat="44.43042" lon="2.3873">
        <ele>598.2</ele>
        <time>2011-01-09T08:32:56Z</time>
      </trkpt>
      <trkpt lat="44.43041" lon="2.38733">
        <ele>598.1</ele>
        <time>2011-01-09T08:32:57Z</time>
      </trkpt>
      <trkpt lat="44.43041" lon="2.38737">
        <ele>598</ele>
        <time>2011-01-09T08:32:58Z</time>
      </trkpt>
      <trkpt lat="44.4304" lon="2.38741">
        <ele>598</ele>
        <time>2011-01-09T08:32:59Z</time>
      </trkpt>
      <trkpt lat="44.4304" lon="2.38744">
        <ele>597.7</ele>
        <time>2011-01-09T08:33:00Z</time>
      </trkpt>
      <trkpt lat="44.43039" lon="2.38748">
        <ele>597.4</ele>
        <time>2011-01-09T08:33:01Z</time>
      </trkpt>
      <trkpt lat="44.43039" lon="2.38752">
        <ele>597.3</ele>
        <time>2011-01-09T08:33:02Z</time>
      </trkpt>
      <trkpt lat="44.43039" lon="2.38756">
        <ele>597.6</ele>
        <time>2011-01-09T08:33:03Z</time>
      </trkpt>
      <trkpt lat="44.43039" lon="2.38759">
        <ele>597.8</ele>
        <time>2011-01-09T08:33:04Z</time>
      </trkpt>
      <trkpt lat="44.43039" lon="2.38763">
        <ele>598</ele>
        <time>2011-01-09T08:33:05Z</time>
      </trkpt>
      <trkpt lat="44.43039" lon="2.38767">
        <ele>598</ele>
        <time>2011-01-09T08:33:06Z</time>
      </trkpt>
      <trkpt lat="44.43039" lon="2.38771">
        <ele>598</ele>
        <time>2011-01-09T08:33:07Z</time>
      </trkpt>
      <trkpt lat="44.43039" lon="2.38774">
        <ele>597.9</ele>
        <time>2011-01-09T08:33:08Z</time>
      </trkpt>
      <trkpt lat="44.43039" lon="2.38778">
        <ele>597.9</ele>
        <time>2011-01-09T08:33:09Z</time>
      </trkpt>
      <trkpt lat="44.43039" lon="2.38782">
        <ele>598.1</ele>
        <time>2011-01-09T08:33:10Z</time>
      </trkpt>
      <trkpt lat="44.43038" lon="2.38785">
        <ele>598.2</ele>
        <time>2011-01-09T08:33:11Z</time>
      </trkpt>
      <trkpt lat="44.43038" lon="2.38789">
        <ele>598.3</ele>
        <time>2011-01-09T08:33:12Z</time>
      </trkpt>
      <trkpt lat="44.43038" lon="2.38793">
        <ele>598.6</ele>
        <time>2011-01-09T08:33:13Z</time>
      </trkpt>
      <trkpt lat="44.43038" lon="2.38796">
        <ele>598.8</ele>
        <time>2011-01-09T08:33:14Z</time>
      </trkpt>
      <trkpt lat="44.43038" lon="2.388">
        <ele>598.9</ele>
        <time>2011-01-09T08:33:15Z</time>
      </trkpt>
      <trkpt lat="44.43038" lon="2.38804">
        <ele>598.4</ele>
        <time>2011-01-09T08:33:16Z</time>
      </trkpt>
      <trkpt lat="44.43038" lon="2.38808">
        <ele>598</ele>
        <time>2011-01-09T08:33:17Z</time>
      </trkpt>
      <trkpt lat="44.43038" lon="2.38811">
        <ele>597.7</ele>
        <time>2011-01-09T08:33:18Z</time>
      </trkpt>
      <trkpt lat="44.43038" lon="2.38815">
        <ele>598.1</ele>
        <time>2011-01-09T08:33:19Z</time>
      </trkpt>
      <trkpt lat="44.43038" lon="2.38819">
        <ele>598.4</ele>
        <time>2011-01-09T08:33:20Z</time>
      </trkpt>
      <trkpt lat="44.43039" lon="2.38823">
        <ele>598.7</ele>
        <time>2011-01-09T08:33:21Z</time>
      </trkpt>
      <trkpt lat="44.43039" lon="2.38827">
        <ele>598.7</ele>
        <time>2011-01-09T08:33:22Z</time>
      </trkpt>
      <trkpt lat="44.43039" lon="2.38831">
        <ele>598.8</ele>
        <time>2011-01-09T08:33:23Z</time>
      </trkpt>
      <trkpt lat="44.43039" lon="2.38835">
        <ele>598.8</ele>
        <time>2011-01-09T08:33:24Z</time>
      </trkpt>
      <trkpt lat="44.43039" lon="2.38839">
        <ele>598.8</ele>
        <time>2011-01-09T08:33:25Z</time>
      </trkpt>
      <trkpt lat="44.43039" lon="2.38843">
        <ele>599.3</ele>
        <time>2011-01-09T08:33:26Z</time>
      </trkpt>
      <trkpt lat="44.43039" lon="2.38846">
        <ele>599.6</ele>
        <time>2011-01-09T08:33:27Z</time>
      </trkpt>
      <trkpt lat="44.43039" lon="2.3885">
        <ele>599.9</ele>
        <time>2011-01-09T08:33:28Z</time>
      </trkpt>
      <trkpt lat="44.43039" lon="2.38854">
        <ele>599.6</ele>
        <time>2011-01-09T08:33:29Z</time>
      </trkpt>
      <trkpt lat="44.43039" lon="2.38858">
        <ele>599.3</ele>
        <time>2011-01-09T08:33:30Z</time>
      </trkpt>
      <trkpt lat="44.43039" lon="2.38862">
        <ele>599.1</ele>
        <time>2011-01-09T08:33:31Z</time>
      </trkpt>
      <trkpt lat="44.43039" lon="2.38866">
        <ele>599.6</ele>
        <time>2011-01-09T08:33:32Z</time>
      </trkpt>
      <trkpt lat="44.43039" lon="2.3887">
        <ele>599.9</ele>
        <time>2011-01-09T08:33:33Z</time>
      </trkpt>
      <trkpt lat="44.43039" lon="2.38875">
        <ele>600.2</ele>
        <time>2011-01-09T08:33:34Z</time>
      </trkpt>
      <trkpt lat="44.43039" lon="2.38879">
        <ele>600.3</ele>
        <time>2011-01-09T08:33:35Z</time>
      </trkpt>
      <trkpt lat="44.43039" lon="2.38883">
        <ele>600.3</ele>
        <time>2011-01-09T08:33:36Z</time>
      </trkpt>
      <trkpt lat="44.43039" lon="2.38887">
        <ele>600.3</ele>
        <time>2011-01-09T08:33:37Z</time>
      </trkpt>
      <trkpt lat="44.43038" lon="2.38891">
        <ele>600.1</ele>
        <time>2011-01-09T08:33:38Z</time>
      </trkpt>
      <trkpt lat="44.43038" lon="2.38895">
        <ele>600</ele>
        <time>2011-01-09T08:33:39Z</time>
      </trkpt>
      <trkpt lat="44.43038" lon="2.38899">
        <ele>599.9</ele>
        <time>2011-01-09T08:33:40Z</time>
      </trkpt>
      <trkpt lat="44.43037" lon="2.38903">
        <ele>599.8</ele>
        <time>2011-01-09T08:33:41Z</time>
      </trkpt>
      <trkpt lat="44.43037" lon="2.38908">
        <ele>600.2</ele>
        <time>2011-01-09T08:33:42Z</time>
      </trkpt>
      <trkpt lat="44.43036" lon="2.38912">
        <ele>600.5</ele>
        <time>2011-01-09T08:33:43Z</time>
      </trkpt>
      <trkpt lat="44.43035" lon="2.38916">
        <ele>600.7</ele>
        <time>2011-01-09T08:33:44Z</time>
      </trkpt>
      <trkpt lat="44.43035" lon="2.3892">
        <ele>600.8</ele>
        <time>2011-01-09T08:33:45Z</time>
      </trkpt>
      <trkpt lat="44.43034" lon="2.38925">
        <ele>600.9</ele>
        <time>2011-01-09T08:33:46Z</time>
      </trkpt>
      <trkpt lat="44.43033" lon="2.38929">
        <ele>600.9</ele>
        <time>2011-01-09T08:33:47Z</time>
      </trkpt>
      <trkpt lat="44.43032" lon="2.38933">
        <ele>600.9</ele>
        <time>2011-01-09T08:33:48Z</time>
      </trkpt>
      <trkpt lat="44.43032" lon="2.38937">
        <ele>600.8</ele>
        <time>2011-01-09T08:33:49Z</time>
      </trkpt>
      <trkpt lat="44.43031" lon="2.38941">
        <ele>600.8</ele>
        <time>2011-01-09T08:33:50Z</time>
      </trkpt>
      <trkpt lat="44.4303" lon="2.38945">
        <ele>600.8</ele>
        <time>2011-01-09T08:33:51Z</time>
      </trkpt>
      <trkpt lat="44.43029" lon="2.38949">
        <ele>600.8</ele>
        <time>2011-01-09T08:33:52Z</time>
      </trkpt>
      <trkpt lat="44.43028" lon="2.38954">
        <ele>600.8</ele>
        <time>2011-01-09T08:33:53Z</time>
      </trkpt>
      <trkpt lat="44.43027" lon="2.38958">
        <ele>600.7</ele>
        <time>2011-01-09T08:33:54Z</time>
      </trkpt>
      <trkpt lat="44.43026" lon="2.38963">
        <ele>600.6</ele>
        <time>2011-01-09T08:33:55Z</time>
      </trkpt>
      <trkpt lat="44.43025" lon="2.38967">
        <ele>600.5</ele>
        <time>2011-01-09T08:33:56Z</time>
      </trkpt>
      <trkpt lat="44.43024" lon="2.38972">
        <ele>600.2</ele>
        <time>2011-01-09T08:33:57Z</time>
      </trkpt>
      <trkpt lat="44.43022" lon="2.38976">
        <ele>600</ele>
        <time>2011-01-09T08:33:58Z</time>
      </trkpt>
      <trkpt lat="44.43021" lon="2.38981">
        <ele>599.8</ele>
        <time>2011-01-09T08:33:59Z</time>
      </trkpt>
      <trkpt lat="44.43019" lon="2.38985">
        <ele>599.6</ele>
        <time>2011-01-09T08:34:00Z</time>
      </trkpt>
      <trkpt lat="44.43017" lon="2.38989">
        <ele>599.6</ele>
        <time>2011-01-09T08:34:01Z</time>
      </trkpt>
      <trkpt lat="44.43015" lon="2.38994">
        <ele>599.5</ele>
        <time>2011-01-09T08:34:02Z</time>
      </trkpt>
      <trkpt lat="44.43013" lon="2.38998">
        <ele>599.5</ele>
        <time>2011-01-09T08:34:03Z</time>
      </trkpt>
      <trkpt lat="44.4301" lon="2.39002">
        <ele>599.2</ele>
        <time>2011-01-09T08:34:04Z</time>
      </trkpt>
      <trkpt lat="44.43008" lon="2.39006">
        <ele>599</ele>
        <time>2011-01-09T08:34:05Z</time>
      </trkpt>
      <trkpt lat="44.43005" lon="2.3901">
        <ele>598.8</ele>
        <time>2011-01-09T08:34:06Z</time>
      </trkpt>
      <trkpt lat="44.43002" lon="2.39014">
        <ele>598.1</ele>
        <time>2011-01-09T08:34:07Z</time>
      </trkpt>
      <trkpt lat="44.42999" lon="2.39018">
        <ele>597.6</ele>
        <time>2011-01-09T08:34:08Z</time>
      </trkpt>
      <trkpt lat="44.42996" lon="2.39022">
        <ele>597.3</ele>
        <time>2011-01-09T08:34:09Z</time>
      </trkpt>
      <trkpt lat="44.42993" lon="2.39026">
        <ele>596.9</ele>
        <time>2011-01-09T08:34:10Z</time>
      </trkpt>
      <trkpt lat="44.4299" lon="2.3903">
        <ele>596.6</ele>
        <time>2011-01-09T08:34:11Z</time>
      </trkpt>
      <trkpt lat="44.42987" lon="2.39034">
        <ele>596.4</ele>
        <time>2011-01-09T08:34:12Z</time>
      </trkpt>
      <trkpt lat="44.42984" lon="2.39039">
        <ele>596.6</ele>
        <time>2011-01-09T08:34:13Z</time>
      </trkpt>
      <trkpt lat="44.42981" lon="2.39043">
        <ele>596.7</ele>
        <time>2011-01-09T08:34:14Z</time>
      </trkpt>
      <trkpt lat="44.42978" lon="2.39048">
        <ele>596.7</ele>
        <time>2011-01-09T08:34:15Z</time>
      </trkpt>
      <trkpt lat="44.42975" lon="2.39052">
        <ele>596.8</ele>
        <time>2011-01-09T08:34:16Z</time>
      </trkpt>
      <trkpt lat="44.42972" lon="2.39057">
        <ele>596.5</ele>
        <time>2011-01-09T08:34:17Z</time>
      </trkpt>
      <trkpt lat="44.42969" lon="2.39062">
        <ele>596.3</ele>
        <time>2011-01-09T08:34:18Z</time>
      </trkpt>
      <trkpt lat="44.42966" lon="2.39067">
        <ele>596.1</ele>
        <time>2011-01-09T08:34:19Z</time>
      </trkpt>
      <trkpt lat="44.42963" lon="2.39073">
        <ele>596.1</ele>
        <time>2011-01-09T08:34:20Z</time>
      </trkpt>
      <trkpt lat="44.42961" lon="2.39078">
        <ele>596.1</ele>
        <time>2011-01-09T08:34:21Z</time>
      </trkpt>
      <trkpt lat="44.42958" lon="2.39083">
        <ele>596</ele>
        <time>2011-01-09T08:34:22Z</time>
      </trkpt>
      <trkpt lat="44.42957" lon="2.39089">
        <ele>596</ele>
        <time>2011-01-09T08:34:23Z</time>
      </trkpt>
      <trkpt lat="44.42957" lon="2.39095">
        <ele>596</ele>
        <time>2011-01-09T08:34:24Z</time>
      </trkpt>
      <trkpt lat="44.42957" lon="2.39101">
        <ele>596</ele>
        <time>2011-01-09T08:34:25Z</time>
      </trkpt>
      <trkpt lat="44.42959" lon="2.39107">
        <ele>596.5</ele>
        <time>2011-01-09T08:34:26Z</time>
      </trkpt>
      <trkpt lat="44.42961" lon="2.39113">
        <ele>596.8</ele>
        <time>2011-01-09T08:34:27Z</time>
      </trkpt>
      <trkpt lat="44.42964" lon="2.39119">
        <ele>597</ele>
        <time>2011-01-09T08:34:28Z</time>
      </trkpt>
      <trkpt lat="44.42966" lon="2.39124">
        <ele>597</ele>
        <time>2011-01-09T08:34:29Z</time>
      </trkpt>
      <trkpt lat="44.42968" lon="2.3913">
        <ele>597</ele>
        <time>2011-01-09T08:34:30Z</time>
      </trkpt>
      <trkpt lat="44.4297" lon="2.39136">
        <ele>597</ele>
        <time>2011-01-09T08:34:31Z</time>
      </trkpt>
      <trkpt lat="44.42972" lon="2.39142">
        <ele>597</ele>
        <time>2011-01-09T08:34:32Z</time>
      </trkpt>
      <trkpt lat="44.42975" lon="2.39148">
        <ele>597</ele>
        <time>2011-01-09T08:34:33Z</time>
      </trkpt>
      <trkpt lat="44.42977" lon="2.39153">
        <ele>596.9</ele>
        <time>2011-01-09T08:34:34Z</time>
      </trkpt>
      <trkpt lat="44.42979" lon="2.39159">
        <ele>596.9</ele>
        <time>2011-01-09T08:34:35Z</time>
      </trkpt>
      <trkpt lat="44.42981" lon="2.39164">
        <ele>597.1</ele>
        <time>2011-01-09T08:34:36Z</time>
      </trkpt>
      <trkpt lat="44.42983" lon="2.3917">
        <ele>597.3</ele>
        <time>2011-01-09T08:34:37Z</time>
      </trkpt>
      <trkpt lat="44.42985" lon="2.39175">
        <ele>597.5</ele>
        <time>2011-01-09T08:34:38Z</time>
      </trkpt>
      <trkpt lat="44.42987" lon="2.3918">
        <ele>597.8</ele>
        <time>2011-01-09T08:34:39Z</time>
      </trkpt>
      <trkpt lat="44.42989" lon="2.39185">
        <ele>598.1</ele>
        <time>2011-01-09T08:34:40Z</time>
      </trkpt>
      <trkpt lat="44.42991" lon="2.3919">
        <ele>598.3</ele>
        <time>2011-01-09T08:34:41Z</time>
      </trkpt>
      <trkpt lat="44.42993" lon="2.39195">
        <ele>598.5</ele>
        <time>2011-01-09T08:34:42Z</time>
      </trkpt>
      <trkpt lat="44.42995" lon="2.392">
        <ele>598.6</ele>
        <time>2011-01-09T08:34:43Z</time>
      </trkpt>
      <trkpt lat="44.42997" lon="2.39205">
        <ele>598.7</ele>
        <time>2011-01-09T08:34:44Z</time>
      </trkpt>
      <trkpt lat="44.42999" lon="2.3921">
        <ele>598.7</ele>
        <time>2011-01-09T08:34:45Z</time>
      </trkpt>
      <trkpt lat="44.43" lon="2.39215">
        <ele>598.7</ele>
        <time>2011-01-09T08:34:46Z</time>
      </trkpt>
      <trkpt lat="44.43002" lon="2.3922">
        <ele>598.7</ele>
        <time>2011-01-09T08:34:47Z</time>
      </trkpt>
      <trkpt lat="44.43004" lon="2.39224">
        <ele>598.7</ele>
        <time>2011-01-09T08:34:48Z</time>
      </trkpt>
      <trkpt lat="44.43005" lon="2.39229">
        <ele>598.8</ele>
        <time>2011-01-09T08:34:49Z</time>
      </trkpt>
      <trkpt lat="44.43007" lon="2.39234">
        <ele>598.9</ele>
        <time>2011-01-09T08:34:50Z</time>
      </trkpt>
      <trkpt lat="44.43009" lon="2.39238">
        <ele>598.9</ele>
        <time>2011-01-09T08:34:51Z</time>
      </trkpt>
      <trkpt lat="44.4301" lon="2.39243">
        <ele>599.4</ele>
        <time>2011-01-09T08:34:52Z</time>
      </trkpt>
      <trkpt lat="44.43012" lon="2.39248">
        <ele>599.7</ele>
        <time>2011-01-09T08:34:53Z</time>
      </trkpt>
      <trkpt lat="44.43014" lon="2.39252">
        <ele>599.9</ele>
        <time>2011-01-09T08:34:54Z</time>
      </trkpt>
      <trkpt lat="44.43015" lon="2.39257">
        <ele>600.3</ele>
        <time>2011-01-09T08:34:55Z</time>
      </trkpt>
      <trkpt lat="44.43017" lon="2.39261">
        <ele>600.6</ele>
        <time>2011-01-09T08:34:56Z</time>
      </trkpt>
      <trkpt lat="44.43019" lon="2.39266">
        <ele>600.8</ele>
        <time>2011-01-09T08:34:57Z</time>
      </trkpt>
      <trkpt lat="44.43021" lon="2.3927">
        <ele>601.5</ele>
        <time>2011-01-09T08:34:58Z</time>
      </trkpt>
      <trkpt lat="44.43023" lon="2.39275">
        <ele>602</ele>
        <time>2011-01-09T08:34:59Z</time>
      </trkpt>
      <trkpt lat="44.43024" lon="2.39279">
        <ele>602.3</ele>
        <time>2011-01-09T08:35:00Z</time>
      </trkpt>
      <trkpt lat="44.43026" lon="2.39284">
        <ele>602.4</ele>
        <time>2011-01-09T08:35:01Z</time>
      </trkpt>
      <trkpt lat="44.43028" lon="2.39289">
        <ele>602.4</ele>
        <time>2011-01-09T08:35:02Z</time>
      </trkpt>
      <trkpt lat="44.4303" lon="2.39294">
        <ele>602.5</ele>
        <time>2011-01-09T08:35:03Z</time>
      </trkpt>
      <trkpt lat="44.43032" lon="2.39299">
        <ele>602.5</ele>
        <time>2011-01-09T08:35:04Z</time>
      </trkpt>
      <trkpt lat="44.43034" lon="2.39304">
        <ele>602.7</ele>
        <time>2011-01-09T08:35:05Z</time>
      </trkpt>
      <trkpt lat="44.43036" lon="2.39309">
        <ele>602.9</ele>
        <time>2011-01-09T08:35:06Z</time>
      </trkpt>
      <trkpt lat="44.43038" lon="2.39314">
        <ele>603.1</ele>
        <time>2011-01-09T08:35:07Z</time>
      </trkpt>
      <trkpt lat="44.4304" lon="2.39319">
        <ele>602.8</ele>
        <time>2011-01-09T08:35:08Z</time>
      </trkpt>
      <trkpt lat="44.43043" lon="2.39325">
        <ele>602.5</ele>
        <time>2011-01-09T08:35:09Z</time>
      </trkpt>
      <trkpt lat="44.43045" lon="2.3933">
        <ele>602.3</ele>
        <time>2011-01-09T08:35:10Z</time>
      </trkpt>
      <trkpt lat="44.43047" lon="2.39336">
        <ele>602.4</ele>
        <time>2011-01-09T08:35:11Z</time>
      </trkpt>
      <trkpt lat="44.4305" lon="2.39341">
        <ele>602.4</ele>
        <time>2011-01-09T08:35:12Z</time>
      </trkpt>
      <trkpt lat="44.43052" lon="2.39347">
        <ele>602.5</ele>
        <time>2011-01-09T08:35:13Z</time>
      </trkpt>
      <trkpt lat="44.43055" lon="2.39353">
        <ele>602.6</ele>
        <time>2011-01-09T08:35:14Z</time>
      </trkpt>
      <trkpt lat="44.43058" lon="2.39359">
        <ele>602.7</ele>
        <time>2011-01-09T08:35:15Z</time>
      </trkpt>
      <trkpt lat="44.43061" lon="2.39364">
        <ele>602.8</ele>
        <time>2011-01-09T08:35:16Z</time>
      </trkpt>
      <trkpt lat="44.43064" lon="2.39369">
        <ele>602.7</ele>
        <time>2011-01-09T08:35:17Z</time>
      </trkpt>
      <trkpt lat="44.43067" lon="2.39375">
        <ele>602.6</ele>
        <time>2011-01-09T08:35:18Z</time>
      </trkpt>
      <trkpt lat="44.43071" lon="2.3938">
        <ele>602.5</ele>
        <time>2011-01-09T08:35:19Z</time>
      </trkpt>
      <trkpt lat="44.43074" lon="2.39385">
        <ele>602.2</ele>
        <time>2011-01-09T08:35:20Z</time>
      </trkpt>
      <trkpt lat="44.43077" lon="2.3939">
        <ele>601.9</ele>
        <time>2011-01-09T08:35:21Z</time>
      </trkpt>
      <trkpt lat="44.43081" lon="2.39395">
        <ele>601.7</ele>
        <time>2011-01-09T08:35:22Z</time>
      </trkpt>
      <trkpt lat="44.43084" lon="2.394">
        <ele>601.6</ele>
        <time>2011-01-09T08:35:23Z</time>
      </trkpt>
      <trkpt lat="44.43087" lon="2.39405">
        <ele>601.3</ele>
        <time>2011-01-09T08:35:24Z</time>
      </trkpt>
      <trkpt lat="44.4309" lon="2.39411">
        <ele>601.2</ele>
        <time>2011-01-09T08:35:25Z</time>
      </trkpt>
      <trkpt lat="44.43093" lon="2.39416">
        <ele>601</ele>
        <time>2011-01-09T08:35:26Z</time>
      </trkpt>
      <trkpt lat="44.43096" lon="2.39421">
        <ele>600.8</ele>
        <time>2011-01-09T08:35:27Z</time>
      </trkpt>
      <trkpt lat="44.43099" lon="2.39427">
        <ele>600.7</ele>
        <time>2011-01-09T08:35:28Z</time>
      </trkpt>
      <trkpt lat="44.43102" lon="2.39432">
        <ele>600.6</ele>
        <time>2011-01-09T08:35:29Z</time>
      </trkpt>
      <trkpt lat="44.43106" lon="2.39438">
        <ele>600.3</ele>
        <time>2011-01-09T08:35:30Z</time>
      </trkpt>
      <trkpt lat="44.43109" lon="2.39444">
        <ele>600.1</ele>
        <time>2011-01-09T08:35:31Z</time>
      </trkpt>
      <trkpt lat="44.43112" lon="2.3945">
        <ele>599.9</ele>
        <time>2011-01-09T08:35:32Z</time>
      </trkpt>
      <trkpt lat="44.43115" lon="2.39456">
        <ele>599.7</ele>
        <time>2011-01-09T08:35:33Z</time>
      </trkpt>
      <trkpt lat="44.43117" lon="2.39463">
        <ele>599.6</ele>
        <time>2011-01-09T08:35:34Z</time>
      </trkpt>
      <trkpt lat="44.4312" lon="2.39469">
        <ele>599.4</ele>
        <time>2011-01-09T08:35:35Z</time>
      </trkpt>
      <trkpt lat="44.43123" lon="2.39475">
        <ele>599.4</ele>
        <time>2011-01-09T08:35:36Z</time>
      </trkpt>
      <trkpt lat="44.43125" lon="2.39482">
        <ele>599.6</ele>
        <time>2011-01-09T08:35:37Z</time>
      </trkpt>
      <trkpt lat="44.43128" lon="2.39488">
        <ele>599.9</ele>
        <time>2011-01-09T08:35:38Z</time>
      </trkpt>
      <trkpt lat="44.43131" lon="2.39495">
        <ele>600</ele>
        <time>2011-01-09T08:35:39Z</time>
      </trkpt>
      <trkpt lat="44.43133" lon="2.39502">
        <ele>599.7</ele>
        <time>2011-01-09T08:35:40Z</time>
      </trkpt>
      <trkpt lat="44.43136" lon="2.39509">
        <ele>599.4</ele>
        <time>2011-01-09T08:35:41Z</time>
      </trkpt>
      <trkpt lat="44.43139" lon="2.39516">
        <ele>599.3</ele>
        <time>2011-01-09T08:35:42Z</time>
      </trkpt>
      <trkpt lat="44.43142" lon="2.39522">
        <ele>598.9</ele>
        <time>2011-01-09T08:35:43Z</time>
      </trkpt>
      <trkpt lat="44.43145" lon="2.3953">
        <ele>598.6</ele>
        <time>2011-01-09T08:35:44Z</time>
      </trkpt>
      <trkpt lat="44.43147" lon="2.39537">
        <ele>598.4</ele>
        <time>2011-01-09T08:35:45Z</time>
      </trkpt>
      <trkpt lat="44.4315" lon="2.39544">
        <ele>598.4</ele>
        <time>2011-01-09T08:35:46Z</time>
      </trkpt>
      <trkpt lat="44.43153" lon="2.3955">
        <ele>598.4</ele>
        <time>2011-01-09T08:35:47Z</time>
      </trkpt>
      <trkpt lat="44.43156" lon="2.39557">
        <ele>598.4</ele>
        <time>2011-01-09T08:35:48Z</time>
      </trkpt>
      <trkpt lat="44.43159" lon="2.39564">
        <ele>598.3</ele>
        <time>2011-01-09T08:35:49Z</time>
      </trkpt>
      <trkpt lat="44.43162" lon="2.39571">
        <ele>598.3</ele>
        <time>2011-01-09T08:35:50Z</time>
      </trkpt>
      <trkpt lat="44.43165" lon="2.39578">
        <ele>598.2</ele>
        <time>2011-01-09T08:35:51Z</time>
      </trkpt>
      <trkpt lat="44.43168" lon="2.39585">
        <ele>598</ele>
        <time>2011-01-09T08:35:52Z</time>
      </trkpt>
      <trkpt lat="44.43172" lon="2.39592">
        <ele>597.9</ele>
        <time>2011-01-09T08:35:53Z</time>
      </trkpt>
      <trkpt lat="44.43175" lon="2.39598">
        <ele>597.7</ele>
        <time>2011-01-09T08:35:54Z</time>
      </trkpt>
      <trkpt lat="44.43178" lon="2.39605">
        <ele>597.6</ele>
        <time>2011-01-09T08:35:55Z</time>
      </trkpt>
      <trkpt lat="44.43181" lon="2.39612">
        <ele>597.4</ele>
        <time>2011-01-09T08:35:56Z</time>
      </trkpt>
      <trkpt lat="44.43184" lon="2.39619">
        <ele>597.3</ele>
        <time>2011-01-09T08:35:57Z</time>
      </trkpt>
      <trkpt lat="44.43187" lon="2.39626">
        <ele>597.2</ele>
        <time>2011-01-09T08:35:58Z</time>
      </trkpt>
      <trkpt lat="44.4319" lon="2.39633">
        <ele>597.1</ele>
        <time>2011-01-09T08:35:59Z</time>
      </trkpt>
      <trkpt lat="44.43193" lon="2.3964">
        <ele>597.1</ele>
        <time>2011-01-09T08:36:00Z</time>
      </trkpt>
      <trkpt lat="44.43196" lon="2.39648">
        <ele>597</ele>
        <time>2011-01-09T08:36:01Z</time>
      </trkpt>
      <trkpt lat="44.432" lon="2.39655">
        <ele>596.6</ele>
        <time>2011-01-09T08:36:02Z</time>
      </trkpt>
      <trkpt lat="44.43203" lon="2.39662">
        <ele>596.3</ele>
        <time>2011-01-09T08:36:03Z</time>
      </trkpt>
      <trkpt lat="44.43206" lon="2.39668">
        <ele>596</ele>
        <time>2011-01-09T08:36:04Z</time>
      </trkpt>
      <trkpt lat="44.4321" lon="2.39675">
        <ele>595.6</ele>
        <time>2011-01-09T08:36:05Z</time>
      </trkpt>
      <trkpt lat="44.43213" lon="2.39682">
        <ele>595.3</ele>
        <time>2011-01-09T08:36:06Z</time>
      </trkpt>
      <trkpt lat="44.43216" lon="2.39689">
        <ele>595</ele>
        <time>2011-01-09T08:36:07Z</time>
      </trkpt>
      <trkpt lat="44.4322" lon="2.39696">
        <ele>594.4</ele>
        <time>2011-01-09T08:36:08Z</time>
      </trkpt>
      <trkpt lat="44.43223" lon="2.39703">
        <ele>593.9</ele>
        <time>2011-01-09T08:36:09Z</time>
      </trkpt>
      <trkpt lat="44.43226" lon="2.3971">
        <ele>593.6</ele>
        <time>2011-01-09T08:36:10Z</time>
      </trkpt>
      <trkpt lat="44.4323" lon="2.39717">
        <ele>593.3</ele>
        <time>2011-01-09T08:36:11Z</time>
      </trkpt>
      <trkpt lat="44.43234" lon="2.39724">
        <ele>593.7</ele>
        <time>2011-01-09T08:36:12Z</time>
      </trkpt>
      <trkpt lat="44.43238" lon="2.39731">
        <ele>593.9</ele>
        <time>2011-01-09T08:36:13Z</time>
      </trkpt>
      <trkpt lat="44.43242" lon="2.39738">
        <ele>594.1</ele>
        <time>2011-01-09T08:36:14Z</time>
      </trkpt>
      <trkpt lat="44.43245" lon="2.39746">
        <ele>593.7</ele>
        <time>2011-01-09T08:36:15Z</time>
      </trkpt>
      <trkpt lat="44.43249" lon="2.39754">
        <ele>593.4</ele>
        <time>2011-01-09T08:36:16Z</time>
      </trkpt>
      <trkpt lat="44.43253" lon="2.39762">
        <ele>593.1</ele>
        <time>2011-01-09T08:36:17Z</time>
      </trkpt>
      <trkpt lat="44.43257" lon="2.3977">
        <ele>592.7</ele>
        <time>2011-01-09T08:36:18Z</time>
      </trkpt>
      <trkpt lat="44.43261" lon="2.39778">
        <ele>592.4</ele>
        <time>2011-01-09T08:36:19Z</time>
      </trkpt>
      <trkpt lat="44.43265" lon="2.39786">
        <ele>592.2</ele>
        <time>2011-01-09T08:36:20Z</time>
      </trkpt>
      <trkpt lat="44.43269" lon="2.39793">
        <ele>591.5</ele>
        <time>2011-01-09T08:36:21Z</time>
      </trkpt>
      <trkpt lat="44.43273" lon="2.39801">
        <ele>591</ele>
        <time>2011-01-09T08:36:22Z</time>
      </trkpt>
      <trkpt lat="44.43277" lon="2.3981">
        <ele>590.6</ele>
        <time>2011-01-09T08:36:23Z</time>
      </trkpt>
      <trkpt lat="44.43281" lon="2.39817">
        <ele>590.6</ele>
        <time>2011-01-09T08:36:24Z</time>
      </trkpt>
      <trkpt lat="44.43285" lon="2.39825">
        <ele>590.6</ele>
        <time>2011-01-09T08:36:25Z</time>
      </trkpt>
      <trkpt lat="44.43289" lon="2.39833">
        <ele>590.6</ele>
        <time>2011-01-09T08:36:26Z</time>
      </trkpt>
      <trkpt lat="44.43293" lon="2.39841">
        <ele>590.7</ele>
        <time>2011-01-09T08:36:27Z</time>
      </trkpt>
      <trkpt lat="44.43297" lon="2.39849">
        <ele>590.5</ele>
        <time>2011-01-09T08:36:28Z</time>
      </trkpt>
      <trkpt lat="44.43301" lon="2.39856">
        <ele>590.4</ele>
        <time>2011-01-09T08:36:29Z</time>
      </trkpt>
      <trkpt lat="44.43305" lon="2.39863">
        <ele>590.3</ele>
        <time>2011-01-09T08:36:30Z</time>
      </trkpt>
      <trkpt lat="44.4331" lon="2.39871">
        <ele>589.4</ele>
        <time>2011-01-09T08:36:31Z</time>
      </trkpt>
      <trkpt lat="44.43314" lon="2.39879">
        <ele>588.7</ele>
        <time>2011-01-09T08:36:32Z</time>
      </trkpt>
      <trkpt lat="44.43319" lon="2.39887">
        <ele>588.1</ele>
        <time>2011-01-09T08:36:33Z</time>
      </trkpt>
      <trkpt lat="44.43324" lon="2.39895">
        <ele>587.4</ele>
        <time>2011-01-09T08:36:34Z</time>
      </trkpt>
      <trkpt lat="44.43329" lon="2.39903">
        <ele>586.9</ele>
        <time>2011-01-09T08:36:35Z</time>
      </trkpt>
      <trkpt lat="44.43333" lon="2.39912">
        <ele>586.6</ele>
        <time>2011-01-09T08:36:36Z</time>
      </trkpt>
      <trkpt lat="44.43338" lon="2.3992">
        <ele>586</ele>
        <time>2011-01-09T08:36:37Z</time>
      </trkpt>
      <trkpt lat="44.43343" lon="2.39928">
        <ele>585.6</ele>
        <time>2011-01-09T08:36:38Z</time>
      </trkpt>
      <trkpt lat="44.43347" lon="2.39936">
        <ele>585.4</ele>
        <time>2011-01-09T08:36:39Z</time>
      </trkpt>
      <trkpt lat="44.43351" lon="2.39944">
        <ele>585.4</ele>
        <time>2011-01-09T08:36:40Z</time>
      </trkpt>
      <trkpt lat="44.43356" lon="2.39951">
        <ele>585.4</ele>
        <time>2011-01-09T08:36:41Z</time>
      </trkpt>
      <trkpt lat="44.4336" lon="2.39959">
        <ele>585.4</ele>
        <time>2011-01-09T08:36:42Z</time>
      </trkpt>
      <trkpt lat="44.43365" lon="2.39966">
        <ele>585</ele>
        <time>2011-01-09T08:36:43Z</time>
      </trkpt>
      <trkpt lat="44.43369" lon="2.39973">
        <ele>584.8</ele>
        <time>2011-01-09T08:36:44Z</time>
      </trkpt>
      <trkpt lat="44.43373" lon="2.39981">
        <ele>584.6</ele>
        <time>2011-01-09T08:36:45Z</time>
      </trkpt>
      <trkpt lat="44.43378" lon="2.39988">
        <ele>584.5</ele>
        <time>2011-01-09T08:36:46Z</time>
      </trkpt>
      <trkpt lat="44.43383" lon="2.39995">
        <ele>584.3</ele>
        <time>2011-01-09T08:36:47Z</time>
      </trkpt>
      <trkpt lat="44.43387" lon="2.40002">
        <ele>584.2</ele>
        <time>2011-01-09T08:36:48Z</time>
      </trkpt>
      <trkpt lat="44.43391" lon="2.40009">
        <ele>584</ele>
        <time>2011-01-09T08:36:49Z</time>
      </trkpt>
      <trkpt lat="44.43395" lon="2.40016">
        <ele>584</ele>
        <time>2011-01-09T08:36:50Z</time>
      </trkpt>
      <trkpt lat="44.43399" lon="2.40022">
        <ele>584</ele>
        <time>2011-01-09T08:36:51Z</time>
      </trkpt>
      <trkpt lat="44.43403" lon="2.40029">
        <ele>584</ele>
        <time>2011-01-09T08:36:52Z</time>
      </trkpt>
      <trkpt lat="44.43407" lon="2.40034">
        <ele>583.9</ele>
        <time>2011-01-09T08:36:53Z</time>
      </trkpt>
      <trkpt lat="44.4341" lon="2.4004">
        <ele>583.8</ele>
        <time>2011-01-09T08:36:54Z</time>
      </trkpt>
      <trkpt lat="44.43414" lon="2.40045">
        <ele>583.7</ele>
        <time>2011-01-09T08:36:55Z</time>
      </trkpt>
      <trkpt lat="44.43417" lon="2.40049">
        <ele>583.9</ele>
        <time>2011-01-09T08:36:56Z</time>
      </trkpt>
      <trkpt lat="44.43421" lon="2.40053">
        <ele>583.9</ele>
        <time>2011-01-09T08:36:57Z</time>
      </trkpt>
      <trkpt lat="44.43425" lon="2.40057">
        <ele>584</ele>
        <time>2011-01-09T08:36:58Z</time>
      </trkpt>
      <trkpt lat="44.43429" lon="2.40061">
        <ele>584.1</ele>
        <time>2011-01-09T08:36:59Z</time>
      </trkpt>
      <trkpt lat="44.43433" lon="2.40064">
        <ele>584.1</ele>
        <time>2011-01-09T08:37:00Z</time>
      </trkpt>
      <trkpt lat="44.43437" lon="2.40067">
        <ele>584.2</ele>
        <time>2011-01-09T08:37:01Z</time>
      </trkpt>
      <trkpt lat="44.43441" lon="2.4007">
        <ele>584.2</ele>
        <time>2011-01-09T08:37:02Z</time>
      </trkpt>
      <trkpt lat="44.43445" lon="2.40072">
        <ele>584.6</ele>
        <time>2011-01-09T08:37:03Z</time>
      </trkpt>
      <trkpt lat="44.43449" lon="2.40074">
        <ele>584.8</ele>
        <time>2011-01-09T08:37:04Z</time>
      </trkpt>
      <trkpt lat="44.43453" lon="2.40077">
        <ele>585</ele>
        <time>2011-01-09T08:37:05Z</time>
      </trkpt>
      <trkpt lat="44.43457" lon="2.40079">
        <ele>585.3</ele>
        <time>2011-01-09T08:37:06Z</time>
      </trkpt>
      <trkpt lat="44.43461" lon="2.40081">
        <ele>585.5</ele>
        <time>2011-01-09T08:37:07Z</time>
      </trkpt>
      <trkpt lat="44.43465" lon="2.40083">
        <ele>585.7</ele>
        <time>2011-01-09T08:37:08Z</time>
      </trkpt>
      <trkpt lat="44.43469" lon="2.40084">
        <ele>585.7</ele>
        <time>2011-01-09T08:37:09Z</time>
      </trkpt>
      <trkpt lat="44.43474" lon="2.40086">
        <ele>585.6</ele>
        <time>2011-01-09T08:37:10Z</time>
      </trkpt>
      <trkpt lat="44.43477" lon="2.40087">
        <ele>585.6</ele>
        <time>2011-01-09T08:37:11Z</time>
      </trkpt>
      <trkpt lat="44.43481" lon="2.40089">
        <ele>586.1</ele>
        <time>2011-01-09T08:37:12Z</time>
      </trkpt>
      <trkpt lat="44.43485" lon="2.4009">
        <ele>586.4</ele>
        <time>2011-01-09T08:37:13Z</time>
      </trkpt>
      <trkpt lat="44.43488" lon="2.40092">
        <ele>586.7</ele>
        <time>2011-01-09T08:37:14Z</time>
      </trkpt>
      <trkpt lat="44.43492" lon="2.40095">
        <ele>587.1</ele>
        <time>2011-01-09T08:37:15Z</time>
      </trkpt>
      <trkpt lat="44.43495" lon="2.40097">
        <ele>587.4</ele>
        <time>2011-01-09T08:37:16Z</time>
      </trkpt>
      <trkpt lat="44.43499" lon="2.40099">
        <ele>587.7</ele>
        <time>2011-01-09T08:37:17Z</time>
      </trkpt>
      <trkpt lat="44.43502" lon="2.40102">
        <ele>587.9</ele>
        <time>2011-01-09T08:37:18Z</time>
      </trkpt>
      <trkpt lat="44.43506" lon="2.40105">
        <ele>587.9</ele>
        <time>2011-01-09T08:37:19Z</time>
      </trkpt>
      <trkpt lat="44.4351" lon="2.40108">
        <ele>588</ele>
        <time>2011-01-09T08:37:20Z</time>
      </trkpt>
      <trkpt lat="44.43514" lon="2.40111">
        <ele>588</ele>
        <time>2011-01-09T08:37:21Z</time>
      </trkpt>
      <trkpt lat="44.43517" lon="2.40114">
        <ele>588.2</ele>
        <time>2011-01-09T08:37:22Z</time>
      </trkpt>
      <trkpt lat="44.43521" lon="2.40116">
        <ele>588.4</ele>
        <time>2011-01-09T08:37:23Z</time>
      </trkpt>
      <trkpt lat="44.43524" lon="2.40119">
        <ele>588.5</ele>
        <time>2011-01-09T08:37:24Z</time>
      </trkpt>
      <trkpt lat="44.43528" lon="2.40122">
        <ele>588.5</ele>
        <time>2011-01-09T08:37:25Z</time>
      </trkpt>
      <trkpt lat="44.43531" lon="2.40125">
        <ele>588.5</ele>
        <time>2011-01-09T08:37:26Z</time>
      </trkpt>
      <trkpt lat="44.43535" lon="2.40127">
        <ele>588.5</ele>
        <time>2011-01-09T08:37:27Z</time>
      </trkpt>
      <trkpt lat="44.43538" lon="2.4013">
        <ele>588.3</ele>
        <time>2011-01-09T08:37:28Z</time>
      </trkpt>
      <trkpt lat="44.43542" lon="2.40132">
        <ele>588.2</ele>
        <time>2011-01-09T08:37:29Z</time>
      </trkpt>
      <trkpt lat="44.43546" lon="2.40133">
        <ele>588.1</ele>
        <time>2011-01-09T08:37:30Z</time>
      </trkpt>
      <trkpt lat="44.4355" lon="2.40135">
        <ele>587.6</ele>
        <time>2011-01-09T08:37:31Z</time>
      </trkpt>
      <trkpt lat="44.43555" lon="2.40136">
        <ele>587.1</ele>
        <time>2011-01-09T08:37:32Z</time>
      </trkpt>
      <trkpt lat="44.43559" lon="2.40137">
        <ele>586.8</ele>
        <time>2011-01-09T08:37:33Z</time>
      </trkpt>
      <trkpt lat="44.43564" lon="2.40138">
        <ele>586.6</ele>
        <time>2011-01-09T08:37:34Z</time>
      </trkpt>
      <trkpt lat="44.43569" lon="2.40139">
        <ele>586.2</ele>
        <time>2011-01-09T08:37:35Z</time>
      </trkpt>
      <trkpt lat="44.43575" lon="2.40138">
        <ele>585.9</ele>
        <time>2011-01-09T08:37:36Z</time>
      </trkpt>
      <trkpt lat="44.4358" lon="2.40137">
        <ele>585.7</ele>
        <time>2011-01-09T08:37:37Z</time>
      </trkpt>
      <trkpt lat="44.43586" lon="2.40135">
        <ele>585.6</ele>
        <time>2011-01-09T08:37:38Z</time>
      </trkpt>
      <trkpt lat="44.43592" lon="2.40133">
        <ele>585.5</ele>
        <time>2011-01-09T08:37:39Z</time>
      </trkpt>
      <trkpt lat="44.43598" lon="2.40131">
        <ele>585.5</ele>
        <time>2011-01-09T08:37:40Z</time>
      </trkpt>
      <trkpt lat="44.43605" lon="2.40129">
        <ele>585.1</ele>
        <time>2011-01-09T08:37:41Z</time>
      </trkpt>
      <trkpt lat="44.43612" lon="2.40127">
        <ele>584.9</ele>
        <time>2011-01-09T08:37:42Z</time>
      </trkpt>
      <trkpt lat="44.43619" lon="2.40126">
        <ele>584.7</ele>
        <time>2011-01-09T08:37:43Z</time>
      </trkpt>
      <trkpt lat="44.43626" lon="2.40126">
        <ele>583.8</ele>
        <time>2011-01-09T08:37:44Z</time>
      </trkpt>
      <trkpt lat="44.43633" lon="2.40127">
        <ele>583.2</ele>
        <time>2011-01-09T08:37:45Z</time>
      </trkpt>
      <trkpt lat="44.4364" lon="2.40129">
        <ele>582.7</ele>
        <time>2011-01-09T08:37:46Z</time>
      </trkpt>
      <trkpt lat="44.43647" lon="2.40132">
        <ele>582.3</ele>
        <time>2011-01-09T08:37:47Z</time>
      </trkpt>
      <trkpt lat="44.43653" lon="2.40136">
        <ele>582.1</ele>
        <time>2011-01-09T08:37:48Z</time>
      </trkpt>
      <trkpt lat="44.4366" lon="2.40141">
        <ele>581.9</ele>
        <time>2011-01-09T08:37:49Z</time>
      </trkpt>
      <trkpt lat="44.43666" lon="2.40145">
        <ele>581.7</ele>
        <time>2011-01-09T08:37:50Z</time>
      </trkpt>
      <trkpt lat="44.43672" lon="2.4015">
        <ele>581.1</ele>
        <time>2011-01-09T08:37:51Z</time>
      </trkpt>
      <trkpt lat="44.43678" lon="2.40155">
        <ele>580.7</ele>
        <time>2011-01-09T08:37:52Z</time>
      </trkpt>
      <trkpt lat="44.43683" lon="2.4016">
        <ele>580.4</ele>
        <time>2011-01-09T08:37:53Z</time>
      </trkpt>
      <trkpt lat="44.43688" lon="2.40166">
        <ele>580.1</ele>
        <time>2011-01-09T08:37:54Z</time>
      </trkpt>
      <trkpt lat="44.43693" lon="2.40173">
        <ele>579.8</ele>
        <time>2011-01-09T08:37:55Z</time>
      </trkpt>
      <trkpt lat="44.43698" lon="2.40179">
        <ele>579.7</ele>
        <time>2011-01-09T08:37:56Z</time>
      </trkpt>
      <trkpt lat="44.43702" lon="2.40186">
        <ele>579.4</ele>
        <time>2011-01-09T08:37:57Z</time>
      </trkpt>
      <trkpt lat="44.43706" lon="2.40193">
        <ele>579.2</ele>
        <time>2011-01-09T08:37:58Z</time>
      </trkpt>
      <trkpt lat="44.4371" lon="2.40199">
        <ele>579.1</ele>
        <time>2011-01-09T08:37:59Z</time>
      </trkpt>
      <trkpt lat="44.43714" lon="2.40206">
        <ele>578.7</ele>
        <time>2011-01-09T08:38:00Z</time>
      </trkpt>
      <trkpt lat="44.43719" lon="2.40212">
        <ele>578.5</ele>
        <time>2011-01-09T08:38:01Z</time>
      </trkpt>
      <trkpt lat="44.43723" lon="2.40217">
        <ele>578.3</ele>
        <time>2011-01-09T08:38:02Z</time>
      </trkpt>
      <trkpt lat="44.43727" lon="2.40223">
        <ele>578.1</ele>
        <time>2011-01-09T08:38:03Z</time>
      </trkpt>
      <trkpt lat="44.43731" lon="2.40229">
        <ele>577.9</ele>
        <time>2011-01-09T08:38:04Z</time>
      </trkpt>
      <trkpt lat="44.43735" lon="2.40234">
        <ele>577.7</ele>
        <time>2011-01-09T08:38:05Z</time>
      </trkpt>
      <trkpt lat="44.43739" lon="2.40239">
        <ele>577.6</ele>
        <time>2011-01-09T08:38:06Z</time>
      </trkpt>
      <trkpt lat="44.43743" lon="2.40244">
        <ele>577.5</ele>
        <time>2011-01-09T08:38:07Z</time>
      </trkpt>
      <trkpt lat="44.43746" lon="2.40248">
        <ele>577.4</ele>
        <time>2011-01-09T08:38:08Z</time>
      </trkpt>
      <trkpt lat="44.4375" lon="2.40253">
        <ele>577.4</ele>
        <time>2011-01-09T08:38:09Z</time>
      </trkpt>
      <trkpt lat="44.43753" lon="2.40257">
        <ele>577.7</ele>
        <time>2011-01-09T08:38:10Z</time>
      </trkpt>
      <trkpt lat="44.43756" lon="2.40262">
        <ele>578</ele>
        <time>2011-01-09T08:38:11Z</time>
      </trkpt>
      <trkpt lat="44.43759" lon="2.40266">
        <ele>578.2</ele>
        <time>2011-01-09T08:38:12Z</time>
      </trkpt>
      <trkpt lat="44.43762" lon="2.40271">
        <ele>577.5</ele>
        <time>2011-01-09T08:38:13Z</time>
      </trkpt>
      <trkpt lat="44.43765" lon="2.40275">
        <ele>577</ele>
        <time>2011-01-09T08:38:14Z</time>
      </trkpt>
      <trkpt lat="44.43768" lon="2.40279">
        <ele>576.6</ele>
        <time>2011-01-09T08:38:15Z</time>
      </trkpt>
      <trkpt lat="44.43771" lon="2.40284">
        <ele>577.1</ele>
        <time>2011-01-09T08:38:16Z</time>
      </trkpt>
      <trkpt lat="44.43774" lon="2.40288">
        <ele>577.5</ele>
        <time>2011-01-09T08:38:17Z</time>
      </trkpt>
      <trkpt lat="44.43776" lon="2.40292">
        <ele>577.8</ele>
        <time>2011-01-09T08:38:18Z</time>
      </trkpt>
      <trkpt lat="44.43779" lon="2.40295">
        <ele>577.4</ele>
        <time>2011-01-09T08:38:19Z</time>
      </trkpt>
      <trkpt lat="44.43782" lon="2.40296">
        <ele>577.2</ele>
        <time>2011-01-09T08:38:20Z</time>
      </trkpt>
      <trkpt lat="44.43785" lon="2.40295">
        <ele>577</ele>
        <time>2011-01-09T08:38:21Z</time>
      </trkpt>
      <trkpt lat="44.43787" lon="2.40292">
        <ele>576.7</ele>
        <time>2011-01-09T08:38:22Z</time>
      </trkpt>
      <trkpt lat="44.43789" lon="2.40288">
        <ele>576.4</ele>
        <time>2011-01-09T08:38:23Z</time>
      </trkpt>
      <trkpt lat="44.4379" lon="2.40284">
        <ele>576.3</ele>
        <time>2011-01-09T08:38:24Z</time>
      </trkpt>
      <trkpt lat="44.43792" lon="2.4028">
        <ele>576.1</ele>
        <time>2011-01-09T08:38:25Z</time>
      </trkpt>
      <trkpt lat="44.43792" lon="2.40276">
        <ele>576.4</ele>
        <time>2011-01-09T08:38:26Z</time>
      </trkpt>
      <trkpt lat="44.43793" lon="2.40273">
        <ele>576.6</ele>
        <time>2011-01-09T08:38:27Z</time>
      </trkpt>
      <trkpt lat="44.43794" lon="2.40269">
        <ele>576.8</ele>
        <time>2011-01-09T08:38:28Z</time>
      </trkpt>
      <trkpt lat="44.43795" lon="2.40265">
        <ele>577</ele>
        <time>2011-01-09T08:38:29Z</time>
      </trkpt>
      <trkpt lat="44.43796" lon="2.40261">
        <ele>577.2</ele>
        <time>2011-01-09T08:38:30Z</time>
      </trkpt>
      <trkpt lat="44.43797" lon="2.40257">
        <ele>577.4</ele>
        <time>2011-01-09T08:38:31Z</time>
      </trkpt>
      <trkpt lat="44.43798" lon="2.40252">
        <ele>577.7</ele>
        <time>2011-01-09T08:38:32Z</time>
      </trkpt>
      <trkpt lat="44.43798" lon="2.40248">
        <ele>577.9</ele>
        <time>2011-01-09T08:38:33Z</time>
      </trkpt>
      <trkpt lat="44.43798" lon="2.40243">
        <ele>578</ele>
        <time>2011-01-09T08:38:34Z</time>
      </trkpt>
      <trkpt lat="44.43799" lon="2.40238">
        <ele>577.9</ele>
        <time>2011-01-09T08:38:35Z</time>
      </trkpt>
      <trkpt lat="44.43799" lon="2.40233">
        <ele>577.8</ele>
        <time>2011-01-09T08:38:36Z</time>
      </trkpt>
      <trkpt lat="44.43799" lon="2.40227">
        <ele>577.7</ele>
        <time>2011-01-09T08:38:37Z</time>
      </trkpt>
      <trkpt lat="44.43799" lon="2.40221">
        <ele>577.6</ele>
        <time>2011-01-09T08:38:38Z</time>
      </trkpt>
      <trkpt lat="44.438" lon="2.40216">
        <ele>577.5</ele>
        <time>2011-01-09T08:38:39Z</time>
      </trkpt>
      <trkpt lat="44.438" lon="2.4021">
        <ele>577.5</ele>
        <time>2011-01-09T08:38:40Z</time>
      </trkpt>
      <trkpt lat="44.438" lon="2.40204">
        <ele>577.4</ele>
        <time>2011-01-09T08:38:41Z</time>
      </trkpt>
      <trkpt lat="44.438" lon="2.40198">
        <ele>577.2</ele>
        <time>2011-01-09T08:38:42Z</time>
      </trkpt>
      <trkpt lat="44.438" lon="2.40193">
        <ele>577.1</ele>
        <time>2011-01-09T08:38:43Z</time>
      </trkpt>
      <trkpt lat="44.438" lon="2.40187">
        <ele>577</ele>
        <time>2011-01-09T08:38:44Z</time>
      </trkpt>
      <trkpt lat="44.438" lon="2.40181">
        <ele>576.7</ele>
        <time>2011-01-09T08:38:45Z</time>
      </trkpt>
      <trkpt lat="44.438" lon="2.40176">
        <ele>576.5</ele>
        <time>2011-01-09T08:38:46Z</time>
      </trkpt>
      <trkpt lat="44.438" lon="2.4017">
        <ele>576.4</ele>
        <time>2011-01-09T08:38:47Z</time>
      </trkpt>
      <trkpt lat="44.438" lon="2.40165">
        <ele>576.3</ele>
        <time>2011-01-09T08:38:48Z</time>
      </trkpt>
      <trkpt lat="44.438" lon="2.4016">
        <ele>576.2</ele>
        <time>2011-01-09T08:38:49Z</time>
      </trkpt>
      <trkpt lat="44.438" lon="2.40154">
        <ele>576.1</ele>
        <time>2011-01-09T08:38:50Z</time>
      </trkpt>
      <trkpt lat="44.43801" lon="2.40149">
        <ele>576.1</ele>
        <time>2011-01-09T08:38:51Z</time>
      </trkpt>
      <trkpt lat="44.43801" lon="2.40143">
        <ele>576.1</ele>
        <time>2011-01-09T08:38:52Z</time>
      </trkpt>
      <trkpt lat="44.43801" lon="2.40138">
        <ele>576.2</ele>
        <time>2011-01-09T08:38:53Z</time>
      </trkpt>
      <trkpt lat="44.43802" lon="2.40132">
        <ele>575.7</ele>
        <time>2011-01-09T08:38:54Z</time>
      </trkpt>
      <trkpt lat="44.43802" lon="2.40126">
        <ele>575.3</ele>
        <time>2011-01-09T08:38:55Z</time>
      </trkpt>
      <trkpt lat="44.43803" lon="2.40121">
        <ele>575.1</ele>
        <time>2011-01-09T08:38:56Z</time>
      </trkpt>
      <trkpt lat="44.43803" lon="2.40116">
        <ele>574.9</ele>
        <time>2011-01-09T08:38:57Z</time>
      </trkpt>
      <trkpt lat="44.43804" lon="2.4011">
        <ele>574.5</ele>
        <time>2011-01-09T08:38:58Z</time>
      </trkpt>
      <trkpt lat="44.43804" lon="2.40105">
        <ele>574.3</ele>
        <time>2011-01-09T08:38:59Z</time>
      </trkpt>
      <trkpt lat="44.43805" lon="2.401">
        <ele>574.1</ele>
        <time>2011-01-09T08:39:00Z</time>
      </trkpt>
      <trkpt lat="44.43806" lon="2.40095">
        <ele>574.2</ele>
        <time>2011-01-09T08:39:01Z</time>
      </trkpt>
      <trkpt lat="44.43807" lon="2.4009">
        <ele>574.3</ele>
        <time>2011-01-09T08:39:02Z</time>
      </trkpt>
      <trkpt lat="44.43807" lon="2.40086">
        <ele>574.4</ele>
        <time>2011-01-09T08:39:03Z</time>
      </trkpt>
      <trkpt lat="44.43807" lon="2.40081">
        <ele>574.7</ele>
        <time>2011-01-09T08:39:04Z</time>
      </trkpt>
      <trkpt lat="44.43807" lon="2.40077">
        <ele>574.8</ele>
        <time>2011-01-09T08:39:05Z</time>
      </trkpt>
      <trkpt lat="44.43807" lon="2.40072">
        <ele>575</ele>
        <time>2011-01-09T08:39:06Z</time>
      </trkpt>
      <trkpt lat="44.43808" lon="2.40067">
        <ele>574.7</ele>
        <time>2011-01-09T08:39:07Z</time>
      </trkpt>
      <trkpt lat="44.43809" lon="2.40062">
        <ele>574.4</ele>
        <time>2011-01-09T08:39:08Z</time>
      </trkpt>
      <trkpt lat="44.4381" lon="2.40057">
        <ele>574.3</ele>
        <time>2011-01-09T08:39:09Z</time>
      </trkpt>
      <trkpt lat="44.43811" lon="2.40052">
        <ele>573.9</ele>
        <time>2011-01-09T08:39:10Z</time>
      </trkpt>
      <trkpt lat="44.43811" lon="2.40048">
        <ele>573.6</ele>
        <time>2011-01-09T08:39:11Z</time>
      </trkpt>
      <trkpt lat="44.43812" lon="2.40043">
        <ele>573.3</ele>
        <time>2011-01-09T08:39:12Z</time>
      </trkpt>
      <trkpt lat="44.43813" lon="2.40038">
        <ele>573.4</ele>
        <time>2011-01-09T08:39:13Z</time>
      </trkpt>
      <trkpt lat="44.43814" lon="2.40033">
        <ele>573.5</ele>
        <time>2011-01-09T08:39:14Z</time>
      </trkpt>
      <trkpt lat="44.43814" lon="2.40028">
        <ele>573.6</ele>
        <time>2011-01-09T08:39:15Z</time>
      </trkpt>
      <trkpt lat="44.43815" lon="2.40024">
        <ele>573.6</ele>
        <time>2011-01-09T08:39:16Z</time>
      </trkpt>
      <trkpt lat="44.43816" lon="2.40019">
        <ele>573.6</ele>
        <time>2011-01-09T08:39:17Z</time>
      </trkpt>
      <trkpt lat="44.43816" lon="2.40015">
        <ele>573.5</ele>
        <time>2011-01-09T08:39:18Z</time>
      </trkpt>
      <trkpt lat="44.43817" lon="2.4001">
        <ele>573.5</ele>
        <time>2011-01-09T08:39:19Z</time>
      </trkpt>
      <trkpt lat="44.43818" lon="2.40006">
        <ele>573.4</ele>
        <time>2011-01-09T08:39:20Z</time>
      </trkpt>
      <trkpt lat="44.43819" lon="2.40002">
        <ele>573.4</ele>
        <time>2011-01-09T08:39:21Z</time>
      </trkpt>
      <trkpt lat="44.43819" lon="2.39998">
        <ele>573.4</ele>
        <time>2011-01-09T08:39:22Z</time>
      </trkpt>
      <trkpt lat="44.4382" lon="2.39994">
        <ele>573.5</ele>
        <time>2011-01-09T08:39:23Z</time>
      </trkpt>
      <trkpt lat="44.43821" lon="2.39989">
        <ele>573.5</ele>
        <time>2011-01-09T08:39:24Z</time>
      </trkpt>
      <trkpt lat="44.43822" lon="2.39984">
        <ele>573.6</ele>
        <time>2011-01-09T08:39:25Z</time>
      </trkpt>
      <trkpt lat="44.43823" lon="2.3998">
        <ele>573.3</ele>
        <time>2011-01-09T08:39:26Z</time>
      </trkpt>
      <trkpt lat="44.43825" lon="2.39975">
        <ele>573.1</ele>
        <time>2011-01-09T08:39:27Z</time>
      </trkpt>
      <trkpt lat="44.43826" lon="2.39971">
        <ele>573</ele>
        <time>2011-01-09T08:39:28Z</time>
      </trkpt>
      <trkpt lat="44.43827" lon="2.39967">
        <ele>572.9</ele>
        <time>2011-01-09T08:39:29Z</time>
      </trkpt>
      <trkpt lat="44.43829" lon="2.39964">
        <ele>573</ele>
        <time>2011-01-09T08:39:30Z</time>
      </trkpt>
      <trkpt lat="44.4383" lon="2.39961">
        <ele>573</ele>
        <time>2011-01-09T08:39:31Z</time>
      </trkpt>
      <trkpt lat="44.43832" lon="2.39958">
        <ele>573.1</ele>
        <time>2011-01-09T08:39:32Z</time>
      </trkpt>
      <trkpt lat="44.43834" lon="2.39956">
        <ele>573.2</ele>
        <time>2011-01-09T08:39:33Z</time>
      </trkpt>
      <trkpt lat="44.43837" lon="2.39955">
        <ele>573.2</ele>
        <time>2011-01-09T08:39:34Z</time>
      </trkpt>
      <trkpt lat="44.4384" lon="2.39953">
        <ele>573.3</ele>
        <time>2011-01-09T08:39:35Z</time>
      </trkpt>
      <trkpt lat="44.43843" lon="2.39952">
        <ele>573.5</ele>
        <time>2011-01-09T08:39:36Z</time>
      </trkpt>
      <trkpt lat="44.43846" lon="2.39951">
        <ele>573.6</ele>
        <time>2011-01-09T08:39:37Z</time>
      </trkpt>
      <trkpt lat="44.43849" lon="2.3995">
        <ele>573.7</ele>
        <time>2011-01-09T08:39:38Z</time>
      </trkpt>
      <trkpt lat="44.43852" lon="2.39949">
        <ele>573.7</ele>
        <time>2011-01-09T08:39:39Z</time>
      </trkpt>
      <trkpt lat="44.43855" lon="2.39947">
        <ele>573.6</ele>
        <time>2011-01-09T08:39:40Z</time>
      </trkpt>
      <trkpt lat="44.43858" lon="2.39944">
        <ele>573.6</ele>
        <time>2011-01-09T08:39:41Z</time>
      </trkpt>
      <trkpt lat="44.43859" lon="2.39942">
        <ele>573.6</ele>
        <time>2011-01-09T08:39:42Z</time>
      </trkpt>
      <trkpt lat="44.43861" lon="2.39939">
        <ele>573.7</ele>
        <time>2011-01-09T08:39:43Z</time>
      </trkpt>
      <trkpt lat="44.43862" lon="2.39935">
        <ele>573.7</ele>
        <time>2011-01-09T08:39:44Z</time>
      </trkpt>
      <trkpt lat="44.43864" lon="2.39932">
        <ele>573.6</ele>
        <time>2011-01-09T08:39:45Z</time>
      </trkpt>
      <trkpt lat="44.43866" lon="2.39928">
        <ele>573.5</ele>
        <time>2011-01-09T08:39:46Z</time>
      </trkpt>
      <trkpt lat="44.43867" lon="2.39925">
        <ele>573.4</ele>
        <time>2011-01-09T08:39:47Z</time>
      </trkpt>
      <trkpt lat="44.43869" lon="2.39921">
        <ele>573.4</ele>
        <time>2011-01-09T08:39:48Z</time>
      </trkpt>
      <trkpt lat="44.43871" lon="2.39918">
        <ele>573.6</ele>
        <time>2011-01-09T08:39:49Z</time>
      </trkpt>
      <trkpt lat="44.43874" lon="2.39916">
        <ele>573.7</ele>
        <time>2011-01-09T08:39:50Z</time>
      </trkpt>
      <trkpt lat="44.43876" lon="2.39915">
        <ele>573.8</ele>
        <time>2011-01-09T08:39:51Z</time>
      </trkpt>
      <trkpt lat="44.43879" lon="2.39915">
        <ele>573.7</ele>
        <time>2011-01-09T08:39:52Z</time>
      </trkpt>
      <trkpt lat="44.43882" lon="2.39916">
        <ele>573.6</ele>
        <time>2011-01-09T08:39:53Z</time>
      </trkpt>
      <trkpt lat="44.43885" lon="2.39917">
        <ele>573.5</ele>
        <time>2011-01-09T08:39:54Z</time>
      </trkpt>
      <trkpt lat="44.43889" lon="2.39919">
        <ele>573.7</ele>
        <time>2011-01-09T08:39:55Z</time>
      </trkpt>
      <trkpt lat="44.43892" lon="2.39921">
        <ele>573.8</ele>
        <time>2011-01-09T08:39:56Z</time>
      </trkpt>
      <trkpt lat="44.43895" lon="2.39922">
        <ele>573.9</ele>
        <time>2011-01-09T08:39:57Z</time>
      </trkpt>
      <trkpt lat="44.43899" lon="2.39924">
        <ele>574.5</ele>
        <time>2011-01-09T08:39:58Z</time>
      </trkpt>
      <trkpt lat="44.43903" lon="2.39926">
        <ele>575</ele>
        <time>2011-01-09T08:39:59Z</time>
      </trkpt>
      <trkpt lat="44.43907" lon="2.39927">
        <ele>575.3</ele>
        <time>2011-01-09T08:40:00Z</time>
      </trkpt>
      <trkpt lat="44.4391" lon="2.39929">
        <ele>575.3</ele>
        <time>2011-01-09T08:40:01Z</time>
      </trkpt>
      <trkpt lat="44.43914" lon="2.3993">
        <ele>575.2</ele>
        <time>2011-01-09T08:40:02Z</time>
      </trkpt>
      <trkpt lat="44.43917" lon="2.39931">
        <ele>575.2</ele>
        <time>2011-01-09T08:40:03Z</time>
      </trkpt>
      <trkpt lat="44.4392" lon="2.39932">
        <ele>575.1</ele>
        <time>2011-01-09T08:40:04Z</time>
      </trkpt>
      <trkpt lat="44.43924" lon="2.39933">
        <ele>574.8</ele>
        <time>2011-01-09T08:40:05Z</time>
      </trkpt>
      <trkpt lat="44.43927" lon="2.39934">
        <ele>574.6</ele>
        <time>2011-01-09T08:40:06Z</time>
      </trkpt>
      <trkpt lat="44.43931" lon="2.39935">
        <ele>574.4</ele>
        <time>2011-01-09T08:40:07Z</time>
      </trkpt>
      <trkpt lat="44.43934" lon="2.39935">
        <ele>574.4</ele>
        <time>2011-01-09T08:40:08Z</time>
      </trkpt>
      <trkpt lat="44.43938" lon="2.39937">
        <ele>574.4</ele>
        <time>2011-01-09T08:40:09Z</time>
      </trkpt>
      <trkpt lat="44.43941" lon="2.39938">
        <ele>574.4</ele>
        <time>2011-01-09T08:40:10Z</time>
      </trkpt>
      <trkpt lat="44.43945" lon="2.39938">
        <ele>574.4</ele>
        <time>2011-01-09T08:40:11Z</time>
      </trkpt>
      <trkpt lat="44.43948" lon="2.39939">
        <ele>574.4</ele>
        <time>2011-01-09T08:40:12Z</time>
      </trkpt>
      <trkpt lat="44.43951" lon="2.3994">
        <ele>574.4</ele>
        <time>2011-01-09T08:40:13Z</time>
      </trkpt>
      <trkpt lat="44.43955" lon="2.39939">
        <ele>574.3</ele>
        <time>2011-01-09T08:40:14Z</time>
      </trkpt>
      <trkpt lat="44.43959" lon="2.39937">
        <ele>574.1</ele>
        <time>2011-01-09T08:40:15Z</time>
      </trkpt>
      <trkpt lat="44.43962" lon="2.39934">
        <ele>574.1</ele>
        <time>2011-01-09T08:40:16Z</time>
      </trkpt>
      <trkpt lat="44.43965" lon="2.39932">
        <ele>573.9</ele>
        <time>2011-01-09T08:40:17Z</time>
      </trkpt>
      <trkpt lat="44.43968" lon="2.39929">
        <ele>573.8</ele>
        <time>2011-01-09T08:40:18Z</time>
      </trkpt>
      <trkpt lat="44.43971" lon="2.39926">
        <ele>573.8</ele>
        <time>2011-01-09T08:40:19Z</time>
      </trkpt>
      <trkpt lat="44.43974" lon="2.39923">
        <ele>573.7</ele>
        <time>2011-01-09T08:40:20Z</time>
      </trkpt>
      <trkpt lat="44.43977" lon="2.3992">
        <ele>573.7</ele>
        <time>2011-01-09T08:40:21Z</time>
      </trkpt>
      <trkpt lat="44.4398" lon="2.39917">
        <ele>573.6</ele>
        <time>2011-01-09T08:40:22Z</time>
      </trkpt>
      <trkpt lat="44.43983" lon="2.39914">
        <ele>573.6</ele>
        <time>2011-01-09T08:40:23Z</time>
      </trkpt>
      <trkpt lat="44.43986" lon="2.39911">
        <ele>573.5</ele>
        <time>2011-01-09T08:40:24Z</time>
      </trkpt>
      <trkpt lat="44.4399" lon="2.39908">
        <ele>573.4</ele>
        <time>2011-01-09T08:40:25Z</time>
      </trkpt>
      <trkpt lat="44.43993" lon="2.39905">
        <ele>573.3</ele>
        <time>2011-01-09T08:40:26Z</time>
      </trkpt>
      <trkpt lat="44.43997" lon="2.39902">
        <ele>573</ele>
        <time>2011-01-09T08:40:27Z</time>
      </trkpt>
      <trkpt lat="44.44" lon="2.39898">
        <ele>572.7</ele>
        <time>2011-01-09T08:40:28Z</time>
      </trkpt>
      <trkpt lat="44.44003" lon="2.39894">
        <ele>572.5</ele>
        <time>2011-01-09T08:40:29Z</time>
      </trkpt>
      <trkpt lat="44.44006" lon="2.3989">
        <ele>572.4</ele>
        <time>2011-01-09T08:40:30Z</time>
      </trkpt>
      <trkpt lat="44.44008" lon="2.39886">
        <ele>572.3</ele>
        <time>2011-01-09T08:40:31Z</time>
      </trkpt>
      <trkpt lat="44.4401" lon="2.39881">
        <ele>572.3</ele>
        <time>2011-01-09T08:40:32Z</time>
      </trkpt>
      <trkpt lat="44.44012" lon="2.39876">
        <ele>571.8</ele>
        <time>2011-01-09T08:40:33Z</time>
      </trkpt>
      <trkpt lat="44.44014" lon="2.3987">
        <ele>571.5</ele>
        <time>2011-01-09T08:40:34Z</time>
      </trkpt>
      <trkpt lat="44.44017" lon="2.39864">
        <ele>571.2</ele>
        <time>2011-01-09T08:40:35Z</time>
      </trkpt>
      <trkpt lat="44.44019" lon="2.39859">
        <ele>571.1</ele>
        <time>2011-01-09T08:40:36Z</time>
      </trkpt>
      <trkpt lat="44.44022" lon="2.39854">
        <ele>570.6</ele>
        <time>2011-01-09T08:40:37Z</time>
      </trkpt>
      <trkpt lat="44.44025" lon="2.3985">
        <ele>570.3</ele>
        <time>2011-01-09T08:40:38Z</time>
      </trkpt>
      <trkpt lat="44.44028" lon="2.39847">
        <ele>570.1</ele>
        <time>2011-01-09T08:40:39Z</time>
      </trkpt>
      <trkpt lat="44.4403" lon="2.39843">
        <ele>569.5</ele>
        <time>2011-01-09T08:40:40Z</time>
      </trkpt>
      <trkpt lat="44.44033" lon="2.3984">
        <ele>569.1</ele>
        <time>2011-01-09T08:40:41Z</time>
      </trkpt>
      <trkpt lat="44.44036" lon="2.39837">
        <ele>568.7</ele>
        <time>2011-01-09T08:40:42Z</time>
      </trkpt>
      <trkpt lat="44.44039" lon="2.39834">
        <ele>568.6</ele>
        <time>2011-01-09T08:40:43Z</time>
      </trkpt>
      <trkpt lat="44.44042" lon="2.39832">
        <ele>568.5</ele>
        <time>2011-01-09T08:40:44Z</time>
      </trkpt>
      <trkpt lat="44.44045" lon="2.39829">
        <ele>568.5</ele>
        <time>2011-01-09T08:40:45Z</time>
      </trkpt>
      <trkpt lat="44.44049" lon="2.39828">
        <ele>568.9</ele>
        <time>2011-01-09T08:40:46Z</time>
      </trkpt>
      <trkpt lat="44.44052" lon="2.39828">
        <ele>569.2</ele>
        <time>2011-01-09T08:40:47Z</time>
      </trkpt>
      <trkpt lat="44.44056" lon="2.3983">
        <ele>569.4</ele>
        <time>2011-01-09T08:40:48Z</time>
      </trkpt>
      <trkpt lat="44.4406" lon="2.39832">
        <ele>569.4</ele>
        <time>2011-01-09T08:40:49Z</time>
      </trkpt>
      <trkpt lat="44.44064" lon="2.39834">
        <ele>569.4</ele>
        <time>2011-01-09T08:40:50Z</time>
      </trkpt>
      <trkpt lat="44.44068" lon="2.39837">
        <ele>569.4</ele>
        <time>2011-01-09T08:40:51Z</time>
      </trkpt>
      <trkpt lat="44.44072" lon="2.39839">
        <ele>568.8</ele>
        <time>2011-01-09T08:40:52Z</time>
      </trkpt>
      <trkpt lat="44.44076" lon="2.39842">
        <ele>568.3</ele>
        <time>2011-01-09T08:40:53Z</time>
      </trkpt>
      <trkpt lat="44.4408" lon="2.39843">
        <ele>567.9</ele>
        <time>2011-01-09T08:40:54Z</time>
      </trkpt>
      <trkpt lat="44.44085" lon="2.39845">
        <ele>567.6</ele>
        <time>2011-01-09T08:40:55Z</time>
      </trkpt>
      <trkpt lat="44.44089" lon="2.39847">
        <ele>568</ele>
        <time>2011-01-09T08:40:56Z</time>
      </trkpt>
      <trkpt lat="44.44093" lon="2.39848">
        <ele>568.2</ele>
        <time>2011-01-09T08:40:57Z</time>
      </trkpt>
      <trkpt lat="44.44098" lon="2.39849">
        <ele>568.4</ele>
        <time>2011-01-09T08:40:58Z</time>
      </trkpt>
      <trkpt lat="44.44103" lon="2.39851">
        <ele>568.4</ele>
        <time>2011-01-09T08:40:59Z</time>
      </trkpt>
      <trkpt lat="44.44107" lon="2.39852">
        <ele>568.5</ele>
        <time>2011-01-09T08:41:00Z</time>
      </trkpt>
      <trkpt lat="44.44112" lon="2.39853">
        <ele>568.5</ele>
        <time>2011-01-09T08:41:01Z</time>
      </trkpt>
      <trkpt lat="44.44117" lon="2.39855">
        <ele>568.3</ele>
        <time>2011-01-09T08:41:02Z</time>
      </trkpt>
      <trkpt lat="44.44121" lon="2.39856">
        <ele>568.2</ele>
        <time>2011-01-09T08:41:03Z</time>
      </trkpt>
      <trkpt lat="44.44126" lon="2.39857">
        <ele>568.1</ele>
        <time>2011-01-09T08:41:04Z</time>
      </trkpt>
      <trkpt lat="44.4413" lon="2.39858">
        <ele>568.2</ele>
        <time>2011-01-09T08:41:05Z</time>
      </trkpt>
      <trkpt lat="44.44135" lon="2.39859">
        <ele>568.4</ele>
        <time>2011-01-09T08:41:06Z</time>
      </trkpt>
      <trkpt lat="44.44139" lon="2.3986">
        <ele>568.4</ele>
        <time>2011-01-09T08:41:07Z</time>
      </trkpt>
      <trkpt lat="44.44143" lon="2.39861">
        <ele>568.5</ele>
        <time>2011-01-09T08:41:08Z</time>
      </trkpt>
      <trkpt lat="44.44147" lon="2.39863">
        <ele>568.6</ele>
        <time>2011-01-09T08:41:09Z</time>
      </trkpt>
      <trkpt lat="44.44152" lon="2.39864">
        <ele>568.6</ele>
        <time>2011-01-09T08:41:10Z</time>
      </trkpt>
      <trkpt lat="44.44155" lon="2.39865">
        <ele>568.7</ele>
        <time>2011-01-09T08:41:11Z</time>
      </trkpt>
      <trkpt lat="44.44159" lon="2.39866">
        <ele>568.6</ele>
        <time>2011-01-09T08:41:12Z</time>
      </trkpt>
      <trkpt lat="44.44163" lon="2.39867">
        <ele>568.6</ele>
        <time>2011-01-09T08:41:13Z</time>
      </trkpt>
      <trkpt lat="44.44166" lon="2.39869">
        <ele>568.6</ele>
        <time>2011-01-09T08:41:14Z</time>
      </trkpt>
      <trkpt lat="44.4417" lon="2.3987">
        <ele>568.3</ele>
        <time>2011-01-09T08:41:15Z</time>
      </trkpt>
      <trkpt lat="44.44173" lon="2.39871">
        <ele>568.1</ele>
        <time>2011-01-09T08:41:16Z</time>
      </trkpt>
      <trkpt lat="44.44177" lon="2.39872">
        <ele>567.9</ele>
        <time>2011-01-09T08:41:17Z</time>
      </trkpt>
      <trkpt lat="44.4418" lon="2.39874">
        <ele>568</ele>
        <time>2011-01-09T08:41:18Z</time>
      </trkpt>
      <trkpt lat="44.44184" lon="2.39875">
        <ele>568</ele>
        <time>2011-01-09T08:41:19Z</time>
      </trkpt>
      <trkpt lat="44.44187" lon="2.39876">
        <ele>568</ele>
        <time>2011-01-09T08:41:20Z</time>
      </trkpt>
      <trkpt lat="44.4419" lon="2.39878">
        <ele>568.4</ele>
        <time>2011-01-09T08:41:21Z</time>
      </trkpt>
      <trkpt lat="44.44192" lon="2.39878">
        <ele>568.6</ele>
        <time>2011-01-09T08:41:22Z</time>
      </trkpt>
      <trkpt lat="44.44195" lon="2.39879">
        <ele>568.8</ele>
        <time>2011-01-09T08:41:23Z</time>
      </trkpt>
      <trkpt lat="44.44197" lon="2.39879">
        <ele>569.2</ele>
        <time>2011-01-09T08:41:24Z</time>
      </trkpt>
      <trkpt lat="44.44199" lon="2.39877">
        <ele>569.5</ele>
        <time>2011-01-09T08:41:25Z</time>
      </trkpt>
      <trkpt lat="44.44201" lon="2.39873">
        <ele>569.7</ele>
        <time>2011-01-09T08:41:26Z</time>
      </trkpt>
      <trkpt lat="44.44201" lon="2.39869">
        <ele>569.9</ele>
        <time>2011-01-09T08:41:27Z</time>
      </trkpt>
      <trkpt lat="44.44201" lon="2.39864">
        <ele>570</ele>
        <time>2011-01-09T08:41:28Z</time>
      </trkpt>
      <trkpt lat="44.44202" lon="2.39859">
        <ele>570</ele>
        <time>2011-01-09T08:41:29Z</time>
      </trkpt>
      <trkpt lat="44.44201" lon="2.39854">
        <ele>570.1</ele>
        <time>2011-01-09T08:41:30Z</time>
      </trkpt>
      <trkpt lat="44.44201" lon="2.39849">
        <ele>570.2</ele>
        <time>2011-01-09T08:41:31Z</time>
      </trkpt>
      <trkpt lat="44.44201" lon="2.39843">
        <ele>570.3</ele>
        <time>2011-01-09T08:41:32Z</time>
      </trkpt>
      <trkpt lat="44.44201" lon="2.39838">
        <ele>570.4</ele>
        <time>2011-01-09T08:41:33Z</time>
      </trkpt>
      <trkpt lat="44.44201" lon="2.39833">
        <ele>570.6</ele>
        <time>2011-01-09T08:41:34Z</time>
      </trkpt>
      <trkpt lat="44.44201" lon="2.39828">
        <ele>570.7</ele>
        <time>2011-01-09T08:41:35Z</time>
      </trkpt>
      <trkpt lat="44.44201" lon="2.39823">
        <ele>570.8</ele>
        <time>2011-01-09T08:41:36Z</time>
      </trkpt>
      <trkpt lat="44.44201" lon="2.39818">
        <ele>570.5</ele>
        <time>2011-01-09T08:41:37Z</time>
      </trkpt>
      <trkpt lat="44.44202" lon="2.39812">
        <ele>570.2</ele>
        <time>2011-01-09T08:41:38Z</time>
      </trkpt>
      <trkpt lat="44.44202" lon="2.39807">
        <ele>570</ele>
        <time>2011-01-09T08:41:39Z</time>
      </trkpt>
      <trkpt lat="44.44202" lon="2.39802">
        <ele>569.8</ele>
        <time>2011-01-09T08:41:40Z</time>
      </trkpt>
      <trkpt lat="44.44203" lon="2.39797">
        <ele>569.6</ele>
        <time>2011-01-09T08:41:41Z</time>
      </trkpt>
      <trkpt lat="44.44203" lon="2.39791">
        <ele>569.4</ele>
        <time>2011-01-09T08:41:42Z</time>
      </trkpt>
      <trkpt lat="44.44203" lon="2.39786">
        <ele>569.3</ele>
        <time>2011-01-09T08:41:43Z</time>
      </trkpt>
      <trkpt lat="44.44204" lon="2.39781">
        <ele>569.5</ele>
        <time>2011-01-09T08:41:44Z</time>
      </trkpt>
      <trkpt lat="44.44204" lon="2.39776">
        <ele>569.6</ele>
        <time>2011-01-09T08:41:45Z</time>
      </trkpt>
      <trkpt lat="44.44204" lon="2.39771">
        <ele>569.7</ele>
        <time>2011-01-09T08:41:46Z</time>
      </trkpt>
      <trkpt lat="44.44205" lon="2.39766">
        <ele>569.6</ele>
        <time>2011-01-09T08:41:47Z</time>
      </trkpt>
      <trkpt lat="44.44205" lon="2.39761">
        <ele>569.5</ele>
        <time>2011-01-09T08:41:48Z</time>
      </trkpt>
      <trkpt lat="44.44206" lon="2.39756">
        <ele>569.4</ele>
        <time>2011-01-09T08:41:49Z</time>
      </trkpt>
      <trkpt lat="44.44206" lon="2.39751">
        <ele>569</ele>
        <time>2011-01-09T08:41:50Z</time>
      </trkpt>
      <trkpt lat="44.44207" lon="2.39746">
        <ele>568.8</ele>
        <time>2011-01-09T08:41:51Z</time>
      </trkpt>
      <trkpt lat="44.44208" lon="2.39741">
        <ele>568.6</ele>
        <time>2011-01-09T08:41:52Z</time>
      </trkpt>
      <trkpt lat="44.44208" lon="2.39736">
        <ele>568.8</ele>
        <time>2011-01-09T08:41:53Z</time>
      </trkpt>
      <trkpt lat="44.44209" lon="2.39731">
        <ele>568.9</ele>
        <time>2011-01-09T08:41:54Z</time>
      </trkpt>
      <trkpt lat="44.44209" lon="2.39726">
        <ele>569.1</ele>
        <time>2011-01-09T08:41:55Z</time>
      </trkpt>
      <trkpt lat="44.4421" lon="2.39721">
        <ele>569.6</ele>
        <time>2011-01-09T08:41:56Z</time>
      </trkpt>
      <trkpt lat="44.4421" lon="2.39716">
        <ele>570</ele>
        <time>2011-01-09T08:41:57Z</time>
      </trkpt>
      <trkpt lat="44.4421" lon="2.39711">
        <ele>570.2</ele>
        <time>2011-01-09T08:41:58Z</time>
      </trkpt>
      <trkpt lat="44.4421" lon="2.39706">
        <ele>570.7</ele>
        <time>2011-01-09T08:41:59Z</time>
      </trkpt>
      <trkpt lat="44.44211" lon="2.39701">
        <ele>571</ele>
        <time>2011-01-09T08:42:00Z</time>
      </trkpt>
      <trkpt lat="44.44211" lon="2.39696">
        <ele>571.3</ele>
        <time>2011-01-09T08:42:01Z</time>
      </trkpt>
      <trkpt lat="44.44211" lon="2.39691">
        <ele>571.5</ele>
        <time>2011-01-09T08:42:02Z</time>
      </trkpt>
      <trkpt lat="44.44211" lon="2.39687">
        <ele>571.4</ele>
        <time>2011-01-09T08:42:03Z</time>
      </trkpt>
      <trkpt lat="44.44211" lon="2.39682">
        <ele>571.3</ele>
        <time>2011-01-09T08:42:04Z</time>
      </trkpt>
      <trkpt lat="44.44211" lon="2.39677">
        <ele>571.2</ele>
        <time>2011-01-09T08:42:05Z</time>
      </trkpt>
      <trkpt lat="44.44211" lon="2.39673">
        <ele>571.2</ele>
        <time>2011-01-09T08:42:06Z</time>
      </trkpt>
      <trkpt lat="44.44211" lon="2.39668">
        <ele>571.3</ele>
        <time>2011-01-09T08:42:07Z</time>
      </trkpt>
      <trkpt lat="44.44211" lon="2.39664">
        <ele>571.3</ele>
        <time>2011-01-09T08:42:08Z</time>
      </trkpt>
      <trkpt lat="44.44212" lon="2.39659">
        <ele>571.2</ele>
        <time>2011-01-09T08:42:09Z</time>
      </trkpt>
      <trkpt lat="44.44212" lon="2.39655">
        <ele>571.2</ele>
        <time>2011-01-09T08:42:10Z</time>
      </trkpt>
      <trkpt lat="44.44212" lon="2.3965">
        <ele>571.1</ele>
        <time>2011-01-09T08:42:11Z</time>
      </trkpt>
      <trkpt lat="44.44213" lon="2.39646">
        <ele>571.8</ele>
        <time>2011-01-09T08:42:12Z</time>
      </trkpt>
      <trkpt lat="44.44214" lon="2.39641">
        <ele>572.3</ele>
        <time>2011-01-09T08:42:13Z</time>
      </trkpt>
      <trkpt lat="44.44214" lon="2.39636">
        <ele>572.7</ele>
        <time>2011-01-09T08:42:14Z</time>
      </trkpt>
      <trkpt lat="44.44215" lon="2.39632">
        <ele>572.7</ele>
        <time>2011-01-09T08:42:15Z</time>
      </trkpt>
      <trkpt lat="44.44216" lon="2.39627">
        <ele>572.7</ele>
        <time>2011-01-09T08:42:16Z</time>
      </trkpt>
      <trkpt lat="44.44216" lon="2.39623">
        <ele>572.7</ele>
        <time>2011-01-09T08:42:17Z</time>
      </trkpt>
      <trkpt lat="44.44217" lon="2.39618">
        <ele>572.7</ele>
        <time>2011-01-09T08:42:18Z</time>
      </trkpt>
      <trkpt lat="44.44218" lon="2.39613">
        <ele>572.7</ele>
        <time>2011-01-09T08:42:19Z</time>
      </trkpt>
      <trkpt lat="44.44219" lon="2.39608">
        <ele>572.7</ele>
        <time>2011-01-09T08:42:20Z</time>
      </trkpt>
      <trkpt lat="44.4422" lon="2.39604">
        <ele>572.7</ele>
        <time>2011-01-09T08:42:21Z</time>
      </trkpt>
      <trkpt lat="44.44221" lon="2.39599">
        <ele>572.8</ele>
        <time>2011-01-09T08:42:22Z</time>
      </trkpt>
      <trkpt lat="44.44222" lon="2.39594">
        <ele>572.8</ele>
        <time>2011-01-09T08:42:23Z</time>
      </trkpt>
      <trkpt lat="44.44223" lon="2.39589">
        <ele>572.9</ele>
        <time>2011-01-09T08:42:24Z</time>
      </trkpt>
      <trkpt lat="44.44224" lon="2.39584">
        <ele>572.4</ele>
        <time>2011-01-09T08:42:25Z</time>
      </trkpt>
      <trkpt lat="44.44226" lon="2.39579">
        <ele>572</ele>
        <time>2011-01-09T08:42:26Z</time>
      </trkpt>
      <trkpt lat="44.44227" lon="2.39574">
        <ele>571.7</ele>
        <time>2011-01-09T08:42:27Z</time>
      </trkpt>
      <trkpt lat="44.44228" lon="2.39569">
        <ele>571.7</ele>
        <time>2011-01-09T08:42:28Z</time>
      </trkpt>
      <trkpt lat="44.4423" lon="2.39564">
        <ele>571.8</ele>
        <time>2011-01-09T08:42:29Z</time>
      </trkpt>
      <trkpt lat="44.44231" lon="2.39558">
        <ele>571.8</ele>
        <time>2011-01-09T08:42:30Z</time>
      </trkpt>
      <trkpt lat="44.44233" lon="2.39552">
        <ele>572</ele>
        <time>2011-01-09T08:42:31Z</time>
      </trkpt>
      <trkpt lat="44.44234" lon="2.39547">
        <ele>572.1</ele>
        <time>2011-01-09T08:42:32Z</time>
      </trkpt>
      <trkpt lat="44.44236" lon="2.39541">
        <ele>572.2</ele>
        <time>2011-01-09T08:42:33Z</time>
      </trkpt>
      <trkpt lat="44.44238" lon="2.39536">
        <ele>572.3</ele>
        <time>2011-01-09T08:42:34Z</time>
      </trkpt>
      <trkpt lat="44.44239" lon="2.3953">
        <ele>571.8</ele>
        <time>2011-01-09T08:42:35Z</time>
      </trkpt>
      <trkpt lat="44.44241" lon="2.39523">
        <ele>571.5</ele>
        <time>2011-01-09T08:42:36Z</time>
      </trkpt>
      <trkpt lat="44.44243" lon="2.39517">
        <ele>571.3</ele>
        <time>2011-01-09T08:42:37Z</time>
      </trkpt>
      <trkpt lat="44.44245" lon="2.39511">
        <ele>571.1</ele>
        <time>2011-01-09T08:42:38Z</time>
      </trkpt>
      <trkpt lat="44.44247" lon="2.39505">
        <ele>571</ele>
        <time>2011-01-09T08:42:39Z</time>
      </trkpt>
      <trkpt lat="44.44249" lon="2.395">
        <ele>570.9</ele>
        <time>2011-01-09T08:42:40Z</time>
      </trkpt>
      <trkpt lat="44.44252" lon="2.39495">
        <ele>570.3</ele>
        <time>2011-01-09T08:42:41Z</time>
      </trkpt>
      <trkpt lat="44.44254" lon="2.3949">
        <ele>569.8</ele>
        <time>2011-01-09T08:42:42Z</time>
      </trkpt>
      <trkpt lat="44.44257" lon="2.39485">
        <ele>569.5</ele>
        <time>2011-01-09T08:42:43Z</time>
      </trkpt>
      <trkpt lat="44.44259" lon="2.3948">
        <ele>569.3</ele>
        <time>2011-01-09T08:42:44Z</time>
      </trkpt>
      <trkpt lat="44.44261" lon="2.39475">
        <ele>569.2</ele>
        <time>2011-01-09T08:42:45Z</time>
      </trkpt>
      <trkpt lat="44.44264" lon="2.3947">
        <ele>569.1</ele>
        <time>2011-01-09T08:42:46Z</time>
      </trkpt>
      <trkpt lat="44.44267" lon="2.39464">
        <ele>568.4</ele>
        <time>2011-01-09T08:42:47Z</time>
      </trkpt>
      <trkpt lat="44.4427" lon="2.39459">
        <ele>567.9</ele>
        <time>2011-01-09T08:42:48Z</time>
      </trkpt>
      <trkpt lat="44.44273" lon="2.39454">
        <ele>567.5</ele>
        <time>2011-01-09T08:42:49Z</time>
      </trkpt>
      <trkpt lat="44.44276" lon="2.39449">
        <ele>567.2</ele>
        <time>2011-01-09T08:42:50Z</time>
      </trkpt>
      <trkpt lat="44.44279" lon="2.39444">
        <ele>567.4</ele>
        <time>2011-01-09T08:42:51Z</time>
      </trkpt>
      <trkpt lat="44.44282" lon="2.39438">
        <ele>567.5</ele>
        <time>2011-01-09T08:42:52Z</time>
      </trkpt>
      <trkpt lat="44.44286" lon="2.39433">
        <ele>567.6</ele>
        <time>2011-01-09T08:42:53Z</time>
      </trkpt>
      <trkpt lat="44.44289" lon="2.39428">
        <ele>567.5</ele>
        <time>2011-01-09T08:42:54Z</time>
      </trkpt>
      <trkpt lat="44.44293" lon="2.39423">
        <ele>567.4</ele>
        <time>2011-01-09T08:42:55Z</time>
      </trkpt>
      <trkpt lat="44.44296" lon="2.39418">
        <ele>567.4</ele>
        <time>2011-01-09T08:42:56Z</time>
      </trkpt>
      <trkpt lat="44.443" lon="2.39413">
        <ele>567.3</ele>
        <time>2011-01-09T08:42:57Z</time>
      </trkpt>
      <trkpt lat="44.44304" lon="2.39408">
        <ele>567.3</ele>
        <time>2011-01-09T08:42:58Z</time>
      </trkpt>
      <trkpt lat="44.44307" lon="2.39403">
        <ele>567.3</ele>
        <time>2011-01-09T08:42:59Z</time>
      </trkpt>
      <trkpt lat="44.44311" lon="2.39398">
        <ele>567.1</ele>
        <time>2011-01-09T08:43:00Z</time>
      </trkpt>
      <trkpt lat="44.44315" lon="2.39394">
        <ele>567</ele>
        <time>2011-01-09T08:43:01Z</time>
      </trkpt>
      <trkpt lat="44.44319" lon="2.39391">
        <ele>566.9</ele>
        <time>2011-01-09T08:43:02Z</time>
      </trkpt>
      <trkpt lat="44.44323" lon="2.39388">
        <ele>566.4</ele>
        <time>2011-01-09T08:43:03Z</time>
      </trkpt>
      <trkpt lat="44.44327" lon="2.39385">
        <ele>566</ele>
        <time>2011-01-09T08:43:04Z</time>
      </trkpt>
      <trkpt lat="44.44331" lon="2.39381">
        <ele>565.8</ele>
        <time>2011-01-09T08:43:05Z</time>
      </trkpt>
      <trkpt lat="44.44335" lon="2.39378">
        <ele>566.1</ele>
        <time>2011-01-09T08:43:06Z</time>
      </trkpt>
      <trkpt lat="44.44338" lon="2.39375">
        <ele>566.3</ele>
        <time>2011-01-09T08:43:07Z</time>
      </trkpt>
      <trkpt lat="44.44342" lon="2.39372">
        <ele>566.5</ele>
        <time>2011-01-09T08:43:08Z</time>
      </trkpt>
      <trkpt lat="44.44345" lon="2.39369">
        <ele>566.6</ele>
        <time>2011-01-09T08:43:09Z</time>
      </trkpt>
      <trkpt lat="44.44349" lon="2.39366">
        <ele>566.5</ele>
        <time>2011-01-09T08:43:10Z</time>
      </trkpt>
      <trkpt lat="44.44352" lon="2.39363">
        <ele>566.4</ele>
        <time>2011-01-09T08:43:11Z</time>
      </trkpt>
      <trkpt lat="44.44355" lon="2.39359">
        <ele>566.3</ele>
        <time>2011-01-09T08:43:12Z</time>
      </trkpt>
      <trkpt lat="44.44358" lon="2.39356">
        <ele>566.6</ele>
        <time>2011-01-09T08:43:13Z</time>
      </trkpt>
      <trkpt lat="44.44362" lon="2.39353">
        <ele>566.9</ele>
        <time>2011-01-09T08:43:14Z</time>
      </trkpt>
      <trkpt lat="44.44365" lon="2.3935">
        <ele>567.1</ele>
        <time>2011-01-09T08:43:15Z</time>
      </trkpt>
      <trkpt lat="44.44368" lon="2.39346">
        <ele>567.6</ele>
        <time>2011-01-09T08:43:16Z</time>
      </trkpt>
      <trkpt lat="44.44371" lon="2.39343">
        <ele>568</ele>
        <time>2011-01-09T08:43:17Z</time>
      </trkpt>
      <trkpt lat="44.44374" lon="2.3934">
        <ele>568.3</ele>
        <time>2011-01-09T08:43:18Z</time>
      </trkpt>
      <trkpt lat="44.44377" lon="2.39337">
        <ele>568.4</ele>
        <time>2011-01-09T08:43:19Z</time>
      </trkpt>
      <trkpt lat="44.44381" lon="2.39335">
        <ele>568.4</ele>
        <time>2011-01-09T08:43:20Z</time>
      </trkpt>
      <trkpt lat="44.44384" lon="2.39332">
        <ele>568.5</ele>
        <time>2011-01-09T08:43:21Z</time>
      </trkpt>
      <trkpt lat="44.44388" lon="2.3933">
        <ele>568.5</ele>
        <time>2011-01-09T08:43:22Z</time>
      </trkpt>
      <trkpt lat="44.44392" lon="2.39327">
        <ele>568.4</ele>
        <time>2011-01-09T08:43:23Z</time>
      </trkpt>
      <trkpt lat="44.44395" lon="2.39325">
        <ele>568.3</ele>
        <time>2011-01-09T08:43:24Z</time>
      </trkpt>
      <trkpt lat="44.44399" lon="2.39323">
        <ele>568.3</ele>
        <time>2011-01-09T08:43:25Z</time>
      </trkpt>
      <trkpt lat="44.44403" lon="2.3932">
        <ele>568.8</ele>
        <time>2011-01-09T08:43:26Z</time>
      </trkpt>
      <trkpt lat="44.44407" lon="2.39317">
        <ele>569.1</ele>
        <time>2011-01-09T08:43:27Z</time>
      </trkpt>
      <trkpt lat="44.4441" lon="2.39315">
        <ele>569.4</ele>
        <time>2011-01-09T08:43:28Z</time>
      </trkpt>
      <trkpt lat="44.44414" lon="2.39312">
        <ele>569.7</ele>
        <time>2011-01-09T08:43:29Z</time>
      </trkpt>
      <trkpt lat="44.44418" lon="2.3931">
        <ele>569.9</ele>
        <time>2011-01-09T08:43:30Z</time>
      </trkpt>
      <trkpt lat="44.44422" lon="2.39307">
        <ele>570</ele>
        <time>2011-01-09T08:43:31Z</time>
      </trkpt>
      <trkpt lat="44.44425" lon="2.39304">
        <ele>570</ele>
        <time>2011-01-09T08:43:32Z</time>
      </trkpt>
      <trkpt lat="44.44429" lon="2.39301">
        <ele>569.9</ele>
        <time>2011-01-09T08:43:33Z</time>
      </trkpt>
      <trkpt lat="44.44432" lon="2.39297">
        <ele>569.9</ele>
        <time>2011-01-09T08:43:34Z</time>
      </trkpt>
      <trkpt lat="44.44435" lon="2.39294">
        <ele>570.2</ele>
        <time>2011-01-09T08:43:35Z</time>
      </trkpt>
      <trkpt lat="44.44439" lon="2.39291">
        <ele>570.4</ele>
        <time>2011-01-09T08:43:36Z</time>
      </trkpt>
      <trkpt lat="44.44442" lon="2.39287">
        <ele>570.5</ele>
        <time>2011-01-09T08:43:37Z</time>
      </trkpt>
      <trkpt lat="44.44445" lon="2.39283">
        <ele>570.6</ele>
        <time>2011-01-09T08:43:38Z</time>
      </trkpt>
      <trkpt lat="44.44448" lon="2.39279">
        <ele>570.7</ele>
        <time>2011-01-09T08:43:39Z</time>
      </trkpt>
      <trkpt lat="44.4445" lon="2.39274">
        <ele>570.7</ele>
        <time>2011-01-09T08:43:40Z</time>
      </trkpt>
      <trkpt lat="44.44453" lon="2.39269">
        <ele>570.8</ele>
        <time>2011-01-09T08:43:41Z</time>
      </trkpt>
      <trkpt lat="44.44456" lon="2.39265">
        <ele>570.8</ele>
        <time>2011-01-09T08:43:42Z</time>
      </trkpt>
      <trkpt lat="44.44458" lon="2.3926">
        <ele>570.9</ele>
        <time>2011-01-09T08:43:43Z</time>
      </trkpt>
      <trkpt lat="44.44461" lon="2.39255">
        <ele>570.9</ele>
        <time>2011-01-09T08:43:44Z</time>
      </trkpt>
      <trkpt lat="44.44463" lon="2.39251">
        <ele>570.8</ele>
        <time>2011-01-09T08:43:45Z</time>
      </trkpt>
      <trkpt lat="44.44466" lon="2.39246">
        <ele>570.7</ele>
        <time>2011-01-09T08:43:46Z</time>
      </trkpt>
      <trkpt lat="44.44468" lon="2.39241">
        <ele>570.6</ele>
        <time>2011-01-09T08:43:47Z</time>
      </trkpt>
      <trkpt lat="44.44471" lon="2.39236">
        <ele>570.7</ele>
        <time>2011-01-09T08:43:48Z</time>
      </trkpt>
      <trkpt lat="44.44474" lon="2.39232">
        <ele>570.8</ele>
        <time>2011-01-09T08:43:49Z</time>
      </trkpt>
      <trkpt lat="44.44476" lon="2.39227">
        <ele>570.8</ele>
        <time>2011-01-09T08:43:50Z</time>
      </trkpt>
      <trkpt lat="44.44479" lon="2.39223">
        <ele>571.1</ele>
        <time>2011-01-09T08:43:51Z</time>
      </trkpt>
      <trkpt lat="44.44482" lon="2.39218">
        <ele>571.3</ele>
        <time>2011-01-09T08:43:52Z</time>
      </trkpt>
      <trkpt lat="44.44485" lon="2.39214">
        <ele>571.4</ele>
        <time>2011-01-09T08:43:53Z</time>
      </trkpt>
      <trkpt lat="44.44489" lon="2.3921">
        <ele>571.2</ele>
        <time>2011-01-09T08:43:54Z</time>
      </trkpt>
      <trkpt lat="44.44492" lon="2.39206">
        <ele>571.1</ele>
        <time>2011-01-09T08:43:55Z</time>
      </trkpt>
      <trkpt lat="44.44495" lon="2.39201">
        <ele>571</ele>
        <time>2011-01-09T08:43:56Z</time>
      </trkpt>
      <trkpt lat="44.44499" lon="2.39197">
        <ele>570.9</ele>
        <time>2011-01-09T08:43:57Z</time>
      </trkpt>
      <trkpt lat="44.44502" lon="2.39193">
        <ele>570.9</ele>
        <time>2011-01-09T08:43:58Z</time>
      </trkpt>
      <trkpt lat="44.44506" lon="2.39189">
        <ele>570.9</ele>
        <time>2011-01-09T08:43:59Z</time>
      </trkpt>
      <trkpt lat="44.44509" lon="2.39185">
        <ele>570.9</ele>
        <time>2011-01-09T08:44:00Z</time>
      </trkpt>
      <trkpt lat="44.44512" lon="2.39181">
        <ele>571</ele>
        <time>2011-01-09T08:44:01Z</time>
      </trkpt>
      <trkpt lat="44.44515" lon="2.39177">
        <ele>571</ele>
        <time>2011-01-09T08:44:02Z</time>
      </trkpt>
      <trkpt lat="44.44518" lon="2.39173">
        <ele>571</ele>
        <time>2011-01-09T08:44:03Z</time>
      </trkpt>
      <trkpt lat="44.44522" lon="2.39169">
        <ele>571.1</ele>
        <time>2011-01-09T08:44:04Z</time>
      </trkpt>
      <trkpt lat="44.44525" lon="2.39165">
        <ele>571.2</ele>
        <time>2011-01-09T08:44:05Z</time>
      </trkpt>
      <trkpt lat="44.44528" lon="2.39161">
        <ele>571.2</ele>
        <time>2011-01-09T08:44:06Z</time>
      </trkpt>
      <trkpt lat="44.44531" lon="2.39157">
        <ele>570.9</ele>
        <time>2011-01-09T08:44:07Z</time>
      </trkpt>
      <trkpt lat="44.44534" lon="2.39153">
        <ele>570.7</ele>
        <time>2011-01-09T08:44:08Z</time>
      </trkpt>
      <trkpt lat="44.44537" lon="2.3915">
        <ele>570.5</ele>
        <time>2011-01-09T08:44:09Z</time>
      </trkpt>
      <trkpt lat="44.44539" lon="2.39146">
        <ele>571.1</ele>
        <time>2011-01-09T08:44:10Z</time>
      </trkpt>
      <trkpt lat="44.44542" lon="2.39143">
        <ele>571.6</ele>
        <time>2011-01-09T08:44:11Z</time>
      </trkpt>
      <trkpt lat="44.44545" lon="2.39139">
        <ele>572</ele>
        <time>2011-01-09T08:44:12Z</time>
      </trkpt>
      <trkpt lat="44.44548" lon="2.39136">
        <ele>572.2</ele>
        <time>2011-01-09T08:44:13Z</time>
      </trkpt>
      <trkpt lat="44.44551" lon="2.39132">
        <ele>572.7</ele>
        <time>2011-01-09T08:44:14Z</time>
      </trkpt>
      <trkpt lat="44.44554" lon="2.39128">
        <ele>573</ele>
        <time>2011-01-09T08:44:15Z</time>
      </trkpt>
      <trkpt lat="44.44558" lon="2.39125">
        <ele>573.3</ele>
        <time>2011-01-09T08:44:16Z</time>
      </trkpt>
      <trkpt lat="44.44561" lon="2.39121">
        <ele>573.3</ele>
        <time>2011-01-09T08:44:17Z</time>
      </trkpt>
      <trkpt lat="44.44564" lon="2.39117">
        <ele>573.2</ele>
        <time>2011-01-09T08:44:18Z</time>
      </trkpt>
      <trkpt lat="44.44567" lon="2.39114">
        <ele>573.2</ele>
        <time>2011-01-09T08:44:19Z</time>
      </trkpt>
      <trkpt lat="44.4457" lon="2.3911">
        <ele>573.6</ele>
        <time>2011-01-09T08:44:20Z</time>
      </trkpt>
      <trkpt lat="44.44574" lon="2.39107">
        <ele>573.9</ele>
        <time>2011-01-09T08:44:21Z</time>
      </trkpt>
      <trkpt lat="44.44577" lon="2.39104">
        <ele>574.1</ele>
        <time>2011-01-09T08:44:22Z</time>
      </trkpt>
      <trkpt lat="44.4458" lon="2.391">
        <ele>574.4</ele>
        <time>2011-01-09T08:44:23Z</time>
      </trkpt>
      <trkpt lat="44.44583" lon="2.39097">
        <ele>574.6</ele>
        <time>2011-01-09T08:44:24Z</time>
      </trkpt>
      <trkpt lat="44.44586" lon="2.39094">
        <ele>574.8</ele>
        <time>2011-01-09T08:44:25Z</time>
      </trkpt>
      <trkpt lat="44.44589" lon="2.39091">
        <ele>575</ele>
        <time>2011-01-09T08:44:26Z</time>
      </trkpt>
      <trkpt lat="44.44592" lon="2.39088">
        <ele>575.2</ele>
        <time>2011-01-09T08:44:27Z</time>
      </trkpt>
      <trkpt lat="44.44595" lon="2.39085">
        <ele>575.3</ele>
        <time>2011-01-09T08:44:28Z</time>
      </trkpt>
      <trkpt lat="44.44598" lon="2.39082">
        <ele>575.4</ele>
        <time>2011-01-09T08:44:29Z</time>
      </trkpt>
      <trkpt lat="44.44601" lon="2.39079">
        <ele>575.3</ele>
        <time>2011-01-09T08:44:30Z</time>
      </trkpt>
      <trkpt lat="44.44604" lon="2.39076">
        <ele>575.2</ele>
        <time>2011-01-09T08:44:31Z</time>
      </trkpt>
      <trkpt lat="44.44608" lon="2.39073">
        <ele>575.2</ele>
        <time>2011-01-09T08:44:32Z</time>
      </trkpt>
      <trkpt lat="44.44611" lon="2.3907">
        <ele>575</ele>
        <time>2011-01-09T08:44:33Z</time>
      </trkpt>
      <trkpt lat="44.44614" lon="2.39067">
        <ele>574.8</ele>
        <time>2011-01-09T08:44:34Z</time>
      </trkpt>
      <trkpt lat="44.44617" lon="2.39064">
        <ele>574.7</ele>
        <time>2011-01-09T08:44:35Z</time>
      </trkpt>
      <trkpt lat="44.4462" lon="2.39061">
        <ele>574.7</ele>
        <time>2011-01-09T08:44:36Z</time>
      </trkpt>
      <trkpt lat="44.44623" lon="2.39058">
        <ele>574.7</ele>
        <time>2011-01-09T08:44:37Z</time>
      </trkpt>
      <trkpt lat="44.44626" lon="2.39055">
        <ele>574.7</ele>
        <time>2011-01-09T08:44:38Z</time>
      </trkpt>
      <trkpt lat="44.44629" lon="2.39052">
        <ele>575</ele>
        <time>2011-01-09T08:44:39Z</time>
      </trkpt>
      <trkpt lat="44.44632" lon="2.39049">
        <ele>575.2</ele>
        <time>2011-01-09T08:44:40Z</time>
      </trkpt>
      <trkpt lat="44.44635" lon="2.39045">
        <ele>575.4</ele>
        <time>2011-01-09T08:44:41Z</time>
      </trkpt>
      <trkpt lat="44.44638" lon="2.39042">
        <ele>575.3</ele>
        <time>2011-01-09T08:44:42Z</time>
      </trkpt>
      <trkpt lat="44.44641" lon="2.39039">
        <ele>575.3</ele>
        <time>2011-01-09T08:44:43Z</time>
      </trkpt>
      <trkpt lat="44.44643" lon="2.39035">
        <ele>575.3</ele>
        <time>2011-01-09T08:44:44Z</time>
      </trkpt>
      <trkpt lat="44.44646" lon="2.39033">
        <ele>575.4</ele>
        <time>2011-01-09T08:44:45Z</time>
      </trkpt>
      <trkpt lat="44.44648" lon="2.39031">
        <ele>575.4</ele>
        <time>2011-01-09T08:44:46Z</time>
      </trkpt>
      <trkpt lat="44.44651" lon="2.39031">
        <ele>575.5</ele>
        <time>2011-01-09T08:44:47Z</time>
      </trkpt>
      <trkpt lat="44.44652" lon="2.39033">
        <ele>575.5</ele>
        <time>2011-01-09T08:44:48Z</time>
      </trkpt>
      <trkpt lat="44.44654" lon="2.39036">
        <ele>575.9</ele>
        <time>2011-01-09T08:44:49Z</time>
      </trkpt>
      <trkpt lat="44.44654" lon="2.3904">
        <ele>576.2</ele>
        <time>2011-01-09T08:44:50Z</time>
      </trkpt>
      <trkpt lat="44.44655" lon="2.39044">
        <ele>576.4</ele>
        <time>2011-01-09T08:44:51Z</time>
      </trkpt>
      <trkpt lat="44.44655" lon="2.39048">
        <ele>576.2</ele>
        <time>2011-01-09T08:44:52Z</time>
      </trkpt>
      <trkpt lat="44.44655" lon="2.39053">
        <ele>576.1</ele>
        <time>2011-01-09T08:44:53Z</time>
      </trkpt>
      <trkpt lat="44.44655" lon="2.39057">
        <ele>576</ele>
        <time>2011-01-09T08:44:54Z</time>
      </trkpt>
      <trkpt lat="44.44655" lon="2.39062">
        <ele>576.4</ele>
        <time>2011-01-09T08:44:55Z</time>
      </trkpt>
      <trkpt lat="44.44656" lon="2.39066">
        <ele>576.8</ele>
        <time>2011-01-09T08:44:56Z</time>
      </trkpt>
      <trkpt lat="44.44656" lon="2.39071">
        <ele>577</ele>
        <time>2011-01-09T08:44:57Z</time>
      </trkpt>
      <trkpt lat="44.44657" lon="2.39075">
        <ele>576.8</ele>
        <time>2011-01-09T08:44:58Z</time>
      </trkpt>
      <trkpt lat="44.44657" lon="2.39079">
        <ele>576.7</ele>
        <time>2011-01-09T08:44:59Z</time>
      </trkpt>
      <trkpt lat="44.44658" lon="2.39084">
        <ele>576.6</ele>
        <time>2011-01-09T08:45:00Z</time>
      </trkpt>
      <trkpt lat="44.44659" lon="2.39088">
        <ele>576.5</ele>
        <time>2011-01-09T08:45:01Z</time>
      </trkpt>
      <trkpt lat="44.4466" lon="2.39093">
        <ele>577</ele>
        <time>2011-01-09T08:45:02Z</time>
      </trkpt>
      <trkpt lat="44.44661" lon="2.39097">
        <ele>577.4</ele>
        <time>2011-01-09T08:45:03Z</time>
      </trkpt>
      <trkpt lat="44.44662" lon="2.39101">
        <ele>577.7</ele>
        <time>2011-01-09T08:45:04Z</time>
      </trkpt>
      <trkpt lat="44.44662" lon="2.39106">
        <ele>577.8</ele>
        <time>2011-01-09T08:45:05Z</time>
      </trkpt>
      <trkpt lat="44.44663" lon="2.3911">
        <ele>577.8</ele>
        <time>2011-01-09T08:45:06Z</time>
      </trkpt>
      <trkpt lat="44.44664" lon="2.39115">
        <ele>577.9</ele>
        <time>2011-01-09T08:45:07Z</time>
      </trkpt>
      <trkpt lat="44.44665" lon="2.39119">
        <ele>578.5</ele>
        <time>2011-01-09T08:45:08Z</time>
      </trkpt>
      <trkpt lat="44.44666" lon="2.39123">
        <ele>578.9</ele>
        <time>2011-01-09T08:45:09Z</time>
      </trkpt>
      <trkpt lat="44.44668" lon="2.39127">
        <ele>579.3</ele>
        <time>2011-01-09T08:45:10Z</time>
      </trkpt>
      <trkpt lat="44.44669" lon="2.39132">
        <ele>579.4</ele>
        <time>2011-01-09T08:45:11Z</time>
      </trkpt>
      <trkpt lat="44.44669" lon="2.39136">
        <ele>579.5</ele>
        <time>2011-01-09T08:45:12Z</time>
      </trkpt>
      <trkpt lat="44.4467" lon="2.3914">
        <ele>579.6</ele>
        <time>2011-01-09T08:45:13Z</time>
      </trkpt>
      <trkpt lat="44.44671" lon="2.39145">
        <ele>579.4</ele>
        <time>2011-01-09T08:45:14Z</time>
      </trkpt>
      <trkpt lat="44.44672" lon="2.3915">
        <ele>579.1</ele>
        <time>2011-01-09T08:45:15Z</time>
      </trkpt>
      <trkpt lat="44.44673" lon="2.39155">
        <ele>579</ele>
        <time>2011-01-09T08:45:16Z</time>
      </trkpt>
      <trkpt lat="44.44674" lon="2.3916">
        <ele>579.1</ele>
        <time>2011-01-09T08:45:17Z</time>
      </trkpt>
      <trkpt lat="44.44675" lon="2.39165">
        <ele>579.2</ele>
        <time>2011-01-09T08:45:18Z</time>
      </trkpt>
      <trkpt lat="44.44676" lon="2.39171">
        <ele>579.3</ele>
        <time>2011-01-09T08:45:19Z</time>
      </trkpt>
      <trkpt lat="44.44677" lon="2.39176">
        <ele>579.4</ele>
        <time>2011-01-09T08:45:20Z</time>
      </trkpt>
      <trkpt lat="44.44678" lon="2.39182">
        <ele>579.3</ele>
        <time>2011-01-09T08:45:21Z</time>
      </trkpt>
      <trkpt lat="44.44679" lon="2.39189">
        <ele>579.2</ele>
        <time>2011-01-09T08:45:22Z</time>
      </trkpt>
      <trkpt lat="44.44679" lon="2.39195">
        <ele>579.2</ele>
        <time>2011-01-09T08:45:23Z</time>
      </trkpt>
      <trkpt lat="44.4468" lon="2.39201">
        <ele>579.4</ele>
        <time>2011-01-09T08:45:24Z</time>
      </trkpt>
      <trkpt lat="44.4468" lon="2.39207">
        <ele>579.5</ele>
        <time>2011-01-09T08:45:25Z</time>
      </trkpt>
      <trkpt lat="44.4468" lon="2.39213">
        <ele>579.6</ele>
        <time>2011-01-09T08:45:26Z</time>
      </trkpt>
      <trkpt lat="44.44681" lon="2.39219">
        <ele>579.6</ele>
        <time>2011-01-09T08:45:27Z</time>
      </trkpt>
      <trkpt lat="44.44681" lon="2.39225">
        <ele>579.5</ele>
        <time>2011-01-09T08:45:28Z</time>
      </trkpt>
      <trkpt lat="44.44682" lon="2.3923">
        <ele>579.4</ele>
        <time>2011-01-09T08:45:29Z</time>
      </trkpt>
      <trkpt lat="44.44683" lon="2.39236">
        <ele>578.9</ele>
        <time>2011-01-09T08:45:30Z</time>
      </trkpt>
      <trkpt lat="44.44683" lon="2.39243">
        <ele>578.5</ele>
        <time>2011-01-09T08:45:31Z</time>
      </trkpt>
      <trkpt lat="44.44683" lon="2.39249">
        <ele>578.2</ele>
        <time>2011-01-09T08:45:32Z</time>
      </trkpt>
      <trkpt lat="44.44683" lon="2.39254">
        <ele>578.6</ele>
        <time>2011-01-09T08:45:33Z</time>
      </trkpt>
      <trkpt lat="44.44682" lon="2.3926">
        <ele>578.8</ele>
        <time>2011-01-09T08:45:34Z</time>
      </trkpt>
      <trkpt lat="44.44681" lon="2.39266">
        <ele>579</ele>
        <time>2011-01-09T08:45:35Z</time>
      </trkpt>
      <trkpt lat="44.4468" lon="2.39271">
        <ele>579.1</ele>
        <time>2011-01-09T08:45:36Z</time>
      </trkpt>
      <trkpt lat="44.44679" lon="2.39276">
        <ele>579.3</ele>
        <time>2011-01-09T08:45:37Z</time>
      </trkpt>
      <trkpt lat="44.44678" lon="2.39282">
        <ele>579.4</ele>
        <time>2011-01-09T08:45:38Z</time>
      </trkpt>
      <trkpt lat="44.44677" lon="2.39286">
        <ele>579.4</ele>
        <time>2011-01-09T08:45:39Z</time>
      </trkpt>
      <trkpt lat="44.44675" lon="2.39291">
        <ele>579.5</ele>
        <time>2011-01-09T08:45:40Z</time>
      </trkpt>
      <trkpt lat="44.44674" lon="2.39296">
        <ele>579.6</ele>
        <time>2011-01-09T08:45:41Z</time>
      </trkpt>
      <trkpt lat="44.44673" lon="2.39301">
        <ele>579.6</ele>
        <time>2011-01-09T08:45:42Z</time>
      </trkpt>
      <trkpt lat="44.44671" lon="2.39306">
        <ele>579.5</ele>
        <time>2011-01-09T08:45:43Z</time>
      </trkpt>
      <trkpt lat="44.4467" lon="2.39311">
        <ele>579.4</ele>
        <time>2011-01-09T08:45:44Z</time>
      </trkpt>
      <trkpt lat="44.44669" lon="2.39316">
        <ele>579.3</ele>
        <time>2011-01-09T08:45:45Z</time>
      </trkpt>
      <trkpt lat="44.44669" lon="2.39321">
        <ele>579.8</ele>
        <time>2011-01-09T08:45:46Z</time>
      </trkpt>
      <trkpt lat="44.44668" lon="2.39326">
        <ele>580.2</ele>
        <time>2011-01-09T08:45:47Z</time>
      </trkpt>
      <trkpt lat="44.44667" lon="2.39331">
        <ele>580.4</ele>
        <time>2011-01-09T08:45:48Z</time>
      </trkpt>
      <trkpt lat="44.44666" lon="2.39336">
        <ele>580.4</ele>
        <time>2011-01-09T08:45:49Z</time>
      </trkpt>
      <trkpt lat="44.44665" lon="2.39342">
        <ele>580.3</ele>
        <time>2011-01-09T08:45:50Z</time>
      </trkpt>
      <trkpt lat="44.44665" lon="2.39347">
        <ele>580.3</ele>
        <time>2011-01-09T08:45:51Z</time>
      </trkpt>
      <trkpt lat="44.44664" lon="2.39352">
        <ele>580.2</ele>
        <time>2011-01-09T08:45:52Z</time>
      </trkpt>
      <trkpt lat="44.44663" lon="2.39357">
        <ele>580.1</ele>
        <time>2011-01-09T08:45:53Z</time>
      </trkpt>
      <trkpt lat="44.44662" lon="2.39361">
        <ele>580.1</ele>
        <time>2011-01-09T08:45:54Z</time>
      </trkpt>
      <trkpt lat="44.44661" lon="2.39366">
        <ele>580</ele>
        <time>2011-01-09T08:45:55Z</time>
      </trkpt>
      <trkpt lat="44.44661" lon="2.3937">
        <ele>579.9</ele>
        <time>2011-01-09T08:45:56Z</time>
      </trkpt>
      <trkpt lat="44.4466" lon="2.39375">
        <ele>579.7</ele>
        <time>2011-01-09T08:45:57Z</time>
      </trkpt>
      <trkpt lat="44.44659" lon="2.39379">
        <ele>579.6</ele>
        <time>2011-01-09T08:45:58Z</time>
      </trkpt>
      <trkpt lat="44.44659" lon="2.39384">
        <ele>580.1</ele>
        <time>2011-01-09T08:45:59Z</time>
      </trkpt>
      <trkpt lat="44.44659" lon="2.39388">
        <ele>580.5</ele>
        <time>2011-01-09T08:46:00Z</time>
      </trkpt>
      <trkpt lat="44.44658" lon="2.39393">
        <ele>580.7</ele>
        <time>2011-01-09T08:46:01Z</time>
      </trkpt>
      <trkpt lat="44.44657" lon="2.39398">
        <ele>580.6</ele>
        <time>2011-01-09T08:46:02Z</time>
      </trkpt>
      <trkpt lat="44.44657" lon="2.39403">
        <ele>580.6</ele>
        <time>2011-01-09T08:46:03Z</time>
      </trkpt>
      <trkpt lat="44.44656" lon="2.39408">
        <ele>580.5</ele>
        <time>2011-01-09T08:46:04Z</time>
      </trkpt>
      <trkpt lat="44.44656" lon="2.39414">
        <ele>580.8</ele>
        <time>2011-01-09T08:46:05Z</time>
      </trkpt>
      <trkpt lat="44.44656" lon="2.39419">
        <ele>581</ele>
        <time>2011-01-09T08:46:06Z</time>
      </trkpt>
      <trkpt lat="44.44656" lon="2.39424">
        <ele>581.2</ele>
        <time>2011-01-09T08:46:07Z</time>
      </trkpt>
      <trkpt lat="44.44656" lon="2.39429">
        <ele>581</ele>
        <time>2011-01-09T08:46:08Z</time>
      </trkpt>
      <trkpt lat="44.44656" lon="2.39434">
        <ele>580.8</ele>
        <time>2011-01-09T08:46:09Z</time>
      </trkpt>
      <trkpt lat="44.44656" lon="2.39439">
        <ele>580.7</ele>
        <time>2011-01-09T08:46:10Z</time>
      </trkpt>
      <trkpt lat="44.44656" lon="2.39445">
        <ele>580.6</ele>
        <time>2011-01-09T08:46:11Z</time>
      </trkpt>
      <trkpt lat="44.44656" lon="2.3945">
        <ele>580.6</ele>
        <time>2011-01-09T08:46:12Z</time>
      </trkpt>
      <trkpt lat="44.44655" lon="2.39455">
        <ele>580.7</ele>
        <time>2011-01-09T08:46:13Z</time>
      </trkpt>
      <trkpt lat="44.44655" lon="2.3946">
        <ele>580.7</ele>
        <time>2011-01-09T08:46:14Z</time>
      </trkpt>
      <trkpt lat="44.44654" lon="2.39465">
        <ele>580.9</ele>
        <time>2011-01-09T08:46:15Z</time>
      </trkpt>
      <trkpt lat="44.44653" lon="2.39471">
        <ele>581.1</ele>
        <time>2011-01-09T08:46:16Z</time>
      </trkpt>
      <trkpt lat="44.44653" lon="2.39476">
        <ele>581.2</ele>
        <time>2011-01-09T08:46:17Z</time>
      </trkpt>
      <trkpt lat="44.44652" lon="2.39482">
        <ele>581.2</ele>
        <time>2011-01-09T08:46:18Z</time>
      </trkpt>
      <trkpt lat="44.44652" lon="2.39488">
        <ele>581.2</ele>
        <time>2011-01-09T08:46:19Z</time>
      </trkpt>
      <trkpt lat="44.44652" lon="2.39494">
        <ele>581.2</ele>
        <time>2011-01-09T08:46:20Z</time>
      </trkpt>
      <trkpt lat="44.44652" lon="2.39499">
        <ele>580.3</ele>
        <time>2011-01-09T08:46:21Z</time>
      </trkpt>
      <trkpt lat="44.44651" lon="2.39505">
        <ele>579.7</ele>
        <time>2011-01-09T08:46:22Z</time>
      </trkpt>
      <trkpt lat="44.44651" lon="2.39511">
        <ele>579.2</ele>
        <time>2011-01-09T08:46:23Z</time>
      </trkpt>
      <trkpt lat="44.44651" lon="2.39517">
        <ele>578.8</ele>
        <time>2011-01-09T08:46:24Z</time>
      </trkpt>
      <trkpt lat="44.4465" lon="2.39522">
        <ele>579.2</ele>
        <time>2011-01-09T08:46:25Z</time>
      </trkpt>
      <trkpt lat="44.4465" lon="2.39528">
        <ele>579.5</ele>
        <time>2011-01-09T08:46:26Z</time>
      </trkpt>
      <trkpt lat="44.44649" lon="2.39534">
        <ele>579.7</ele>
        <time>2011-01-09T08:46:27Z</time>
      </trkpt>
      <trkpt lat="44.44649" lon="2.39539">
        <ele>580.2</ele>
        <time>2011-01-09T08:46:28Z</time>
      </trkpt>
      <trkpt lat="44.44649" lon="2.39545">
        <ele>580.7</ele>
        <time>2011-01-09T08:46:29Z</time>
      </trkpt>
      <trkpt lat="44.44649" lon="2.3955">
        <ele>581</ele>
        <time>2011-01-09T08:46:30Z</time>
      </trkpt>
      <trkpt lat="44.44648" lon="2.39556">
        <ele>580.9</ele>
        <time>2011-01-09T08:46:31Z</time>
      </trkpt>
      <trkpt lat="44.44648" lon="2.39561">
        <ele>580.8</ele>
        <time>2011-01-09T08:46:32Z</time>
      </trkpt>
      <trkpt lat="44.44648" lon="2.39566">
        <ele>580.8</ele>
        <time>2011-01-09T08:46:33Z</time>
      </trkpt>
      <trkpt lat="44.44648" lon="2.39571">
        <ele>580.5</ele>
        <time>2011-01-09T08:46:34Z</time>
      </trkpt>
      <trkpt lat="44.44649" lon="2.39577">
        <ele>580.3</ele>
        <time>2011-01-09T08:46:35Z</time>
      </trkpt>
      <trkpt lat="44.44649" lon="2.39582">
        <ele>580.1</ele>
        <time>2011-01-09T08:46:36Z</time>
      </trkpt>
      <trkpt lat="44.44649" lon="2.39587">
        <ele>580.3</ele>
        <time>2011-01-09T08:46:37Z</time>
      </trkpt>
      <trkpt lat="44.4465" lon="2.39593">
        <ele>580.4</ele>
        <time>2011-01-09T08:46:38Z</time>
      </trkpt>
      <trkpt lat="44.4465" lon="2.39598">
        <ele>580.5</ele>
        <time>2011-01-09T08:46:39Z</time>
      </trkpt>
      <trkpt lat="44.4465" lon="2.39603">
        <ele>580.4</ele>
        <time>2011-01-09T08:46:40Z</time>
      </trkpt>
      <trkpt lat="44.44651" lon="2.39608">
        <ele>580.3</ele>
        <time>2011-01-09T08:46:41Z</time>
      </trkpt>
      <trkpt lat="44.44651" lon="2.39613">
        <ele>580.2</ele>
        <time>2011-01-09T08:46:42Z</time>
      </trkpt>
      <trkpt lat="44.44651" lon="2.39619">
        <ele>580.1</ele>
        <time>2011-01-09T08:46:43Z</time>
      </trkpt>
      <trkpt lat="44.44651" lon="2.39624">
        <ele>579.7</ele>
        <time>2011-01-09T08:46:44Z</time>
      </trkpt>
      <trkpt lat="44.44652" lon="2.39629">
        <ele>579.4</ele>
        <time>2011-01-09T08:46:45Z</time>
      </trkpt>
      <trkpt lat="44.44652" lon="2.39633">
        <ele>579.2</ele>
        <time>2011-01-09T08:46:46Z</time>
      </trkpt>
      <trkpt lat="44.44651" lon="2.39638">
        <ele>579.3</ele>
        <time>2011-01-09T08:46:47Z</time>
      </trkpt>
      <trkpt lat="44.4465" lon="2.39642">
        <ele>579.4</ele>
        <time>2011-01-09T08:46:48Z</time>
      </trkpt>
      <trkpt lat="44.44648" lon="2.39645">
        <ele>579.4</ele>
        <time>2011-01-09T08:46:49Z</time>
      </trkpt>
      <trkpt lat="44.44645" lon="2.39649">
        <ele>579.7</ele>
        <time>2011-01-09T08:46:50Z</time>
      </trkpt>
      <trkpt lat="44.44643" lon="2.39652">
        <ele>579.8</ele>
        <time>2011-01-09T08:46:51Z</time>
      </trkpt>
      <trkpt lat="44.4464" lon="2.39655">
        <ele>579.9</ele>
        <time>2011-01-09T08:46:52Z</time>
      </trkpt>
      <trkpt lat="44.44637" lon="2.39658">
        <ele>580.2</ele>
        <time>2011-01-09T08:46:53Z</time>
      </trkpt>
      <trkpt lat="44.44634" lon="2.39661">
        <ele>580.3</ele>
        <time>2011-01-09T08:46:54Z</time>
      </trkpt>
      <trkpt lat="44.44631" lon="2.39663">
        <ele>580.5</ele>
        <time>2011-01-09T08:46:55Z</time>
      </trkpt>
      <trkpt lat="44.44628" lon="2.39666">
        <ele>579.9</ele>
        <time>2011-01-09T08:46:56Z</time>
      </trkpt>
      <trkpt lat="44.44626" lon="2.39669">
        <ele>579.5</ele>
        <time>2011-01-09T08:46:57Z</time>
      </trkpt>
      <trkpt lat="44.44623" lon="2.39672">
        <ele>579.2</ele>
        <time>2011-01-09T08:46:58Z</time>
      </trkpt>
      <trkpt lat="44.44621" lon="2.39676">
        <ele>578.9</ele>
        <time>2011-01-09T08:46:59Z</time>
      </trkpt>
      <trkpt lat="44.44619" lon="2.3968">
        <ele>579</ele>
        <time>2011-01-09T08:47:00Z</time>
      </trkpt>
      <trkpt lat="44.44617" lon="2.39684">
        <ele>579.1</ele>
        <time>2011-01-09T08:47:01Z</time>
      </trkpt>
      <trkpt lat="44.44615" lon="2.39688">
        <ele>579.1</ele>
        <time>2011-01-09T08:47:02Z</time>
      </trkpt>
      <trkpt lat="44.44613" lon="2.39692">
        <ele>579.1</ele>
        <time>2011-01-09T08:47:03Z</time>
      </trkpt>
      <trkpt lat="44.44612" lon="2.39697">
        <ele>579.1</ele>
        <time>2011-01-09T08:47:04Z</time>
      </trkpt>
      <trkpt lat="44.4461" lon="2.39701">
        <ele>579.1</ele>
        <time>2011-01-09T08:47:05Z</time>
      </trkpt>
      <trkpt lat="44.44609" lon="2.39706">
        <ele>579.1</ele>
        <time>2011-01-09T08:47:06Z</time>
      </trkpt>
      <trkpt lat="44.44608" lon="2.39711">
        <ele>579.1</ele>
        <time>2011-01-09T08:47:07Z</time>
      </trkpt>
      <trkpt lat="44.44606" lon="2.39716">
        <ele>579.1</ele>
        <time>2011-01-09T08:47:08Z</time>
      </trkpt>
      <trkpt lat="44.44604" lon="2.39721">
        <ele>579.1</ele>
        <time>2011-01-09T08:47:09Z</time>
      </trkpt>
      <trkpt lat="44.44603" lon="2.39725">
        <ele>579.1</ele>
        <time>2011-01-09T08:47:10Z</time>
      </trkpt>
      <trkpt lat="44.44602" lon="2.3973">
        <ele>579.1</ele>
        <time>2011-01-09T08:47:11Z</time>
      </trkpt>
      <trkpt lat="44.446" lon="2.39735">
        <ele>578.8</ele>
        <time>2011-01-09T08:47:12Z</time>
      </trkpt>
      <trkpt lat="44.44598" lon="2.3974">
        <ele>578.6</ele>
        <time>2011-01-09T08:47:13Z</time>
      </trkpt>
      <trkpt lat="44.44596" lon="2.39744">
        <ele>578.5</ele>
        <time>2011-01-09T08:47:14Z</time>
      </trkpt>
      <trkpt lat="44.44595" lon="2.39749">
        <ele>578.8</ele>
        <time>2011-01-09T08:47:15Z</time>
      </trkpt>
      <trkpt lat="44.44593" lon="2.39754">
        <ele>579</ele>
        <time>2011-01-09T08:47:16Z</time>
      </trkpt>
      <trkpt lat="44.44591" lon="2.39758">
        <ele>579.2</ele>
        <time>2011-01-09T08:47:17Z</time>
      </trkpt>
      <trkpt lat="44.4459" lon="2.39762">
        <ele>579.3</ele>
        <time>2011-01-09T08:47:18Z</time>
      </trkpt>
      <trkpt lat="44.44588" lon="2.39766">
        <ele>579.3</ele>
        <time>2011-01-09T08:47:19Z</time>
      </trkpt>
      <trkpt lat="44.44587" lon="2.39771">
        <ele>579.3</ele>
        <time>2011-01-09T08:47:20Z</time>
      </trkpt>
      <trkpt lat="44.44586" lon="2.39776">
        <ele>579.2</ele>
        <time>2011-01-09T08:47:21Z</time>
      </trkpt>
      <trkpt lat="44.44586" lon="2.39781">
        <ele>579.2</ele>
        <time>2011-01-09T08:47:22Z</time>
      </trkpt>
      <trkpt lat="44.44586" lon="2.39786">
        <ele>579.1</ele>
        <time>2011-01-09T08:47:23Z</time>
      </trkpt>
      <trkpt lat="44.44587" lon="2.39791">
        <ele>579.1</ele>
        <time>2011-01-09T08:47:24Z</time>
      </trkpt>
      <trkpt lat="44.44588" lon="2.39796">
        <ele>579.2</ele>
        <time>2011-01-09T08:47:25Z</time>
      </trkpt>
      <trkpt lat="44.44589" lon="2.39801">
        <ele>579.3</ele>
        <time>2011-01-09T08:47:26Z</time>
      </trkpt>
      <trkpt lat="44.44591" lon="2.39805">
        <ele>579.4</ele>
        <time>2011-01-09T08:47:27Z</time>
      </trkpt>
      <trkpt lat="44.44593" lon="2.3981">
        <ele>578.9</ele>
        <time>2011-01-09T08:47:28Z</time>
      </trkpt>
      <trkpt lat="44.44596" lon="2.39816">
        <ele>578.4</ele>
        <time>2011-01-09T08:47:29Z</time>
      </trkpt>
      <trkpt lat="44.44598" lon="2.39821">
        <ele>578.1</ele>
        <time>2011-01-09T08:47:30Z</time>
      </trkpt>
      <trkpt lat="44.44599" lon="2.39826">
        <ele>577.9</ele>
        <time>2011-01-09T08:47:31Z</time>
      </trkpt>
      <trkpt lat="44.44599" lon="2.39831">
        <ele>577.7</ele>
        <time>2011-01-09T08:47:32Z</time>
      </trkpt>
      <trkpt lat="44.44598" lon="2.39837">
        <ele>577.5</ele>
        <time>2011-01-09T08:47:33Z</time>
      </trkpt>
      <trkpt lat="44.44596" lon="2.39841">
        <ele>577.4</ele>
        <time>2011-01-09T08:47:34Z</time>
      </trkpt>
      <trkpt lat="44.44593" lon="2.39844">
        <ele>577</ele>
        <time>2011-01-09T08:47:35Z</time>
      </trkpt>
      <trkpt lat="44.4459" lon="2.39847">
        <ele>576.7</ele>
        <time>2011-01-09T08:47:36Z</time>
      </trkpt>
      <trkpt lat="44.44586" lon="2.39851">
        <ele>576.5</ele>
        <time>2011-01-09T08:47:37Z</time>
      </trkpt>
      <trkpt lat="44.44583" lon="2.39854">
        <ele>576.3</ele>
        <time>2011-01-09T08:47:38Z</time>
      </trkpt>
      <trkpt lat="44.4458" lon="2.39858">
        <ele>576</ele>
        <time>2011-01-09T08:47:39Z</time>
      </trkpt>
      <trkpt lat="44.44577" lon="2.39862">
        <ele>575.9</ele>
        <time>2011-01-09T08:47:40Z</time>
      </trkpt>
      <trkpt lat="44.44575" lon="2.39865">
        <ele>575.8</ele>
        <time>2011-01-09T08:47:41Z</time>
      </trkpt>
      <trkpt lat="44.44572" lon="2.39869">
        <ele>575.8</ele>
        <time>2011-01-09T08:47:42Z</time>
      </trkpt>
      <trkpt lat="44.44569" lon="2.39873">
        <ele>575.7</ele>
        <time>2011-01-09T08:47:43Z</time>
      </trkpt>
      <trkpt lat="44.44567" lon="2.39877">
        <ele>575.9</ele>
        <time>2011-01-09T08:47:44Z</time>
      </trkpt>
      <trkpt lat="44.44564" lon="2.39882">
        <ele>576</ele>
        <time>2011-01-09T08:47:45Z</time>
      </trkpt>
      <trkpt lat="44.44562" lon="2.39886">
        <ele>576.1</ele>
        <time>2011-01-09T08:47:46Z</time>
      </trkpt>
      <trkpt lat="44.4456" lon="2.39891">
        <ele>576.2</ele>
        <time>2011-01-09T08:47:47Z</time>
      </trkpt>
      <trkpt lat="44.44558" lon="2.39895">
        <ele>576.3</ele>
        <time>2011-01-09T08:47:48Z</time>
      </trkpt>
      <trkpt lat="44.44556" lon="2.39899">
        <ele>576.3</ele>
        <time>2011-01-09T08:47:49Z</time>
      </trkpt>
      <trkpt lat="44.44554" lon="2.39904">
        <ele>576.3</ele>
        <time>2011-01-09T08:47:50Z</time>
      </trkpt>
      <trkpt lat="44.44552" lon="2.39908">
        <ele>576.5</ele>
        <time>2011-01-09T08:47:51Z</time>
      </trkpt>
      <trkpt lat="44.4455" lon="2.39913">
        <ele>576.6</ele>
        <time>2011-01-09T08:47:52Z</time>
      </trkpt>
      <trkpt lat="44.44548" lon="2.39917">
        <ele>576.6</ele>
        <time>2011-01-09T08:47:53Z</time>
      </trkpt>
      <trkpt lat="44.44547" lon="2.39922">
        <ele>576.7</ele>
        <time>2011-01-09T08:47:54Z</time>
      </trkpt>
      <trkpt lat="44.44545" lon="2.39926">
        <ele>576.8</ele>
        <time>2011-01-09T08:47:55Z</time>
      </trkpt>
      <trkpt lat="44.44544" lon="2.39931">
        <ele>576.8</ele>
        <time>2011-01-09T08:47:56Z</time>
      </trkpt>
      <trkpt lat="44.44542" lon="2.39936">
        <ele>576.7</ele>
        <time>2011-01-09T08:47:57Z</time>
      </trkpt>
      <trkpt lat="44.44541" lon="2.39942">
        <ele>576.6</ele>
        <time>2011-01-09T08:47:58Z</time>
      </trkpt>
      <trkpt lat="44.44539" lon="2.39947">
        <ele>576.5</ele>
        <time>2011-01-09T08:47:59Z</time>
      </trkpt>
      <trkpt lat="44.44538" lon="2.39952">
        <ele>576.9</ele>
        <time>2011-01-09T08:48:00Z</time>
      </trkpt>
      <trkpt lat="44.44536" lon="2.39957">
        <ele>577.2</ele>
        <time>2011-01-09T08:48:01Z</time>
      </trkpt>
      <trkpt lat="44.44535" lon="2.39961">
        <ele>577.5</ele>
        <time>2011-01-09T08:48:02Z</time>
      </trkpt>
      <trkpt lat="44.44533" lon="2.39966">
        <ele>577.7</ele>
        <time>2011-01-09T08:48:03Z</time>
      </trkpt>
      <trkpt lat="44.44532" lon="2.39971">
        <ele>577.9</ele>
        <time>2011-01-09T08:48:04Z</time>
      </trkpt>
      <trkpt lat="44.4453" lon="2.39976">
        <ele>578.1</ele>
        <time>2011-01-09T08:48:05Z</time>
      </trkpt>
      <trkpt lat="44.44529" lon="2.3998">
        <ele>578.2</ele>
        <time>2011-01-09T08:48:06Z</time>
      </trkpt>
      <trkpt lat="44.44528" lon="2.39985">
        <ele>577.9</ele>
        <time>2011-01-09T08:48:07Z</time>
      </trkpt>
      <trkpt lat="44.44526" lon="2.3999">
        <ele>577.6</ele>
        <time>2011-01-09T08:48:08Z</time>
      </trkpt>
      <trkpt lat="44.44525" lon="2.39994">
        <ele>577.4</ele>
        <time>2011-01-09T08:48:09Z</time>
      </trkpt>
      <trkpt lat="44.44524" lon="2.39999">
        <ele>577.8</ele>
        <time>2011-01-09T08:48:10Z</time>
      </trkpt>
      <trkpt lat="44.44522" lon="2.40003">
        <ele>578</ele>
        <time>2011-01-09T08:48:11Z</time>
      </trkpt>
      <trkpt lat="44.44521" lon="2.40008">
        <ele>578.2</ele>
        <time>2011-01-09T08:48:12Z</time>
      </trkpt>
      <trkpt lat="44.4452" lon="2.40012">
        <ele>578.3</ele>
        <time>2011-01-09T08:48:13Z</time>
      </trkpt>
      <trkpt lat="44.44518" lon="2.40017">
        <ele>578.4</ele>
        <time>2011-01-09T08:48:14Z</time>
      </trkpt>
      <trkpt lat="44.44517" lon="2.40022">
        <ele>578.4</ele>
        <time>2011-01-09T08:48:15Z</time>
      </trkpt>
      <trkpt lat="44.44515" lon="2.40026">
        <ele>578.5</ele>
        <time>2011-01-09T08:48:16Z</time>
      </trkpt>
      <trkpt lat="44.44514" lon="2.40031">
        <ele>578.5</ele>
        <time>2011-01-09T08:48:17Z</time>
      </trkpt>
      <trkpt lat="44.44513" lon="2.40035">
        <ele>578.5</ele>
        <time>2011-01-09T08:48:18Z</time>
      </trkpt>
      <trkpt lat="44.44511" lon="2.4004">
        <ele>578.3</ele>
        <time>2011-01-09T08:48:19Z</time>
      </trkpt>
      <trkpt lat="44.4451" lon="2.40044">
        <ele>578.2</ele>
        <time>2011-01-09T08:48:20Z</time>
      </trkpt>
      <trkpt lat="44.44509" lon="2.40048">
        <ele>578.1</ele>
        <time>2011-01-09T08:48:21Z</time>
      </trkpt>
      <trkpt lat="44.44509" lon="2.40052">
        <ele>578.1</ele>
        <time>2011-01-09T08:48:22Z</time>
      </trkpt>
      <trkpt lat="44.44508" lon="2.40057">
        <ele>578</ele>
        <time>2011-01-09T08:48:23Z</time>
      </trkpt>
      <trkpt lat="44.44513" lon="2.40088">
        <ele>578.1</ele>
        <time>2011-01-09T08:48:31Z</time>
      </trkpt>
      <trkpt lat="44.44516" lon="2.40089">
        <ele>577.9</ele>
        <time>2011-01-09T08:48:32Z</time>
      </trkpt>
      <trkpt lat="44.44519" lon="2.4009">
        <ele>577.7</ele>
        <time>2011-01-09T08:48:33Z</time>
      </trkpt>
      <trkpt lat="44.44523" lon="2.40092">
        <ele>577.5</ele>
        <time>2011-01-09T08:48:34Z</time>
      </trkpt>
      <trkpt lat="44.44528" lon="2.40094">
        <ele>577.5</ele>
        <time>2011-01-09T08:48:35Z</time>
      </trkpt>
      <trkpt lat="44.44532" lon="2.40096">
        <ele>577.4</ele>
        <time>2011-01-09T08:48:36Z</time>
      </trkpt>
      <trkpt lat="44.44537" lon="2.40098">
        <ele>577.4</ele>
        <time>2011-01-09T08:48:37Z</time>
      </trkpt>
      <trkpt lat="44.4454" lon="2.401">
        <ele>577.4</ele>
        <time>2011-01-09T08:48:38Z</time>
      </trkpt>
      <trkpt lat="44.44544" lon="2.40101">
        <ele>576.6</ele>
        <time>2011-01-09T08:48:39Z</time>
      </trkpt>
      <trkpt lat="44.44548" lon="2.40103">
        <ele>576</ele>
        <time>2011-01-09T08:48:40Z</time>
      </trkpt>
      <trkpt lat="44.44553" lon="2.40104">
        <ele>575.6</ele>
        <time>2011-01-09T08:48:41Z</time>
      </trkpt>
      <trkpt lat="44.44557" lon="2.40105">
        <ele>575.9</ele>
        <time>2011-01-09T08:48:42Z</time>
      </trkpt>
      <trkpt lat="44.44561" lon="2.40107">
        <ele>576</ele>
        <time>2011-01-09T08:48:43Z</time>
      </trkpt>
      <trkpt lat="44.44565" lon="2.40108">
        <ele>576.2</ele>
        <time>2011-01-09T08:48:44Z</time>
      </trkpt>
      <trkpt lat="44.4457" lon="2.4011">
        <ele>575.6</ele>
        <time>2011-01-09T08:48:45Z</time>
      </trkpt>
      <trkpt lat="44.44574" lon="2.40112">
        <ele>575.2</ele>
        <time>2011-01-09T08:48:46Z</time>
      </trkpt>
      <trkpt lat="44.44578" lon="2.40113">
        <ele>574.8</ele>
        <time>2011-01-09T08:48:47Z</time>
      </trkpt>
      <trkpt lat="44.44582" lon="2.40115">
        <ele>575.1</ele>
        <time>2011-01-09T08:48:48Z</time>
      </trkpt>
      <trkpt lat="44.44587" lon="2.40116">
        <ele>575.3</ele>
        <time>2011-01-09T08:48:49Z</time>
      </trkpt>
      <trkpt lat="44.44591" lon="2.40118">
        <ele>575.4</ele>
        <time>2011-01-09T08:48:50Z</time>
      </trkpt>
      <trkpt lat="44.44595" lon="2.4012">
        <ele>575.3</ele>
        <time>2011-01-09T08:48:51Z</time>
      </trkpt>
      <trkpt lat="44.44599" lon="2.40121">
        <ele>575.2</ele>
        <time>2011-01-09T08:48:52Z</time>
      </trkpt>
      <trkpt lat="44.44603" lon="2.40123">
        <ele>575.1</ele>
        <time>2011-01-09T08:48:53Z</time>
      </trkpt>
      <trkpt lat="44.44607" lon="2.40124">
        <ele>575</ele>
        <time>2011-01-09T08:48:54Z</time>
      </trkpt>
      <trkpt lat="44.44611" lon="2.40126">
        <ele>575.4</ele>
        <time>2011-01-09T08:48:55Z</time>
      </trkpt>
      <trkpt lat="44.44614" lon="2.40127">
        <ele>575.6</ele>
        <time>2011-01-09T08:48:56Z</time>
      </trkpt>
      <trkpt lat="44.44618" lon="2.40129">
        <ele>575.8</ele>
        <time>2011-01-09T08:48:57Z</time>
      </trkpt>
      <trkpt lat="44.44622" lon="2.4013">
        <ele>575.9</ele>
        <time>2011-01-09T08:48:58Z</time>
      </trkpt>
      <trkpt lat="44.44626" lon="2.40132">
        <ele>575.9</ele>
        <time>2011-01-09T08:48:59Z</time>
      </trkpt>
      <trkpt lat="44.4463" lon="2.40133">
        <ele>575.9</ele>
        <time>2011-01-09T08:49:00Z</time>
      </trkpt>
      <trkpt lat="44.44633" lon="2.40134">
        <ele>576.2</ele>
        <time>2011-01-09T08:49:01Z</time>
      </trkpt>
      <trkpt lat="44.44637" lon="2.40136">
        <ele>576.5</ele>
        <time>2011-01-09T08:49:02Z</time>
      </trkpt>
      <trkpt lat="44.4464" lon="2.40137">
        <ele>576.7</ele>
        <time>2011-01-09T08:49:03Z</time>
      </trkpt>
      <trkpt lat="44.44643" lon="2.40139">
        <ele>576.8</ele>
        <time>2011-01-09T08:49:04Z</time>
      </trkpt>
      <trkpt lat="44.44647" lon="2.4014">
        <ele>576.9</ele>
        <time>2011-01-09T08:49:05Z</time>
      </trkpt>
      <trkpt lat="44.4465" lon="2.40141">
        <ele>577</ele>
        <time>2011-01-09T08:49:06Z</time>
      </trkpt>
      <trkpt lat="44.44654" lon="2.40143">
        <ele>577</ele>
        <time>2011-01-09T08:49:07Z</time>
      </trkpt>
      <trkpt lat="44.44657" lon="2.40144">
        <ele>577</ele>
        <time>2011-01-09T08:49:08Z</time>
      </trkpt>
      <trkpt lat="44.4466" lon="2.40146">
        <ele>576.9</ele>
        <time>2011-01-09T08:49:09Z</time>
      </trkpt>
      <trkpt lat="44.44663" lon="2.40148">
        <ele>577.7</ele>
        <time>2011-01-09T08:49:10Z</time>
      </trkpt>
      <trkpt lat="44.44666" lon="2.4015">
        <ele>578.3</ele>
        <time>2011-01-09T08:49:11Z</time>
      </trkpt>
      <trkpt lat="44.44669" lon="2.40152">
        <ele>578.7</ele>
        <time>2011-01-09T08:49:12Z</time>
      </trkpt>
      <trkpt lat="44.44672" lon="2.40153">
        <ele>579</ele>
        <time>2011-01-09T08:49:13Z</time>
      </trkpt>
      <trkpt lat="44.44675" lon="2.40155">
        <ele>579.2</ele>
        <time>2011-01-09T08:49:14Z</time>
      </trkpt>
      <trkpt lat="44.44678" lon="2.40157">
        <ele>579.3</ele>
        <time>2011-01-09T08:49:15Z</time>
      </trkpt>
      <trkpt lat="44.44681" lon="2.40158">
        <ele>579.4</ele>
        <time>2011-01-09T08:49:16Z</time>
      </trkpt>
      <trkpt lat="44.44685" lon="2.40159">
        <ele>579.4</ele>
        <time>2011-01-09T08:49:17Z</time>
      </trkpt>
      <trkpt lat="44.44688" lon="2.4016">
        <ele>579.4</ele>
        <time>2011-01-09T08:49:18Z</time>
      </trkpt>
      <trkpt lat="44.44691" lon="2.40162">
        <ele>579.3</ele>
        <time>2011-01-09T08:49:19Z</time>
      </trkpt>
      <trkpt lat="44.44693" lon="2.40163">
        <ele>579.2</ele>
        <time>2011-01-09T08:49:20Z</time>
      </trkpt>
      <trkpt lat="44.44696" lon="2.40165">
        <ele>579.1</ele>
        <time>2011-01-09T08:49:21Z</time>
      </trkpt>
      <trkpt lat="44.44699" lon="2.40167">
        <ele>579</ele>
        <time>2011-01-09T08:49:22Z</time>
      </trkpt>
      <trkpt lat="44.44702" lon="2.40168">
        <ele>579.7</ele>
        <time>2011-01-09T08:49:23Z</time>
      </trkpt>
      <trkpt lat="44.44705" lon="2.4017">
        <ele>580.1</ele>
        <time>2011-01-09T08:49:24Z</time>
      </trkpt>
      <trkpt lat="44.44708" lon="2.40172">
        <ele>580.5</ele>
        <time>2011-01-09T08:49:25Z</time>
      </trkpt>
      <trkpt lat="44.4471" lon="2.40173">
        <ele>580.7</ele>
        <time>2011-01-09T08:49:26Z</time>
      </trkpt>
      <trkpt lat="44.44713" lon="2.40175">
        <ele>581.3</ele>
        <time>2011-01-09T08:49:27Z</time>
      </trkpt>
      <trkpt lat="44.44715" lon="2.40176">
        <ele>581.8</ele>
        <time>2011-01-09T08:49:28Z</time>
      </trkpt>
      <trkpt lat="44.44717" lon="2.40177">
        <ele>582.2</ele>
        <time>2011-01-09T08:49:29Z</time>
      </trkpt>
      <trkpt lat="44.44719" lon="2.40178">
        <ele>582.1</ele>
        <time>2011-01-09T08:49:30Z</time>
      </trkpt>
      <trkpt lat="44.44722" lon="2.4018">
        <ele>582</ele>
        <time>2011-01-09T08:49:31Z</time>
      </trkpt>
      <trkpt lat="44.44724" lon="2.40181">
        <ele>582</ele>
        <time>2011-01-09T08:49:32Z</time>
      </trkpt>
      <trkpt lat="44.44728" lon="2.40183">
        <ele>583.2</ele>
        <time>2011-01-09T08:49:34Z</time>
      </trkpt>
      <trkpt lat="44.44732" lon="2.40185">
        <ele>584</ele>
        <time>2011-01-09T08:49:36Z</time>
      </trkpt>
      <trkpt lat="44.44735" lon="2.40187">
        <ele>584.3</ele>
        <time>2011-01-09T08:49:37Z</time>
      </trkpt>
      <trkpt lat="44.44737" lon="2.40188">
        <ele>584.5</ele>
        <time>2011-01-09T08:49:38Z</time>
      </trkpt>
      <trkpt lat="44.44741" lon="2.40191">
        <ele>584.9</ele>
        <time>2011-01-09T08:49:40Z</time>
      </trkpt>
      <trkpt lat="44.44743" lon="2.40192">
        <ele>585</ele>
        <time>2011-01-09T08:49:41Z</time>
      </trkpt>
      <trkpt lat="44.44745" lon="2.40193">
        <ele>585</ele>
        <time>2011-01-09T08:49:42Z</time>
      </trkpt>
      <trkpt lat="44.44748" lon="2.40194">
        <ele>585.1</ele>
        <time>2011-01-09T08:49:43Z</time>
      </trkpt>
      <trkpt lat="44.4475" lon="2.40194">
        <ele>585.1</ele>
        <time>2011-01-09T08:49:44Z</time>
      </trkpt>
      <trkpt lat="44.44752" lon="2.40195">
        <ele>585.1</ele>
        <time>2011-01-09T08:49:45Z</time>
      </trkpt>
      <trkpt lat="44.44755" lon="2.40196">
        <ele>585.4</ele>
        <time>2011-01-09T08:49:46Z</time>
      </trkpt>
      <trkpt lat="44.44757" lon="2.40197">
        <ele>585.7</ele>
        <time>2011-01-09T08:49:47Z</time>
      </trkpt>
      <trkpt lat="44.44759" lon="2.40198">
        <ele>585.9</ele>
        <time>2011-01-09T08:49:48Z</time>
      </trkpt>
      <trkpt lat="44.44762" lon="2.40198">
        <ele>586.3</ele>
        <time>2011-01-09T08:49:49Z</time>
      </trkpt>
      <trkpt lat="44.44764" lon="2.40199">
        <ele>586.6</ele>
        <time>2011-01-09T08:49:50Z</time>
      </trkpt>
      <trkpt lat="44.44767" lon="2.402">
        <ele>586.8</ele>
        <time>2011-01-09T08:49:51Z</time>
      </trkpt>
      <trkpt lat="44.44769" lon="2.40201">
        <ele>587</ele>
        <time>2011-01-09T08:49:52Z</time>
      </trkpt>
      <trkpt lat="44.44771" lon="2.40202">
        <ele>587.1</ele>
        <time>2011-01-09T08:49:53Z</time>
      </trkpt>
      <trkpt lat="44.44774" lon="2.40203">
        <ele>587.2</ele>
        <time>2011-01-09T08:49:54Z</time>
      </trkpt>
      <trkpt lat="44.44776" lon="2.40204">
        <ele>587.4</ele>
        <time>2011-01-09T08:49:55Z</time>
      </trkpt>
      <trkpt lat="44.44778" lon="2.40205">
        <ele>587.5</ele>
        <time>2011-01-09T08:49:56Z</time>
      </trkpt>
      <trkpt lat="44.44781" lon="2.40206">
        <ele>587.6</ele>
        <time>2011-01-09T08:49:57Z</time>
      </trkpt>
      <trkpt lat="44.44785" lon="2.40209">
        <ele>588.7</ele>
        <time>2011-01-09T08:49:59Z</time>
      </trkpt>
      <trkpt lat="44.44787" lon="2.4021">
        <ele>589</ele>
        <time>2011-01-09T08:50:00Z</time>
      </trkpt>
      <trkpt lat="44.44789" lon="2.40212">
        <ele>589.3</ele>
        <time>2011-01-09T08:50:01Z</time>
      </trkpt>
      <trkpt lat="44.44791" lon="2.40214">
        <ele>589.5</ele>
        <time>2011-01-09T08:50:02Z</time>
      </trkpt>
      <trkpt lat="44.44793" lon="2.40216">
        <ele>589.6</ele>
        <time>2011-01-09T08:50:03Z</time>
      </trkpt>
      <trkpt lat="44.44795" lon="2.40219">
        <ele>589.7</ele>
        <time>2011-01-09T08:50:04Z</time>
      </trkpt>
      <trkpt lat="44.44797" lon="2.40222">
        <ele>589.7</ele>
        <time>2011-01-09T08:50:05Z</time>
      </trkpt>
      <trkpt lat="44.44799" lon="2.40225">
        <ele>589.7</ele>
        <time>2011-01-09T08:50:06Z</time>
      </trkpt>
      <trkpt lat="44.448" lon="2.40229">
        <ele>589.7</ele>
        <time>2011-01-09T08:50:07Z</time>
      </trkpt>
      <trkpt lat="44.44801" lon="2.40232">
        <ele>590.4</ele>
        <time>2011-01-09T08:50:08Z</time>
      </trkpt>
      <trkpt lat="44.44801" lon="2.40236">
        <ele>591</ele>
        <time>2011-01-09T08:50:09Z</time>
      </trkpt>
      <trkpt lat="44.44802" lon="2.4024">
        <ele>591.4</ele>
        <time>2011-01-09T08:50:10Z</time>
      </trkpt>
      <trkpt lat="44.44802" lon="2.40245">
        <ele>591.9</ele>
        <time>2011-01-09T08:50:11Z</time>
      </trkpt>
      <trkpt lat="44.44802" lon="2.40249">
        <ele>592.3</ele>
        <time>2011-01-09T08:50:12Z</time>
      </trkpt>
      <trkpt lat="44.44802" lon="2.40252">
        <ele>592.6</ele>
        <time>2011-01-09T08:50:13Z</time>
      </trkpt>
      <trkpt lat="44.44802" lon="2.40256">
        <ele>593</ele>
        <time>2011-01-09T08:50:14Z</time>
      </trkpt>
      <trkpt lat="44.44802" lon="2.4026">
        <ele>593.3</ele>
        <time>2011-01-09T08:50:15Z</time>
      </trkpt>
      <trkpt lat="44.44802" lon="2.40264">
        <ele>593.5</ele>
        <time>2011-01-09T08:50:16Z</time>
      </trkpt>
      <trkpt lat="44.44802" lon="2.40268">
        <ele>593.4</ele>
        <time>2011-01-09T08:50:17Z</time>
      </trkpt>
      <trkpt lat="44.44803" lon="2.40273">
        <ele>593.3</ele>
        <time>2011-01-09T08:50:18Z</time>
      </trkpt>
      <trkpt lat="44.44804" lon="2.40277">
        <ele>593.3</ele>
        <time>2011-01-09T08:50:19Z</time>
      </trkpt>
      <trkpt lat="44.44805" lon="2.40281">
        <ele>593.2</ele>
        <time>2011-01-09T08:50:20Z</time>
      </trkpt>
      <trkpt lat="44.44806" lon="2.40285">
        <ele>593.2</ele>
        <time>2011-01-09T08:50:21Z</time>
      </trkpt>
      <trkpt lat="44.44808" lon="2.40289">
        <ele>593.2</ele>
        <time>2011-01-09T08:50:22Z</time>
      </trkpt>
      <trkpt lat="44.44809" lon="2.40293">
        <ele>593.2</ele>
        <time>2011-01-09T08:50:23Z</time>
      </trkpt>
      <trkpt lat="44.4481" lon="2.40297">
        <ele>593.5</ele>
        <time>2011-01-09T08:50:24Z</time>
      </trkpt>
      <trkpt lat="44.44812" lon="2.40301">
        <ele>593.7</ele>
        <time>2011-01-09T08:50:25Z</time>
      </trkpt>
      <trkpt lat="44.44813" lon="2.40304">
        <ele>593.9</ele>
        <time>2011-01-09T08:50:26Z</time>
      </trkpt>
      <trkpt lat="44.44814" lon="2.40307">
        <ele>593.9</ele>
        <time>2011-01-09T08:50:27Z</time>
      </trkpt>
      <trkpt lat="44.44817" lon="2.40312">
        <ele>593.8</ele>
        <time>2011-01-09T08:50:29Z</time>
      </trkpt>
      <trkpt lat="44.44819" lon="2.40315">
        <ele>594.1</ele>
        <time>2011-01-09T08:50:31Z</time>
      </trkpt>
      <trkpt lat="44.44822" lon="2.40319">
        <ele>593.1</ele>
        <time>2011-01-09T08:50:35Z</time>
      </trkpt>
      <trkpt lat="44.44824" lon="2.40322">
        <ele>592.7</ele>
        <time>2011-01-09T08:50:38Z</time>
      </trkpt>
      <trkpt lat="44.44827" lon="2.40326">
        <ele>592.1</ele>
        <time>2011-01-09T08:50:41Z</time>
      </trkpt>
      <trkpt lat="44.4483" lon="2.40329">
        <ele>591.9</ele>
        <time>2011-01-09T08:50:43Z</time>
      </trkpt>
      <trkpt lat="44.44833" lon="2.40334">
        <ele>591.9</ele>
        <time>2011-01-09T08:50:45Z</time>
      </trkpt>
      <trkpt lat="44.44834" lon="2.40337">
        <ele>591.7</ele>
        <time>2011-01-09T08:50:46Z</time>
      </trkpt>
      <trkpt lat="44.44837" lon="2.4034">
        <ele>591.6</ele>
        <time>2011-01-09T08:50:47Z</time>
      </trkpt>
      <trkpt lat="44.44839" lon="2.40345">
        <ele>591.5</ele>
        <time>2011-01-09T08:50:48Z</time>
      </trkpt>
      <trkpt lat="44.44842" lon="2.40349">
        <ele>591.5</ele>
        <time>2011-01-09T08:50:49Z</time>
      </trkpt>
      <trkpt lat="44.44844" lon="2.40354">
        <ele>591.4</ele>
        <time>2011-01-09T08:50:50Z</time>
      </trkpt>
      <trkpt lat="44.44847" lon="2.40359">
        <ele>591.4</ele>
        <time>2011-01-09T08:50:51Z</time>
      </trkpt>
      <trkpt lat="44.4485" lon="2.40365">
        <ele>591.4</ele>
        <time>2011-01-09T08:50:52Z</time>
      </trkpt>
      <trkpt lat="44.44853" lon="2.40371">
        <ele>590.7</ele>
        <time>2011-01-09T08:50:53Z</time>
      </trkpt>
      <trkpt lat="44.44857" lon="2.40377">
        <ele>590.2</ele>
        <time>2011-01-09T08:50:54Z</time>
      </trkpt>
      <trkpt lat="44.44861" lon="2.40384">
        <ele>589.8</ele>
        <time>2011-01-09T08:50:55Z</time>
      </trkpt>
      <trkpt lat="44.44864" lon="2.40391">
        <ele>589.5</ele>
        <time>2011-01-09T08:50:56Z</time>
      </trkpt>
      <trkpt lat="44.44869" lon="2.40399">
        <ele>589.2</ele>
        <time>2011-01-09T08:50:57Z</time>
      </trkpt>
      <trkpt lat="44.44873" lon="2.40408">
        <ele>589</ele>
        <time>2011-01-09T08:50:58Z</time>
      </trkpt>
      <trkpt lat="44.44877" lon="2.40418">
        <ele>587.9</ele>
        <time>2011-01-09T08:50:59Z</time>
      </trkpt>
      <trkpt lat="44.4488" lon="2.40428">
        <ele>587</ele>
        <time>2011-01-09T08:51:00Z</time>
      </trkpt>
      <trkpt lat="44.44882" lon="2.40439">
        <ele>586.4</ele>
        <time>2011-01-09T08:51:01Z</time>
      </trkpt>
      <trkpt lat="44.44884" lon="2.4045">
        <ele>585.7</ele>
        <time>2011-01-09T08:51:02Z</time>
      </trkpt>
      <trkpt lat="44.44885" lon="2.40462">
        <ele>585.2</ele>
        <time>2011-01-09T08:51:03Z</time>
      </trkpt>
      <trkpt lat="44.44885" lon="2.40474">
        <ele>584.9</ele>
        <time>2011-01-09T08:51:04Z</time>
      </trkpt>
      <trkpt lat="44.44885" lon="2.40486">
        <ele>583.5</ele>
        <time>2011-01-09T08:51:05Z</time>
      </trkpt>
      <trkpt lat="44.44884" lon="2.40498">
        <ele>582.4</ele>
        <time>2011-01-09T08:51:06Z</time>
      </trkpt>
      <trkpt lat="44.44884" lon="2.4051">
        <ele>581.6</ele>
        <time>2011-01-09T08:51:07Z</time>
      </trkpt>
      <trkpt lat="44.44883" lon="2.40521">
        <ele>581</ele>
        <time>2011-01-09T08:51:08Z</time>
      </trkpt>
      <trkpt lat="44.44882" lon="2.40532">
        <ele>579.4</ele>
        <time>2011-01-09T08:51:09Z</time>
      </trkpt>
      <trkpt lat="44.4488" lon="2.40542">
        <ele>578.1</ele>
        <time>2011-01-09T08:51:10Z</time>
      </trkpt>
      <trkpt lat="44.4488" lon="2.40551">
        <ele>577.2</ele>
        <time>2011-01-09T08:51:11Z</time>
      </trkpt>
      <trkpt lat="44.44881" lon="2.40559">
        <ele>575.1</ele>
        <time>2011-01-09T08:51:12Z</time>
      </trkpt>
      <trkpt lat="44.44883" lon="2.40568">
        <ele>573.5</ele>
        <time>2011-01-09T08:51:13Z</time>
      </trkpt>
      <trkpt lat="44.44885" lon="2.40576">
        <ele>572.3</ele>
        <time>2011-01-09T08:51:14Z</time>
      </trkpt>
      <trkpt lat="44.44888" lon="2.40582">
        <ele>570.8</ele>
        <time>2011-01-09T08:51:15Z</time>
      </trkpt>
      <trkpt lat="44.44889" lon="2.40587">
        <ele>569.7</ele>
        <time>2011-01-09T08:51:16Z</time>
      </trkpt>
      <trkpt lat="44.4489" lon="2.40592">
        <ele>568.8</ele>
        <time>2011-01-09T08:51:17Z</time>
      </trkpt>
      <trkpt lat="44.44889" lon="2.40597">
        <ele>567.3</ele>
        <time>2011-01-09T08:51:18Z</time>
      </trkpt>
      <trkpt lat="44.44889" lon="2.40602">
        <ele>566.3</ele>
        <time>2011-01-09T08:51:19Z</time>
      </trkpt>
      <trkpt lat="44.4489" lon="2.40608">
        <ele>565.4</ele>
        <time>2011-01-09T08:51:20Z</time>
      </trkpt>
      <trkpt lat="44.4489" lon="2.40615">
        <ele>564</ele>
        <time>2011-01-09T08:51:21Z</time>
      </trkpt>
      <trkpt lat="44.44891" lon="2.40623">
        <ele>563</ele>
        <time>2011-01-09T08:51:22Z</time>
      </trkpt>
      <trkpt lat="44.44892" lon="2.4063">
        <ele>562.2</ele>
        <time>2011-01-09T08:51:23Z</time>
      </trkpt>
      <trkpt lat="44.44895" lon="2.40635">
        <ele>561.6</ele>
        <time>2011-01-09T08:51:24Z</time>
      </trkpt>
      <trkpt lat="44.44899" lon="2.40639">
        <ele>560</ele>
        <time>2011-01-09T08:51:25Z</time>
      </trkpt>
      <trkpt lat="44.44902" lon="2.40644">
        <ele>558.9</ele>
        <time>2011-01-09T08:51:26Z</time>
      </trkpt>
      <trkpt lat="44.44906" lon="2.4065">
        <ele>558</ele>
        <time>2011-01-09T08:51:27Z</time>
      </trkpt>
      <trkpt lat="44.4491" lon="2.40656">
        <ele>557.1</ele>
        <time>2011-01-09T08:51:28Z</time>
      </trkpt>
      <trkpt lat="44.44913" lon="2.40661">
        <ele>556.4</ele>
        <time>2011-01-09T08:51:29Z</time>
      </trkpt>
      <trkpt lat="44.44914" lon="2.40667">
        <ele>555.9</ele>
        <time>2011-01-09T08:51:30Z</time>
      </trkpt>
      <trkpt lat="44.44915" lon="2.40673">
        <ele>554.5</ele>
        <time>2011-01-09T08:51:31Z</time>
      </trkpt>
      <trkpt lat="44.44916" lon="2.40679">
        <ele>553.5</ele>
        <time>2011-01-09T08:51:32Z</time>
      </trkpt>
      <trkpt lat="44.44917" lon="2.40685">
        <ele>552.8</ele>
        <time>2011-01-09T08:51:33Z</time>
      </trkpt>
      <trkpt lat="44.4492" lon="2.4069">
        <ele>551.1</ele>
        <time>2011-01-09T08:51:34Z</time>
      </trkpt>
      <trkpt lat="44.44921" lon="2.40697">
        <ele>549.9</ele>
        <time>2011-01-09T08:51:35Z</time>
      </trkpt>
      <trkpt lat="44.44923" lon="2.40705">
        <ele>548.9</ele>
        <time>2011-01-09T08:51:36Z</time>
      </trkpt>
      <trkpt lat="44.44924" lon="2.40712">
        <ele>547.7</ele>
        <time>2011-01-09T08:51:37Z</time>
      </trkpt>
      <trkpt lat="44.44927" lon="2.4072">
        <ele>546.9</ele>
        <time>2011-01-09T08:51:38Z</time>
      </trkpt>
      <trkpt lat="44.4493" lon="2.40727">
        <ele>546.2</ele>
        <time>2011-01-09T08:51:39Z</time>
      </trkpt>
      <trkpt lat="44.44933" lon="2.40733">
        <ele>545.7</ele>
        <time>2011-01-09T08:51:40Z</time>
      </trkpt>
      <trkpt lat="44.44935" lon="2.40741">
        <ele>545.2</ele>
        <time>2011-01-09T08:51:41Z</time>
      </trkpt>
      <trkpt lat="44.44937" lon="2.40748">
        <ele>544.7</ele>
        <time>2011-01-09T08:51:42Z</time>
      </trkpt>
      <trkpt lat="44.44939" lon="2.40755">
        <ele>544.4</ele>
        <time>2011-01-09T08:51:43Z</time>
      </trkpt>
      <trkpt lat="44.44941" lon="2.40762">
        <ele>543.6</ele>
        <time>2011-01-09T08:51:44Z</time>
      </trkpt>
      <trkpt lat="44.44945" lon="2.40767">
        <ele>543</ele>
        <time>2011-01-09T08:51:45Z</time>
      </trkpt>
      <trkpt lat="44.44949" lon="2.40769">
        <ele>542.6</ele>
        <time>2011-01-09T08:51:46Z</time>
      </trkpt>
      <trkpt lat="44.44952" lon="2.4077">
        <ele>541.3</ele>
        <time>2011-01-09T08:51:47Z</time>
      </trkpt>
      <trkpt lat="44.44954" lon="2.40771">
        <ele>540.4</ele>
        <time>2011-01-09T08:51:48Z</time>
      </trkpt>
      <trkpt lat="44.44957" lon="2.40772">
        <ele>539.6</ele>
        <time>2011-01-09T08:51:49Z</time>
      </trkpt>
      <trkpt lat="44.4496" lon="2.40774">
        <ele>539.6</ele>
        <time>2011-01-09T08:51:50Z</time>
      </trkpt>
      <trkpt lat="44.44963" lon="2.40778">
        <ele>539.6</ele>
        <time>2011-01-09T08:51:51Z</time>
      </trkpt>
      <trkpt lat="44.44966" lon="2.40781">
        <ele>539.5</ele>
        <time>2011-01-09T08:51:52Z</time>
      </trkpt>
      <trkpt lat="44.44969" lon="2.40784">
        <ele>535.4</ele>
        <time>2011-01-09T08:52:01Z</time>
      </trkpt>
      <trkpt lat="44.44973" lon="2.40786">
        <ele>535.2</ele>
        <time>2011-01-09T08:52:03Z</time>
      </trkpt>
      <trkpt lat="44.44975" lon="2.40786">
        <ele>535.3</ele>
        <time>2011-01-09T08:52:04Z</time>
      </trkpt>
      <trkpt lat="44.44978" lon="2.40787">
        <ele>535.3</ele>
        <time>2011-01-09T08:52:05Z</time>
      </trkpt>
      <trkpt lat="44.4498" lon="2.40785">
        <ele>534.9</ele>
        <time>2011-01-09T08:52:06Z</time>
      </trkpt>
      <trkpt lat="44.44983" lon="2.40783">
        <ele>534.5</ele>
        <time>2011-01-09T08:52:07Z</time>
      </trkpt>
      <trkpt lat="44.44985" lon="2.40781">
        <ele>534.3</ele>
        <time>2011-01-09T08:52:08Z</time>
      </trkpt>
      <trkpt lat="44.44988" lon="2.40781">
        <ele>533.8</ele>
        <time>2011-01-09T08:52:09Z</time>
      </trkpt>
      <trkpt lat="44.4499" lon="2.40781">
        <ele>533.5</ele>
        <time>2011-01-09T08:52:10Z</time>
      </trkpt>
      <trkpt lat="44.44993" lon="2.40782">
        <ele>533.2</ele>
        <time>2011-01-09T08:52:11Z</time>
      </trkpt>
      <trkpt lat="44.44997" lon="2.40782">
        <ele>532.2</ele>
        <time>2011-01-09T08:52:12Z</time>
      </trkpt>
      <trkpt lat="44.45" lon="2.40783">
        <ele>531.5</ele>
        <time>2011-01-09T08:52:13Z</time>
      </trkpt>
      <trkpt lat="44.45004" lon="2.40783">
        <ele>530.9</ele>
        <time>2011-01-09T08:52:14Z</time>
      </trkpt>
      <trkpt lat="44.45008" lon="2.40784">
        <ele>528.5</ele>
        <time>2011-01-09T08:52:21Z</time>
      </trkpt>
      <trkpt lat="44.4501" lon="2.40781">
        <ele>527.7</ele>
        <time>2011-01-09T08:53:04Z</time>
      </trkpt>
      <trkpt lat="44.45012" lon="2.40779">
        <ele>528</ele>
        <time>2011-01-09T08:53:05Z</time>
      </trkpt>
      <trkpt lat="44.45013" lon="2.40776">
        <ele>528.1</ele>
        <time>2011-01-09T08:53:06Z</time>
      </trkpt>
      <trkpt lat="44.45015" lon="2.40772">
        <ele>527.7</ele>
        <time>2011-01-09T08:53:07Z</time>
      </trkpt>
      <trkpt lat="44.45016" lon="2.40769">
        <ele>527.5</ele>
        <time>2011-01-09T08:53:08Z</time>
      </trkpt>
      <trkpt lat="44.45019" lon="2.40767">
        <ele>527.2</ele>
        <time>2011-01-09T08:53:09Z</time>
      </trkpt>
      <trkpt lat="44.45022" lon="2.40766">
        <ele>526.6</ele>
        <time>2011-01-09T08:53:10Z</time>
      </trkpt>
      <trkpt lat="44.45026" lon="2.40766">
        <ele>526.1</ele>
        <time>2011-01-09T08:53:11Z</time>
      </trkpt>
      <trkpt lat="44.45028" lon="2.40766">
        <ele>525.7</ele>
        <time>2011-01-09T08:53:12Z</time>
      </trkpt>
      <trkpt lat="44.4503" lon="2.40766">
        <ele>525.2</ele>
        <time>2011-01-09T08:53:13Z</time>
      </trkpt>
      <trkpt lat="44.45033" lon="2.40764">
        <ele>524.8</ele>
        <time>2011-01-09T08:53:14Z</time>
      </trkpt>
      <trkpt lat="44.45036" lon="2.40763">
        <ele>524.4</ele>
        <time>2011-01-09T08:53:15Z</time>
      </trkpt>
      <trkpt lat="44.45039" lon="2.40763">
        <ele>523.8</ele>
        <time>2011-01-09T08:53:16Z</time>
      </trkpt>
      <trkpt lat="44.45042" lon="2.40763">
        <ele>523.3</ele>
        <time>2011-01-09T08:53:17Z</time>
      </trkpt>
      <trkpt lat="44.45045" lon="2.40762">
        <ele>522.9</ele>
        <time>2011-01-09T08:53:18Z</time>
      </trkpt>
      <trkpt lat="44.45047" lon="2.40761">
        <ele>522.7</ele>
        <time>2011-01-09T08:53:19Z</time>
      </trkpt>
      <trkpt lat="44.4505" lon="2.40761">
        <ele>522.6</ele>
        <time>2011-01-09T08:53:20Z</time>
      </trkpt>
      <trkpt lat="44.45053" lon="2.40761">
        <ele>522.4</ele>
        <time>2011-01-09T08:53:21Z</time>
      </trkpt>
      <trkpt lat="44.45055" lon="2.4076">
        <ele>522.4</ele>
        <time>2011-01-09T08:53:22Z</time>
      </trkpt>
      <trkpt lat="44.45059" lon="2.40761">
        <ele>521.9</ele>
        <time>2011-01-09T08:53:23Z</time>
      </trkpt>
      <trkpt lat="44.45062" lon="2.40761">
        <ele>521.6</ele>
        <time>2011-01-09T08:53:24Z</time>
      </trkpt>
      <trkpt lat="44.45065" lon="2.40762">
        <ele>521.3</ele>
        <time>2011-01-09T08:53:25Z</time>
      </trkpt>
      <trkpt lat="44.45068" lon="2.40763">
        <ele>520.5</ele>
        <time>2011-01-09T08:53:26Z</time>
      </trkpt>
      <trkpt lat="44.45072" lon="2.40763">
        <ele>519.3</ele>
        <time>2011-01-09T08:53:28Z</time>
      </trkpt>
      <trkpt lat="44.45074" lon="2.40769">
        <ele>515.3</ele>
        <time>2011-01-09T08:53:49Z</time>
      </trkpt>
      <trkpt lat="44.45077" lon="2.40773">
        <ele>516.1</ele>
        <time>2011-01-09T08:54:04Z</time>
      </trkpt>
      <trkpt lat="44.45079" lon="2.40778">
        <ele>515.8</ele>
        <time>2011-01-09T08:54:07Z</time>
      </trkpt>
      <trkpt lat="44.45081" lon="2.40782">
        <ele>515.5</ele>
        <time>2011-01-09T08:54:08Z</time>
      </trkpt>
      <trkpt lat="44.45082" lon="2.40788">
        <ele>515.2</ele>
        <time>2011-01-09T08:54:09Z</time>
      </trkpt>
      <trkpt lat="44.45083" lon="2.40794">
        <ele>515</ele>
        <time>2011-01-09T08:54:10Z</time>
      </trkpt>
      <trkpt lat="44.45082" lon="2.408">
        <ele>510.5</ele>
        <time>2011-01-09T08:54:26Z</time>
      </trkpt>
      <trkpt lat="44.45081" lon="2.40804">
        <ele>512.2</ele>
        <time>2011-01-09T08:54:36Z</time>
      </trkpt>
      <trkpt lat="44.4508" lon="2.40811">
        <ele>511.9</ele>
        <time>2011-01-09T08:54:43Z</time>
      </trkpt>
      <trkpt lat="44.4508" lon="2.40816">
        <ele>511.4</ele>
        <time>2011-01-09T08:54:51Z</time>
      </trkpt>
      <trkpt lat="44.45079" lon="2.4082">
        <ele>511.3</ele>
        <time>2011-01-09T08:54:53Z</time>
      </trkpt>
      <trkpt lat="44.45078" lon="2.40826">
        <ele>510.7</ele>
        <time>2011-01-09T08:54:55Z</time>
      </trkpt>
      <trkpt lat="44.45078" lon="2.4083">
        <ele>510</ele>
        <time>2011-01-09T08:54:57Z</time>
      </trkpt>
      <trkpt lat="44.45078" lon="2.40836">
        <ele>509.2</ele>
        <time>2011-01-09T08:55:00Z</time>
      </trkpt>
      <trkpt lat="44.4508" lon="2.40841">
        <ele>508.7</ele>
        <time>2011-01-09T08:55:02Z</time>
      </trkpt>
      <trkpt lat="44.45081" lon="2.40843">
        <ele>508.4</ele>
        <time>2011-01-09T08:55:03Z</time>
      </trkpt>
      <trkpt lat="44.45083" lon="2.40846">
        <ele>508.3</ele>
        <time>2011-01-09T08:55:04Z</time>
      </trkpt>
      <trkpt lat="44.45084" lon="2.40848">
        <ele>507.7</ele>
        <time>2011-01-09T08:55:05Z</time>
      </trkpt>
      <trkpt lat="44.45086" lon="2.40851">
        <ele>507.3</ele>
        <time>2011-01-09T08:55:06Z</time>
      </trkpt>
      <trkpt lat="44.45088" lon="2.40854">
        <ele>507</ele>
        <time>2011-01-09T08:55:07Z</time>
      </trkpt>
      <trkpt lat="44.45089" lon="2.40857">
        <ele>506.2</ele>
        <time>2011-01-09T08:55:08Z</time>
      </trkpt>
      <trkpt lat="44.4509" lon="2.40861">
        <ele>505.5</ele>
        <time>2011-01-09T08:55:09Z</time>
      </trkpt>
      <trkpt lat="44.45091" lon="2.40864">
        <ele>505</ele>
        <time>2011-01-09T08:55:10Z</time>
      </trkpt>
      <trkpt lat="44.45092" lon="2.4087">
        <ele>503.8</ele>
        <time>2011-01-09T08:55:12Z</time>
      </trkpt>
      <trkpt lat="44.45092" lon="2.40874">
        <ele>503.4</ele>
        <time>2011-01-09T08:55:13Z</time>
      </trkpt>
      <trkpt lat="44.45092" lon="2.40879">
        <ele>502.5</ele>
        <time>2011-01-09T08:55:15Z</time>
      </trkpt>
      <trkpt lat="44.45093" lon="2.40883">
        <ele>502</ele>
        <time>2011-01-09T08:55:17Z</time>
      </trkpt>
      <trkpt lat="44.45094" lon="2.40889">
        <ele>500.9</ele>
        <time>2011-01-09T08:55:19Z</time>
      </trkpt>
      <trkpt lat="44.45094" lon="2.40893">
        <ele>500.5</ele>
        <time>2011-01-09T08:55:20Z</time>
      </trkpt>
      <trkpt lat="44.45094" lon="2.40898">
        <ele>499.9</ele>
        <time>2011-01-09T08:55:22Z</time>
      </trkpt>
      <trkpt lat="44.45095" lon="2.40903">
        <ele>499.3</ele>
        <time>2011-01-09T08:55:24Z</time>
      </trkpt>
      <trkpt lat="44.45095" lon="2.40909">
        <ele>498</ele>
        <time>2011-01-09T08:55:27Z</time>
      </trkpt>
      <trkpt lat="44.45095" lon="2.40912">
        <ele>497.5</ele>
        <time>2011-01-09T08:55:28Z</time>
      </trkpt>
      <trkpt lat="44.45095" lon="2.40917">
        <ele>497.2</ele>
        <time>2011-01-09T08:55:29Z</time>
      </trkpt>
      <trkpt lat="44.45095" lon="2.40923">
        <ele>496</ele>
        <time>2011-01-09T08:55:30Z</time>
      </trkpt>
      <trkpt lat="44.45095" lon="2.40929">
        <ele>495.1</ele>
        <time>2011-01-09T08:55:31Z</time>
      </trkpt>
      <trkpt lat="44.45095" lon="2.40935">
        <ele>494.4</ele>
        <time>2011-01-09T08:55:32Z</time>
      </trkpt>
      <trkpt lat="44.45094" lon="2.4094">
        <ele>493.9</ele>
        <time>2011-01-09T08:55:33Z</time>
      </trkpt>
      <trkpt lat="44.45094" lon="2.40945">
        <ele>492.6</ele>
        <time>2011-01-09T08:55:34Z</time>
      </trkpt>
      <trkpt lat="44.45093" lon="2.4095">
        <ele>491.6</ele>
        <time>2011-01-09T08:55:35Z</time>
      </trkpt>
      <trkpt lat="44.45093" lon="2.40954">
        <ele>490.8</ele>
        <time>2011-01-09T08:55:36Z</time>
      </trkpt>
      <trkpt lat="44.45092" lon="2.40959">
        <ele>489.3</ele>
        <time>2011-01-09T08:55:37Z</time>
      </trkpt>
      <trkpt lat="44.45092" lon="2.40964">
        <ele>488.1</ele>
        <time>2011-01-09T08:55:38Z</time>
      </trkpt>
      <trkpt lat="44.45092" lon="2.4097">
        <ele>487.2</ele>
        <time>2011-01-09T08:55:39Z</time>
      </trkpt>
      <trkpt lat="44.45092" lon="2.40976">
        <ele>485.6</ele>
        <time>2011-01-09T08:55:40Z</time>
      </trkpt>
      <trkpt lat="44.45091" lon="2.40982">
        <ele>484.3</ele>
        <time>2011-01-09T08:55:41Z</time>
      </trkpt>
      <trkpt lat="44.4509" lon="2.40987">
        <ele>483.4</ele>
        <time>2011-01-09T08:55:42Z</time>
      </trkpt>
      <trkpt lat="44.45087" lon="2.4099">
        <ele>482.1</ele>
        <time>2011-01-09T08:55:43Z</time>
      </trkpt>
      <trkpt lat="44.45083" lon="2.40995">
        <ele>481.1</ele>
        <time>2011-01-09T08:55:44Z</time>
      </trkpt>
      <trkpt lat="44.45079" lon="2.40997">
        <ele>480.4</ele>
        <time>2011-01-09T08:55:45Z</time>
      </trkpt>
      <trkpt lat="44.45077" lon="2.41002">
        <ele>478.1</ele>
        <time>2011-01-09T08:55:53Z</time>
      </trkpt>
      <trkpt lat="44.45073" lon="2.40999">
        <ele>477.2</ele>
        <time>2011-01-09T08:56:56Z</time>
      </trkpt>
      <trkpt lat="44.45073" lon="2.40999">
        <ele>477.4</ele>
        <time>2011-01-09T08:56:57Z</time>
      </trkpt>
      <trkpt lat="44.4507" lon="2.41004">
        <ele>477.3</ele>
        <time>2011-01-09T08:58:03Z</time>
      </trkpt>
      <trkpt lat="44.45066" lon="2.41008">
        <ele>476.4</ele>
        <time>2011-01-09T08:59:07Z</time>
      </trkpt>
      <trkpt lat="44.45062" lon="2.41008">
        <ele>476.7</ele>
        <time>2011-01-09T08:59:08Z</time>
      </trkpt>
      <trkpt lat="44.45058" lon="2.41009">
        <ele>476.9</ele>
        <time>2011-01-09T08:59:09Z</time>
      </trkpt>
      <trkpt lat="44.45055" lon="2.41009">
        <ele>477.1</ele>
        <time>2011-01-09T08:59:10Z</time>
      </trkpt>
      <trkpt lat="44.45051" lon="2.4101">
        <ele>476.1</ele>
        <time>2011-01-09T08:59:12Z</time>
      </trkpt>
      <trkpt lat="44.45049" lon="2.4101">
        <ele>475.7</ele>
        <time>2011-01-09T08:59:13Z</time>
      </trkpt>
      <trkpt lat="44.45045" lon="2.4101">
        <ele>475.4</ele>
        <time>2011-01-09T08:59:14Z</time>
      </trkpt>
      <trkpt lat="44.45042" lon="2.4101">
        <ele>475.2</ele>
        <time>2011-01-09T08:59:15Z</time>
      </trkpt>
      <trkpt lat="44.45039" lon="2.4101">
        <ele>475</ele>
        <time>2011-01-09T08:59:16Z</time>
      </trkpt>
      <trkpt lat="44.45035" lon="2.41008">
        <ele>473.3</ele>
        <time>2011-01-09T08:59:18Z</time>
      </trkpt>
      <trkpt lat="44.45031" lon="2.41005">
        <ele>472.6</ele>
        <time>2011-01-09T08:59:20Z</time>
      </trkpt>
      <trkpt lat="44.45029" lon="2.41004">
        <ele>472.5</ele>
        <time>2011-01-09T08:59:21Z</time>
      </trkpt>
      <trkpt lat="44.45026" lon="2.41003">
        <ele>472.4</ele>
        <time>2011-01-09T08:59:22Z</time>
      </trkpt>
      <trkpt lat="44.45023" lon="2.41002">
        <ele>472.8</ele>
        <time>2011-01-09T08:59:24Z</time>
      </trkpt>
      <trkpt lat="44.45019" lon="2.41002">
        <ele>473.1</ele>
        <time>2011-01-09T08:59:26Z</time>
      </trkpt>
      <trkpt lat="44.45014" lon="2.41002">
        <ele>474</ele>
        <time>2011-01-09T08:59:28Z</time>
      </trkpt>
      <trkpt lat="44.4501" lon="2.41002">
        <ele>473.8</ele>
        <time>2011-01-09T08:59:30Z</time>
      </trkpt>
      <trkpt lat="44.45007" lon="2.41003">
        <ele>473.3</ele>
        <time>2011-01-09T08:59:32Z</time>
      </trkpt>
      <trkpt lat="44.45003" lon="2.41005">
        <ele>472.5</ele>
        <time>2011-01-09T08:59:39Z</time>
      </trkpt>
      <trkpt lat="44.44999" lon="2.41005">
        <ele>472.8</ele>
        <time>2011-01-09T08:59:42Z</time>
      </trkpt>
      <trkpt lat="44.44995" lon="2.41007">
        <ele>472.9</ele>
        <time>2011-01-09T08:59:45Z</time>
      </trkpt>
      <trkpt lat="44.44992" lon="2.41009">
        <ele>473.9</ele>
        <time>2011-01-09T08:59:48Z</time>
      </trkpt>
      <trkpt lat="44.44988" lon="2.4101">
        <ele>474.4</ele>
        <time>2011-01-09T08:59:51Z</time>
      </trkpt>
      <trkpt lat="44.44984" lon="2.4101">
        <ele>474.8</ele>
        <time>2011-01-09T08:59:54Z</time>
      </trkpt>
      <trkpt lat="44.4498" lon="2.41009">
        <ele>473.9</ele>
        <time>2011-01-09T09:00:05Z</time>
      </trkpt>
      <trkpt lat="44.44976" lon="2.41012">
        <ele>474.8</ele>
        <time>2011-01-09T09:00:14Z</time>
      </trkpt>
      <trkpt lat="44.44975" lon="2.41012">
        <ele>475.2</ele>
        <time>2011-01-09T09:00:15Z</time>
      </trkpt>
      <trkpt lat="44.4497" lon="2.4101">
        <ele>475</ele>
        <time>2011-01-09T09:00:19Z</time>
      </trkpt>
      <trkpt lat="44.44967" lon="2.41009">
        <ele>474.8</ele>
        <time>2011-01-09T09:00:20Z</time>
      </trkpt>
      <trkpt lat="44.44964" lon="2.41007">
        <ele>474.7</ele>
        <time>2011-01-09T09:00:21Z</time>
      </trkpt>
      <trkpt lat="44.44961" lon="2.41005">
        <ele>474.7</ele>
        <time>2011-01-09T09:00:22Z</time>
      </trkpt>
      <trkpt lat="44.44958" lon="2.41003">
        <ele>474.6</ele>
        <time>2011-01-09T09:00:23Z</time>
      </trkpt>
      <trkpt lat="44.44954" lon="2.41001">
        <ele>473.9</ele>
        <time>2011-01-09T09:00:24Z</time>
      </trkpt>
      <trkpt lat="44.44951" lon="2.40999">
        <ele>473.5</ele>
        <time>2011-01-09T09:00:25Z</time>
      </trkpt>
      <trkpt lat="44.44948" lon="2.40998">
        <ele>473.1</ele>
        <time>2011-01-09T09:00:26Z</time>
      </trkpt>
      <trkpt lat="44.44944" lon="2.40997">
        <ele>472.8</ele>
        <time>2011-01-09T09:00:27Z</time>
      </trkpt>
      <trkpt lat="44.44942" lon="2.40996">
        <ele>472.6</ele>
        <time>2011-01-09T09:00:28Z</time>
      </trkpt>
      <trkpt lat="44.44939" lon="2.40996">
        <ele>472.4</ele>
        <time>2011-01-09T09:00:29Z</time>
      </trkpt>
      <trkpt lat="44.44937" lon="2.40995">
        <ele>472.4</ele>
        <time>2011-01-09T09:00:30Z</time>
      </trkpt>
      <trkpt lat="44.44934" lon="2.40994">
        <ele>472.4</ele>
        <time>2011-01-09T09:00:31Z</time>
      </trkpt>
      <trkpt lat="44.44931" lon="2.40992">
        <ele>472.4</ele>
        <time>2011-01-09T09:00:32Z</time>
      </trkpt>
      <trkpt lat="44.44929" lon="2.40991">
        <ele>472.3</ele>
        <time>2011-01-09T09:00:33Z</time>
      </trkpt>
      <trkpt lat="44.44926" lon="2.40989">
        <ele>472.2</ele>
        <time>2011-01-09T09:00:34Z</time>
      </trkpt>
      <trkpt lat="44.44923" lon="2.40987">
        <ele>472.1</ele>
        <time>2011-01-09T09:00:35Z</time>
      </trkpt>
      <trkpt lat="44.44921" lon="2.40986">
        <ele>472</ele>
        <time>2011-01-09T09:00:36Z</time>
      </trkpt>
      <trkpt lat="44.44918" lon="2.40984">
        <ele>472.5</ele>
        <time>2011-01-09T09:00:37Z</time>
      </trkpt>
      <trkpt lat="44.44915" lon="2.40982">
        <ele>472.8</ele>
        <time>2011-01-09T09:00:38Z</time>
      </trkpt>
      <trkpt lat="44.44913" lon="2.4098">
        <ele>473.1</ele>
        <time>2011-01-09T09:00:39Z</time>
      </trkpt>
      <trkpt lat="44.4491" lon="2.40979">
        <ele>473.1</ele>
        <time>2011-01-09T09:00:40Z</time>
      </trkpt>
      <trkpt lat="44.44907" lon="2.40977">
        <ele>473.1</ele>
        <time>2011-01-09T09:00:41Z</time>
      </trkpt>
      <trkpt lat="44.44905" lon="2.40977">
        <ele>473.2</ele>
        <time>2011-01-09T09:00:42Z</time>
      </trkpt>
      <trkpt lat="44.44902" lon="2.40976">
        <ele>473.4</ele>
        <time>2011-01-09T09:00:43Z</time>
      </trkpt>
      <trkpt lat="44.44899" lon="2.40975">
        <ele>473.6</ele>
        <time>2011-01-09T09:00:44Z</time>
      </trkpt>
      <trkpt lat="44.44896" lon="2.40974">
        <ele>473.7</ele>
        <time>2011-01-09T09:00:45Z</time>
      </trkpt>
      <trkpt lat="44.44894" lon="2.40972">
        <ele>474.4</ele>
        <time>2011-01-09T09:00:46Z</time>
      </trkpt>
      <trkpt lat="44.44891" lon="2.40971">
        <ele>474.8</ele>
        <time>2011-01-09T09:00:47Z</time>
      </trkpt>
      <trkpt lat="44.44887" lon="2.40969">
        <ele>475.4</ele>
        <time>2011-01-09T09:00:49Z</time>
      </trkpt>
      <trkpt lat="44.44884" lon="2.40968">
        <ele>475.2</ele>
        <time>2011-01-09T09:00:51Z</time>
      </trkpt>
      <trkpt lat="44.4488" lon="2.40966">
        <ele>475.4</ele>
        <time>2011-01-09T09:00:54Z</time>
      </trkpt>
      <trkpt lat="44.44877" lon="2.40964">
        <ele>475.5</ele>
        <time>2011-01-09T09:00:57Z</time>
      </trkpt>
      <trkpt lat="44.44873" lon="2.40961">
        <ele>474.7</ele>
        <time>2011-01-09T09:01:00Z</time>
      </trkpt>
      <trkpt lat="44.44869" lon="2.40959">
        <ele>474.2</ele>
        <time>2011-01-09T09:01:02Z</time>
      </trkpt>
      <trkpt lat="44.44867" lon="2.40958">
        <ele>474</ele>
        <time>2011-01-09T09:01:03Z</time>
      </trkpt>
      <trkpt lat="44.44865" lon="2.40956">
        <ele>473.9</ele>
        <time>2011-01-09T09:01:04Z</time>
      </trkpt>
      <trkpt lat="44.44862" lon="2.40954">
        <ele>473.8</ele>
        <time>2011-01-09T09:01:05Z</time>
      </trkpt>
      <trkpt lat="44.4486" lon="2.40951">
        <ele>473.8</ele>
        <time>2011-01-09T09:01:06Z</time>
      </trkpt>
      <trkpt lat="44.44858" lon="2.4095">
        <ele>473.8</ele>
        <time>2011-01-09T09:01:07Z</time>
      </trkpt>
      <trkpt lat="44.44854" lon="2.40947">
        <ele>473.3</ele>
        <time>2011-01-09T09:01:09Z</time>
      </trkpt>
      <trkpt lat="44.44851" lon="2.40944">
        <ele>472.5</ele>
        <time>2011-01-09T09:01:11Z</time>
      </trkpt>
      <trkpt lat="44.44849" lon="2.40942">
        <ele>472.1</ele>
        <time>2011-01-09T09:01:12Z</time>
      </trkpt>
      <trkpt lat="44.44846" lon="2.40939">
        <ele>471.8</ele>
        <time>2011-01-09T09:01:13Z</time>
      </trkpt>
      <trkpt lat="44.44844" lon="2.40937">
        <ele>471.5</ele>
        <time>2011-01-09T09:01:14Z</time>
      </trkpt>
      <trkpt lat="44.4484" lon="2.40935">
        <ele>471.7</ele>
        <time>2011-01-09T09:01:15Z</time>
      </trkpt>
      <trkpt lat="44.44836" lon="2.40935">
        <ele>471.7</ele>
        <time>2011-01-09T09:01:16Z</time>
      </trkpt>
      <trkpt lat="44.44831" lon="2.40935">
        <ele>471.8</ele>
        <time>2011-01-09T09:01:17Z</time>
      </trkpt>
      <trkpt lat="44.44827" lon="2.40936">
        <ele>471.3</ele>
        <time>2011-01-09T09:01:18Z</time>
      </trkpt>
      <trkpt lat="44.44822" lon="2.40937">
        <ele>470.9</ele>
        <time>2011-01-09T09:01:19Z</time>
      </trkpt>
      <trkpt lat="44.44817" lon="2.40938">
        <ele>470.6</ele>
        <time>2011-01-09T09:01:20Z</time>
      </trkpt>
      <trkpt lat="44.44813" lon="2.4094">
        <ele>470.3</ele>
        <time>2011-01-09T09:01:21Z</time>
      </trkpt>
      <trkpt lat="44.44808" lon="2.40941">
        <ele>470</ele>
        <time>2011-01-09T09:01:22Z</time>
      </trkpt>
      <trkpt lat="44.44804" lon="2.40942">
        <ele>469.8</ele>
        <time>2011-01-09T09:01:23Z</time>
      </trkpt>
      <trkpt lat="44.448" lon="2.40944">
        <ele>469.6</ele>
        <time>2011-01-09T09:01:24Z</time>
      </trkpt>
      <trkpt lat="44.44795" lon="2.40945">
        <ele>469.3</ele>
        <time>2011-01-09T09:01:25Z</time>
      </trkpt>
      <trkpt lat="44.4479" lon="2.40946">
        <ele>469.2</ele>
        <time>2011-01-09T09:01:26Z</time>
      </trkpt>
      <trkpt lat="44.44786" lon="2.40947">
        <ele>469.1</ele>
        <time>2011-01-09T09:01:27Z</time>
      </trkpt>
      <trkpt lat="44.44782" lon="2.40948">
        <ele>468.9</ele>
        <time>2011-01-09T09:01:28Z</time>
      </trkpt>
      <trkpt lat="44.44778" lon="2.4095">
        <ele>468.7</ele>
        <time>2011-01-09T09:01:29Z</time>
      </trkpt>
      <trkpt lat="44.44775" lon="2.40951">
        <ele>468.6</ele>
        <time>2011-01-09T09:01:30Z</time>
      </trkpt>
      <trkpt lat="44.44772" lon="2.40952">
        <ele>468.6</ele>
        <time>2011-01-09T09:01:31Z</time>
      </trkpt>
      <trkpt lat="44.44769" lon="2.40954">
        <ele>468.6</ele>
        <time>2011-01-09T09:01:32Z</time>
      </trkpt>
      <trkpt lat="44.44766" lon="2.40957">
        <ele>468.5</ele>
        <time>2011-01-09T09:01:33Z</time>
      </trkpt>
      <trkpt lat="44.44763" lon="2.40959">
        <ele>468</ele>
        <time>2011-01-09T09:01:34Z</time>
      </trkpt>
      <trkpt lat="44.44761" lon="2.40962">
        <ele>467.7</ele>
        <time>2011-01-09T09:01:35Z</time>
      </trkpt>
      <trkpt lat="44.44758" lon="2.40964">
        <ele>467.4</ele>
        <time>2011-01-09T09:01:36Z</time>
      </trkpt>
      <trkpt lat="44.44755" lon="2.40967">
        <ele>467.7</ele>
        <time>2011-01-09T09:01:37Z</time>
      </trkpt>
      <trkpt lat="44.44753" lon="2.4097">
        <ele>467.9</ele>
        <time>2011-01-09T09:01:38Z</time>
      </trkpt>
      <trkpt lat="44.44751" lon="2.40973">
        <ele>468.1</ele>
        <time>2011-01-09T09:01:39Z</time>
      </trkpt>
      <trkpt lat="44.44748" lon="2.40976">
        <ele>468.2</ele>
        <time>2011-01-09T09:01:40Z</time>
      </trkpt>
      <trkpt lat="44.44746" lon="2.40979">
        <ele>468.1</ele>
        <time>2011-01-09T09:01:41Z</time>
      </trkpt>
      <trkpt lat="44.44744" lon="2.40981">
        <ele>468</ele>
        <time>2011-01-09T09:01:42Z</time>
      </trkpt>
      <trkpt lat="44.44742" lon="2.40984">
        <ele>467.9</ele>
        <time>2011-01-09T09:01:43Z</time>
      </trkpt>
      <trkpt lat="44.44739" lon="2.40986">
        <ele>467.7</ele>
        <time>2011-01-09T09:01:44Z</time>
      </trkpt>
      <trkpt lat="44.44737" lon="2.40988">
        <ele>467.6</ele>
        <time>2011-01-09T09:01:45Z</time>
      </trkpt>
      <trkpt lat="44.44734" lon="2.4099">
        <ele>467.5</ele>
        <time>2011-01-09T09:01:46Z</time>
      </trkpt>
      <trkpt lat="44.44731" lon="2.40991">
        <ele>468</ele>
        <time>2011-01-09T09:01:47Z</time>
      </trkpt>
      <trkpt lat="44.44728" lon="2.40992">
        <ele>468.3</ele>
        <time>2011-01-09T09:01:48Z</time>
      </trkpt>
      <trkpt lat="44.44725" lon="2.40992">
        <ele>468.6</ele>
        <time>2011-01-09T09:01:49Z</time>
      </trkpt>
      <trkpt lat="44.44722" lon="2.40992">
        <ele>468.8</ele>
        <time>2011-01-09T09:01:50Z</time>
      </trkpt>
      <trkpt lat="44.44719" lon="2.40992">
        <ele>468.9</ele>
        <time>2011-01-09T09:01:51Z</time>
      </trkpt>
      <trkpt lat="44.44716" lon="2.40991">
        <ele>469.1</ele>
        <time>2011-01-09T09:01:52Z</time>
      </trkpt>
      <trkpt lat="44.44713" lon="2.4099">
        <ele>468.9</ele>
        <time>2011-01-09T09:01:53Z</time>
      </trkpt>
      <trkpt lat="44.4471" lon="2.40989">
        <ele>468.7</ele>
        <time>2011-01-09T09:01:54Z</time>
      </trkpt>
      <trkpt lat="44.44706" lon="2.40988">
        <ele>468.6</ele>
        <time>2011-01-09T09:01:55Z</time>
      </trkpt>
      <trkpt lat="44.44703" lon="2.40988">
        <ele>468.5</ele>
        <time>2011-01-09T09:01:56Z</time>
      </trkpt>
      <trkpt lat="44.447" lon="2.40987">
        <ele>468.7</ele>
        <time>2011-01-09T09:01:57Z</time>
      </trkpt>
      <trkpt lat="44.44697" lon="2.40987">
        <ele>468.9</ele>
        <time>2011-01-09T09:01:58Z</time>
      </trkpt>
      <trkpt lat="44.44694" lon="2.40987">
        <ele>469.1</ele>
        <time>2011-01-09T09:01:59Z</time>
      </trkpt>
      <trkpt lat="44.44692" lon="2.40987">
        <ele>469.1</ele>
        <time>2011-01-09T09:02:00Z</time>
      </trkpt>
      <trkpt lat="44.44689" lon="2.40987">
        <ele>469.1</ele>
        <time>2011-01-09T09:02:01Z</time>
      </trkpt>
      <trkpt lat="44.44686" lon="2.40988">
        <ele>469.1</ele>
        <time>2011-01-09T09:02:02Z</time>
      </trkpt>
      <trkpt lat="44.44683" lon="2.40989">
        <ele>469.3</ele>
        <time>2011-01-09T09:02:03Z</time>
      </trkpt>
      <trkpt lat="44.4468" lon="2.4099">
        <ele>469.4</ele>
        <time>2011-01-09T09:02:04Z</time>
      </trkpt>
      <trkpt lat="44.44677" lon="2.40991">
        <ele>469.5</ele>
        <time>2011-01-09T09:02:05Z</time>
      </trkpt>
      <trkpt lat="44.44674" lon="2.40993">
        <ele>469.6</ele>
        <time>2011-01-09T09:02:06Z</time>
      </trkpt>
      <trkpt lat="44.44671" lon="2.40995">
        <ele>469.6</ele>
        <time>2011-01-09T09:02:07Z</time>
      </trkpt>
      <trkpt lat="44.44668" lon="2.40997">
        <ele>469.6</ele>
        <time>2011-01-09T09:02:08Z</time>
      </trkpt>
      <trkpt lat="44.44666" lon="2.41">
        <ele>470</ele>
        <time>2011-01-09T09:02:09Z</time>
      </trkpt>
      <trkpt lat="44.44665" lon="2.41004">
        <ele>470.3</ele>
        <time>2011-01-09T09:02:10Z</time>
      </trkpt>
      <trkpt lat="44.44663" lon="2.41008">
        <ele>470.5</ele>
        <time>2011-01-09T09:02:11Z</time>
      </trkpt>
      <trkpt lat="44.4466" lon="2.41012">
        <ele>470.7</ele>
        <time>2011-01-09T09:02:12Z</time>
      </trkpt>
      <trkpt lat="44.44658" lon="2.41016">
        <ele>470.7</ele>
        <time>2011-01-09T09:02:13Z</time>
      </trkpt>
      <trkpt lat="44.44656" lon="2.4102">
        <ele>470.6</ele>
        <time>2011-01-09T09:02:14Z</time>
      </trkpt>
      <trkpt lat="44.44654" lon="2.41024">
        <ele>470.6</ele>
        <time>2011-01-09T09:02:15Z</time>
      </trkpt>
      <trkpt lat="44.44652" lon="2.41026">
        <ele>470.5</ele>
        <time>2011-01-09T09:02:16Z</time>
      </trkpt>
      <trkpt lat="44.44651" lon="2.41029">
        <ele>470.4</ele>
        <time>2011-01-09T09:02:17Z</time>
      </trkpt>
      <trkpt lat="44.44646" lon="2.41034">
        <ele>469.7</ele>
        <time>2011-01-09T09:02:20Z</time>
      </trkpt>
      <trkpt lat="44.44644" lon="2.41036">
        <ele>469.5</ele>
        <time>2011-01-09T09:02:21Z</time>
      </trkpt>
      <trkpt lat="44.44641" lon="2.41038">
        <ele>469.4</ele>
        <time>2011-01-09T09:02:22Z</time>
      </trkpt>
      <trkpt lat="44.44638" lon="2.4104">
        <ele>469.3</ele>
        <time>2011-01-09T09:02:23Z</time>
      </trkpt>
      <trkpt lat="44.44634" lon="2.41041">
        <ele>469.3</ele>
        <time>2011-01-09T09:02:24Z</time>
      </trkpt>
      <trkpt lat="44.4463" lon="2.41041">
        <ele>469</ele>
        <time>2011-01-09T09:02:25Z</time>
      </trkpt>
      <trkpt lat="44.44626" lon="2.4104">
        <ele>468.7</ele>
        <time>2011-01-09T09:02:26Z</time>
      </trkpt>
      <trkpt lat="44.44623" lon="2.4104">
        <ele>468.5</ele>
        <time>2011-01-09T09:02:27Z</time>
      </trkpt>
      <trkpt lat="44.4462" lon="2.41039">
        <ele>468.4</ele>
        <time>2011-01-09T09:02:28Z</time>
      </trkpt>
      <trkpt lat="44.44617" lon="2.41039">
        <ele>468.6</ele>
        <time>2011-01-09T09:02:29Z</time>
      </trkpt>
      <trkpt lat="44.44613" lon="2.41037">
        <ele>468.8</ele>
        <time>2011-01-09T09:02:30Z</time>
      </trkpt>
      <trkpt lat="44.44611" lon="2.41035">
        <ele>469</ele>
        <time>2011-01-09T09:02:31Z</time>
      </trkpt>
      <trkpt lat="44.44608" lon="2.41033">
        <ele>469</ele>
        <time>2011-01-09T09:02:32Z</time>
      </trkpt>
      <trkpt lat="44.44606" lon="2.41031">
        <ele>469</ele>
        <time>2011-01-09T09:02:33Z</time>
      </trkpt>
      <trkpt lat="44.44604" lon="2.41029">
        <ele>469.1</ele>
        <time>2011-01-09T09:02:34Z</time>
      </trkpt>
      <trkpt lat="44.44602" lon="2.41027">
        <ele>469.4</ele>
        <time>2011-01-09T09:02:35Z</time>
      </trkpt>
      <trkpt lat="44.446" lon="2.41025">
        <ele>469.6</ele>
        <time>2011-01-09T09:02:36Z</time>
      </trkpt>
      <trkpt lat="44.44598" lon="2.41023">
        <ele>469.7</ele>
        <time>2011-01-09T09:02:37Z</time>
      </trkpt>
      <trkpt lat="44.44596" lon="2.41021">
        <ele>469.7</ele>
        <time>2011-01-09T09:02:38Z</time>
      </trkpt>
      <trkpt lat="44.44594" lon="2.41019">
        <ele>469.6</ele>
        <time>2011-01-09T09:02:39Z</time>
      </trkpt>
      <trkpt lat="44.44591" lon="2.41017">
        <ele>469.6</ele>
        <time>2011-01-09T09:02:40Z</time>
      </trkpt>
      <trkpt lat="44.44589" lon="2.41015">
        <ele>469.7</ele>
        <time>2011-01-09T09:02:41Z</time>
      </trkpt>
      <trkpt lat="44.44587" lon="2.41013">
        <ele>469.7</ele>
        <time>2011-01-09T09:02:42Z</time>
      </trkpt>
      <trkpt lat="44.44585" lon="2.4101">
        <ele>469.8</ele>
        <time>2011-01-09T09:02:43Z</time>
      </trkpt>
      <trkpt lat="44.44583" lon="2.41008">
        <ele>469.8</ele>
        <time>2011-01-09T09:02:44Z</time>
      </trkpt>
      <trkpt lat="44.44581" lon="2.41006">
        <ele>470.2</ele>
        <time>2011-01-09T09:02:45Z</time>
      </trkpt>
      <trkpt lat="44.44579" lon="2.41004">
        <ele>470.6</ele>
        <time>2011-01-09T09:02:46Z</time>
      </trkpt>
      <trkpt lat="44.44577" lon="2.41001">
        <ele>470.8</ele>
        <time>2011-01-09T09:02:47Z</time>
      </trkpt>
      <trkpt lat="44.44575" lon="2.40999">
        <ele>470.9</ele>
        <time>2011-01-09T09:02:48Z</time>
      </trkpt>
      <trkpt lat="44.44573" lon="2.40996">
        <ele>470.9</ele>
        <time>2011-01-09T09:02:49Z</time>
      </trkpt>
      <trkpt lat="44.44571" lon="2.40993">
        <ele>470.9</ele>
        <time>2011-01-09T09:02:50Z</time>
      </trkpt>
      <trkpt lat="44.44569" lon="2.40991">
        <ele>471.5</ele>
        <time>2011-01-09T09:02:51Z</time>
      </trkpt>
      <trkpt lat="44.44566" lon="2.40989">
        <ele>472</ele>
        <time>2011-01-09T09:02:52Z</time>
      </trkpt>
      <trkpt lat="44.44564" lon="2.40987">
        <ele>472.3</ele>
        <time>2011-01-09T09:02:53Z</time>
      </trkpt>
      <trkpt lat="44.44561" lon="2.40985">
        <ele>471.7</ele>
        <time>2011-01-09T09:02:54Z</time>
      </trkpt>
      <trkpt lat="44.44558" lon="2.40983">
        <ele>471.2</ele>
        <time>2011-01-09T09:02:55Z</time>
      </trkpt>
      <trkpt lat="44.44555" lon="2.40981">
        <ele>470.8</ele>
        <time>2011-01-09T09:02:56Z</time>
      </trkpt>
      <trkpt lat="44.44552" lon="2.40979">
        <ele>470.8</ele>
        <time>2011-01-09T09:02:57Z</time>
      </trkpt>
      <trkpt lat="44.4455" lon="2.40977">
        <ele>470.7</ele>
        <time>2011-01-09T09:02:58Z</time>
      </trkpt>
      <trkpt lat="44.44543" lon="2.40973">
        <ele>470.6</ele>
        <time>2011-01-09T09:03:00Z</time>
      </trkpt>
      <trkpt lat="44.4454" lon="2.40971">
        <ele>470.5</ele>
        <time>2011-01-09T09:03:01Z</time>
      </trkpt>
      <trkpt lat="44.44537" lon="2.4097">
        <ele>470.4</ele>
        <time>2011-01-09T09:03:02Z</time>
      </trkpt>
      <trkpt lat="44.44535" lon="2.40968">
        <ele>470.4</ele>
        <time>2011-01-09T09:03:03Z</time>
      </trkpt>
      <trkpt lat="44.44533" lon="2.40967">
        <ele>469.8</ele>
        <time>2011-01-09T09:03:04Z</time>
      </trkpt>
      <trkpt lat="44.44531" lon="2.40965">
        <ele>469.3</ele>
        <time>2011-01-09T09:03:05Z</time>
      </trkpt>
      <trkpt lat="44.44528" lon="2.40963">
        <ele>469</ele>
        <time>2011-01-09T09:03:06Z</time>
      </trkpt>
      <trkpt lat="44.44526" lon="2.40961">
        <ele>469.5</ele>
        <time>2011-01-09T09:03:07Z</time>
      </trkpt>
      <trkpt lat="44.44524" lon="2.4096">
        <ele>469.9</ele>
        <time>2011-01-09T09:03:08Z</time>
      </trkpt>
      <trkpt lat="44.44522" lon="2.40958">
        <ele>470.1</ele>
        <time>2011-01-09T09:03:09Z</time>
      </trkpt>
      <trkpt lat="44.44519" lon="2.40956">
        <ele>470.1</ele>
        <time>2011-01-09T09:03:10Z</time>
      </trkpt>
      <trkpt lat="44.44517" lon="2.40955">
        <ele>470</ele>
        <time>2011-01-09T09:03:11Z</time>
      </trkpt>
      <trkpt lat="44.44514" lon="2.40953">
        <ele>470</ele>
        <time>2011-01-09T09:03:12Z</time>
      </trkpt>
      <trkpt lat="44.44512" lon="2.40952">
        <ele>470.1</ele>
        <time>2011-01-09T09:03:13Z</time>
      </trkpt>
      <trkpt lat="44.44509" lon="2.4095">
        <ele>470.2</ele>
        <time>2011-01-09T09:03:14Z</time>
      </trkpt>
      <trkpt lat="44.44505" lon="2.4095">
        <ele>470.3</ele>
        <time>2011-01-09T09:03:16Z</time>
      </trkpt>
      <trkpt lat="44.44502" lon="2.4095">
        <ele>470.4</ele>
        <time>2011-01-09T09:03:18Z</time>
      </trkpt>
      <trkpt lat="44.445" lon="2.40951">
        <ele>470.5</ele>
        <time>2011-01-09T09:03:19Z</time>
      </trkpt>
      <trkpt lat="44.44494" lon="2.40953">
        <ele>471.3</ele>
        <time>2011-01-09T09:03:23Z</time>
      </trkpt>
      <trkpt lat="44.44491" lon="2.40957">
        <ele>471.7</ele>
        <time>2011-01-09T09:03:27Z</time>
      </trkpt>
      <trkpt lat="44.44487" lon="2.4096">
        <ele>473.4</ele>
        <time>2011-01-09T09:03:31Z</time>
      </trkpt>
      <trkpt lat="44.44484" lon="2.40961">
        <ele>472.9</ele>
        <time>2011-01-09T09:03:34Z</time>
      </trkpt>
      <trkpt lat="44.4448" lon="2.40963">
        <ele>473</ele>
        <time>2011-01-09T09:03:36Z</time>
      </trkpt>
      <trkpt lat="44.44477" lon="2.40964">
        <ele>473.4</ele>
        <time>2011-01-09T09:03:38Z</time>
      </trkpt>
      <trkpt lat="44.44473" lon="2.40964">
        <ele>473.7</ele>
        <time>2011-01-09T09:03:40Z</time>
      </trkpt>
      <trkpt lat="44.4447" lon="2.40963">
        <ele>474.2</ele>
        <time>2011-01-09T09:03:42Z</time>
      </trkpt>
      <trkpt lat="44.44466" lon="2.40962">
        <ele>474.8</ele>
        <time>2011-01-09T09:03:44Z</time>
      </trkpt>
      <trkpt lat="44.44461" lon="2.40959">
        <ele>474.6</ele>
        <time>2011-01-09T09:03:46Z</time>
      </trkpt>
      <trkpt lat="44.44458" lon="2.40958">
        <ele>474.9</ele>
        <time>2011-01-09T09:03:48Z</time>
      </trkpt>
      <trkpt lat="44.44455" lon="2.40955">
        <ele>475.2</ele>
        <time>2011-01-09T09:03:50Z</time>
      </trkpt>
      <trkpt lat="44.44453" lon="2.40952">
        <ele>475.8</ele>
        <time>2011-01-09T09:03:52Z</time>
      </trkpt>
      <trkpt lat="44.4445" lon="2.40949">
        <ele>476.4</ele>
        <time>2011-01-09T09:03:54Z</time>
      </trkpt>
      <trkpt lat="44.44448" lon="2.40945">
        <ele>476.9</ele>
        <time>2011-01-09T09:03:56Z</time>
      </trkpt>
      <trkpt lat="44.44445" lon="2.40942">
        <ele>477.4</ele>
        <time>2011-01-09T09:03:58Z</time>
      </trkpt>
      <trkpt lat="44.44443" lon="2.40938">
        <ele>477.8</ele>
        <time>2011-01-09T09:04:00Z</time>
      </trkpt>
      <trkpt lat="44.4444" lon="2.40934">
        <ele>478.1</ele>
        <time>2011-01-09T09:04:02Z</time>
      </trkpt>
      <trkpt lat="44.44438" lon="2.4093">
        <ele>478.6</ele>
        <time>2011-01-09T09:04:04Z</time>
      </trkpt>
      <trkpt lat="44.44435" lon="2.40928">
        <ele>479.1</ele>
        <time>2011-01-09T09:04:06Z</time>
      </trkpt>
      <trkpt lat="44.44433" lon="2.40925">
        <ele>479.9</ele>
        <time>2011-01-09T09:04:08Z</time>
      </trkpt>
      <trkpt lat="44.4443" lon="2.40922">
        <ele>480.6</ele>
        <time>2011-01-09T09:04:10Z</time>
      </trkpt>
      <trkpt lat="44.44428" lon="2.40919">
        <ele>481</ele>
        <time>2011-01-09T09:04:12Z</time>
      </trkpt>
      <trkpt lat="44.44425" lon="2.40914">
        <ele>481.6</ele>
        <time>2011-01-09T09:04:15Z</time>
      </trkpt>
      <trkpt lat="44.44422" lon="2.4091">
        <ele>482.7</ele>
        <time>2011-01-09T09:04:18Z</time>
      </trkpt>
      <trkpt lat="44.44419" lon="2.40906">
        <ele>483.9</ele>
        <time>2011-01-09T09:04:21Z</time>
      </trkpt>
      <trkpt lat="44.44417" lon="2.40905">
        <ele>484.2</ele>
        <time>2011-01-09T09:04:22Z</time>
      </trkpt>
      <trkpt lat="44.44412" lon="2.40899">
        <ele>486</ele>
        <time>2011-01-09T09:04:27Z</time>
      </trkpt>
      <trkpt lat="44.44409" lon="2.40895">
        <ele>486.9</ele>
        <time>2011-01-09T09:04:30Z</time>
      </trkpt>
      <trkpt lat="44.44406" lon="2.40892">
        <ele>487.6</ele>
        <time>2011-01-09T09:04:33Z</time>
      </trkpt>
      <trkpt lat="44.44403" lon="2.40888">
        <ele>488</ele>
        <time>2011-01-09T09:04:36Z</time>
      </trkpt>
      <trkpt lat="44.444" lon="2.40884">
        <ele>488.5</ele>
        <time>2011-01-09T09:04:39Z</time>
      </trkpt>
      <trkpt lat="44.44397" lon="2.40881">
        <ele>488.9</ele>
        <time>2011-01-09T09:04:43Z</time>
      </trkpt>
      <trkpt lat="44.44395" lon="2.40876">
        <ele>489.6</ele>
        <time>2011-01-09T09:04:47Z</time>
      </trkpt>
      <trkpt lat="44.44392" lon="2.40873">
        <ele>490.5</ele>
        <time>2011-01-09T09:04:50Z</time>
      </trkpt>
      <trkpt lat="44.44388" lon="2.40869">
        <ele>490.5</ele>
        <time>2011-01-09T09:04:54Z</time>
      </trkpt>
      <trkpt lat="44.44385" lon="2.40865">
        <ele>491.4</ele>
        <time>2011-01-09T09:04:59Z</time>
      </trkpt>
      <trkpt lat="44.44383" lon="2.40862">
        <ele>492.5</ele>
        <time>2011-01-09T09:05:03Z</time>
      </trkpt>
      <trkpt lat="44.4438" lon="2.40858">
        <ele>493.1</ele>
        <time>2011-01-09T09:05:06Z</time>
      </trkpt>
      <trkpt lat="44.44378" lon="2.40855">
        <ele>493.6</ele>
        <time>2011-01-09T09:05:09Z</time>
      </trkpt>
      <trkpt lat="44.44375" lon="2.40851">
        <ele>495.3</ele>
        <time>2011-01-09T09:05:12Z</time>
      </trkpt>
      <trkpt lat="44.44373" lon="2.40849">
        <ele>496.5</ele>
        <time>2011-01-09T09:05:15Z</time>
      </trkpt>
      <trkpt lat="44.4437" lon="2.40846">
        <ele>496.7</ele>
        <time>2011-01-09T09:05:18Z</time>
      </trkpt>
      <trkpt lat="44.44366" lon="2.40844">
        <ele>496.4</ele>
        <time>2011-01-09T09:05:22Z</time>
      </trkpt>
      <trkpt lat="44.44366" lon="2.40844">
        <ele>496.4</ele>
        <time>2011-01-09T09:05:23Z</time>
      </trkpt>
      <trkpt lat="44.44359" lon="2.40845">
        <ele>497.6</ele>
        <time>2011-01-09T09:05:37Z</time>
      </trkpt>
      <trkpt lat="44.44354" lon="2.40845">
        <ele>499.2</ele>
        <time>2011-01-09T09:05:42Z</time>
      </trkpt>
      <trkpt lat="44.44351" lon="2.40842">
        <ele>501.3</ele>
        <time>2011-01-09T09:05:51Z</time>
      </trkpt>
      <trkpt lat="44.44347" lon="2.4084">
        <ele>502.3</ele>
        <time>2011-01-09T09:06:00Z</time>
      </trkpt>
      <trkpt lat="44.44343" lon="2.40837">
        <ele>501.8</ele>
        <time>2011-01-09T09:06:07Z</time>
      </trkpt>
      <trkpt lat="44.44339" lon="2.40837">
        <ele>502.3</ele>
        <time>2011-01-09T09:06:11Z</time>
      </trkpt>
      <trkpt lat="44.44335" lon="2.40838">
        <ele>503.2</ele>
        <time>2011-01-09T09:06:16Z</time>
      </trkpt>
      <trkpt lat="44.44331" lon="2.40838">
        <ele>504</ele>
        <time>2011-01-09T09:06:22Z</time>
      </trkpt>
      <trkpt lat="44.44328" lon="2.40838">
        <ele>505.3</ele>
        <time>2011-01-09T09:06:27Z</time>
      </trkpt>
      <trkpt lat="44.44327" lon="2.40839">
        <ele>505.3</ele>
        <time>2011-01-09T09:06:28Z</time>
      </trkpt>
      <trkpt lat="44.4432" lon="2.40839">
        <ele>506.9</ele>
        <time>2011-01-09T09:06:38Z</time>
      </trkpt>
      <trkpt lat="44.44315" lon="2.40838">
        <ele>507.7</ele>
        <time>2011-01-09T09:06:43Z</time>
      </trkpt>
      <trkpt lat="44.44311" lon="2.40839">
        <ele>508.1</ele>
        <time>2011-01-09T09:06:49Z</time>
      </trkpt>
      <trkpt lat="44.44307" lon="2.40839">
        <ele>509.2</ele>
        <time>2011-01-09T09:06:55Z</time>
      </trkpt>
      <trkpt lat="44.44303" lon="2.4084">
        <ele>510.4</ele>
        <time>2011-01-09T09:07:00Z</time>
      </trkpt>
      <trkpt lat="44.44298" lon="2.40838">
        <ele>510.4</ele>
        <time>2011-01-09T09:07:07Z</time>
      </trkpt>
      <trkpt lat="44.44295" lon="2.40838">
        <ele>511.4</ele>
        <time>2011-01-09T09:07:12Z</time>
      </trkpt>
      <trkpt lat="44.44291" lon="2.40838">
        <ele>511.7</ele>
        <time>2011-01-09T09:07:16Z</time>
      </trkpt>
      <trkpt lat="44.44288" lon="2.40839">
        <ele>512</ele>
        <time>2011-01-09T09:07:18Z</time>
      </trkpt>
      <trkpt lat="44.44284" lon="2.40838">
        <ele>512.1</ele>
        <time>2011-01-09T09:07:20Z</time>
      </trkpt>
      <trkpt lat="44.44281" lon="2.40839">
        <ele>512.1</ele>
        <time>2011-01-09T09:07:22Z</time>
      </trkpt>
      <trkpt lat="44.44277" lon="2.40839">
        <ele>512.1</ele>
        <time>2011-01-09T09:07:25Z</time>
      </trkpt>
      <trkpt lat="44.44274" lon="2.40843">
        <ele>512</ele>
        <time>2011-01-09T09:07:28Z</time>
      </trkpt>
      <trkpt lat="44.44273" lon="2.40844">
        <ele>511.9</ele>
        <time>2011-01-09T09:07:29Z</time>
      </trkpt>
      <trkpt lat="44.44269" lon="2.4085">
        <ele>511.1</ele>
        <time>2011-01-09T09:07:34Z</time>
      </trkpt>
      <trkpt lat="44.44266" lon="2.40855">
        <ele>512</ele>
        <time>2011-01-09T09:07:38Z</time>
      </trkpt>
      <trkpt lat="44.44264" lon="2.40859">
        <ele>512.1</ele>
        <time>2011-01-09T09:07:41Z</time>
      </trkpt>
      <trkpt lat="44.44261" lon="2.40864">
        <ele>512.2</ele>
        <time>2011-01-09T09:07:44Z</time>
      </trkpt>
      <trkpt lat="44.4426" lon="2.40868">
        <ele>513</ele>
        <time>2011-01-09T09:07:47Z</time>
      </trkpt>
      <trkpt lat="44.44258" lon="2.40873">
        <ele>514.1</ele>
        <time>2011-01-09T09:07:50Z</time>
      </trkpt>
      <trkpt lat="44.44256" lon="2.40876">
        <ele>514.5</ele>
        <time>2011-01-09T09:07:52Z</time>
      </trkpt>
      <trkpt lat="44.44254" lon="2.40879">
        <ele>514.6</ele>
        <time>2011-01-09T09:07:54Z</time>
      </trkpt>
      <trkpt lat="44.44251" lon="2.40881">
        <ele>514.5</ele>
        <time>2011-01-09T09:07:56Z</time>
      </trkpt>
      <trkpt lat="44.44248" lon="2.40885">
        <ele>515.6</ele>
        <time>2011-01-09T09:07:59Z</time>
      </trkpt>
      <trkpt lat="44.44245" lon="2.4089">
        <ele>516.2</ele>
        <time>2011-01-09T09:08:02Z</time>
      </trkpt>
      <trkpt lat="44.44243" lon="2.40893">
        <ele>517.3</ele>
        <time>2011-01-09T09:08:05Z</time>
      </trkpt>
      <trkpt lat="44.44241" lon="2.40898">
        <ele>517.7</ele>
        <time>2011-01-09T09:08:09Z</time>
      </trkpt>
      <trkpt lat="44.44238" lon="2.40901">
        <ele>518.9</ele>
        <time>2011-01-09T09:08:12Z</time>
      </trkpt>
      <trkpt lat="44.44234" lon="2.40904">
        <ele>519.7</ele>
        <time>2011-01-09T09:08:15Z</time>
      </trkpt>
      <trkpt lat="44.44231" lon="2.40906">
        <ele>520.5</ele>
        <time>2011-01-09T09:08:18Z</time>
      </trkpt>
      <trkpt lat="44.44227" lon="2.40908">
        <ele>521.7</ele>
        <time>2011-01-09T09:08:21Z</time>
      </trkpt>
      <trkpt lat="44.44224" lon="2.4091">
        <ele>521.6</ele>
        <time>2011-01-09T09:08:24Z</time>
      </trkpt>
      <trkpt lat="44.4422" lon="2.40913">
        <ele>523.4</ele>
        <time>2011-01-09T09:08:29Z</time>
      </trkpt>
      <trkpt lat="44.4422" lon="2.40913">
        <ele>523.5</ele>
        <time>2011-01-09T09:08:30Z</time>
      </trkpt>
      <trkpt lat="44.44213" lon="2.40916">
        <ele>523.7</ele>
        <time>2011-01-09T09:08:36Z</time>
      </trkpt>
      <trkpt lat="44.44211" lon="2.40917">
        <ele>523.9</ele>
        <time>2011-01-09T09:08:38Z</time>
      </trkpt>
      <trkpt lat="44.44208" lon="2.40918">
        <ele>524.7</ele>
        <time>2011-01-09T09:08:40Z</time>
      </trkpt>
      <trkpt lat="44.44204" lon="2.4092">
        <ele>524.7</ele>
        <time>2011-01-09T09:08:43Z</time>
      </trkpt>
      <trkpt lat="44.44201" lon="2.40923">
        <ele>525.3</ele>
        <time>2011-01-09T09:08:46Z</time>
      </trkpt>
      <trkpt lat="44.44197" lon="2.40925">
        <ele>524.4</ele>
        <time>2011-01-09T09:08:50Z</time>
      </trkpt>
      <trkpt lat="44.44194" lon="2.40926">
        <ele>524.4</ele>
        <time>2011-01-09T09:08:52Z</time>
      </trkpt>
      <trkpt lat="44.4419" lon="2.40926">
        <ele>524.7</ele>
        <time>2011-01-09T09:08:54Z</time>
      </trkpt>
      <trkpt lat="44.44188" lon="2.40926">
        <ele>524.5</ele>
        <time>2011-01-09T09:08:55Z</time>
      </trkpt>
      <trkpt lat="44.44185" lon="2.40926">
        <ele>524.3</ele>
        <time>2011-01-09T09:08:56Z</time>
      </trkpt>
      <trkpt lat="44.44181" lon="2.40927">
        <ele>524</ele>
        <time>2011-01-09T09:08:58Z</time>
      </trkpt>
      <trkpt lat="44.44177" lon="2.40927">
        <ele>523.6</ele>
        <time>2011-01-09T09:09:03Z</time>
      </trkpt>
      <trkpt lat="44.44173" lon="2.40925">
        <ele>522.4</ele>
        <time>2011-01-09T09:09:10Z</time>
      </trkpt>
      <trkpt lat="44.44169" lon="2.40923">
        <ele>523</ele>
        <time>2011-01-09T09:09:20Z</time>
      </trkpt>
      <trkpt lat="44.44165" lon="2.4092">
        <ele>523</ele>
        <time>2011-01-09T09:09:34Z</time>
      </trkpt>
      <trkpt lat="44.44165" lon="2.4092">
        <ele>523</ele>
        <time>2011-01-09T09:09:35Z</time>
      </trkpt>
      <trkpt lat="44.44159" lon="2.40918">
        <ele>522.5</ele>
        <time>2011-01-09T09:09:38Z</time>
      </trkpt>
      <trkpt lat="44.44157" lon="2.40917">
        <ele>522.4</ele>
        <time>2011-01-09T09:09:39Z</time>
      </trkpt>
      <trkpt lat="44.44154" lon="2.40916">
        <ele>522.7</ele>
        <time>2011-01-09T09:09:40Z</time>
      </trkpt>
      <trkpt lat="44.44152" lon="2.40915">
        <ele>522.8</ele>
        <time>2011-01-09T09:09:41Z</time>
      </trkpt>
      <trkpt lat="44.44149" lon="2.40914">
        <ele>522.9</ele>
        <time>2011-01-09T09:09:42Z</time>
      </trkpt>
      <trkpt lat="44.44147" lon="2.40912">
        <ele>522.5</ele>
        <time>2011-01-09T09:09:43Z</time>
      </trkpt>
      <trkpt lat="44.44144" lon="2.40911">
        <ele>522.2</ele>
        <time>2011-01-09T09:09:44Z</time>
      </trkpt>
      <trkpt lat="44.44142" lon="2.40909">
        <ele>521.9</ele>
        <time>2011-01-09T09:09:45Z</time>
      </trkpt>
      <trkpt lat="44.44139" lon="2.40908">
        <ele>522.3</ele>
        <time>2011-01-09T09:09:46Z</time>
      </trkpt>
      <trkpt lat="44.44137" lon="2.40906">
        <ele>522.5</ele>
        <time>2011-01-09T09:09:47Z</time>
      </trkpt>
      <trkpt lat="44.44135" lon="2.40905">
        <ele>522.7</ele>
        <time>2011-01-09T09:09:48Z</time>
      </trkpt>
      <trkpt lat="44.4413" lon="2.40903">
        <ele>522.2</ele>
        <time>2011-01-09T09:09:50Z</time>
      </trkpt>
      <trkpt lat="44.44128" lon="2.40901">
        <ele>522</ele>
        <time>2011-01-09T09:09:51Z</time>
      </trkpt>
      <trkpt lat="44.44126" lon="2.409">
        <ele>521.9</ele>
        <time>2011-01-09T09:09:52Z</time>
      </trkpt>
      <trkpt lat="44.44124" lon="2.40898">
        <ele>521.9</ele>
        <time>2011-01-09T09:09:53Z</time>
      </trkpt>
      <trkpt lat="44.44122" lon="2.40897">
        <ele>521.8</ele>
        <time>2011-01-09T09:09:54Z</time>
      </trkpt>
      <trkpt lat="44.44119" lon="2.40895">
        <ele>521.7</ele>
        <time>2011-01-09T09:09:55Z</time>
      </trkpt>
      <trkpt lat="44.44116" lon="2.40893">
        <ele>521.5</ele>
        <time>2011-01-09T09:09:56Z</time>
      </trkpt>
      <trkpt lat="44.44113" lon="2.40891">
        <ele>521.4</ele>
        <time>2011-01-09T09:09:57Z</time>
      </trkpt>
      <trkpt lat="44.44111" lon="2.40889">
        <ele>521.3</ele>
        <time>2011-01-09T09:09:58Z</time>
      </trkpt>
      <trkpt lat="44.44108" lon="2.40886">
        <ele>521.5</ele>
        <time>2011-01-09T09:09:59Z</time>
      </trkpt>
      <trkpt lat="44.44105" lon="2.40884">
        <ele>521.7</ele>
        <time>2011-01-09T09:10:00Z</time>
      </trkpt>
      <trkpt lat="44.44103" lon="2.40882">
        <ele>521.8</ele>
        <time>2011-01-09T09:10:01Z</time>
      </trkpt>
      <trkpt lat="44.441" lon="2.40879">
        <ele>521.8</ele>
        <time>2011-01-09T09:10:02Z</time>
      </trkpt>
      <trkpt lat="44.44098" lon="2.40877">
        <ele>521.9</ele>
        <time>2011-01-09T09:10:03Z</time>
      </trkpt>
      <trkpt lat="44.44095" lon="2.40874">
        <ele>521.9</ele>
        <time>2011-01-09T09:10:04Z</time>
      </trkpt>
      <trkpt lat="44.44092" lon="2.40871">
        <ele>522</ele>
        <time>2011-01-09T09:10:05Z</time>
      </trkpt>
      <trkpt lat="44.4409" lon="2.40867">
        <ele>522.1</ele>
        <time>2011-01-09T09:10:06Z</time>
      </trkpt>
      <trkpt lat="44.44088" lon="2.40863">
        <ele>522.2</ele>
        <time>2011-01-09T09:10:07Z</time>
      </trkpt>
      <trkpt lat="44.44085" lon="2.40859">
        <ele>522.1</ele>
        <time>2011-01-09T09:10:08Z</time>
      </trkpt>
      <trkpt lat="44.44082" lon="2.40856">
        <ele>522</ele>
        <time>2011-01-09T09:10:09Z</time>
      </trkpt>
      <trkpt lat="44.44079" lon="2.40852">
        <ele>521.9</ele>
        <time>2011-01-09T09:10:10Z</time>
      </trkpt>
      <trkpt lat="44.44077" lon="2.40848">
        <ele>521.4</ele>
        <time>2011-01-09T09:10:11Z</time>
      </trkpt>
      <trkpt lat="44.44074" lon="2.40844">
        <ele>521</ele>
        <time>2011-01-09T09:10:12Z</time>
      </trkpt>
      <trkpt lat="44.44072" lon="2.40841">
        <ele>520.7</ele>
        <time>2011-01-09T09:10:13Z</time>
      </trkpt>
      <trkpt lat="44.44069" lon="2.40838">
        <ele>520.5</ele>
        <time>2011-01-09T09:10:14Z</time>
      </trkpt>
      <trkpt lat="44.44066" lon="2.40834">
        <ele>520.4</ele>
        <time>2011-01-09T09:10:15Z</time>
      </trkpt>
      <trkpt lat="44.44064" lon="2.40831">
        <ele>520.3</ele>
        <time>2011-01-09T09:10:16Z</time>
      </trkpt>
      <trkpt lat="44.44061" lon="2.40828">
        <ele>520.2</ele>
        <time>2011-01-09T09:10:17Z</time>
      </trkpt>
      <trkpt lat="44.44059" lon="2.40825">
        <ele>520.2</ele>
        <time>2011-01-09T09:10:18Z</time>
      </trkpt>
      <trkpt lat="44.44056" lon="2.40822">
        <ele>520.2</ele>
        <time>2011-01-09T09:10:19Z</time>
      </trkpt>
      <trkpt lat="44.44054" lon="2.40819">
        <ele>520.2</ele>
        <time>2011-01-09T09:10:20Z</time>
      </trkpt>
      <trkpt lat="44.44052" lon="2.40816">
        <ele>520.6</ele>
        <time>2011-01-09T09:10:21Z</time>
      </trkpt>
      <trkpt lat="44.4405" lon="2.40813">
        <ele>520.8</ele>
        <time>2011-01-09T09:10:22Z</time>
      </trkpt>
      <trkpt lat="44.44048" lon="2.4081">
        <ele>521</ele>
        <time>2011-01-09T09:10:23Z</time>
      </trkpt>
      <trkpt lat="44.44046" lon="2.40808">
        <ele>521.2</ele>
        <time>2011-01-09T09:10:24Z</time>
      </trkpt>
      <trkpt lat="44.44043" lon="2.40804">
        <ele>521.4</ele>
        <time>2011-01-09T09:10:26Z</time>
      </trkpt>
      <trkpt lat="44.4404" lon="2.408">
        <ele>522.3</ele>
        <time>2011-01-09T09:10:28Z</time>
      </trkpt>
      <trkpt lat="44.44038" lon="2.40797">
        <ele>522.8</ele>
        <time>2011-01-09T09:10:30Z</time>
      </trkpt>
      <trkpt lat="44.44035" lon="2.40793">
        <ele>523.5</ele>
        <time>2011-01-09T09:10:32Z</time>
      </trkpt>
      <trkpt lat="44.44032" lon="2.4079">
        <ele>524.1</ele>
        <time>2011-01-09T09:10:34Z</time>
      </trkpt>
      <trkpt lat="44.44029" lon="2.40788">
        <ele>524.7</ele>
        <time>2011-01-09T09:10:36Z</time>
      </trkpt>
      <trkpt lat="44.44028" lon="2.40786">
        <ele>524.9</ele>
        <time>2011-01-09T09:10:37Z</time>
      </trkpt>
      <trkpt lat="44.44023" lon="2.40783">
        <ele>525.5</ele>
        <time>2011-01-09T09:10:40Z</time>
      </trkpt>
      <trkpt lat="44.4402" lon="2.40781">
        <ele>525.9</ele>
        <time>2011-01-09T09:10:42Z</time>
      </trkpt>
      <trkpt lat="44.44016" lon="2.40781">
        <ele>526.5</ele>
        <time>2011-01-09T09:10:45Z</time>
      </trkpt>
      <trkpt lat="44.44012" lon="2.40782">
        <ele>527.1</ele>
        <time>2011-01-09T09:10:48Z</time>
      </trkpt>
      <trkpt lat="44.44008" lon="2.40784">
        <ele>527.8</ele>
        <time>2011-01-09T09:10:52Z</time>
      </trkpt>
      <trkpt lat="44.44005" lon="2.40787">
        <ele>529.2</ele>
        <time>2011-01-09T09:10:55Z</time>
      </trkpt>
      <trkpt lat="44.44002" lon="2.4079">
        <ele>529.4</ele>
        <time>2011-01-09T09:10:58Z</time>
      </trkpt>
      <trkpt lat="44.43999" lon="2.40793">
        <ele>530.3</ele>
        <time>2011-01-09T09:11:02Z</time>
      </trkpt>
      <trkpt lat="44.43996" lon="2.40797">
        <ele>532</ele>
        <time>2011-01-09T09:11:06Z</time>
      </trkpt>
      <trkpt lat="44.43993" lon="2.408">
        <ele>532.9</ele>
        <time>2011-01-09T09:11:10Z</time>
      </trkpt>
      <trkpt lat="44.43989" lon="2.40803">
        <ele>534.5</ele>
        <time>2011-01-09T09:11:14Z</time>
      </trkpt>
      <trkpt lat="44.43985" lon="2.40805">
        <ele>535.5</ele>
        <time>2011-01-09T09:11:18Z</time>
      </trkpt>
      <trkpt lat="44.43982" lon="2.40807">
        <ele>535.4</ele>
        <time>2011-01-09T09:11:21Z</time>
      </trkpt>
      <trkpt lat="44.43978" lon="2.40809">
        <ele>535.8</ele>
        <time>2011-01-09T09:11:24Z</time>
      </trkpt>
      <trkpt lat="44.43974" lon="2.4081">
        <ele>536.4</ele>
        <time>2011-01-09T09:11:27Z</time>
      </trkpt>
      <trkpt lat="44.43969" lon="2.40811">
        <ele>536.7</ele>
        <time>2011-01-09T09:11:30Z</time>
      </trkpt>
      <trkpt lat="44.43966" lon="2.40811">
        <ele>537.7</ele>
        <time>2011-01-09T09:11:32Z</time>
      </trkpt>
      <trkpt lat="44.43962" lon="2.40811">
        <ele>538</ele>
        <time>2011-01-09T09:11:34Z</time>
      </trkpt>
      <trkpt lat="44.43959" lon="2.40812">
        <ele>538</ele>
        <time>2011-01-09T09:11:36Z</time>
      </trkpt>
      <trkpt lat="44.43955" lon="2.40812">
        <ele>538.7</ele>
        <time>2011-01-09T09:11:38Z</time>
      </trkpt>
      <trkpt lat="44.43953" lon="2.40812">
        <ele>539.3</ele>
        <time>2011-01-09T09:11:39Z</time>
      </trkpt>
      <trkpt lat="44.43947" lon="2.40812">
        <ele>540.2</ele>
        <time>2011-01-09T09:11:42Z</time>
      </trkpt>
      <trkpt lat="44.43944" lon="2.40811">
        <ele>540.5</ele>
        <time>2011-01-09T09:11:44Z</time>
      </trkpt>
      <trkpt lat="44.4394" lon="2.40811">
        <ele>540.6</ele>
        <time>2011-01-09T09:11:46Z</time>
      </trkpt>
      <trkpt lat="44.43937" lon="2.4081">
        <ele>541.1</ele>
        <time>2011-01-09T09:11:48Z</time>
      </trkpt>
      <trkpt lat="44.43934" lon="2.40807">
        <ele>541.9</ele>
        <time>2011-01-09T09:11:50Z</time>
      </trkpt>
      <trkpt lat="44.43932" lon="2.40804">
        <ele>542.8</ele>
        <time>2011-01-09T09:11:52Z</time>
      </trkpt>
      <trkpt lat="44.43929" lon="2.40801">
        <ele>543.2</ele>
        <time>2011-01-09T09:11:54Z</time>
      </trkpt>
      <trkpt lat="44.43927" lon="2.40797">
        <ele>543.3</ele>
        <time>2011-01-09T09:11:56Z</time>
      </trkpt>
      <trkpt lat="44.43925" lon="2.40794">
        <ele>543.8</ele>
        <time>2011-01-09T09:11:58Z</time>
      </trkpt>
      <trkpt lat="44.43923" lon="2.40791">
        <ele>544</ele>
        <time>2011-01-09T09:12:00Z</time>
      </trkpt>
      <trkpt lat="44.43921" lon="2.40786">
        <ele>544.4</ele>
        <time>2011-01-09T09:12:03Z</time>
      </trkpt>
      <trkpt lat="44.43918" lon="2.40782">
        <ele>545.2</ele>
        <time>2011-01-09T09:12:06Z</time>
      </trkpt>
      <trkpt lat="44.43915" lon="2.40778">
        <ele>545.8</ele>
        <time>2011-01-09T09:12:09Z</time>
      </trkpt>
      <trkpt lat="44.43913" lon="2.40774">
        <ele>546.3</ele>
        <time>2011-01-09T09:12:13Z</time>
      </trkpt>
      <trkpt lat="44.4391" lon="2.40769">
        <ele>546.3</ele>
        <time>2011-01-09T09:12:28Z</time>
      </trkpt>
      <trkpt lat="44.43907" lon="2.40765">
        <ele>544.8</ele>
        <time>2011-01-09T09:12:56Z</time>
      </trkpt>
      <trkpt lat="44.43907" lon="2.40764">
        <ele>544.7</ele>
        <time>2011-01-09T09:12:57Z</time>
      </trkpt>
      <trkpt lat="44.439" lon="2.4076">
        <ele>546</ele>
        <time>2011-01-09T09:13:07Z</time>
      </trkpt>
      <trkpt lat="44.43897" lon="2.40758">
        <ele>545.7</ele>
        <time>2011-01-09T09:13:09Z</time>
      </trkpt>
      <trkpt lat="44.43894" lon="2.40757">
        <ele>545.3</ele>
        <time>2011-01-09T09:13:10Z</time>
      </trkpt>
      <trkpt lat="44.43891" lon="2.40757">
        <ele>545.1</ele>
        <time>2011-01-09T09:13:11Z</time>
      </trkpt>
      <trkpt lat="44.43888" lon="2.40758">
        <ele>544.9</ele>
        <time>2011-01-09T09:13:12Z</time>
      </trkpt>
      <trkpt lat="44.43884" lon="2.4076">
        <ele>544.2</ele>
        <time>2011-01-09T09:13:13Z</time>
      </trkpt>
      <trkpt lat="44.43881" lon="2.40762">
        <ele>543.7</ele>
        <time>2011-01-09T09:13:14Z</time>
      </trkpt>
      <trkpt lat="44.43878" lon="2.40763">
        <ele>543.3</ele>
        <time>2011-01-09T09:13:15Z</time>
      </trkpt>
      <trkpt lat="44.43874" lon="2.40766">
        <ele>541.2</ele>
        <time>2011-01-09T09:13:19Z</time>
      </trkpt>
      <trkpt lat="44.4387" lon="2.40764">
        <ele>539.1</ele>
        <time>2011-01-09T09:13:27Z</time>
      </trkpt>
      <trkpt lat="44.43866" lon="2.40766">
        <ele>538.7</ele>
        <time>2011-01-09T09:13:30Z</time>
      </trkpt>
      <trkpt lat="44.43864" lon="2.40769">
        <ele>538.5</ele>
        <time>2011-01-09T09:13:32Z</time>
      </trkpt>
      <trkpt lat="44.43862" lon="2.40773">
        <ele>538.1</ele>
        <time>2011-01-09T09:13:34Z</time>
      </trkpt>
      <trkpt lat="44.4386" lon="2.40778">
        <ele>538.6</ele>
        <time>2011-01-09T09:13:36Z</time>
      </trkpt>
      <trkpt lat="44.4386" lon="2.40781">
        <ele>539.1</ele>
        <time>2011-01-09T09:13:37Z</time>
      </trkpt>
      <trkpt lat="44.43859" lon="2.40784">
        <ele>539.4</ele>
        <time>2011-01-09T09:13:38Z</time>
      </trkpt>
      <trkpt lat="44.43858" lon="2.40788">
        <ele>539.2</ele>
        <time>2011-01-09T09:13:39Z</time>
      </trkpt>
      <trkpt lat="44.43858" lon="2.40791">
        <ele>539</ele>
        <time>2011-01-09T09:13:40Z</time>
      </trkpt>
      <trkpt lat="44.43858" lon="2.40794">
        <ele>538.9</ele>
        <time>2011-01-09T09:13:41Z</time>
      </trkpt>
      <trkpt lat="44.43857" lon="2.408">
        <ele>539</ele>
        <time>2011-01-09T09:13:43Z</time>
      </trkpt>
      <trkpt lat="44.43855" lon="2.40803">
        <ele>539</ele>
        <time>2011-01-09T09:13:44Z</time>
      </trkpt>
      <trkpt lat="44.43853" lon="2.40805">
        <ele>538.6</ele>
        <time>2011-01-09T09:13:45Z</time>
      </trkpt>
      <trkpt lat="44.43851" lon="2.40807">
        <ele>538.2</ele>
        <time>2011-01-09T09:13:46Z</time>
      </trkpt>
      <trkpt lat="44.43849" lon="2.40809">
        <ele>537.9</ele>
        <time>2011-01-09T09:13:47Z</time>
      </trkpt>
      <trkpt lat="44.43847" lon="2.40811">
        <ele>537.7</ele>
        <time>2011-01-09T09:13:48Z</time>
      </trkpt>
      <trkpt lat="44.43845" lon="2.40813">
        <ele>536.9</ele>
        <time>2011-01-09T09:13:49Z</time>
      </trkpt>
      <trkpt lat="44.43843" lon="2.40815">
        <ele>536.2</ele>
        <time>2011-01-09T09:13:50Z</time>
      </trkpt>
      <trkpt lat="44.43839" lon="2.40818">
        <ele>535.3</ele>
        <time>2011-01-09T09:13:52Z</time>
      </trkpt>
      <trkpt lat="44.43837" lon="2.40818">
        <ele>534.9</ele>
        <time>2011-01-09T09:13:53Z</time>
      </trkpt>
      <trkpt lat="44.43834" lon="2.40819">
        <ele>534.7</ele>
        <time>2011-01-09T09:13:54Z</time>
      </trkpt>
      <trkpt lat="44.4383" lon="2.4082">
        <ele>533.2</ele>
        <time>2011-01-09T09:13:56Z</time>
      </trkpt>
      <trkpt lat="44.43827" lon="2.40822">
        <ele>530.9</ele>
        <time>2011-01-09T09:14:02Z</time>
      </trkpt>
      <trkpt lat="44.43826" lon="2.40822">
        <ele>530.9</ele>
        <time>2011-01-09T09:14:03Z</time>
      </trkpt>
      <trkpt lat="44.43821" lon="2.40831">
        <ele>528.6</ele>
        <time>2011-01-09T09:14:11Z</time>
      </trkpt>
      <trkpt lat="44.4382" lon="2.40836">
        <ele>528.3</ele>
        <time>2011-01-09T09:14:15Z</time>
      </trkpt>
      <trkpt lat="44.43816" lon="2.40837">
        <ele>527.4</ele>
        <time>2011-01-09T09:14:26Z</time>
      </trkpt>
      <trkpt lat="44.43813" lon="2.40832">
        <ele>527.5</ele>
        <time>2011-01-09T09:14:35Z</time>
      </trkpt>
      <trkpt lat="44.4381" lon="2.40827">
        <ele>526.1</ele>
        <time>2011-01-09T09:14:46Z</time>
      </trkpt>
      <trkpt lat="44.4381" lon="2.40821">
        <ele>525.9</ele>
        <time>2011-01-09T09:14:50Z</time>
      </trkpt>
      <trkpt lat="44.43808" lon="2.40815">
        <ele>525.1</ele>
        <time>2011-01-09T09:14:55Z</time>
      </trkpt>
      <trkpt lat="44.43805" lon="2.40811">
        <ele>520.6</ele>
        <time>2011-01-09T09:15:07Z</time>
      </trkpt>
      <trkpt lat="44.43805" lon="2.4081">
        <ele>520.3</ele>
        <time>2011-01-09T09:15:08Z</time>
      </trkpt>
      <trkpt lat="44.43801" lon="2.40801">
        <ele>518.4</ele>
        <time>2011-01-09T09:15:33Z</time>
      </trkpt>
      <trkpt lat="44.43801" lon="2.40796">
        <ele>517.5</ele>
        <time>2011-01-09T09:15:37Z</time>
      </trkpt>
      <trkpt lat="44.43802" lon="2.40792">
        <ele>517</ele>
        <time>2011-01-09T09:15:39Z</time>
      </trkpt>
      <trkpt lat="44.43804" lon="2.40787">
        <ele>517.1</ele>
        <time>2011-01-09T09:15:41Z</time>
      </trkpt>
      <trkpt lat="44.43804" lon="2.40784">
        <ele>517.2</ele>
        <time>2011-01-09T09:15:42Z</time>
      </trkpt>
      <trkpt lat="44.43806" lon="2.40778">
        <ele>516.2</ele>
        <time>2011-01-09T09:15:44Z</time>
      </trkpt>
      <trkpt lat="44.43808" lon="2.40774">
        <ele>515.6</ele>
        <time>2011-01-09T09:15:46Z</time>
      </trkpt>
      <trkpt lat="44.43809" lon="2.40771">
        <ele>515.5</ele>
        <time>2011-01-09T09:15:47Z</time>
      </trkpt>
      <trkpt lat="44.43811" lon="2.40769">
        <ele>515.4</ele>
        <time>2011-01-09T09:15:48Z</time>
      </trkpt>
      <trkpt lat="44.43812" lon="2.40766">
        <ele>515.4</ele>
        <time>2011-01-09T09:15:49Z</time>
      </trkpt>
      <trkpt lat="44.43814" lon="2.40763">
        <ele>515.5</ele>
        <time>2011-01-09T09:15:50Z</time>
      </trkpt>
      <trkpt lat="44.43816" lon="2.4076">
        <ele>515.7</ele>
        <time>2011-01-09T09:15:51Z</time>
      </trkpt>
      <trkpt lat="44.43819" lon="2.40758">
        <ele>515.8</ele>
        <time>2011-01-09T09:15:52Z</time>
      </trkpt>
      <trkpt lat="44.43821" lon="2.40756">
        <ele>516.3</ele>
        <time>2011-01-09T09:15:53Z</time>
      </trkpt>
      <trkpt lat="44.43823" lon="2.40753">
        <ele>517</ele>
        <time>2011-01-09T09:15:55Z</time>
      </trkpt>
      <trkpt lat="44.43826" lon="2.40749">
        <ele>517</ele>
        <time>2011-01-09T09:15:57Z</time>
      </trkpt>
      <trkpt lat="44.43828" lon="2.40745">
        <ele>517.1</ele>
        <time>2011-01-09T09:15:59Z</time>
      </trkpt>
      <trkpt lat="44.43831" lon="2.40741">
        <ele>517.2</ele>
        <time>2011-01-09T09:16:01Z</time>
      </trkpt>
      <trkpt lat="44.43832" lon="2.40738">
        <ele>517.2</ele>
        <time>2011-01-09T09:16:02Z</time>
      </trkpt>
      <trkpt lat="44.43833" lon="2.40735">
        <ele>516.9</ele>
        <time>2011-01-09T09:16:03Z</time>
      </trkpt>
      <trkpt lat="44.43834" lon="2.40731">
        <ele>516.7</ele>
        <time>2011-01-09T09:16:04Z</time>
      </trkpt>
      <trkpt lat="44.43835" lon="2.40728">
        <ele>516.6</ele>
        <time>2011-01-09T09:16:05Z</time>
      </trkpt>
      <trkpt lat="44.43836" lon="2.40724">
        <ele>516.4</ele>
        <time>2011-01-09T09:16:06Z</time>
      </trkpt>
      <trkpt lat="44.43837" lon="2.40719">
        <ele>516</ele>
        <time>2011-01-09T09:16:09Z</time>
      </trkpt>
      <trkpt lat="44.43837" lon="2.40718">
        <ele>516</ele>
        <time>2011-01-09T09:16:10Z</time>
      </trkpt>
      <trkpt lat="44.4384" lon="2.40708">
        <ele>514.8</ele>
        <time>2011-01-09T09:16:58Z</time>
      </trkpt>
      <trkpt lat="44.43838" lon="2.40705">
        <ele>515.3</ele>
        <time>2011-01-09T09:17:02Z</time>
      </trkpt>
      <trkpt lat="44.43837" lon="2.40703">
        <ele>515.5</ele>
        <time>2011-01-09T09:17:03Z</time>
      </trkpt>
      <trkpt lat="44.43835" lon="2.40699">
        <ele>515.6</ele>
        <time>2011-01-09T09:17:04Z</time>
      </trkpt>
      <trkpt lat="44.43833" lon="2.40695">
        <ele>515.7</ele>
        <time>2011-01-09T09:17:05Z</time>
      </trkpt>
      <trkpt lat="44.43831" lon="2.4069">
        <ele>515.5</ele>
        <time>2011-01-09T09:17:06Z</time>
      </trkpt>
      <trkpt lat="44.43829" lon="2.40684">
        <ele>515.4</ele>
        <time>2011-01-09T09:17:07Z</time>
      </trkpt>
      <trkpt lat="44.43826" lon="2.40678">
        <ele>515.4</ele>
        <time>2011-01-09T09:17:08Z</time>
      </trkpt>
      <trkpt lat="44.43824" lon="2.40671">
        <ele>515.3</ele>
        <time>2011-01-09T09:17:09Z</time>
      </trkpt>
      <trkpt lat="44.43821" lon="2.40663">
        <ele>514.7</ele>
        <time>2011-01-09T09:17:10Z</time>
      </trkpt>
      <trkpt lat="44.43819" lon="2.40654">
        <ele>514.3</ele>
        <time>2011-01-09T09:17:11Z</time>
      </trkpt>
      <trkpt lat="44.43816" lon="2.40647">
        <ele>514</ele>
        <time>2011-01-09T09:17:12Z</time>
      </trkpt>
      <trkpt lat="44.43812" lon="2.40638">
        <ele>512.8</ele>
        <time>2011-01-09T09:17:13Z</time>
      </trkpt>
      <trkpt lat="44.43809" lon="2.40628">
        <ele>511.9</ele>
        <time>2011-01-09T09:17:14Z</time>
      </trkpt>
      <trkpt lat="44.43805" lon="2.40619">
        <ele>511.2</ele>
        <time>2011-01-09T09:17:15Z</time>
      </trkpt>
      <trkpt lat="44.43801" lon="2.40609">
        <ele>510.4</ele>
        <time>2011-01-09T09:17:16Z</time>
      </trkpt>
      <trkpt lat="44.43796" lon="2.40602">
        <ele>509.8</ele>
        <time>2011-01-09T09:17:17Z</time>
      </trkpt>
      <trkpt lat="44.4379" lon="2.40596">
        <ele>509.3</ele>
        <time>2011-01-09T09:17:18Z</time>
      </trkpt>
      <trkpt lat="44.43784" lon="2.40592">
        <ele>508</ele>
        <time>2011-01-09T09:17:19Z</time>
      </trkpt>
      <trkpt lat="44.43778" lon="2.40588">
        <ele>507.1</ele>
        <time>2011-01-09T09:17:20Z</time>
      </trkpt>
      <trkpt lat="44.43773" lon="2.40582">
        <ele>506.3</ele>
        <time>2011-01-09T09:17:21Z</time>
      </trkpt>
      <trkpt lat="44.43769" lon="2.40575">
        <ele>505</ele>
        <time>2011-01-09T09:17:22Z</time>
      </trkpt>
      <trkpt lat="44.43767" lon="2.40568">
        <ele>503.9</ele>
        <time>2011-01-09T09:17:23Z</time>
      </trkpt>
      <trkpt lat="44.43765" lon="2.40562">
        <ele>503.2</ele>
        <time>2011-01-09T09:17:24Z</time>
      </trkpt>
      <trkpt lat="44.43764" lon="2.40556">
        <ele>502.6</ele>
        <time>2011-01-09T09:17:25Z</time>
      </trkpt>
      <trkpt lat="44.43763" lon="2.40551">
        <ele>501.5</ele>
        <time>2011-01-09T09:17:26Z</time>
      </trkpt>
      <trkpt lat="44.4376" lon="2.40554">
        <ele>498.8</ele>
        <time>2011-01-09T09:17:30Z</time>
      </trkpt>
      <trkpt lat="44.4376" lon="2.40558">
        <ele>498.4</ele>
        <time>2011-01-09T09:17:31Z</time>
      </trkpt>
      <trkpt lat="44.4376" lon="2.40563">
        <ele>497.5</ele>
        <time>2011-01-09T09:17:32Z</time>
      </trkpt>
      <trkpt lat="44.4376" lon="2.40569">
        <ele>496.8</ele>
        <time>2011-01-09T09:17:33Z</time>
      </trkpt>
      <trkpt lat="44.4376" lon="2.40576">
        <ele>496.4</ele>
        <time>2011-01-09T09:17:34Z</time>
      </trkpt>
      <trkpt lat="44.43762" lon="2.40583">
        <ele>496</ele>
        <time>2011-01-09T09:17:35Z</time>
      </trkpt>
      <trkpt lat="44.43765" lon="2.4059">
        <ele>495.7</ele>
        <time>2011-01-09T09:17:36Z</time>
      </trkpt>
      <trkpt lat="44.43768" lon="2.40597">
        <ele>495.5</ele>
        <time>2011-01-09T09:17:37Z</time>
      </trkpt>
      <trkpt lat="44.43772" lon="2.40605">
        <ele>494.5</ele>
        <time>2011-01-09T09:17:38Z</time>
      </trkpt>
      <trkpt lat="44.43777" lon="2.40611">
        <ele>493.8</ele>
        <time>2011-01-09T09:17:39Z</time>
      </trkpt>
      <trkpt lat="44.4378" lon="2.40618">
        <ele>493.3</ele>
        <time>2011-01-09T09:17:40Z</time>
      </trkpt>
      <trkpt lat="44.4378" lon="2.40623">
        <ele>492.9</ele>
        <time>2011-01-09T09:17:41Z</time>
      </trkpt>
      <trkpt lat="44.43779" lon="2.40626">
        <ele>491.9</ele>
        <time>2011-01-09T09:17:42Z</time>
      </trkpt>
      <trkpt lat="44.43776" lon="2.40627">
        <ele>491.2</ele>
        <time>2011-01-09T09:17:43Z</time>
      </trkpt>
      <trkpt lat="44.43774" lon="2.40625">
        <ele>490.6</ele>
        <time>2011-01-09T09:17:44Z</time>
      </trkpt>
      <trkpt lat="44.43772" lon="2.40622">
        <ele>489.7</ele>
        <time>2011-01-09T09:17:45Z</time>
      </trkpt>
      <trkpt lat="44.43769" lon="2.40619">
        <ele>489.1</ele>
        <time>2011-01-09T09:17:46Z</time>
      </trkpt>
      <trkpt lat="44.43765" lon="2.40615">
        <ele>488.6</ele>
        <time>2011-01-09T09:17:47Z</time>
      </trkpt>
      <trkpt lat="44.4376" lon="2.4061">
        <ele>488.1</ele>
        <time>2011-01-09T09:17:48Z</time>
      </trkpt>
      <trkpt lat="44.43756" lon="2.40604">
        <ele>487.7</ele>
        <time>2011-01-09T09:17:49Z</time>
      </trkpt>
      <trkpt lat="44.43751" lon="2.40599">
        <ele>487.4</ele>
        <time>2011-01-09T09:17:50Z</time>
      </trkpt>
      <trkpt lat="44.43745" lon="2.40594">
        <ele>486.7</ele>
        <time>2011-01-09T09:17:51Z</time>
      </trkpt>
      <trkpt lat="44.4374" lon="2.40589">
        <ele>486.1</ele>
        <time>2011-01-09T09:17:52Z</time>
      </trkpt>
      <trkpt lat="44.43736" lon="2.40583">
        <ele>485.6</ele>
        <time>2011-01-09T09:17:53Z</time>
      </trkpt>
      <trkpt lat="44.43731" lon="2.40577">
        <ele>485</ele>
        <time>2011-01-09T09:17:54Z</time>
      </trkpt>
      <trkpt lat="44.43725" lon="2.40571">
        <ele>484.5</ele>
        <time>2011-01-09T09:17:55Z</time>
      </trkpt>
      <trkpt lat="44.43719" lon="2.40565">
        <ele>484.2</ele>
        <time>2011-01-09T09:17:56Z</time>
      </trkpt>
      <trkpt lat="44.43712" lon="2.40559">
        <ele>483.2</ele>
        <time>2011-01-09T09:17:57Z</time>
      </trkpt>
      <trkpt lat="44.43706" lon="2.40554">
        <ele>482.4</ele>
        <time>2011-01-09T09:17:58Z</time>
      </trkpt>
      <trkpt lat="44.437" lon="2.40547">
        <ele>481.8</ele>
        <time>2011-01-09T09:17:59Z</time>
      </trkpt>
      <trkpt lat="44.43694" lon="2.4054">
        <ele>481.4</ele>
        <time>2011-01-09T09:18:00Z</time>
      </trkpt>
      <trkpt lat="44.43688" lon="2.40534">
        <ele>481</ele>
        <time>2011-01-09T09:18:01Z</time>
      </trkpt>
      <trkpt lat="44.43683" lon="2.40528">
        <ele>480.7</ele>
        <time>2011-01-09T09:18:02Z</time>
      </trkpt>
      <trkpt lat="44.43677" lon="2.40524">
        <ele>480.5</ele>
        <time>2011-01-09T09:18:03Z</time>
      </trkpt>
      <trkpt lat="44.43671" lon="2.4052">
        <ele>479.3</ele>
        <time>2011-01-09T09:18:04Z</time>
      </trkpt>
      <trkpt lat="44.43665" lon="2.40518">
        <ele>478.4</ele>
        <time>2011-01-09T09:18:05Z</time>
      </trkpt>
      <trkpt lat="44.43659" lon="2.40517">
        <ele>477.7</ele>
        <time>2011-01-09T09:18:06Z</time>
      </trkpt>
      <trkpt lat="44.43653" lon="2.40515">
        <ele>477.2</ele>
        <time>2011-01-09T09:18:07Z</time>
      </trkpt>
      <trkpt lat="44.43648" lon="2.40515">
        <ele>476.9</ele>
        <time>2011-01-09T09:18:08Z</time>
      </trkpt>
      <trkpt lat="44.43643" lon="2.40514">
        <ele>476.6</ele>
        <time>2011-01-09T09:18:09Z</time>
      </trkpt>
      <trkpt lat="44.43639" lon="2.40513">
        <ele>476.1</ele>
        <time>2011-01-09T09:18:10Z</time>
      </trkpt>
      <trkpt lat="44.43636" lon="2.40512">
        <ele>475.7</ele>
        <time>2011-01-09T09:18:11Z</time>
      </trkpt>
      <trkpt lat="44.43633" lon="2.40509">
        <ele>475.4</ele>
        <time>2011-01-09T09:18:12Z</time>
      </trkpt>
      <trkpt lat="44.43631" lon="2.40507">
        <ele>475.5</ele>
        <time>2011-01-09T09:18:13Z</time>
      </trkpt>
      <trkpt lat="44.43629" lon="2.40504">
        <ele>475.5</ele>
        <time>2011-01-09T09:18:14Z</time>
      </trkpt>
      <trkpt lat="44.43628" lon="2.40501">
        <ele>475.6</ele>
        <time>2011-01-09T09:18:15Z</time>
      </trkpt>
      <trkpt lat="44.43625" lon="2.40498">
        <ele>475.6</ele>
        <time>2011-01-09T09:18:16Z</time>
      </trkpt>
      <trkpt lat="44.43623" lon="2.40494">
        <ele>475.6</ele>
        <time>2011-01-09T09:18:17Z</time>
      </trkpt>
      <trkpt lat="44.43621" lon="2.40491">
        <ele>475.7</ele>
        <time>2011-01-09T09:18:18Z</time>
      </trkpt>
      <trkpt lat="44.43618" lon="2.40487">
        <ele>475.7</ele>
        <time>2011-01-09T09:18:19Z</time>
      </trkpt>
      <trkpt lat="44.43614" lon="2.40484">
        <ele>475.4</ele>
        <time>2011-01-09T09:18:20Z</time>
      </trkpt>
      <trkpt lat="44.43611" lon="2.40482">
        <ele>475.1</ele>
        <time>2011-01-09T09:18:21Z</time>
      </trkpt>
      <trkpt lat="44.43606" lon="2.4048">
        <ele>475</ele>
        <time>2011-01-09T09:18:22Z</time>
      </trkpt>
      <trkpt lat="44.43602" lon="2.40478">
        <ele>474.3</ele>
        <time>2011-01-09T09:18:23Z</time>
      </trkpt>
      <trkpt lat="44.43599" lon="2.40477">
        <ele>473.9</ele>
        <time>2011-01-09T09:18:24Z</time>
      </trkpt>
      <trkpt lat="44.43595" lon="2.40476">
        <ele>473.3</ele>
        <time>2011-01-09T09:18:26Z</time>
      </trkpt>
      <trkpt lat="44.43591" lon="2.40474">
        <ele>473</ele>
        <time>2011-01-09T09:18:29Z</time>
      </trkpt>
      <trkpt lat="44.43588" lon="2.40473">
        <ele>472.9</ele>
        <time>2011-01-09T09:18:32Z</time>
      </trkpt>
      <trkpt lat="44.43585" lon="2.40471">
        <ele>472.7</ele>
        <time>2011-01-09T09:18:34Z</time>
      </trkpt>
      <trkpt lat="44.43582" lon="2.40469">
        <ele>472.7</ele>
        <time>2011-01-09T09:18:36Z</time>
      </trkpt>
      <trkpt lat="44.43578" lon="2.40467">
        <ele>472.8</ele>
        <time>2011-01-09T09:18:38Z</time>
      </trkpt>
      <trkpt lat="44.43574" lon="2.40465">
        <ele>472.9</ele>
        <time>2011-01-09T09:18:40Z</time>
      </trkpt>
      <trkpt lat="44.43571" lon="2.40462">
        <ele>473.2</ele>
        <time>2011-01-09T09:18:42Z</time>
      </trkpt>
      <trkpt lat="44.43568" lon="2.4046">
        <ele>473.7</ele>
        <time>2011-01-09T09:18:44Z</time>
      </trkpt>
      <trkpt lat="44.43565" lon="2.40457">
        <ele>473.5</ele>
        <time>2011-01-09T09:18:46Z</time>
      </trkpt>
      <trkpt lat="44.43561" lon="2.40454">
        <ele>473.4</ele>
        <time>2011-01-09T09:18:48Z</time>
      </trkpt>
      <trkpt lat="44.43558" lon="2.40451">
        <ele>473.4</ele>
        <time>2011-01-09T09:18:50Z</time>
      </trkpt>
      <trkpt lat="44.43555" lon="2.40449">
        <ele>473.3</ele>
        <time>2011-01-09T09:18:52Z</time>
      </trkpt>
      <trkpt lat="44.43552" lon="2.40446">
        <ele>473.3</ele>
        <time>2011-01-09T09:18:54Z</time>
      </trkpt>
      <trkpt lat="44.43548" lon="2.40444">
        <ele>474.6</ele>
        <time>2011-01-09T09:18:56Z</time>
      </trkpt>
      <trkpt lat="44.43545" lon="2.40441">
        <ele>475.4</ele>
        <time>2011-01-09T09:18:58Z</time>
      </trkpt>
      <trkpt lat="44.43542" lon="2.40439">
        <ele>476</ele>
        <time>2011-01-09T09:19:00Z</time>
      </trkpt>
      <trkpt lat="44.43538" lon="2.40437">
        <ele>476.1</ele>
        <time>2011-01-09T09:19:02Z</time>
      </trkpt>
      <trkpt lat="44.43535" lon="2.40434">
        <ele>476.2</ele>
        <time>2011-01-09T09:19:04Z</time>
      </trkpt>
      <trkpt lat="44.43531" lon="2.40432">
        <ele>477</ele>
        <time>2011-01-09T09:19:06Z</time>
      </trkpt>
      <trkpt lat="44.43528" lon="2.40431">
        <ele>477.3</ele>
        <time>2011-01-09T09:19:07Z</time>
      </trkpt>
      <trkpt lat="44.43526" lon="2.40429">
        <ele>477.9</ele>
        <time>2011-01-09T09:19:08Z</time>
      </trkpt>
      <trkpt lat="44.43524" lon="2.40428">
        <ele>478.4</ele>
        <time>2011-01-09T09:19:09Z</time>
      </trkpt>
      <trkpt lat="44.43522" lon="2.40427">
        <ele>478.7</ele>
        <time>2011-01-09T09:19:10Z</time>
      </trkpt>
      <trkpt lat="44.43519" lon="2.40426">
        <ele>478.8</ele>
        <time>2011-01-09T09:19:11Z</time>
      </trkpt>
      <trkpt lat="44.43516" lon="2.40424">
        <ele>478.9</ele>
        <time>2011-01-09T09:19:12Z</time>
      </trkpt>
      <trkpt lat="44.43513" lon="2.40423">
        <ele>479</ele>
        <time>2011-01-09T09:19:13Z</time>
      </trkpt>
      <trkpt lat="44.43511" lon="2.40422">
        <ele>479.1</ele>
        <time>2011-01-09T09:19:14Z</time>
      </trkpt>
      <trkpt lat="44.43508" lon="2.4042">
        <ele>479.2</ele>
        <time>2011-01-09T09:19:15Z</time>
      </trkpt>
      <trkpt lat="44.43505" lon="2.40419">
        <ele>479.3</ele>
        <time>2011-01-09T09:19:16Z</time>
      </trkpt>
      <trkpt lat="44.43501" lon="2.40417">
        <ele>478.8</ele>
        <time>2011-01-09T09:19:17Z</time>
      </trkpt>
      <trkpt lat="44.43497" lon="2.40415">
        <ele>478.4</ele>
        <time>2011-01-09T09:19:18Z</time>
      </trkpt>
      <trkpt lat="44.43493" lon="2.40412">
        <ele>478.1</ele>
        <time>2011-01-09T09:19:19Z</time>
      </trkpt>
      <trkpt lat="44.43489" lon="2.40409">
        <ele>477.9</ele>
        <time>2011-01-09T09:19:20Z</time>
      </trkpt>
      <trkpt lat="44.43485" lon="2.40408">
        <ele>477.4</ele>
        <time>2011-01-09T09:19:21Z</time>
      </trkpt>
      <trkpt lat="44.43481" lon="2.40407">
        <ele>477</ele>
        <time>2011-01-09T09:19:22Z</time>
      </trkpt>
      <trkpt lat="44.43478" lon="2.40407">
        <ele>476.7</ele>
        <time>2011-01-09T09:19:23Z</time>
      </trkpt>
      <trkpt lat="44.43475" lon="2.40408">
        <ele>476.2</ele>
        <time>2011-01-09T09:19:25Z</time>
      </trkpt>
      <trkpt lat="44.43473" lon="2.40409">
        <ele>476</ele>
        <time>2011-01-09T09:19:26Z</time>
      </trkpt>
      <trkpt lat="44.43471" lon="2.40412">
        <ele>475.6</ele>
        <time>2011-01-09T09:19:27Z</time>
      </trkpt>
      <trkpt lat="44.43468" lon="2.40415">
        <ele>475.3</ele>
        <time>2011-01-09T09:19:28Z</time>
      </trkpt>
      <trkpt lat="44.43467" lon="2.40418">
        <ele>475.1</ele>
        <time>2011-01-09T09:19:29Z</time>
      </trkpt>
      <trkpt lat="44.43465" lon="2.40421">
        <ele>474.2</ele>
        <time>2011-01-09T09:19:30Z</time>
      </trkpt>
      <trkpt lat="44.43461" lon="2.40426">
        <ele>473.5</ele>
        <time>2011-01-09T09:19:31Z</time>
      </trkpt>
      <trkpt lat="44.43458" lon="2.4043">
        <ele>473</ele>
        <time>2011-01-09T09:19:32Z</time>
      </trkpt>
      <trkpt lat="44.43454" lon="2.40435">
        <ele>472.5</ele>
        <time>2011-01-09T09:19:33Z</time>
      </trkpt>
      <trkpt lat="44.43449" lon="2.4044">
        <ele>472.2</ele>
        <time>2011-01-09T09:19:34Z</time>
      </trkpt>
      <trkpt lat="44.43446" lon="2.40444">
        <ele>471.9</ele>
        <time>2011-01-09T09:19:35Z</time>
      </trkpt>
      <trkpt lat="44.43444" lon="2.40448">
        <ele>471.1</ele>
        <time>2011-01-09T09:19:36Z</time>
      </trkpt>
      <trkpt lat="44.43442" lon="2.40454">
        <ele>470.5</ele>
        <time>2011-01-09T09:19:37Z</time>
      </trkpt>
      <trkpt lat="44.4344" lon="2.4046">
        <ele>470</ele>
        <time>2011-01-09T09:19:38Z</time>
      </trkpt>
      <trkpt lat="44.43438" lon="2.40467">
        <ele>469.7</ele>
        <time>2011-01-09T09:19:39Z</time>
      </trkpt>
      <trkpt lat="44.43438" lon="2.40473">
        <ele>468.6</ele>
        <time>2011-01-09T09:19:40Z</time>
      </trkpt>
      <trkpt lat="44.43438" lon="2.40478">
        <ele>467.8</ele>
        <time>2011-01-09T09:19:41Z</time>
      </trkpt>
      <trkpt lat="44.43439" lon="2.40484">
        <ele>467.2</ele>
        <time>2011-01-09T09:19:42Z</time>
      </trkpt>
      <trkpt lat="44.4344" lon="2.4049">
        <ele>465.3</ele>
        <time>2011-01-09T09:19:43Z</time>
      </trkpt>
      <trkpt lat="44.43441" lon="2.40496">
        <ele>463.8</ele>
        <time>2011-01-09T09:19:44Z</time>
      </trkpt>
      <trkpt lat="44.43442" lon="2.40503">
        <ele>462.8</ele>
        <time>2011-01-09T09:19:45Z</time>
      </trkpt>
      <trkpt lat="44.43443" lon="2.4051">
        <ele>461.6</ele>
        <time>2011-01-09T09:19:46Z</time>
      </trkpt>
      <trkpt lat="44.43444" lon="2.40516">
        <ele>460.7</ele>
        <time>2011-01-09T09:19:47Z</time>
      </trkpt>
      <trkpt lat="44.43445" lon="2.40523">
        <ele>460</ele>
        <time>2011-01-09T09:19:48Z</time>
      </trkpt>
      <trkpt lat="44.43446" lon="2.40529">
        <ele>458.8</ele>
        <time>2011-01-09T09:19:49Z</time>
      </trkpt>
      <trkpt lat="44.43447" lon="2.40536">
        <ele>457.9</ele>
        <time>2011-01-09T09:19:50Z</time>
      </trkpt>
      <trkpt lat="44.43447" lon="2.40543">
        <ele>457.2</ele>
        <time>2011-01-09T09:19:51Z</time>
      </trkpt>
      <trkpt lat="44.43448" lon="2.40551">
        <ele>455.8</ele>
        <time>2011-01-09T09:19:52Z</time>
      </trkpt>
      <trkpt lat="44.43449" lon="2.40557">
        <ele>454.8</ele>
        <time>2011-01-09T09:19:53Z</time>
      </trkpt>
      <trkpt lat="44.43452" lon="2.40562">
        <ele>454</ele>
        <time>2011-01-09T09:19:54Z</time>
      </trkpt>
      <trkpt lat="44.43455" lon="2.40565">
        <ele>453.4</ele>
        <time>2011-01-09T09:19:55Z</time>
      </trkpt>
      <trkpt lat="44.4346" lon="2.40569">
        <ele>451.9</ele>
        <time>2011-01-09T09:19:56Z</time>
      </trkpt>
      <trkpt lat="44.43464" lon="2.40571">
        <ele>450.7</ele>
        <time>2011-01-09T09:19:57Z</time>
      </trkpt>
      <trkpt lat="44.43468" lon="2.40573">
        <ele>449.9</ele>
        <time>2011-01-09T09:19:58Z</time>
      </trkpt>
      <trkpt lat="44.43473" lon="2.40575">
        <ele>448.6</ele>
        <time>2011-01-09T09:19:59Z</time>
      </trkpt>
      <trkpt lat="44.43477" lon="2.40577">
        <ele>447.6</ele>
        <time>2011-01-09T09:20:00Z</time>
      </trkpt>
      <trkpt lat="44.43482" lon="2.40578">
        <ele>446.9</ele>
        <time>2011-01-09T09:20:01Z</time>
      </trkpt>
      <trkpt lat="44.43488" lon="2.40579">
        <ele>445.4</ele>
        <time>2011-01-09T09:20:02Z</time>
      </trkpt>
      <trkpt lat="44.43492" lon="2.40579">
        <ele>444.3</ele>
        <time>2011-01-09T09:20:03Z</time>
      </trkpt>
      <trkpt lat="44.43497" lon="2.40579">
        <ele>443.5</ele>
        <time>2011-01-09T09:20:04Z</time>
      </trkpt>
      <trkpt lat="44.43501" lon="2.40578">
        <ele>442.8</ele>
        <time>2011-01-09T09:20:05Z</time>
      </trkpt>
      <trkpt lat="44.43505" lon="2.40577">
        <ele>442.3</ele>
        <time>2011-01-09T09:20:06Z</time>
      </trkpt>
      <trkpt lat="44.43509" lon="2.40576">
        <ele>441.9</ele>
        <time>2011-01-09T09:20:07Z</time>
      </trkpt>
      <trkpt lat="44.43513" lon="2.40574">
        <ele>440.9</ele>
        <time>2011-01-09T09:20:08Z</time>
      </trkpt>
      <trkpt lat="44.43516" lon="2.40572">
        <ele>440.2</ele>
        <time>2011-01-09T09:20:09Z</time>
      </trkpt>
      <trkpt lat="44.4352" lon="2.40571">
        <ele>439.7</ele>
        <time>2011-01-09T09:20:10Z</time>
      </trkpt>
      <trkpt lat="44.43524" lon="2.4057">
        <ele>439.3</ele>
        <time>2011-01-09T09:20:11Z</time>
      </trkpt>
      <trkpt lat="44.43527" lon="2.4057">
        <ele>438.8</ele>
        <time>2011-01-09T09:20:12Z</time>
      </trkpt>
      <trkpt lat="44.4353" lon="2.4057">
        <ele>438.5</ele>
        <time>2011-01-09T09:20:13Z</time>
      </trkpt>
      <trkpt lat="44.43533" lon="2.4057">
        <ele>438.3</ele>
        <time>2011-01-09T09:20:14Z</time>
      </trkpt>
      <trkpt lat="44.43536" lon="2.40569">
        <ele>438</ele>
        <time>2011-01-09T09:20:15Z</time>
      </trkpt>
      <trkpt lat="44.43539" lon="2.40569">
        <ele>437.8</ele>
        <time>2011-01-09T09:20:16Z</time>
      </trkpt>
      <trkpt lat="44.43543" lon="2.4057">
        <ele>437.7</ele>
        <time>2011-01-09T09:20:17Z</time>
      </trkpt>
      <trkpt lat="44.43547" lon="2.4057">
        <ele>437.5</ele>
        <time>2011-01-09T09:20:18Z</time>
      </trkpt>
      <trkpt lat="44.43551" lon="2.40571">
        <ele>437.4</ele>
        <time>2011-01-09T09:20:19Z</time>
      </trkpt>
      <trkpt lat="44.43554" lon="2.40573">
        <ele>437.3</ele>
        <time>2011-01-09T09:20:20Z</time>
      </trkpt>
      <trkpt lat="44.43558" lon="2.40575">
        <ele>437.6</ele>
        <time>2011-01-09T09:20:21Z</time>
      </trkpt>
      <trkpt lat="44.43563" lon="2.40579">
        <ele>437.8</ele>
        <time>2011-01-09T09:20:22Z</time>
      </trkpt>
      <trkpt lat="44.43567" lon="2.40583">
        <ele>438</ele>
        <time>2011-01-09T09:20:23Z</time>
      </trkpt>
      <trkpt lat="44.43572" lon="2.40587">
        <ele>437.7</ele>
        <time>2011-01-09T09:20:24Z</time>
      </trkpt>
      <trkpt lat="44.43577" lon="2.40591">
        <ele>437.6</ele>
        <time>2011-01-09T09:20:25Z</time>
      </trkpt>
      <trkpt lat="44.43582" lon="2.40595">
        <ele>437.4</ele>
        <time>2011-01-09T09:20:26Z</time>
      </trkpt>
      <trkpt lat="44.43585" lon="2.40599">
        <ele>437.3</ele>
        <time>2011-01-09T09:20:27Z</time>
      </trkpt>
      <trkpt lat="44.43588" lon="2.40605">
        <ele>436.8</ele>
        <time>2011-01-09T09:20:28Z</time>
      </trkpt>
      <trkpt lat="44.4359" lon="2.40611">
        <ele>436.3</ele>
        <time>2011-01-09T09:20:29Z</time>
      </trkpt>
      <trkpt lat="44.43592" lon="2.40618">
        <ele>436</ele>
        <time>2011-01-09T09:20:30Z</time>
      </trkpt>
      <trkpt lat="44.43594" lon="2.40626">
        <ele>435.6</ele>
        <time>2011-01-09T09:20:31Z</time>
      </trkpt>
      <trkpt lat="44.43596" lon="2.40634">
        <ele>435.2</ele>
        <time>2011-01-09T09:20:32Z</time>
      </trkpt>
      <trkpt lat="44.43598" lon="2.40642">
        <ele>435</ele>
        <time>2011-01-09T09:20:33Z</time>
      </trkpt>
      <trkpt lat="44.43598" lon="2.40649">
        <ele>434.2</ele>
        <time>2011-01-09T09:20:34Z</time>
      </trkpt>
      <trkpt lat="44.43599" lon="2.40658">
        <ele>433.5</ele>
        <time>2011-01-09T09:20:35Z</time>
      </trkpt>
      <trkpt lat="44.43601" lon="2.40669">
        <ele>433</ele>
        <time>2011-01-09T09:20:36Z</time>
      </trkpt>
      <trkpt lat="44.43603" lon="2.40679">
        <ele>432</ele>
        <time>2011-01-09T09:20:37Z</time>
      </trkpt>
      <trkpt lat="44.43604" lon="2.40692">
        <ele>431.3</ele>
        <time>2011-01-09T09:20:38Z</time>
      </trkpt>
      <trkpt lat="44.43606" lon="2.40705">
        <ele>430.7</ele>
        <time>2011-01-09T09:20:39Z</time>
      </trkpt>
      <trkpt lat="44.43607" lon="2.40719">
        <ele>429.5</ele>
        <time>2011-01-09T09:20:40Z</time>
      </trkpt>
      <trkpt lat="44.43607" lon="2.40732">
        <ele>428.6</ele>
        <time>2011-01-09T09:20:41Z</time>
      </trkpt>
      <trkpt lat="44.43607" lon="2.40742">
        <ele>427.9</ele>
        <time>2011-01-09T09:20:42Z</time>
      </trkpt>
      <trkpt lat="44.43606" lon="2.40751">
        <ele>425.7</ele>
        <time>2011-01-09T09:20:43Z</time>
      </trkpt>
      <trkpt lat="44.43605" lon="2.40757">
        <ele>424</ele>
        <time>2011-01-09T09:20:44Z</time>
      </trkpt>
      <trkpt lat="44.43601" lon="2.4076">
        <ele>422.8</ele>
        <time>2011-01-09T09:20:45Z</time>
      </trkpt>
      <trkpt lat="44.43598" lon="2.40759">
        <ele>421.8</ele>
        <time>2011-01-09T09:20:46Z</time>
      </trkpt>
      <trkpt lat="44.43593" lon="2.40755">
        <ele>420.9</ele>
        <time>2011-01-09T09:20:47Z</time>
      </trkpt>
      <trkpt lat="44.43589" lon="2.4075">
        <ele>420.3</ele>
        <time>2011-01-09T09:20:48Z</time>
      </trkpt>
      <trkpt lat="44.43584" lon="2.40746">
        <ele>419.8</ele>
        <time>2011-01-09T09:20:49Z</time>
      </trkpt>
      <trkpt lat="44.43579" lon="2.40745">
        <ele>418.3</ele>
        <time>2011-01-09T09:20:50Z</time>
      </trkpt>
      <trkpt lat="44.43574" lon="2.40745">
        <ele>417.2</ele>
        <time>2011-01-09T09:20:51Z</time>
      </trkpt>
      <trkpt lat="44.43569" lon="2.40746">
        <ele>416.4</ele>
        <time>2011-01-09T09:20:52Z</time>
      </trkpt>
      <trkpt lat="44.43563" lon="2.40747">
        <ele>415</ele>
        <time>2011-01-09T09:20:53Z</time>
      </trkpt>
      <trkpt lat="44.43556" lon="2.4075">
        <ele>414</ele>
        <time>2011-01-09T09:20:54Z</time>
      </trkpt>
      <trkpt lat="44.43549" lon="2.40754">
        <ele>413.2</ele>
        <time>2011-01-09T09:20:55Z</time>
      </trkpt>
      <trkpt lat="44.43543" lon="2.40758">
        <ele>411</ele>
        <time>2011-01-09T09:20:56Z</time>
      </trkpt>
      <trkpt lat="44.43537" lon="2.40762">
        <ele>409.4</ele>
        <time>2011-01-09T09:20:57Z</time>
      </trkpt>
      <trkpt lat="44.43534" lon="2.40766">
        <ele>408.2</ele>
        <time>2011-01-09T09:20:58Z</time>
      </trkpt>
      <trkpt lat="44.43531" lon="2.40772">
        <ele>406.7</ele>
        <time>2011-01-09T09:20:59Z</time>
      </trkpt>
      <trkpt lat="44.43529" lon="2.40777">
        <ele>405.5</ele>
        <time>2011-01-09T09:21:00Z</time>
      </trkpt>
      <trkpt lat="44.43528" lon="2.40784">
        <ele>404.6</ele>
        <time>2011-01-09T09:21:01Z</time>
      </trkpt>
      <trkpt lat="44.43525" lon="2.40792">
        <ele>404</ele>
        <time>2011-01-09T09:21:02Z</time>
      </trkpt>
      <trkpt lat="44.43523" lon="2.408">
        <ele>402.5</ele>
        <time>2011-01-09T09:21:03Z</time>
      </trkpt>
      <trkpt lat="44.4352" lon="2.40808">
        <ele>401.4</ele>
        <time>2011-01-09T09:21:04Z</time>
      </trkpt>
      <trkpt lat="44.43515" lon="2.40817">
        <ele>400.6</ele>
        <time>2011-01-09T09:21:05Z</time>
      </trkpt>
      <trkpt lat="44.4351" lon="2.40825">
        <ele>400</ele>
        <time>2011-01-09T09:21:06Z</time>
      </trkpt>
      <trkpt lat="44.43503" lon="2.40832">
        <ele>399.6</ele>
        <time>2011-01-09T09:21:07Z</time>
      </trkpt>
      <trkpt lat="44.43495" lon="2.40839">
        <ele>399.2</ele>
        <time>2011-01-09T09:21:08Z</time>
      </trkpt>
      <trkpt lat="44.43487" lon="2.40845">
        <ele>397.6</ele>
        <time>2011-01-09T09:21:09Z</time>
      </trkpt>
      <trkpt lat="44.43479" lon="2.4085">
        <ele>396.4</ele>
        <time>2011-01-09T09:21:10Z</time>
      </trkpt>
      <trkpt lat="44.43471" lon="2.40856">
        <ele>395.5</ele>
        <time>2011-01-09T09:21:11Z</time>
      </trkpt>
      <trkpt lat="44.43463" lon="2.40863">
        <ele>393.8</ele>
        <time>2011-01-09T09:21:12Z</time>
      </trkpt>
      <trkpt lat="44.43455" lon="2.40869">
        <ele>392.5</ele>
        <time>2011-01-09T09:21:13Z</time>
      </trkpt>
      <trkpt lat="44.43448" lon="2.40874">
        <ele>391.5</ele>
        <time>2011-01-09T09:21:14Z</time>
      </trkpt>
      <trkpt lat="44.43441" lon="2.40878">
        <ele>390</ele>
        <time>2011-01-09T09:21:15Z</time>
      </trkpt>
      <trkpt lat="44.43433" lon="2.40883">
        <ele>388.8</ele>
        <time>2011-01-09T09:21:16Z</time>
      </trkpt>
      <trkpt lat="44.43426" lon="2.40887">
        <ele>387.9</ele>
        <time>2011-01-09T09:21:17Z</time>
      </trkpt>
      <trkpt lat="44.43419" lon="2.40889">
        <ele>387.3</ele>
        <time>2011-01-09T09:21:18Z</time>
      </trkpt>
      <trkpt lat="44.43412" lon="2.40891">
        <ele>386.3</ele>
        <time>2011-01-09T09:21:19Z</time>
      </trkpt>
      <trkpt lat="44.43405" lon="2.40891">
        <ele>385.6</ele>
        <time>2011-01-09T09:21:20Z</time>
      </trkpt>
      <trkpt lat="44.43399" lon="2.40889">
        <ele>385.1</ele>
        <time>2011-01-09T09:21:21Z</time>
      </trkpt>
      <trkpt lat="44.43394" lon="2.40887">
        <ele>384.2</ele>
        <time>2011-01-09T09:21:22Z</time>
      </trkpt>
      <trkpt lat="44.43389" lon="2.40886">
        <ele>383.6</ele>
        <time>2011-01-09T09:21:23Z</time>
      </trkpt>
      <trkpt lat="44.43386" lon="2.40886">
        <ele>383.1</ele>
        <time>2011-01-09T09:21:24Z</time>
      </trkpt>
      <trkpt lat="44.43384" lon="2.40889">
        <ele>382.6</ele>
        <time>2011-01-09T09:21:25Z</time>
      </trkpt>
      <trkpt lat="44.43382" lon="2.40892">
        <ele>382.2</ele>
        <time>2011-01-09T09:21:26Z</time>
      </trkpt>
      <trkpt lat="44.4338" lon="2.40896">
        <ele>382</ele>
        <time>2011-01-09T09:21:27Z</time>
      </trkpt>
      <trkpt lat="44.43378" lon="2.409">
        <ele>381.1</ele>
        <time>2011-01-09T09:21:28Z</time>
      </trkpt>
      <trkpt lat="44.43375" lon="2.40903">
        <ele>380.4</ele>
        <time>2011-01-09T09:21:29Z</time>
      </trkpt>
      <trkpt lat="44.43374" lon="2.40907">
        <ele>379.9</ele>
        <time>2011-01-09T09:21:30Z</time>
      </trkpt>
      <trkpt lat="44.43375" lon="2.40911">
        <ele>378.3</ele>
        <time>2011-01-09T09:21:32Z</time>
      </trkpt>
      <trkpt lat="44.43378" lon="2.40913">
        <ele>377.8</ele>
        <time>2011-01-09T09:21:33Z</time>
      </trkpt>
      <trkpt lat="44.43382" lon="2.40913">
        <ele>377.4</ele>
        <time>2011-01-09T09:21:34Z</time>
      </trkpt>
      <trkpt lat="44.43386" lon="2.40915">
        <ele>376.7</ele>
        <time>2011-01-09T09:21:35Z</time>
      </trkpt>
      <trkpt lat="44.43389" lon="2.40917">
        <ele>376.2</ele>
        <time>2011-01-09T09:21:36Z</time>
      </trkpt>
      <trkpt lat="44.43393" lon="2.4092">
        <ele>375.9</ele>
        <time>2011-01-09T09:21:37Z</time>
      </trkpt>
      <trkpt lat="44.43396" lon="2.40922">
        <ele>374.8</ele>
        <time>2011-01-09T09:21:38Z</time>
      </trkpt>
      <trkpt lat="44.43399" lon="2.40925">
        <ele>373.9</ele>
        <time>2011-01-09T09:21:39Z</time>
      </trkpt>
      <trkpt lat="44.43402" lon="2.40929">
        <ele>373.3</ele>
        <time>2011-01-09T09:21:40Z</time>
      </trkpt>
      <trkpt lat="44.43403" lon="2.40935">
        <ele>372.5</ele>
        <time>2011-01-09T09:21:41Z</time>
      </trkpt>
      <trkpt lat="44.43401" lon="2.40941">
        <ele>371.9</ele>
        <time>2011-01-09T09:21:42Z</time>
      </trkpt>
      <trkpt lat="44.43397" lon="2.40948">
        <ele>371.4</ele>
        <time>2011-01-09T09:21:43Z</time>
      </trkpt>
      <trkpt lat="44.43392" lon="2.40954">
        <ele>370.5</ele>
        <time>2011-01-09T09:21:44Z</time>
      </trkpt>
      <trkpt lat="44.43387" lon="2.40962">
        <ele>369.8</ele>
        <time>2011-01-09T09:21:45Z</time>
      </trkpt>
      <trkpt lat="44.43381" lon="2.40972">
        <ele>369.2</ele>
        <time>2011-01-09T09:21:46Z</time>
      </trkpt>
      <trkpt lat="44.43376" lon="2.40983">
        <ele>367.8</ele>
        <time>2011-01-09T09:21:47Z</time>
      </trkpt>
      <trkpt lat="44.4337" lon="2.40995">
        <ele>366.8</ele>
        <time>2011-01-09T09:21:48Z</time>
      </trkpt>
      <trkpt lat="44.43365" lon="2.41007">
        <ele>366</ele>
        <time>2011-01-09T09:21:49Z</time>
      </trkpt>
      <trkpt lat="44.43358" lon="2.41019">
        <ele>365.4</ele>
        <time>2011-01-09T09:21:50Z</time>
      </trkpt>
      <trkpt lat="44.43352" lon="2.4103">
        <ele>364.1</ele>
        <time>2011-01-09T09:21:51Z</time>
      </trkpt>
      <trkpt lat="44.43346" lon="2.41042">
        <ele>363.1</ele>
        <time>2011-01-09T09:21:52Z</time>
      </trkpt>
      <trkpt lat="44.43339" lon="2.41054">
        <ele>362.4</ele>
        <time>2011-01-09T09:21:53Z</time>
      </trkpt>
      <trkpt lat="44.43332" lon="2.41066">
        <ele>361.8</ele>
        <time>2011-01-09T09:21:54Z</time>
      </trkpt>
      <trkpt lat="44.43326" lon="2.41079">
        <ele>361.4</ele>
        <time>2011-01-09T09:21:55Z</time>
      </trkpt>
      <trkpt lat="44.4332" lon="2.41091">
        <ele>361.1</ele>
        <time>2011-01-09T09:21:56Z</time>
      </trkpt>
      <trkpt lat="44.43313" lon="2.41103">
        <ele>359.3</ele>
        <time>2011-01-09T09:21:57Z</time>
      </trkpt>
      <trkpt lat="44.43306" lon="2.41114">
        <ele>357.9</ele>
        <time>2011-01-09T09:21:58Z</time>
      </trkpt>
      <trkpt lat="44.43298" lon="2.41124">
        <ele>356.9</ele>
        <time>2011-01-09T09:21:59Z</time>
      </trkpt>
      <trkpt lat="44.4329" lon="2.41133">
        <ele>355.8</ele>
        <time>2011-01-09T09:22:00Z</time>
      </trkpt>
      <trkpt lat="44.43282" lon="2.41141">
        <ele>354.9</ele>
        <time>2011-01-09T09:22:01Z</time>
      </trkpt>
      <trkpt lat="44.43276" lon="2.4115">
        <ele>354.3</ele>
        <time>2011-01-09T09:22:02Z</time>
      </trkpt>
      <trkpt lat="44.43271" lon="2.41162">
        <ele>352.7</ele>
        <time>2011-01-09T09:22:03Z</time>
      </trkpt>
      <trkpt lat="44.43267" lon="2.41174">
        <ele>351.4</ele>
        <time>2011-01-09T09:22:04Z</time>
      </trkpt>
      <trkpt lat="44.43262" lon="2.41187">
        <ele>350.5</ele>
        <time>2011-01-09T09:22:05Z</time>
      </trkpt>
      <trkpt lat="44.43259" lon="2.41199">
        <ele>349.8</ele>
        <time>2011-01-09T09:22:06Z</time>
      </trkpt>
      <trkpt lat="44.43255" lon="2.41208">
        <ele>348.1</ele>
        <time>2011-01-09T09:22:07Z</time>
      </trkpt>
      <trkpt lat="44.43252" lon="2.41216">
        <ele>346.9</ele>
        <time>2011-01-09T09:22:08Z</time>
      </trkpt>
      <trkpt lat="44.4325" lon="2.41222">
        <ele>345.9</ele>
        <time>2011-01-09T09:22:09Z</time>
      </trkpt>
      <trkpt lat="44.43248" lon="2.41226">
        <ele>342.2</ele>
        <time>2011-01-09T09:22:11Z</time>
      </trkpt>
      <trkpt lat="44.43246" lon="2.41232">
        <ele>336.3</ele>
        <time>2011-01-09T09:22:26Z</time>
      </trkpt>
      <trkpt lat="44.43246" lon="2.41232">
        <ele>336.3</ele>
        <time>2011-01-09T09:22:27Z</time>
      </trkpt>
      <trkpt lat="44.43246" lon="2.41236">
        <ele>337.3</ele>
        <time>2011-01-09T09:23:53Z</time>
      </trkpt>
      <trkpt lat="44.43245" lon="2.41235">
        <ele>337.5</ele>
        <time>2011-01-09T09:23:54Z</time>
      </trkpt>
      <trkpt lat="44.4325" lon="2.41236">
        <ele>337.2</ele>
        <time>2011-01-09T09:26:07Z</time>
      </trkpt>
      <trkpt lat="44.4325" lon="2.41238">
        <ele>335.9</ele>
        <time>2011-01-09T09:27:18Z</time>
      </trkpt>
      <trkpt lat="44.43249" lon="2.41237">
        <ele>335.8</ele>
        <time>2011-01-09T09:27:19Z</time>
      </trkpt>
      <trkpt lat="44.4325" lon="2.41244">
        <ele>335</ele>
        <time>2011-01-09T09:28:53Z</time>
      </trkpt>
      <trkpt lat="44.43244" lon="2.41236">
        <ele>336.4</ele>
        <time>2011-01-09T09:29:43Z</time>
      </trkpt>
      <trkpt lat="44.43242" lon="2.41234">
        <ele>336.7</ele>
        <time>2011-01-09T09:29:44Z</time>
      </trkpt>
      <trkpt lat="44.43239" lon="2.41232">
        <ele>336.9</ele>
        <time>2011-01-09T09:29:45Z</time>
      </trkpt>
      <trkpt lat="44.43236" lon="2.4123">
        <ele>336.7</ele>
        <time>2011-01-09T09:29:46Z</time>
      </trkpt>
      <trkpt lat="44.43233" lon="2.41228">
        <ele>336.6</ele>
        <time>2011-01-09T09:29:47Z</time>
      </trkpt>
      <trkpt lat="44.4323" lon="2.41226">
        <ele>336.4</ele>
        <time>2011-01-09T09:29:48Z</time>
      </trkpt>
      <trkpt lat="44.43227" lon="2.41223">
        <ele>336.3</ele>
        <time>2011-01-09T09:29:49Z</time>
      </trkpt>
      <trkpt lat="44.43224" lon="2.4122">
        <ele>336.2</ele>
        <time>2011-01-09T09:29:50Z</time>
      </trkpt>
      <trkpt lat="44.43221" lon="2.41218">
        <ele>336.1</ele>
        <time>2011-01-09T09:29:51Z</time>
      </trkpt>
      <trkpt lat="44.43218" lon="2.41216">
        <ele>336.1</ele>
        <time>2011-01-09T09:29:52Z</time>
      </trkpt>
      <trkpt lat="44.43214" lon="2.41214">
        <ele>335.8</ele>
        <time>2011-01-09T09:29:53Z</time>
      </trkpt>
      <trkpt lat="44.4321" lon="2.41212">
        <ele>335.7</ele>
        <time>2011-01-09T09:29:54Z</time>
      </trkpt>
      <trkpt lat="44.43207" lon="2.4121">
        <ele>335.5</ele>
        <time>2011-01-09T09:29:55Z</time>
      </trkpt>
      <trkpt lat="44.43203" lon="2.41209">
        <ele>335.5</ele>
        <time>2011-01-09T09:29:56Z</time>
      </trkpt>
      <trkpt lat="44.43199" lon="2.41207">
        <ele>335.6</ele>
        <time>2011-01-09T09:29:57Z</time>
      </trkpt>
      <trkpt lat="44.43195" lon="2.41205">
        <ele>335.6</ele>
        <time>2011-01-09T09:29:58Z</time>
      </trkpt>
      <trkpt lat="44.43191" lon="2.41204">
        <ele>335.7</ele>
        <time>2011-01-09T09:29:59Z</time>
      </trkpt>
      <trkpt lat="44.43187" lon="2.41202">
        <ele>335.8</ele>
        <time>2011-01-09T09:30:00Z</time>
      </trkpt>
      <trkpt lat="44.43183" lon="2.41201">
        <ele>335.9</ele>
        <time>2011-01-09T09:30:01Z</time>
      </trkpt>
      <trkpt lat="44.43179" lon="2.412">
        <ele>336</ele>
        <time>2011-01-09T09:30:02Z</time>
      </trkpt>
      <trkpt lat="44.43175" lon="2.41198">
        <ele>336.1</ele>
        <time>2011-01-09T09:30:03Z</time>
      </trkpt>
      <trkpt lat="44.43171" lon="2.41197">
        <ele>336.2</ele>
        <time>2011-01-09T09:30:04Z</time>
      </trkpt>
      <trkpt lat="44.43166" lon="2.41196">
        <ele>336.3</ele>
        <time>2011-01-09T09:30:05Z</time>
      </trkpt>
      <trkpt lat="44.43162" lon="2.41195">
        <ele>336.4</ele>
        <time>2011-01-09T09:30:06Z</time>
      </trkpt>
      <trkpt lat="44.43158" lon="2.41194">
        <ele>336.5</ele>
        <time>2011-01-09T09:30:07Z</time>
      </trkpt>
      <trkpt lat="44.43154" lon="2.41193">
        <ele>336.5</ele>
        <time>2011-01-09T09:30:08Z</time>
      </trkpt>
      <trkpt lat="44.4315" lon="2.41192">
        <ele>336.7</ele>
        <time>2011-01-09T09:30:09Z</time>
      </trkpt>
      <trkpt lat="44.43146" lon="2.41192">
        <ele>336.8</ele>
        <time>2011-01-09T09:30:10Z</time>
      </trkpt>
      <trkpt lat="44.43142" lon="2.41191">
        <ele>336.9</ele>
        <time>2011-01-09T09:30:11Z</time>
      </trkpt>
      <trkpt lat="44.43138" lon="2.41191">
        <ele>336.8</ele>
        <time>2011-01-09T09:30:12Z</time>
      </trkpt>
      <trkpt lat="44.43135" lon="2.41191">
        <ele>336.7</ele>
        <time>2011-01-09T09:30:13Z</time>
      </trkpt>
      <trkpt lat="44.43131" lon="2.4119">
        <ele>336.6</ele>
        <time>2011-01-09T09:30:14Z</time>
      </trkpt>
      <trkpt lat="44.43128" lon="2.41189">
        <ele>336.5</ele>
        <time>2011-01-09T09:30:15Z</time>
      </trkpt>
      <trkpt lat="44.43124" lon="2.41189">
        <ele>336.4</ele>
        <time>2011-01-09T09:30:16Z</time>
      </trkpt>
      <trkpt lat="44.4312" lon="2.41189">
        <ele>336.3</ele>
        <time>2011-01-09T09:30:17Z</time>
      </trkpt>
      <trkpt lat="44.43117" lon="2.41188">
        <ele>336.3</ele>
        <time>2011-01-09T09:30:18Z</time>
      </trkpt>
      <trkpt lat="44.43113" lon="2.41188">
        <ele>336.4</ele>
        <time>2011-01-09T09:30:19Z</time>
      </trkpt>
      <trkpt lat="44.4311" lon="2.41188">
        <ele>336.4</ele>
        <time>2011-01-09T09:30:20Z</time>
      </trkpt>
      <trkpt lat="44.43106" lon="2.41187">
        <ele>336.3</ele>
        <time>2011-01-09T09:30:21Z</time>
      </trkpt>
      <trkpt lat="44.43103" lon="2.41187">
        <ele>336.3</ele>
        <time>2011-01-09T09:30:22Z</time>
      </trkpt>
      <trkpt lat="44.43099" lon="2.41187">
        <ele>336.2</ele>
        <time>2011-01-09T09:30:23Z</time>
      </trkpt>
      <trkpt lat="44.43096" lon="2.41186">
        <ele>336.4</ele>
        <time>2011-01-09T09:30:24Z</time>
      </trkpt>
      <trkpt lat="44.43092" lon="2.41185">
        <ele>336.5</ele>
        <time>2011-01-09T09:30:25Z</time>
      </trkpt>
      <trkpt lat="44.43089" lon="2.41185">
        <ele>336.6</ele>
        <time>2011-01-09T09:30:26Z</time>
      </trkpt>
      <trkpt lat="44.43085" lon="2.41184">
        <ele>336.6</ele>
        <time>2011-01-09T09:30:27Z</time>
      </trkpt>
      <trkpt lat="44.43081" lon="2.41183">
        <ele>336.5</ele>
        <time>2011-01-09T09:30:28Z</time>
      </trkpt>
      <trkpt lat="44.43078" lon="2.41182">
        <ele>336.4</ele>
        <time>2011-01-09T09:30:29Z</time>
      </trkpt>
      <trkpt lat="44.43074" lon="2.41181">
        <ele>336.3</ele>
        <time>2011-01-09T09:30:30Z</time>
      </trkpt>
      <trkpt lat="44.4307" lon="2.41181">
        <ele>336.2</ele>
        <time>2011-01-09T09:30:31Z</time>
      </trkpt>
      <trkpt lat="44.43066" lon="2.4118">
        <ele>336.2</ele>
        <time>2011-01-09T09:30:32Z</time>
      </trkpt>
      <trkpt lat="44.43063" lon="2.4118">
        <ele>336.1</ele>
        <time>2011-01-09T09:30:33Z</time>
      </trkpt>
      <trkpt lat="44.43059" lon="2.4118">
        <ele>336.5</ele>
        <time>2011-01-09T09:30:34Z</time>
      </trkpt>
      <trkpt lat="44.43055" lon="2.4118">
        <ele>336.8</ele>
        <time>2011-01-09T09:30:35Z</time>
      </trkpt>
      <trkpt lat="44.43051" lon="2.41181">
        <ele>337</ele>
        <time>2011-01-09T09:30:36Z</time>
      </trkpt>
      <trkpt lat="44.43048" lon="2.41182">
        <ele>337</ele>
        <time>2011-01-09T09:30:37Z</time>
      </trkpt>
      <trkpt lat="44.43044" lon="2.41183">
        <ele>337</ele>
        <time>2011-01-09T09:30:38Z</time>
      </trkpt>
      <trkpt lat="44.43041" lon="2.41185">
        <ele>337</ele>
        <time>2011-01-09T09:30:39Z</time>
      </trkpt>
      <trkpt lat="44.43037" lon="2.41186">
        <ele>337.1</ele>
        <time>2011-01-09T09:30:40Z</time>
      </trkpt>
      <trkpt lat="44.43034" lon="2.41187">
        <ele>337.1</ele>
        <time>2011-01-09T09:30:41Z</time>
      </trkpt>
      <trkpt lat="44.43031" lon="2.41189">
        <ele>337.1</ele>
        <time>2011-01-09T09:30:42Z</time>
      </trkpt>
      <trkpt lat="44.43027" lon="2.4119">
        <ele>337.1</ele>
        <time>2011-01-09T09:30:43Z</time>
      </trkpt>
      <trkpt lat="44.43024" lon="2.41192">
        <ele>337.4</ele>
        <time>2011-01-09T09:30:44Z</time>
      </trkpt>
      <trkpt lat="44.43021" lon="2.41194">
        <ele>337.6</ele>
        <time>2011-01-09T09:30:45Z</time>
      </trkpt>
      <trkpt lat="44.43017" lon="2.41196">
        <ele>337.8</ele>
        <time>2011-01-09T09:30:46Z</time>
      </trkpt>
      <trkpt lat="44.43013" lon="2.41198">
        <ele>337.6</ele>
        <time>2011-01-09T09:30:47Z</time>
      </trkpt>
      <trkpt lat="44.4301" lon="2.41199">
        <ele>337.5</ele>
        <time>2011-01-09T09:30:48Z</time>
      </trkpt>
      <trkpt lat="44.43007" lon="2.41201">
        <ele>337.5</ele>
        <time>2011-01-09T09:30:49Z</time>
      </trkpt>
      <trkpt lat="44.43003" lon="2.41203">
        <ele>337.2</ele>
        <time>2011-01-09T09:30:50Z</time>
      </trkpt>
      <trkpt lat="44.43" lon="2.41204">
        <ele>337</ele>
        <time>2011-01-09T09:30:51Z</time>
      </trkpt>
      <trkpt lat="44.42997" lon="2.41205">
        <ele>336.8</ele>
        <time>2011-01-09T09:30:52Z</time>
      </trkpt>
      <trkpt lat="44.42993" lon="2.41205">
        <ele>337.2</ele>
        <time>2011-01-09T09:30:53Z</time>
      </trkpt>
      <trkpt lat="44.42989" lon="2.41206">
        <ele>337.4</ele>
        <time>2011-01-09T09:30:54Z</time>
      </trkpt>
      <trkpt lat="44.42985" lon="2.41206">
        <ele>337.6</ele>
        <time>2011-01-09T09:30:55Z</time>
      </trkpt>
      <trkpt lat="44.42981" lon="2.41206">
        <ele>338</ele>
        <time>2011-01-09T09:30:56Z</time>
      </trkpt>
      <trkpt lat="44.42977" lon="2.41205">
        <ele>338.4</ele>
        <time>2011-01-09T09:30:57Z</time>
      </trkpt>
      <trkpt lat="44.42973" lon="2.41204">
        <ele>338.6</ele>
        <time>2011-01-09T09:30:58Z</time>
      </trkpt>
      <trkpt lat="44.42969" lon="2.41203">
        <ele>338.8</ele>
        <time>2011-01-09T09:30:59Z</time>
      </trkpt>
      <trkpt lat="44.42965" lon="2.41202">
        <ele>338.8</ele>
        <time>2011-01-09T09:31:00Z</time>
      </trkpt>
      <trkpt lat="44.4296" lon="2.412">
        <ele>338.9</ele>
        <time>2011-01-09T09:31:01Z</time>
      </trkpt>
      <trkpt lat="44.42956" lon="2.41198">
        <ele>338.9</ele>
        <time>2011-01-09T09:31:02Z</time>
      </trkpt>
      <trkpt lat="44.42952" lon="2.41196">
        <ele>339</ele>
        <time>2011-01-09T09:31:03Z</time>
      </trkpt>
      <trkpt lat="44.42948" lon="2.41195">
        <ele>339.1</ele>
        <time>2011-01-09T09:31:04Z</time>
      </trkpt>
      <trkpt lat="44.42944" lon="2.41193">
        <ele>339.2</ele>
        <time>2011-01-09T09:31:05Z</time>
      </trkpt>
      <trkpt lat="44.4294" lon="2.41191">
        <ele>339.4</ele>
        <time>2011-01-09T09:31:06Z</time>
      </trkpt>
      <trkpt lat="44.42936" lon="2.41189">
        <ele>339.5</ele>
        <time>2011-01-09T09:31:07Z</time>
      </trkpt>
      <trkpt lat="44.42932" lon="2.41187">
        <ele>339.6</ele>
        <time>2011-01-09T09:31:08Z</time>
      </trkpt>
      <trkpt lat="44.42927" lon="2.41185">
        <ele>339.9</ele>
        <time>2011-01-09T09:31:09Z</time>
      </trkpt>
      <trkpt lat="44.42923" lon="2.41184">
        <ele>340.2</ele>
        <time>2011-01-09T09:31:10Z</time>
      </trkpt>
      <trkpt lat="44.42918" lon="2.41183">
        <ele>340.3</ele>
        <time>2011-01-09T09:31:11Z</time>
      </trkpt>
      <trkpt lat="44.42914" lon="2.41181">
        <ele>340.6</ele>
        <time>2011-01-09T09:31:12Z</time>
      </trkpt>
      <trkpt lat="44.4291" lon="2.4118">
        <ele>340.8</ele>
        <time>2011-01-09T09:31:13Z</time>
      </trkpt>
      <trkpt lat="44.42906" lon="2.41178">
        <ele>341</ele>
        <time>2011-01-09T09:31:14Z</time>
      </trkpt>
      <trkpt lat="44.42902" lon="2.41176">
        <ele>341.1</ele>
        <time>2011-01-09T09:31:15Z</time>
      </trkpt>
      <trkpt lat="44.42898" lon="2.41174">
        <ele>340.8</ele>
        <time>2011-01-09T09:31:16Z</time>
      </trkpt>
      <trkpt lat="44.42894" lon="2.41172">
        <ele>340.5</ele>
        <time>2011-01-09T09:31:17Z</time>
      </trkpt>
      <trkpt lat="44.4289" lon="2.4117">
        <ele>340.3</ele>
        <time>2011-01-09T09:31:18Z</time>
      </trkpt>
      <trkpt lat="44.42886" lon="2.41168">
        <ele>340.4</ele>
        <time>2011-01-09T09:31:19Z</time>
      </trkpt>
      <trkpt lat="44.42882" lon="2.41166">
        <ele>340.4</ele>
        <time>2011-01-09T09:31:20Z</time>
      </trkpt>
      <trkpt lat="44.42879" lon="2.41164">
        <ele>340.4</ele>
        <time>2011-01-09T09:31:21Z</time>
      </trkpt>
      <trkpt lat="44.42875" lon="2.41163">
        <ele>341.2</ele>
        <time>2011-01-09T09:31:22Z</time>
      </trkpt>
      <trkpt lat="44.42871" lon="2.41161">
        <ele>341.9</ele>
        <time>2011-01-09T09:31:23Z</time>
      </trkpt>
      <trkpt lat="44.42867" lon="2.4116">
        <ele>342.4</ele>
        <time>2011-01-09T09:31:24Z</time>
      </trkpt>
      <trkpt lat="44.42864" lon="2.41158">
        <ele>342.7</ele>
        <time>2011-01-09T09:31:25Z</time>
      </trkpt>
      <trkpt lat="44.4286" lon="2.41157">
        <ele>343</ele>
        <time>2011-01-09T09:31:26Z</time>
      </trkpt>
      <trkpt lat="44.42856" lon="2.41155">
        <ele>343.2</ele>
        <time>2011-01-09T09:31:27Z</time>
      </trkpt>
      <trkpt lat="44.42853" lon="2.41153">
        <ele>343</ele>
        <time>2011-01-09T09:31:28Z</time>
      </trkpt>
      <trkpt lat="44.4285" lon="2.41151">
        <ele>342.9</ele>
        <time>2011-01-09T09:31:29Z</time>
      </trkpt>
      <trkpt lat="44.42846" lon="2.41148">
        <ele>342.8</ele>
        <time>2011-01-09T09:31:30Z</time>
      </trkpt>
      <trkpt lat="44.42842" lon="2.41146">
        <ele>342.7</ele>
        <time>2011-01-09T09:31:31Z</time>
      </trkpt>
      <trkpt lat="44.42839" lon="2.41144">
        <ele>342.6</ele>
        <time>2011-01-09T09:31:32Z</time>
      </trkpt>
      <trkpt lat="44.42835" lon="2.41142">
        <ele>342.5</ele>
        <time>2011-01-09T09:31:33Z</time>
      </trkpt>
      <trkpt lat="44.42832" lon="2.4114">
        <ele>342.4</ele>
        <time>2011-01-09T09:31:34Z</time>
      </trkpt>
      <trkpt lat="44.42828" lon="2.41139">
        <ele>342.6</ele>
        <time>2011-01-09T09:31:35Z</time>
      </trkpt>
      <trkpt lat="44.42825" lon="2.41137">
        <ele>342.8</ele>
        <time>2011-01-09T09:31:36Z</time>
      </trkpt>
      <trkpt lat="44.42822" lon="2.41135">
        <ele>342.9</ele>
        <time>2011-01-09T09:31:37Z</time>
      </trkpt>
      <trkpt lat="44.42818" lon="2.41133">
        <ele>343.1</ele>
        <time>2011-01-09T09:31:38Z</time>
      </trkpt>
      <trkpt lat="44.42815" lon="2.41131">
        <ele>343.2</ele>
        <time>2011-01-09T09:31:39Z</time>
      </trkpt>
      <trkpt lat="44.42811" lon="2.41129">
        <ele>343.4</ele>
        <time>2011-01-09T09:31:40Z</time>
      </trkpt>
      <trkpt lat="44.42808" lon="2.41127">
        <ele>343.7</ele>
        <time>2011-01-09T09:31:41Z</time>
      </trkpt>
      <trkpt lat="44.42804" lon="2.41125">
        <ele>344</ele>
        <time>2011-01-09T09:31:42Z</time>
      </trkpt>
      <trkpt lat="44.428" lon="2.41123">
        <ele>344.2</ele>
        <time>2011-01-09T09:31:43Z</time>
      </trkpt>
      <trkpt lat="44.42797" lon="2.41121">
        <ele>343.9</ele>
        <time>2011-01-09T09:31:44Z</time>
      </trkpt>
      <trkpt lat="44.42793" lon="2.4112">
        <ele>343.7</ele>
        <time>2011-01-09T09:31:45Z</time>
      </trkpt>
      <trkpt lat="44.4279" lon="2.41118">
        <ele>343.5</ele>
        <time>2011-01-09T09:31:46Z</time>
      </trkpt>
      <trkpt lat="44.42786" lon="2.41116">
        <ele>343.6</ele>
        <time>2011-01-09T09:31:47Z</time>
      </trkpt>
      <trkpt lat="44.42783" lon="2.41115">
        <ele>343.7</ele>
        <time>2011-01-09T09:31:48Z</time>
      </trkpt>
      <trkpt lat="44.4278" lon="2.41114">
        <ele>343.8</ele>
        <time>2011-01-09T09:31:49Z</time>
      </trkpt>
      <trkpt lat="44.42777" lon="2.41113">
        <ele>343.8</ele>
        <time>2011-01-09T09:31:50Z</time>
      </trkpt>
      <trkpt lat="44.42773" lon="2.41111">
        <ele>343.7</ele>
        <time>2011-01-09T09:31:51Z</time>
      </trkpt>
      <trkpt lat="44.4277" lon="2.41109">
        <ele>343.5</ele>
        <time>2011-01-09T09:31:52Z</time>
      </trkpt>
      <trkpt lat="44.42767" lon="2.41107">
        <ele>343.5</ele>
        <time>2011-01-09T09:31:53Z</time>
      </trkpt>
      <trkpt lat="44.42764" lon="2.41106">
        <ele>343.9</ele>
        <time>2011-01-09T09:31:54Z</time>
      </trkpt>
      <trkpt lat="44.42761" lon="2.41104">
        <ele>344.2</ele>
        <time>2011-01-09T09:31:55Z</time>
      </trkpt>
      <trkpt lat="44.42758" lon="2.41103">
        <ele>344.4</ele>
        <time>2011-01-09T09:31:56Z</time>
      </trkpt>
      <trkpt lat="44.42754" lon="2.411">
        <ele>344.6</ele>
        <time>2011-01-09T09:31:58Z</time>
      </trkpt>
      <trkpt lat="44.42751" lon="2.41099">
        <ele>344.7</ele>
        <time>2011-01-09T09:31:59Z</time>
      </trkpt>
      <trkpt lat="44.42749" lon="2.41098">
        <ele>344.4</ele>
        <time>2011-01-09T09:32:00Z</time>
      </trkpt>
      <trkpt lat="44.42746" lon="2.41097">
        <ele>344.1</ele>
        <time>2011-01-09T09:32:01Z</time>
      </trkpt>
      <trkpt lat="44.42743" lon="2.41095">
        <ele>343.9</ele>
        <time>2011-01-09T09:32:02Z</time>
      </trkpt>
      <trkpt lat="44.42741" lon="2.41093">
        <ele>344.2</ele>
        <time>2011-01-09T09:32:03Z</time>
      </trkpt>
      <trkpt lat="44.42737" lon="2.4109">
        <ele>344.6</ele>
        <time>2011-01-09T09:32:06Z</time>
      </trkpt>
      <trkpt lat="44.42734" lon="2.41089">
        <ele>344.3</ele>
        <time>2011-01-09T09:32:08Z</time>
      </trkpt>
      <trkpt lat="44.4273" lon="2.4109">
        <ele>344.2</ele>
        <time>2011-01-09T09:32:10Z</time>
      </trkpt>
      <trkpt lat="44.42726" lon="2.41091">
        <ele>344.2</ele>
        <time>2011-01-09T09:32:11Z</time>
      </trkpt>
      <trkpt lat="44.42724" lon="2.41093">
        <ele>344.2</ele>
        <time>2011-01-09T09:32:12Z</time>
      </trkpt>
      <trkpt lat="44.42722" lon="2.41095">
        <ele>344.3</ele>
        <time>2011-01-09T09:32:13Z</time>
      </trkpt>
      <trkpt lat="44.42719" lon="2.41097">
        <ele>344.3</ele>
        <time>2011-01-09T09:32:14Z</time>
      </trkpt>
      <trkpt lat="44.42717" lon="2.411">
        <ele>344.4</ele>
        <time>2011-01-09T09:32:15Z</time>
      </trkpt>
      <trkpt lat="44.42716" lon="2.41104">
        <ele>344.4</ele>
        <time>2011-01-09T09:32:16Z</time>
      </trkpt>
      <trkpt lat="44.42714" lon="2.41108">
        <ele>344.3</ele>
        <time>2011-01-09T09:32:17Z</time>
      </trkpt>
      <trkpt lat="44.42712" lon="2.41112">
        <ele>344.3</ele>
        <time>2011-01-09T09:32:18Z</time>
      </trkpt>
      <trkpt lat="44.4271" lon="2.41116">
        <ele>344</ele>
        <time>2011-01-09T09:32:19Z</time>
      </trkpt>
      <trkpt lat="44.42708" lon="2.4112">
        <ele>343.8</ele>
        <time>2011-01-09T09:32:20Z</time>
      </trkpt>
      <trkpt lat="44.42707" lon="2.41124">
        <ele>343.7</ele>
        <time>2011-01-09T09:32:21Z</time>
      </trkpt>
      <trkpt lat="44.42705" lon="2.41128">
        <ele>343.6</ele>
        <time>2011-01-09T09:32:22Z</time>
      </trkpt>
      <trkpt lat="44.42704" lon="2.41132">
        <ele>343.4</ele>
        <time>2011-01-09T09:32:23Z</time>
      </trkpt>
      <trkpt lat="44.42702" lon="2.41136">
        <ele>343.2</ele>
        <time>2011-01-09T09:32:24Z</time>
      </trkpt>
      <trkpt lat="44.42701" lon="2.4114">
        <ele>343.1</ele>
        <time>2011-01-09T09:32:25Z</time>
      </trkpt>
      <trkpt lat="44.42699" lon="2.41144">
        <ele>342.9</ele>
        <time>2011-01-09T09:32:26Z</time>
      </trkpt>
      <trkpt lat="44.42697" lon="2.4115">
        <ele>342.8</ele>
        <time>2011-01-09T09:32:27Z</time>
      </trkpt>
      <trkpt lat="44.42695" lon="2.41155">
        <ele>342.7</ele>
        <time>2011-01-09T09:32:28Z</time>
      </trkpt>
      <trkpt lat="44.42694" lon="2.4116">
        <ele>342.6</ele>
        <time>2011-01-09T09:32:29Z</time>
      </trkpt>
      <trkpt lat="44.42692" lon="2.41166">
        <ele>342.6</ele>
        <time>2011-01-09T09:32:30Z</time>
      </trkpt>
      <trkpt lat="44.42691" lon="2.41171">
        <ele>342.6</ele>
        <time>2011-01-09T09:32:31Z</time>
      </trkpt>
      <trkpt lat="44.42689" lon="2.41177">
        <ele>342</ele>
        <time>2011-01-09T09:32:32Z</time>
      </trkpt>
      <trkpt lat="44.42687" lon="2.41183">
        <ele>341.5</ele>
        <time>2011-01-09T09:32:33Z</time>
      </trkpt>
      <trkpt lat="44.42685" lon="2.41189">
        <ele>341.1</ele>
        <time>2011-01-09T09:32:34Z</time>
      </trkpt>
      <trkpt lat="44.42684" lon="2.41195">
        <ele>341</ele>
        <time>2011-01-09T09:32:35Z</time>
      </trkpt>
      <trkpt lat="44.42684" lon="2.41201">
        <ele>341</ele>
        <time>2011-01-09T09:32:36Z</time>
      </trkpt>
      <trkpt lat="44.42684" lon="2.41207">
        <ele>340.9</ele>
        <time>2011-01-09T09:32:37Z</time>
      </trkpt>
      <trkpt lat="44.42684" lon="2.41213">
        <ele>340.9</ele>
        <time>2011-01-09T09:32:38Z</time>
      </trkpt>
      <trkpt lat="44.42683" lon="2.41219">
        <ele>341</ele>
        <time>2011-01-09T09:32:39Z</time>
      </trkpt>
      <trkpt lat="44.42681" lon="2.41225">
        <ele>341</ele>
        <time>2011-01-09T09:32:40Z</time>
      </trkpt>
      <trkpt lat="44.4268" lon="2.41231">
        <ele>341.1</ele>
        <time>2011-01-09T09:32:41Z</time>
      </trkpt>
      <trkpt lat="44.42679" lon="2.41236">
        <ele>340.9</ele>
        <time>2011-01-09T09:32:42Z</time>
      </trkpt>
      <trkpt lat="44.42677" lon="2.41241">
        <ele>340.8</ele>
        <time>2011-01-09T09:32:43Z</time>
      </trkpt>
      <trkpt lat="44.42676" lon="2.41246">
        <ele>340.8</ele>
        <time>2011-01-09T09:32:44Z</time>
      </trkpt>
      <trkpt lat="44.42674" lon="2.41252">
        <ele>340.8</ele>
        <time>2011-01-09T09:32:45Z</time>
      </trkpt>
      <trkpt lat="44.42672" lon="2.41257">
        <ele>340.9</ele>
        <time>2011-01-09T09:32:46Z</time>
      </trkpt>
      <trkpt lat="44.4267" lon="2.41262">
        <ele>340.9</ele>
        <time>2011-01-09T09:32:47Z</time>
      </trkpt>
      <trkpt lat="44.42669" lon="2.41267">
        <ele>340.8</ele>
        <time>2011-01-09T09:32:48Z</time>
      </trkpt>
      <trkpt lat="44.42667" lon="2.41272">
        <ele>340.7</ele>
        <time>2011-01-09T09:32:49Z</time>
      </trkpt>
      <trkpt lat="44.42665" lon="2.41278">
        <ele>340.6</ele>
        <time>2011-01-09T09:32:50Z</time>
      </trkpt>
      <trkpt lat="44.42664" lon="2.41283">
        <ele>340.2</ele>
        <time>2011-01-09T09:32:51Z</time>
      </trkpt>
      <trkpt lat="44.42662" lon="2.41289">
        <ele>340</ele>
        <time>2011-01-09T09:32:52Z</time>
      </trkpt>
      <trkpt lat="44.42659" lon="2.41295">
        <ele>339.8</ele>
        <time>2011-01-09T09:32:53Z</time>
      </trkpt>
      <trkpt lat="44.42657" lon="2.413">
        <ele>339.6</ele>
        <time>2011-01-09T09:32:54Z</time>
      </trkpt>
      <trkpt lat="44.42654" lon="2.41305">
        <ele>339.4</ele>
        <time>2011-01-09T09:32:55Z</time>
      </trkpt>
      <trkpt lat="44.4265" lon="2.41308">
        <ele>339.2</ele>
        <time>2011-01-09T09:32:56Z</time>
      </trkpt>
      <trkpt lat="44.42646" lon="2.41311">
        <ele>339</ele>
        <time>2011-01-09T09:32:57Z</time>
      </trkpt>
      <trkpt lat="44.42641" lon="2.41313">
        <ele>338.9</ele>
        <time>2011-01-09T09:32:58Z</time>
      </trkpt>
      <trkpt lat="44.42637" lon="2.41314">
        <ele>338.8</ele>
        <time>2011-01-09T09:32:59Z</time>
      </trkpt>
      <trkpt lat="44.42632" lon="2.41315">
        <ele>338.8</ele>
        <time>2011-01-09T09:33:00Z</time>
      </trkpt>
      <trkpt lat="44.42627" lon="2.41315">
        <ele>338.9</ele>
        <time>2011-01-09T09:33:01Z</time>
      </trkpt>
      <trkpt lat="44.42622" lon="2.41315">
        <ele>339</ele>
        <time>2011-01-09T09:33:02Z</time>
      </trkpt>
      <trkpt lat="44.42617" lon="2.41314">
        <ele>339.1</ele>
        <time>2011-01-09T09:33:03Z</time>
      </trkpt>
      <trkpt lat="44.42613" lon="2.41313">
        <ele>339</ele>
        <time>2011-01-09T09:33:04Z</time>
      </trkpt>
      <trkpt lat="44.42609" lon="2.41312">
        <ele>339</ele>
        <time>2011-01-09T09:33:05Z</time>
      </trkpt>
      <trkpt lat="44.42604" lon="2.41311">
        <ele>339</ele>
        <time>2011-01-09T09:33:06Z</time>
      </trkpt>
      <trkpt lat="44.426" lon="2.4131">
        <ele>339.1</ele>
        <time>2011-01-09T09:33:07Z</time>
      </trkpt>
      <trkpt lat="44.42595" lon="2.4131">
        <ele>339.1</ele>
        <time>2011-01-09T09:33:08Z</time>
      </trkpt>
      <trkpt lat="44.42592" lon="2.41309">
        <ele>339.1</ele>
        <time>2011-01-09T09:33:09Z</time>
      </trkpt>
      <trkpt lat="44.42588" lon="2.41308">
        <ele>339.1</ele>
        <time>2011-01-09T09:33:10Z</time>
      </trkpt>
      <trkpt lat="44.42584" lon="2.41307">
        <ele>339</ele>
        <time>2011-01-09T09:33:11Z</time>
      </trkpt>
      <trkpt lat="44.4258" lon="2.41306">
        <ele>339</ele>
        <time>2011-01-09T09:33:12Z</time>
      </trkpt>
      <trkpt lat="44.42576" lon="2.41306">
        <ele>339</ele>
        <time>2011-01-09T09:33:13Z</time>
      </trkpt>
      <trkpt lat="44.42572" lon="2.41306">
        <ele>339.1</ele>
        <time>2011-01-09T09:33:14Z</time>
      </trkpt>
      <trkpt lat="44.42569" lon="2.41306">
        <ele>339.3</ele>
        <time>2011-01-09T09:33:15Z</time>
      </trkpt>
      <trkpt lat="44.42565" lon="2.41306">
        <ele>339.4</ele>
        <time>2011-01-09T09:33:16Z</time>
      </trkpt>
      <trkpt lat="44.42562" lon="2.41306">
        <ele>339</ele>
        <time>2011-01-09T09:33:17Z</time>
      </trkpt>
      <trkpt lat="44.42559" lon="2.41306">
        <ele>338.8</ele>
        <time>2011-01-09T09:33:18Z</time>
      </trkpt>
      <trkpt lat="44.42556" lon="2.41307">
        <ele>338.6</ele>
        <time>2011-01-09T09:33:19Z</time>
      </trkpt>
      <trkpt lat="44.42553" lon="2.41307">
        <ele>339.1</ele>
        <time>2011-01-09T09:33:20Z</time>
      </trkpt>
      <trkpt lat="44.4255" lon="2.41307">
        <ele>339.4</ele>
        <time>2011-01-09T09:33:21Z</time>
      </trkpt>
      <trkpt lat="44.42547" lon="2.41307">
        <ele>339.7</ele>
        <time>2011-01-09T09:33:22Z</time>
      </trkpt>
      <trkpt lat="44.42544" lon="2.41307">
        <ele>339.5</ele>
        <time>2011-01-09T09:33:23Z</time>
      </trkpt>
      <trkpt lat="44.42541" lon="2.41307">
        <ele>339.3</ele>
        <time>2011-01-09T09:33:24Z</time>
      </trkpt>
      <trkpt lat="44.42537" lon="2.41307">
        <ele>339.1</ele>
        <time>2011-01-09T09:33:25Z</time>
      </trkpt>
      <trkpt lat="44.42533" lon="2.41308">
        <ele>339.3</ele>
        <time>2011-01-09T09:33:26Z</time>
      </trkpt>
      <trkpt lat="44.4253" lon="2.41308">
        <ele>339.4</ele>
        <time>2011-01-09T09:33:27Z</time>
      </trkpt>
      <trkpt lat="44.42526" lon="2.41308">
        <ele>339.5</ele>
        <time>2011-01-09T09:33:28Z</time>
      </trkpt>
      <trkpt lat="44.42522" lon="2.41308">
        <ele>339.6</ele>
        <time>2011-01-09T09:33:29Z</time>
      </trkpt>
      <trkpt lat="44.42518" lon="2.41309">
        <ele>339.7</ele>
        <time>2011-01-09T09:33:30Z</time>
      </trkpt>
      <trkpt lat="44.42514" lon="2.41309">
        <ele>339.9</ele>
        <time>2011-01-09T09:33:31Z</time>
      </trkpt>
      <trkpt lat="44.4251" lon="2.4131">
        <ele>340</ele>
        <time>2011-01-09T09:33:32Z</time>
      </trkpt>
      <trkpt lat="44.42507" lon="2.4131">
        <ele>339.9</ele>
        <time>2011-01-09T09:33:33Z</time>
      </trkpt>
      <trkpt lat="44.42503" lon="2.41309">
        <ele>339.8</ele>
        <time>2011-01-09T09:33:34Z</time>
      </trkpt>
      <trkpt lat="44.42499" lon="2.41309">
        <ele>339.7</ele>
        <time>2011-01-09T09:33:35Z</time>
      </trkpt>
      <trkpt lat="44.42495" lon="2.41307">
        <ele>340</ele>
        <time>2011-01-09T09:33:36Z</time>
      </trkpt>
      <trkpt lat="44.42491" lon="2.41306">
        <ele>340.1</ele>
        <time>2011-01-09T09:33:37Z</time>
      </trkpt>
      <trkpt lat="44.42486" lon="2.41304">
        <ele>340.3</ele>
        <time>2011-01-09T09:33:38Z</time>
      </trkpt>
      <trkpt lat="44.42481" lon="2.41303">
        <ele>340.2</ele>
        <time>2011-01-09T09:33:39Z</time>
      </trkpt>
      <trkpt lat="44.42476" lon="2.41302">
        <ele>340.1</ele>
        <time>2011-01-09T09:33:40Z</time>
      </trkpt>
      <trkpt lat="44.42471" lon="2.41301">
        <ele>340.1</ele>
        <time>2011-01-09T09:33:41Z</time>
      </trkpt>
      <trkpt lat="44.42466" lon="2.413">
        <ele>340.1</ele>
        <time>2011-01-09T09:33:42Z</time>
      </trkpt>
      <trkpt lat="44.42461" lon="2.41299">
        <ele>340.1</ele>
        <time>2011-01-09T09:33:43Z</time>
      </trkpt>
      <trkpt lat="44.42456" lon="2.41297">
        <ele>340.2</ele>
        <time>2011-01-09T09:33:44Z</time>
      </trkpt>
      <trkpt lat="44.42451" lon="2.41296">
        <ele>340.2</ele>
        <time>2011-01-09T09:33:45Z</time>
      </trkpt>
      <trkpt lat="44.42446" lon="2.41295">
        <ele>340.2</ele>
        <time>2011-01-09T09:33:46Z</time>
      </trkpt>
      <trkpt lat="44.42441" lon="2.41295">
        <ele>340.1</ele>
        <time>2011-01-09T09:33:47Z</time>
      </trkpt>
      <trkpt lat="44.42436" lon="2.41294">
        <ele>340.1</ele>
        <time>2011-01-09T09:33:48Z</time>
      </trkpt>
      <trkpt lat="44.42431" lon="2.41293">
        <ele>340.1</ele>
        <time>2011-01-09T09:33:49Z</time>
      </trkpt>
      <trkpt lat="44.42426" lon="2.41293">
        <ele>340</ele>
        <time>2011-01-09T09:33:50Z</time>
      </trkpt>
      <trkpt lat="44.42421" lon="2.41294">
        <ele>340</ele>
        <time>2011-01-09T09:33:51Z</time>
      </trkpt>
      <trkpt lat="44.42416" lon="2.41293">
        <ele>339.9</ele>
        <time>2011-01-09T09:33:52Z</time>
      </trkpt>
      <trkpt lat="44.42411" lon="2.41292">
        <ele>339.7</ele>
        <time>2011-01-09T09:33:53Z</time>
      </trkpt>
      <trkpt lat="44.42406" lon="2.41291">
        <ele>339.6</ele>
        <time>2011-01-09T09:33:54Z</time>
      </trkpt>
      <trkpt lat="44.42401" lon="2.4129">
        <ele>340.2</ele>
        <time>2011-01-09T09:33:55Z</time>
      </trkpt>
      <trkpt lat="44.42396" lon="2.41289">
        <ele>340.6</ele>
        <time>2011-01-09T09:33:56Z</time>
      </trkpt>
      <trkpt lat="44.4239" lon="2.41288">
        <ele>340.9</ele>
        <time>2011-01-09T09:33:57Z</time>
      </trkpt>
      <trkpt lat="44.42385" lon="2.41287">
        <ele>341.3</ele>
        <time>2011-01-09T09:33:58Z</time>
      </trkpt>
      <trkpt lat="44.42379" lon="2.41285">
        <ele>341.6</ele>
        <time>2011-01-09T09:33:59Z</time>
      </trkpt>
      <trkpt lat="44.42374" lon="2.41283">
        <ele>341.9</ele>
        <time>2011-01-09T09:34:00Z</time>
      </trkpt>
      <trkpt lat="44.42369" lon="2.41281">
        <ele>342.1</ele>
        <time>2011-01-09T09:34:01Z</time>
      </trkpt>
      <trkpt lat="44.42364" lon="2.41279">
        <ele>341.9</ele>
        <time>2011-01-09T09:34:02Z</time>
      </trkpt>
      <trkpt lat="44.42359" lon="2.41278">
        <ele>341.9</ele>
        <time>2011-01-09T09:34:03Z</time>
      </trkpt>
      <trkpt lat="44.42354" lon="2.41276">
        <ele>341.8</ele>
        <time>2011-01-09T09:34:04Z</time>
      </trkpt>
      <trkpt lat="44.42349" lon="2.41275">
        <ele>341.5</ele>
        <time>2011-01-09T09:34:05Z</time>
      </trkpt>
      <trkpt lat="44.42344" lon="2.41275">
        <ele>341.3</ele>
        <time>2011-01-09T09:34:06Z</time>
      </trkpt>
      <trkpt lat="44.42339" lon="2.41274">
        <ele>341.1</ele>
        <time>2011-01-09T09:34:07Z</time>
      </trkpt>
      <trkpt lat="44.42334" lon="2.41274">
        <ele>341.1</ele>
        <time>2011-01-09T09:34:08Z</time>
      </trkpt>
      <trkpt lat="44.4233" lon="2.41274">
        <ele>341</ele>
        <time>2011-01-09T09:34:09Z</time>
      </trkpt>
      <trkpt lat="44.42325" lon="2.41275">
        <ele>341</ele>
        <time>2011-01-09T09:34:10Z</time>
      </trkpt>
      <trkpt lat="44.4232" lon="2.41276">
        <ele>341.1</ele>
        <time>2011-01-09T09:34:11Z</time>
      </trkpt>
      <trkpt lat="44.42315" lon="2.41278">
        <ele>341.1</ele>
        <time>2011-01-09T09:34:12Z</time>
      </trkpt>
      <trkpt lat="44.42311" lon="2.4128">
        <ele>341.2</ele>
        <time>2011-01-09T09:34:13Z</time>
      </trkpt>
      <trkpt lat="44.42306" lon="2.41282">
        <ele>341.6</ele>
        <time>2011-01-09T09:34:14Z</time>
      </trkpt>
      <trkpt lat="44.42302" lon="2.41285">
        <ele>341.9</ele>
        <time>2011-01-09T09:34:15Z</time>
      </trkpt>
      <trkpt lat="44.42298" lon="2.41287">
        <ele>342.2</ele>
        <time>2011-01-09T09:34:16Z</time>
      </trkpt>
      <trkpt lat="44.42294" lon="2.4129">
        <ele>341.7</ele>
        <time>2011-01-09T09:34:17Z</time>
      </trkpt>
      <trkpt lat="44.42289" lon="2.41293">
        <ele>341.3</ele>
        <time>2011-01-09T09:34:18Z</time>
      </trkpt>
      <trkpt lat="44.42285" lon="2.41296">
        <ele>341</ele>
        <time>2011-01-09T09:34:19Z</time>
      </trkpt>
      <trkpt lat="44.42281" lon="2.41298">
        <ele>340.8</ele>
        <time>2011-01-09T09:34:20Z</time>
      </trkpt>
      <trkpt lat="44.42277" lon="2.413">
        <ele>341.3</ele>
        <time>2011-01-09T09:34:21Z</time>
      </trkpt>
      <trkpt lat="44.42272" lon="2.41302">
        <ele>341.8</ele>
        <time>2011-01-09T09:34:22Z</time>
      </trkpt>
      <trkpt lat="44.42268" lon="2.41304">
        <ele>342.1</ele>
        <time>2011-01-09T09:34:23Z</time>
      </trkpt>
      <trkpt lat="44.42264" lon="2.41305">
        <ele>342.1</ele>
        <time>2011-01-09T09:34:24Z</time>
      </trkpt>
      <trkpt lat="44.4226" lon="2.41307">
        <ele>342.2</ele>
        <time>2011-01-09T09:34:25Z</time>
      </trkpt>
      <trkpt lat="44.42256" lon="2.41308">
        <ele>342.2</ele>
        <time>2011-01-09T09:34:26Z</time>
      </trkpt>
      <trkpt lat="44.42251" lon="2.41308">
        <ele>342.4</ele>
        <time>2011-01-09T09:34:27Z</time>
      </trkpt>
      <trkpt lat="44.42247" lon="2.41309">
        <ele>342.6</ele>
        <time>2011-01-09T09:34:28Z</time>
      </trkpt>
      <trkpt lat="44.42243" lon="2.4131">
        <ele>342.7</ele>
        <time>2011-01-09T09:34:29Z</time>
      </trkpt>
      <trkpt lat="44.42238" lon="2.4131">
        <ele>343.2</ele>
        <time>2011-01-09T09:34:30Z</time>
      </trkpt>
      <trkpt lat="44.42234" lon="2.41311">
        <ele>343.7</ele>
        <time>2011-01-09T09:34:31Z</time>
      </trkpt>
      <trkpt lat="44.42229" lon="2.41312">
        <ele>344</ele>
        <time>2011-01-09T09:34:32Z</time>
      </trkpt>
      <trkpt lat="44.42225" lon="2.41314">
        <ele>343.8</ele>
        <time>2011-01-09T09:34:33Z</time>
      </trkpt>
      <trkpt lat="44.4222" lon="2.41315">
        <ele>343.7</ele>
        <time>2011-01-09T09:34:34Z</time>
      </trkpt>
      <trkpt lat="44.42216" lon="2.41317">
        <ele>343.6</ele>
        <time>2011-01-09T09:34:35Z</time>
      </trkpt>
      <trkpt lat="44.42212" lon="2.41319">
        <ele>343.5</ele>
        <time>2011-01-09T09:34:36Z</time>
      </trkpt>
      <trkpt lat="44.42208" lon="2.41322">
        <ele>343.6</ele>
        <time>2011-01-09T09:34:37Z</time>
      </trkpt>
      <trkpt lat="44.42204" lon="2.41324">
        <ele>343.6</ele>
        <time>2011-01-09T09:34:38Z</time>
      </trkpt>
      <trkpt lat="44.42201" lon="2.41327">
        <ele>343.6</ele>
        <time>2011-01-09T09:34:39Z</time>
      </trkpt>
      <trkpt lat="44.42197" lon="2.4133">
        <ele>344</ele>
        <time>2011-01-09T09:34:40Z</time>
      </trkpt>
      <trkpt lat="44.42195" lon="2.41332">
        <ele>344.2</ele>
        <time>2011-01-09T09:34:41Z</time>
      </trkpt>
      <trkpt lat="44.42191" lon="2.41334">
        <ele>344.7</ele>
        <time>2011-01-09T09:34:43Z</time>
      </trkpt>
      <trkpt lat="44.42188" lon="2.41336">
        <ele>344.9</ele>
        <time>2011-01-09T09:34:46Z</time>
      </trkpt>
      <trkpt lat="44.42185" lon="2.41338">
        <ele>344.7</ele>
        <time>2011-01-09T09:34:49Z</time>
      </trkpt>
      <trkpt lat="44.42181" lon="2.4134">
        <ele>344.4</ele>
        <time>2011-01-09T09:34:52Z</time>
      </trkpt>
      <trkpt lat="44.42184" lon="2.41338">
        <ele>344.5</ele>
        <time>2011-01-09T09:35:01Z</time>
      </trkpt>
      <trkpt lat="44.42186" lon="2.41337">
        <ele>344.7</ele>
        <time>2011-01-09T09:35:02Z</time>
      </trkpt>
      <trkpt lat="44.4219" lon="2.41331">
        <ele>344.6</ele>
        <time>2011-01-09T09:35:05Z</time>
      </trkpt>
      <trkpt lat="44.42189" lon="2.41326">
        <ele>344.1</ele>
        <time>2011-01-09T09:35:08Z</time>
      </trkpt>
      <trkpt lat="44.42185" lon="2.41325">
        <ele>344</ele>
        <time>2011-01-09T09:35:22Z</time>
      </trkpt>
      <trkpt lat="44.42189" lon="2.41326">
        <ele>343.4</ele>
        <time>2011-01-09T09:36:44Z</time>
      </trkpt>
      <trkpt lat="44.42189" lon="2.41326">
        <ele>343.6</ele>
        <time>2011-01-09T09:36:45Z</time>
      </trkpt>
      <trkpt lat="44.42189" lon="2.41327">
        <ele>343.6</ele>
        <time>2011-01-09T09:38:10Z</time>
      </trkpt>
      <trkpt lat="44.42189" lon="2.41327">
        <ele>343.7</ele>
        <time>2011-01-09T09:38:11Z</time>
      </trkpt>
      <trkpt lat="44.42194" lon="2.41328">
        <ele>343.4</ele>
        <time>2011-01-09T09:39:12Z</time>
      </trkpt>
      <trkpt lat="44.42188" lon="2.41336">
        <ele>343.8</ele>
        <time>2011-01-09T09:39:24Z</time>
      </trkpt>
      <trkpt lat="44.42186" lon="2.41338">
        <ele>343.8</ele>
        <time>2011-01-09T09:39:25Z</time>
      </trkpt>
      <trkpt lat="44.42184" lon="2.4134">
        <ele>343.8</ele>
        <time>2011-01-09T09:39:26Z</time>
      </trkpt>
      <trkpt lat="44.42181" lon="2.41342">
        <ele>344.2</ele>
        <time>2011-01-09T09:39:27Z</time>
      </trkpt>
      <trkpt lat="44.42179" lon="2.41344">
        <ele>344.5</ele>
        <time>2011-01-09T09:39:28Z</time>
      </trkpt>
      <trkpt lat="44.42177" lon="2.41346">
        <ele>344.7</ele>
        <time>2011-01-09T09:39:29Z</time>
      </trkpt>
      <trkpt lat="44.42174" lon="2.41349">
        <ele>344.9</ele>
        <time>2011-01-09T09:39:30Z</time>
      </trkpt>
      <trkpt lat="44.42172" lon="2.41352">
        <ele>345.1</ele>
        <time>2011-01-09T09:39:31Z</time>
      </trkpt>
      <trkpt lat="44.42169" lon="2.41354">
        <ele>345.2</ele>
        <time>2011-01-09T09:39:32Z</time>
      </trkpt>
      <trkpt lat="44.42166" lon="2.41357">
        <ele>345.3</ele>
        <time>2011-01-09T09:39:33Z</time>
      </trkpt>
      <trkpt lat="44.42164" lon="2.4136">
        <ele>345.4</ele>
        <time>2011-01-09T09:39:34Z</time>
      </trkpt>
      <trkpt lat="44.42161" lon="2.41363">
        <ele>345.4</ele>
        <time>2011-01-09T09:39:35Z</time>
      </trkpt>
      <trkpt lat="44.42158" lon="2.41366">
        <ele>345.4</ele>
        <time>2011-01-09T09:39:36Z</time>
      </trkpt>
      <trkpt lat="44.42156" lon="2.41369">
        <ele>345.5</ele>
        <time>2011-01-09T09:39:37Z</time>
      </trkpt>
      <trkpt lat="44.42153" lon="2.41372">
        <ele>345.6</ele>
        <time>2011-01-09T09:39:38Z</time>
      </trkpt>
      <trkpt lat="44.4215" lon="2.41375">
        <ele>345.7</ele>
        <time>2011-01-09T09:39:39Z</time>
      </trkpt>
      <trkpt lat="44.42147" lon="2.41378">
        <ele>345.7</ele>
        <time>2011-01-09T09:39:40Z</time>
      </trkpt>
      <trkpt lat="44.42144" lon="2.41381">
        <ele>345.7</ele>
        <time>2011-01-09T09:39:41Z</time>
      </trkpt>
      <trkpt lat="44.42142" lon="2.41384">
        <ele>345.7</ele>
        <time>2011-01-09T09:39:42Z</time>
      </trkpt>
      <trkpt lat="44.42139" lon="2.41387">
        <ele>345.7</ele>
        <time>2011-01-09T09:39:43Z</time>
      </trkpt>
      <trkpt lat="44.42136" lon="2.4139">
        <ele>345.7</ele>
        <time>2011-01-09T09:39:44Z</time>
      </trkpt>
      <trkpt lat="44.42133" lon="2.41393">
        <ele>345.8</ele>
        <time>2011-01-09T09:39:45Z</time>
      </trkpt>
      <trkpt lat="44.4213" lon="2.41397">
        <ele>345.8</ele>
        <time>2011-01-09T09:39:46Z</time>
      </trkpt>
      <trkpt lat="44.42128" lon="2.414">
        <ele>345.8</ele>
        <time>2011-01-09T09:39:47Z</time>
      </trkpt>
      <trkpt lat="44.42125" lon="2.41403">
        <ele>345.9</ele>
        <time>2011-01-09T09:39:48Z</time>
      </trkpt>
      <trkpt lat="44.42122" lon="2.41406">
        <ele>346</ele>
        <time>2011-01-09T09:39:49Z</time>
      </trkpt>
      <trkpt lat="44.42119" lon="2.4141">
        <ele>346</ele>
        <time>2011-01-09T09:39:50Z</time>
      </trkpt>
      <trkpt lat="44.42116" lon="2.41413">
        <ele>346.1</ele>
        <time>2011-01-09T09:39:51Z</time>
      </trkpt>
      <trkpt lat="44.42113" lon="2.41417">
        <ele>346.1</ele>
        <time>2011-01-09T09:39:52Z</time>
      </trkpt>
      <trkpt lat="44.4211" lon="2.4142">
        <ele>346.5</ele>
        <time>2011-01-09T09:39:53Z</time>
      </trkpt>
      <trkpt lat="44.42107" lon="2.41423">
        <ele>346.8</ele>
        <time>2011-01-09T09:39:54Z</time>
      </trkpt>
      <trkpt lat="44.42104" lon="2.41427">
        <ele>347</ele>
        <time>2011-01-09T09:39:55Z</time>
      </trkpt>
      <trkpt lat="44.42102" lon="2.4143">
        <ele>347.1</ele>
        <time>2011-01-09T09:39:56Z</time>
      </trkpt>
      <trkpt lat="44.421" lon="2.41433">
        <ele>347.1</ele>
        <time>2011-01-09T09:39:57Z</time>
      </trkpt>
      <trkpt lat="44.42097" lon="2.41436">
        <ele>347.2</ele>
        <time>2011-01-09T09:39:58Z</time>
      </trkpt>
      <trkpt lat="44.42094" lon="2.4144">
        <ele>347.4</ele>
        <time>2011-01-09T09:39:59Z</time>
      </trkpt>
      <trkpt lat="44.42091" lon="2.41443">
        <ele>347.7</ele>
        <time>2011-01-09T09:40:00Z</time>
      </trkpt>
      <trkpt lat="44.42089" lon="2.41446">
        <ele>347.8</ele>
        <time>2011-01-09T09:40:01Z</time>
      </trkpt>
      <trkpt lat="44.42086" lon="2.4145">
        <ele>347.6</ele>
        <time>2011-01-09T09:40:02Z</time>
      </trkpt>
      <trkpt lat="44.42083" lon="2.41453">
        <ele>347.5</ele>
        <time>2011-01-09T09:40:03Z</time>
      </trkpt>
      <trkpt lat="44.42081" lon="2.41457">
        <ele>347.4</ele>
        <time>2011-01-09T09:40:04Z</time>
      </trkpt>
      <trkpt lat="44.42078" lon="2.4146">
        <ele>347.3</ele>
        <time>2011-01-09T09:40:05Z</time>
      </trkpt>
      <trkpt lat="44.42076" lon="2.41463">
        <ele>347.2</ele>
        <time>2011-01-09T09:40:06Z</time>
      </trkpt>
      <trkpt lat="44.42073" lon="2.41466">
        <ele>347.1</ele>
        <time>2011-01-09T09:40:08Z</time>
      </trkpt>
      <trkpt lat="44.42069" lon="2.41469">
        <ele>346.6</ele>
        <time>2011-01-09T09:40:17Z</time>
      </trkpt>
      <trkpt lat="44.42069" lon="2.41469">
        <ele>346.4</ele>
        <time>2011-01-09T09:40:18Z</time>
      </trkpt>
      <trkpt lat="44.42062" lon="2.41474">
        <ele>345.8</ele>
        <time>2011-01-09T09:40:30Z</time>
      </trkpt>
      <trkpt lat="44.42059" lon="2.41477">
        <ele>345.7</ele>
        <time>2011-01-09T09:40:32Z</time>
      </trkpt>
      <trkpt lat="44.42057" lon="2.41479">
        <ele>345.7</ele>
        <time>2011-01-09T09:40:33Z</time>
      </trkpt>
      <trkpt lat="44.42055" lon="2.41482">
        <ele>345.6</ele>
        <time>2011-01-09T09:40:34Z</time>
      </trkpt>
      <trkpt lat="44.42053" lon="2.41484">
        <ele>345.5</ele>
        <time>2011-01-09T09:40:35Z</time>
      </trkpt>
      <trkpt lat="44.42052" lon="2.41487">
        <ele>345.5</ele>
        <time>2011-01-09T09:40:36Z</time>
      </trkpt>
      <trkpt lat="44.4205" lon="2.4149">
        <ele>345.4</ele>
        <time>2011-01-09T09:40:37Z</time>
      </trkpt>
      <trkpt lat="44.42048" lon="2.41493">
        <ele>345.3</ele>
        <time>2011-01-09T09:40:38Z</time>
      </trkpt>
      <trkpt lat="44.42046" lon="2.41496">
        <ele>345.3</ele>
        <time>2011-01-09T09:40:39Z</time>
      </trkpt>
      <trkpt lat="44.42044" lon="2.41499">
        <ele>345.2</ele>
        <time>2011-01-09T09:40:40Z</time>
      </trkpt>
      <trkpt lat="44.42042" lon="2.41502">
        <ele>345.3</ele>
        <time>2011-01-09T09:40:41Z</time>
      </trkpt>
      <trkpt lat="44.4204" lon="2.41505">
        <ele>345.4</ele>
        <time>2011-01-09T09:40:42Z</time>
      </trkpt>
      <trkpt lat="44.42038" lon="2.41509">
        <ele>345.5</ele>
        <time>2011-01-09T09:40:43Z</time>
      </trkpt>
      <trkpt lat="44.42035" lon="2.41512">
        <ele>345.6</ele>
        <time>2011-01-09T09:40:44Z</time>
      </trkpt>
      <trkpt lat="44.42033" lon="2.41516">
        <ele>345.6</ele>
        <time>2011-01-09T09:40:45Z</time>
      </trkpt>
      <trkpt lat="44.42031" lon="2.41519">
        <ele>345.6</ele>
        <time>2011-01-09T09:40:46Z</time>
      </trkpt>
      <trkpt lat="44.42029" lon="2.41522">
        <ele>345.4</ele>
        <time>2011-01-09T09:40:47Z</time>
      </trkpt>
      <trkpt lat="44.42026" lon="2.41525">
        <ele>345.2</ele>
        <time>2011-01-09T09:40:48Z</time>
      </trkpt>
      <trkpt lat="44.42024" lon="2.41529">
        <ele>345.1</ele>
        <time>2011-01-09T09:40:49Z</time>
      </trkpt>
      <trkpt lat="44.42021" lon="2.41532">
        <ele>345.1</ele>
        <time>2011-01-09T09:40:50Z</time>
      </trkpt>
      <trkpt lat="44.42019" lon="2.41536">
        <ele>345.1</ele>
        <time>2011-01-09T09:40:51Z</time>
      </trkpt>
      <trkpt lat="44.42016" lon="2.41539">
        <ele>345.1</ele>
        <time>2011-01-09T09:40:52Z</time>
      </trkpt>
      <trkpt lat="44.42014" lon="2.41543">
        <ele>345.2</ele>
        <time>2011-01-09T09:40:53Z</time>
      </trkpt>
      <trkpt lat="44.42011" lon="2.41546">
        <ele>345.3</ele>
        <time>2011-01-09T09:40:54Z</time>
      </trkpt>
      <trkpt lat="44.42008" lon="2.41549">
        <ele>345.4</ele>
        <time>2011-01-09T09:40:55Z</time>
      </trkpt>
      <trkpt lat="44.42005" lon="2.41552">
        <ele>345.5</ele>
        <time>2011-01-09T09:40:56Z</time>
      </trkpt>
      <trkpt lat="44.42001" lon="2.41555">
        <ele>345.3</ele>
        <time>2011-01-09T09:40:57Z</time>
      </trkpt>
      <trkpt lat="44.41998" lon="2.41558">
        <ele>345.2</ele>
        <time>2011-01-09T09:40:58Z</time>
      </trkpt>
      <trkpt lat="44.41996" lon="2.41561">
        <ele>345.1</ele>
        <time>2011-01-09T09:40:59Z</time>
      </trkpt>
      <trkpt lat="44.41994" lon="2.41563">
        <ele>345.3</ele>
        <time>2011-01-09T09:41:00Z</time>
      </trkpt>
      <trkpt lat="44.41991" lon="2.41565">
        <ele>345.3</ele>
        <time>2011-01-09T09:41:01Z</time>
      </trkpt>
      <trkpt lat="44.41989" lon="2.41568">
        <ele>345.4</ele>
        <time>2011-01-09T09:41:02Z</time>
      </trkpt>
      <trkpt lat="44.41986" lon="2.4157">
        <ele>345.8</ele>
        <time>2011-01-09T09:41:03Z</time>
      </trkpt>
      <trkpt lat="44.41984" lon="2.41573">
        <ele>346.1</ele>
        <time>2011-01-09T09:41:04Z</time>
      </trkpt>
      <trkpt lat="44.41982" lon="2.41575">
        <ele>346.3</ele>
        <time>2011-01-09T09:41:05Z</time>
      </trkpt>
      <trkpt lat="44.41979" lon="2.41577">
        <ele>346.3</ele>
        <time>2011-01-09T09:41:06Z</time>
      </trkpt>
      <trkpt lat="44.41977" lon="2.4158">
        <ele>346.3</ele>
        <time>2011-01-09T09:41:07Z</time>
      </trkpt>
      <trkpt lat="44.41974" lon="2.41582">
        <ele>346.3</ele>
        <time>2011-01-09T09:41:08Z</time>
      </trkpt>
      <trkpt lat="44.41971" lon="2.41585">
        <ele>346.4</ele>
        <time>2011-01-09T09:41:09Z</time>
      </trkpt>
      <trkpt lat="44.41967" lon="2.41587">
        <ele>346.5</ele>
        <time>2011-01-09T09:41:10Z</time>
      </trkpt>
      <trkpt lat="44.41964" lon="2.4159">
        <ele>346.6</ele>
        <time>2011-01-09T09:41:11Z</time>
      </trkpt>
      <trkpt lat="44.4196" lon="2.41593">
        <ele>346.1</ele>
        <time>2011-01-09T09:41:12Z</time>
      </trkpt>
      <trkpt lat="44.41957" lon="2.41596">
        <ele>345.7</ele>
        <time>2011-01-09T09:41:13Z</time>
      </trkpt>
      <trkpt lat="44.41953" lon="2.41599">
        <ele>345.4</ele>
        <time>2011-01-09T09:41:14Z</time>
      </trkpt>
      <trkpt lat="44.4195" lon="2.41601">
        <ele>345.2</ele>
        <time>2011-01-09T09:41:15Z</time>
      </trkpt>
      <trkpt lat="44.41947" lon="2.41604">
        <ele>345.3</ele>
        <time>2011-01-09T09:41:16Z</time>
      </trkpt>
      <trkpt lat="44.41944" lon="2.41606">
        <ele>345.4</ele>
        <time>2011-01-09T09:41:17Z</time>
      </trkpt>
      <trkpt lat="44.4194" lon="2.41609">
        <ele>345.4</ele>
        <time>2011-01-09T09:41:18Z</time>
      </trkpt>
      <trkpt lat="44.41937" lon="2.41612">
        <ele>345.7</ele>
        <time>2011-01-09T09:41:19Z</time>
      </trkpt>
      <trkpt lat="44.41934" lon="2.41614">
        <ele>345.9</ele>
        <time>2011-01-09T09:41:20Z</time>
      </trkpt>
      <trkpt lat="44.41931" lon="2.41617">
        <ele>346.1</ele>
        <time>2011-01-09T09:41:21Z</time>
      </trkpt>
      <trkpt lat="44.41928" lon="2.41619">
        <ele>346</ele>
        <time>2011-01-09T09:41:22Z</time>
      </trkpt>
      <trkpt lat="44.41924" lon="2.41622">
        <ele>346</ele>
        <time>2011-01-09T09:41:23Z</time>
      </trkpt>
      <trkpt lat="44.41921" lon="2.41625">
        <ele>346</ele>
        <time>2011-01-09T09:41:24Z</time>
      </trkpt>
      <trkpt lat="44.41917" lon="2.41628">
        <ele>346</ele>
        <time>2011-01-09T09:41:25Z</time>
      </trkpt>
      <trkpt lat="44.41913" lon="2.41631">
        <ele>346</ele>
        <time>2011-01-09T09:41:26Z</time>
      </trkpt>
      <trkpt lat="44.4191" lon="2.41634">
        <ele>346</ele>
        <time>2011-01-09T09:41:27Z</time>
      </trkpt>
      <trkpt lat="44.41906" lon="2.41636">
        <ele>346.4</ele>
        <time>2011-01-09T09:41:28Z</time>
      </trkpt>
      <trkpt lat="44.41903" lon="2.41639">
        <ele>346.6</ele>
        <time>2011-01-09T09:41:29Z</time>
      </trkpt>
      <trkpt lat="44.41899" lon="2.41643">
        <ele>346.8</ele>
        <time>2011-01-09T09:41:30Z</time>
      </trkpt>
      <trkpt lat="44.41895" lon="2.41646">
        <ele>346.9</ele>
        <time>2011-01-09T09:41:31Z</time>
      </trkpt>
      <trkpt lat="44.41891" lon="2.41649">
        <ele>347.1</ele>
        <time>2011-01-09T09:41:32Z</time>
      </trkpt>
      <trkpt lat="44.41887" lon="2.41652">
        <ele>347.3</ele>
        <time>2011-01-09T09:41:33Z</time>
      </trkpt>
      <trkpt lat="44.41883" lon="2.41655">
        <ele>347.4</ele>
        <time>2011-01-09T09:41:34Z</time>
      </trkpt>
      <trkpt lat="44.41879" lon="2.41659">
        <ele>347.4</ele>
        <time>2011-01-09T09:41:35Z</time>
      </trkpt>
      <trkpt lat="44.41875" lon="2.41662">
        <ele>347.3</ele>
        <time>2011-01-09T09:41:36Z</time>
      </trkpt>
      <trkpt lat="44.41871" lon="2.41666">
        <ele>347.3</ele>
        <time>2011-01-09T09:41:37Z</time>
      </trkpt>
      <trkpt lat="44.41867" lon="2.4167">
        <ele>347.5</ele>
        <time>2011-01-09T09:41:38Z</time>
      </trkpt>
      <trkpt lat="44.41863" lon="2.41673">
        <ele>347.7</ele>
        <time>2011-01-09T09:41:39Z</time>
      </trkpt>
      <trkpt lat="44.41859" lon="2.41677">
        <ele>347.8</ele>
        <time>2011-01-09T09:41:40Z</time>
      </trkpt>
      <trkpt lat="44.41855" lon="2.4168">
        <ele>347.9</ele>
        <time>2011-01-09T09:41:41Z</time>
      </trkpt>
      <trkpt lat="44.41851" lon="2.41683">
        <ele>348.1</ele>
        <time>2011-01-09T09:41:42Z</time>
      </trkpt>
      <trkpt lat="44.41848" lon="2.41687">
        <ele>348.1</ele>
        <time>2011-01-09T09:41:43Z</time>
      </trkpt>
      <trkpt lat="44.41844" lon="2.4169">
        <ele>348.4</ele>
        <time>2011-01-09T09:41:44Z</time>
      </trkpt>
      <trkpt lat="44.41841" lon="2.41693">
        <ele>348.6</ele>
        <time>2011-01-09T09:41:45Z</time>
      </trkpt>
      <trkpt lat="44.41837" lon="2.41696">
        <ele>348.7</ele>
        <time>2011-01-09T09:41:46Z</time>
      </trkpt>
      <trkpt lat="44.41834" lon="2.41699">
        <ele>348.8</ele>
        <time>2011-01-09T09:41:47Z</time>
      </trkpt>
      <trkpt lat="44.41831" lon="2.41703">
        <ele>349</ele>
        <time>2011-01-09T09:41:48Z</time>
      </trkpt>
      <trkpt lat="44.41827" lon="2.41706">
        <ele>349.1</ele>
        <time>2011-01-09T09:41:49Z</time>
      </trkpt>
      <trkpt lat="44.41824" lon="2.4171">
        <ele>349.2</ele>
        <time>2011-01-09T09:41:50Z</time>
      </trkpt>
      <trkpt lat="44.41821" lon="2.41713">
        <ele>349.2</ele>
        <time>2011-01-09T09:41:51Z</time>
      </trkpt>
      <trkpt lat="44.41818" lon="2.41716">
        <ele>349.3</ele>
        <time>2011-01-09T09:41:52Z</time>
      </trkpt>
      <trkpt lat="44.41814" lon="2.41719">
        <ele>349.3</ele>
        <time>2011-01-09T09:41:53Z</time>
      </trkpt>
      <trkpt lat="44.4181" lon="2.41722">
        <ele>349.6</ele>
        <time>2011-01-09T09:41:54Z</time>
      </trkpt>
      <trkpt lat="44.41807" lon="2.41725">
        <ele>349.7</ele>
        <time>2011-01-09T09:41:55Z</time>
      </trkpt>
      <trkpt lat="44.41803" lon="2.41728">
        <ele>349.8</ele>
        <time>2011-01-09T09:41:56Z</time>
      </trkpt>
      <trkpt lat="44.41799" lon="2.41731">
        <ele>350.1</ele>
        <time>2011-01-09T09:41:57Z</time>
      </trkpt>
      <trkpt lat="44.41796" lon="2.41734">
        <ele>350.3</ele>
        <time>2011-01-09T09:41:58Z</time>
      </trkpt>
      <trkpt lat="44.41792" lon="2.41737">
        <ele>350.4</ele>
        <time>2011-01-09T09:41:59Z</time>
      </trkpt>
      <trkpt lat="44.41789" lon="2.4174">
        <ele>350.5</ele>
        <time>2011-01-09T09:42:00Z</time>
      </trkpt>
      <trkpt lat="44.41786" lon="2.41743">
        <ele>350.6</ele>
        <time>2011-01-09T09:42:01Z</time>
      </trkpt>
      <trkpt lat="44.41784" lon="2.41745">
        <ele>350.7</ele>
        <time>2011-01-09T09:42:02Z</time>
      </trkpt>
      <trkpt lat="44.41781" lon="2.41748">
        <ele>350.7</ele>
        <time>2011-01-09T09:42:03Z</time>
      </trkpt>
      <trkpt lat="44.41777" lon="2.4175">
        <ele>350.8</ele>
        <time>2011-01-09T09:42:04Z</time>
      </trkpt>
      <trkpt lat="44.41774" lon="2.41753">
        <ele>350.8</ele>
        <time>2011-01-09T09:42:05Z</time>
      </trkpt>
      <trkpt lat="44.4177" lon="2.41755">
        <ele>350.9</ele>
        <time>2011-01-09T09:42:06Z</time>
      </trkpt>
      <trkpt lat="44.41767" lon="2.41757">
        <ele>351.1</ele>
        <time>2011-01-09T09:42:07Z</time>
      </trkpt>
      <trkpt lat="44.41763" lon="2.4176">
        <ele>351.3</ele>
        <time>2011-01-09T09:42:08Z</time>
      </trkpt>
      <trkpt lat="44.4176" lon="2.41762">
        <ele>351.4</ele>
        <time>2011-01-09T09:42:09Z</time>
      </trkpt>
      <trkpt lat="44.41756" lon="2.41764">
        <ele>351.6</ele>
        <time>2011-01-09T09:42:10Z</time>
      </trkpt>
      <trkpt lat="44.41752" lon="2.41767">
        <ele>351.7</ele>
        <time>2011-01-09T09:42:11Z</time>
      </trkpt>
      <trkpt lat="44.41748" lon="2.4177">
        <ele>351.8</ele>
        <time>2011-01-09T09:42:12Z</time>
      </trkpt>
      <trkpt lat="44.41744" lon="2.41772">
        <ele>351.7</ele>
        <time>2011-01-09T09:42:13Z</time>
      </trkpt>
      <trkpt lat="44.4174" lon="2.41774">
        <ele>351.6</ele>
        <time>2011-01-09T09:42:14Z</time>
      </trkpt>
      <trkpt lat="44.41736" lon="2.41777">
        <ele>351.5</ele>
        <time>2011-01-09T09:42:15Z</time>
      </trkpt>
      <trkpt lat="44.41732" lon="2.41779">
        <ele>351.4</ele>
        <time>2011-01-09T09:42:16Z</time>
      </trkpt>
      <trkpt lat="44.41728" lon="2.41781">
        <ele>351.2</ele>
        <time>2011-01-09T09:42:17Z</time>
      </trkpt>
      <trkpt lat="44.41724" lon="2.41784">
        <ele>351.2</ele>
        <time>2011-01-09T09:42:18Z</time>
      </trkpt>
      <trkpt lat="44.4172" lon="2.41787">
        <ele>351.1</ele>
        <time>2011-01-09T09:42:19Z</time>
      </trkpt>
      <trkpt lat="44.41715" lon="2.41789">
        <ele>351.5</ele>
        <time>2011-01-09T09:42:20Z</time>
      </trkpt>
      <trkpt lat="44.41711" lon="2.41792">
        <ele>351.8</ele>
        <time>2011-01-09T09:42:21Z</time>
      </trkpt>
      <trkpt lat="44.41706" lon="2.41795">
        <ele>352</ele>
        <time>2011-01-09T09:42:22Z</time>
      </trkpt>
      <trkpt lat="44.41702" lon="2.41798">
        <ele>351.7</ele>
        <time>2011-01-09T09:42:23Z</time>
      </trkpt>
      <trkpt lat="44.41697" lon="2.418">
        <ele>351.5</ele>
        <time>2011-01-09T09:42:24Z</time>
      </trkpt>
      <trkpt lat="44.41692" lon="2.41803">
        <ele>351.3</ele>
        <time>2011-01-09T09:42:25Z</time>
      </trkpt>
      <trkpt lat="44.41688" lon="2.41805">
        <ele>351.7</ele>
        <time>2011-01-09T09:42:26Z</time>
      </trkpt>
      <trkpt lat="44.41683" lon="2.41808">
        <ele>352</ele>
        <time>2011-01-09T09:42:27Z</time>
      </trkpt>
      <trkpt lat="44.41679" lon="2.4181">
        <ele>352.2</ele>
        <time>2011-01-09T09:42:28Z</time>
      </trkpt>
      <trkpt lat="44.41675" lon="2.41813">
        <ele>352.5</ele>
        <time>2011-01-09T09:42:29Z</time>
      </trkpt>
      <trkpt lat="44.41671" lon="2.41815">
        <ele>352.7</ele>
        <time>2011-01-09T09:42:30Z</time>
      </trkpt>
      <trkpt lat="44.41666" lon="2.41818">
        <ele>352.8</ele>
        <time>2011-01-09T09:42:31Z</time>
      </trkpt>
      <trkpt lat="44.41662" lon="2.41821">
        <ele>352.8</ele>
        <time>2011-01-09T09:42:32Z</time>
      </trkpt>
      <trkpt lat="44.41658" lon="2.41823">
        <ele>352.8</ele>
        <time>2011-01-09T09:42:33Z</time>
      </trkpt>
      <trkpt lat="44.41653" lon="2.41826">
        <ele>352.8</ele>
        <time>2011-01-09T09:42:34Z</time>
      </trkpt>
      <trkpt lat="44.41649" lon="2.41829">
        <ele>352.8</ele>
        <time>2011-01-09T09:42:35Z</time>
      </trkpt>
      <trkpt lat="44.41645" lon="2.41832">
        <ele>352.8</ele>
        <time>2011-01-09T09:42:36Z</time>
      </trkpt>
      <trkpt lat="44.4164" lon="2.41835">
        <ele>352.8</ele>
        <time>2011-01-09T09:42:37Z</time>
      </trkpt>
      <trkpt lat="44.41636" lon="2.41838">
        <ele>352.8</ele>
        <time>2011-01-09T09:42:38Z</time>
      </trkpt>
      <trkpt lat="44.41631" lon="2.4184">
        <ele>353.1</ele>
        <time>2011-01-09T09:42:39Z</time>
      </trkpt>
      <trkpt lat="44.41627" lon="2.41843">
        <ele>353.3</ele>
        <time>2011-01-09T09:42:40Z</time>
      </trkpt>
      <trkpt lat="44.41623" lon="2.41846">
        <ele>353.4</ele>
        <time>2011-01-09T09:42:41Z</time>
      </trkpt>
      <trkpt lat="44.41618" lon="2.41849">
        <ele>353</ele>
        <time>2011-01-09T09:42:42Z</time>
      </trkpt>
      <trkpt lat="44.41614" lon="2.41851">
        <ele>352.7</ele>
        <time>2011-01-09T09:42:43Z</time>
      </trkpt>
      <trkpt lat="44.4161" lon="2.41854">
        <ele>352.4</ele>
        <time>2011-01-09T09:42:44Z</time>
      </trkpt>
      <trkpt lat="44.41605" lon="2.41857">
        <ele>352.8</ele>
        <time>2011-01-09T09:42:45Z</time>
      </trkpt>
      <trkpt lat="44.41601" lon="2.4186">
        <ele>353.1</ele>
        <time>2011-01-09T09:42:46Z</time>
      </trkpt>
      <trkpt lat="44.41596" lon="2.41862">
        <ele>353.4</ele>
        <time>2011-01-09T09:42:47Z</time>
      </trkpt>
      <trkpt lat="44.41592" lon="2.41865">
        <ele>353.3</ele>
        <time>2011-01-09T09:42:48Z</time>
      </trkpt>
      <trkpt lat="44.41588" lon="2.41868">
        <ele>353.2</ele>
        <time>2011-01-09T09:42:49Z</time>
      </trkpt>
      <trkpt lat="44.41583" lon="2.41871">
        <ele>353.1</ele>
        <time>2011-01-09T09:42:50Z</time>
      </trkpt>
      <trkpt lat="44.41579" lon="2.41875">
        <ele>353.2</ele>
        <time>2011-01-09T09:42:51Z</time>
      </trkpt>
      <trkpt lat="44.41574" lon="2.41879">
        <ele>353.2</ele>
        <time>2011-01-09T09:42:52Z</time>
      </trkpt>
      <trkpt lat="44.41569" lon="2.41883">
        <ele>353.2</ele>
        <time>2011-01-09T09:42:53Z</time>
      </trkpt>
      <trkpt lat="44.41565" lon="2.41888">
        <ele>353.3</ele>
        <time>2011-01-09T09:42:54Z</time>
      </trkpt>
      <trkpt lat="44.4156" lon="2.41892">
        <ele>353.3</ele>
        <time>2011-01-09T09:42:55Z</time>
      </trkpt>
      <trkpt lat="44.41556" lon="2.41897">
        <ele>353.4</ele>
        <time>2011-01-09T09:42:56Z</time>
      </trkpt>
      <trkpt lat="44.41552" lon="2.41902">
        <ele>353.4</ele>
        <time>2011-01-09T09:42:57Z</time>
      </trkpt>
      <trkpt lat="44.41548" lon="2.41906">
        <ele>353.4</ele>
        <time>2011-01-09T09:42:58Z</time>
      </trkpt>
      <trkpt lat="44.41544" lon="2.41911">
        <ele>353.3</ele>
        <time>2011-01-09T09:42:59Z</time>
      </trkpt>
      <trkpt lat="44.4154" lon="2.41915">
        <ele>353.3</ele>
        <time>2011-01-09T09:43:00Z</time>
      </trkpt>
      <trkpt lat="44.41537" lon="2.4192">
        <ele>353.7</ele>
        <time>2011-01-09T09:43:01Z</time>
      </trkpt>
      <trkpt lat="44.41533" lon="2.41924">
        <ele>354</ele>
        <time>2011-01-09T09:43:02Z</time>
      </trkpt>
      <trkpt lat="44.4153" lon="2.41928">
        <ele>354.2</ele>
        <time>2011-01-09T09:43:03Z</time>
      </trkpt>
      <trkpt lat="44.41526" lon="2.41932">
        <ele>354.4</ele>
        <time>2011-01-09T09:43:04Z</time>
      </trkpt>
      <trkpt lat="44.41523" lon="2.41937">
        <ele>354.5</ele>
        <time>2011-01-09T09:43:05Z</time>
      </trkpt>
      <trkpt lat="44.41519" lon="2.41942">
        <ele>354.6</ele>
        <time>2011-01-09T09:43:06Z</time>
      </trkpt>
      <trkpt lat="44.41516" lon="2.41946">
        <ele>354.7</ele>
        <time>2011-01-09T09:43:07Z</time>
      </trkpt>
      <trkpt lat="44.41512" lon="2.41951">
        <ele>354.7</ele>
        <time>2011-01-09T09:43:08Z</time>
      </trkpt>
      <trkpt lat="44.41509" lon="2.41955">
        <ele>354.8</ele>
        <time>2011-01-09T09:43:09Z</time>
      </trkpt>
      <trkpt lat="44.41505" lon="2.4196">
        <ele>354.8</ele>
        <time>2011-01-09T09:43:10Z</time>
      </trkpt>
      <trkpt lat="44.41502" lon="2.41965">
        <ele>354.7</ele>
        <time>2011-01-09T09:43:11Z</time>
      </trkpt>
      <trkpt lat="44.41498" lon="2.41969">
        <ele>354.6</ele>
        <time>2011-01-09T09:43:12Z</time>
      </trkpt>
      <trkpt lat="44.41494" lon="2.41974">
        <ele>354.6</ele>
        <time>2011-01-09T09:43:13Z</time>
      </trkpt>
      <trkpt lat="44.41491" lon="2.41978">
        <ele>354.9</ele>
        <time>2011-01-09T09:43:14Z</time>
      </trkpt>
      <trkpt lat="44.41487" lon="2.41983">
        <ele>355.1</ele>
        <time>2011-01-09T09:43:15Z</time>
      </trkpt>
      <trkpt lat="44.41484" lon="2.41988">
        <ele>355.3</ele>
        <time>2011-01-09T09:43:16Z</time>
      </trkpt>
      <trkpt lat="44.41481" lon="2.41993">
        <ele>355.1</ele>
        <time>2011-01-09T09:43:17Z</time>
      </trkpt>
      <trkpt lat="44.41478" lon="2.41999">
        <ele>354.9</ele>
        <time>2011-01-09T09:43:18Z</time>
      </trkpt>
      <trkpt lat="44.41476" lon="2.42004">
        <ele>354.7</ele>
        <time>2011-01-09T09:43:19Z</time>
      </trkpt>
      <trkpt lat="44.41473" lon="2.4201">
        <ele>354.8</ele>
        <time>2011-01-09T09:43:20Z</time>
      </trkpt>
      <trkpt lat="44.41471" lon="2.42016">
        <ele>354.8</ele>
        <time>2011-01-09T09:43:21Z</time>
      </trkpt>
      <trkpt lat="44.41468" lon="2.42021">
        <ele>354.9</ele>
        <time>2011-01-09T09:43:22Z</time>
      </trkpt>
      <trkpt lat="44.41466" lon="2.42027">
        <ele>354.7</ele>
        <time>2011-01-09T09:43:23Z</time>
      </trkpt>
      <trkpt lat="44.41464" lon="2.42032">
        <ele>354.6</ele>
        <time>2011-01-09T09:43:24Z</time>
      </trkpt>
      <trkpt lat="44.41462" lon="2.42038">
        <ele>354.5</ele>
        <time>2011-01-09T09:43:25Z</time>
      </trkpt>
      <trkpt lat="44.41459" lon="2.42043">
        <ele>354.5</ele>
        <time>2011-01-09T09:43:26Z</time>
      </trkpt>
      <trkpt lat="44.41457" lon="2.42048">
        <ele>354.6</ele>
        <time>2011-01-09T09:43:27Z</time>
      </trkpt>
      <trkpt lat="44.41454" lon="2.42053">
        <ele>354.7</ele>
        <time>2011-01-09T09:43:28Z</time>
      </trkpt>
      <trkpt lat="44.41451" lon="2.42058">
        <ele>354.8</ele>
        <time>2011-01-09T09:43:29Z</time>
      </trkpt>
      <trkpt lat="44.41447" lon="2.42061">
        <ele>354.8</ele>
        <time>2011-01-09T09:43:30Z</time>
      </trkpt>
      <trkpt lat="44.41444" lon="2.42064">
        <ele>354.9</ele>
        <time>2011-01-09T09:43:31Z</time>
      </trkpt>
      <trkpt lat="44.4144" lon="2.42066">
        <ele>354.9</ele>
        <time>2011-01-09T09:43:32Z</time>
      </trkpt>
      <trkpt lat="44.41437" lon="2.42067">
        <ele>355.1</ele>
        <time>2011-01-09T09:43:33Z</time>
      </trkpt>
      <trkpt lat="44.41434" lon="2.42068">
        <ele>355.2</ele>
        <time>2011-01-09T09:43:34Z</time>
      </trkpt>
      <trkpt lat="44.41431" lon="2.42068">
        <ele>355.3</ele>
        <time>2011-01-09T09:43:35Z</time>
      </trkpt>
      <trkpt lat="44.41428" lon="2.42068">
        <ele>355.9</ele>
        <time>2011-01-09T09:43:36Z</time>
      </trkpt>
      <trkpt lat="44.41426" lon="2.42067">
        <ele>356.4</ele>
        <time>2011-01-09T09:43:37Z</time>
      </trkpt>
      <trkpt lat="44.41423" lon="2.42067">
        <ele>356.7</ele>
        <time>2011-01-09T09:43:38Z</time>
      </trkpt>
      <trkpt lat="44.41421" lon="2.42066">
        <ele>356.7</ele>
        <time>2011-01-09T09:43:39Z</time>
      </trkpt>
      <trkpt lat="44.41418" lon="2.42065">
        <ele>356.7</ele>
        <time>2011-01-09T09:43:40Z</time>
      </trkpt>
      <trkpt lat="44.41415" lon="2.42064">
        <ele>356.6</ele>
        <time>2011-01-09T09:43:41Z</time>
      </trkpt>
      <trkpt lat="44.41412" lon="2.42063">
        <ele>356.6</ele>
        <time>2011-01-09T09:43:42Z</time>
      </trkpt>
      <trkpt lat="44.41409" lon="2.42063">
        <ele>357.1</ele>
        <time>2011-01-09T09:43:43Z</time>
      </trkpt>
      <trkpt lat="44.41406" lon="2.42062">
        <ele>357.5</ele>
        <time>2011-01-09T09:43:44Z</time>
      </trkpt>
      <trkpt lat="44.41403" lon="2.42061">
        <ele>357.7</ele>
        <time>2011-01-09T09:43:45Z</time>
      </trkpt>
      <trkpt lat="44.41401" lon="2.4206">
        <ele>357.9</ele>
        <time>2011-01-09T09:43:46Z</time>
      </trkpt>
      <trkpt lat="44.41398" lon="2.42059">
        <ele>358</ele>
        <time>2011-01-09T09:43:47Z</time>
      </trkpt>
      <trkpt lat="44.41396" lon="2.42058">
        <ele>358.1</ele>
        <time>2011-01-09T09:43:48Z</time>
      </trkpt>
      <trkpt lat="44.41393" lon="2.42058">
        <ele>358.5</ele>
        <time>2011-01-09T09:43:49Z</time>
      </trkpt>
      <trkpt lat="44.4139" lon="2.42057">
        <ele>358.8</ele>
        <time>2011-01-09T09:43:50Z</time>
      </trkpt>
      <trkpt lat="44.41387" lon="2.42056">
        <ele>359</ele>
        <time>2011-01-09T09:43:51Z</time>
      </trkpt>
      <trkpt lat="44.41384" lon="2.42055">
        <ele>359.4</ele>
        <time>2011-01-09T09:43:52Z</time>
      </trkpt>
      <trkpt lat="44.41381" lon="2.42054">
        <ele>359.6</ele>
        <time>2011-01-09T09:43:53Z</time>
      </trkpt>
      <trkpt lat="44.41378" lon="2.42053">
        <ele>359.9</ele>
        <time>2011-01-09T09:43:54Z</time>
      </trkpt>
      <trkpt lat="44.41375" lon="2.42053">
        <ele>359.8</ele>
        <time>2011-01-09T09:43:55Z</time>
      </trkpt>
      <trkpt lat="44.41373" lon="2.42053">
        <ele>359.7</ele>
        <time>2011-01-09T09:43:56Z</time>
      </trkpt>
      <trkpt lat="44.4137" lon="2.42052">
        <ele>359.7</ele>
        <time>2011-01-09T09:43:57Z</time>
      </trkpt>
      <trkpt lat="44.41368" lon="2.42052">
        <ele>359.6</ele>
        <time>2011-01-09T09:43:58Z</time>
      </trkpt>
      <trkpt lat="44.41364" lon="2.42051">
        <ele>360.4</ele>
        <time>2011-01-09T09:44:00Z</time>
      </trkpt>
      <trkpt lat="44.41359" lon="2.4205">
        <ele>361.3</ele>
        <time>2011-01-09T09:44:03Z</time>
      </trkpt>
      <trkpt lat="44.41355" lon="2.4205">
        <ele>362.6</ele>
        <time>2011-01-09T09:44:09Z</time>
      </trkpt>
      <trkpt lat="44.41354" lon="2.42055">
        <ele>363.1</ele>
        <time>2011-01-09T09:44:13Z</time>
      </trkpt>
      <trkpt lat="44.41354" lon="2.4206">
        <ele>363.4</ele>
        <time>2011-01-09T09:44:16Z</time>
      </trkpt>
      <trkpt lat="44.41351" lon="2.42064">
        <ele>363.4</ele>
        <time>2011-01-09T09:44:19Z</time>
      </trkpt>
      <trkpt lat="44.4135" lon="2.42068">
        <ele>363.3</ele>
        <time>2011-01-09T09:44:22Z</time>
      </trkpt>
      <trkpt lat="44.4135" lon="2.42071">
        <ele>363.3</ele>
        <time>2011-01-09T09:44:23Z</time>
      </trkpt>
      <trkpt lat="44.41348" lon="2.42077">
        <ele>363.5</ele>
        <time>2011-01-09T09:44:25Z</time>
      </trkpt>
      <trkpt lat="44.41348" lon="2.42081">
        <ele>363.6</ele>
        <time>2011-01-09T09:44:26Z</time>
      </trkpt>
      <trkpt lat="44.41348" lon="2.42085">
        <ele>363.8</ele>
        <time>2011-01-09T09:44:27Z</time>
      </trkpt>
      <trkpt lat="44.41347" lon="2.42089">
        <ele>363.9</ele>
        <time>2011-01-09T09:44:28Z</time>
      </trkpt>
      <trkpt lat="44.41347" lon="2.42092">
        <ele>364</ele>
        <time>2011-01-09T09:44:29Z</time>
      </trkpt>
      <trkpt lat="44.41345" lon="2.42096">
        <ele>363.8</ele>
        <time>2011-01-09T09:44:30Z</time>
      </trkpt>
      <trkpt lat="44.41344" lon="2.421">
        <ele>363.5</ele>
        <time>2011-01-09T09:44:31Z</time>
      </trkpt>
      <trkpt lat="44.41342" lon="2.42105">
        <ele>363.4</ele>
        <time>2011-01-09T09:44:32Z</time>
      </trkpt>
      <trkpt lat="44.41339" lon="2.42109">
        <ele>363.2</ele>
        <time>2011-01-09T09:44:33Z</time>
      </trkpt>
      <trkpt lat="44.41336" lon="2.42112">
        <ele>362.9</ele>
        <time>2011-01-09T09:44:34Z</time>
      </trkpt>
      <trkpt lat="44.41334" lon="2.42116">
        <ele>362.7</ele>
        <time>2011-01-09T09:44:35Z</time>
      </trkpt>
      <trkpt lat="44.41332" lon="2.4212">
        <ele>362.5</ele>
        <time>2011-01-09T09:44:36Z</time>
      </trkpt>
      <trkpt lat="44.41329" lon="2.42123">
        <ele>362.7</ele>
        <time>2011-01-09T09:44:37Z</time>
      </trkpt>
      <trkpt lat="44.41325" lon="2.42127">
        <ele>362.9</ele>
        <time>2011-01-09T09:44:38Z</time>
      </trkpt>
      <trkpt lat="44.41321" lon="2.42131">
        <ele>363</ele>
        <time>2011-01-09T09:44:39Z</time>
      </trkpt>
      <trkpt lat="44.41317" lon="2.42134">
        <ele>362.9</ele>
        <time>2011-01-09T09:44:40Z</time>
      </trkpt>
      <trkpt lat="44.41313" lon="2.42138">
        <ele>362.9</ele>
        <time>2011-01-09T09:44:41Z</time>
      </trkpt>
      <trkpt lat="44.41311" lon="2.42143">
        <ele>362.9</ele>
        <time>2011-01-09T09:44:42Z</time>
      </trkpt>
      <trkpt lat="44.41309" lon="2.42148">
        <ele>362.4</ele>
        <time>2011-01-09T09:44:43Z</time>
      </trkpt>
      <trkpt lat="44.41309" lon="2.42154">
        <ele>362.1</ele>
        <time>2011-01-09T09:44:44Z</time>
      </trkpt>
      <trkpt lat="44.41309" lon="2.42161">
        <ele>361.8</ele>
        <time>2011-01-09T09:44:45Z</time>
      </trkpt>
      <trkpt lat="44.4131" lon="2.42167">
        <ele>362</ele>
        <time>2011-01-09T09:44:46Z</time>
      </trkpt>
      <trkpt lat="44.4131" lon="2.42173">
        <ele>362.1</ele>
        <time>2011-01-09T09:44:47Z</time>
      </trkpt>
      <trkpt lat="44.41311" lon="2.42178">
        <ele>362.2</ele>
        <time>2011-01-09T09:44:48Z</time>
      </trkpt>
      <trkpt lat="44.41311" lon="2.42182">
        <ele>362.2</ele>
        <time>2011-01-09T09:44:49Z</time>
      </trkpt>
      <trkpt lat="44.41312" lon="2.42187">
        <ele>361.5</ele>
        <time>2011-01-09T09:44:50Z</time>
      </trkpt>
      <trkpt lat="44.41313" lon="2.42191">
        <ele>361</ele>
        <time>2011-01-09T09:44:51Z</time>
      </trkpt>
      <trkpt lat="44.41313" lon="2.42196">
        <ele>360.6</ele>
        <time>2011-01-09T09:44:52Z</time>
      </trkpt>
      <trkpt lat="44.41314" lon="2.42201">
        <ele>360.4</ele>
        <time>2011-01-09T09:44:53Z</time>
      </trkpt>
      <trkpt lat="44.41315" lon="2.42205">
        <ele>360.3</ele>
        <time>2011-01-09T09:44:54Z</time>
      </trkpt>
      <trkpt lat="44.41315" lon="2.42209">
        <ele>360.2</ele>
        <time>2011-01-09T09:44:55Z</time>
      </trkpt>
      <trkpt lat="44.41314" lon="2.42213">
        <ele>360.5</ele>
        <time>2011-01-09T09:44:56Z</time>
      </trkpt>
      <trkpt lat="44.41312" lon="2.42217">
        <ele>360.8</ele>
        <time>2011-01-09T09:44:57Z</time>
      </trkpt>
      <trkpt lat="44.4131" lon="2.42221">
        <ele>361</ele>
        <time>2011-01-09T09:44:58Z</time>
      </trkpt>
      <trkpt lat="44.41308" lon="2.42224">
        <ele>360.8</ele>
        <time>2011-01-09T09:44:59Z</time>
      </trkpt>
      <trkpt lat="44.41305" lon="2.42227">
        <ele>360.6</ele>
        <time>2011-01-09T09:45:00Z</time>
      </trkpt>
      <trkpt lat="44.41303" lon="2.42231">
        <ele>360.5</ele>
        <time>2011-01-09T09:45:01Z</time>
      </trkpt>
      <trkpt lat="44.413" lon="2.42235">
        <ele>360.5</ele>
        <time>2011-01-09T09:45:02Z</time>
      </trkpt>
      <trkpt lat="44.41299" lon="2.42238">
        <ele>360.4</ele>
        <time>2011-01-09T09:45:03Z</time>
      </trkpt>
      <trkpt lat="44.41297" lon="2.42242">
        <ele>360.4</ele>
        <time>2011-01-09T09:45:04Z</time>
      </trkpt>
      <trkpt lat="44.41295" lon="2.42246">
        <ele>360.3</ele>
        <time>2011-01-09T09:45:05Z</time>
      </trkpt>
      <trkpt lat="44.41294" lon="2.4225">
        <ele>360.1</ele>
        <time>2011-01-09T09:45:06Z</time>
      </trkpt>
      <trkpt lat="44.41291" lon="2.42253">
        <ele>359.9</ele>
        <time>2011-01-09T09:45:07Z</time>
      </trkpt>
      <trkpt lat="44.41289" lon="2.42256">
        <ele>359.7</ele>
        <time>2011-01-09T09:45:08Z</time>
      </trkpt>
      <trkpt lat="44.41287" lon="2.4226">
        <ele>360</ele>
        <time>2011-01-09T09:45:09Z</time>
      </trkpt>
      <trkpt lat="44.41284" lon="2.42263">
        <ele>360.2</ele>
        <time>2011-01-09T09:45:10Z</time>
      </trkpt>
      <trkpt lat="44.41282" lon="2.42267">
        <ele>360.3</ele>
        <time>2011-01-09T09:45:11Z</time>
      </trkpt>
      <trkpt lat="44.41279" lon="2.4227">
        <ele>360.5</ele>
        <time>2011-01-09T09:45:12Z</time>
      </trkpt>
      <trkpt lat="44.41277" lon="2.42273">
        <ele>360.7</ele>
        <time>2011-01-09T09:45:13Z</time>
      </trkpt>
      <trkpt lat="44.41276" lon="2.42276">
        <ele>360.8</ele>
        <time>2011-01-09T09:45:14Z</time>
      </trkpt>
      <trkpt lat="44.41273" lon="2.42279">
        <ele>360.7</ele>
        <time>2011-01-09T09:45:15Z</time>
      </trkpt>
      <trkpt lat="44.41271" lon="2.42282">
        <ele>360.6</ele>
        <time>2011-01-09T09:45:16Z</time>
      </trkpt>
      <trkpt lat="44.41269" lon="2.42284">
        <ele>360.5</ele>
        <time>2011-01-09T09:45:17Z</time>
      </trkpt>
      <trkpt lat="44.41267" lon="2.42287">
        <ele>361.1</ele>
        <time>2011-01-09T09:45:18Z</time>
      </trkpt>
      <trkpt lat="44.41265" lon="2.4229">
        <ele>361.6</ele>
        <time>2011-01-09T09:45:19Z</time>
      </trkpt>
      <trkpt lat="44.41262" lon="2.42293">
        <ele>362</ele>
        <time>2011-01-09T09:45:20Z</time>
      </trkpt>
      <trkpt lat="44.4126" lon="2.42295">
        <ele>362.2</ele>
        <time>2011-01-09T09:45:21Z</time>
      </trkpt>
      <trkpt lat="44.41258" lon="2.42299">
        <ele>362.4</ele>
        <time>2011-01-09T09:45:22Z</time>
      </trkpt>
      <trkpt lat="44.41256" lon="2.42302">
        <ele>362.5</ele>
        <time>2011-01-09T09:45:23Z</time>
      </trkpt>
      <trkpt lat="44.41254" lon="2.42305">
        <ele>362.6</ele>
        <time>2011-01-09T09:45:24Z</time>
      </trkpt>
      <trkpt lat="44.41252" lon="2.42308">
        <ele>363.3</ele>
        <time>2011-01-09T09:45:25Z</time>
      </trkpt>
      <trkpt lat="44.4125" lon="2.42312">
        <ele>363.8</ele>
        <time>2011-01-09T09:45:26Z</time>
      </trkpt>
      <trkpt lat="44.41249" lon="2.42315">
        <ele>364.1</ele>
        <time>2011-01-09T09:45:27Z</time>
      </trkpt>
      <trkpt lat="44.41247" lon="2.42318">
        <ele>364.4</ele>
        <time>2011-01-09T09:45:28Z</time>
      </trkpt>
      <trkpt lat="44.41245" lon="2.42321">
        <ele>364.5</ele>
        <time>2011-01-09T09:45:29Z</time>
      </trkpt>
      <trkpt lat="44.41243" lon="2.42325">
        <ele>364.6</ele>
        <time>2011-01-09T09:45:30Z</time>
      </trkpt>
      <trkpt lat="44.41241" lon="2.42328">
        <ele>364.8</ele>
        <time>2011-01-09T09:45:31Z</time>
      </trkpt>
      <trkpt lat="44.41239" lon="2.42331">
        <ele>364.9</ele>
        <time>2011-01-09T09:45:32Z</time>
      </trkpt>
      <trkpt lat="44.41237" lon="2.42334">
        <ele>365</ele>
        <time>2011-01-09T09:45:33Z</time>
      </trkpt>
      <trkpt lat="44.41234" lon="2.42337">
        <ele>365.1</ele>
        <time>2011-01-09T09:45:34Z</time>
      </trkpt>
      <trkpt lat="44.41232" lon="2.4234">
        <ele>365.3</ele>
        <time>2011-01-09T09:45:35Z</time>
      </trkpt>
      <trkpt lat="44.4123" lon="2.42343">
        <ele>365.4</ele>
        <time>2011-01-09T09:45:36Z</time>
      </trkpt>
      <trkpt lat="44.41228" lon="2.42346">
        <ele>365.6</ele>
        <time>2011-01-09T09:45:37Z</time>
      </trkpt>
      <trkpt lat="44.41226" lon="2.42349">
        <ele>365.8</ele>
        <time>2011-01-09T09:45:38Z</time>
      </trkpt>
      <trkpt lat="44.41224" lon="2.42352">
        <ele>365.9</ele>
        <time>2011-01-09T09:45:39Z</time>
      </trkpt>
      <trkpt lat="44.41221" lon="2.42356">
        <ele>366</ele>
        <time>2011-01-09T09:45:40Z</time>
      </trkpt>
      <trkpt lat="44.41219" lon="2.42358">
        <ele>366.4</ele>
        <time>2011-01-09T09:45:41Z</time>
      </trkpt>
      <trkpt lat="44.41216" lon="2.42362">
        <ele>366.7</ele>
        <time>2011-01-09T09:45:42Z</time>
      </trkpt>
      <trkpt lat="44.41214" lon="2.42365">
        <ele>366.9</ele>
        <time>2011-01-09T09:45:43Z</time>
      </trkpt>
      <trkpt lat="44.41212" lon="2.42368">
        <ele>367.1</ele>
        <time>2011-01-09T09:45:44Z</time>
      </trkpt>
      <trkpt lat="44.4121" lon="2.42371">
        <ele>367.3</ele>
        <time>2011-01-09T09:45:45Z</time>
      </trkpt>
      <trkpt lat="44.41207" lon="2.42374">
        <ele>367.4</ele>
        <time>2011-01-09T09:45:46Z</time>
      </trkpt>
      <trkpt lat="44.41205" lon="2.42377">
        <ele>367.5</ele>
        <time>2011-01-09T09:45:47Z</time>
      </trkpt>
      <trkpt lat="44.41204" lon="2.42381">
        <ele>367.6</ele>
        <time>2011-01-09T09:45:48Z</time>
      </trkpt>
      <trkpt lat="44.41202" lon="2.42384">
        <ele>367.6</ele>
        <time>2011-01-09T09:45:49Z</time>
      </trkpt>
      <trkpt lat="44.412" lon="2.42388">
        <ele>368.1</ele>
        <time>2011-01-09T09:45:50Z</time>
      </trkpt>
      <trkpt lat="44.41198" lon="2.42391">
        <ele>368.4</ele>
        <time>2011-01-09T09:45:51Z</time>
      </trkpt>
      <trkpt lat="44.41196" lon="2.42395">
        <ele>368.7</ele>
        <time>2011-01-09T09:45:52Z</time>
      </trkpt>
      <trkpt lat="44.41195" lon="2.42398">
        <ele>368.8</ele>
        <time>2011-01-09T09:45:53Z</time>
      </trkpt>
      <trkpt lat="44.41192" lon="2.42401">
        <ele>368.9</ele>
        <time>2011-01-09T09:45:54Z</time>
      </trkpt>
      <trkpt lat="44.41191" lon="2.42404">
        <ele>369</ele>
        <time>2011-01-09T09:45:55Z</time>
      </trkpt>
      <trkpt lat="44.41189" lon="2.42407">
        <ele>369</ele>
        <time>2011-01-09T09:45:56Z</time>
      </trkpt>
      <trkpt lat="44.41186" lon="2.4241">
        <ele>369</ele>
        <time>2011-01-09T09:45:57Z</time>
      </trkpt>
      <trkpt lat="44.41184" lon="2.42412">
        <ele>369.1</ele>
        <time>2011-01-09T09:45:58Z</time>
      </trkpt>
      <trkpt lat="44.41182" lon="2.42415">
        <ele>369.1</ele>
        <time>2011-01-09T09:45:59Z</time>
      </trkpt>
      <trkpt lat="44.4118" lon="2.42417">
        <ele>369.2</ele>
        <time>2011-01-09T09:46:00Z</time>
      </trkpt>
      <trkpt lat="44.41178" lon="2.4242">
        <ele>369.2</ele>
        <time>2011-01-09T09:46:01Z</time>
      </trkpt>
      <trkpt lat="44.41176" lon="2.42422">
        <ele>369.3</ele>
        <time>2011-01-09T09:46:02Z</time>
      </trkpt>
      <trkpt lat="44.41173" lon="2.42425">
        <ele>369.8</ele>
        <time>2011-01-09T09:46:03Z</time>
      </trkpt>
      <trkpt lat="44.41171" lon="2.42427">
        <ele>370.2</ele>
        <time>2011-01-09T09:46:04Z</time>
      </trkpt>
      <trkpt lat="44.41169" lon="2.42429">
        <ele>370.5</ele>
        <time>2011-01-09T09:46:05Z</time>
      </trkpt>
      <trkpt lat="44.41167" lon="2.42431">
        <ele>370.5</ele>
        <time>2011-01-09T09:46:06Z</time>
      </trkpt>
      <trkpt lat="44.41164" lon="2.42433">
        <ele>370.5</ele>
        <time>2011-01-09T09:46:07Z</time>
      </trkpt>
      <trkpt lat="44.41162" lon="2.42435">
        <ele>370.5</ele>
        <time>2011-01-09T09:46:08Z</time>
      </trkpt>
      <trkpt lat="44.4116" lon="2.42437">
        <ele>370.8</ele>
        <time>2011-01-09T09:46:09Z</time>
      </trkpt>
      <trkpt lat="44.41158" lon="2.42439">
        <ele>371</ele>
        <time>2011-01-09T09:46:10Z</time>
      </trkpt>
      <trkpt lat="44.41156" lon="2.42441">
        <ele>371.2</ele>
        <time>2011-01-09T09:46:11Z</time>
      </trkpt>
      <trkpt lat="44.41154" lon="2.42443">
        <ele>371.3</ele>
        <time>2011-01-09T09:46:12Z</time>
      </trkpt>
      <trkpt lat="44.41151" lon="2.42445">
        <ele>371.4</ele>
        <time>2011-01-09T09:46:13Z</time>
      </trkpt>
      <trkpt lat="44.41149" lon="2.42447">
        <ele>371.4</ele>
        <time>2011-01-09T09:46:14Z</time>
      </trkpt>
      <trkpt lat="44.41146" lon="2.42448">
        <ele>371.4</ele>
        <time>2011-01-09T09:46:15Z</time>
      </trkpt>
      <trkpt lat="44.41143" lon="2.4245">
        <ele>371.4</ele>
        <time>2011-01-09T09:46:16Z</time>
      </trkpt>
      <trkpt lat="44.41141" lon="2.42452">
        <ele>371.4</ele>
        <time>2011-01-09T09:46:17Z</time>
      </trkpt>
      <trkpt lat="44.41138" lon="2.42454">
        <ele>371.4</ele>
        <time>2011-01-09T09:46:18Z</time>
      </trkpt>
      <trkpt lat="44.41136" lon="2.42456">
        <ele>372</ele>
        <time>2011-01-09T09:46:19Z</time>
      </trkpt>
      <trkpt lat="44.41133" lon="2.42458">
        <ele>372.5</ele>
        <time>2011-01-09T09:46:20Z</time>
      </trkpt>
      <trkpt lat="44.41131" lon="2.4246">
        <ele>372.8</ele>
        <time>2011-01-09T09:46:21Z</time>
      </trkpt>
      <trkpt lat="44.41129" lon="2.42461">
        <ele>373.2</ele>
        <time>2011-01-09T09:46:22Z</time>
      </trkpt>
      <trkpt lat="44.41126" lon="2.42463">
        <ele>373.4</ele>
        <time>2011-01-09T09:46:23Z</time>
      </trkpt>
      <trkpt lat="44.41124" lon="2.42465">
        <ele>373.6</ele>
        <time>2011-01-09T09:46:24Z</time>
      </trkpt>
      <trkpt lat="44.41121" lon="2.42467">
        <ele>373.6</ele>
        <time>2011-01-09T09:46:25Z</time>
      </trkpt>
      <trkpt lat="44.41119" lon="2.42469">
        <ele>373.7</ele>
        <time>2011-01-09T09:46:26Z</time>
      </trkpt>
      <trkpt lat="44.41116" lon="2.42471">
        <ele>373.7</ele>
        <time>2011-01-09T09:46:27Z</time>
      </trkpt>
      <trkpt lat="44.41113" lon="2.42473">
        <ele>373.7</ele>
        <time>2011-01-09T09:46:28Z</time>
      </trkpt>
      <trkpt lat="44.41111" lon="2.42474">
        <ele>374</ele>
        <time>2011-01-09T09:46:29Z</time>
      </trkpt>
      <trkpt lat="44.41108" lon="2.42476">
        <ele>374.2</ele>
        <time>2011-01-09T09:46:30Z</time>
      </trkpt>
      <trkpt lat="44.41106" lon="2.42478">
        <ele>374.3</ele>
        <time>2011-01-09T09:46:31Z</time>
      </trkpt>
      <trkpt lat="44.41103" lon="2.4248">
        <ele>374.2</ele>
        <time>2011-01-09T09:46:32Z</time>
      </trkpt>
      <trkpt lat="44.41101" lon="2.42481">
        <ele>374.1</ele>
        <time>2011-01-09T09:46:33Z</time>
      </trkpt>
      <trkpt lat="44.41099" lon="2.42483">
        <ele>374.1</ele>
        <time>2011-01-09T09:46:34Z</time>
      </trkpt>
      <trkpt lat="44.41096" lon="2.42485">
        <ele>374.6</ele>
        <time>2011-01-09T09:46:35Z</time>
      </trkpt>
      <trkpt lat="44.41094" lon="2.42487">
        <ele>375</ele>
        <time>2011-01-09T09:46:36Z</time>
      </trkpt>
      <trkpt lat="44.41091" lon="2.42489">
        <ele>375.2</ele>
        <time>2011-01-09T09:46:37Z</time>
      </trkpt>
      <trkpt lat="44.41089" lon="2.4249">
        <ele>375.1</ele>
        <time>2011-01-09T09:46:38Z</time>
      </trkpt>
      <trkpt lat="44.41086" lon="2.42492">
        <ele>375</ele>
        <time>2011-01-09T09:46:39Z</time>
      </trkpt>
      <trkpt lat="44.41084" lon="2.42494">
        <ele>374.9</ele>
        <time>2011-01-09T09:46:40Z</time>
      </trkpt>
      <trkpt lat="44.41082" lon="2.42495">
        <ele>375.2</ele>
        <time>2011-01-09T09:46:41Z</time>
      </trkpt>
      <trkpt lat="44.41079" lon="2.42496">
        <ele>375.4</ele>
        <time>2011-01-09T09:46:42Z</time>
      </trkpt>
      <trkpt lat="44.41077" lon="2.42498">
        <ele>375.6</ele>
        <time>2011-01-09T09:46:43Z</time>
      </trkpt>
      <trkpt lat="44.41075" lon="2.42499">
        <ele>375.7</ele>
        <time>2011-01-09T09:46:44Z</time>
      </trkpt>
      <trkpt lat="44.41072" lon="2.42501">
        <ele>376.1</ele>
        <time>2011-01-09T09:46:45Z</time>
      </trkpt>
      <trkpt lat="44.4107" lon="2.42502">
        <ele>376.5</ele>
        <time>2011-01-09T09:46:46Z</time>
      </trkpt>
      <trkpt lat="44.41068" lon="2.42502">
        <ele>376.7</ele>
        <time>2011-01-09T09:46:47Z</time>
      </trkpt>
      <trkpt lat="44.41065" lon="2.42503">
        <ele>376.9</ele>
        <time>2011-01-09T09:46:48Z</time>
      </trkpt>
      <trkpt lat="44.41063" lon="2.42503">
        <ele>377.1</ele>
        <time>2011-01-09T09:46:49Z</time>
      </trkpt>
      <trkpt lat="44.41061" lon="2.42503">
        <ele>377.2</ele>
        <time>2011-01-09T09:46:50Z</time>
      </trkpt>
      <trkpt lat="44.41058" lon="2.42502">
        <ele>378</ele>
        <time>2011-01-09T09:46:51Z</time>
      </trkpt>
      <trkpt lat="44.41055" lon="2.42501">
        <ele>378.6</ele>
        <time>2011-01-09T09:46:52Z</time>
      </trkpt>
      <trkpt lat="44.41053" lon="2.42501">
        <ele>379</ele>
        <time>2011-01-09T09:46:53Z</time>
      </trkpt>
      <trkpt lat="44.4105" lon="2.425">
        <ele>379</ele>
        <time>2011-01-09T09:46:54Z</time>
      </trkpt>
      <trkpt lat="44.41048" lon="2.425">
        <ele>378.9</ele>
        <time>2011-01-09T09:46:55Z</time>
      </trkpt>
      <trkpt lat="44.41046" lon="2.425">
        <ele>378.9</ele>
        <time>2011-01-09T09:46:56Z</time>
      </trkpt>
      <trkpt lat="44.41043" lon="2.42501">
        <ele>378.4</ele>
        <time>2011-01-09T09:46:57Z</time>
      </trkpt>
      <trkpt lat="44.4104" lon="2.42501">
        <ele>378</ele>
        <time>2011-01-09T09:46:58Z</time>
      </trkpt>
      <trkpt lat="44.41038" lon="2.42502">
        <ele>377.7</ele>
        <time>2011-01-09T09:46:59Z</time>
      </trkpt>
      <trkpt lat="44.41035" lon="2.42503">
        <ele>378</ele>
        <time>2011-01-09T09:47:00Z</time>
      </trkpt>
      <trkpt lat="44.41033" lon="2.42504">
        <ele>378.3</ele>
        <time>2011-01-09T09:47:01Z</time>
      </trkpt>
      <trkpt lat="44.41031" lon="2.42506">
        <ele>378.4</ele>
        <time>2011-01-09T09:47:02Z</time>
      </trkpt>
      <trkpt lat="44.41028" lon="2.42511">
        <ele>379</ele>
        <time>2011-01-09T09:47:04Z</time>
      </trkpt>
      <trkpt lat="44.41027" lon="2.42513">
        <ele>379.4</ele>
        <time>2011-01-09T09:47:05Z</time>
      </trkpt>
      <trkpt lat="44.41025" lon="2.42516">
        <ele>379.6</ele>
        <time>2011-01-09T09:47:06Z</time>
      </trkpt>
      <trkpt lat="44.41023" lon="2.42518">
        <ele>380.2</ele>
        <time>2011-01-09T09:47:07Z</time>
      </trkpt>
      <trkpt lat="44.41021" lon="2.42523">
        <ele>380.9</ele>
        <time>2011-01-09T09:47:09Z</time>
      </trkpt>
      <trkpt lat="44.41018" lon="2.42528">
        <ele>381.5</ele>
        <time>2011-01-09T09:47:11Z</time>
      </trkpt>
      <trkpt lat="44.41015" lon="2.42532">
        <ele>381.6</ele>
        <time>2011-01-09T09:47:13Z</time>
      </trkpt>
      <trkpt lat="44.41012" lon="2.42535">
        <ele>381.3</ele>
        <time>2011-01-09T09:47:15Z</time>
      </trkpt>
      <trkpt lat="44.4101" lon="2.42538">
        <ele>381.3</ele>
        <time>2011-01-09T09:47:17Z</time>
      </trkpt>
      <trkpt lat="44.41007" lon="2.42542">
        <ele>381.2</ele>
        <time>2011-01-09T09:47:19Z</time>
      </trkpt>
      <trkpt lat="44.41004" lon="2.42546">
        <ele>381.7</ele>
        <time>2011-01-09T09:47:21Z</time>
      </trkpt>
      <trkpt lat="44.41002" lon="2.4255">
        <ele>381.9</ele>
        <time>2011-01-09T09:47:23Z</time>
      </trkpt>
      <trkpt lat="44.41" lon="2.42554">
        <ele>382.1</ele>
        <time>2011-01-09T09:47:25Z</time>
      </trkpt>
      <trkpt lat="44.40999" lon="2.42555">
        <ele>382.6</ele>
        <time>2011-01-09T09:47:26Z</time>
      </trkpt>
      <trkpt lat="44.40995" lon="2.4256">
        <ele>383.5</ele>
        <time>2011-01-09T09:47:29Z</time>
      </trkpt>
      <trkpt lat="44.40993" lon="2.42564">
        <ele>383.7</ele>
        <time>2011-01-09T09:47:31Z</time>
      </trkpt>
      <trkpt lat="44.40991" lon="2.42568">
        <ele>384.1</ele>
        <time>2011-01-09T09:47:33Z</time>
      </trkpt>
      <trkpt lat="44.40989" lon="2.42572">
        <ele>384.3</ele>
        <time>2011-01-09T09:47:35Z</time>
      </trkpt>
      <trkpt lat="44.40987" lon="2.42577">
        <ele>384.2</ele>
        <time>2011-01-09T09:47:37Z</time>
      </trkpt>
      <trkpt lat="44.40985" lon="2.42582">
        <ele>384</ele>
        <time>2011-01-09T09:47:39Z</time>
      </trkpt>
      <trkpt lat="44.40983" lon="2.42586">
        <ele>383.7</ele>
        <time>2011-01-09T09:47:41Z</time>
      </trkpt>
      <trkpt lat="44.4098" lon="2.42591">
        <ele>384.4</ele>
        <time>2011-01-09T09:47:43Z</time>
      </trkpt>
      <trkpt lat="44.40979" lon="2.42594">
        <ele>384.6</ele>
        <time>2011-01-09T09:47:44Z</time>
      </trkpt>
      <trkpt lat="44.40977" lon="2.42597">
        <ele>385</ele>
        <time>2011-01-09T09:47:45Z</time>
      </trkpt>
      <trkpt lat="44.40976" lon="2.42599">
        <ele>385.4</ele>
        <time>2011-01-09T09:47:46Z</time>
      </trkpt>
      <trkpt lat="44.40975" lon="2.42602">
        <ele>385.6</ele>
        <time>2011-01-09T09:47:47Z</time>
      </trkpt>
      <trkpt lat="44.40973" lon="2.42605">
        <ele>385.8</ele>
        <time>2011-01-09T09:47:48Z</time>
      </trkpt>
      <trkpt lat="44.40971" lon="2.42607">
        <ele>385.9</ele>
        <time>2011-01-09T09:47:49Z</time>
      </trkpt>
      <trkpt lat="44.4097" lon="2.4261">
        <ele>386</ele>
        <time>2011-01-09T09:47:50Z</time>
      </trkpt>
      <trkpt lat="44.40968" lon="2.42613">
        <ele>386.1</ele>
        <time>2011-01-09T09:47:51Z</time>
      </trkpt>
      <trkpt lat="44.40967" lon="2.42616">
        <ele>386.3</ele>
        <time>2011-01-09T09:47:52Z</time>
      </trkpt>
      <trkpt lat="44.40966" lon="2.42619">
        <ele>386.4</ele>
        <time>2011-01-09T09:47:53Z</time>
      </trkpt>
      <trkpt lat="44.40964" lon="2.42622">
        <ele>386.5</ele>
        <time>2011-01-09T09:47:54Z</time>
      </trkpt>
      <trkpt lat="44.40962" lon="2.42625">
        <ele>386.6</ele>
        <time>2011-01-09T09:47:55Z</time>
      </trkpt>
      <trkpt lat="44.40961" lon="2.42628">
        <ele>386.7</ele>
        <time>2011-01-09T09:47:56Z</time>
      </trkpt>
      <trkpt lat="44.40959" lon="2.4263">
        <ele>386.8</ele>
        <time>2011-01-09T09:47:57Z</time>
      </trkpt>
      <trkpt lat="44.40958" lon="2.42633">
        <ele>387.4</ele>
        <time>2011-01-09T09:47:58Z</time>
      </trkpt>
      <trkpt lat="44.40957" lon="2.42636">
        <ele>387.9</ele>
        <time>2011-01-09T09:47:59Z</time>
      </trkpt>
      <trkpt lat="44.40955" lon="2.42639">
        <ele>388.2</ele>
        <time>2011-01-09T09:48:00Z</time>
      </trkpt>
      <trkpt lat="44.40954" lon="2.42641">
        <ele>388.2</ele>
        <time>2011-01-09T09:48:01Z</time>
      </trkpt>
      <trkpt lat="44.40953" lon="2.42644">
        <ele>388.2</ele>
        <time>2011-01-09T09:48:02Z</time>
      </trkpt>
      <trkpt lat="44.40951" lon="2.42647">
        <ele>388.1</ele>
        <time>2011-01-09T09:48:03Z</time>
      </trkpt>
      <trkpt lat="44.4095" lon="2.4265">
        <ele>388.2</ele>
        <time>2011-01-09T09:48:04Z</time>
      </trkpt>
      <trkpt lat="44.40948" lon="2.42652">
        <ele>388.3</ele>
        <time>2011-01-09T09:48:05Z</time>
      </trkpt>
      <trkpt lat="44.40947" lon="2.42655">
        <ele>388.3</ele>
        <time>2011-01-09T09:48:06Z</time>
      </trkpt>
      <trkpt lat="44.40945" lon="2.42658">
        <ele>388.7</ele>
        <time>2011-01-09T09:48:07Z</time>
      </trkpt>
      <trkpt lat="44.40944" lon="2.4266">
        <ele>389</ele>
        <time>2011-01-09T09:48:08Z</time>
      </trkpt>
      <trkpt lat="44.40943" lon="2.42663">
        <ele>389.2</ele>
        <time>2011-01-09T09:48:09Z</time>
      </trkpt>
      <trkpt lat="44.40941" lon="2.42666">
        <ele>389.3</ele>
        <time>2011-01-09T09:48:10Z</time>
      </trkpt>
      <trkpt lat="44.4094" lon="2.42669">
        <ele>389.3</ele>
        <time>2011-01-09T09:48:11Z</time>
      </trkpt>
      <trkpt lat="44.40938" lon="2.42672">
        <ele>389.2</ele>
        <time>2011-01-09T09:48:12Z</time>
      </trkpt>
      <trkpt lat="44.40937" lon="2.42675">
        <ele>389.2</ele>
        <time>2011-01-09T09:48:13Z</time>
      </trkpt>
      <trkpt lat="44.40935" lon="2.42678">
        <ele>389.1</ele>
        <time>2011-01-09T09:48:14Z</time>
      </trkpt>
      <trkpt lat="44.40934" lon="2.42681">
        <ele>389.1</ele>
        <time>2011-01-09T09:48:15Z</time>
      </trkpt>
      <trkpt lat="44.40932" lon="2.42684">
        <ele>389.1</ele>
        <time>2011-01-09T09:48:16Z</time>
      </trkpt>
      <trkpt lat="44.40931" lon="2.42687">
        <ele>389.5</ele>
        <time>2011-01-09T09:48:17Z</time>
      </trkpt>
      <trkpt lat="44.4093" lon="2.4269">
        <ele>389.7</ele>
        <time>2011-01-09T09:48:18Z</time>
      </trkpt>
      <trkpt lat="44.40928" lon="2.42693">
        <ele>390</ele>
        <time>2011-01-09T09:48:19Z</time>
      </trkpt>
      <trkpt lat="44.40927" lon="2.42696">
        <ele>390.2</ele>
        <time>2011-01-09T09:48:20Z</time>
      </trkpt>
      <trkpt lat="44.40925" lon="2.42698">
        <ele>390.4</ele>
        <time>2011-01-09T09:48:21Z</time>
      </trkpt>
      <trkpt lat="44.40924" lon="2.42701">
        <ele>390.6</ele>
        <time>2011-01-09T09:48:22Z</time>
      </trkpt>
      <trkpt lat="44.40922" lon="2.42704">
        <ele>390.8</ele>
        <time>2011-01-09T09:48:23Z</time>
      </trkpt>
      <trkpt lat="44.4092" lon="2.42707">
        <ele>391</ele>
        <time>2011-01-09T09:48:24Z</time>
      </trkpt>
      <trkpt lat="44.40919" lon="2.4271">
        <ele>391.1</ele>
        <time>2011-01-09T09:48:25Z</time>
      </trkpt>
      <trkpt lat="44.40917" lon="2.42713">
        <ele>391.2</ele>
        <time>2011-01-09T09:48:26Z</time>
      </trkpt>
      <trkpt lat="44.40916" lon="2.42716">
        <ele>391</ele>
        <time>2011-01-09T09:48:27Z</time>
      </trkpt>
      <trkpt lat="44.40914" lon="2.42719">
        <ele>390.9</ele>
        <time>2011-01-09T09:48:28Z</time>
      </trkpt>
      <trkpt lat="44.40912" lon="2.42722">
        <ele>390.9</ele>
        <time>2011-01-09T09:48:29Z</time>
      </trkpt>
      <trkpt lat="44.40909" lon="2.42724">
        <ele>391.4</ele>
        <time>2011-01-09T09:48:30Z</time>
      </trkpt>
      <trkpt lat="44.40907" lon="2.42726">
        <ele>391.8</ele>
        <time>2011-01-09T09:48:31Z</time>
      </trkpt>
      <trkpt lat="44.40904" lon="2.42727">
        <ele>392.1</ele>
        <time>2011-01-09T09:48:32Z</time>
      </trkpt>
      <trkpt lat="44.409" lon="2.42726">
        <ele>392.4</ele>
        <time>2011-01-09T09:48:33Z</time>
      </trkpt>
      <trkpt lat="44.40897" lon="2.42725">
        <ele>392.6</ele>
        <time>2011-01-09T09:48:34Z</time>
      </trkpt>
      <trkpt lat="44.40894" lon="2.42724">
        <ele>392.8</ele>
        <time>2011-01-09T09:48:35Z</time>
      </trkpt>
      <trkpt lat="44.40891" lon="2.42722">
        <ele>392.7</ele>
        <time>2011-01-09T09:48:36Z</time>
      </trkpt>
      <trkpt lat="44.40889" lon="2.4272">
        <ele>392.6</ele>
        <time>2011-01-09T09:48:37Z</time>
      </trkpt>
      <trkpt lat="44.40886" lon="2.42718">
        <ele>392.5</ele>
        <time>2011-01-09T09:48:38Z</time>
      </trkpt>
      <trkpt lat="44.40883" lon="2.42715">
        <ele>392.9</ele>
        <time>2011-01-09T09:48:39Z</time>
      </trkpt>
      <trkpt lat="44.4088" lon="2.42714">
        <ele>393.2</ele>
        <time>2011-01-09T09:48:40Z</time>
      </trkpt>
      <trkpt lat="44.40877" lon="2.42712">
        <ele>393.5</ele>
        <time>2011-01-09T09:48:41Z</time>
      </trkpt>
      <trkpt lat="44.40874" lon="2.42711">
        <ele>393.6</ele>
        <time>2011-01-09T09:48:42Z</time>
      </trkpt>
      <trkpt lat="44.4087" lon="2.4271">
        <ele>393.4</ele>
        <time>2011-01-09T09:48:43Z</time>
      </trkpt>
      <trkpt lat="44.40867" lon="2.42709">
        <ele>393.2</ele>
        <time>2011-01-09T09:48:44Z</time>
      </trkpt>
      <trkpt lat="44.40863" lon="2.42708">
        <ele>393</ele>
        <time>2011-01-09T09:48:45Z</time>
      </trkpt>
      <trkpt lat="44.4086" lon="2.42707">
        <ele>392.9</ele>
        <time>2011-01-09T09:48:46Z</time>
      </trkpt>
      <trkpt lat="44.40856" lon="2.42707">
        <ele>392.8</ele>
        <time>2011-01-09T09:48:47Z</time>
      </trkpt>
      <trkpt lat="44.40853" lon="2.42706">
        <ele>392.7</ele>
        <time>2011-01-09T09:48:48Z</time>
      </trkpt>
      <trkpt lat="44.40851" lon="2.42705">
        <ele>392.8</ele>
        <time>2011-01-09T09:48:49Z</time>
      </trkpt>
      <trkpt lat="44.40848" lon="2.42704">
        <ele>393</ele>
        <time>2011-01-09T09:48:50Z</time>
      </trkpt>
      <trkpt lat="44.40846" lon="2.42702">
        <ele>393.1</ele>
        <time>2011-01-09T09:48:51Z</time>
      </trkpt>
      <trkpt lat="44.40843" lon="2.42701">
        <ele>392.9</ele>
        <time>2011-01-09T09:48:52Z</time>
      </trkpt>
      <trkpt lat="44.4084" lon="2.427">
        <ele>392.8</ele>
        <time>2011-01-09T09:48:53Z</time>
      </trkpt>
      <trkpt lat="44.40837" lon="2.427">
        <ele>392.8</ele>
        <time>2011-01-09T09:48:54Z</time>
      </trkpt>
      <trkpt lat="44.40834" lon="2.42699">
        <ele>392.5</ele>
        <time>2011-01-09T09:48:55Z</time>
      </trkpt>
      <trkpt lat="44.40831" lon="2.42699">
        <ele>392.3</ele>
        <time>2011-01-09T09:48:56Z</time>
      </trkpt>
      <trkpt lat="44.40829" lon="2.42699">
        <ele>392.2</ele>
        <time>2011-01-09T09:48:57Z</time>
      </trkpt>
      <trkpt lat="44.40826" lon="2.42698">
        <ele>392.1</ele>
        <time>2011-01-09T09:48:58Z</time>
      </trkpt>
      <trkpt lat="44.40823" lon="2.42697">
        <ele>392</ele>
        <time>2011-01-09T09:48:59Z</time>
      </trkpt>
      <trkpt lat="44.4082" lon="2.42695">
        <ele>392</ele>
        <time>2011-01-09T09:49:00Z</time>
      </trkpt>
      <trkpt lat="44.40817" lon="2.42693">
        <ele>391.9</ele>
        <time>2011-01-09T09:49:01Z</time>
      </trkpt>
      <trkpt lat="44.40814" lon="2.42691">
        <ele>391.8</ele>
        <time>2011-01-09T09:49:02Z</time>
      </trkpt>
      <trkpt lat="44.40812" lon="2.42689">
        <ele>391.6</ele>
        <time>2011-01-09T09:49:03Z</time>
      </trkpt>
      <trkpt lat="44.4081" lon="2.42686">
        <ele>391.5</ele>
        <time>2011-01-09T09:49:04Z</time>
      </trkpt>
      <trkpt lat="44.40808" lon="2.42685">
        <ele>391.5</ele>
        <time>2011-01-09T09:49:05Z</time>
      </trkpt>
      <trkpt lat="44.40806" lon="2.42682">
        <ele>391.5</ele>
        <time>2011-01-09T09:49:06Z</time>
      </trkpt>
      <trkpt lat="44.40803" lon="2.4268">
        <ele>391.5</ele>
        <time>2011-01-09T09:49:07Z</time>
      </trkpt>
      <trkpt lat="44.40801" lon="2.42678">
        <ele>391.9</ele>
        <time>2011-01-09T09:49:08Z</time>
      </trkpt>
      <trkpt lat="44.40798" lon="2.42675">
        <ele>392.2</ele>
        <time>2011-01-09T09:49:09Z</time>
      </trkpt>
      <trkpt lat="44.40795" lon="2.42673">
        <ele>392.4</ele>
        <time>2011-01-09T09:49:10Z</time>
      </trkpt>
      <trkpt lat="44.40793" lon="2.4267">
        <ele>392.4</ele>
        <time>2011-01-09T09:49:11Z</time>
      </trkpt>
      <trkpt lat="44.4079" lon="2.42668">
        <ele>392.3</ele>
        <time>2011-01-09T09:49:12Z</time>
      </trkpt>
      <trkpt lat="44.40787" lon="2.42665">
        <ele>392.3</ele>
        <time>2011-01-09T09:49:13Z</time>
      </trkpt>
      <trkpt lat="44.40784" lon="2.42663">
        <ele>392.2</ele>
        <time>2011-01-09T09:49:14Z</time>
      </trkpt>
      <trkpt lat="44.40781" lon="2.42662">
        <ele>392.2</ele>
        <time>2011-01-09T09:49:15Z</time>
      </trkpt>
      <trkpt lat="44.40778" lon="2.42662">
        <ele>392.1</ele>
        <time>2011-01-09T09:49:16Z</time>
      </trkpt>
      <trkpt lat="44.40774" lon="2.42663">
        <ele>392.1</ele>
        <time>2011-01-09T09:49:17Z</time>
      </trkpt>
      <trkpt lat="44.40771" lon="2.42665">
        <ele>392.4</ele>
        <time>2011-01-09T09:49:18Z</time>
      </trkpt>
      <trkpt lat="44.40769" lon="2.42667">
        <ele>392.7</ele>
        <time>2011-01-09T09:49:19Z</time>
      </trkpt>
      <trkpt lat="44.40766" lon="2.4267">
        <ele>393</ele>
        <time>2011-01-09T09:49:20Z</time>
      </trkpt>
      <trkpt lat="44.40763" lon="2.42672">
        <ele>392.9</ele>
        <time>2011-01-09T09:49:21Z</time>
      </trkpt>
      <trkpt lat="44.40761" lon="2.42675">
        <ele>392.8</ele>
        <time>2011-01-09T09:49:22Z</time>
      </trkpt>
      <trkpt lat="44.40758" lon="2.42677">
        <ele>392.7</ele>
        <time>2011-01-09T09:49:23Z</time>
      </trkpt>
      <trkpt lat="44.40756" lon="2.42679">
        <ele>392.9</ele>
        <time>2011-01-09T09:49:24Z</time>
      </trkpt>
      <trkpt lat="44.40754" lon="2.42682">
        <ele>393.1</ele>
        <time>2011-01-09T09:49:25Z</time>
      </trkpt>
      <trkpt lat="44.40751" lon="2.42684">
        <ele>393.2</ele>
        <time>2011-01-09T09:49:26Z</time>
      </trkpt>
      <trkpt lat="44.40749" lon="2.42686">
        <ele>393.3</ele>
        <time>2011-01-09T09:49:27Z</time>
      </trkpt>
      <trkpt lat="44.40747" lon="2.42688">
        <ele>393.3</ele>
        <time>2011-01-09T09:49:28Z</time>
      </trkpt>
      <trkpt lat="44.40745" lon="2.4269">
        <ele>393.4</ele>
        <time>2011-01-09T09:49:29Z</time>
      </trkpt>
      <trkpt lat="44.40742" lon="2.42694">
        <ele>393.3</ele>
        <time>2011-01-09T09:49:31Z</time>
      </trkpt>
      <trkpt lat="44.40739" lon="2.42698">
        <ele>393.2</ele>
        <time>2011-01-09T09:49:33Z</time>
      </trkpt>
      <trkpt lat="44.40736" lon="2.42701">
        <ele>393.9</ele>
        <time>2011-01-09T09:49:35Z</time>
      </trkpt>
      <trkpt lat="44.40732" lon="2.42704">
        <ele>394.1</ele>
        <time>2011-01-09T09:49:37Z</time>
      </trkpt>
      <trkpt lat="44.40728" lon="2.42706">
        <ele>394.1</ele>
        <time>2011-01-09T09:49:39Z</time>
      </trkpt>
      <trkpt lat="44.40724" lon="2.42706">
        <ele>394.5</ele>
        <time>2011-01-09T09:49:41Z</time>
      </trkpt>
      <trkpt lat="44.4072" lon="2.42705">
        <ele>395.1</ele>
        <time>2011-01-09T09:49:43Z</time>
      </trkpt>
      <trkpt lat="44.40718" lon="2.42705">
        <ele>395.4</ele>
        <time>2011-01-09T09:49:44Z</time>
      </trkpt>
      <trkpt lat="44.40715" lon="2.42704">
        <ele>395.6</ele>
        <time>2011-01-09T09:49:45Z</time>
      </trkpt>
      <trkpt lat="44.40713" lon="2.42704">
        <ele>395.7</ele>
        <time>2011-01-09T09:49:46Z</time>
      </trkpt>
      <trkpt lat="44.40709" lon="2.42703">
        <ele>395.7</ele>
        <time>2011-01-09T09:49:48Z</time>
      </trkpt>
      <trkpt lat="44.40705" lon="2.42705">
        <ele>395.1</ele>
        <time>2011-01-09T09:50:09Z</time>
      </trkpt>
      <trkpt lat="44.40708" lon="2.42704">
        <ele>394.4</ele>
        <time>2011-01-09T09:50:24Z</time>
      </trkpt>
      <trkpt lat="44.40712" lon="2.42704">
        <ele>394.9</ele>
        <time>2011-01-09T09:50:26Z</time>
      </trkpt>
      <trkpt lat="44.40716" lon="2.42705">
        <ele>395.3</ele>
        <time>2011-01-09T09:50:28Z</time>
      </trkpt>
      <trkpt lat="44.40717" lon="2.42705">
        <ele>395.4</ele>
        <time>2011-01-09T09:50:29Z</time>
      </trkpt>
      <trkpt lat="44.40722" lon="2.42705">
        <ele>395.4</ele>
        <time>2011-01-09T09:50:31Z</time>
      </trkpt>
      <trkpt lat="44.40725" lon="2.42705">
        <ele>395.2</ele>
        <time>2011-01-09T09:50:32Z</time>
      </trkpt>
      <trkpt lat="44.40728" lon="2.42704">
        <ele>395.1</ele>
        <time>2011-01-09T09:50:33Z</time>
      </trkpt>
      <trkpt lat="44.40731" lon="2.42701">
        <ele>394.9</ele>
        <time>2011-01-09T09:50:34Z</time>
      </trkpt>
      <trkpt lat="44.40734" lon="2.42698">
        <ele>394.8</ele>
        <time>2011-01-09T09:50:35Z</time>
      </trkpt>
      <trkpt lat="44.40738" lon="2.42695">
        <ele>394.7</ele>
        <time>2011-01-09T09:50:36Z</time>
      </trkpt>
      <trkpt lat="44.40742" lon="2.4269">
        <ele>394.6</ele>
        <time>2011-01-09T09:50:37Z</time>
      </trkpt>
      <trkpt lat="44.40745" lon="2.42685">
        <ele>394.9</ele>
        <time>2011-01-09T09:50:38Z</time>
      </trkpt>
      <trkpt lat="44.40749" lon="2.42681">
        <ele>395</ele>
        <time>2011-01-09T09:50:39Z</time>
      </trkpt>
      <trkpt lat="44.40752" lon="2.42676">
        <ele>395.2</ele>
        <time>2011-01-09T09:50:40Z</time>
      </trkpt>
      <trkpt lat="44.40755" lon="2.42672">
        <ele>394.4</ele>
        <time>2011-01-09T09:50:41Z</time>
      </trkpt>
      <trkpt lat="44.40758" lon="2.42669">
        <ele>393.9</ele>
        <time>2011-01-09T09:50:42Z</time>
      </trkpt>
      <trkpt lat="44.40761" lon="2.42666">
        <ele>393.5</ele>
        <time>2011-01-09T09:50:43Z</time>
      </trkpt>
      <trkpt lat="44.40764" lon="2.42664">
        <ele>393.1</ele>
        <time>2011-01-09T09:50:44Z</time>
      </trkpt>
      <trkpt lat="44.40767" lon="2.42662">
        <ele>392.9</ele>
        <time>2011-01-09T09:50:45Z</time>
      </trkpt>
      <trkpt lat="44.40769" lon="2.4266">
        <ele>392.7</ele>
        <time>2011-01-09T09:50:46Z</time>
      </trkpt>
      <trkpt lat="44.40772" lon="2.42659">
        <ele>392.6</ele>
        <time>2011-01-09T09:50:47Z</time>
      </trkpt>
      <trkpt lat="44.40775" lon="2.42659">
        <ele>392.5</ele>
        <time>2011-01-09T09:50:48Z</time>
      </trkpt>
      <trkpt lat="44.40778" lon="2.42659">
        <ele>392.4</ele>
        <time>2011-01-09T09:50:49Z</time>
      </trkpt>
      <trkpt lat="44.4078" lon="2.42661">
        <ele>392.8</ele>
        <time>2011-01-09T09:50:50Z</time>
      </trkpt>
      <trkpt lat="44.40782" lon="2.42662">
        <ele>393.2</ele>
        <time>2011-01-09T09:50:51Z</time>
      </trkpt>
      <trkpt lat="44.40784" lon="2.42664">
        <ele>393.4</ele>
        <time>2011-01-09T09:50:52Z</time>
      </trkpt>
      <trkpt lat="44.40786" lon="2.42666">
        <ele>393.6</ele>
        <time>2011-01-09T09:50:53Z</time>
      </trkpt>
      <trkpt lat="44.40788" lon="2.42668">
        <ele>393.7</ele>
        <time>2011-01-09T09:50:54Z</time>
      </trkpt>
      <trkpt lat="44.4079" lon="2.4267">
        <ele>393.8</ele>
        <time>2011-01-09T09:50:55Z</time>
      </trkpt>
      <trkpt lat="44.40793" lon="2.42673">
        <ele>393.3</ele>
        <time>2011-01-09T09:50:57Z</time>
      </trkpt>
      <trkpt lat="44.40797" lon="2.42676">
        <ele>392.6</ele>
        <time>2011-01-09T09:50:59Z</time>
      </trkpt>
      <trkpt lat="44.408" lon="2.4268">
        <ele>393</ele>
        <time>2011-01-09T09:51:01Z</time>
      </trkpt>
      <trkpt lat="44.40802" lon="2.42682">
        <ele>393.1</ele>
        <time>2011-01-09T09:51:02Z</time>
      </trkpt>
      <trkpt lat="44.40806" lon="2.42685">
        <ele>392.8</ele>
        <time>2011-01-09T09:51:04Z</time>
      </trkpt>
      <trkpt lat="44.40808" lon="2.42687">
        <ele>392.7</ele>
        <time>2011-01-09T09:51:05Z</time>
      </trkpt>
      <trkpt lat="44.4081" lon="2.42688">
        <ele>393</ele>
        <time>2011-01-09T09:51:06Z</time>
      </trkpt>
      <trkpt lat="44.40813" lon="2.4269">
        <ele>393.3</ele>
        <time>2011-01-09T09:51:07Z</time>
      </trkpt>
      <trkpt lat="44.40815" lon="2.42691">
        <ele>393.5</ele>
        <time>2011-01-09T09:51:08Z</time>
      </trkpt>
      <trkpt lat="44.40817" lon="2.42692">
        <ele>393.3</ele>
        <time>2011-01-09T09:51:09Z</time>
      </trkpt>
      <trkpt lat="44.4082" lon="2.42693">
        <ele>393.2</ele>
        <time>2011-01-09T09:51:10Z</time>
      </trkpt>
      <trkpt lat="44.40822" lon="2.42693">
        <ele>393.2</ele>
        <time>2011-01-09T09:51:11Z</time>
      </trkpt>
      <trkpt lat="44.40825" lon="2.42694">
        <ele>393.1</ele>
        <time>2011-01-09T09:51:12Z</time>
      </trkpt>
      <trkpt lat="44.40827" lon="2.42694">
        <ele>393.1</ele>
        <time>2011-01-09T09:51:13Z</time>
      </trkpt>
      <trkpt lat="44.4083" lon="2.42695">
        <ele>393.1</ele>
        <time>2011-01-09T09:51:14Z</time>
      </trkpt>
      <trkpt lat="44.40833" lon="2.42695">
        <ele>393.1</ele>
        <time>2011-01-09T09:51:15Z</time>
      </trkpt>
      <trkpt lat="44.40835" lon="2.42695">
        <ele>393.2</ele>
        <time>2011-01-09T09:51:16Z</time>
      </trkpt>
      <trkpt lat="44.40838" lon="2.42696">
        <ele>393.3</ele>
        <time>2011-01-09T09:51:17Z</time>
      </trkpt>
      <trkpt lat="44.40841" lon="2.42697">
        <ele>393.3</ele>
        <time>2011-01-09T09:51:18Z</time>
      </trkpt>
      <trkpt lat="44.40843" lon="2.42698">
        <ele>393.2</ele>
        <time>2011-01-09T09:51:19Z</time>
      </trkpt>
      <trkpt lat="44.40846" lon="2.42699">
        <ele>393.2</ele>
        <time>2011-01-09T09:51:20Z</time>
      </trkpt>
      <trkpt lat="44.40849" lon="2.427">
        <ele>393.1</ele>
        <time>2011-01-09T09:51:21Z</time>
      </trkpt>
      <trkpt lat="44.40852" lon="2.42701">
        <ele>393.1</ele>
        <time>2011-01-09T09:51:22Z</time>
      </trkpt>
      <trkpt lat="44.40855" lon="2.42702">
        <ele>393</ele>
        <time>2011-01-09T09:51:23Z</time>
      </trkpt>
      <trkpt lat="44.40858" lon="2.42702">
        <ele>393</ele>
        <time>2011-01-09T09:51:24Z</time>
      </trkpt>
      <trkpt lat="44.40861" lon="2.42703">
        <ele>392.6</ele>
        <time>2011-01-09T09:51:25Z</time>
      </trkpt>
      <trkpt lat="44.40863" lon="2.42704">
        <ele>392.3</ele>
        <time>2011-01-09T09:51:26Z</time>
      </trkpt>
      <trkpt lat="44.40866" lon="2.42705">
        <ele>392.1</ele>
        <time>2011-01-09T09:51:27Z</time>
      </trkpt>
      <trkpt lat="44.40869" lon="2.42705">
        <ele>391.9</ele>
        <time>2011-01-09T09:51:28Z</time>
      </trkpt>
      <trkpt lat="44.40872" lon="2.42706">
        <ele>392</ele>
        <time>2011-01-09T09:51:29Z</time>
      </trkpt>
      <trkpt lat="44.40874" lon="2.42707">
        <ele>392.1</ele>
        <time>2011-01-09T09:51:30Z</time>
      </trkpt>
      <trkpt lat="44.40877" lon="2.42709">
        <ele>392.2</ele>
        <time>2011-01-09T09:51:31Z</time>
      </trkpt>
      <trkpt lat="44.40879" lon="2.4271">
        <ele>392</ele>
        <time>2011-01-09T09:51:32Z</time>
      </trkpt>
      <trkpt lat="44.40882" lon="2.42712">
        <ele>391.9</ele>
        <time>2011-01-09T09:51:33Z</time>
      </trkpt>
      <trkpt lat="44.40884" lon="2.42714">
        <ele>391.9</ele>
        <time>2011-01-09T09:51:34Z</time>
      </trkpt>
      <trkpt lat="44.40886" lon="2.42716">
        <ele>392.1</ele>
        <time>2011-01-09T09:51:35Z</time>
      </trkpt>
      <trkpt lat="44.40888" lon="2.42718">
        <ele>392.2</ele>
        <time>2011-01-09T09:51:36Z</time>
      </trkpt>
      <trkpt lat="44.4089" lon="2.4272">
        <ele>392.3</ele>
        <time>2011-01-09T09:51:37Z</time>
      </trkpt>
      <trkpt lat="44.40893" lon="2.42724">
        <ele>392.5</ele>
        <time>2011-01-09T09:51:39Z</time>
      </trkpt>
      <trkpt lat="44.40896" lon="2.42727">
        <ele>392.6</ele>
        <time>2011-01-09T09:51:41Z</time>
      </trkpt>
      <trkpt lat="44.40899" lon="2.4273">
        <ele>392.7</ele>
        <time>2011-01-09T09:51:45Z</time>
      </trkpt>
      <trkpt lat="44.40899" lon="2.42735">
        <ele>392.4</ele>
        <time>2011-01-09T09:51:48Z</time>
      </trkpt>
      <trkpt lat="44.40896" lon="2.42739">
        <ele>392.5</ele>
        <time>2011-01-09T09:51:50Z</time>
      </trkpt>
      <trkpt lat="44.40894" lon="2.42743">
        <ele>393</ele>
        <time>2011-01-09T09:51:52Z</time>
      </trkpt>
      <trkpt lat="44.40892" lon="2.42748">
        <ele>393.1</ele>
        <time>2011-01-09T09:51:54Z</time>
      </trkpt>
      <trkpt lat="44.40891" lon="2.42751">
        <ele>393.1</ele>
        <time>2011-01-09T09:51:55Z</time>
      </trkpt>
      <trkpt lat="44.40891" lon="2.42755">
        <ele>393.1</ele>
        <time>2011-01-09T09:51:56Z</time>
      </trkpt>
      <trkpt lat="44.40891" lon="2.42758">
        <ele>393.1</ele>
        <time>2011-01-09T09:51:57Z</time>
      </trkpt>
      <trkpt lat="44.40892" lon="2.42762">
        <ele>393.1</ele>
        <time>2011-01-09T09:51:58Z</time>
      </trkpt>
      <trkpt lat="44.40894" lon="2.42766">
        <ele>393.1</ele>
        <time>2011-01-09T09:51:59Z</time>
      </trkpt>
      <trkpt lat="44.40895" lon="2.42769">
        <ele>393.1</ele>
        <time>2011-01-09T09:52:00Z</time>
      </trkpt>
      <trkpt lat="44.40897" lon="2.42772">
        <ele>393.3</ele>
        <time>2011-01-09T09:52:01Z</time>
      </trkpt>
      <trkpt lat="44.40898" lon="2.42776">
        <ele>393.4</ele>
        <time>2011-01-09T09:52:02Z</time>
      </trkpt>
      <trkpt lat="44.409" lon="2.42779">
        <ele>393.4</ele>
        <time>2011-01-09T09:52:03Z</time>
      </trkpt>
      <trkpt lat="44.40901" lon="2.42783">
        <ele>393.6</ele>
        <time>2011-01-09T09:52:04Z</time>
      </trkpt>
      <trkpt lat="44.40903" lon="2.42786">
        <ele>393.7</ele>
        <time>2011-01-09T09:52:05Z</time>
      </trkpt>
      <trkpt lat="44.40904" lon="2.4279">
        <ele>393.8</ele>
        <time>2011-01-09T09:52:06Z</time>
      </trkpt>
      <trkpt lat="44.40906" lon="2.42793">
        <ele>393.5</ele>
        <time>2011-01-09T09:52:07Z</time>
      </trkpt>
      <trkpt lat="44.40907" lon="2.42797">
        <ele>393.2</ele>
        <time>2011-01-09T09:52:08Z</time>
      </trkpt>
      <trkpt lat="44.40909" lon="2.42802">
        <ele>393.1</ele>
        <time>2011-01-09T09:52:09Z</time>
      </trkpt>
      <trkpt lat="44.40911" lon="2.42806">
        <ele>392.8</ele>
        <time>2011-01-09T09:52:10Z</time>
      </trkpt>
      <trkpt lat="44.40913" lon="2.42811">
        <ele>392.6</ele>
        <time>2011-01-09T09:52:11Z</time>
      </trkpt>
      <trkpt lat="44.40915" lon="2.42816">
        <ele>392.4</ele>
        <time>2011-01-09T09:52:12Z</time>
      </trkpt>
      <trkpt lat="44.40917" lon="2.42821">
        <ele>392.5</ele>
        <time>2011-01-09T09:52:13Z</time>
      </trkpt>
      <trkpt lat="44.40919" lon="2.42827">
        <ele>392.5</ele>
        <time>2011-01-09T09:52:14Z</time>
      </trkpt>
      <trkpt lat="44.40921" lon="2.42833">
        <ele>392.5</ele>
        <time>2011-01-09T09:52:15Z</time>
      </trkpt>
      <trkpt lat="44.40923" lon="2.4284">
        <ele>392.5</ele>
        <time>2011-01-09T09:52:16Z</time>
      </trkpt>
      <trkpt lat="44.40924" lon="2.42847">
        <ele>392.4</ele>
        <time>2011-01-09T09:52:17Z</time>
      </trkpt>
      <trkpt lat="44.40926" lon="2.42854">
        <ele>392.4</ele>
        <time>2011-01-09T09:52:18Z</time>
      </trkpt>
      <trkpt lat="44.40927" lon="2.42862">
        <ele>392.4</ele>
        <time>2011-01-09T09:52:19Z</time>
      </trkpt>
      <trkpt lat="44.40928" lon="2.42869">
        <ele>391.9</ele>
        <time>2011-01-09T09:52:20Z</time>
      </trkpt>
      <trkpt lat="44.40929" lon="2.42876">
        <ele>391.5</ele>
        <time>2011-01-09T09:52:21Z</time>
      </trkpt>
      <trkpt lat="44.40931" lon="2.42883">
        <ele>391.2</ele>
        <time>2011-01-09T09:52:22Z</time>
      </trkpt>
      <trkpt lat="44.40933" lon="2.4289">
        <ele>390.9</ele>
        <time>2011-01-09T09:52:23Z</time>
      </trkpt>
      <trkpt lat="44.40936" lon="2.42895">
        <ele>390.6</ele>
        <time>2011-01-09T09:52:24Z</time>
      </trkpt>
      <trkpt lat="44.40939" lon="2.429">
        <ele>390.5</ele>
        <time>2011-01-09T09:52:25Z</time>
      </trkpt>
      <trkpt lat="44.40944" lon="2.42902">
        <ele>390.1</ele>
        <time>2011-01-09T09:52:26Z</time>
      </trkpt>
      <trkpt lat="44.4095" lon="2.42902">
        <ele>389.9</ele>
        <time>2011-01-09T09:52:27Z</time>
      </trkpt>
      <trkpt lat="44.40956" lon="2.42902">
        <ele>389.7</ele>
        <time>2011-01-09T09:52:28Z</time>
      </trkpt>
      <trkpt lat="44.40961" lon="2.429">
        <ele>389.4</ele>
        <time>2011-01-09T09:52:29Z</time>
      </trkpt>
      <trkpt lat="44.40966" lon="2.429">
        <ele>389.3</ele>
        <time>2011-01-09T09:52:30Z</time>
      </trkpt>
      <trkpt lat="44.40969" lon="2.42901">
        <ele>389.1</ele>
        <time>2011-01-09T09:52:31Z</time>
      </trkpt>
      <trkpt lat="44.40973" lon="2.42903">
        <ele>388.8</ele>
        <time>2011-01-09T09:52:32Z</time>
      </trkpt>
      <trkpt lat="44.40977" lon="2.42908">
        <ele>388.5</ele>
        <time>2011-01-09T09:52:33Z</time>
      </trkpt>
      <trkpt lat="44.4098" lon="2.42913">
        <ele>388.3</ele>
        <time>2011-01-09T09:52:34Z</time>
      </trkpt>
      <trkpt lat="44.40984" lon="2.42918">
        <ele>388.2</ele>
        <time>2011-01-09T09:52:35Z</time>
      </trkpt>
      <trkpt lat="44.40989" lon="2.42922">
        <ele>387</ele>
        <time>2011-01-09T09:52:36Z</time>
      </trkpt>
      <trkpt lat="44.40995" lon="2.42924">
        <ele>386.1</ele>
        <time>2011-01-09T09:52:37Z</time>
      </trkpt>
      <trkpt lat="44.41001" lon="2.42924">
        <ele>385.4</ele>
        <time>2011-01-09T09:52:38Z</time>
      </trkpt>
      <trkpt lat="44.41007" lon="2.42924">
        <ele>384.8</ele>
        <time>2011-01-09T09:52:39Z</time>
      </trkpt>
      <trkpt lat="44.41013" lon="2.42922">
        <ele>384.3</ele>
        <time>2011-01-09T09:52:40Z</time>
      </trkpt>
      <trkpt lat="44.41019" lon="2.42921">
        <ele>384</ele>
        <time>2011-01-09T09:52:41Z</time>
      </trkpt>
      <trkpt lat="44.41024" lon="2.4292">
        <ele>383.2</ele>
        <time>2011-01-09T09:52:42Z</time>
      </trkpt>
      <trkpt lat="44.41028" lon="2.42922">
        <ele>382.5</ele>
        <time>2011-01-09T09:52:43Z</time>
      </trkpt>
      <trkpt lat="44.4103" lon="2.42925">
        <ele>382.1</ele>
        <time>2011-01-09T09:52:44Z</time>
      </trkpt>
      <trkpt lat="44.41032" lon="2.42929">
        <ele>381.8</ele>
        <time>2011-01-09T09:52:45Z</time>
      </trkpt>
      <trkpt lat="44.41032" lon="2.42933">
        <ele>381.7</ele>
        <time>2011-01-09T09:52:46Z</time>
      </trkpt>
      <trkpt lat="44.41033" lon="2.42937">
        <ele>381.5</ele>
        <time>2011-01-09T09:52:47Z</time>
      </trkpt>
      <trkpt lat="44.41034" lon="2.42941">
        <ele>381.2</ele>
        <time>2011-01-09T09:52:48Z</time>
      </trkpt>
      <trkpt lat="44.41035" lon="2.42945">
        <ele>381</ele>
        <time>2011-01-09T09:52:49Z</time>
      </trkpt>
      <trkpt lat="44.41036" lon="2.4295">
        <ele>380.8</ele>
        <time>2011-01-09T09:52:50Z</time>
      </trkpt>
      <trkpt lat="44.41036" lon="2.42955">
        <ele>380.7</ele>
        <time>2011-01-09T09:52:51Z</time>
      </trkpt>
      <trkpt lat="44.41036" lon="2.4296">
        <ele>380.8</ele>
        <time>2011-01-09T09:52:52Z</time>
      </trkpt>
      <trkpt lat="44.41037" lon="2.42965">
        <ele>380.9</ele>
        <time>2011-01-09T09:52:53Z</time>
      </trkpt>
      <trkpt lat="44.41037" lon="2.42969">
        <ele>381</ele>
        <time>2011-01-09T09:52:54Z</time>
      </trkpt>
      <trkpt lat="44.41038" lon="2.42973">
        <ele>381.1</ele>
        <time>2011-01-09T09:52:55Z</time>
      </trkpt>
      <trkpt lat="44.41039" lon="2.42977">
        <ele>381.2</ele>
        <time>2011-01-09T09:52:56Z</time>
      </trkpt>
      <trkpt lat="44.41039" lon="2.4298">
        <ele>381.3</ele>
        <time>2011-01-09T09:52:57Z</time>
      </trkpt>
      <trkpt lat="44.4104" lon="2.42984">
        <ele>381.6</ele>
        <time>2011-01-09T09:52:58Z</time>
      </trkpt>
      <trkpt lat="44.41041" lon="2.42988">
        <ele>381.9</ele>
        <time>2011-01-09T09:52:59Z</time>
      </trkpt>
      <trkpt lat="44.41041" lon="2.42993">
        <ele>382</ele>
        <time>2011-01-09T09:53:00Z</time>
      </trkpt>
      <trkpt lat="44.41041" lon="2.42997">
        <ele>382.7</ele>
        <time>2011-01-09T09:53:01Z</time>
      </trkpt>
      <trkpt lat="44.41042" lon="2.43001">
        <ele>383.2</ele>
        <time>2011-01-09T09:53:02Z</time>
      </trkpt>
      <trkpt lat="44.41042" lon="2.43005">
        <ele>383.6</ele>
        <time>2011-01-09T09:53:03Z</time>
      </trkpt>
      <trkpt lat="44.41043" lon="2.43009">
        <ele>383.9</ele>
        <time>2011-01-09T09:53:04Z</time>
      </trkpt>
      <trkpt lat="44.41043" lon="2.43013">
        <ele>384.2</ele>
        <time>2011-01-09T09:53:05Z</time>
      </trkpt>
      <trkpt lat="44.41043" lon="2.43017">
        <ele>384.4</ele>
        <time>2011-01-09T09:53:06Z</time>
      </trkpt>
      <trkpt lat="44.41044" lon="2.43021">
        <ele>384.6</ele>
        <time>2011-01-09T09:53:07Z</time>
      </trkpt>
      <trkpt lat="44.41044" lon="2.43025">
        <ele>384.9</ele>
        <time>2011-01-09T09:53:08Z</time>
      </trkpt>
      <trkpt lat="44.41044" lon="2.43029">
        <ele>385.1</ele>
        <time>2011-01-09T09:53:09Z</time>
      </trkpt>
      <trkpt lat="44.41044" lon="2.43032">
        <ele>385.2</ele>
        <time>2011-01-09T09:53:10Z</time>
      </trkpt>
      <trkpt lat="44.41044" lon="2.43036">
        <ele>385.4</ele>
        <time>2011-01-09T09:53:11Z</time>
      </trkpt>
      <trkpt lat="44.41044" lon="2.4304">
        <ele>385.6</ele>
        <time>2011-01-09T09:53:12Z</time>
      </trkpt>
      <trkpt lat="44.41044" lon="2.43044">
        <ele>385.7</ele>
        <time>2011-01-09T09:53:13Z</time>
      </trkpt>
      <trkpt lat="44.41044" lon="2.43047">
        <ele>385.5</ele>
        <time>2011-01-09T09:53:14Z</time>
      </trkpt>
      <trkpt lat="44.41044" lon="2.43053">
        <ele>385.2</ele>
        <time>2011-01-09T09:53:16Z</time>
      </trkpt>
      <trkpt lat="44.41043" lon="2.43056">
        <ele>385.8</ele>
        <time>2011-01-09T09:53:17Z</time>
      </trkpt>
      <trkpt lat="44.41042" lon="2.4306">
        <ele>386.3</ele>
        <time>2011-01-09T09:53:18Z</time>
      </trkpt>
      <trkpt lat="44.41041" lon="2.43063">
        <ele>386.7</ele>
        <time>2011-01-09T09:53:19Z</time>
      </trkpt>
      <trkpt lat="44.4104" lon="2.43065">
        <ele>387</ele>
        <time>2011-01-09T09:53:20Z</time>
      </trkpt>
      <trkpt lat="44.41038" lon="2.43068">
        <ele>387.3</ele>
        <time>2011-01-09T09:53:21Z</time>
      </trkpt>
      <trkpt lat="44.41037" lon="2.43071">
        <ele>387.5</ele>
        <time>2011-01-09T09:53:22Z</time>
      </trkpt>
      <trkpt lat="44.41036" lon="2.43074">
        <ele>387.6</ele>
        <time>2011-01-09T09:53:23Z</time>
      </trkpt>
      <trkpt lat="44.41034" lon="2.43077">
        <ele>387.3</ele>
        <time>2011-01-09T09:53:24Z</time>
      </trkpt>
      <trkpt lat="44.41032" lon="2.4308">
        <ele>387.1</ele>
        <time>2011-01-09T09:53:25Z</time>
      </trkpt>
      <trkpt lat="44.4103" lon="2.43082">
        <ele>387</ele>
        <time>2011-01-09T09:53:26Z</time>
      </trkpt>
      <trkpt lat="44.41029" lon="2.43085">
        <ele>387.2</ele>
        <time>2011-01-09T09:53:27Z</time>
      </trkpt>
      <trkpt lat="44.41027" lon="2.43087">
        <ele>387.5</ele>
        <time>2011-01-09T09:53:28Z</time>
      </trkpt>
      <trkpt lat="44.41026" lon="2.4309">
        <ele>387.6</ele>
        <time>2011-01-09T09:53:29Z</time>
      </trkpt>
      <trkpt lat="44.41024" lon="2.43092">
        <ele>388.1</ele>
        <time>2011-01-09T09:53:30Z</time>
      </trkpt>
      <trkpt lat="44.41023" lon="2.43095">
        <ele>388.5</ele>
        <time>2011-01-09T09:53:31Z</time>
      </trkpt>
      <trkpt lat="44.41021" lon="2.43098">
        <ele>388.8</ele>
        <time>2011-01-09T09:53:32Z</time>
      </trkpt>
      <trkpt lat="44.4102" lon="2.431">
        <ele>388.8</ele>
        <time>2011-01-09T09:53:33Z</time>
      </trkpt>
      <trkpt lat="44.41018" lon="2.43103">
        <ele>388.7</ele>
        <time>2011-01-09T09:53:34Z</time>
      </trkpt>
      <trkpt lat="44.41017" lon="2.43106">
        <ele>388.7</ele>
        <time>2011-01-09T09:53:35Z</time>
      </trkpt>
      <trkpt lat="44.41015" lon="2.43109">
        <ele>388.9</ele>
        <time>2011-01-09T09:53:36Z</time>
      </trkpt>
      <trkpt lat="44.41013" lon="2.43112">
        <ele>389</ele>
        <time>2011-01-09T09:53:37Z</time>
      </trkpt>
      <trkpt lat="44.41011" lon="2.43115">
        <ele>389.1</ele>
        <time>2011-01-09T09:53:38Z</time>
      </trkpt>
      <trkpt lat="44.4101" lon="2.43118">
        <ele>389.1</ele>
        <time>2011-01-09T09:53:39Z</time>
      </trkpt>
      <trkpt lat="44.41008" lon="2.43121">
        <ele>389.2</ele>
        <time>2011-01-09T09:53:40Z</time>
      </trkpt>
      <trkpt lat="44.41007" lon="2.43124">
        <ele>389.2</ele>
        <time>2011-01-09T09:53:41Z</time>
      </trkpt>
      <trkpt lat="44.41005" lon="2.43128">
        <ele>389.2</ele>
        <time>2011-01-09T09:53:42Z</time>
      </trkpt>
      <trkpt lat="44.41004" lon="2.43131">
        <ele>389.8</ele>
        <time>2011-01-09T09:53:43Z</time>
      </trkpt>
      <trkpt lat="44.41003" lon="2.43134">
        <ele>390.2</ele>
        <time>2011-01-09T09:53:44Z</time>
      </trkpt>
      <trkpt lat="44.41002" lon="2.43138">
        <ele>390.5</ele>
        <time>2011-01-09T09:53:45Z</time>
      </trkpt>
      <trkpt lat="44.41" lon="2.43141">
        <ele>390.8</ele>
        <time>2011-01-09T09:53:46Z</time>
      </trkpt>
      <trkpt lat="44.40999" lon="2.43145">
        <ele>391</ele>
        <time>2011-01-09T09:53:47Z</time>
      </trkpt>
      <trkpt lat="44.40998" lon="2.43148">
        <ele>391.2</ele>
        <time>2011-01-09T09:53:48Z</time>
      </trkpt>
      <trkpt lat="44.40998" lon="2.43152">
        <ele>391.8</ele>
        <time>2011-01-09T09:53:49Z</time>
      </trkpt>
      <trkpt lat="44.40997" lon="2.43155">
        <ele>392.2</ele>
        <time>2011-01-09T09:53:50Z</time>
      </trkpt>
      <trkpt lat="44.40996" lon="2.43159">
        <ele>392.5</ele>
        <time>2011-01-09T09:53:51Z</time>
      </trkpt>
      <trkpt lat="44.40995" lon="2.43162">
        <ele>392.2</ele>
        <time>2011-01-09T09:53:52Z</time>
      </trkpt>
      <trkpt lat="44.40994" lon="2.43166">
        <ele>392</ele>
        <time>2011-01-09T09:53:53Z</time>
      </trkpt>
      <trkpt lat="44.40993" lon="2.43169">
        <ele>391.9</ele>
        <time>2011-01-09T09:53:54Z</time>
      </trkpt>
      <trkpt lat="44.40992" lon="2.43173">
        <ele>391.7</ele>
        <time>2011-01-09T09:53:55Z</time>
      </trkpt>
      <trkpt lat="44.40991" lon="2.43177">
        <ele>391.5</ele>
        <time>2011-01-09T09:53:56Z</time>
      </trkpt>
      <trkpt lat="44.4099" lon="2.4318">
        <ele>391.4</ele>
        <time>2011-01-09T09:53:57Z</time>
      </trkpt>
      <trkpt lat="44.40989" lon="2.43184">
        <ele>391.3</ele>
        <time>2011-01-09T09:53:58Z</time>
      </trkpt>
      <trkpt lat="44.40988" lon="2.43187">
        <ele>391.5</ele>
        <time>2011-01-09T09:53:59Z</time>
      </trkpt>
      <trkpt lat="44.40987" lon="2.43191">
        <ele>391.6</ele>
        <time>2011-01-09T09:54:00Z</time>
      </trkpt>
      <trkpt lat="44.40987" lon="2.43194">
        <ele>391.7</ele>
        <time>2011-01-09T09:54:01Z</time>
      </trkpt>
      <trkpt lat="44.40986" lon="2.43198">
        <ele>391.8</ele>
        <time>2011-01-09T09:54:02Z</time>
      </trkpt>
      <trkpt lat="44.40985" lon="2.43201">
        <ele>391.9</ele>
        <time>2011-01-09T09:54:03Z</time>
      </trkpt>
      <trkpt lat="44.40985" lon="2.43204">
        <ele>392</ele>
        <time>2011-01-09T09:54:04Z</time>
      </trkpt>
      <trkpt lat="44.40984" lon="2.43207">
        <ele>392.3</ele>
        <time>2011-01-09T09:54:05Z</time>
      </trkpt>
      <trkpt lat="44.40983" lon="2.43211">
        <ele>392.4</ele>
        <time>2011-01-09T09:54:06Z</time>
      </trkpt>
      <trkpt lat="44.40982" lon="2.43214">
        <ele>392.6</ele>
        <time>2011-01-09T09:54:07Z</time>
      </trkpt>
      <trkpt lat="44.40981" lon="2.43217">
        <ele>392.6</ele>
        <time>2011-01-09T09:54:08Z</time>
      </trkpt>
      <trkpt lat="44.40981" lon="2.4322">
        <ele>392.6</ele>
        <time>2011-01-09T09:54:09Z</time>
      </trkpt>
      <trkpt lat="44.4098" lon="2.43223">
        <ele>392.6</ele>
        <time>2011-01-09T09:54:10Z</time>
      </trkpt>
      <trkpt lat="44.40979" lon="2.43226">
        <ele>393.1</ele>
        <time>2011-01-09T09:54:11Z</time>
      </trkpt>
      <trkpt lat="44.40978" lon="2.43229">
        <ele>393.4</ele>
        <time>2011-01-09T09:54:12Z</time>
      </trkpt>
      <trkpt lat="44.40978" lon="2.43232">
        <ele>393.7</ele>
        <time>2011-01-09T09:54:13Z</time>
      </trkpt>
      <trkpt lat="44.40977" lon="2.43235">
        <ele>393.9</ele>
        <time>2011-01-09T09:54:14Z</time>
      </trkpt>
      <trkpt lat="44.40976" lon="2.43238">
        <ele>394.4</ele>
        <time>2011-01-09T09:54:15Z</time>
      </trkpt>
      <trkpt lat="44.40975" lon="2.43244">
        <ele>395</ele>
        <time>2011-01-09T09:54:17Z</time>
      </trkpt>
      <trkpt lat="44.40973" lon="2.4325">
        <ele>394.4</ele>
        <time>2011-01-09T09:54:19Z</time>
      </trkpt>
      <trkpt lat="44.40972" lon="2.43256">
        <ele>394.5</ele>
        <time>2011-01-09T09:54:21Z</time>
      </trkpt>
      <trkpt lat="44.40971" lon="2.43262">
        <ele>394.8</ele>
        <time>2011-01-09T09:54:23Z</time>
      </trkpt>
      <trkpt lat="44.40969" lon="2.43267">
        <ele>395</ele>
        <time>2011-01-09T09:54:25Z</time>
      </trkpt>
      <trkpt lat="44.40967" lon="2.43272">
        <ele>395.5</ele>
        <time>2011-01-09T09:54:27Z</time>
      </trkpt>
      <trkpt lat="44.40966" lon="2.43275">
        <ele>395.8</ele>
        <time>2011-01-09T09:54:28Z</time>
      </trkpt>
      <trkpt lat="44.40965" lon="2.43278">
        <ele>396</ele>
        <time>2011-01-09T09:54:29Z</time>
      </trkpt>
      <trkpt lat="44.40964" lon="2.43281">
        <ele>396.2</ele>
        <time>2011-01-09T09:54:30Z</time>
      </trkpt>
      <trkpt lat="44.40962" lon="2.43287">
        <ele>396.9</ele>
        <time>2011-01-09T09:54:32Z</time>
      </trkpt>
      <trkpt lat="44.40961" lon="2.4329">
        <ele>397.2</ele>
        <time>2011-01-09T09:54:33Z</time>
      </trkpt>
      <trkpt lat="44.4096" lon="2.43293">
        <ele>397.4</ele>
        <time>2011-01-09T09:54:34Z</time>
      </trkpt>
      <trkpt lat="44.40959" lon="2.43296">
        <ele>397.5</ele>
        <time>2011-01-09T09:54:35Z</time>
      </trkpt>
      <trkpt lat="44.40958" lon="2.43299">
        <ele>397.7</ele>
        <time>2011-01-09T09:54:36Z</time>
      </trkpt>
      <trkpt lat="44.40957" lon="2.43302">
        <ele>398</ele>
        <time>2011-01-09T09:54:37Z</time>
      </trkpt>
      <trkpt lat="44.40956" lon="2.43305">
        <ele>398.2</ele>
        <time>2011-01-09T09:54:38Z</time>
      </trkpt>
      <trkpt lat="44.40954" lon="2.43308">
        <ele>398.4</ele>
        <time>2011-01-09T09:54:39Z</time>
      </trkpt>
      <trkpt lat="44.40954" lon="2.43311">
        <ele>398.4</ele>
        <time>2011-01-09T09:54:40Z</time>
      </trkpt>
      <trkpt lat="44.40953" lon="2.43314">
        <ele>398.5</ele>
        <time>2011-01-09T09:54:41Z</time>
      </trkpt>
      <trkpt lat="44.40952" lon="2.4332">
        <ele>398.6</ele>
        <time>2011-01-09T09:54:43Z</time>
      </trkpt>
      <trkpt lat="44.40951" lon="2.43323">
        <ele>398.7</ele>
        <time>2011-01-09T09:54:44Z</time>
      </trkpt>
      <trkpt lat="44.4095" lon="2.43327">
        <ele>398.8</ele>
        <time>2011-01-09T09:54:45Z</time>
      </trkpt>
      <trkpt lat="44.4095" lon="2.4333">
        <ele>398.9</ele>
        <time>2011-01-09T09:54:46Z</time>
      </trkpt>
      <trkpt lat="44.40949" lon="2.43333">
        <ele>399.3</ele>
        <time>2011-01-09T09:54:47Z</time>
      </trkpt>
      <trkpt lat="44.40949" lon="2.43337">
        <ele>399.7</ele>
        <time>2011-01-09T09:54:48Z</time>
      </trkpt>
      <trkpt lat="44.40948" lon="2.4334">
        <ele>400</ele>
        <time>2011-01-09T09:54:49Z</time>
      </trkpt>
      <trkpt lat="44.40948" lon="2.43343">
        <ele>400.2</ele>
        <time>2011-01-09T09:54:50Z</time>
      </trkpt>
      <trkpt lat="44.40947" lon="2.43347">
        <ele>400.4</ele>
        <time>2011-01-09T09:54:51Z</time>
      </trkpt>
      <trkpt lat="44.40947" lon="2.4335">
        <ele>400.5</ele>
        <time>2011-01-09T09:54:52Z</time>
      </trkpt>
      <trkpt lat="44.40946" lon="2.43353">
        <ele>401</ele>
        <time>2011-01-09T09:54:53Z</time>
      </trkpt>
      <trkpt lat="44.40946" lon="2.43357">
        <ele>401.3</ele>
        <time>2011-01-09T09:54:54Z</time>
      </trkpt>
      <trkpt lat="44.40945" lon="2.4336">
        <ele>401.6</ele>
        <time>2011-01-09T09:54:55Z</time>
      </trkpt>
      <trkpt lat="44.40945" lon="2.43363">
        <ele>401.7</ele>
        <time>2011-01-09T09:54:56Z</time>
      </trkpt>
      <trkpt lat="44.40944" lon="2.43366">
        <ele>401.8</ele>
        <time>2011-01-09T09:54:57Z</time>
      </trkpt>
      <trkpt lat="44.40943" lon="2.4337">
        <ele>401.9</ele>
        <time>2011-01-09T09:54:58Z</time>
      </trkpt>
      <trkpt lat="44.40943" lon="2.43373">
        <ele>402.1</ele>
        <time>2011-01-09T09:54:59Z</time>
      </trkpt>
      <trkpt lat="44.40942" lon="2.43376">
        <ele>402.1</ele>
        <time>2011-01-09T09:55:00Z</time>
      </trkpt>
      <trkpt lat="44.40941" lon="2.43379">
        <ele>402.2</ele>
        <time>2011-01-09T09:55:01Z</time>
      </trkpt>
      <trkpt lat="44.4094" lon="2.43382">
        <ele>402.3</ele>
        <time>2011-01-09T09:55:02Z</time>
      </trkpt>
      <trkpt lat="44.40939" lon="2.43385">
        <ele>402.4</ele>
        <time>2011-01-09T09:55:03Z</time>
      </trkpt>
      <trkpt lat="44.40938" lon="2.43388">
        <ele>402.4</ele>
        <time>2011-01-09T09:55:04Z</time>
      </trkpt>
      <trkpt lat="44.40937" lon="2.43391">
        <ele>402.5</ele>
        <time>2011-01-09T09:55:05Z</time>
      </trkpt>
      <trkpt lat="44.40937" lon="2.43394">
        <ele>402.5</ele>
        <time>2011-01-09T09:55:06Z</time>
      </trkpt>
      <trkpt lat="44.40936" lon="2.43398">
        <ele>402.5</ele>
        <time>2011-01-09T09:55:07Z</time>
      </trkpt>
      <trkpt lat="44.40935" lon="2.43401">
        <ele>402.5</ele>
        <time>2011-01-09T09:55:08Z</time>
      </trkpt>
      <trkpt lat="44.40935" lon="2.43404">
        <ele>402.9</ele>
        <time>2011-01-09T09:55:09Z</time>
      </trkpt>
      <trkpt lat="44.40935" lon="2.43408">
        <ele>403.2</ele>
        <time>2011-01-09T09:55:10Z</time>
      </trkpt>
      <trkpt lat="44.40934" lon="2.43412">
        <ele>403.5</ele>
        <time>2011-01-09T09:55:11Z</time>
      </trkpt>
      <trkpt lat="44.40934" lon="2.43415">
        <ele>403.2</ele>
        <time>2011-01-09T09:55:12Z</time>
      </trkpt>
      <trkpt lat="44.40935" lon="2.43419">
        <ele>403</ele>
        <time>2011-01-09T09:55:13Z</time>
      </trkpt>
      <trkpt lat="44.40935" lon="2.43422">
        <ele>402.9</ele>
        <time>2011-01-09T09:55:14Z</time>
      </trkpt>
      <trkpt lat="44.40935" lon="2.43425">
        <ele>403.2</ele>
        <time>2011-01-09T09:55:15Z</time>
      </trkpt>
      <trkpt lat="44.40936" lon="2.43429">
        <ele>403.4</ele>
        <time>2011-01-09T09:55:16Z</time>
      </trkpt>
      <trkpt lat="44.40937" lon="2.43435">
        <ele>403.8</ele>
        <time>2011-01-09T09:55:18Z</time>
      </trkpt>
      <trkpt lat="44.40938" lon="2.43441">
        <ele>404</ele>
        <time>2011-01-09T09:55:20Z</time>
      </trkpt>
      <trkpt lat="44.40939" lon="2.43446">
        <ele>404.4</ele>
        <time>2011-01-09T09:55:22Z</time>
      </trkpt>
      <trkpt lat="44.40939" lon="2.43452">
        <ele>404.9</ele>
        <time>2011-01-09T09:55:24Z</time>
      </trkpt>
      <trkpt lat="44.40941" lon="2.43457">
        <ele>404.5</ele>
        <time>2011-01-09T09:55:26Z</time>
      </trkpt>
      <trkpt lat="44.40942" lon="2.43463">
        <ele>404.7</ele>
        <time>2011-01-09T09:55:28Z</time>
      </trkpt>
      <trkpt lat="44.40943" lon="2.43468">
        <ele>405.1</ele>
        <time>2011-01-09T09:55:30Z</time>
      </trkpt>
      <trkpt lat="44.40944" lon="2.43473">
        <ele>406</ele>
        <time>2011-01-09T09:55:32Z</time>
      </trkpt>
      <trkpt lat="44.40945" lon="2.43479">
        <ele>406.6</ele>
        <time>2011-01-09T09:55:34Z</time>
      </trkpt>
      <trkpt lat="44.40945" lon="2.43483">
        <ele>406.8</ele>
        <time>2011-01-09T09:55:35Z</time>
      </trkpt>
      <trkpt lat="44.40946" lon="2.43492">
        <ele>407.4</ele>
        <time>2011-01-09T09:55:38Z</time>
      </trkpt>
      <trkpt lat="44.40946" lon="2.43497">
        <ele>407.9</ele>
        <time>2011-01-09T09:55:40Z</time>
      </trkpt>
      <trkpt lat="44.40947" lon="2.43503">
        <ele>408.2</ele>
        <time>2011-01-09T09:55:42Z</time>
      </trkpt>
      <trkpt lat="44.40948" lon="2.43509">
        <ele>408.4</ele>
        <time>2011-01-09T09:55:44Z</time>
      </trkpt>
      <trkpt lat="44.40949" lon="2.43514">
        <ele>408.5</ele>
        <time>2011-01-09T09:55:46Z</time>
      </trkpt>
      <trkpt lat="44.40949" lon="2.43518">
        <ele>408.7</ele>
        <time>2011-01-09T09:55:47Z</time>
      </trkpt>
      <trkpt lat="44.40951" lon="2.43524">
        <ele>409.1</ele>
        <time>2011-01-09T09:55:49Z</time>
      </trkpt>
      <trkpt lat="44.40952" lon="2.43527">
        <ele>409.4</ele>
        <time>2011-01-09T09:55:50Z</time>
      </trkpt>
      <trkpt lat="44.40953" lon="2.43533">
        <ele>409.8</ele>
        <time>2011-01-09T09:55:52Z</time>
      </trkpt>
      <trkpt lat="44.40954" lon="2.43538">
        <ele>409.6</ele>
        <time>2011-01-09T09:55:54Z</time>
      </trkpt>
      <trkpt lat="44.40956" lon="2.43544">
        <ele>409.2</ele>
        <time>2011-01-09T09:55:56Z</time>
      </trkpt>
      <trkpt lat="44.40957" lon="2.4355">
        <ele>410</ele>
        <time>2011-01-09T09:55:58Z</time>
      </trkpt>
      <trkpt lat="44.40958" lon="2.43556">
        <ele>410.4</ele>
        <time>2011-01-09T09:56:00Z</time>
      </trkpt>
      <trkpt lat="44.40959" lon="2.43562">
        <ele>410.5</ele>
        <time>2011-01-09T09:56:02Z</time>
      </trkpt>
      <trkpt lat="44.4096" lon="2.43568">
        <ele>411.1</ele>
        <time>2011-01-09T09:56:04Z</time>
      </trkpt>
      <trkpt lat="44.4096" lon="2.43574">
        <ele>411.5</ele>
        <time>2011-01-09T09:56:06Z</time>
      </trkpt>
      <trkpt lat="44.40961" lon="2.4358">
        <ele>411.7</ele>
        <time>2011-01-09T09:56:08Z</time>
      </trkpt>
      <trkpt lat="44.40961" lon="2.43583">
        <ele>411.8</ele>
        <time>2011-01-09T09:56:09Z</time>
      </trkpt>
      <trkpt lat="44.40961" lon="2.43586">
        <ele>411.7</ele>
        <time>2011-01-09T09:56:10Z</time>
      </trkpt>
      <trkpt lat="44.40961" lon="2.43589">
        <ele>411.5</ele>
        <time>2011-01-09T09:56:11Z</time>
      </trkpt>
      <trkpt lat="44.40961" lon="2.43593">
        <ele>411.4</ele>
        <time>2011-01-09T09:56:12Z</time>
      </trkpt>
      <trkpt lat="44.40961" lon="2.43596">
        <ele>411.7</ele>
        <time>2011-01-09T09:56:13Z</time>
      </trkpt>
      <trkpt lat="44.4096" lon="2.43599">
        <ele>411.8</ele>
        <time>2011-01-09T09:56:14Z</time>
      </trkpt>
      <trkpt lat="44.4096" lon="2.43603">
        <ele>412</ele>
        <time>2011-01-09T09:56:15Z</time>
      </trkpt>
      <trkpt lat="44.4096" lon="2.43606">
        <ele>412.3</ele>
        <time>2011-01-09T09:56:16Z</time>
      </trkpt>
      <trkpt lat="44.4096" lon="2.4361">
        <ele>412.6</ele>
        <time>2011-01-09T09:56:17Z</time>
      </trkpt>
      <trkpt lat="44.4096" lon="2.43613">
        <ele>412.8</ele>
        <time>2011-01-09T09:56:18Z</time>
      </trkpt>
      <trkpt lat="44.4096" lon="2.43617">
        <ele>412.7</ele>
        <time>2011-01-09T09:56:19Z</time>
      </trkpt>
      <trkpt lat="44.4096" lon="2.4362">
        <ele>412.6</ele>
        <time>2011-01-09T09:56:20Z</time>
      </trkpt>
      <trkpt lat="44.4096" lon="2.43623">
        <ele>412.6</ele>
        <time>2011-01-09T09:56:21Z</time>
      </trkpt>
      <trkpt lat="44.40959" lon="2.43627">
        <ele>412.9</ele>
        <time>2011-01-09T09:56:22Z</time>
      </trkpt>
      <trkpt lat="44.40959" lon="2.4363">
        <ele>413.2</ele>
        <time>2011-01-09T09:56:23Z</time>
      </trkpt>
      <trkpt lat="44.40959" lon="2.43633">
        <ele>413.5</ele>
        <time>2011-01-09T09:56:24Z</time>
      </trkpt>
      <trkpt lat="44.40959" lon="2.43636">
        <ele>413.5</ele>
        <time>2011-01-09T09:56:25Z</time>
      </trkpt>
      <trkpt lat="44.40958" lon="2.43643">
        <ele>413.5</ele>
        <time>2011-01-09T09:56:27Z</time>
      </trkpt>
      <trkpt lat="44.40957" lon="2.43648">
        <ele>413.8</ele>
        <time>2011-01-09T09:56:29Z</time>
      </trkpt>
      <trkpt lat="44.40955" lon="2.43653">
        <ele>414.2</ele>
        <time>2011-01-09T09:56:31Z</time>
      </trkpt>
      <trkpt lat="44.40953" lon="2.43657">
        <ele>414.6</ele>
        <time>2011-01-09T09:56:33Z</time>
      </trkpt>
      <trkpt lat="44.40951" lon="2.43661">
        <ele>415</ele>
        <time>2011-01-09T09:56:35Z</time>
      </trkpt>
      <trkpt lat="44.40949" lon="2.43662">
        <ele>415.1</ele>
        <time>2011-01-09T09:56:36Z</time>
      </trkpt>
      <trkpt lat="44.40945" lon="2.43668">
        <ele>415.5</ele>
        <time>2011-01-09T09:56:39Z</time>
      </trkpt>
      <trkpt lat="44.40943" lon="2.43672">
        <ele>415.6</ele>
        <time>2011-01-09T09:56:41Z</time>
      </trkpt>
      <trkpt lat="44.40942" lon="2.43676">
        <ele>415.6</ele>
        <time>2011-01-09T09:56:43Z</time>
      </trkpt>
      <trkpt lat="44.40941" lon="2.4368">
        <ele>416.4</ele>
        <time>2011-01-09T09:56:45Z</time>
      </trkpt>
      <trkpt lat="44.4094" lon="2.43685">
        <ele>417.3</ele>
        <time>2011-01-09T09:56:47Z</time>
      </trkpt>
      <trkpt lat="44.40941" lon="2.43691">
        <ele>417.9</ele>
        <time>2011-01-09T09:56:49Z</time>
      </trkpt>
      <trkpt lat="44.40942" lon="2.43697">
        <ele>418.2</ele>
        <time>2011-01-09T09:56:51Z</time>
      </trkpt>
      <trkpt lat="44.40943" lon="2.43703">
        <ele>418.2</ele>
        <time>2011-01-09T09:56:53Z</time>
      </trkpt>
      <trkpt lat="44.40944" lon="2.43705">
        <ele>418.2</ele>
        <time>2011-01-09T09:56:54Z</time>
      </trkpt>
      <trkpt lat="44.40945" lon="2.43708">
        <ele>418.1</ele>
        <time>2011-01-09T09:56:55Z</time>
      </trkpt>
      <trkpt lat="44.40947" lon="2.43714">
        <ele>418.2</ele>
        <time>2011-01-09T09:56:57Z</time>
      </trkpt>
      <trkpt lat="44.40948" lon="2.4372">
        <ele>418.4</ele>
        <time>2011-01-09T09:56:59Z</time>
      </trkpt>
      <trkpt lat="44.40948" lon="2.43723">
        <ele>418.5</ele>
        <time>2011-01-09T09:57:00Z</time>
      </trkpt>
      <trkpt lat="44.40949" lon="2.43726">
        <ele>418.4</ele>
        <time>2011-01-09T09:57:01Z</time>
      </trkpt>
      <trkpt lat="44.40949" lon="2.4373">
        <ele>418.4</ele>
        <time>2011-01-09T09:57:02Z</time>
      </trkpt>
      <trkpt lat="44.40949" lon="2.43733">
        <ele>418.4</ele>
        <time>2011-01-09T09:57:03Z</time>
      </trkpt>
      <trkpt lat="44.4095" lon="2.43737">
        <ele>418.6</ele>
        <time>2011-01-09T09:57:04Z</time>
      </trkpt>
      <trkpt lat="44.4095" lon="2.43741">
        <ele>418.7</ele>
        <time>2011-01-09T09:57:05Z</time>
      </trkpt>
      <trkpt lat="44.4095" lon="2.43745">
        <ele>418.9</ele>
        <time>2011-01-09T09:57:06Z</time>
      </trkpt>
      <trkpt lat="44.40951" lon="2.43749">
        <ele>419.3</ele>
        <time>2011-01-09T09:57:07Z</time>
      </trkpt>
      <trkpt lat="44.40951" lon="2.43752">
        <ele>419.6</ele>
        <time>2011-01-09T09:57:08Z</time>
      </trkpt>
      <trkpt lat="44.40951" lon="2.43756">
        <ele>419.9</ele>
        <time>2011-01-09T09:57:09Z</time>
      </trkpt>
      <trkpt lat="44.40951" lon="2.43759">
        <ele>420.1</ele>
        <time>2011-01-09T09:57:10Z</time>
      </trkpt>
      <trkpt lat="44.4095" lon="2.43762">
        <ele>420.2</ele>
        <time>2011-01-09T09:57:11Z</time>
      </trkpt>
      <trkpt lat="44.40949" lon="2.43768">
        <ele>420.6</ele>
        <time>2011-01-09T09:57:13Z</time>
      </trkpt>
      <trkpt lat="44.40949" lon="2.43773">
        <ele>420.9</ele>
        <time>2011-01-09T09:57:15Z</time>
      </trkpt>
      <trkpt lat="44.40949" lon="2.43779">
        <ele>421.3</ele>
        <time>2011-01-09T09:57:17Z</time>
      </trkpt>
      <trkpt lat="44.4095" lon="2.43784">
        <ele>421.6</ele>
        <time>2011-01-09T09:57:19Z</time>
      </trkpt>
      <trkpt lat="44.40951" lon="2.4379">
        <ele>421.7</ele>
        <time>2011-01-09T09:57:21Z</time>
      </trkpt>
      <trkpt lat="44.40952" lon="2.43794">
        <ele>421.7</ele>
        <time>2011-01-09T09:57:23Z</time>
      </trkpt>
      <trkpt lat="44.40954" lon="2.43797">
        <ele>421.6</ele>
        <time>2011-01-09T09:57:25Z</time>
      </trkpt>
      <trkpt lat="44.40956" lon="2.438">
        <ele>421.9</ele>
        <time>2011-01-09T09:57:27Z</time>
      </trkpt>
      <trkpt lat="44.40959" lon="2.43804">
        <ele>422.3</ele>
        <time>2011-01-09T09:57:29Z</time>
      </trkpt>
      <trkpt lat="44.40961" lon="2.43808">
        <ele>422.6</ele>
        <time>2011-01-09T09:57:31Z</time>
      </trkpt>
      <trkpt lat="44.40964" lon="2.43812">
        <ele>422.6</ele>
        <time>2011-01-09T09:57:33Z</time>
      </trkpt>
      <trkpt lat="44.40965" lon="2.43814">
        <ele>422.6</ele>
        <time>2011-01-09T09:57:34Z</time>
      </trkpt>
      <trkpt lat="44.40967" lon="2.43817">
        <ele>422.6</ele>
        <time>2011-01-09T09:57:35Z</time>
      </trkpt>
      <trkpt lat="44.40969" lon="2.43822">
        <ele>422.7</ele>
        <time>2011-01-09T09:57:37Z</time>
      </trkpt>
      <trkpt lat="44.4097" lon="2.43825">
        <ele>422.8</ele>
        <time>2011-01-09T09:57:38Z</time>
      </trkpt>
      <trkpt lat="44.40972" lon="2.43833">
        <ele>423.4</ele>
        <time>2011-01-09T09:57:41Z</time>
      </trkpt>
      <trkpt lat="44.40973" lon="2.43836">
        <ele>423.2</ele>
        <time>2011-01-09T09:57:42Z</time>
      </trkpt>
      <trkpt lat="44.40973" lon="2.4384">
        <ele>423.1</ele>
        <time>2011-01-09T09:57:43Z</time>
      </trkpt>
      <trkpt lat="44.40973" lon="2.43843">
        <ele>423.1</ele>
        <time>2011-01-09T09:57:44Z</time>
      </trkpt>
      <trkpt lat="44.40974" lon="2.43847">
        <ele>423.4</ele>
        <time>2011-01-09T09:57:45Z</time>
      </trkpt>
      <trkpt lat="44.40974" lon="2.4385">
        <ele>423.6</ele>
        <time>2011-01-09T09:57:46Z</time>
      </trkpt>
      <trkpt lat="44.40974" lon="2.43856">
        <ele>424.6</ele>
        <time>2011-01-09T09:57:48Z</time>
      </trkpt>
      <trkpt lat="44.40974" lon="2.43859">
        <ele>425.1</ele>
        <time>2011-01-09T09:57:49Z</time>
      </trkpt>
      <trkpt lat="44.40975" lon="2.43863">
        <ele>425.5</ele>
        <time>2011-01-09T09:57:50Z</time>
      </trkpt>
      <trkpt lat="44.40975" lon="2.43866">
        <ele>425.8</ele>
        <time>2011-01-09T09:57:51Z</time>
      </trkpt>
      <trkpt lat="44.40976" lon="2.4387">
        <ele>425.5</ele>
        <time>2011-01-09T09:57:52Z</time>
      </trkpt>
      <trkpt lat="44.40977" lon="2.43873">
        <ele>425.2</ele>
        <time>2011-01-09T09:57:53Z</time>
      </trkpt>
      <trkpt lat="44.40978" lon="2.43876">
        <ele>425</ele>
        <time>2011-01-09T09:57:54Z</time>
      </trkpt>
      <trkpt lat="44.40979" lon="2.43879">
        <ele>425.2</ele>
        <time>2011-01-09T09:57:55Z</time>
      </trkpt>
      <trkpt lat="44.40982" lon="2.43884">
        <ele>425.5</ele>
        <time>2011-01-09T09:57:57Z</time>
      </trkpt>
      <trkpt lat="44.40984" lon="2.43889">
        <ele>425.4</ele>
        <time>2011-01-09T09:57:59Z</time>
      </trkpt>
      <trkpt lat="44.40987" lon="2.43891">
        <ele>425.8</ele>
        <time>2011-01-09T09:58:01Z</time>
      </trkpt>
      <trkpt lat="44.40989" lon="2.43894">
        <ele>426.3</ele>
        <time>2011-01-09T09:58:03Z</time>
      </trkpt>
      <trkpt lat="44.40992" lon="2.43897">
        <ele>426.8</ele>
        <time>2011-01-09T09:58:05Z</time>
      </trkpt>
      <trkpt lat="44.40994" lon="2.439">
        <ele>427.1</ele>
        <time>2011-01-09T09:58:07Z</time>
      </trkpt>
      <trkpt lat="44.40998" lon="2.43903">
        <ele>427.3</ele>
        <time>2011-01-09T09:58:10Z</time>
      </trkpt>
      <trkpt lat="44.41001" lon="2.43906">
        <ele>427.4</ele>
        <time>2011-01-09T09:58:13Z</time>
      </trkpt>
      <trkpt lat="44.41005" lon="2.43909">
        <ele>428.1</ele>
        <time>2011-01-09T09:58:16Z</time>
      </trkpt>
      <trkpt lat="44.41008" lon="2.43911">
        <ele>428.6</ele>
        <time>2011-01-09T09:58:19Z</time>
      </trkpt>
      <trkpt lat="44.41011" lon="2.43914">
        <ele>429.2</ele>
        <time>2011-01-09T09:58:22Z</time>
      </trkpt>
      <trkpt lat="44.41014" lon="2.43917">
        <ele>429.7</ele>
        <time>2011-01-09T09:58:24Z</time>
      </trkpt>
      <trkpt lat="44.41017" lon="2.4392">
        <ele>430.5</ele>
        <time>2011-01-09T09:58:27Z</time>
      </trkpt>
      <trkpt lat="44.4102" lon="2.43923">
        <ele>430.8</ele>
        <time>2011-01-09T09:58:29Z</time>
      </trkpt>
      <trkpt lat="44.41023" lon="2.43927">
        <ele>430.9</ele>
        <time>2011-01-09T09:58:32Z</time>
      </trkpt>
      <trkpt lat="44.41026" lon="2.43929">
        <ele>431.6</ele>
        <time>2011-01-09T09:58:34Z</time>
      </trkpt>
      <trkpt lat="44.41028" lon="2.43932">
        <ele>431.9</ele>
        <time>2011-01-09T09:58:36Z</time>
      </trkpt>
      <trkpt lat="44.41031" lon="2.43935">
        <ele>432</ele>
        <time>2011-01-09T09:58:38Z</time>
      </trkpt>
      <trkpt lat="44.41032" lon="2.43937">
        <ele>432</ele>
        <time>2011-01-09T09:58:39Z</time>
      </trkpt>
      <trkpt lat="44.41036" lon="2.43941">
        <ele>433</ele>
        <time>2011-01-09T09:58:42Z</time>
      </trkpt>
      <trkpt lat="44.4104" lon="2.43945">
        <ele>433.6</ele>
        <time>2011-01-09T09:58:45Z</time>
      </trkpt>
      <trkpt lat="44.41043" lon="2.43947">
        <ele>434.2</ele>
        <time>2011-01-09T09:58:47Z</time>
      </trkpt>
      <trkpt lat="44.41045" lon="2.43949">
        <ele>434.5</ele>
        <time>2011-01-09T09:58:49Z</time>
      </trkpt>
      <trkpt lat="44.41049" lon="2.43953">
        <ele>434.4</ele>
        <time>2011-01-09T09:58:52Z</time>
      </trkpt>
      <trkpt lat="44.41053" lon="2.43955">
        <ele>434.3</ele>
        <time>2011-01-09T09:58:55Z</time>
      </trkpt>
      <trkpt lat="44.41056" lon="2.43958">
        <ele>434.8</ele>
        <time>2011-01-09T09:58:58Z</time>
      </trkpt>
      <trkpt lat="44.41059" lon="2.43961">
        <ele>435.8</ele>
        <time>2011-01-09T09:59:01Z</time>
      </trkpt>
      <trkpt lat="44.41062" lon="2.43964">
        <ele>435.6</ele>
        <time>2011-01-09T09:59:04Z</time>
      </trkpt>
      <trkpt lat="44.41065" lon="2.43967">
        <ele>436.6</ele>
        <time>2011-01-09T09:59:07Z</time>
      </trkpt>
      <trkpt lat="44.41067" lon="2.43971">
        <ele>436.3</ele>
        <time>2011-01-09T09:59:11Z</time>
      </trkpt>
      <trkpt lat="44.41071" lon="2.43974">
        <ele>437.1</ele>
        <time>2011-01-09T09:59:14Z</time>
      </trkpt>
      <trkpt lat="44.41074" lon="2.43976">
        <ele>437.3</ele>
        <time>2011-01-09T09:59:16Z</time>
      </trkpt>
      <trkpt lat="44.41078" lon="2.43979">
        <ele>437.3</ele>
        <time>2011-01-09T09:59:18Z</time>
      </trkpt>
      <trkpt lat="44.4108" lon="2.43983">
        <ele>437.3</ele>
        <time>2011-01-09T09:59:20Z</time>
      </trkpt>
      <trkpt lat="44.41084" lon="2.43986">
        <ele>436.9</ele>
        <time>2011-01-09T09:59:22Z</time>
      </trkpt>
      <trkpt lat="44.41088" lon="2.43989">
        <ele>437</ele>
        <time>2011-01-09T09:59:24Z</time>
      </trkpt>
      <trkpt lat="44.41091" lon="2.43993">
        <ele>437.4</ele>
        <time>2011-01-09T09:59:26Z</time>
      </trkpt>
      <trkpt lat="44.41094" lon="2.43996">
        <ele>437.5</ele>
        <time>2011-01-09T09:59:28Z</time>
      </trkpt>
      <trkpt lat="44.41097" lon="2.44">
        <ele>437.6</ele>
        <time>2011-01-09T09:59:30Z</time>
      </trkpt>
      <trkpt lat="44.411" lon="2.44004">
        <ele>438.4</ele>
        <time>2011-01-09T09:59:32Z</time>
      </trkpt>
      <trkpt lat="44.41102" lon="2.44007">
        <ele>438.8</ele>
        <time>2011-01-09T09:59:34Z</time>
      </trkpt>
      <trkpt lat="44.41105" lon="2.4401">
        <ele>439</ele>
        <time>2011-01-09T09:59:36Z</time>
      </trkpt>
      <trkpt lat="44.41107" lon="2.44013">
        <ele>440.4</ele>
        <time>2011-01-09T09:59:38Z</time>
      </trkpt>
      <trkpt lat="44.41109" lon="2.44016">
        <ele>440.6</ele>
        <time>2011-01-09T09:59:40Z</time>
      </trkpt>
      <trkpt lat="44.41111" lon="2.44018">
        <ele>440.4</ele>
        <time>2011-01-09T09:59:41Z</time>
      </trkpt>
      <trkpt lat="44.41116" lon="2.44024">
        <ele>442.3</ele>
        <time>2011-01-09T09:59:46Z</time>
      </trkpt>
      <trkpt lat="44.41119" lon="2.44028">
        <ele>442.8</ele>
        <time>2011-01-09T09:59:49Z</time>
      </trkpt>
      <trkpt lat="44.41122" lon="2.44031">
        <ele>443.2</ele>
        <time>2011-01-09T09:59:51Z</time>
      </trkpt>
      <trkpt lat="44.41124" lon="2.44034">
        <ele>443.4</ele>
        <time>2011-01-09T09:59:53Z</time>
      </trkpt>
      <trkpt lat="44.41126" lon="2.44039">
        <ele>443.7</ele>
        <time>2011-01-09T09:59:56Z</time>
      </trkpt>
      <trkpt lat="44.41128" lon="2.44043">
        <ele>444.2</ele>
        <time>2011-01-09T09:59:59Z</time>
      </trkpt>
      <trkpt lat="44.41131" lon="2.44048">
        <ele>444.8</ele>
        <time>2011-01-09T10:00:02Z</time>
      </trkpt>
      <trkpt lat="44.41134" lon="2.44052">
        <ele>446.4</ele>
        <time>2011-01-09T10:00:05Z</time>
      </trkpt>
      <trkpt lat="44.41136" lon="2.44055">
        <ele>446.9</ele>
        <time>2011-01-09T10:00:07Z</time>
      </trkpt>
      <trkpt lat="44.41139" lon="2.44057">
        <ele>447.4</ele>
        <time>2011-01-09T10:00:09Z</time>
      </trkpt>
      <trkpt lat="44.41141" lon="2.4406">
        <ele>447.9</ele>
        <time>2011-01-09T10:00:11Z</time>
      </trkpt>
      <trkpt lat="44.41144" lon="2.44063">
        <ele>448</ele>
        <time>2011-01-09T10:00:13Z</time>
      </trkpt>
      <trkpt lat="44.41146" lon="2.44066">
        <ele>448.4</ele>
        <time>2011-01-09T10:00:15Z</time>
      </trkpt>
      <trkpt lat="44.41149" lon="2.44069">
        <ele>448.8</ele>
        <time>2011-01-09T10:00:17Z</time>
      </trkpt>
      <trkpt lat="44.41152" lon="2.4407">
        <ele>449</ele>
        <time>2011-01-09T10:00:19Z</time>
      </trkpt>
      <trkpt lat="44.41155" lon="2.44072">
        <ele>449.1</ele>
        <time>2011-01-09T10:00:21Z</time>
      </trkpt>
      <trkpt lat="44.41158" lon="2.44075">
        <ele>449.5</ele>
        <time>2011-01-09T10:00:23Z</time>
      </trkpt>
      <trkpt lat="44.41161" lon="2.44077">
        <ele>449.9</ele>
        <time>2011-01-09T10:00:25Z</time>
      </trkpt>
      <trkpt lat="44.41164" lon="2.4408">
        <ele>450.3</ele>
        <time>2011-01-09T10:00:27Z</time>
      </trkpt>
      <trkpt lat="44.41167" lon="2.44083">
        <ele>450.8</ele>
        <time>2011-01-09T10:00:30Z</time>
      </trkpt>
      <trkpt lat="44.4117" lon="2.44086">
        <ele>451.8</ele>
        <time>2011-01-09T10:00:32Z</time>
      </trkpt>
      <trkpt lat="44.41173" lon="2.44089">
        <ele>452.2</ele>
        <time>2011-01-09T10:00:34Z</time>
      </trkpt>
      <trkpt lat="44.41177" lon="2.44091">
        <ele>452.3</ele>
        <time>2011-01-09T10:00:36Z</time>
      </trkpt>
      <trkpt lat="44.4118" lon="2.44094">
        <ele>452.4</ele>
        <time>2011-01-09T10:00:38Z</time>
      </trkpt>
      <trkpt lat="44.41182" lon="2.44096">
        <ele>452.4</ele>
        <time>2011-01-09T10:00:40Z</time>
      </trkpt>
      <trkpt lat="44.41185" lon="2.44099">
        <ele>452.3</ele>
        <time>2011-01-09T10:00:42Z</time>
      </trkpt>
      <trkpt lat="44.41186" lon="2.441">
        <ele>452.3</ele>
        <time>2011-01-09T10:00:43Z</time>
      </trkpt>
      <trkpt lat="44.41187" lon="2.44109">
        <ele>453.7</ele>
        <time>2011-01-09T10:00:49Z</time>
      </trkpt>
      <trkpt lat="44.41186" lon="2.44113">
        <ele>453.8</ele>
        <time>2011-01-09T10:00:51Z</time>
      </trkpt>
      <trkpt lat="44.41185" lon="2.4412">
        <ele>454.5</ele>
        <time>2011-01-09T10:00:54Z</time>
      </trkpt>
      <trkpt lat="44.41183" lon="2.44125">
        <ele>455.5</ele>
        <time>2011-01-09T10:00:57Z</time>
      </trkpt>
      <trkpt lat="44.4118" lon="2.4413">
        <ele>455.8</ele>
        <time>2011-01-09T10:01:00Z</time>
      </trkpt>
      <trkpt lat="44.41177" lon="2.44133">
        <ele>455.7</ele>
        <time>2011-01-09T10:01:03Z</time>
      </trkpt>
      <trkpt lat="44.41173" lon="2.44136">
        <ele>455.6</ele>
        <time>2011-01-09T10:01:06Z</time>
      </trkpt>
      <trkpt lat="44.41169" lon="2.44138">
        <ele>455.8</ele>
        <time>2011-01-09T10:01:09Z</time>
      </trkpt>
      <trkpt lat="44.41165" lon="2.4414">
        <ele>455.7</ele>
        <time>2011-01-09T10:01:12Z</time>
      </trkpt>
      <trkpt lat="44.41162" lon="2.44141">
        <ele>456</ele>
        <time>2011-01-09T10:01:14Z</time>
      </trkpt>
      <trkpt lat="44.41158" lon="2.44143">
        <ele>456.3</ele>
        <time>2011-01-09T10:01:16Z</time>
      </trkpt>
      <trkpt lat="44.41155" lon="2.44144">
        <ele>456.5</ele>
        <time>2011-01-09T10:01:18Z</time>
      </trkpt>
      <trkpt lat="44.41152" lon="2.44145">
        <ele>457.1</ele>
        <time>2011-01-09T10:01:20Z</time>
      </trkpt>
      <trkpt lat="44.41148" lon="2.44146">
        <ele>457.2</ele>
        <time>2011-01-09T10:01:22Z</time>
      </trkpt>
      <trkpt lat="44.41144" lon="2.44146">
        <ele>457.2</ele>
        <time>2011-01-09T10:01:24Z</time>
      </trkpt>
      <trkpt lat="44.4114" lon="2.44146">
        <ele>457.4</ele>
        <time>2011-01-09T10:01:26Z</time>
      </trkpt>
      <trkpt lat="44.41136" lon="2.44147">
        <ele>457.8</ele>
        <time>2011-01-09T10:01:28Z</time>
      </trkpt>
      <trkpt lat="44.41134" lon="2.44149">
        <ele>458.4</ele>
        <time>2011-01-09T10:01:30Z</time>
      </trkpt>
      <trkpt lat="44.41131" lon="2.44152">
        <ele>458.9</ele>
        <time>2011-01-09T10:01:32Z</time>
      </trkpt>
      <trkpt lat="44.41129" lon="2.44155">
        <ele>459.3</ele>
        <time>2011-01-09T10:01:34Z</time>
      </trkpt>
      <trkpt lat="44.41128" lon="2.44159">
        <ele>459.1</ele>
        <time>2011-01-09T10:01:36Z</time>
      </trkpt>
      <trkpt lat="44.41127" lon="2.44166">
        <ele>459.1</ele>
        <time>2011-01-09T10:01:39Z</time>
      </trkpt>
      <trkpt lat="44.41127" lon="2.44171">
        <ele>459.2</ele>
        <time>2011-01-09T10:01:42Z</time>
      </trkpt>
      <trkpt lat="44.41129" lon="2.44176">
        <ele>459.8</ele>
        <time>2011-01-09T10:01:46Z</time>
      </trkpt>
      <trkpt lat="44.41129" lon="2.44177">
        <ele>460</ele>
        <time>2011-01-09T10:01:47Z</time>
      </trkpt>
      <trkpt lat="44.41136" lon="2.44183">
        <ele>461.6</ele>
        <time>2011-01-09T10:01:57Z</time>
      </trkpt>
      <trkpt lat="44.41139" lon="2.44184">
        <ele>462.5</ele>
        <time>2011-01-09T10:02:01Z</time>
      </trkpt>
      <trkpt lat="44.41143" lon="2.44185">
        <ele>463.3</ele>
        <time>2011-01-09T10:02:06Z</time>
      </trkpt>
      <trkpt lat="44.41147" lon="2.44186">
        <ele>464.7</ele>
        <time>2011-01-09T10:02:09Z</time>
      </trkpt>
      <trkpt lat="44.41151" lon="2.44186">
        <ele>464.8</ele>
        <time>2011-01-09T10:02:12Z</time>
      </trkpt>
      <trkpt lat="44.41154" lon="2.44187">
        <ele>465.5</ele>
        <time>2011-01-09T10:02:14Z</time>
      </trkpt>
      <trkpt lat="44.41157" lon="2.44189">
        <ele>465.9</ele>
        <time>2011-01-09T10:02:16Z</time>
      </trkpt>
      <trkpt lat="44.41159" lon="2.44191">
        <ele>466</ele>
        <time>2011-01-09T10:02:18Z</time>
      </trkpt>
      <trkpt lat="44.41162" lon="2.44193">
        <ele>466.3</ele>
        <time>2011-01-09T10:02:20Z</time>
      </trkpt>
      <trkpt lat="44.41166" lon="2.44195">
        <ele>466.5</ele>
        <time>2011-01-09T10:02:22Z</time>
      </trkpt>
      <trkpt lat="44.41169" lon="2.44198">
        <ele>466.1</ele>
        <time>2011-01-09T10:02:24Z</time>
      </trkpt>
      <trkpt lat="44.41173" lon="2.44199">
        <ele>466.5</ele>
        <time>2011-01-09T10:02:26Z</time>
      </trkpt>
      <trkpt lat="44.41176" lon="2.44201">
        <ele>467.1</ele>
        <time>2011-01-09T10:02:28Z</time>
      </trkpt>
      <trkpt lat="44.41179" lon="2.44202">
        <ele>468</ele>
        <time>2011-01-09T10:02:30Z</time>
      </trkpt>
      <trkpt lat="44.41183" lon="2.44203">
        <ele>468.6</ele>
        <time>2011-01-09T10:02:32Z</time>
      </trkpt>
      <trkpt lat="44.41186" lon="2.44204">
        <ele>468.8</ele>
        <time>2011-01-09T10:02:34Z</time>
      </trkpt>
      <trkpt lat="44.41189" lon="2.44205">
        <ele>469.1</ele>
        <time>2011-01-09T10:02:36Z</time>
      </trkpt>
      <trkpt lat="44.41192" lon="2.44206">
        <ele>469.4</ele>
        <time>2011-01-09T10:02:38Z</time>
      </trkpt>
      <trkpt lat="44.41196" lon="2.44207">
        <ele>470.4</ele>
        <time>2011-01-09T10:02:40Z</time>
      </trkpt>
      <trkpt lat="44.41199" lon="2.44208">
        <ele>470.8</ele>
        <time>2011-01-09T10:02:42Z</time>
      </trkpt>
      <trkpt lat="44.41202" lon="2.44211">
        <ele>471.4</ele>
        <time>2011-01-09T10:02:45Z</time>
      </trkpt>
      <trkpt lat="44.41205" lon="2.44214">
        <ele>472.2</ele>
        <time>2011-01-09T10:02:48Z</time>
      </trkpt>
      <trkpt lat="44.41205" lon="2.44215">
        <ele>472.5</ele>
        <time>2011-01-09T10:02:49Z</time>
      </trkpt>
      <trkpt lat="44.41212" lon="2.44219">
        <ele>473</ele>
        <time>2011-01-09T10:03:03Z</time>
      </trkpt>
      <trkpt lat="44.41216" lon="2.44219">
        <ele>472.6</ele>
        <time>2011-01-09T10:03:07Z</time>
      </trkpt>
      <trkpt lat="44.4122" lon="2.44219">
        <ele>473</ele>
        <time>2011-01-09T10:03:10Z</time>
      </trkpt>
      <trkpt lat="44.41223" lon="2.44218">
        <ele>473.2</ele>
        <time>2011-01-09T10:03:13Z</time>
      </trkpt>
      <trkpt lat="44.41227" lon="2.44216">
        <ele>474</ele>
        <time>2011-01-09T10:03:16Z</time>
      </trkpt>
      <trkpt lat="44.4123" lon="2.44214">
        <ele>474.6</ele>
        <time>2011-01-09T10:03:19Z</time>
      </trkpt>
      <trkpt lat="44.41234" lon="2.44212">
        <ele>475.1</ele>
        <time>2011-01-09T10:03:22Z</time>
      </trkpt>
      <trkpt lat="44.41238" lon="2.4421">
        <ele>476</ele>
        <time>2011-01-09T10:03:25Z</time>
      </trkpt>
      <trkpt lat="44.41242" lon="2.44208">
        <ele>476.7</ele>
        <time>2011-01-09T10:03:28Z</time>
      </trkpt>
      <trkpt lat="44.41246" lon="2.44207">
        <ele>477.4</ele>
        <time>2011-01-09T10:03:31Z</time>
      </trkpt>
      <trkpt lat="44.4125" lon="2.44204">
        <ele>477.4</ele>
        <time>2011-01-09T10:03:34Z</time>
      </trkpt>
      <trkpt lat="44.41253" lon="2.44203">
        <ele>477.8</ele>
        <time>2011-01-09T10:03:36Z</time>
      </trkpt>
      <trkpt lat="44.41256" lon="2.44202">
        <ele>478.6</ele>
        <time>2011-01-09T10:03:38Z</time>
      </trkpt>
      <trkpt lat="44.41259" lon="2.44202">
        <ele>478.8</ele>
        <time>2011-01-09T10:03:40Z</time>
      </trkpt>
      <trkpt lat="44.41263" lon="2.44202">
        <ele>479.1</ele>
        <time>2011-01-09T10:03:43Z</time>
      </trkpt>
      <trkpt lat="44.41267" lon="2.44201">
        <ele>479.9</ele>
        <time>2011-01-09T10:03:46Z</time>
      </trkpt>
      <trkpt lat="44.41271" lon="2.44201">
        <ele>480.8</ele>
        <time>2011-01-09T10:03:49Z</time>
      </trkpt>
      <trkpt lat="44.41272" lon="2.44202">
        <ele>481</ele>
        <time>2011-01-09T10:03:50Z</time>
      </trkpt>
      <trkpt lat="44.41279" lon="2.44202">
        <ele>481.5</ele>
        <time>2011-01-09T10:03:56Z</time>
      </trkpt>
      <trkpt lat="44.41283" lon="2.44203">
        <ele>481.4</ele>
        <time>2011-01-09T10:03:59Z</time>
      </trkpt>
      <trkpt lat="44.41287" lon="2.44203">
        <ele>482.1</ele>
        <time>2011-01-09T10:04:02Z</time>
      </trkpt>
      <trkpt lat="44.41291" lon="2.44204">
        <ele>482.7</ele>
        <time>2011-01-09T10:04:05Z</time>
      </trkpt>
      <trkpt lat="44.41294" lon="2.44205">
        <ele>483.2</ele>
        <time>2011-01-09T10:04:07Z</time>
      </trkpt>
      <trkpt lat="44.41297" lon="2.44205">
        <ele>484.1</ele>
        <time>2011-01-09T10:04:09Z</time>
      </trkpt>
      <trkpt lat="44.41301" lon="2.44208">
        <ele>484.8</ele>
        <time>2011-01-09T10:04:12Z</time>
      </trkpt>
      <trkpt lat="44.41305" lon="2.44209">
        <ele>485.3</ele>
        <time>2011-01-09T10:04:15Z</time>
      </trkpt>
      <trkpt lat="44.41309" lon="2.44211">
        <ele>486</ele>
        <time>2011-01-09T10:04:18Z</time>
      </trkpt>
      <trkpt lat="44.41313" lon="2.44212">
        <ele>486.7</ele>
        <time>2011-01-09T10:04:21Z</time>
      </trkpt>
      <trkpt lat="44.41317" lon="2.4421">
        <ele>487.5</ele>
        <time>2011-01-09T10:04:24Z</time>
      </trkpt>
      <trkpt lat="44.4132" lon="2.4421">
        <ele>488.4</ele>
        <time>2011-01-09T10:04:27Z</time>
      </trkpt>
      <trkpt lat="44.41324" lon="2.44208">
        <ele>490.6</ele>
        <time>2011-01-09T10:04:32Z</time>
      </trkpt>
      <trkpt lat="44.41329" lon="2.44209">
        <ele>491.7</ele>
        <time>2011-01-09T10:04:38Z</time>
      </trkpt>
      <trkpt lat="44.41332" lon="2.44209">
        <ele>492</ele>
        <time>2011-01-09T10:04:43Z</time>
      </trkpt>
      <trkpt lat="44.41336" lon="2.44209">
        <ele>493.2</ele>
        <time>2011-01-09T10:04:47Z</time>
      </trkpt>
      <trkpt lat="44.41341" lon="2.44209">
        <ele>493.9</ele>
        <time>2011-01-09T10:04:51Z</time>
      </trkpt>
      <trkpt lat="44.41342" lon="2.44209">
        <ele>494</ele>
        <time>2011-01-09T10:04:52Z</time>
      </trkpt>
      <trkpt lat="44.41348" lon="2.44208">
        <ele>494.6</ele>
        <time>2011-01-09T10:04:58Z</time>
      </trkpt>
      <trkpt lat="44.41352" lon="2.44208">
        <ele>494.9</ele>
        <time>2011-01-09T10:05:01Z</time>
      </trkpt>
      <trkpt lat="44.41356" lon="2.4421">
        <ele>495.4</ele>
        <time>2011-01-09T10:05:04Z</time>
      </trkpt>
      <trkpt lat="44.41359" lon="2.44211">
        <ele>496.8</ele>
        <time>2011-01-09T10:05:07Z</time>
      </trkpt>
      <trkpt lat="44.41363" lon="2.44212">
        <ele>498.2</ele>
        <time>2011-01-09T10:05:10Z</time>
      </trkpt>
      <trkpt lat="44.41367" lon="2.44214">
        <ele>498.9</ele>
        <time>2011-01-09T10:05:13Z</time>
      </trkpt>
      <trkpt lat="44.41371" lon="2.44214">
        <ele>499</ele>
        <time>2011-01-09T10:05:16Z</time>
      </trkpt>
      <trkpt lat="44.41376" lon="2.44213">
        <ele>499.1</ele>
        <time>2011-01-09T10:05:19Z</time>
      </trkpt>
      <trkpt lat="44.41379" lon="2.44213">
        <ele>499.2</ele>
        <time>2011-01-09T10:05:21Z</time>
      </trkpt>
      <trkpt lat="44.41382" lon="2.44213">
        <ele>499.2</ele>
        <time>2011-01-09T10:05:23Z</time>
      </trkpt>
      <trkpt lat="44.41385" lon="2.44213">
        <ele>499.6</ele>
        <time>2011-01-09T10:05:25Z</time>
      </trkpt>
      <trkpt lat="44.4139" lon="2.44213">
        <ele>500.2</ele>
        <time>2011-01-09T10:05:27Z</time>
      </trkpt>
      <trkpt lat="44.41392" lon="2.44213">
        <ele>500.1</ele>
        <time>2011-01-09T10:05:28Z</time>
      </trkpt>
      <trkpt lat="44.41395" lon="2.44213">
        <ele>500</ele>
        <time>2011-01-09T10:05:29Z</time>
      </trkpt>
      <trkpt lat="44.41398" lon="2.44213">
        <ele>500</ele>
        <time>2011-01-09T10:05:30Z</time>
      </trkpt>
      <trkpt lat="44.41401" lon="2.44214">
        <ele>500.1</ele>
        <time>2011-01-09T10:05:31Z</time>
      </trkpt>
      <trkpt lat="44.41404" lon="2.44214">
        <ele>500.2</ele>
        <time>2011-01-09T10:05:32Z</time>
      </trkpt>
      <trkpt lat="44.41407" lon="2.44214">
        <ele>500.3</ele>
        <time>2011-01-09T10:05:33Z</time>
      </trkpt>
      <trkpt lat="44.4141" lon="2.44214">
        <ele>500.3</ele>
        <time>2011-01-09T10:05:34Z</time>
      </trkpt>
      <trkpt lat="44.41413" lon="2.44214">
        <ele>500</ele>
        <time>2011-01-09T10:05:35Z</time>
      </trkpt>
      <trkpt lat="44.41417" lon="2.44214">
        <ele>499.7</ele>
        <time>2011-01-09T10:05:36Z</time>
      </trkpt>
      <trkpt lat="44.4142" lon="2.44214">
        <ele>499.5</ele>
        <time>2011-01-09T10:05:37Z</time>
      </trkpt>
      <trkpt lat="44.41423" lon="2.44214">
        <ele>499.5</ele>
        <time>2011-01-09T10:05:38Z</time>
      </trkpt>
      <trkpt lat="44.41426" lon="2.44214">
        <ele>499.5</ele>
        <time>2011-01-09T10:05:39Z</time>
      </trkpt>
      <trkpt lat="44.41429" lon="2.44214">
        <ele>499.6</ele>
        <time>2011-01-09T10:05:40Z</time>
      </trkpt>
      <trkpt lat="44.41432" lon="2.44214">
        <ele>499.3</ele>
        <time>2011-01-09T10:05:41Z</time>
      </trkpt>
      <trkpt lat="44.41434" lon="2.44215">
        <ele>499</ele>
        <time>2011-01-09T10:05:42Z</time>
      </trkpt>
      <trkpt lat="44.41437" lon="2.44215">
        <ele>498.9</ele>
        <time>2011-01-09T10:05:43Z</time>
      </trkpt>
      <trkpt lat="44.41441" lon="2.44216">
        <ele>498.7</ele>
        <time>2011-01-09T10:05:45Z</time>
      </trkpt>
      <trkpt lat="44.41445" lon="2.44216">
        <ele>498.9</ele>
        <time>2011-01-09T10:05:47Z</time>
      </trkpt>
      <trkpt lat="44.41449" lon="2.44219">
        <ele>499.2</ele>
        <time>2011-01-09T10:05:49Z</time>
      </trkpt>
      <trkpt lat="44.41453" lon="2.4422">
        <ele>499.2</ele>
        <time>2011-01-09T10:05:51Z</time>
      </trkpt>
      <trkpt lat="44.41457" lon="2.44221">
        <ele>499.2</ele>
        <time>2011-01-09T10:05:53Z</time>
      </trkpt>
      <trkpt lat="44.41459" lon="2.44221">
        <ele>499.5</ele>
        <time>2011-01-09T10:05:54Z</time>
      </trkpt>
      <trkpt lat="44.41464" lon="2.4422">
        <ele>499.9</ele>
        <time>2011-01-09T10:05:57Z</time>
      </trkpt>
      <trkpt lat="44.41468" lon="2.44219">
        <ele>499.8</ele>
        <time>2011-01-09T10:05:59Z</time>
      </trkpt>
      <trkpt lat="44.41471" lon="2.44219">
        <ele>499.8</ele>
        <time>2011-01-09T10:06:01Z</time>
      </trkpt>
      <trkpt lat="44.41474" lon="2.4422">
        <ele>500.4</ele>
        <time>2011-01-09T10:06:03Z</time>
      </trkpt>
      <trkpt lat="44.41478" lon="2.44221">
        <ele>501.5</ele>
        <time>2011-01-09T10:06:06Z</time>
      </trkpt>
      <trkpt lat="44.41481" lon="2.44221">
        <ele>502.7</ele>
        <time>2011-01-09T10:06:08Z</time>
      </trkpt>
      <trkpt lat="44.41485" lon="2.44222">
        <ele>503.1</ele>
        <time>2011-01-09T10:06:10Z</time>
      </trkpt>
      <trkpt lat="44.41488" lon="2.44223">
        <ele>503.7</ele>
        <time>2011-01-09T10:06:13Z</time>
      </trkpt>
      <trkpt lat="44.41491" lon="2.44227">
        <ele>505.2</ele>
        <time>2011-01-09T10:06:18Z</time>
      </trkpt>
      <trkpt lat="44.41495" lon="2.4423">
        <ele>505.2</ele>
        <time>2011-01-09T10:06:23Z</time>
      </trkpt>
      <trkpt lat="44.41499" lon="2.44232">
        <ele>506.8</ele>
        <time>2011-01-09T10:06:30Z</time>
      </trkpt>
      <trkpt lat="44.41502" lon="2.44235">
        <ele>508.2</ele>
        <time>2011-01-09T10:06:39Z</time>
      </trkpt>
      <trkpt lat="44.41506" lon="2.44236">
        <ele>509.1</ele>
        <time>2011-01-09T10:06:45Z</time>
      </trkpt>
      <trkpt lat="44.4151" lon="2.44238">
        <ele>509.5</ele>
        <time>2011-01-09T10:06:50Z</time>
      </trkpt>
      <trkpt lat="44.41514" lon="2.4424">
        <ele>509.5</ele>
        <time>2011-01-09T10:06:55Z</time>
      </trkpt>
      <trkpt lat="44.41515" lon="2.4424">
        <ele>509.5</ele>
        <time>2011-01-09T10:06:56Z</time>
      </trkpt>
      <trkpt lat="44.41521" lon="2.44243">
        <ele>510.6</ele>
        <time>2011-01-09T10:07:05Z</time>
      </trkpt>
      <trkpt lat="44.41525" lon="2.44245">
        <ele>511.5</ele>
        <time>2011-01-09T10:07:11Z</time>
      </trkpt>
      <trkpt lat="44.41529" lon="2.44247">
        <ele>513</ele>
        <time>2011-01-09T10:07:21Z</time>
      </trkpt>
      <trkpt lat="44.41533" lon="2.4425">
        <ele>514.2</ele>
        <time>2011-01-09T10:07:29Z</time>
      </trkpt>
      <trkpt lat="44.41537" lon="2.44252">
        <ele>515</ele>
        <time>2011-01-09T10:07:35Z</time>
      </trkpt>
      <trkpt lat="44.4154" lon="2.44254">
        <ele>515.4</ele>
        <time>2011-01-09T10:07:40Z</time>
      </trkpt>
      <trkpt lat="44.41544" lon="2.44256">
        <ele>515.4</ele>
        <time>2011-01-09T10:07:45Z</time>
      </trkpt>
      <trkpt lat="44.41547" lon="2.44257">
        <ele>516.3</ele>
        <time>2011-01-09T10:07:49Z</time>
      </trkpt>
      <trkpt lat="44.41551" lon="2.4426">
        <ele>517.4</ele>
        <time>2011-01-09T10:07:53Z</time>
      </trkpt>
      <trkpt lat="44.41554" lon="2.44263">
        <ele>518.8</ele>
        <time>2011-01-09T10:07:58Z</time>
      </trkpt>
      <trkpt lat="44.41555" lon="2.44264">
        <ele>518.7</ele>
        <time>2011-01-09T10:07:59Z</time>
      </trkpt>
      <trkpt lat="44.41561" lon="2.4427">
        <ele>519.5</ele>
        <time>2011-01-09T10:08:07Z</time>
      </trkpt>
      <trkpt lat="44.41565" lon="2.44273">
        <ele>520.3</ele>
        <time>2011-01-09T10:08:12Z</time>
      </trkpt>
      <trkpt lat="44.41568" lon="2.44275">
        <ele>521.3</ele>
        <time>2011-01-09T10:08:17Z</time>
      </trkpt>
      <trkpt lat="44.41571" lon="2.4428">
        <ele>523.5</ele>
        <time>2011-01-09T10:08:28Z</time>
      </trkpt>
      <trkpt lat="44.41575" lon="2.44282">
        <ele>526.3</ele>
        <time>2011-01-09T10:08:49Z</time>
      </trkpt>
      <trkpt lat="44.4158" lon="2.44283">
        <ele>527.5</ele>
        <time>2011-01-09T10:09:03Z</time>
      </trkpt>
      <trkpt lat="44.4158" lon="2.44283">
        <ele>527.5</ele>
        <time>2011-01-09T10:09:04Z</time>
      </trkpt>
      <trkpt lat="44.41588" lon="2.44285">
        <ele>530.1</ele>
        <time>2011-01-09T10:09:17Z</time>
      </trkpt>
      <trkpt lat="44.41591" lon="2.44288">
        <ele>531.7</ele>
        <time>2011-01-09T10:09:23Z</time>
      </trkpt>
      <trkpt lat="44.41594" lon="2.44292">
        <ele>531.9</ele>
        <time>2011-01-09T10:09:28Z</time>
      </trkpt>
      <trkpt lat="44.41596" lon="2.44296">
        <ele>533.2</ele>
        <time>2011-01-09T10:09:33Z</time>
      </trkpt>
      <trkpt lat="44.41599" lon="2.44301">
        <ele>533.8</ele>
        <time>2011-01-09T10:09:41Z</time>
      </trkpt>
      <trkpt lat="44.41602" lon="2.44306">
        <ele>534.2</ele>
        <time>2011-01-09T10:09:50Z</time>
      </trkpt>
      <trkpt lat="44.41604" lon="2.4431">
        <ele>535.4</ele>
        <time>2011-01-09T10:09:56Z</time>
      </trkpt>
      <trkpt lat="44.41608" lon="2.44315">
        <ele>536.3</ele>
        <time>2011-01-09T10:10:03Z</time>
      </trkpt>
      <trkpt lat="44.41609" lon="2.44319">
        <ele>536.5</ele>
        <time>2011-01-09T10:10:07Z</time>
      </trkpt>
      <trkpt lat="44.4161" lon="2.4432">
        <ele>536.4</ele>
        <time>2011-01-09T10:10:08Z</time>
      </trkpt>
      <trkpt lat="44.41614" lon="2.44329">
        <ele>537.2</ele>
        <time>2011-01-09T10:10:16Z</time>
      </trkpt>
      <trkpt lat="44.41618" lon="2.44328">
        <ele>539.4</ele>
        <time>2011-01-09T10:10:36Z</time>
      </trkpt>
      <trkpt lat="44.41621" lon="2.44325">
        <ele>542.6</ele>
        <time>2011-01-09T10:10:54Z</time>
      </trkpt>
      <trkpt lat="44.41625" lon="2.44325">
        <ele>545.1</ele>
        <time>2011-01-09T10:11:03Z</time>
      </trkpt>
      <trkpt lat="44.41629" lon="2.44328">
        <ele>545</ele>
        <time>2011-01-09T10:11:11Z</time>
      </trkpt>
      <trkpt lat="44.41629" lon="2.44328">
        <ele>544.9</ele>
        <time>2011-01-09T10:11:12Z</time>
      </trkpt>
      <trkpt lat="44.41636" lon="2.44334">
        <ele>546.6</ele>
        <time>2011-01-09T10:11:29Z</time>
      </trkpt>
      <trkpt lat="44.4164" lon="2.44337">
        <ele>549.1</ele>
        <time>2011-01-09T10:11:38Z</time>
      </trkpt>
      <trkpt lat="44.41644" lon="2.44339">
        <ele>549.4</ele>
        <time>2011-01-09T10:11:44Z</time>
      </trkpt>
      <trkpt lat="44.41648" lon="2.44342">
        <ele>550</ele>
        <time>2011-01-09T10:11:52Z</time>
      </trkpt>
      <trkpt lat="44.41652" lon="2.44342">
        <ele>551.1</ele>
        <time>2011-01-09T10:12:00Z</time>
      </trkpt>
      <trkpt lat="44.41656" lon="2.44342">
        <ele>552.5</ele>
        <time>2011-01-09T10:12:10Z</time>
      </trkpt>
      <trkpt lat="44.4166" lon="2.44345">
        <ele>554.1</ele>
        <time>2011-01-09T10:12:22Z</time>
      </trkpt>
      <trkpt lat="44.41661" lon="2.44345">
        <ele>554.5</ele>
        <time>2011-01-09T10:12:23Z</time>
      </trkpt>
      <trkpt lat="44.4166" lon="2.44341">
        <ele>560.3</ele>
        <time>2011-01-09T10:13:25Z</time>
      </trkpt>
      <trkpt lat="44.4166" lon="2.44341">
        <ele>560.2</ele>
        <time>2011-01-09T10:13:26Z</time>
      </trkpt>
      <trkpt lat="44.41654" lon="2.44336">
        <ele>562.9</ele>
        <time>2011-01-09T10:13:42Z</time>
      </trkpt>
      <trkpt lat="44.41657" lon="2.44332">
        <ele>564.9</ele>
        <time>2011-01-09T10:13:49Z</time>
      </trkpt>
      <trkpt lat="44.4166" lon="2.44327">
        <ele>566.8</ele>
        <time>2011-01-09T10:13:56Z</time>
      </trkpt>
      <trkpt lat="44.41659" lon="2.44322">
        <ele>566.8</ele>
        <time>2011-01-09T10:14:00Z</time>
      </trkpt>
      <trkpt lat="44.4166" lon="2.44316">
        <ele>567.4</ele>
        <time>2011-01-09T10:14:11Z</time>
      </trkpt>
      <trkpt lat="44.41659" lon="2.4431">
        <ele>568.2</ele>
        <time>2011-01-09T10:14:23Z</time>
      </trkpt>
      <trkpt lat="44.41659" lon="2.44304">
        <ele>570.6</ele>
        <time>2011-01-09T10:14:33Z</time>
      </trkpt>
      <trkpt lat="44.41659" lon="2.44303">
        <ele>570.5</ele>
        <time>2011-01-09T10:14:34Z</time>
      </trkpt>
      <trkpt lat="44.41658" lon="2.44293">
        <ele>572</ele>
        <time>2011-01-09T10:14:53Z</time>
      </trkpt>
      <trkpt lat="44.41657" lon="2.44287">
        <ele>573.9</ele>
        <time>2011-01-09T10:15:03Z</time>
      </trkpt>
      <trkpt lat="44.41657" lon="2.44281">
        <ele>574.9</ele>
        <time>2011-01-09T10:15:13Z</time>
      </trkpt>
      <trkpt lat="44.41656" lon="2.44275">
        <ele>577.4</ele>
        <time>2011-01-09T10:15:27Z</time>
      </trkpt>
      <trkpt lat="44.41657" lon="2.44269">
        <ele>578.4</ele>
        <time>2011-01-09T10:15:39Z</time>
      </trkpt>
      <trkpt lat="44.41657" lon="2.44267">
        <ele>578.7</ele>
        <time>2011-01-09T10:15:40Z</time>
      </trkpt>
      <trkpt lat="44.41656" lon="2.44257">
        <ele>580.1</ele>
        <time>2011-01-09T10:16:02Z</time>
      </trkpt>
      <trkpt lat="44.41655" lon="2.44252">
        <ele>580.7</ele>
        <time>2011-01-09T10:16:06Z</time>
      </trkpt>
      <trkpt lat="44.41654" lon="2.44248">
        <ele>580.6</ele>
        <time>2011-01-09T10:16:09Z</time>
      </trkpt>
      <trkpt lat="44.41653" lon="2.44242">
        <ele>581.3</ele>
        <time>2011-01-09T10:16:12Z</time>
      </trkpt>
      <trkpt lat="44.41652" lon="2.44236">
        <ele>581.3</ele>
        <time>2011-01-09T10:16:15Z</time>
      </trkpt>
      <trkpt lat="44.41652" lon="2.44232">
        <ele>581.4</ele>
        <time>2011-01-09T10:16:17Z</time>
      </trkpt>
      <trkpt lat="44.41651" lon="2.44228">
        <ele>581.5</ele>
        <time>2011-01-09T10:16:19Z</time>
      </trkpt>
      <trkpt lat="44.41649" lon="2.44222">
        <ele>581.7</ele>
        <time>2011-01-09T10:16:22Z</time>
      </trkpt>
      <trkpt lat="44.41648" lon="2.44216">
        <ele>582</ele>
        <time>2011-01-09T10:16:26Z</time>
      </trkpt>
      <trkpt lat="44.41647" lon="2.44212">
        <ele>582.2</ele>
        <time>2011-01-09T10:16:28Z</time>
      </trkpt>
      <trkpt lat="44.41646" lon="2.44207">
        <ele>582.7</ele>
        <time>2011-01-09T10:16:30Z</time>
      </trkpt>
      <trkpt lat="44.41645" lon="2.44202">
        <ele>582.9</ele>
        <time>2011-01-09T10:16:32Z</time>
      </trkpt>
      <trkpt lat="44.41644" lon="2.44198">
        <ele>583</ele>
        <time>2011-01-09T10:16:34Z</time>
      </trkpt>
      <trkpt lat="44.41642" lon="2.44193">
        <ele>583.4</ele>
        <time>2011-01-09T10:16:36Z</time>
      </trkpt>
      <trkpt lat="44.41641" lon="2.44189">
        <ele>583.7</ele>
        <time>2011-01-09T10:16:38Z</time>
      </trkpt>
      <trkpt lat="44.41639" lon="2.44185">
        <ele>584.6</ele>
        <time>2011-01-09T10:16:40Z</time>
      </trkpt>
      <trkpt lat="44.41638" lon="2.44183">
        <ele>584.9</ele>
        <time>2011-01-09T10:16:41Z</time>
      </trkpt>
      <trkpt lat="44.41635" lon="2.44177">
        <ele>584.9</ele>
        <time>2011-01-09T10:16:44Z</time>
      </trkpt>
      <trkpt lat="44.41633" lon="2.44173">
        <ele>585</ele>
        <time>2011-01-09T10:16:46Z</time>
      </trkpt>
      <trkpt lat="44.41631" lon="2.44169">
        <ele>584.8</ele>
        <time>2011-01-09T10:16:48Z</time>
      </trkpt>
      <trkpt lat="44.41629" lon="2.44165">
        <ele>584.7</ele>
        <time>2011-01-09T10:16:50Z</time>
      </trkpt>
      <trkpt lat="44.41626" lon="2.4416">
        <ele>586</ele>
        <time>2011-01-09T10:16:53Z</time>
      </trkpt>
      <trkpt lat="44.41625" lon="2.44156">
        <ele>585.8</ele>
        <time>2011-01-09T10:16:55Z</time>
      </trkpt>
      <trkpt lat="44.41623" lon="2.44152">
        <ele>585.7</ele>
        <time>2011-01-09T10:16:57Z</time>
      </trkpt>
      <trkpt lat="44.41619" lon="2.44149">
        <ele>586.6</ele>
        <time>2011-01-09T10:17:00Z</time>
      </trkpt>
      <trkpt lat="44.41617" lon="2.44145">
        <ele>586.8</ele>
        <time>2011-01-09T10:17:02Z</time>
      </trkpt>
      <trkpt lat="44.41615" lon="2.44142">
        <ele>587</ele>
        <time>2011-01-09T10:17:04Z</time>
      </trkpt>
      <trkpt lat="44.41612" lon="2.44138">
        <ele>587.2</ele>
        <time>2011-01-09T10:17:06Z</time>
      </trkpt>
      <trkpt lat="44.4161" lon="2.44134">
        <ele>587.6</ele>
        <time>2011-01-09T10:17:08Z</time>
      </trkpt>
      <trkpt lat="44.41608" lon="2.4413">
        <ele>587.9</ele>
        <time>2011-01-09T10:17:10Z</time>
      </trkpt>
      <trkpt lat="44.41606" lon="2.44126">
        <ele>588.1</ele>
        <time>2011-01-09T10:17:12Z</time>
      </trkpt>
      <trkpt lat="44.41604" lon="2.44122">
        <ele>588.4</ele>
        <time>2011-01-09T10:17:14Z</time>
      </trkpt>
      <trkpt lat="44.41601" lon="2.44118">
        <ele>588.6</ele>
        <time>2011-01-09T10:17:16Z</time>
      </trkpt>
      <trkpt lat="44.41599" lon="2.44113">
        <ele>588.4</ele>
        <time>2011-01-09T10:17:18Z</time>
      </trkpt>
      <trkpt lat="44.41596" lon="2.44109">
        <ele>588.2</ele>
        <time>2011-01-09T10:17:20Z</time>
      </trkpt>
      <trkpt lat="44.41594" lon="2.44104">
        <ele>588.2</ele>
        <time>2011-01-09T10:17:22Z</time>
      </trkpt>
      <trkpt lat="44.41591" lon="2.441">
        <ele>588.8</ele>
        <time>2011-01-09T10:17:24Z</time>
      </trkpt>
      <trkpt lat="44.41589" lon="2.44098">
        <ele>589</ele>
        <time>2011-01-09T10:17:25Z</time>
      </trkpt>
      <trkpt lat="44.41587" lon="2.44095">
        <ele>588.8</ele>
        <time>2011-01-09T10:17:26Z</time>
      </trkpt>
      <trkpt lat="44.41586" lon="2.44093">
        <ele>588.6</ele>
        <time>2011-01-09T10:17:27Z</time>
      </trkpt>
      <trkpt lat="44.41584" lon="2.4409">
        <ele>588.5</ele>
        <time>2011-01-09T10:17:28Z</time>
      </trkpt>
      <trkpt lat="44.41583" lon="2.44088">
        <ele>588.4</ele>
        <time>2011-01-09T10:17:29Z</time>
      </trkpt>
      <trkpt lat="44.41581" lon="2.44085">
        <ele>588.7</ele>
        <time>2011-01-09T10:17:30Z</time>
      </trkpt>
      <trkpt lat="44.41579" lon="2.44082">
        <ele>588.9</ele>
        <time>2011-01-09T10:17:31Z</time>
      </trkpt>
      <trkpt lat="44.41577" lon="2.44079">
        <ele>589.1</ele>
        <time>2011-01-09T10:17:32Z</time>
      </trkpt>
      <trkpt lat="44.41575" lon="2.44076">
        <ele>588.3</ele>
        <time>2011-01-09T10:17:33Z</time>
      </trkpt>
      <trkpt lat="44.41573" lon="2.44073">
        <ele>587.7</ele>
        <time>2011-01-09T10:17:34Z</time>
      </trkpt>
      <trkpt lat="44.41571" lon="2.44069">
        <ele>587.3</ele>
        <time>2011-01-09T10:17:35Z</time>
      </trkpt>
      <trkpt lat="44.41569" lon="2.44066">
        <ele>587.2</ele>
        <time>2011-01-09T10:17:36Z</time>
      </trkpt>
      <trkpt lat="44.41567" lon="2.44062">
        <ele>587.2</ele>
        <time>2011-01-09T10:17:37Z</time>
      </trkpt>
      <trkpt lat="44.41563" lon="2.44059">
        <ele>587.2</ele>
        <time>2011-01-09T10:17:38Z</time>
      </trkpt>
      <trkpt lat="44.4156" lon="2.44055">
        <ele>587.2</ele>
        <time>2011-01-09T10:17:39Z</time>
      </trkpt>
      <trkpt lat="44.41557" lon="2.44051">
        <ele>587.3</ele>
        <time>2011-01-09T10:17:40Z</time>
      </trkpt>
      <trkpt lat="44.41553" lon="2.44048">
        <ele>587.3</ele>
        <time>2011-01-09T10:17:41Z</time>
      </trkpt>
      <trkpt lat="44.4155" lon="2.44045">
        <ele>586.7</ele>
        <time>2011-01-09T10:17:42Z</time>
      </trkpt>
      <trkpt lat="44.41546" lon="2.44043">
        <ele>586.2</ele>
        <time>2011-01-09T10:17:43Z</time>
      </trkpt>
      <trkpt lat="44.41544" lon="2.4404">
        <ele>585.9</ele>
        <time>2011-01-09T10:17:44Z</time>
      </trkpt>
      <trkpt lat="44.41542" lon="2.44037">
        <ele>585.6</ele>
        <time>2011-01-09T10:17:45Z</time>
      </trkpt>
      <trkpt lat="44.4154" lon="2.44035">
        <ele>584.9</ele>
        <time>2011-01-09T10:17:46Z</time>
      </trkpt>
      <trkpt lat="44.41536" lon="2.44032">
        <ele>584</ele>
        <time>2011-01-09T10:17:48Z</time>
      </trkpt>
      <trkpt lat="44.41533" lon="2.44031">
        <ele>583.4</ele>
        <time>2011-01-09T10:17:49Z</time>
      </trkpt>
      <trkpt lat="44.41531" lon="2.4403">
        <ele>583</ele>
        <time>2011-01-09T10:17:50Z</time>
      </trkpt>
      <trkpt lat="44.41528" lon="2.44027">
        <ele>582.7</ele>
        <time>2011-01-09T10:17:51Z</time>
      </trkpt>
      <trkpt lat="44.41524" lon="2.44024">
        <ele>581.7</ele>
        <time>2011-01-09T10:17:52Z</time>
      </trkpt>
      <trkpt lat="44.41521" lon="2.44021">
        <ele>581</ele>
        <time>2011-01-09T10:17:53Z</time>
      </trkpt>
      <trkpt lat="44.41518" lon="2.44017">
        <ele>580.4</ele>
        <time>2011-01-09T10:17:54Z</time>
      </trkpt>
      <trkpt lat="44.41515" lon="2.44013">
        <ele>579.9</ele>
        <time>2011-01-09T10:17:55Z</time>
      </trkpt>
      <trkpt lat="44.41513" lon="2.44009">
        <ele>579.6</ele>
        <time>2011-01-09T10:17:56Z</time>
      </trkpt>
      <trkpt lat="44.41511" lon="2.44006">
        <ele>579.3</ele>
        <time>2011-01-09T10:17:57Z</time>
      </trkpt>
      <trkpt lat="44.4151" lon="2.44003">
        <ele>578.8</ele>
        <time>2011-01-09T10:17:58Z</time>
      </trkpt>
      <trkpt lat="44.41508" lon="2.44">
        <ele>578.4</ele>
        <time>2011-01-09T10:17:59Z</time>
      </trkpt>
      <trkpt lat="44.41506" lon="2.43995">
        <ele>577.9</ele>
        <time>2011-01-09T10:18:01Z</time>
      </trkpt>
      <trkpt lat="44.41504" lon="2.43992">
        <ele>578.2</ele>
        <time>2011-01-09T10:18:02Z</time>
      </trkpt>
      <trkpt lat="44.41503" lon="2.43989">
        <ele>578.4</ele>
        <time>2011-01-09T10:18:03Z</time>
      </trkpt>
      <trkpt lat="44.41502" lon="2.43986">
        <ele>578.5</ele>
        <time>2011-01-09T10:18:04Z</time>
      </trkpt>
      <trkpt lat="44.41501" lon="2.43982">
        <ele>578.1</ele>
        <time>2011-01-09T10:18:05Z</time>
      </trkpt>
      <trkpt lat="44.41501" lon="2.43978">
        <ele>577.9</ele>
        <time>2011-01-09T10:18:06Z</time>
      </trkpt>
      <trkpt lat="44.415" lon="2.43974">
        <ele>577.6</ele>
        <time>2011-01-09T10:18:07Z</time>
      </trkpt>
      <trkpt lat="44.415" lon="2.4397">
        <ele>577.1</ele>
        <time>2011-01-09T10:18:08Z</time>
      </trkpt>
      <trkpt lat="44.41498" lon="2.43966">
        <ele>576.8</ele>
        <time>2011-01-09T10:18:09Z</time>
      </trkpt>
      <trkpt lat="44.41496" lon="2.43961">
        <ele>576.5</ele>
        <time>2011-01-09T10:18:10Z</time>
      </trkpt>
      <trkpt lat="44.41494" lon="2.43955">
        <ele>576.3</ele>
        <time>2011-01-09T10:18:11Z</time>
      </trkpt>
      <trkpt lat="44.41492" lon="2.43949">
        <ele>576.1</ele>
        <time>2011-01-09T10:18:12Z</time>
      </trkpt>
      <trkpt lat="44.41489" lon="2.43944">
        <ele>576</ele>
        <time>2011-01-09T10:18:13Z</time>
      </trkpt>
      <trkpt lat="44.41488" lon="2.43942">
        <ele>575.6</ele>
        <time>2011-01-09T10:18:14Z</time>
      </trkpt>
      <trkpt lat="44.41485" lon="2.4394">
        <ele>575.3</ele>
        <time>2011-01-09T10:18:15Z</time>
      </trkpt>
      <trkpt lat="44.41482" lon="2.43938">
        <ele>575.1</ele>
        <time>2011-01-09T10:18:16Z</time>
      </trkpt>
      <trkpt lat="44.4148" lon="2.43937">
        <ele>574.8</ele>
        <time>2011-01-09T10:18:17Z</time>
      </trkpt>
      <trkpt lat="44.41476" lon="2.43934">
        <ele>574.4</ele>
        <time>2011-01-09T10:18:19Z</time>
      </trkpt>
      <trkpt lat="44.41474" lon="2.43933">
        <ele>574.3</ele>
        <time>2011-01-09T10:18:20Z</time>
      </trkpt>
      <trkpt lat="44.41472" lon="2.43932">
        <ele>574.3</ele>
        <time>2011-01-09T10:18:21Z</time>
      </trkpt>
      <trkpt lat="44.4147" lon="2.43931">
        <ele>574.2</ele>
        <time>2011-01-09T10:18:22Z</time>
      </trkpt>
      <trkpt lat="44.41467" lon="2.43931">
        <ele>574.2</ele>
        <time>2011-01-09T10:18:23Z</time>
      </trkpt>
      <trkpt lat="44.41465" lon="2.4393">
        <ele>574.1</ele>
        <time>2011-01-09T10:18:24Z</time>
      </trkpt>
      <trkpt lat="44.41461" lon="2.43929">
        <ele>573.9</ele>
        <time>2011-01-09T10:18:26Z</time>
      </trkpt>
      <trkpt lat="44.41457" lon="2.43928">
        <ele>573.9</ele>
        <time>2011-01-09T10:18:28Z</time>
      </trkpt>
      <trkpt lat="44.41454" lon="2.43928">
        <ele>574.3</ele>
        <time>2011-01-09T10:18:30Z</time>
      </trkpt>
      <trkpt lat="44.41451" lon="2.43929">
        <ele>574.5</ele>
        <time>2011-01-09T10:18:31Z</time>
      </trkpt>
      <trkpt lat="44.41448" lon="2.43929">
        <ele>574.7</ele>
        <time>2011-01-09T10:18:32Z</time>
      </trkpt>
      <trkpt lat="44.41445" lon="2.43929">
        <ele>574.3</ele>
        <time>2011-01-09T10:18:33Z</time>
      </trkpt>
      <trkpt lat="44.41442" lon="2.4393">
        <ele>573.9</ele>
        <time>2011-01-09T10:18:34Z</time>
      </trkpt>
      <trkpt lat="44.41439" lon="2.4393">
        <ele>573.7</ele>
        <time>2011-01-09T10:18:35Z</time>
      </trkpt>
      <trkpt lat="44.41436" lon="2.43931">
        <ele>573.5</ele>
        <time>2011-01-09T10:18:36Z</time>
      </trkpt>
      <trkpt lat="44.41433" lon="2.43931">
        <ele>573.6</ele>
        <time>2011-01-09T10:18:37Z</time>
      </trkpt>
      <trkpt lat="44.4143" lon="2.43932">
        <ele>573.7</ele>
        <time>2011-01-09T10:18:38Z</time>
      </trkpt>
      <trkpt lat="44.41428" lon="2.43932">
        <ele>573.8</ele>
        <time>2011-01-09T10:18:39Z</time>
      </trkpt>
      <trkpt lat="44.41425" lon="2.43932">
        <ele>573.8</ele>
        <time>2011-01-09T10:18:40Z</time>
      </trkpt>
      <trkpt lat="44.41421" lon="2.43931">
        <ele>573.8</ele>
        <time>2011-01-09T10:18:42Z</time>
      </trkpt>
      <trkpt lat="44.41419" lon="2.4393">
        <ele>574.3</ele>
        <time>2011-01-09T10:18:43Z</time>
      </trkpt>
      <trkpt lat="44.41412" lon="2.43929">
        <ele>575.6</ele>
        <time>2011-01-09T10:18:46Z</time>
      </trkpt>
      <trkpt lat="44.41409" lon="2.43928">
        <ele>576.6</ele>
        <time>2011-01-09T10:18:48Z</time>
      </trkpt>
      <trkpt lat="44.41405" lon="2.43926">
        <ele>576.9</ele>
        <time>2011-01-09T10:18:50Z</time>
      </trkpt>
      <trkpt lat="44.41401" lon="2.43924">
        <ele>577.1</ele>
        <time>2011-01-09T10:18:52Z</time>
      </trkpt>
      <trkpt lat="44.41397" lon="2.43922">
        <ele>577.9</ele>
        <time>2011-01-09T10:18:54Z</time>
      </trkpt>
      <trkpt lat="44.41393" lon="2.43921">
        <ele>578.2</ele>
        <time>2011-01-09T10:18:56Z</time>
      </trkpt>
      <trkpt lat="44.41391" lon="2.43919">
        <ele>578.2</ele>
        <time>2011-01-09T10:18:57Z</time>
      </trkpt>
      <trkpt lat="44.41387" lon="2.43917">
        <ele>578.4</ele>
        <time>2011-01-09T10:18:59Z</time>
      </trkpt>
      <trkpt lat="44.41385" lon="2.43916">
        <ele>578.5</ele>
        <time>2011-01-09T10:19:00Z</time>
      </trkpt>
      <trkpt lat="44.41382" lon="2.43914">
        <ele>578.6</ele>
        <time>2011-01-09T10:19:01Z</time>
      </trkpt>
      <trkpt lat="44.41379" lon="2.43912">
        <ele>578.4</ele>
        <time>2011-01-09T10:19:03Z</time>
      </trkpt>
      <trkpt lat="44.41377" lon="2.4391">
        <ele>578.4</ele>
        <time>2011-01-09T10:19:04Z</time>
      </trkpt>
      <trkpt lat="44.41374" lon="2.43909">
        <ele>578</ele>
        <time>2011-01-09T10:19:05Z</time>
      </trkpt>
      <trkpt lat="44.41372" lon="2.43907">
        <ele>577.8</ele>
        <time>2011-01-09T10:19:06Z</time>
      </trkpt>
      <trkpt lat="44.41368" lon="2.43904">
        <ele>578.2</ele>
        <time>2011-01-09T10:19:08Z</time>
      </trkpt>
      <trkpt lat="44.41364" lon="2.43902">
        <ele>578.9</ele>
        <time>2011-01-09T10:19:10Z</time>
      </trkpt>
      <trkpt lat="44.41361" lon="2.439">
        <ele>579.8</ele>
        <time>2011-01-09T10:19:12Z</time>
      </trkpt>
      <trkpt lat="44.41357" lon="2.43898">
        <ele>580.7</ele>
        <time>2011-01-09T10:19:14Z</time>
      </trkpt>
      <trkpt lat="44.41353" lon="2.43896">
        <ele>580.2</ele>
        <time>2011-01-09T10:19:16Z</time>
      </trkpt>
      <trkpt lat="44.41349" lon="2.43894">
        <ele>580.2</ele>
        <time>2011-01-09T10:19:18Z</time>
      </trkpt>
      <trkpt lat="44.41346" lon="2.43891">
        <ele>580.4</ele>
        <time>2011-01-09T10:19:20Z</time>
      </trkpt>
      <trkpt lat="44.41343" lon="2.43888">
        <ele>580.7</ele>
        <time>2011-01-09T10:19:22Z</time>
      </trkpt>
      <trkpt lat="44.4134" lon="2.43883">
        <ele>580.2</ele>
        <time>2011-01-09T10:20:01Z</time>
      </trkpt>
      <trkpt lat="44.4134" lon="2.43883">
        <ele>580.1</ele>
        <time>2011-01-09T10:20:02Z</time>
      </trkpt>
      <trkpt lat="44.41337" lon="2.43877">
        <ele>580.2</ele>
        <time>2011-01-09T10:21:40Z</time>
      </trkpt>
      <trkpt lat="44.41331" lon="2.43872">
        <ele>579.9</ele>
        <time>2011-01-09T10:21:46Z</time>
      </trkpt>
      <trkpt lat="44.41329" lon="2.43869">
        <ele>580.1</ele>
        <time>2011-01-09T10:21:48Z</time>
      </trkpt>
      <trkpt lat="44.41326" lon="2.43864">
        <ele>580.5</ele>
        <time>2011-01-09T10:21:50Z</time>
      </trkpt>
      <trkpt lat="44.41324" lon="2.43862">
        <ele>580.6</ele>
        <time>2011-01-09T10:21:51Z</time>
      </trkpt>
      <trkpt lat="44.41322" lon="2.43859">
        <ele>580.6</ele>
        <time>2011-01-09T10:21:52Z</time>
      </trkpt>
      <trkpt lat="44.41321" lon="2.43857">
        <ele>580.7</ele>
        <time>2011-01-09T10:21:53Z</time>
      </trkpt>
      <trkpt lat="44.41319" lon="2.43854">
        <ele>580.7</ele>
        <time>2011-01-09T10:21:54Z</time>
      </trkpt>
      <trkpt lat="44.41317" lon="2.43851">
        <ele>581.1</ele>
        <time>2011-01-09T10:21:55Z</time>
      </trkpt>
      <trkpt lat="44.41316" lon="2.43848">
        <ele>581.4</ele>
        <time>2011-01-09T10:21:56Z</time>
      </trkpt>
      <trkpt lat="44.41314" lon="2.43845">
        <ele>581.6</ele>
        <time>2011-01-09T10:21:57Z</time>
      </trkpt>
      <trkpt lat="44.41313" lon="2.43842">
        <ele>581.7</ele>
        <time>2011-01-09T10:21:58Z</time>
      </trkpt>
      <trkpt lat="44.41312" lon="2.43839">
        <ele>581.7</ele>
        <time>2011-01-09T10:21:59Z</time>
      </trkpt>
      <trkpt lat="44.41311" lon="2.43835">
        <ele>581.7</ele>
        <time>2011-01-09T10:22:00Z</time>
      </trkpt>
      <trkpt lat="44.4131" lon="2.43832">
        <ele>581.7</ele>
        <time>2011-01-09T10:22:01Z</time>
      </trkpt>
      <trkpt lat="44.41309" lon="2.43828">
        <ele>581.7</ele>
        <time>2011-01-09T10:22:02Z</time>
      </trkpt>
      <trkpt lat="44.41307" lon="2.43825">
        <ele>581.7</ele>
        <time>2011-01-09T10:22:03Z</time>
      </trkpt>
      <trkpt lat="44.41306" lon="2.43823">
        <ele>581.8</ele>
        <time>2011-01-09T10:22:04Z</time>
      </trkpt>
      <trkpt lat="44.41304" lon="2.43818">
        <ele>581.8</ele>
        <time>2011-01-09T10:22:06Z</time>
      </trkpt>
      <trkpt lat="44.41301" lon="2.43814">
        <ele>581.5</ele>
        <time>2011-01-09T10:22:08Z</time>
      </trkpt>
      <trkpt lat="44.41298" lon="2.43811">
        <ele>581.6</ele>
        <time>2011-01-09T10:22:10Z</time>
      </trkpt>
      <trkpt lat="44.41294" lon="2.43808">
        <ele>581.9</ele>
        <time>2011-01-09T10:22:12Z</time>
      </trkpt>
      <trkpt lat="44.41291" lon="2.43806">
        <ele>582.1</ele>
        <time>2011-01-09T10:22:14Z</time>
      </trkpt>
      <trkpt lat="44.41288" lon="2.43804">
        <ele>582.2</ele>
        <time>2011-01-09T10:22:16Z</time>
      </trkpt>
      <trkpt lat="44.41284" lon="2.438">
        <ele>582.4</ele>
        <time>2011-01-09T10:22:19Z</time>
      </trkpt>
      <trkpt lat="44.41282" lon="2.43797">
        <ele>583</ele>
        <time>2011-01-09T10:22:21Z</time>
      </trkpt>
      <trkpt lat="44.41281" lon="2.43793">
        <ele>583.1</ele>
        <time>2011-01-09T10:22:23Z</time>
      </trkpt>
      <trkpt lat="44.41277" lon="2.43782">
        <ele>583</ele>
        <time>2011-01-09T10:22:27Z</time>
      </trkpt>
      <trkpt lat="44.41276" lon="2.43778">
        <ele>583.3</ele>
        <time>2011-01-09T10:22:29Z</time>
      </trkpt>
      <trkpt lat="44.41276" lon="2.43772">
        <ele>584.2</ele>
        <time>2011-01-09T10:22:31Z</time>
      </trkpt>
      <trkpt lat="44.41276" lon="2.43769">
        <ele>584.4</ele>
        <time>2011-01-09T10:22:32Z</time>
      </trkpt>
      <trkpt lat="44.41275" lon="2.43763">
        <ele>584.8</ele>
        <time>2011-01-09T10:22:34Z</time>
      </trkpt>
      <trkpt lat="44.41275" lon="2.43759">
        <ele>584.9</ele>
        <time>2011-01-09T10:22:35Z</time>
      </trkpt>
      <trkpt lat="44.41274" lon="2.43754">
        <ele>584.9</ele>
        <time>2011-01-09T10:22:37Z</time>
      </trkpt>
      <trkpt lat="44.41274" lon="2.43748">
        <ele>585.2</ele>
        <time>2011-01-09T10:22:39Z</time>
      </trkpt>
      <trkpt lat="44.41274" lon="2.43742">
        <ele>585.6</ele>
        <time>2011-01-09T10:22:41Z</time>
      </trkpt>
      <trkpt lat="44.41273" lon="2.43738">
        <ele>585.3</ele>
        <time>2011-01-09T10:22:42Z</time>
      </trkpt>
      <trkpt lat="44.41273" lon="2.43735">
        <ele>585</ele>
        <time>2011-01-09T10:22:43Z</time>
      </trkpt>
      <trkpt lat="44.41272" lon="2.43729">
        <ele>584.6</ele>
        <time>2011-01-09T10:22:45Z</time>
      </trkpt>
      <trkpt lat="44.41271" lon="2.43724">
        <ele>584.4</ele>
        <time>2011-01-09T10:22:47Z</time>
      </trkpt>
      <trkpt lat="44.4127" lon="2.43719">
        <ele>584.3</ele>
        <time>2011-01-09T10:22:49Z</time>
      </trkpt>
      <trkpt lat="44.4127" lon="2.43713">
        <ele>584.3</ele>
        <time>2011-01-09T10:22:51Z</time>
      </trkpt>
      <trkpt lat="44.41271" lon="2.43709">
        <ele>584.4</ele>
        <time>2011-01-09T10:22:53Z</time>
      </trkpt>
      <trkpt lat="44.41272" lon="2.43704">
        <ele>584.2</ele>
        <time>2011-01-09T10:22:55Z</time>
      </trkpt>
      <trkpt lat="44.41274" lon="2.43699">
        <ele>583.8</ele>
        <time>2011-01-09T10:22:57Z</time>
      </trkpt>
      <trkpt lat="44.41277" lon="2.43695">
        <ele>584.8</ele>
        <time>2011-01-09T10:22:59Z</time>
      </trkpt>
      <trkpt lat="44.4128" lon="2.43691">
        <ele>585.4</ele>
        <time>2011-01-09T10:23:01Z</time>
      </trkpt>
      <trkpt lat="44.41284" lon="2.43688">
        <ele>584.5</ele>
        <time>2011-01-09T10:23:03Z</time>
      </trkpt>
      <trkpt lat="44.41286" lon="2.43686">
        <ele>584.2</ele>
        <time>2011-01-09T10:23:04Z</time>
      </trkpt>
      <trkpt lat="44.41288" lon="2.43684">
        <ele>584.6</ele>
        <time>2011-01-09T10:23:05Z</time>
      </trkpt>
      <trkpt lat="44.4129" lon="2.43682">
        <ele>584.8</ele>
        <time>2011-01-09T10:23:06Z</time>
      </trkpt>
      <trkpt lat="44.41292" lon="2.43681">
        <ele>585</ele>
        <time>2011-01-09T10:23:07Z</time>
      </trkpt>
      <trkpt lat="44.41294" lon="2.43679">
        <ele>585</ele>
        <time>2011-01-09T10:23:08Z</time>
      </trkpt>
      <trkpt lat="44.41295" lon="2.43677">
        <ele>585</ele>
        <time>2011-01-09T10:23:09Z</time>
      </trkpt>
      <trkpt lat="44.41297" lon="2.43675">
        <ele>584.9</ele>
        <time>2011-01-09T10:23:10Z</time>
      </trkpt>
      <trkpt lat="44.41299" lon="2.43673">
        <ele>585.6</ele>
        <time>2011-01-09T10:23:11Z</time>
      </trkpt>
      <trkpt lat="44.41301" lon="2.43671">
        <ele>586.1</ele>
        <time>2011-01-09T10:23:12Z</time>
      </trkpt>
      <trkpt lat="44.41303" lon="2.43669">
        <ele>586.5</ele>
        <time>2011-01-09T10:23:13Z</time>
      </trkpt>
      <trkpt lat="44.41305" lon="2.43667">
        <ele>586.3</ele>
        <time>2011-01-09T10:23:14Z</time>
      </trkpt>
      <trkpt lat="44.41307" lon="2.43665">
        <ele>586.2</ele>
        <time>2011-01-09T10:23:15Z</time>
      </trkpt>
      <trkpt lat="44.41309" lon="2.43663">
        <ele>586.2</ele>
        <time>2011-01-09T10:23:16Z</time>
      </trkpt>
      <trkpt lat="44.41311" lon="2.43661">
        <ele>586.1</ele>
        <time>2011-01-09T10:23:17Z</time>
      </trkpt>
      <trkpt lat="44.41313" lon="2.43659">
        <ele>586.3</ele>
        <time>2011-01-09T10:23:18Z</time>
      </trkpt>
      <trkpt lat="44.41316" lon="2.43657">
        <ele>586.5</ele>
        <time>2011-01-09T10:23:19Z</time>
      </trkpt>
      <trkpt lat="44.41318" lon="2.43656">
        <ele>586.7</ele>
        <time>2011-01-09T10:23:20Z</time>
      </trkpt>
      <trkpt lat="44.4132" lon="2.43654">
        <ele>586.3</ele>
        <time>2011-01-09T10:23:21Z</time>
      </trkpt>
      <trkpt lat="44.41323" lon="2.43653">
        <ele>586.1</ele>
        <time>2011-01-09T10:23:22Z</time>
      </trkpt>
      <trkpt lat="44.41325" lon="2.43651">
        <ele>585.9</ele>
        <time>2011-01-09T10:23:23Z</time>
      </trkpt>
      <trkpt lat="44.41327" lon="2.43649">
        <ele>586.4</ele>
        <time>2011-01-09T10:23:24Z</time>
      </trkpt>
      <trkpt lat="44.41329" lon="2.43648">
        <ele>586.8</ele>
        <time>2011-01-09T10:23:25Z</time>
      </trkpt>
      <trkpt lat="44.41332" lon="2.43647">
        <ele>587.1</ele>
        <time>2011-01-09T10:23:26Z</time>
      </trkpt>
      <trkpt lat="44.41334" lon="2.43647">
        <ele>587.1</ele>
        <time>2011-01-09T10:23:27Z</time>
      </trkpt>
      <trkpt lat="44.41336" lon="2.43646">
        <ele>587.1</ele>
        <time>2011-01-09T10:23:28Z</time>
      </trkpt>
      <trkpt lat="44.41339" lon="2.43645">
        <ele>587</ele>
        <time>2011-01-09T10:23:29Z</time>
      </trkpt>
      <trkpt lat="44.41342" lon="2.43645">
        <ele>587.3</ele>
        <time>2011-01-09T10:23:30Z</time>
      </trkpt>
      <trkpt lat="44.41344" lon="2.43644">
        <ele>587.5</ele>
        <time>2011-01-09T10:23:31Z</time>
      </trkpt>
      <trkpt lat="44.41347" lon="2.43643">
        <ele>587.6</ele>
        <time>2011-01-09T10:23:32Z</time>
      </trkpt>
      <trkpt lat="44.41349" lon="2.43643">
        <ele>587.7</ele>
        <time>2011-01-09T10:23:33Z</time>
      </trkpt>
      <trkpt lat="44.41352" lon="2.43643">
        <ele>587.6</ele>
        <time>2011-01-09T10:23:34Z</time>
      </trkpt>
      <trkpt lat="44.41354" lon="2.43643">
        <ele>587.4</ele>
        <time>2011-01-09T10:23:35Z</time>
      </trkpt>
      <trkpt lat="44.41357" lon="2.43643">
        <ele>587.3</ele>
        <time>2011-01-09T10:23:36Z</time>
      </trkpt>
      <trkpt lat="44.4136" lon="2.43643">
        <ele>587.1</ele>
        <time>2011-01-09T10:23:37Z</time>
      </trkpt>
      <trkpt lat="44.41362" lon="2.43643">
        <ele>586.9</ele>
        <time>2011-01-09T10:23:38Z</time>
      </trkpt>
      <trkpt lat="44.41365" lon="2.43643">
        <ele>586.7</ele>
        <time>2011-01-09T10:23:39Z</time>
      </trkpt>
      <trkpt lat="44.41368" lon="2.43643">
        <ele>586.1</ele>
        <time>2011-01-09T10:23:40Z</time>
      </trkpt>
      <trkpt lat="44.41371" lon="2.43642">
        <ele>585.6</ele>
        <time>2011-01-09T10:23:41Z</time>
      </trkpt>
      <trkpt lat="44.41375" lon="2.43642">
        <ele>585.3</ele>
        <time>2011-01-09T10:23:42Z</time>
      </trkpt>
      <trkpt lat="44.41378" lon="2.43641">
        <ele>585.3</ele>
        <time>2011-01-09T10:23:43Z</time>
      </trkpt>
      <trkpt lat="44.41381" lon="2.4364">
        <ele>585.4</ele>
        <time>2011-01-09T10:23:44Z</time>
      </trkpt>
      <trkpt lat="44.41385" lon="2.43639">
        <ele>585.4</ele>
        <time>2011-01-09T10:23:45Z</time>
      </trkpt>
      <trkpt lat="44.41388" lon="2.43638">
        <ele>585.1</ele>
        <time>2011-01-09T10:23:46Z</time>
      </trkpt>
      <trkpt lat="44.41391" lon="2.43637">
        <ele>584.8</ele>
        <time>2011-01-09T10:23:47Z</time>
      </trkpt>
      <trkpt lat="44.41394" lon="2.43636">
        <ele>584.6</ele>
        <time>2011-01-09T10:23:48Z</time>
      </trkpt>
      <trkpt lat="44.41397" lon="2.43634">
        <ele>584.1</ele>
        <time>2011-01-09T10:23:49Z</time>
      </trkpt>
      <trkpt lat="44.414" lon="2.43633">
        <ele>583.8</ele>
        <time>2011-01-09T10:23:50Z</time>
      </trkpt>
      <trkpt lat="44.41404" lon="2.43633">
        <ele>583.5</ele>
        <time>2011-01-09T10:23:51Z</time>
      </trkpt>
      <trkpt lat="44.41407" lon="2.43632">
        <ele>583.3</ele>
        <time>2011-01-09T10:23:52Z</time>
      </trkpt>
      <trkpt lat="44.41411" lon="2.43632">
        <ele>583</ele>
        <time>2011-01-09T10:23:53Z</time>
      </trkpt>
      <trkpt lat="44.41414" lon="2.43631">
        <ele>582.7</ele>
        <time>2011-01-09T10:23:54Z</time>
      </trkpt>
      <trkpt lat="44.41418" lon="2.43631">
        <ele>582.5</ele>
        <time>2011-01-09T10:23:55Z</time>
      </trkpt>
      <trkpt lat="44.41421" lon="2.4363">
        <ele>582.8</ele>
        <time>2011-01-09T10:23:56Z</time>
      </trkpt>
      <trkpt lat="44.41424" lon="2.43629">
        <ele>583</ele>
        <time>2011-01-09T10:23:57Z</time>
      </trkpt>
      <trkpt lat="44.41427" lon="2.43629">
        <ele>583.2</ele>
        <time>2011-01-09T10:23:58Z</time>
      </trkpt>
      <trkpt lat="44.4143" lon="2.43629">
        <ele>582.8</ele>
        <time>2011-01-09T10:23:59Z</time>
      </trkpt>
      <trkpt lat="44.41432" lon="2.43629">
        <ele>582.5</ele>
        <time>2011-01-09T10:24:00Z</time>
      </trkpt>
      <trkpt lat="44.41435" lon="2.4363">
        <ele>582.2</ele>
        <time>2011-01-09T10:24:01Z</time>
      </trkpt>
      <trkpt lat="44.41438" lon="2.4363">
        <ele>582.4</ele>
        <time>2011-01-09T10:24:02Z</time>
      </trkpt>
      <trkpt lat="44.41441" lon="2.4363">
        <ele>582.5</ele>
        <time>2011-01-09T10:24:03Z</time>
      </trkpt>
      <trkpt lat="44.41444" lon="2.4363">
        <ele>582.5</ele>
        <time>2011-01-09T10:24:04Z</time>
      </trkpt>
      <trkpt lat="44.41447" lon="2.43631">
        <ele>582.1</ele>
        <time>2011-01-09T10:24:05Z</time>
      </trkpt>
      <trkpt lat="44.4145" lon="2.43631">
        <ele>581.8</ele>
        <time>2011-01-09T10:24:06Z</time>
      </trkpt>
      <trkpt lat="44.41453" lon="2.43632">
        <ele>581.6</ele>
        <time>2011-01-09T10:24:07Z</time>
      </trkpt>
      <trkpt lat="44.41456" lon="2.43632">
        <ele>581.4</ele>
        <time>2011-01-09T10:24:08Z</time>
      </trkpt>
      <trkpt lat="44.41458" lon="2.43633">
        <ele>581.7</ele>
        <time>2011-01-09T10:24:09Z</time>
      </trkpt>
      <trkpt lat="44.41461" lon="2.43633">
        <ele>581.9</ele>
        <time>2011-01-09T10:24:10Z</time>
      </trkpt>
      <trkpt lat="44.41464" lon="2.43633">
        <ele>582.1</ele>
        <time>2011-01-09T10:24:11Z</time>
      </trkpt>
      <trkpt lat="44.41467" lon="2.43634">
        <ele>582.4</ele>
        <time>2011-01-09T10:24:12Z</time>
      </trkpt>
      <trkpt lat="44.4147" lon="2.43634">
        <ele>582.6</ele>
        <time>2011-01-09T10:24:13Z</time>
      </trkpt>
      <trkpt lat="44.41472" lon="2.43635">
        <ele>582.8</ele>
        <time>2011-01-09T10:24:14Z</time>
      </trkpt>
      <trkpt lat="44.41475" lon="2.43635">
        <ele>583</ele>
        <time>2011-01-09T10:24:15Z</time>
      </trkpt>
      <trkpt lat="44.41478" lon="2.43635">
        <ele>583.3</ele>
        <time>2011-01-09T10:24:16Z</time>
      </trkpt>
      <trkpt lat="44.41481" lon="2.43635">
        <ele>583.4</ele>
        <time>2011-01-09T10:24:17Z</time>
      </trkpt>
      <trkpt lat="44.41484" lon="2.43635">
        <ele>583.5</ele>
        <time>2011-01-09T10:24:18Z</time>
      </trkpt>
      <trkpt lat="44.41486" lon="2.43636">
        <ele>583.6</ele>
        <time>2011-01-09T10:24:19Z</time>
      </trkpt>
      <trkpt lat="44.41489" lon="2.43636">
        <ele>583.7</ele>
        <time>2011-01-09T10:24:20Z</time>
      </trkpt>
      <trkpt lat="44.41492" lon="2.43637">
        <ele>584.4</ele>
        <time>2011-01-09T10:24:21Z</time>
      </trkpt>
      <trkpt lat="44.41495" lon="2.43637">
        <ele>585</ele>
        <time>2011-01-09T10:24:22Z</time>
      </trkpt>
      <trkpt lat="44.41497" lon="2.43638">
        <ele>585.4</ele>
        <time>2011-01-09T10:24:23Z</time>
      </trkpt>
      <trkpt lat="44.415" lon="2.43638">
        <ele>585.7</ele>
        <time>2011-01-09T10:24:24Z</time>
      </trkpt>
      <trkpt lat="44.41503" lon="2.43639">
        <ele>585.3</ele>
        <time>2011-01-09T10:24:25Z</time>
      </trkpt>
      <trkpt lat="44.41506" lon="2.43639">
        <ele>585</ele>
        <time>2011-01-09T10:24:26Z</time>
      </trkpt>
      <trkpt lat="44.41509" lon="2.4364">
        <ele>584.7</ele>
        <time>2011-01-09T10:24:27Z</time>
      </trkpt>
      <trkpt lat="44.41512" lon="2.4364">
        <ele>584.5</ele>
        <time>2011-01-09T10:24:28Z</time>
      </trkpt>
      <trkpt lat="44.41514" lon="2.43641">
        <ele>584.3</ele>
        <time>2011-01-09T10:24:29Z</time>
      </trkpt>
      <trkpt lat="44.41517" lon="2.43642">
        <ele>584.1</ele>
        <time>2011-01-09T10:24:30Z</time>
      </trkpt>
      <trkpt lat="44.4152" lon="2.43643">
        <ele>584.3</ele>
        <time>2011-01-09T10:24:31Z</time>
      </trkpt>
      <trkpt lat="44.41523" lon="2.43643">
        <ele>584.5</ele>
        <time>2011-01-09T10:24:32Z</time>
      </trkpt>
      <trkpt lat="44.41525" lon="2.43644">
        <ele>584.6</ele>
        <time>2011-01-09T10:24:33Z</time>
      </trkpt>
      <trkpt lat="44.41528" lon="2.43644">
        <ele>584.6</ele>
        <time>2011-01-09T10:24:34Z</time>
      </trkpt>
      <trkpt lat="44.41531" lon="2.43644">
        <ele>584.6</ele>
        <time>2011-01-09T10:24:35Z</time>
      </trkpt>
      <trkpt lat="44.41534" lon="2.43644">
        <ele>584.7</ele>
        <time>2011-01-09T10:24:36Z</time>
      </trkpt>
      <trkpt lat="44.41537" lon="2.43645">
        <ele>584.6</ele>
        <time>2011-01-09T10:24:37Z</time>
      </trkpt>
      <trkpt lat="44.41539" lon="2.43645">
        <ele>584.5</ele>
        <time>2011-01-09T10:24:38Z</time>
      </trkpt>
      <trkpt lat="44.41542" lon="2.43645">
        <ele>584.4</ele>
        <time>2011-01-09T10:24:39Z</time>
      </trkpt>
      <trkpt lat="44.41545" lon="2.43646">
        <ele>584.2</ele>
        <time>2011-01-09T10:24:40Z</time>
      </trkpt>
      <trkpt lat="44.41548" lon="2.43647">
        <ele>584.1</ele>
        <time>2011-01-09T10:24:41Z</time>
      </trkpt>
      <trkpt lat="44.41551" lon="2.43647">
        <ele>583.9</ele>
        <time>2011-01-09T10:24:42Z</time>
      </trkpt>
      <trkpt lat="44.41553" lon="2.43648">
        <ele>583.8</ele>
        <time>2011-01-09T10:24:43Z</time>
      </trkpt>
      <trkpt lat="44.41556" lon="2.43648">
        <ele>583.8</ele>
        <time>2011-01-09T10:24:44Z</time>
      </trkpt>
      <trkpt lat="44.41559" lon="2.43649">
        <ele>583.7</ele>
        <time>2011-01-09T10:24:45Z</time>
      </trkpt>
      <trkpt lat="44.41562" lon="2.4365">
        <ele>583.7</ele>
        <time>2011-01-09T10:24:46Z</time>
      </trkpt>
      <trkpt lat="44.41564" lon="2.4365">
        <ele>583.5</ele>
        <time>2011-01-09T10:24:47Z</time>
      </trkpt>
      <trkpt lat="44.41567" lon="2.4365">
        <ele>583.3</ele>
        <time>2011-01-09T10:24:48Z</time>
      </trkpt>
      <trkpt lat="44.4157" lon="2.4365">
        <ele>583.2</ele>
        <time>2011-01-09T10:24:49Z</time>
      </trkpt>
      <trkpt lat="44.41573" lon="2.43651">
        <ele>583.4</ele>
        <time>2011-01-09T10:24:50Z</time>
      </trkpt>
      <trkpt lat="44.41575" lon="2.43651">
        <ele>583.6</ele>
        <time>2011-01-09T10:24:51Z</time>
      </trkpt>
      <trkpt lat="44.41578" lon="2.43652">
        <ele>583.7</ele>
        <time>2011-01-09T10:24:52Z</time>
      </trkpt>
      <trkpt lat="44.41581" lon="2.43653">
        <ele>583.7</ele>
        <time>2011-01-09T10:24:53Z</time>
      </trkpt>
      <trkpt lat="44.41583" lon="2.43655">
        <ele>583.8</ele>
        <time>2011-01-09T10:24:54Z</time>
      </trkpt>
      <trkpt lat="44.41586" lon="2.43657">
        <ele>583.8</ele>
        <time>2011-01-09T10:24:55Z</time>
      </trkpt>
      <trkpt lat="44.41588" lon="2.43659">
        <ele>583.9</ele>
        <time>2011-01-09T10:24:56Z</time>
      </trkpt>
      <trkpt lat="44.41589" lon="2.43662">
        <ele>583.9</ele>
        <time>2011-01-09T10:24:57Z</time>
      </trkpt>
      <trkpt lat="44.41591" lon="2.43664">
        <ele>583.9</ele>
        <time>2011-01-09T10:24:58Z</time>
      </trkpt>
      <trkpt lat="44.41595" lon="2.43666">
        <ele>583.6</ele>
        <time>2011-01-09T10:25:00Z</time>
      </trkpt>
      <trkpt lat="44.41598" lon="2.43666">
        <ele>583.3</ele>
        <time>2011-01-09T10:25:01Z</time>
      </trkpt>
      <trkpt lat="44.416" lon="2.43666">
        <ele>583.1</ele>
        <time>2011-01-09T10:25:02Z</time>
      </trkpt>
      <trkpt lat="44.41603" lon="2.43667">
        <ele>583.1</ele>
        <time>2011-01-09T10:25:03Z</time>
      </trkpt>
      <trkpt lat="44.41606" lon="2.43667">
        <ele>583.1</ele>
        <time>2011-01-09T10:25:04Z</time>
      </trkpt>
      <trkpt lat="44.41609" lon="2.43668">
        <ele>583.1</ele>
        <time>2011-01-09T10:25:05Z</time>
      </trkpt>
      <trkpt lat="44.41612" lon="2.43669">
        <ele>583.3</ele>
        <time>2011-01-09T10:25:06Z</time>
      </trkpt>
      <trkpt lat="44.41614" lon="2.43669">
        <ele>583.4</ele>
        <time>2011-01-09T10:25:07Z</time>
      </trkpt>
      <trkpt lat="44.41617" lon="2.4367">
        <ele>583.5</ele>
        <time>2011-01-09T10:25:08Z</time>
      </trkpt>
      <trkpt lat="44.4162" lon="2.43671">
        <ele>583.2</ele>
        <time>2011-01-09T10:25:09Z</time>
      </trkpt>
      <trkpt lat="44.41623" lon="2.43673">
        <ele>583</ele>
        <time>2011-01-09T10:25:10Z</time>
      </trkpt>
      <trkpt lat="44.41626" lon="2.43674">
        <ele>582.9</ele>
        <time>2011-01-09T10:25:11Z</time>
      </trkpt>
      <trkpt lat="44.41629" lon="2.43676">
        <ele>583.2</ele>
        <time>2011-01-09T10:25:12Z</time>
      </trkpt>
      <trkpt lat="44.41632" lon="2.43677">
        <ele>583.4</ele>
        <time>2011-01-09T10:25:13Z</time>
      </trkpt>
      <trkpt lat="44.41635" lon="2.43678">
        <ele>583.6</ele>
        <time>2011-01-09T10:25:14Z</time>
      </trkpt>
      <trkpt lat="44.41637" lon="2.4368">
        <ele>583.7</ele>
        <time>2011-01-09T10:25:15Z</time>
      </trkpt>
      <trkpt lat="44.41641" lon="2.43683">
        <ele>582.8</ele>
        <time>2011-01-09T10:25:18Z</time>
      </trkpt>
      <trkpt lat="44.41644" lon="2.43686">
        <ele>583</ele>
        <time>2011-01-09T10:25:21Z</time>
      </trkpt>
      <trkpt lat="44.41648" lon="2.43688">
        <ele>583.3</ele>
        <time>2011-01-09T10:25:25Z</time>
      </trkpt>
      <trkpt lat="44.41651" lon="2.43693">
        <ele>582.9</ele>
        <time>2011-01-09T10:25:31Z</time>
      </trkpt>
      <trkpt lat="44.41653" lon="2.43696">
        <ele>582.7</ele>
        <time>2011-01-09T10:25:33Z</time>
      </trkpt>
      <trkpt lat="44.41656" lon="2.43699">
        <ele>582.4</ele>
        <time>2011-01-09T10:25:35Z</time>
      </trkpt>
      <trkpt lat="44.41659" lon="2.43702">
        <ele>582.1</ele>
        <time>2011-01-09T10:25:37Z</time>
      </trkpt>
      <trkpt lat="44.41663" lon="2.43705">
        <ele>582.1</ele>
        <time>2011-01-09T10:25:41Z</time>
      </trkpt>
      <trkpt lat="44.41667" lon="2.43708">
        <ele>582</ele>
        <time>2011-01-09T10:26:00Z</time>
      </trkpt>
      <trkpt lat="44.41668" lon="2.43709">
        <ele>581.8</ele>
        <time>2011-01-09T10:26:01Z</time>
      </trkpt>
      <trkpt lat="44.41674" lon="2.43713">
        <ele>581.2</ele>
        <time>2011-01-09T10:26:05Z</time>
      </trkpt>
      <trkpt lat="44.41677" lon="2.43713">
        <ele>581.1</ele>
        <time>2011-01-09T10:26:06Z</time>
      </trkpt>
      <trkpt lat="44.41679" lon="2.43714">
        <ele>581.3</ele>
        <time>2011-01-09T10:26:07Z</time>
      </trkpt>
      <trkpt lat="44.41682" lon="2.43714">
        <ele>581.4</ele>
        <time>2011-01-09T10:26:08Z</time>
      </trkpt>
      <trkpt lat="44.41685" lon="2.43715">
        <ele>581.5</ele>
        <time>2011-01-09T10:26:09Z</time>
      </trkpt>
      <trkpt lat="44.41688" lon="2.43716">
        <ele>581.6</ele>
        <time>2011-01-09T10:26:10Z</time>
      </trkpt>
      <trkpt lat="44.4169" lon="2.43718">
        <ele>581.6</ele>
        <time>2011-01-09T10:26:11Z</time>
      </trkpt>
      <trkpt lat="44.41693" lon="2.43719">
        <ele>581.7</ele>
        <time>2011-01-09T10:26:12Z</time>
      </trkpt>
      <trkpt lat="44.41696" lon="2.43721">
        <ele>581.7</ele>
        <time>2011-01-09T10:26:13Z</time>
      </trkpt>
      <trkpt lat="44.41699" lon="2.43722">
        <ele>581.7</ele>
        <time>2011-01-09T10:26:14Z</time>
      </trkpt>
      <trkpt lat="44.41703" lon="2.43724">
        <ele>581.6</ele>
        <time>2011-01-09T10:26:16Z</time>
      </trkpt>
      <trkpt lat="44.41705" lon="2.43725">
        <ele>581.6</ele>
        <time>2011-01-09T10:26:17Z</time>
      </trkpt>
      <trkpt lat="44.41709" lon="2.43728">
        <ele>581.3</ele>
        <time>2011-01-09T10:26:19Z</time>
      </trkpt>
      <trkpt lat="44.41712" lon="2.43731">
        <ele>581.1</ele>
        <time>2011-01-09T10:26:21Z</time>
      </trkpt>
      <trkpt lat="44.41714" lon="2.43734">
        <ele>581.6</ele>
        <time>2011-01-09T10:26:23Z</time>
      </trkpt>
      <trkpt lat="44.41717" lon="2.43738">
        <ele>582.4</ele>
        <time>2011-01-09T10:26:25Z</time>
      </trkpt>
      <trkpt lat="44.41719" lon="2.43743">
        <ele>582.6</ele>
        <time>2011-01-09T10:26:27Z</time>
      </trkpt>
      <trkpt lat="44.41721" lon="2.43747">
        <ele>583.3</ele>
        <time>2011-01-09T10:26:29Z</time>
      </trkpt>
      <trkpt lat="44.41722" lon="2.43752">
        <ele>584.3</ele>
        <time>2011-01-09T10:26:31Z</time>
      </trkpt>
      <trkpt lat="44.41724" lon="2.43757">
        <ele>585.1</ele>
        <time>2011-01-09T10:26:33Z</time>
      </trkpt>
      <trkpt lat="44.41727" lon="2.43762">
        <ele>585.6</ele>
        <time>2011-01-09T10:26:35Z</time>
      </trkpt>
      <trkpt lat="44.41729" lon="2.43767">
        <ele>585.9</ele>
        <time>2011-01-09T10:26:37Z</time>
      </trkpt>
      <trkpt lat="44.41731" lon="2.43771">
        <ele>586</ele>
        <time>2011-01-09T10:26:39Z</time>
      </trkpt>
      <trkpt lat="44.41733" lon="2.43777">
        <ele>586</ele>
        <time>2011-01-09T10:26:41Z</time>
      </trkpt>
      <trkpt lat="44.41735" lon="2.43782">
        <ele>586.9</ele>
        <time>2011-01-09T10:26:43Z</time>
      </trkpt>
      <trkpt lat="44.41737" lon="2.43787">
        <ele>587.3</ele>
        <time>2011-01-09T10:26:45Z</time>
      </trkpt>
      <trkpt lat="44.4174" lon="2.43792">
        <ele>587.4</ele>
        <time>2011-01-09T10:26:47Z</time>
      </trkpt>
      <trkpt lat="44.41742" lon="2.43797">
        <ele>587.1</ele>
        <time>2011-01-09T10:26:49Z</time>
      </trkpt>
      <trkpt lat="44.41743" lon="2.43802">
        <ele>586.8</ele>
        <time>2011-01-09T10:26:51Z</time>
      </trkpt>
      <trkpt lat="44.41745" lon="2.43807">
        <ele>586.4</ele>
        <time>2011-01-09T10:26:53Z</time>
      </trkpt>
      <trkpt lat="44.41747" lon="2.43812">
        <ele>586.7</ele>
        <time>2011-01-09T10:26:55Z</time>
      </trkpt>
      <trkpt lat="44.41749" lon="2.43816">
        <ele>587.2</ele>
        <time>2011-01-09T10:26:57Z</time>
      </trkpt>
      <trkpt lat="44.41751" lon="2.43821">
        <ele>587.5</ele>
        <time>2011-01-09T10:26:59Z</time>
      </trkpt>
      <trkpt lat="44.41753" lon="2.43825">
        <ele>588.1</ele>
        <time>2011-01-09T10:27:01Z</time>
      </trkpt>
      <trkpt lat="44.41754" lon="2.43827">
        <ele>588.4</ele>
        <time>2011-01-09T10:27:02Z</time>
      </trkpt>
      <trkpt lat="44.41757" lon="2.43833">
        <ele>588.9</ele>
        <time>2011-01-09T10:27:05Z</time>
      </trkpt>
      <trkpt lat="44.41759" lon="2.43838">
        <ele>589.1</ele>
        <time>2011-01-09T10:27:07Z</time>
      </trkpt>
      <trkpt lat="44.41761" lon="2.43842">
        <ele>589.3</ele>
        <time>2011-01-09T10:27:09Z</time>
      </trkpt>
      <trkpt lat="44.41763" lon="2.43847">
        <ele>589.4</ele>
        <time>2011-01-09T10:27:11Z</time>
      </trkpt>
      <trkpt lat="44.41765" lon="2.43851">
        <ele>589.3</ele>
        <time>2011-01-09T10:27:13Z</time>
      </trkpt>
      <trkpt lat="44.41767" lon="2.43855">
        <ele>589.8</ele>
        <time>2011-01-09T10:27:14Z</time>
      </trkpt>
      <trkpt lat="44.41769" lon="2.43859">
        <ele>590.4</ele>
        <time>2011-01-09T10:27:16Z</time>
      </trkpt>
      <trkpt lat="44.41771" lon="2.43864">
        <ele>590.9</ele>
        <time>2011-01-09T10:27:18Z</time>
      </trkpt>
      <trkpt lat="44.41773" lon="2.43868">
        <ele>591.1</ele>
        <time>2011-01-09T10:27:20Z</time>
      </trkpt>
      <trkpt lat="44.41776" lon="2.43872">
        <ele>591.1</ele>
        <time>2011-01-09T10:27:22Z</time>
      </trkpt>
      <trkpt lat="44.41778" lon="2.43877">
        <ele>591.1</ele>
        <time>2011-01-09T10:27:24Z</time>
      </trkpt>
      <trkpt lat="44.4178" lon="2.43882">
        <ele>591.1</ele>
        <time>2011-01-09T10:27:26Z</time>
      </trkpt>
      <trkpt lat="44.41782" lon="2.43887">
        <ele>591.4</ele>
        <time>2011-01-09T10:27:28Z</time>
      </trkpt>
      <trkpt lat="44.41784" lon="2.43892">
        <ele>591.9</ele>
        <time>2011-01-09T10:27:30Z</time>
      </trkpt>
      <trkpt lat="44.41787" lon="2.43897">
        <ele>592.4</ele>
        <time>2011-01-09T10:27:32Z</time>
      </trkpt>
      <trkpt lat="44.4179" lon="2.43901">
        <ele>592.8</ele>
        <time>2011-01-09T10:27:34Z</time>
      </trkpt>
      <trkpt lat="44.41794" lon="2.439">
        <ele>593.4</ele>
        <time>2011-01-09T10:27:36Z</time>
      </trkpt>
      <trkpt lat="44.41796" lon="2.43899">
        <ele>593.8</ele>
        <time>2011-01-09T10:27:37Z</time>
      </trkpt>
      <trkpt lat="44.41799" lon="2.43898">
        <ele>594.1</ele>
        <time>2011-01-09T10:27:38Z</time>
      </trkpt>
      <trkpt lat="44.41801" lon="2.43896">
        <ele>593.8</ele>
        <time>2011-01-09T10:27:39Z</time>
      </trkpt>
      <trkpt lat="44.41803" lon="2.43895">
        <ele>593.5</ele>
        <time>2011-01-09T10:27:40Z</time>
      </trkpt>
      <trkpt lat="44.41806" lon="2.43894">
        <ele>593.3</ele>
        <time>2011-01-09T10:27:41Z</time>
      </trkpt>
      <trkpt lat="44.41808" lon="2.43893">
        <ele>593.4</ele>
        <time>2011-01-09T10:27:42Z</time>
      </trkpt>
      <trkpt lat="44.41811" lon="2.43891">
        <ele>593.5</ele>
        <time>2011-01-09T10:27:43Z</time>
      </trkpt>
      <trkpt lat="44.41813" lon="2.4389">
        <ele>593.6</ele>
        <time>2011-01-09T10:27:44Z</time>
      </trkpt>
      <trkpt lat="44.41816" lon="2.43889">
        <ele>593.6</ele>
        <time>2011-01-09T10:27:45Z</time>
      </trkpt>
      <trkpt lat="44.41818" lon="2.43887">
        <ele>593.6</ele>
        <time>2011-01-09T10:27:46Z</time>
      </trkpt>
      <trkpt lat="44.41821" lon="2.43886">
        <ele>593.7</ele>
        <time>2011-01-09T10:27:47Z</time>
      </trkpt>
      <trkpt lat="44.41823" lon="2.43884">
        <ele>593.7</ele>
        <time>2011-01-09T10:27:48Z</time>
      </trkpt>
      <trkpt lat="44.41826" lon="2.43883">
        <ele>593.4</ele>
        <time>2011-01-09T10:27:49Z</time>
      </trkpt>
      <trkpt lat="44.41829" lon="2.43882">
        <ele>593.2</ele>
        <time>2011-01-09T10:27:50Z</time>
      </trkpt>
      <trkpt lat="44.41832" lon="2.4388">
        <ele>593.1</ele>
        <time>2011-01-09T10:27:51Z</time>
      </trkpt>
      <trkpt lat="44.41835" lon="2.43879">
        <ele>593.4</ele>
        <time>2011-01-09T10:27:52Z</time>
      </trkpt>
      <trkpt lat="44.41838" lon="2.43877">
        <ele>593.7</ele>
        <time>2011-01-09T10:27:53Z</time>
      </trkpt>
      <trkpt lat="44.41841" lon="2.43876">
        <ele>593.8</ele>
        <time>2011-01-09T10:27:54Z</time>
      </trkpt>
      <trkpt lat="44.41844" lon="2.43874">
        <ele>593.8</ele>
        <time>2011-01-09T10:27:55Z</time>
      </trkpt>
      <trkpt lat="44.41846" lon="2.43873">
        <ele>593.8</ele>
        <time>2011-01-09T10:27:56Z</time>
      </trkpt>
      <trkpt lat="44.41849" lon="2.43871">
        <ele>593.8</ele>
        <time>2011-01-09T10:27:57Z</time>
      </trkpt>
      <trkpt lat="44.41852" lon="2.4387">
        <ele>594.1</ele>
        <time>2011-01-09T10:27:58Z</time>
      </trkpt>
      <trkpt lat="44.41855" lon="2.43868">
        <ele>594.3</ele>
        <time>2011-01-09T10:27:59Z</time>
      </trkpt>
      <trkpt lat="44.41858" lon="2.43867">
        <ele>594.4</ele>
        <time>2011-01-09T10:28:00Z</time>
      </trkpt>
      <trkpt lat="44.4186" lon="2.43866">
        <ele>594.6</ele>
        <time>2011-01-09T10:28:01Z</time>
      </trkpt>
      <trkpt lat="44.41863" lon="2.43864">
        <ele>594.5</ele>
        <time>2011-01-09T10:28:02Z</time>
      </trkpt>
      <trkpt lat="44.41865" lon="2.43863">
        <ele>594.4</ele>
        <time>2011-01-09T10:28:03Z</time>
      </trkpt>
      <trkpt lat="44.41868" lon="2.43862">
        <ele>594.4</ele>
        <time>2011-01-09T10:28:04Z</time>
      </trkpt>
      <trkpt lat="44.4187" lon="2.4386">
        <ele>594.6</ele>
        <time>2011-01-09T10:28:05Z</time>
      </trkpt>
      <trkpt lat="44.41873" lon="2.43859">
        <ele>594.8</ele>
        <time>2011-01-09T10:28:06Z</time>
      </trkpt>
      <trkpt lat="44.41875" lon="2.43858">
        <ele>594.9</ele>
        <time>2011-01-09T10:28:07Z</time>
      </trkpt>
      <trkpt lat="44.41878" lon="2.43857">
        <ele>595.4</ele>
        <time>2011-01-09T10:28:08Z</time>
      </trkpt>
      <trkpt lat="44.4188" lon="2.43856">
        <ele>595.7</ele>
        <time>2011-01-09T10:28:09Z</time>
      </trkpt>
      <trkpt lat="44.41883" lon="2.43855">
        <ele>595.9</ele>
        <time>2011-01-09T10:28:10Z</time>
      </trkpt>
      <trkpt lat="44.41885" lon="2.43853">
        <ele>596.2</ele>
        <time>2011-01-09T10:28:11Z</time>
      </trkpt>
      <trkpt lat="44.41888" lon="2.43852">
        <ele>596.4</ele>
        <time>2011-01-09T10:28:12Z</time>
      </trkpt>
      <trkpt lat="44.4189" lon="2.43851">
        <ele>596.5</ele>
        <time>2011-01-09T10:28:13Z</time>
      </trkpt>
      <trkpt lat="44.41893" lon="2.4385">
        <ele>596.5</ele>
        <time>2011-01-09T10:28:14Z</time>
      </trkpt>
      <trkpt lat="44.41895" lon="2.43848">
        <ele>596.5</ele>
        <time>2011-01-09T10:28:15Z</time>
      </trkpt>
      <trkpt lat="44.41898" lon="2.43847">
        <ele>596.5</ele>
        <time>2011-01-09T10:28:16Z</time>
      </trkpt>
      <trkpt lat="44.419" lon="2.43846">
        <ele>596.5</ele>
        <time>2011-01-09T10:28:17Z</time>
      </trkpt>
      <trkpt lat="44.41903" lon="2.43844">
        <ele>596.4</ele>
        <time>2011-01-09T10:28:18Z</time>
      </trkpt>
      <trkpt lat="44.41906" lon="2.43843">
        <ele>596.4</ele>
        <time>2011-01-09T10:28:19Z</time>
      </trkpt>
      <trkpt lat="44.41908" lon="2.43842">
        <ele>596.4</ele>
        <time>2011-01-09T10:28:20Z</time>
      </trkpt>
      <trkpt lat="44.41911" lon="2.43841">
        <ele>596.7</ele>
        <time>2011-01-09T10:28:21Z</time>
      </trkpt>
      <trkpt lat="44.41913" lon="2.43839">
        <ele>597</ele>
        <time>2011-01-09T10:28:22Z</time>
      </trkpt>
      <trkpt lat="44.41916" lon="2.43838">
        <ele>597.1</ele>
        <time>2011-01-09T10:28:23Z</time>
      </trkpt>
      <trkpt lat="44.41918" lon="2.43837">
        <ele>596.9</ele>
        <time>2011-01-09T10:28:24Z</time>
      </trkpt>
      <trkpt lat="44.41921" lon="2.43835">
        <ele>596.8</ele>
        <time>2011-01-09T10:28:25Z</time>
      </trkpt>
      <trkpt lat="44.41923" lon="2.43834">
        <ele>596.7</ele>
        <time>2011-01-09T10:28:26Z</time>
      </trkpt>
      <trkpt lat="44.41925" lon="2.43832">
        <ele>597.2</ele>
        <time>2011-01-09T10:28:27Z</time>
      </trkpt>
      <trkpt lat="44.41927" lon="2.4383">
        <ele>597.7</ele>
        <time>2011-01-09T10:28:28Z</time>
      </trkpt>
      <trkpt lat="44.41929" lon="2.43827">
        <ele>598</ele>
        <time>2011-01-09T10:28:29Z</time>
      </trkpt>
      <trkpt lat="44.4193" lon="2.43824">
        <ele>597.9</ele>
        <time>2011-01-09T10:28:30Z</time>
      </trkpt>
      <trkpt lat="44.41931" lon="2.43821">
        <ele>597.8</ele>
        <time>2011-01-09T10:28:31Z</time>
      </trkpt>
      <trkpt lat="44.41931" lon="2.43817">
        <ele>597.8</ele>
        <time>2011-01-09T10:28:32Z</time>
      </trkpt>
      <trkpt lat="44.41931" lon="2.43813">
        <ele>597.7</ele>
        <time>2011-01-09T10:28:33Z</time>
      </trkpt>
      <trkpt lat="44.4193" lon="2.43809">
        <ele>597.8</ele>
        <time>2011-01-09T10:28:34Z</time>
      </trkpt>
      <trkpt lat="44.4193" lon="2.43805">
        <ele>597.9</ele>
        <time>2011-01-09T10:28:35Z</time>
      </trkpt>
      <trkpt lat="44.4193" lon="2.43801">
        <ele>598</ele>
        <time>2011-01-09T10:28:36Z</time>
      </trkpt>
      <trkpt lat="44.41931" lon="2.43797">
        <ele>598.2</ele>
        <time>2011-01-09T10:28:37Z</time>
      </trkpt>
      <trkpt lat="44.41933" lon="2.43794">
        <ele>598.3</ele>
        <time>2011-01-09T10:28:38Z</time>
      </trkpt>
      <trkpt lat="44.41936" lon="2.43791">
        <ele>598.4</ele>
        <time>2011-01-09T10:28:39Z</time>
      </trkpt>
      <trkpt lat="44.41938" lon="2.4379">
        <ele>598.6</ele>
        <time>2011-01-09T10:28:40Z</time>
      </trkpt>
      <trkpt lat="44.41941" lon="2.43788">
        <ele>598.8</ele>
        <time>2011-01-09T10:28:41Z</time>
      </trkpt>
      <trkpt lat="44.41943" lon="2.43787">
        <ele>598.9</ele>
        <time>2011-01-09T10:28:42Z</time>
      </trkpt>
      <trkpt lat="44.41945" lon="2.43785">
        <ele>598.6</ele>
        <time>2011-01-09T10:28:43Z</time>
      </trkpt>
      <trkpt lat="44.41947" lon="2.43784">
        <ele>598.4</ele>
        <time>2011-01-09T10:28:44Z</time>
      </trkpt>
      <trkpt lat="44.4195" lon="2.43783">
        <ele>598.2</ele>
        <time>2011-01-09T10:28:45Z</time>
      </trkpt>
      <trkpt lat="44.41952" lon="2.43782">
        <ele>598.4</ele>
        <time>2011-01-09T10:28:46Z</time>
      </trkpt>
      <trkpt lat="44.41954" lon="2.4378">
        <ele>598.5</ele>
        <time>2011-01-09T10:28:47Z</time>
      </trkpt>
      <trkpt lat="44.41957" lon="2.43779">
        <ele>598.6</ele>
        <time>2011-01-09T10:28:48Z</time>
      </trkpt>
      <trkpt lat="44.41959" lon="2.43778">
        <ele>598.7</ele>
        <time>2011-01-09T10:28:49Z</time>
      </trkpt>
      <trkpt lat="44.41963" lon="2.43776">
        <ele>598.8</ele>
        <time>2011-01-09T10:28:51Z</time>
      </trkpt>
      <trkpt lat="44.41967" lon="2.43774">
        <ele>599.1</ele>
        <time>2011-01-09T10:28:53Z</time>
      </trkpt>
      <trkpt lat="44.41971" lon="2.43771">
        <ele>599.6</ele>
        <time>2011-01-09T10:28:55Z</time>
      </trkpt>
      <trkpt lat="44.41973" lon="2.4377">
        <ele>599.6</ele>
        <time>2011-01-09T10:28:56Z</time>
      </trkpt>
      <trkpt lat="44.41975" lon="2.43768">
        <ele>599.5</ele>
        <time>2011-01-09T10:28:57Z</time>
      </trkpt>
      <trkpt lat="44.41977" lon="2.43767">
        <ele>599.5</ele>
        <time>2011-01-09T10:28:58Z</time>
      </trkpt>
      <trkpt lat="44.41979" lon="2.43766">
        <ele>599.8</ele>
        <time>2011-01-09T10:28:59Z</time>
      </trkpt>
      <trkpt lat="44.41981" lon="2.43764">
        <ele>600</ele>
        <time>2011-01-09T10:29:00Z</time>
      </trkpt>
      <trkpt lat="44.41985" lon="2.43762">
        <ele>600.2</ele>
        <time>2011-01-09T10:29:02Z</time>
      </trkpt>
      <trkpt lat="44.41989" lon="2.4376">
        <ele>600.3</ele>
        <time>2011-01-09T10:29:04Z</time>
      </trkpt>
      <trkpt lat="44.41991" lon="2.43758">
        <ele>600.3</ele>
        <time>2011-01-09T10:29:05Z</time>
      </trkpt>
      <trkpt lat="44.41997" lon="2.43756">
        <ele>600.5</ele>
        <time>2011-01-09T10:29:08Z</time>
      </trkpt>
      <trkpt lat="44.42001" lon="2.43754">
        <ele>601.1</ele>
        <time>2011-01-09T10:29:10Z</time>
      </trkpt>
      <trkpt lat="44.42005" lon="2.43753">
        <ele>601.2</ele>
        <time>2011-01-09T10:29:12Z</time>
      </trkpt>
      <trkpt lat="44.42009" lon="2.43751">
        <ele>601</ele>
        <time>2011-01-09T10:29:14Z</time>
      </trkpt>
      <trkpt lat="44.42014" lon="2.43749">
        <ele>601</ele>
        <time>2011-01-09T10:29:16Z</time>
      </trkpt>
      <trkpt lat="44.42016" lon="2.43748">
        <ele>601</ele>
        <time>2011-01-09T10:29:17Z</time>
      </trkpt>
      <trkpt lat="44.4202" lon="2.43745">
        <ele>601.8</ele>
        <time>2011-01-09T10:29:19Z</time>
      </trkpt>
      <trkpt lat="44.42022" lon="2.43744">
        <ele>602</ele>
        <time>2011-01-09T10:29:20Z</time>
      </trkpt>
      <trkpt lat="44.42024" lon="2.43743">
        <ele>602.1</ele>
        <time>2011-01-09T10:29:21Z</time>
      </trkpt>
      <trkpt lat="44.42027" lon="2.43742">
        <ele>602.1</ele>
        <time>2011-01-09T10:29:22Z</time>
      </trkpt>
      <trkpt lat="44.42029" lon="2.43741">
        <ele>602.1</ele>
        <time>2011-01-09T10:29:23Z</time>
      </trkpt>
      <trkpt lat="44.42031" lon="2.4374">
        <ele>602.2</ele>
        <time>2011-01-09T10:29:24Z</time>
      </trkpt>
      <trkpt lat="44.42034" lon="2.43739">
        <ele>602.1</ele>
        <time>2011-01-09T10:29:25Z</time>
      </trkpt>
      <trkpt lat="44.42036" lon="2.43737">
        <ele>602</ele>
        <time>2011-01-09T10:29:26Z</time>
      </trkpt>
      <trkpt lat="44.42039" lon="2.43736">
        <ele>602</ele>
        <time>2011-01-09T10:29:27Z</time>
      </trkpt>
      <trkpt lat="44.42041" lon="2.43735">
        <ele>602.3</ele>
        <time>2011-01-09T10:29:28Z</time>
      </trkpt>
      <trkpt lat="44.42044" lon="2.43734">
        <ele>602.5</ele>
        <time>2011-01-09T10:29:29Z</time>
      </trkpt>
      <trkpt lat="44.42047" lon="2.43733">
        <ele>602.7</ele>
        <time>2011-01-09T10:29:30Z</time>
      </trkpt>
      <trkpt lat="44.42049" lon="2.43732">
        <ele>602.5</ele>
        <time>2011-01-09T10:29:31Z</time>
      </trkpt>
      <trkpt lat="44.42052" lon="2.43731">
        <ele>602.4</ele>
        <time>2011-01-09T10:29:32Z</time>
      </trkpt>
      <trkpt lat="44.42055" lon="2.43731">
        <ele>602.3</ele>
        <time>2011-01-09T10:29:33Z</time>
      </trkpt>
      <trkpt lat="44.42057" lon="2.4373">
        <ele>602.4</ele>
        <time>2011-01-09T10:29:34Z</time>
      </trkpt>
      <trkpt lat="44.4206" lon="2.43729">
        <ele>602.5</ele>
        <time>2011-01-09T10:29:35Z</time>
      </trkpt>
      <trkpt lat="44.42063" lon="2.43728">
        <ele>602.5</ele>
        <time>2011-01-09T10:29:36Z</time>
      </trkpt>
      <trkpt lat="44.42065" lon="2.43727">
        <ele>603.2</ele>
        <time>2011-01-09T10:29:37Z</time>
      </trkpt>
      <trkpt lat="44.42068" lon="2.43727">
        <ele>603.7</ele>
        <time>2011-01-09T10:29:38Z</time>
      </trkpt>
      <trkpt lat="44.42071" lon="2.43726">
        <ele>604.1</ele>
        <time>2011-01-09T10:29:39Z</time>
      </trkpt>
      <trkpt lat="44.42074" lon="2.43725">
        <ele>604.4</ele>
        <time>2011-01-09T10:29:40Z</time>
      </trkpt>
      <trkpt lat="44.42077" lon="2.43724">
        <ele>604.2</ele>
        <time>2011-01-09T10:29:41Z</time>
      </trkpt>
      <trkpt lat="44.4208" lon="2.43724">
        <ele>604.1</ele>
        <time>2011-01-09T10:29:42Z</time>
      </trkpt>
      <trkpt lat="44.42083" lon="2.43723">
        <ele>604</ele>
        <time>2011-01-09T10:29:43Z</time>
      </trkpt>
      <trkpt lat="44.42087" lon="2.43723">
        <ele>604</ele>
        <time>2011-01-09T10:29:44Z</time>
      </trkpt>
      <trkpt lat="44.4209" lon="2.43722">
        <ele>604</ele>
        <time>2011-01-09T10:29:45Z</time>
      </trkpt>
      <trkpt lat="44.42093" lon="2.43721">
        <ele>603.9</ele>
        <time>2011-01-09T10:29:46Z</time>
      </trkpt>
      <trkpt lat="44.42097" lon="2.43721">
        <ele>604.1</ele>
        <time>2011-01-09T10:29:47Z</time>
      </trkpt>
      <trkpt lat="44.421" lon="2.43721">
        <ele>604.1</ele>
        <time>2011-01-09T10:29:48Z</time>
      </trkpt>
      <trkpt lat="44.42104" lon="2.4372">
        <ele>604.2</ele>
        <time>2011-01-09T10:29:49Z</time>
      </trkpt>
      <trkpt lat="44.42108" lon="2.43719">
        <ele>603.9</ele>
        <time>2011-01-09T10:29:50Z</time>
      </trkpt>
      <trkpt lat="44.42112" lon="2.43718">
        <ele>603.6</ele>
        <time>2011-01-09T10:29:51Z</time>
      </trkpt>
      <trkpt lat="44.42115" lon="2.43715">
        <ele>603.4</ele>
        <time>2011-01-09T10:29:52Z</time>
      </trkpt>
      <trkpt lat="44.42118" lon="2.43711">
        <ele>603.3</ele>
        <time>2011-01-09T10:29:53Z</time>
      </trkpt>
      <trkpt lat="44.42121" lon="2.43705">
        <ele>603.3</ele>
        <time>2011-01-09T10:29:54Z</time>
      </trkpt>
      <trkpt lat="44.42122" lon="2.43699">
        <ele>603.2</ele>
        <time>2011-01-09T10:29:55Z</time>
      </trkpt>
      <trkpt lat="44.42124" lon="2.43693">
        <ele>602.4</ele>
        <time>2011-01-09T10:29:56Z</time>
      </trkpt>
      <trkpt lat="44.42126" lon="2.43687">
        <ele>601.8</ele>
        <time>2011-01-09T10:29:57Z</time>
      </trkpt>
      <trkpt lat="44.42128" lon="2.4368">
        <ele>601.4</ele>
        <time>2011-01-09T10:29:58Z</time>
      </trkpt>
      <trkpt lat="44.42131" lon="2.43674">
        <ele>601.1</ele>
        <time>2011-01-09T10:29:59Z</time>
      </trkpt>
      <trkpt lat="44.42133" lon="2.43667">
        <ele>601.4</ele>
        <time>2011-01-09T10:30:00Z</time>
      </trkpt>
      <trkpt lat="44.42136" lon="2.43661">
        <ele>601.6</ele>
        <time>2011-01-09T10:30:01Z</time>
      </trkpt>
      <trkpt lat="44.42138" lon="2.43654">
        <ele>601.8</ele>
        <time>2011-01-09T10:30:02Z</time>
      </trkpt>
      <trkpt lat="44.42141" lon="2.43648">
        <ele>601</ele>
        <time>2011-01-09T10:30:03Z</time>
      </trkpt>
      <trkpt lat="44.42144" lon="2.43642">
        <ele>600.4</ele>
        <time>2011-01-09T10:30:04Z</time>
      </trkpt>
      <trkpt lat="44.42146" lon="2.43635">
        <ele>599.9</ele>
        <time>2011-01-09T10:30:05Z</time>
      </trkpt>
      <trkpt lat="44.42148" lon="2.4363">
        <ele>599.9</ele>
        <time>2011-01-09T10:30:06Z</time>
      </trkpt>
      <trkpt lat="44.4215" lon="2.43624">
        <ele>599.8</ele>
        <time>2011-01-09T10:30:07Z</time>
      </trkpt>
      <trkpt lat="44.42152" lon="2.43619">
        <ele>599.8</ele>
        <time>2011-01-09T10:30:08Z</time>
      </trkpt>
      <trkpt lat="44.42154" lon="2.43614">
        <ele>599.3</ele>
        <time>2011-01-09T10:30:09Z</time>
      </trkpt>
      <trkpt lat="44.42156" lon="2.43608">
        <ele>599</ele>
        <time>2011-01-09T10:30:10Z</time>
      </trkpt>
      <trkpt lat="44.42158" lon="2.43603">
        <ele>598.7</ele>
        <time>2011-01-09T10:30:11Z</time>
      </trkpt>
      <trkpt lat="44.42159" lon="2.43598">
        <ele>598.5</ele>
        <time>2011-01-09T10:30:12Z</time>
      </trkpt>
      <trkpt lat="44.42161" lon="2.43592">
        <ele>598.5</ele>
        <time>2011-01-09T10:30:13Z</time>
      </trkpt>
      <trkpt lat="44.42163" lon="2.43587">
        <ele>598.4</ele>
        <time>2011-01-09T10:30:14Z</time>
      </trkpt>
      <trkpt lat="44.42165" lon="2.43582">
        <ele>598.4</ele>
        <time>2011-01-09T10:30:15Z</time>
      </trkpt>
      <trkpt lat="44.42167" lon="2.43577">
        <ele>598.3</ele>
        <time>2011-01-09T10:30:16Z</time>
      </trkpt>
      <trkpt lat="44.42169" lon="2.43572">
        <ele>598.2</ele>
        <time>2011-01-09T10:30:17Z</time>
      </trkpt>
      <trkpt lat="44.42171" lon="2.43567">
        <ele>598.1</ele>
        <time>2011-01-09T10:30:18Z</time>
      </trkpt>
      <trkpt lat="44.42172" lon="2.43561">
        <ele>597.5</ele>
        <time>2011-01-09T10:30:19Z</time>
      </trkpt>
      <trkpt lat="44.42174" lon="2.43556">
        <ele>597.1</ele>
        <time>2011-01-09T10:30:20Z</time>
      </trkpt>
      <trkpt lat="44.42175" lon="2.4355">
        <ele>596.8</ele>
        <time>2011-01-09T10:30:21Z</time>
      </trkpt>
      <trkpt lat="44.42177" lon="2.43545">
        <ele>596.2</ele>
        <time>2011-01-09T10:30:22Z</time>
      </trkpt>
      <trkpt lat="44.42179" lon="2.43539">
        <ele>595.8</ele>
        <time>2011-01-09T10:30:23Z</time>
      </trkpt>
      <trkpt lat="44.42181" lon="2.43534">
        <ele>595.6</ele>
        <time>2011-01-09T10:30:24Z</time>
      </trkpt>
      <trkpt lat="44.42183" lon="2.43529">
        <ele>595.4</ele>
        <time>2011-01-09T10:30:25Z</time>
      </trkpt>
      <trkpt lat="44.42184" lon="2.43525">
        <ele>595.3</ele>
        <time>2011-01-09T10:30:26Z</time>
      </trkpt>
      <trkpt lat="44.42186" lon="2.4352">
        <ele>595</ele>
        <time>2011-01-09T10:30:28Z</time>
      </trkpt>
      <trkpt lat="44.42188" lon="2.43516">
        <ele>594.7</ele>
        <time>2011-01-09T10:30:31Z</time>
      </trkpt>
      <trkpt lat="44.42189" lon="2.43512">
        <ele>594.5</ele>
        <time>2011-01-09T10:30:33Z</time>
      </trkpt>
      <trkpt lat="44.4219" lon="2.43506">
        <ele>594.4</ele>
        <time>2011-01-09T10:30:35Z</time>
      </trkpt>
      <trkpt lat="44.42191" lon="2.43503">
        <ele>594.3</ele>
        <time>2011-01-09T10:30:36Z</time>
      </trkpt>
      <trkpt lat="44.42191" lon="2.435">
        <ele>594.3</ele>
        <time>2011-01-09T10:30:37Z</time>
      </trkpt>
      <trkpt lat="44.42192" lon="2.43496">
        <ele>594.6</ele>
        <time>2011-01-09T10:30:38Z</time>
      </trkpt>
      <trkpt lat="44.42193" lon="2.43493">
        <ele>594.9</ele>
        <time>2011-01-09T10:30:39Z</time>
      </trkpt>
      <trkpt lat="44.42195" lon="2.4349">
        <ele>595</ele>
        <time>2011-01-09T10:30:40Z</time>
      </trkpt>
      <trkpt lat="44.42196" lon="2.43486">
        <ele>595.8</ele>
        <time>2011-01-09T10:30:41Z</time>
      </trkpt>
      <trkpt lat="44.42198" lon="2.43483">
        <ele>596.4</ele>
        <time>2011-01-09T10:30:42Z</time>
      </trkpt>
      <trkpt lat="44.422" lon="2.43481">
        <ele>596.8</ele>
        <time>2011-01-09T10:30:43Z</time>
      </trkpt>
      <trkpt lat="44.42203" lon="2.43479">
        <ele>596.7</ele>
        <time>2011-01-09T10:30:44Z</time>
      </trkpt>
      <trkpt lat="44.42205" lon="2.43478">
        <ele>596.6</ele>
        <time>2011-01-09T10:30:45Z</time>
      </trkpt>
      <trkpt lat="44.42208" lon="2.43476">
        <ele>596.6</ele>
        <time>2011-01-09T10:30:46Z</time>
      </trkpt>
      <trkpt lat="44.4221" lon="2.43475">
        <ele>596.5</ele>
        <time>2011-01-09T10:30:47Z</time>
      </trkpt>
      <trkpt lat="44.42212" lon="2.43473">
        <ele>596.7</ele>
        <time>2011-01-09T10:30:48Z</time>
      </trkpt>
      <trkpt lat="44.42215" lon="2.43472">
        <ele>596.8</ele>
        <time>2011-01-09T10:30:49Z</time>
      </trkpt>
      <trkpt lat="44.42217" lon="2.43471">
        <ele>596.8</ele>
        <time>2011-01-09T10:30:50Z</time>
      </trkpt>
      <trkpt lat="44.42219" lon="2.43471">
        <ele>597.5</ele>
        <time>2011-01-09T10:30:51Z</time>
      </trkpt>
      <trkpt lat="44.42222" lon="2.4347">
        <ele>598.1</ele>
        <time>2011-01-09T10:30:52Z</time>
      </trkpt>
      <trkpt lat="44.42224" lon="2.4347">
        <ele>598.5</ele>
        <time>2011-01-09T10:30:53Z</time>
      </trkpt>
      <trkpt lat="44.42226" lon="2.43471">
        <ele>598.2</ele>
        <time>2011-01-09T10:30:54Z</time>
      </trkpt>
      <trkpt lat="44.42229" lon="2.43471">
        <ele>597.9</ele>
        <time>2011-01-09T10:30:55Z</time>
      </trkpt>
      <trkpt lat="44.42231" lon="2.43472">
        <ele>597.8</ele>
        <time>2011-01-09T10:30:56Z</time>
      </trkpt>
      <trkpt lat="44.42234" lon="2.43472">
        <ele>597.8</ele>
        <time>2011-01-09T10:30:57Z</time>
      </trkpt>
      <trkpt lat="44.42236" lon="2.43472">
        <ele>597.9</ele>
        <time>2011-01-09T10:30:58Z</time>
      </trkpt>
      <trkpt lat="44.42239" lon="2.43473">
        <ele>597.9</ele>
        <time>2011-01-09T10:30:59Z</time>
      </trkpt>
      <trkpt lat="44.42241" lon="2.43473">
        <ele>597.7</ele>
        <time>2011-01-09T10:31:00Z</time>
      </trkpt>
      <trkpt lat="44.42244" lon="2.43474">
        <ele>597.5</ele>
        <time>2011-01-09T10:31:01Z</time>
      </trkpt>
      <trkpt lat="44.42246" lon="2.43475">
        <ele>597.4</ele>
        <time>2011-01-09T10:31:02Z</time>
      </trkpt>
      <trkpt lat="44.42249" lon="2.43476">
        <ele>597.3</ele>
        <time>2011-01-09T10:31:03Z</time>
      </trkpt>
      <trkpt lat="44.42251" lon="2.43477">
        <ele>597.7</ele>
        <time>2011-01-09T10:31:04Z</time>
      </trkpt>
      <trkpt lat="44.42254" lon="2.43478">
        <ele>598</ele>
        <time>2011-01-09T10:31:05Z</time>
      </trkpt>
      <trkpt lat="44.42257" lon="2.43479">
        <ele>598.2</ele>
        <time>2011-01-09T10:31:06Z</time>
      </trkpt>
      <trkpt lat="44.42261" lon="2.4348">
        <ele>598.3</ele>
        <time>2011-01-09T10:31:07Z</time>
      </trkpt>
      <trkpt lat="44.42264" lon="2.43481">
        <ele>598.3</ele>
        <time>2011-01-09T10:31:08Z</time>
      </trkpt>
      <trkpt lat="44.42267" lon="2.43482">
        <ele>598.3</ele>
        <time>2011-01-09T10:31:09Z</time>
      </trkpt>
      <trkpt lat="44.42271" lon="2.43484">
        <ele>598.1</ele>
        <time>2011-01-09T10:31:10Z</time>
      </trkpt>
      <trkpt lat="44.42274" lon="2.43486">
        <ele>598</ele>
        <time>2011-01-09T10:31:11Z</time>
      </trkpt>
      <trkpt lat="44.42277" lon="2.43487">
        <ele>597.9</ele>
        <time>2011-01-09T10:31:12Z</time>
      </trkpt>
      <trkpt lat="44.4228" lon="2.43489">
        <ele>597.9</ele>
        <time>2011-01-09T10:31:13Z</time>
      </trkpt>
      <trkpt lat="44.42283" lon="2.4349">
        <ele>597.9</ele>
        <time>2011-01-09T10:31:14Z</time>
      </trkpt>
      <trkpt lat="44.42287" lon="2.43492">
        <ele>597.9</ele>
        <time>2011-01-09T10:31:15Z</time>
      </trkpt>
      <trkpt lat="44.4229" lon="2.43493">
        <ele>597.9</ele>
        <time>2011-01-09T10:31:16Z</time>
      </trkpt>
      <trkpt lat="44.42293" lon="2.43495">
        <ele>597.9</ele>
        <time>2011-01-09T10:31:17Z</time>
      </trkpt>
      <trkpt lat="44.42296" lon="2.43497">
        <ele>597.9</ele>
        <time>2011-01-09T10:31:18Z</time>
      </trkpt>
      <trkpt lat="44.423" lon="2.43498">
        <ele>597.9</ele>
        <time>2011-01-09T10:31:19Z</time>
      </trkpt>
      <trkpt lat="44.42303" lon="2.435">
        <ele>597.8</ele>
        <time>2011-01-09T10:31:20Z</time>
      </trkpt>
      <trkpt lat="44.42306" lon="2.43502">
        <ele>597.7</ele>
        <time>2011-01-09T10:31:21Z</time>
      </trkpt>
      <trkpt lat="44.42309" lon="2.43504">
        <ele>597.6</ele>
        <time>2011-01-09T10:31:22Z</time>
      </trkpt>
      <trkpt lat="44.42313" lon="2.43505">
        <ele>597.7</ele>
        <time>2011-01-09T10:31:23Z</time>
      </trkpt>
      <trkpt lat="44.42316" lon="2.43507">
        <ele>597.7</ele>
        <time>2011-01-09T10:31:24Z</time>
      </trkpt>
      <trkpt lat="44.4232" lon="2.43508">
        <ele>597.8</ele>
        <time>2011-01-09T10:31:25Z</time>
      </trkpt>
      <trkpt lat="44.42323" lon="2.43509">
        <ele>597.4</ele>
        <time>2011-01-09T10:31:26Z</time>
      </trkpt>
      <trkpt lat="44.42326" lon="2.4351">
        <ele>597.2</ele>
        <time>2011-01-09T10:31:27Z</time>
      </trkpt>
      <trkpt lat="44.42329" lon="2.43511">
        <ele>597</ele>
        <time>2011-01-09T10:31:28Z</time>
      </trkpt>
      <trkpt lat="44.42332" lon="2.43512">
        <ele>596.8</ele>
        <time>2011-01-09T10:31:29Z</time>
      </trkpt>
      <trkpt lat="44.42335" lon="2.43513">
        <ele>596.6</ele>
        <time>2011-01-09T10:31:30Z</time>
      </trkpt>
      <trkpt lat="44.42339" lon="2.43515">
        <ele>596.5</ele>
        <time>2011-01-09T10:31:31Z</time>
      </trkpt>
      <trkpt lat="44.42342" lon="2.43516">
        <ele>596.5</ele>
        <time>2011-01-09T10:31:32Z</time>
      </trkpt>
      <trkpt lat="44.42345" lon="2.43518">
        <ele>596.5</ele>
        <time>2011-01-09T10:31:33Z</time>
      </trkpt>
      <trkpt lat="44.42348" lon="2.4352">
        <ele>596.5</ele>
        <time>2011-01-09T10:31:34Z</time>
      </trkpt>
      <trkpt lat="44.42352" lon="2.43522">
        <ele>596.3</ele>
        <time>2011-01-09T10:31:35Z</time>
      </trkpt>
      <trkpt lat="44.42355" lon="2.43524">
        <ele>596.2</ele>
        <time>2011-01-09T10:31:36Z</time>
      </trkpt>
      <trkpt lat="44.42358" lon="2.43526">
        <ele>596.1</ele>
        <time>2011-01-09T10:31:37Z</time>
      </trkpt>
      <trkpt lat="44.42362" lon="2.43528">
        <ele>596.1</ele>
        <time>2011-01-09T10:31:38Z</time>
      </trkpt>
      <trkpt lat="44.42365" lon="2.4353">
        <ele>596</ele>
        <time>2011-01-09T10:31:39Z</time>
      </trkpt>
      <trkpt lat="44.42369" lon="2.43532">
        <ele>596</ele>
        <time>2011-01-09T10:31:40Z</time>
      </trkpt>
      <trkpt lat="44.42373" lon="2.43533">
        <ele>596</ele>
        <time>2011-01-09T10:31:41Z</time>
      </trkpt>
      <trkpt lat="44.42376" lon="2.43535">
        <ele>596</ele>
        <time>2011-01-09T10:31:42Z</time>
      </trkpt>
      <trkpt lat="44.42379" lon="2.43537">
        <ele>596</ele>
        <time>2011-01-09T10:31:43Z</time>
      </trkpt>
      <trkpt lat="44.42383" lon="2.43539">
        <ele>596</ele>
        <time>2011-01-09T10:31:44Z</time>
      </trkpt>
      <trkpt lat="44.42386" lon="2.43541">
        <ele>595.6</ele>
        <time>2011-01-09T10:31:45Z</time>
      </trkpt>
      <trkpt lat="44.42389" lon="2.43543">
        <ele>595.2</ele>
        <time>2011-01-09T10:31:46Z</time>
      </trkpt>
      <trkpt lat="44.42391" lon="2.43544">
        <ele>595</ele>
        <time>2011-01-09T10:31:47Z</time>
      </trkpt>
      <trkpt lat="44.42395" lon="2.43541">
        <ele>594.8</ele>
        <time>2011-01-09T10:31:50Z</time>
      </trkpt>
      <trkpt lat="44.42394" lon="2.43539">
        <ele>595.1</ele>
        <time>2011-01-09T10:31:51Z</time>
      </trkpt>
      <trkpt lat="44.42392" lon="2.43536">
        <ele>595.4</ele>
        <time>2011-01-09T10:31:52Z</time>
      </trkpt>
      <trkpt lat="44.42391" lon="2.43533">
        <ele>595.5</ele>
        <time>2011-01-09T10:31:53Z</time>
      </trkpt>
      <trkpt lat="44.42389" lon="2.43528">
        <ele>595.8</ele>
        <time>2011-01-09T10:31:55Z</time>
      </trkpt>
      <trkpt lat="44.42388" lon="2.43525">
        <ele>596</ele>
        <time>2011-01-09T10:31:56Z</time>
      </trkpt>
      <trkpt lat="44.42386" lon="2.43522">
        <ele>596.1</ele>
        <time>2011-01-09T10:31:57Z</time>
      </trkpt>
      <trkpt lat="44.42384" lon="2.43519">
        <ele>596</ele>
        <time>2011-01-09T10:31:58Z</time>
      </trkpt>
      <trkpt lat="44.42383" lon="2.43516">
        <ele>596</ele>
        <time>2011-01-09T10:31:59Z</time>
      </trkpt>
      <trkpt lat="44.42381" lon="2.43513">
        <ele>595.9</ele>
        <time>2011-01-09T10:32:00Z</time>
      </trkpt>
      <trkpt lat="44.42379" lon="2.4351">
        <ele>595.7</ele>
        <time>2011-01-09T10:32:01Z</time>
      </trkpt>
      <trkpt lat="44.42378" lon="2.43507">
        <ele>595.4</ele>
        <time>2011-01-09T10:32:02Z</time>
      </trkpt>
      <trkpt lat="44.42376" lon="2.43504">
        <ele>595.3</ele>
        <time>2011-01-09T10:32:03Z</time>
      </trkpt>
      <trkpt lat="44.42375" lon="2.43501">
        <ele>595.6</ele>
        <time>2011-01-09T10:32:04Z</time>
      </trkpt>
      <trkpt lat="44.42374" lon="2.43498">
        <ele>595.8</ele>
        <time>2011-01-09T10:32:05Z</time>
      </trkpt>
      <trkpt lat="44.42372" lon="2.43495">
        <ele>596</ele>
        <time>2011-01-09T10:32:06Z</time>
      </trkpt>
      <trkpt lat="44.42371" lon="2.43492">
        <ele>596</ele>
        <time>2011-01-09T10:32:07Z</time>
      </trkpt>
      <trkpt lat="44.4237" lon="2.43489">
        <ele>596</ele>
        <time>2011-01-09T10:32:08Z</time>
      </trkpt>
      <trkpt lat="44.42369" lon="2.43485">
        <ele>596</ele>
        <time>2011-01-09T10:32:09Z</time>
      </trkpt>
      <trkpt lat="44.42368" lon="2.43481">
        <ele>596</ele>
        <time>2011-01-09T10:32:10Z</time>
      </trkpt>
      <trkpt lat="44.42366" lon="2.43478">
        <ele>595.8</ele>
        <time>2011-01-09T10:32:11Z</time>
      </trkpt>
      <trkpt lat="44.42365" lon="2.43474">
        <ele>595.7</ele>
        <time>2011-01-09T10:32:12Z</time>
      </trkpt>
      <trkpt lat="44.42365" lon="2.43471">
        <ele>595.6</ele>
        <time>2011-01-09T10:32:13Z</time>
      </trkpt>
      <trkpt lat="44.42364" lon="2.43467">
        <ele>595.8</ele>
        <time>2011-01-09T10:32:14Z</time>
      </trkpt>
      <trkpt lat="44.42362" lon="2.43464">
        <ele>595.9</ele>
        <time>2011-01-09T10:32:15Z</time>
      </trkpt>
      <trkpt lat="44.42361" lon="2.4346">
        <ele>596</ele>
        <time>2011-01-09T10:32:16Z</time>
      </trkpt>
      <trkpt lat="44.4236" lon="2.43457">
        <ele>596.3</ele>
        <time>2011-01-09T10:32:17Z</time>
      </trkpt>
      <trkpt lat="44.42359" lon="2.43453">
        <ele>596.6</ele>
        <time>2011-01-09T10:32:18Z</time>
      </trkpt>
      <trkpt lat="44.42358" lon="2.4345">
        <ele>596.8</ele>
        <time>2011-01-09T10:32:19Z</time>
      </trkpt>
      <trkpt lat="44.42357" lon="2.43447">
        <ele>596.7</ele>
        <time>2011-01-09T10:32:20Z</time>
      </trkpt>
      <trkpt lat="44.42356" lon="2.43444">
        <ele>596.7</ele>
        <time>2011-01-09T10:32:21Z</time>
      </trkpt>
      <trkpt lat="44.42355" lon="2.4344">
        <ele>596.7</ele>
        <time>2011-01-09T10:32:22Z</time>
      </trkpt>
      <trkpt lat="44.42353" lon="2.43437">
        <ele>596.3</ele>
        <time>2011-01-09T10:32:23Z</time>
      </trkpt>
      <trkpt lat="44.42352" lon="2.43433">
        <ele>596</ele>
        <time>2011-01-09T10:32:24Z</time>
      </trkpt>
      <trkpt lat="44.42351" lon="2.4343">
        <ele>595.8</ele>
        <time>2011-01-09T10:32:25Z</time>
      </trkpt>
      <trkpt lat="44.42349" lon="2.43426">
        <ele>595.7</ele>
        <time>2011-01-09T10:32:26Z</time>
      </trkpt>
      <trkpt lat="44.42348" lon="2.43422">
        <ele>595.9</ele>
        <time>2011-01-09T10:32:27Z</time>
      </trkpt>
      <trkpt lat="44.42347" lon="2.43418">
        <ele>596.1</ele>
        <time>2011-01-09T10:32:28Z</time>
      </trkpt>
      <trkpt lat="44.42346" lon="2.43414">
        <ele>596.2</ele>
        <time>2011-01-09T10:32:29Z</time>
      </trkpt>
      <trkpt lat="44.42345" lon="2.4341">
        <ele>596.3</ele>
        <time>2011-01-09T10:32:30Z</time>
      </trkpt>
      <trkpt lat="44.42344" lon="2.43406">
        <ele>596.5</ele>
        <time>2011-01-09T10:32:31Z</time>
      </trkpt>
      <trkpt lat="44.42343" lon="2.43402">
        <ele>596.6</ele>
        <time>2011-01-09T10:32:32Z</time>
      </trkpt>
      <trkpt lat="44.42342" lon="2.43398">
        <ele>597.1</ele>
        <time>2011-01-09T10:32:33Z</time>
      </trkpt>
      <trkpt lat="44.42341" lon="2.43395">
        <ele>597.5</ele>
        <time>2011-01-09T10:32:34Z</time>
      </trkpt>
      <trkpt lat="44.4234" lon="2.43391">
        <ele>597.8</ele>
        <time>2011-01-09T10:32:35Z</time>
      </trkpt>
      <trkpt lat="44.42339" lon="2.43387">
        <ele>597.9</ele>
        <time>2011-01-09T10:32:36Z</time>
      </trkpt>
      <trkpt lat="44.42338" lon="2.43383">
        <ele>598</ele>
        <time>2011-01-09T10:32:37Z</time>
      </trkpt>
      <trkpt lat="44.42337" lon="2.43378">
        <ele>598</ele>
        <time>2011-01-09T10:32:38Z</time>
      </trkpt>
      <trkpt lat="44.42337" lon="2.43374">
        <ele>597.9</ele>
        <time>2011-01-09T10:32:39Z</time>
      </trkpt>
      <trkpt lat="44.42336" lon="2.4337">
        <ele>597.8</ele>
        <time>2011-01-09T10:32:40Z</time>
      </trkpt>
      <trkpt lat="44.42336" lon="2.43366">
        <ele>597.8</ele>
        <time>2011-01-09T10:32:41Z</time>
      </trkpt>
      <trkpt lat="44.42335" lon="2.43361">
        <ele>597.6</ele>
        <time>2011-01-09T10:32:42Z</time>
      </trkpt>
      <trkpt lat="44.42334" lon="2.43357">
        <ele>597.5</ele>
        <time>2011-01-09T10:32:43Z</time>
      </trkpt>
      <trkpt lat="44.42333" lon="2.43353">
        <ele>597.4</ele>
        <time>2011-01-09T10:32:44Z</time>
      </trkpt>
      <trkpt lat="44.42332" lon="2.43349">
        <ele>597.4</ele>
        <time>2011-01-09T10:32:45Z</time>
      </trkpt>
      <trkpt lat="44.42331" lon="2.43345">
        <ele>597.9</ele>
        <time>2011-01-09T10:32:46Z</time>
      </trkpt>
      <trkpt lat="44.4233" lon="2.43342">
        <ele>598.4</ele>
        <time>2011-01-09T10:32:47Z</time>
      </trkpt>
      <trkpt lat="44.42329" lon="2.43338">
        <ele>598.7</ele>
        <time>2011-01-09T10:32:48Z</time>
      </trkpt>
      <trkpt lat="44.42328" lon="2.43335">
        <ele>598.9</ele>
        <time>2011-01-09T10:32:49Z</time>
      </trkpt>
      <trkpt lat="44.42327" lon="2.43332">
        <ele>599</ele>
        <time>2011-01-09T10:32:50Z</time>
      </trkpt>
      <trkpt lat="44.42326" lon="2.43329">
        <ele>599.1</ele>
        <time>2011-01-09T10:32:51Z</time>
      </trkpt>
      <trkpt lat="44.42325" lon="2.43326">
        <ele>598.8</ele>
        <time>2011-01-09T10:32:52Z</time>
      </trkpt>
      <trkpt lat="44.42324" lon="2.43322">
        <ele>598.6</ele>
        <time>2011-01-09T10:32:53Z</time>
      </trkpt>
      <trkpt lat="44.42322" lon="2.43317">
        <ele>598.6</ele>
        <time>2011-01-09T10:32:55Z</time>
      </trkpt>
      <trkpt lat="44.42319" lon="2.43313">
        <ele>598.9</ele>
        <time>2011-01-09T10:32:57Z</time>
      </trkpt>
      <trkpt lat="44.42318" lon="2.43309">
        <ele>598.7</ele>
        <time>2011-01-09T10:32:59Z</time>
      </trkpt>
      <trkpt lat="44.42317" lon="2.43303">
        <ele>598.6</ele>
        <time>2011-01-09T10:33:01Z</time>
      </trkpt>
      <trkpt lat="44.42317" lon="2.43298">
        <ele>599</ele>
        <time>2011-01-09T10:33:03Z</time>
      </trkpt>
      <trkpt lat="44.42316" lon="2.43293">
        <ele>599.6</ele>
        <time>2011-01-09T10:33:05Z</time>
      </trkpt>
      <trkpt lat="44.42314" lon="2.4329">
        <ele>600.2</ele>
        <time>2011-01-09T10:33:07Z</time>
      </trkpt>
      <trkpt lat="44.42311" lon="2.43287">
        <ele>600.7</ele>
        <time>2011-01-09T10:33:09Z</time>
      </trkpt>
      <trkpt lat="44.42309" lon="2.43285">
        <ele>600.8</ele>
        <time>2011-01-09T10:33:10Z</time>
      </trkpt>
      <trkpt lat="44.42307" lon="2.43279">
        <ele>601.3</ele>
        <time>2011-01-09T10:33:12Z</time>
      </trkpt>
      <trkpt lat="44.42306" lon="2.43276">
        <ele>601.5</ele>
        <time>2011-01-09T10:33:13Z</time>
      </trkpt>
      <trkpt lat="44.42304" lon="2.43273">
        <ele>601.5</ele>
        <time>2011-01-09T10:33:14Z</time>
      </trkpt>
      <trkpt lat="44.42303" lon="2.43269">
        <ele>601.5</ele>
        <time>2011-01-09T10:33:15Z</time>
      </trkpt>
      <trkpt lat="44.42302" lon="2.43266">
        <ele>601.5</ele>
        <time>2011-01-09T10:33:16Z</time>
      </trkpt>
      <trkpt lat="44.42301" lon="2.43262">
        <ele>601.5</ele>
        <time>2011-01-09T10:33:17Z</time>
      </trkpt>
      <trkpt lat="44.42301" lon="2.43258">
        <ele>601.6</ele>
        <time>2011-01-09T10:33:18Z</time>
      </trkpt>
      <trkpt lat="44.423" lon="2.43254">
        <ele>601.6</ele>
        <time>2011-01-09T10:33:19Z</time>
      </trkpt>
      <trkpt lat="44.42299" lon="2.43249">
        <ele>601.3</ele>
        <time>2011-01-09T10:33:21Z</time>
      </trkpt>
      <trkpt lat="44.42298" lon="2.43246">
        <ele>601.1</ele>
        <time>2011-01-09T10:33:22Z</time>
      </trkpt>
      <trkpt lat="44.42297" lon="2.43242">
        <ele>600.8</ele>
        <time>2011-01-09T10:33:23Z</time>
      </trkpt>
      <trkpt lat="44.42297" lon="2.43239">
        <ele>600.8</ele>
        <time>2011-01-09T10:33:24Z</time>
      </trkpt>
      <trkpt lat="44.42296" lon="2.43236">
        <ele>600.7</ele>
        <time>2011-01-09T10:33:25Z</time>
      </trkpt>
      <trkpt lat="44.42295" lon="2.43232">
        <ele>600.7</ele>
        <time>2011-01-09T10:33:26Z</time>
      </trkpt>
      <trkpt lat="44.42294" lon="2.43228">
        <ele>600.3</ele>
        <time>2011-01-09T10:33:27Z</time>
      </trkpt>
      <trkpt lat="44.42293" lon="2.43224">
        <ele>600</ele>
        <time>2011-01-09T10:33:28Z</time>
      </trkpt>
      <trkpt lat="44.42291" lon="2.43219">
        <ele>599.7</ele>
        <time>2011-01-09T10:33:29Z</time>
      </trkpt>
      <trkpt lat="44.4229" lon="2.43215">
        <ele>599.7</ele>
        <time>2011-01-09T10:33:30Z</time>
      </trkpt>
      <trkpt lat="44.42289" lon="2.4321">
        <ele>599.7</ele>
        <time>2011-01-09T10:33:31Z</time>
      </trkpt>
      <trkpt lat="44.42288" lon="2.43205">
        <ele>599.7</ele>
        <time>2011-01-09T10:33:32Z</time>
      </trkpt>
      <trkpt lat="44.42287" lon="2.43201">
        <ele>599.7</ele>
        <time>2011-01-09T10:33:33Z</time>
      </trkpt>
      <trkpt lat="44.42286" lon="2.43198">
        <ele>599.5</ele>
        <time>2011-01-09T10:33:34Z</time>
      </trkpt>
      <trkpt lat="44.42285" lon="2.43194">
        <ele>599.3</ele>
        <time>2011-01-09T10:33:35Z</time>
      </trkpt>
      <trkpt lat="44.42284" lon="2.43189">
        <ele>599</ele>
        <time>2011-01-09T10:33:37Z</time>
      </trkpt>
      <trkpt lat="44.42284" lon="2.43183">
        <ele>598.4</ele>
        <time>2011-01-09T10:33:40Z</time>
      </trkpt>
      <trkpt lat="44.42284" lon="2.43178">
        <ele>598.2</ele>
        <time>2011-01-09T10:33:45Z</time>
      </trkpt>
      <trkpt lat="44.42284" lon="2.43172">
        <ele>597.9</ele>
        <time>2011-01-09T10:33:50Z</time>
      </trkpt>
      <trkpt lat="44.42283" lon="2.43166">
        <ele>598.4</ele>
        <time>2011-01-09T10:33:56Z</time>
      </trkpt>
      <trkpt lat="44.42282" lon="2.4316">
        <ele>598</ele>
        <time>2011-01-09T10:34:02Z</time>
      </trkpt>
      <trkpt lat="44.4228" lon="2.43155">
        <ele>597.8</ele>
        <time>2011-01-09T10:34:07Z</time>
      </trkpt>
      <trkpt lat="44.42279" lon="2.43151">
        <ele>597.9</ele>
        <time>2011-01-09T10:34:09Z</time>
      </trkpt>
      <trkpt lat="44.42277" lon="2.43146">
        <ele>598</ele>
        <time>2011-01-09T10:34:11Z</time>
      </trkpt>
      <trkpt lat="44.42277" lon="2.43144">
        <ele>598</ele>
        <time>2011-01-09T10:34:12Z</time>
      </trkpt>
      <trkpt lat="44.42276" lon="2.43138">
        <ele>598</ele>
        <time>2011-01-09T10:34:14Z</time>
      </trkpt>
      <trkpt lat="44.42276" lon="2.43135">
        <ele>597.4</ele>
        <time>2011-01-09T10:34:15Z</time>
      </trkpt>
      <trkpt lat="44.42275" lon="2.43131">
        <ele>597</ele>
        <time>2011-01-09T10:34:16Z</time>
      </trkpt>
      <trkpt lat="44.42274" lon="2.43125">
        <ele>596.6</ele>
        <time>2011-01-09T10:34:17Z</time>
      </trkpt>
      <trkpt lat="44.42274" lon="2.43119">
        <ele>596.1</ele>
        <time>2011-01-09T10:34:18Z</time>
      </trkpt>
      <trkpt lat="44.42274" lon="2.43112">
        <ele>595.8</ele>
        <time>2011-01-09T10:34:19Z</time>
      </trkpt>
      <trkpt lat="44.42274" lon="2.43105">
        <ele>595.5</ele>
        <time>2011-01-09T10:34:20Z</time>
      </trkpt>
      <trkpt lat="44.42274" lon="2.43098">
        <ele>595.3</ele>
        <time>2011-01-09T10:34:21Z</time>
      </trkpt>
      <trkpt lat="44.42275" lon="2.43091">
        <ele>595</ele>
        <time>2011-01-09T10:34:22Z</time>
      </trkpt>
      <trkpt lat="44.42275" lon="2.43084">
        <ele>594.7</ele>
        <time>2011-01-09T10:34:23Z</time>
      </trkpt>
      <trkpt lat="44.42275" lon="2.43078">
        <ele>594.5</ele>
        <time>2011-01-09T10:34:24Z</time>
      </trkpt>
      <trkpt lat="44.42275" lon="2.4307">
        <ele>594.6</ele>
        <time>2011-01-09T10:34:25Z</time>
      </trkpt>
      <trkpt lat="44.42275" lon="2.43063">
        <ele>594.6</ele>
        <time>2011-01-09T10:34:26Z</time>
      </trkpt>
      <trkpt lat="44.42275" lon="2.43055">
        <ele>594.6</ele>
        <time>2011-01-09T10:34:27Z</time>
      </trkpt>
      <trkpt lat="44.42274" lon="2.43047">
        <ele>593.9</ele>
        <time>2011-01-09T10:34:28Z</time>
      </trkpt>
      <trkpt lat="44.42273" lon="2.4304">
        <ele>593.5</ele>
        <time>2011-01-09T10:34:29Z</time>
      </trkpt>
      <trkpt lat="44.42273" lon="2.43033">
        <ele>593.1</ele>
        <time>2011-01-09T10:34:30Z</time>
      </trkpt>
      <trkpt lat="44.42272" lon="2.43027">
        <ele>592.5</ele>
        <time>2011-01-09T10:34:31Z</time>
      </trkpt>
      <trkpt lat="44.42272" lon="2.43021">
        <ele>592</ele>
        <time>2011-01-09T10:34:32Z</time>
      </trkpt>
      <trkpt lat="44.42272" lon="2.43017">
        <ele>591.6</ele>
        <time>2011-01-09T10:34:33Z</time>
      </trkpt>
      <trkpt lat="44.42271" lon="2.43012">
        <ele>591.8</ele>
        <time>2011-01-09T10:34:35Z</time>
      </trkpt>
      <trkpt lat="44.42269" lon="2.43008">
        <ele>591.7</ele>
        <time>2011-01-09T10:34:37Z</time>
      </trkpt>
      <trkpt lat="44.42268" lon="2.43003">
        <ele>591.5</ele>
        <time>2011-01-09T10:34:39Z</time>
      </trkpt>
      <trkpt lat="44.42268" lon="2.43">
        <ele>591.4</ele>
        <time>2011-01-09T10:34:40Z</time>
      </trkpt>
      <trkpt lat="44.42267" lon="2.42996">
        <ele>591.3</ele>
        <time>2011-01-09T10:34:41Z</time>
      </trkpt>
      <trkpt lat="44.42266" lon="2.4299">
        <ele>591.3</ele>
        <time>2011-01-09T10:34:42Z</time>
      </trkpt>
      <trkpt lat="44.42265" lon="2.42984">
        <ele>591.2</ele>
        <time>2011-01-09T10:34:43Z</time>
      </trkpt>
      <trkpt lat="44.42263" lon="2.42978">
        <ele>590.6</ele>
        <time>2011-01-09T10:34:44Z</time>
      </trkpt>
      <trkpt lat="44.42261" lon="2.42972">
        <ele>590.2</ele>
        <time>2011-01-09T10:34:45Z</time>
      </trkpt>
      <trkpt lat="44.42261" lon="2.42966">
        <ele>589.8</ele>
        <time>2011-01-09T10:34:46Z</time>
      </trkpt>
      <trkpt lat="44.42261" lon="2.42961">
        <ele>589</ele>
        <time>2011-01-09T10:34:47Z</time>
      </trkpt>
      <trkpt lat="44.4226" lon="2.42957">
        <ele>588.4</ele>
        <time>2011-01-09T10:34:48Z</time>
      </trkpt>
      <trkpt lat="44.42259" lon="2.42953">
        <ele>587.9</ele>
        <time>2011-01-09T10:34:49Z</time>
      </trkpt>
      <trkpt lat="44.42261" lon="2.42948">
        <ele>586.2</ele>
        <time>2011-01-09T10:34:51Z</time>
      </trkpt>
      <trkpt lat="44.42265" lon="2.42948">
        <ele>584.5</ele>
        <time>2011-01-09T10:34:53Z</time>
      </trkpt>
      <trkpt lat="44.42267" lon="2.42951">
        <ele>582.9</ele>
        <time>2011-01-09T10:34:55Z</time>
      </trkpt>
      <trkpt lat="44.42269" lon="2.42953">
        <ele>582.5</ele>
        <time>2011-01-09T10:34:56Z</time>
      </trkpt>
      <trkpt lat="44.42271" lon="2.42957">
        <ele>582.2</ele>
        <time>2011-01-09T10:34:57Z</time>
      </trkpt>
      <trkpt lat="44.42273" lon="2.4296">
        <ele>582</ele>
        <time>2011-01-09T10:34:58Z</time>
      </trkpt>
      <trkpt lat="44.42275" lon="2.42964">
        <ele>581.8</ele>
        <time>2011-01-09T10:34:59Z</time>
      </trkpt>
      <trkpt lat="44.42277" lon="2.42968">
        <ele>581.7</ele>
        <time>2011-01-09T10:35:00Z</time>
      </trkpt>
      <trkpt lat="44.4228" lon="2.42971">
        <ele>581.7</ele>
        <time>2011-01-09T10:35:01Z</time>
      </trkpt>
      <trkpt lat="44.42282" lon="2.42976">
        <ele>581.6</ele>
        <time>2011-01-09T10:35:02Z</time>
      </trkpt>
      <trkpt lat="44.42284" lon="2.42979">
        <ele>580.6</ele>
        <time>2011-01-09T10:35:03Z</time>
      </trkpt>
      <trkpt lat="44.42286" lon="2.42982">
        <ele>579.8</ele>
        <time>2011-01-09T10:35:04Z</time>
      </trkpt>
      <trkpt lat="44.42287" lon="2.42986">
        <ele>579.2</ele>
        <time>2011-01-09T10:35:05Z</time>
      </trkpt>
      <trkpt lat="44.42289" lon="2.4299">
        <ele>578.8</ele>
        <time>2011-01-09T10:35:06Z</time>
      </trkpt>
      <trkpt lat="44.42291" lon="2.42995">
        <ele>578.4</ele>
        <time>2011-01-09T10:35:07Z</time>
      </trkpt>
      <trkpt lat="44.42295" lon="2.43">
        <ele>578.2</ele>
        <time>2011-01-09T10:35:08Z</time>
      </trkpt>
      <trkpt lat="44.42298" lon="2.43005">
        <ele>578.1</ele>
        <time>2011-01-09T10:35:09Z</time>
      </trkpt>
      <trkpt lat="44.42301" lon="2.4301">
        <ele>578</ele>
        <time>2011-01-09T10:35:10Z</time>
      </trkpt>
      <trkpt lat="44.42304" lon="2.43016">
        <ele>577.9</ele>
        <time>2011-01-09T10:35:11Z</time>
      </trkpt>
      <trkpt lat="44.42307" lon="2.43022">
        <ele>577.8</ele>
        <time>2011-01-09T10:35:12Z</time>
      </trkpt>
      <trkpt lat="44.4231" lon="2.4303">
        <ele>576.9</ele>
        <time>2011-01-09T10:35:13Z</time>
      </trkpt>
      <trkpt lat="44.42311" lon="2.43037">
        <ele>576.2</ele>
        <time>2011-01-09T10:35:14Z</time>
      </trkpt>
      <trkpt lat="44.42313" lon="2.43044">
        <ele>575.7</ele>
        <time>2011-01-09T10:35:15Z</time>
      </trkpt>
      <trkpt lat="44.42315" lon="2.43051">
        <ele>574.2</ele>
        <time>2011-01-09T10:35:16Z</time>
      </trkpt>
      <trkpt lat="44.42317" lon="2.43058">
        <ele>573.1</ele>
        <time>2011-01-09T10:35:17Z</time>
      </trkpt>
      <trkpt lat="44.42319" lon="2.43065">
        <ele>572.2</ele>
        <time>2011-01-09T10:35:18Z</time>
      </trkpt>
      <trkpt lat="44.42322" lon="2.43072">
        <ele>571.2</ele>
        <time>2011-01-09T10:35:19Z</time>
      </trkpt>
      <trkpt lat="44.42324" lon="2.4308">
        <ele>570.4</ele>
        <time>2011-01-09T10:35:20Z</time>
      </trkpt>
      <trkpt lat="44.42326" lon="2.43088">
        <ele>569.8</ele>
        <time>2011-01-09T10:35:21Z</time>
      </trkpt>
      <trkpt lat="44.42328" lon="2.43095">
        <ele>568.3</ele>
        <time>2011-01-09T10:35:22Z</time>
      </trkpt>
      <trkpt lat="44.4233" lon="2.43101">
        <ele>567.2</ele>
        <time>2011-01-09T10:35:23Z</time>
      </trkpt>
      <trkpt lat="44.42331" lon="2.43108">
        <ele>566.3</ele>
        <time>2011-01-09T10:35:24Z</time>
      </trkpt>
      <trkpt lat="44.42334" lon="2.43116">
        <ele>565.2</ele>
        <time>2011-01-09T10:35:25Z</time>
      </trkpt>
      <trkpt lat="44.42336" lon="2.43123">
        <ele>564.3</ele>
        <time>2011-01-09T10:35:26Z</time>
      </trkpt>
      <trkpt lat="44.42338" lon="2.43129">
        <ele>563.6</ele>
        <time>2011-01-09T10:35:27Z</time>
      </trkpt>
      <trkpt lat="44.4234" lon="2.43135">
        <ele>562.3</ele>
        <time>2011-01-09T10:35:28Z</time>
      </trkpt>
      <trkpt lat="44.42342" lon="2.4314">
        <ele>561.3</ele>
        <time>2011-01-09T10:35:29Z</time>
      </trkpt>
      <trkpt lat="44.42344" lon="2.43146">
        <ele>560.6</ele>
        <time>2011-01-09T10:35:30Z</time>
      </trkpt>
      <trkpt lat="44.42346" lon="2.43153">
        <ele>560</ele>
        <time>2011-01-09T10:35:31Z</time>
      </trkpt>
      <trkpt lat="44.42348" lon="2.43158">
        <ele>558.7</ele>
        <time>2011-01-09T10:35:32Z</time>
      </trkpt>
      <trkpt lat="44.4235" lon="2.43164">
        <ele>557.8</ele>
        <time>2011-01-09T10:35:33Z</time>
      </trkpt>
      <trkpt lat="44.42353" lon="2.43169">
        <ele>557.1</ele>
        <time>2011-01-09T10:35:34Z</time>
      </trkpt>
      <trkpt lat="44.42356" lon="2.43174">
        <ele>555.9</ele>
        <time>2011-01-09T10:35:35Z</time>
      </trkpt>
      <trkpt lat="44.42359" lon="2.43178">
        <ele>555</ele>
        <time>2011-01-09T10:35:36Z</time>
      </trkpt>
      <trkpt lat="44.42362" lon="2.43183">
        <ele>554.3</ele>
        <time>2011-01-09T10:35:37Z</time>
      </trkpt>
      <trkpt lat="44.42365" lon="2.43188">
        <ele>553.4</ele>
        <time>2011-01-09T10:35:38Z</time>
      </trkpt>
      <trkpt lat="44.42369" lon="2.43194">
        <ele>552.7</ele>
        <time>2011-01-09T10:35:39Z</time>
      </trkpt>
      <trkpt lat="44.42372" lon="2.432">
        <ele>552.2</ele>
        <time>2011-01-09T10:35:40Z</time>
      </trkpt>
      <trkpt lat="44.42375" lon="2.43207">
        <ele>551.2</ele>
        <time>2011-01-09T10:35:41Z</time>
      </trkpt>
      <trkpt lat="44.42378" lon="2.43213">
        <ele>550.4</ele>
        <time>2011-01-09T10:35:42Z</time>
      </trkpt>
      <trkpt lat="44.42381" lon="2.43218">
        <ele>549.8</ele>
        <time>2011-01-09T10:35:43Z</time>
      </trkpt>
      <trkpt lat="44.42384" lon="2.43223">
        <ele>548.4</ele>
        <time>2011-01-09T10:35:44Z</time>
      </trkpt>
      <trkpt lat="44.42387" lon="2.43229">
        <ele>547.4</ele>
        <time>2011-01-09T10:35:45Z</time>
      </trkpt>
      <trkpt lat="44.4239" lon="2.43235">
        <ele>546.6</ele>
        <time>2011-01-09T10:35:46Z</time>
      </trkpt>
      <trkpt lat="44.42393" lon="2.43242">
        <ele>546</ele>
        <time>2011-01-09T10:35:47Z</time>
      </trkpt>
      <trkpt lat="44.42396" lon="2.43247">
        <ele>544.3</ele>
        <time>2011-01-09T10:35:48Z</time>
      </trkpt>
      <trkpt lat="44.42399" lon="2.43252">
        <ele>543</ele>
        <time>2011-01-09T10:35:49Z</time>
      </trkpt>
      <trkpt lat="44.42402" lon="2.43257">
        <ele>542.1</ele>
        <time>2011-01-09T10:35:50Z</time>
      </trkpt>
      <trkpt lat="44.42405" lon="2.43262">
        <ele>540.7</ele>
        <time>2011-01-09T10:35:51Z</time>
      </trkpt>
      <trkpt lat="44.42407" lon="2.43267">
        <ele>539.7</ele>
        <time>2011-01-09T10:35:52Z</time>
      </trkpt>
      <trkpt lat="44.4241" lon="2.43272">
        <ele>538.9</ele>
        <time>2011-01-09T10:35:53Z</time>
      </trkpt>
      <trkpt lat="44.42412" lon="2.43277">
        <ele>537.5</ele>
        <time>2011-01-09T10:35:54Z</time>
      </trkpt>
      <trkpt lat="44.42415" lon="2.43282">
        <ele>536.4</ele>
        <time>2011-01-09T10:35:55Z</time>
      </trkpt>
      <trkpt lat="44.42419" lon="2.43288">
        <ele>535.6</ele>
        <time>2011-01-09T10:35:56Z</time>
      </trkpt>
      <trkpt lat="44.42422" lon="2.43294">
        <ele>534</ele>
        <time>2011-01-09T10:35:57Z</time>
      </trkpt>
      <trkpt lat="44.42425" lon="2.433">
        <ele>532.9</ele>
        <time>2011-01-09T10:35:58Z</time>
      </trkpt>
      <trkpt lat="44.42428" lon="2.43306">
        <ele>532</ele>
        <time>2011-01-09T10:35:59Z</time>
      </trkpt>
      <trkpt lat="44.42431" lon="2.43312">
        <ele>530.3</ele>
        <time>2011-01-09T10:36:00Z</time>
      </trkpt>
      <trkpt lat="44.42433" lon="2.43317">
        <ele>529.1</ele>
        <time>2011-01-09T10:36:01Z</time>
      </trkpt>
      <trkpt lat="44.42435" lon="2.43322">
        <ele>528.1</ele>
        <time>2011-01-09T10:36:02Z</time>
      </trkpt>
      <trkpt lat="44.42437" lon="2.43326">
        <ele>527.4</ele>
        <time>2011-01-09T10:36:03Z</time>
      </trkpt>
      <trkpt lat="44.42439" lon="2.43331">
        <ele>525.8</ele>
        <time>2011-01-09T10:36:04Z</time>
      </trkpt>
      <trkpt lat="44.42441" lon="2.43336">
        <ele>524.6</ele>
        <time>2011-01-09T10:36:05Z</time>
      </trkpt>
      <trkpt lat="44.4244" lon="2.43332">
        <ele>519.2</ele>
        <time>2011-01-09T10:36:18Z</time>
      </trkpt>
      <trkpt lat="44.42439" lon="2.43329">
        <ele>519</ele>
        <time>2011-01-09T10:36:19Z</time>
      </trkpt>
      <trkpt lat="44.42438" lon="2.43321">
        <ele>517.7</ele>
        <time>2011-01-09T10:36:22Z</time>
      </trkpt>
      <trkpt lat="44.42437" lon="2.43318">
        <ele>517.9</ele>
        <time>2011-01-09T10:36:23Z</time>
      </trkpt>
      <trkpt lat="44.42437" lon="2.43314">
        <ele>518</ele>
        <time>2011-01-09T10:36:24Z</time>
      </trkpt>
      <trkpt lat="44.42436" lon="2.4331">
        <ele>518.1</ele>
        <time>2011-01-09T10:36:25Z</time>
      </trkpt>
      <trkpt lat="44.42436" lon="2.43306">
        <ele>517.8</ele>
        <time>2011-01-09T10:36:26Z</time>
      </trkpt>
      <trkpt lat="44.42435" lon="2.43302">
        <ele>517.5</ele>
        <time>2011-01-09T10:36:27Z</time>
      </trkpt>
      <trkpt lat="44.42434" lon="2.43298">
        <ele>517.3</ele>
        <time>2011-01-09T10:36:28Z</time>
      </trkpt>
      <trkpt lat="44.42433" lon="2.43294">
        <ele>517</ele>
        <time>2011-01-09T10:36:29Z</time>
      </trkpt>
      <trkpt lat="44.42432" lon="2.43289">
        <ele>516.8</ele>
        <time>2011-01-09T10:36:30Z</time>
      </trkpt>
      <trkpt lat="44.42431" lon="2.43284">
        <ele>516.7</ele>
        <time>2011-01-09T10:36:31Z</time>
      </trkpt>
      <trkpt lat="44.4243" lon="2.4328">
        <ele>516.4</ele>
        <time>2011-01-09T10:36:32Z</time>
      </trkpt>
      <trkpt lat="44.42429" lon="2.43277">
        <ele>516.2</ele>
        <time>2011-01-09T10:36:33Z</time>
      </trkpt>
      <trkpt lat="44.42428" lon="2.43273">
        <ele>516</ele>
        <time>2011-01-09T10:36:34Z</time>
      </trkpt>
      <trkpt lat="44.42427" lon="2.43269">
        <ele>515.9</ele>
        <time>2011-01-09T10:36:35Z</time>
      </trkpt>
      <trkpt lat="44.42425" lon="2.43265">
        <ele>515.5</ele>
        <time>2011-01-09T10:36:36Z</time>
      </trkpt>
      <trkpt lat="44.42424" lon="2.43259">
        <ele>515.2</ele>
        <time>2011-01-09T10:36:37Z</time>
      </trkpt>
      <trkpt lat="44.42423" lon="2.43253">
        <ele>515</ele>
        <time>2011-01-09T10:36:38Z</time>
      </trkpt>
      <trkpt lat="44.42421" lon="2.43247">
        <ele>514</ele>
        <time>2011-01-09T10:36:39Z</time>
      </trkpt>
      <trkpt lat="44.4242" lon="2.4324">
        <ele>513.2</ele>
        <time>2011-01-09T10:36:40Z</time>
      </trkpt>
      <trkpt lat="44.42419" lon="2.43233">
        <ele>512.6</ele>
        <time>2011-01-09T10:36:41Z</time>
      </trkpt>
      <trkpt lat="44.42417" lon="2.43226">
        <ele>512.2</ele>
        <time>2011-01-09T10:36:42Z</time>
      </trkpt>
      <trkpt lat="44.42416" lon="2.4322">
        <ele>511.9</ele>
        <time>2011-01-09T10:36:43Z</time>
      </trkpt>
      <trkpt lat="44.42415" lon="2.43214">
        <ele>511.7</ele>
        <time>2011-01-09T10:36:44Z</time>
      </trkpt>
      <trkpt lat="44.42414" lon="2.43209">
        <ele>510.6</ele>
        <time>2011-01-09T10:36:45Z</time>
      </trkpt>
      <trkpt lat="44.42413" lon="2.43204">
        <ele>509.7</ele>
        <time>2011-01-09T10:36:46Z</time>
      </trkpt>
      <trkpt lat="44.42412" lon="2.43198">
        <ele>509.1</ele>
        <time>2011-01-09T10:36:47Z</time>
      </trkpt>
      <trkpt lat="44.42411" lon="2.43192">
        <ele>508.1</ele>
        <time>2011-01-09T10:36:48Z</time>
      </trkpt>
      <trkpt lat="44.42411" lon="2.43185">
        <ele>507.4</ele>
        <time>2011-01-09T10:36:49Z</time>
      </trkpt>
      <trkpt lat="44.4241" lon="2.43178">
        <ele>506.8</ele>
        <time>2011-01-09T10:36:50Z</time>
      </trkpt>
      <trkpt lat="44.42409" lon="2.4317">
        <ele>506.4</ele>
        <time>2011-01-09T10:36:51Z</time>
      </trkpt>
      <trkpt lat="44.42408" lon="2.43161">
        <ele>505.6</ele>
        <time>2011-01-09T10:36:52Z</time>
      </trkpt>
      <trkpt lat="44.42408" lon="2.43153">
        <ele>505.1</ele>
        <time>2011-01-09T10:36:53Z</time>
      </trkpt>
      <trkpt lat="44.42407" lon="2.43145">
        <ele>504.7</ele>
        <time>2011-01-09T10:36:54Z</time>
      </trkpt>
      <trkpt lat="44.42407" lon="2.43139">
        <ele>504.1</ele>
        <time>2011-01-09T10:36:55Z</time>
      </trkpt>
      <trkpt lat="44.42408" lon="2.43134">
        <ele>503.7</ele>
        <time>2011-01-09T10:36:56Z</time>
      </trkpt>
      <trkpt lat="44.42408" lon="2.43129">
        <ele>503.4</ele>
        <time>2011-01-09T10:36:57Z</time>
      </trkpt>
      <trkpt lat="44.42408" lon="2.43125">
        <ele>502.4</ele>
        <time>2011-01-09T10:36:58Z</time>
      </trkpt>
      <trkpt lat="44.42407" lon="2.43121">
        <ele>501.7</ele>
        <time>2011-01-09T10:36:59Z</time>
      </trkpt>
      <trkpt lat="44.42406" lon="2.43116">
        <ele>501.2</ele>
        <time>2011-01-09T10:37:00Z</time>
      </trkpt>
      <trkpt lat="44.42405" lon="2.43112">
        <ele>500.4</ele>
        <time>2011-01-09T10:37:01Z</time>
      </trkpt>
      <trkpt lat="44.42405" lon="2.43107">
        <ele>499.8</ele>
        <time>2011-01-09T10:37:02Z</time>
      </trkpt>
      <trkpt lat="44.42404" lon="2.43103">
        <ele>499.4</ele>
        <time>2011-01-09T10:37:03Z</time>
      </trkpt>
      <trkpt lat="44.42404" lon="2.43098">
        <ele>498.4</ele>
        <time>2011-01-09T10:37:04Z</time>
      </trkpt>
      <trkpt lat="44.42405" lon="2.43091">
        <ele>497.6</ele>
        <time>2011-01-09T10:37:05Z</time>
      </trkpt>
      <trkpt lat="44.42406" lon="2.43084">
        <ele>497.1</ele>
        <time>2011-01-09T10:37:06Z</time>
      </trkpt>
      <trkpt lat="44.42408" lon="2.43077">
        <ele>496.7</ele>
        <time>2011-01-09T10:37:07Z</time>
      </trkpt>
      <trkpt lat="44.4241" lon="2.43069">
        <ele>496.2</ele>
        <time>2011-01-09T10:37:08Z</time>
      </trkpt>
      <trkpt lat="44.42412" lon="2.43062">
        <ele>495.9</ele>
        <time>2011-01-09T10:37:09Z</time>
      </trkpt>
      <trkpt lat="44.42413" lon="2.43055">
        <ele>495.7</ele>
        <time>2011-01-09T10:37:10Z</time>
      </trkpt>
      <trkpt lat="44.42415" lon="2.43048">
        <ele>494.6</ele>
        <time>2011-01-09T10:37:11Z</time>
      </trkpt>
      <trkpt lat="44.42414" lon="2.43042">
        <ele>493.2</ele>
        <time>2011-01-09T10:37:13Z</time>
      </trkpt>
      <trkpt lat="44.42412" lon="2.43037">
        <ele>490.4</ele>
        <time>2011-01-09T10:37:18Z</time>
      </trkpt>
      <trkpt lat="44.4241" lon="2.43031">
        <ele>489.8</ele>
        <time>2011-01-09T10:37:27Z</time>
      </trkpt>
      <trkpt lat="44.4241" lon="2.43031">
        <ele>489.9</ele>
        <time>2011-01-09T10:37:28Z</time>
      </trkpt>
      <trkpt lat="44.42411" lon="2.43021">
        <ele>489.8</ele>
        <time>2011-01-09T10:37:36Z</time>
      </trkpt>
      <trkpt lat="44.42412" lon="2.43016">
        <ele>490.5</ele>
        <time>2011-01-09T10:37:38Z</time>
      </trkpt>
      <trkpt lat="44.42412" lon="2.43011">
        <ele>490.1</ele>
        <time>2011-01-09T10:37:40Z</time>
      </trkpt>
      <trkpt lat="44.42412" lon="2.43007">
        <ele>490</ele>
        <time>2011-01-09T10:37:41Z</time>
      </trkpt>
      <trkpt lat="44.42412" lon="2.43004">
        <ele>489.9</ele>
        <time>2011-01-09T10:37:42Z</time>
      </trkpt>
      <trkpt lat="44.42412" lon="2.43">
        <ele>489.5</ele>
        <time>2011-01-09T10:37:43Z</time>
      </trkpt>
      <trkpt lat="44.42411" lon="2.42996">
        <ele>489.2</ele>
        <time>2011-01-09T10:37:44Z</time>
      </trkpt>
      <trkpt lat="44.4241" lon="2.42992">
        <ele>488.9</ele>
        <time>2011-01-09T10:37:45Z</time>
      </trkpt>
      <trkpt lat="44.42409" lon="2.42988">
        <ele>488.9</ele>
        <time>2011-01-09T10:37:46Z</time>
      </trkpt>
      <trkpt lat="44.42407" lon="2.42985">
        <ele>488.8</ele>
        <time>2011-01-09T10:37:47Z</time>
      </trkpt>
      <trkpt lat="44.42406" lon="2.42981">
        <ele>488.8</ele>
        <time>2011-01-09T10:37:48Z</time>
      </trkpt>
      <trkpt lat="44.42404" lon="2.42978">
        <ele>488.4</ele>
        <time>2011-01-09T10:37:49Z</time>
      </trkpt>
      <trkpt lat="44.42402" lon="2.42976">
        <ele>488.1</ele>
        <time>2011-01-09T10:37:50Z</time>
      </trkpt>
      <trkpt lat="44.42401" lon="2.42973">
        <ele>487.9</ele>
        <time>2011-01-09T10:37:51Z</time>
      </trkpt>
      <trkpt lat="44.424" lon="2.4297">
        <ele>488.1</ele>
        <time>2011-01-09T10:37:52Z</time>
      </trkpt>
      <trkpt lat="44.42399" lon="2.42967">
        <ele>488.3</ele>
        <time>2011-01-09T10:37:53Z</time>
      </trkpt>
      <trkpt lat="44.42398" lon="2.42964">
        <ele>488.4</ele>
        <time>2011-01-09T10:37:54Z</time>
      </trkpt>
      <trkpt lat="44.42396" lon="2.4296">
        <ele>488.6</ele>
        <time>2011-01-09T10:37:55Z</time>
      </trkpt>
      <trkpt lat="44.42394" lon="2.42957">
        <ele>488.7</ele>
        <time>2011-01-09T10:37:56Z</time>
      </trkpt>
      <trkpt lat="44.42393" lon="2.42954">
        <ele>488.7</ele>
        <time>2011-01-09T10:37:57Z</time>
      </trkpt>
      <trkpt lat="44.42391" lon="2.4295">
        <ele>488.8</ele>
        <time>2011-01-09T10:37:58Z</time>
      </trkpt>
      <trkpt lat="44.42389" lon="2.42947">
        <ele>488.6</ele>
        <time>2011-01-09T10:37:59Z</time>
      </trkpt>
      <trkpt lat="44.42387" lon="2.42944">
        <ele>488.5</ele>
        <time>2011-01-09T10:38:00Z</time>
      </trkpt>
      <trkpt lat="44.42385" lon="2.42941">
        <ele>488.4</ele>
        <time>2011-01-09T10:38:01Z</time>
      </trkpt>
      <trkpt lat="44.42383" lon="2.42939">
        <ele>488.3</ele>
        <time>2011-01-09T10:38:02Z</time>
      </trkpt>
      <trkpt lat="44.42381" lon="2.42937">
        <ele>488.3</ele>
        <time>2011-01-09T10:38:03Z</time>
      </trkpt>
      <trkpt lat="44.42379" lon="2.42935">
        <ele>488.2</ele>
        <time>2011-01-09T10:38:04Z</time>
      </trkpt>
      <trkpt lat="44.42378" lon="2.42932">
        <ele>488.2</ele>
        <time>2011-01-09T10:38:05Z</time>
      </trkpt>
      <trkpt lat="44.42377" lon="2.42929">
        <ele>488.1</ele>
        <time>2011-01-09T10:38:06Z</time>
      </trkpt>
      <trkpt lat="44.42375" lon="2.42924">
        <ele>487.9</ele>
        <time>2011-01-09T10:38:08Z</time>
      </trkpt>
      <trkpt lat="44.42373" lon="2.42919">
        <ele>487.6</ele>
        <time>2011-01-09T10:38:10Z</time>
      </trkpt>
      <trkpt lat="44.42372" lon="2.42916">
        <ele>487.7</ele>
        <time>2011-01-09T10:38:11Z</time>
      </trkpt>
      <trkpt lat="44.4237" lon="2.42911">
        <ele>487.9</ele>
        <time>2011-01-09T10:38:13Z</time>
      </trkpt>
      <trkpt lat="44.42368" lon="2.42906">
        <ele>488.2</ele>
        <time>2011-01-09T10:38:15Z</time>
      </trkpt>
      <trkpt lat="44.42366" lon="2.42901">
        <ele>488.5</ele>
        <time>2011-01-09T10:38:17Z</time>
      </trkpt>
      <trkpt lat="44.42366" lon="2.42897">
        <ele>488.7</ele>
        <time>2011-01-09T10:38:19Z</time>
      </trkpt>
      <trkpt lat="44.42365" lon="2.42891">
        <ele>489.7</ele>
        <time>2011-01-09T10:38:22Z</time>
      </trkpt>
      <trkpt lat="44.42365" lon="2.42887">
        <ele>490.3</ele>
        <time>2011-01-09T10:38:24Z</time>
      </trkpt>
      <trkpt lat="44.42365" lon="2.42882">
        <ele>490.7</ele>
        <time>2011-01-09T10:38:26Z</time>
      </trkpt>
      <trkpt lat="44.42364" lon="2.42876">
        <ele>491.8</ele>
        <time>2011-01-09T10:38:29Z</time>
      </trkpt>
      <trkpt lat="44.42363" lon="2.42874">
        <ele>492.3</ele>
        <time>2011-01-09T10:38:30Z</time>
      </trkpt>
      <trkpt lat="44.42361" lon="2.42866">
        <ele>493</ele>
        <time>2011-01-09T10:38:33Z</time>
      </trkpt>
      <trkpt lat="44.42361" lon="2.42863">
        <ele>493.1</ele>
        <time>2011-01-09T10:38:34Z</time>
      </trkpt>
      <trkpt lat="44.4236" lon="2.42859">
        <ele>493.1</ele>
        <time>2011-01-09T10:38:35Z</time>
      </trkpt>
      <trkpt lat="44.42359" lon="2.42856">
        <ele>493.2</ele>
        <time>2011-01-09T10:38:36Z</time>
      </trkpt>
      <trkpt lat="44.42358" lon="2.42852">
        <ele>493</ele>
        <time>2011-01-09T10:38:37Z</time>
      </trkpt>
      <trkpt lat="44.42357" lon="2.42848">
        <ele>492.8</ele>
        <time>2011-01-09T10:38:38Z</time>
      </trkpt>
      <trkpt lat="44.42356" lon="2.42843">
        <ele>492.7</ele>
        <time>2011-01-09T10:38:39Z</time>
      </trkpt>
      <trkpt lat="44.42354" lon="2.42838">
        <ele>492.7</ele>
        <time>2011-01-09T10:38:40Z</time>
      </trkpt>
      <trkpt lat="44.42353" lon="2.42833">
        <ele>492.7</ele>
        <time>2011-01-09T10:38:41Z</time>
      </trkpt>
      <trkpt lat="44.42351" lon="2.42827">
        <ele>492.7</ele>
        <time>2011-01-09T10:38:42Z</time>
      </trkpt>
      <trkpt lat="44.42349" lon="2.42822">
        <ele>492.1</ele>
        <time>2011-01-09T10:38:43Z</time>
      </trkpt>
      <trkpt lat="44.42348" lon="2.42817">
        <ele>491.7</ele>
        <time>2011-01-09T10:38:44Z</time>
      </trkpt>
      <trkpt lat="44.42347" lon="2.42811">
        <ele>491.4</ele>
        <time>2011-01-09T10:38:45Z</time>
      </trkpt>
      <trkpt lat="44.42349" lon="2.42805">
        <ele>490.6</ele>
        <time>2011-01-09T10:38:46Z</time>
      </trkpt>
      <trkpt lat="44.42351" lon="2.428">
        <ele>490</ele>
        <time>2011-01-09T10:38:47Z</time>
      </trkpt>
      <trkpt lat="44.42355" lon="2.42796">
        <ele>489.6</ele>
        <time>2011-01-09T10:38:48Z</time>
      </trkpt>
      <trkpt lat="44.42358" lon="2.4279">
        <ele>489.3</ele>
        <time>2011-01-09T10:38:49Z</time>
      </trkpt>
      <trkpt lat="44.42359" lon="2.42785">
        <ele>488.1</ele>
        <time>2011-01-09T10:38:50Z</time>
      </trkpt>
      <trkpt lat="44.4236" lon="2.42779">
        <ele>487.2</ele>
        <time>2011-01-09T10:38:51Z</time>
      </trkpt>
      <trkpt lat="44.42359" lon="2.42773">
        <ele>486.6</ele>
        <time>2011-01-09T10:38:52Z</time>
      </trkpt>
      <trkpt lat="44.42356" lon="2.42768">
        <ele>485.2</ele>
        <time>2011-01-09T10:38:53Z</time>
      </trkpt>
      <trkpt lat="44.42353" lon="2.42764">
        <ele>484.1</ele>
        <time>2011-01-09T10:38:54Z</time>
      </trkpt>
      <trkpt lat="44.42349" lon="2.4276">
        <ele>483.3</ele>
        <time>2011-01-09T10:38:55Z</time>
      </trkpt>
      <trkpt lat="44.42344" lon="2.42757">
        <ele>481.4</ele>
        <time>2011-01-09T10:38:56Z</time>
      </trkpt>
      <trkpt lat="44.42339" lon="2.42757">
        <ele>480</ele>
        <time>2011-01-09T10:38:57Z</time>
      </trkpt>
      <trkpt lat="44.42334" lon="2.42758">
        <ele>478.9</ele>
        <time>2011-01-09T10:38:58Z</time>
      </trkpt>
      <trkpt lat="44.42329" lon="2.4276">
        <ele>477.5</ele>
        <time>2011-01-09T10:38:59Z</time>
      </trkpt>
      <trkpt lat="44.42324" lon="2.42761">
        <ele>476.4</ele>
        <time>2011-01-09T10:39:00Z</time>
      </trkpt>
      <trkpt lat="44.4232" lon="2.4276">
        <ele>475.6</ele>
        <time>2011-01-09T10:39:01Z</time>
      </trkpt>
      <trkpt lat="44.42316" lon="2.42758">
        <ele>474.3</ele>
        <time>2011-01-09T10:39:02Z</time>
      </trkpt>
      <trkpt lat="44.42314" lon="2.42755">
        <ele>473.3</ele>
        <time>2011-01-09T10:39:03Z</time>
      </trkpt>
      <trkpt lat="44.42313" lon="2.42753">
        <ele>472.5</ele>
        <time>2011-01-09T10:39:04Z</time>
      </trkpt>
      <trkpt lat="44.42311" lon="2.4275">
        <ele>471.9</ele>
        <time>2011-01-09T10:39:05Z</time>
      </trkpt>
      <trkpt lat="44.42309" lon="2.42747">
        <ele>471.7</ele>
        <time>2011-01-09T10:39:06Z</time>
      </trkpt>
      <trkpt lat="44.42306" lon="2.42744">
        <ele>471.6</ele>
        <time>2011-01-09T10:39:07Z</time>
      </trkpt>
      <trkpt lat="44.42305" lon="2.4274">
        <ele>471.5</ele>
        <time>2011-01-09T10:39:08Z</time>
      </trkpt>
      <trkpt lat="44.42304" lon="2.42737">
        <ele>471</ele>
        <time>2011-01-09T10:39:09Z</time>
      </trkpt>
      <trkpt lat="44.42302" lon="2.42733">
        <ele>470.7</ele>
        <time>2011-01-09T10:39:10Z</time>
      </trkpt>
      <trkpt lat="44.423" lon="2.4273">
        <ele>470.4</ele>
        <time>2011-01-09T10:39:11Z</time>
      </trkpt>
      <trkpt lat="44.42297" lon="2.42729">
        <ele>470.7</ele>
        <time>2011-01-09T10:39:12Z</time>
      </trkpt>
      <trkpt lat="44.42294" lon="2.42729">
        <ele>471</ele>
        <time>2011-01-09T10:39:13Z</time>
      </trkpt>
      <trkpt lat="44.4229" lon="2.4273">
        <ele>471.1</ele>
        <time>2011-01-09T10:39:14Z</time>
      </trkpt>
      <trkpt lat="44.42286" lon="2.4273">
        <ele>470.8</ele>
        <time>2011-01-09T10:39:15Z</time>
      </trkpt>
      <trkpt lat="44.42281" lon="2.42728">
        <ele>470.6</ele>
        <time>2011-01-09T10:39:16Z</time>
      </trkpt>
      <trkpt lat="44.42277" lon="2.42724">
        <ele>470.4</ele>
        <time>2011-01-09T10:39:17Z</time>
      </trkpt>
      <trkpt lat="44.42273" lon="2.42719">
        <ele>470</ele>
        <time>2011-01-09T10:39:18Z</time>
      </trkpt>
      <trkpt lat="44.42269" lon="2.42715">
        <ele>469.6</ele>
        <time>2011-01-09T10:39:19Z</time>
      </trkpt>
      <trkpt lat="44.42264" lon="2.4271">
        <ele>469.3</ele>
        <time>2011-01-09T10:39:20Z</time>
      </trkpt>
      <trkpt lat="44.42258" lon="2.42707">
        <ele>469.1</ele>
        <time>2011-01-09T10:39:21Z</time>
      </trkpt>
      <trkpt lat="44.42253" lon="2.42703">
        <ele>468.7</ele>
        <time>2011-01-09T10:39:22Z</time>
      </trkpt>
      <trkpt lat="44.42247" lon="2.42701">
        <ele>468.5</ele>
        <time>2011-01-09T10:39:23Z</time>
      </trkpt>
      <trkpt lat="44.42242" lon="2.427">
        <ele>468.3</ele>
        <time>2011-01-09T10:39:24Z</time>
      </trkpt>
      <trkpt lat="44.42237" lon="2.42699">
        <ele>467.2</ele>
        <time>2011-01-09T10:39:25Z</time>
      </trkpt>
      <trkpt lat="44.42232" lon="2.42699">
        <ele>466.3</ele>
        <time>2011-01-09T10:39:26Z</time>
      </trkpt>
      <trkpt lat="44.42227" lon="2.42698">
        <ele>465.7</ele>
        <time>2011-01-09T10:39:27Z</time>
      </trkpt>
      <trkpt lat="44.42222" lon="2.42696">
        <ele>464.6</ele>
        <time>2011-01-09T10:39:28Z</time>
      </trkpt>
      <trkpt lat="44.42217" lon="2.42695">
        <ele>463.7</ele>
        <time>2011-01-09T10:39:29Z</time>
      </trkpt>
      <trkpt lat="44.42211" lon="2.42694">
        <ele>463.1</ele>
        <time>2011-01-09T10:39:30Z</time>
      </trkpt>
      <trkpt lat="44.42206" lon="2.42696">
        <ele>462.2</ele>
        <time>2011-01-09T10:39:31Z</time>
      </trkpt>
      <trkpt lat="44.42201" lon="2.42698">
        <ele>461.5</ele>
        <time>2011-01-09T10:39:32Z</time>
      </trkpt>
      <trkpt lat="44.42195" lon="2.42699">
        <ele>461</ele>
        <time>2011-01-09T10:39:33Z</time>
      </trkpt>
      <trkpt lat="44.4219" lon="2.42699">
        <ele>459.8</ele>
        <time>2011-01-09T10:39:34Z</time>
      </trkpt>
      <trkpt lat="44.42184" lon="2.42698">
        <ele>458.9</ele>
        <time>2011-01-09T10:39:35Z</time>
      </trkpt>
      <trkpt lat="44.42178" lon="2.42699">
        <ele>458.3</ele>
        <time>2011-01-09T10:39:36Z</time>
      </trkpt>
      <trkpt lat="44.42173" lon="2.42701">
        <ele>456.7</ele>
        <time>2011-01-09T10:39:37Z</time>
      </trkpt>
      <trkpt lat="44.42167" lon="2.42703">
        <ele>455.5</ele>
        <time>2011-01-09T10:39:38Z</time>
      </trkpt>
      <trkpt lat="44.42162" lon="2.42707">
        <ele>454.6</ele>
        <time>2011-01-09T10:39:39Z</time>
      </trkpt>
      <trkpt lat="44.42156" lon="2.42708">
        <ele>453.9</ele>
        <time>2011-01-09T10:39:40Z</time>
      </trkpt>
      <trkpt lat="44.4215" lon="2.42708">
        <ele>453</ele>
        <time>2011-01-09T10:39:41Z</time>
      </trkpt>
      <trkpt lat="44.42145" lon="2.42708">
        <ele>452.4</ele>
        <time>2011-01-09T10:39:42Z</time>
      </trkpt>
      <trkpt lat="44.42143" lon="2.4271">
        <ele>451.8</ele>
        <time>2011-01-09T10:39:43Z</time>
      </trkpt>
      <trkpt lat="44.4214" lon="2.42715">
        <ele>446.8</ele>
        <time>2011-01-09T10:39:49Z</time>
      </trkpt>
      <trkpt lat="44.42137" lon="2.42715">
        <ele>443.8</ele>
        <time>2011-01-09T10:40:04Z</time>
      </trkpt>
      <trkpt lat="44.42135" lon="2.42715">
        <ele>443.9</ele>
        <time>2011-01-09T10:40:05Z</time>
      </trkpt>
      <trkpt lat="44.42132" lon="2.42714">
        <ele>443.2</ele>
        <time>2011-01-09T10:40:06Z</time>
      </trkpt>
      <trkpt lat="44.42128" lon="2.42714">
        <ele>442.7</ele>
        <time>2011-01-09T10:40:07Z</time>
      </trkpt>
      <trkpt lat="44.42122" lon="2.42714">
        <ele>442.3</ele>
        <time>2011-01-09T10:40:08Z</time>
      </trkpt>
      <trkpt lat="44.42116" lon="2.42712">
        <ele>439.6</ele>
        <time>2011-01-09T10:40:09Z</time>
      </trkpt>
      <trkpt lat="44.42113" lon="2.42711">
        <ele>437.6</ele>
        <time>2011-01-09T10:40:10Z</time>
      </trkpt>
      <trkpt lat="44.42109" lon="2.42708">
        <ele>429.7</ele>
        <time>2011-01-09T10:40:25Z</time>
      </trkpt>
      <trkpt lat="44.42107" lon="2.42704">
        <ele>429.4</ele>
        <time>2011-01-09T10:40:57Z</time>
      </trkpt>
      <trkpt lat="44.42106" lon="2.42701">
        <ele>429.3</ele>
        <time>2011-01-09T10:40:58Z</time>
      </trkpt>
      <trkpt lat="44.42105" lon="2.42697">
        <ele>429.2</ele>
        <time>2011-01-09T10:40:59Z</time>
      </trkpt>
      <trkpt lat="44.42104" lon="2.42693">
        <ele>428.8</ele>
        <time>2011-01-09T10:41:00Z</time>
      </trkpt>
      <trkpt lat="44.42103" lon="2.42688">
        <ele>428.5</ele>
        <time>2011-01-09T10:41:01Z</time>
      </trkpt>
      <trkpt lat="44.42102" lon="2.42682">
        <ele>428.3</ele>
        <time>2011-01-09T10:41:02Z</time>
      </trkpt>
      <trkpt lat="44.42101" lon="2.42677">
        <ele>428.1</ele>
        <time>2011-01-09T10:41:03Z</time>
      </trkpt>
      <trkpt lat="44.421" lon="2.42673">
        <ele>427.5</ele>
        <time>2011-01-09T10:41:04Z</time>
      </trkpt>
      <trkpt lat="44.42098" lon="2.42668">
        <ele>426.2</ele>
        <time>2011-01-09T10:41:07Z</time>
      </trkpt>
      <trkpt lat="44.42097" lon="2.42664">
        <ele>425.7</ele>
        <time>2011-01-09T10:41:09Z</time>
      </trkpt>
      <trkpt lat="44.42097" lon="2.42661">
        <ele>425.1</ele>
        <time>2011-01-09T10:41:10Z</time>
      </trkpt>
      <trkpt lat="44.42097" lon="2.42657">
        <ele>424.6</ele>
        <time>2011-01-09T10:41:11Z</time>
      </trkpt>
      <trkpt lat="44.42096" lon="2.42653">
        <ele>424.3</ele>
        <time>2011-01-09T10:41:12Z</time>
      </trkpt>
      <trkpt lat="44.42095" lon="2.42649">
        <ele>423.3</ele>
        <time>2011-01-09T10:41:13Z</time>
      </trkpt>
      <trkpt lat="44.42094" lon="2.42645">
        <ele>422.6</ele>
        <time>2011-01-09T10:41:14Z</time>
      </trkpt>
      <trkpt lat="44.42094" lon="2.42641">
        <ele>422</ele>
        <time>2011-01-09T10:41:15Z</time>
      </trkpt>
      <trkpt lat="44.42094" lon="2.42635">
        <ele>418</ele>
        <time>2011-01-09T10:41:24Z</time>
      </trkpt>
      <trkpt lat="44.42093" lon="2.42628">
        <ele>417</ele>
        <time>2011-01-09T10:41:46Z</time>
      </trkpt>
      <trkpt lat="44.42095" lon="2.42625">
        <ele>418</ele>
        <time>2011-01-09T10:42:25Z</time>
      </trkpt>
      <trkpt lat="44.42096" lon="2.42621">
        <ele>417.9</ele>
        <time>2011-01-09T10:42:26Z</time>
      </trkpt>
      <trkpt lat="44.42097" lon="2.42617">
        <ele>418.2</ele>
        <time>2011-01-09T10:42:27Z</time>
      </trkpt>
      <trkpt lat="44.42099" lon="2.42612">
        <ele>418.4</ele>
        <time>2011-01-09T10:42:28Z</time>
      </trkpt>
      <trkpt lat="44.42101" lon="2.42608">
        <ele>418.5</ele>
        <time>2011-01-09T10:42:29Z</time>
      </trkpt>
      <trkpt lat="44.42104" lon="2.42604">
        <ele>417.7</ele>
        <time>2011-01-09T10:42:30Z</time>
      </trkpt>
      <trkpt lat="44.42106" lon="2.42599">
        <ele>417.2</ele>
        <time>2011-01-09T10:42:31Z</time>
      </trkpt>
      <trkpt lat="44.42109" lon="2.42594">
        <ele>416.8</ele>
        <time>2011-01-09T10:42:32Z</time>
      </trkpt>
      <trkpt lat="44.42112" lon="2.42589">
        <ele>416.7</ele>
        <time>2011-01-09T10:42:33Z</time>
      </trkpt>
      <trkpt lat="44.42115" lon="2.42583">
        <ele>416.6</ele>
        <time>2011-01-09T10:42:34Z</time>
      </trkpt>
      <trkpt lat="44.42119" lon="2.42578">
        <ele>416.6</ele>
        <time>2011-01-09T10:42:35Z</time>
      </trkpt>
      <trkpt lat="44.42123" lon="2.42572">
        <ele>416.3</ele>
        <time>2011-01-09T10:42:36Z</time>
      </trkpt>
      <trkpt lat="44.42127" lon="2.42566">
        <ele>416.1</ele>
        <time>2011-01-09T10:42:37Z</time>
      </trkpt>
      <trkpt lat="44.42131" lon="2.4256">
        <ele>416</ele>
        <time>2011-01-09T10:42:38Z</time>
      </trkpt>
      <trkpt lat="44.42136" lon="2.42554">
        <ele>415.6</ele>
        <time>2011-01-09T10:42:39Z</time>
      </trkpt>
      <trkpt lat="44.4214" lon="2.42548">
        <ele>415.3</ele>
        <time>2011-01-09T10:42:40Z</time>
      </trkpt>
      <trkpt lat="44.42144" lon="2.42542">
        <ele>415.1</ele>
        <time>2011-01-09T10:42:41Z</time>
      </trkpt>
      <trkpt lat="44.42148" lon="2.42536">
        <ele>415</ele>
        <time>2011-01-09T10:42:42Z</time>
      </trkpt>
      <trkpt lat="44.42152" lon="2.42531">
        <ele>414.9</ele>
        <time>2011-01-09T10:42:43Z</time>
      </trkpt>
      <trkpt lat="44.42156" lon="2.42526">
        <ele>414.9</ele>
        <time>2011-01-09T10:42:44Z</time>
      </trkpt>
      <trkpt lat="44.4216" lon="2.42521">
        <ele>414.8</ele>
        <time>2011-01-09T10:42:45Z</time>
      </trkpt>
      <trkpt lat="44.42164" lon="2.42518">
        <ele>414.6</ele>
        <time>2011-01-09T10:42:46Z</time>
      </trkpt>
      <trkpt lat="44.42168" lon="2.42514">
        <ele>414.5</ele>
        <time>2011-01-09T10:42:47Z</time>
      </trkpt>
      <trkpt lat="44.42172" lon="2.42511">
        <ele>414.4</ele>
        <time>2011-01-09T10:42:48Z</time>
      </trkpt>
      <trkpt lat="44.42177" lon="2.42507">
        <ele>414.6</ele>
        <time>2011-01-09T10:42:49Z</time>
      </trkpt>
      <trkpt lat="44.42182" lon="2.42504">
        <ele>414.8</ele>
        <time>2011-01-09T10:42:50Z</time>
      </trkpt>
      <trkpt lat="44.42187" lon="2.42502">
        <ele>414.9</ele>
        <time>2011-01-09T10:42:51Z</time>
      </trkpt>
      <trkpt lat="44.42193" lon="2.42499">
        <ele>414.7</ele>
        <time>2011-01-09T10:42:52Z</time>
      </trkpt>
      <trkpt lat="44.42198" lon="2.42496">
        <ele>414.5</ele>
        <time>2011-01-09T10:42:53Z</time>
      </trkpt>
      <trkpt lat="44.42204" lon="2.42493">
        <ele>414.3</ele>
        <time>2011-01-09T10:42:54Z</time>
      </trkpt>
      <trkpt lat="44.4221" lon="2.42491">
        <ele>414.6</ele>
        <time>2011-01-09T10:42:55Z</time>
      </trkpt>
      <trkpt lat="44.42215" lon="2.42488">
        <ele>414.7</ele>
        <time>2011-01-09T10:42:56Z</time>
      </trkpt>
      <trkpt lat="44.4222" lon="2.42485">
        <ele>414.9</ele>
        <time>2011-01-09T10:42:57Z</time>
      </trkpt>
      <trkpt lat="44.42225" lon="2.42482">
        <ele>415</ele>
        <time>2011-01-09T10:42:58Z</time>
      </trkpt>
      <trkpt lat="44.4223" lon="2.4248">
        <ele>415.1</ele>
        <time>2011-01-09T10:42:59Z</time>
      </trkpt>
      <trkpt lat="44.42235" lon="2.42477">
        <ele>415.3</ele>
        <time>2011-01-09T10:43:00Z</time>
      </trkpt>
      <trkpt lat="44.4224" lon="2.42474">
        <ele>415.4</ele>
        <time>2011-01-09T10:43:01Z</time>
      </trkpt>
      <trkpt lat="44.42245" lon="2.42471">
        <ele>415</ele>
        <time>2011-01-09T10:43:02Z</time>
      </trkpt>
      <trkpt lat="44.42251" lon="2.42468">
        <ele>414.8</ele>
        <time>2011-01-09T10:43:03Z</time>
      </trkpt>
      <trkpt lat="44.42255" lon="2.42464">
        <ele>414.6</ele>
        <time>2011-01-09T10:43:04Z</time>
      </trkpt>
      <trkpt lat="44.42259" lon="2.42461">
        <ele>414.5</ele>
        <time>2011-01-09T10:43:05Z</time>
      </trkpt>
      <trkpt lat="44.42263" lon="2.42457">
        <ele>414.5</ele>
        <time>2011-01-09T10:43:06Z</time>
      </trkpt>
      <trkpt lat="44.42266" lon="2.42453">
        <ele>414.5</ele>
        <time>2011-01-09T10:43:07Z</time>
      </trkpt>
      <trkpt lat="44.4227" lon="2.4245">
        <ele>414.9</ele>
        <time>2011-01-09T10:43:08Z</time>
      </trkpt>
      <trkpt lat="44.42273" lon="2.42448">
        <ele>415.1</ele>
        <time>2011-01-09T10:43:09Z</time>
      </trkpt>
      <trkpt lat="44.42277" lon="2.42446">
        <ele>415.3</ele>
        <time>2011-01-09T10:43:10Z</time>
      </trkpt>
      <trkpt lat="44.42281" lon="2.42445">
        <ele>415.2</ele>
        <time>2011-01-09T10:43:11Z</time>
      </trkpt>
      <trkpt lat="44.42285" lon="2.42444">
        <ele>415.1</ele>
        <time>2011-01-09T10:43:12Z</time>
      </trkpt>
      <trkpt lat="44.42289" lon="2.42444">
        <ele>415.1</ele>
        <time>2011-01-09T10:43:13Z</time>
      </trkpt>
      <trkpt lat="44.42293" lon="2.42445">
        <ele>415</ele>
        <time>2011-01-09T10:43:14Z</time>
      </trkpt>
      <trkpt lat="44.42297" lon="2.42445">
        <ele>415.2</ele>
        <time>2011-01-09T10:43:15Z</time>
      </trkpt>
      <trkpt lat="44.42302" lon="2.42446">
        <ele>415.3</ele>
        <time>2011-01-09T10:43:16Z</time>
      </trkpt>
      <trkpt lat="44.42306" lon="2.42448">
        <ele>415.4</ele>
        <time>2011-01-09T10:43:17Z</time>
      </trkpt>
      <trkpt lat="44.4231" lon="2.42449">
        <ele>415.1</ele>
        <time>2011-01-09T10:43:18Z</time>
      </trkpt>
      <trkpt lat="44.42314" lon="2.42451">
        <ele>414.9</ele>
        <time>2011-01-09T10:43:19Z</time>
      </trkpt>
      <trkpt lat="44.42318" lon="2.42453">
        <ele>414.8</ele>
        <time>2011-01-09T10:43:20Z</time>
      </trkpt>
      <trkpt lat="44.42322" lon="2.42455">
        <ele>414.7</ele>
        <time>2011-01-09T10:43:21Z</time>
      </trkpt>
      <trkpt lat="44.42326" lon="2.42457">
        <ele>414.6</ele>
        <time>2011-01-09T10:43:22Z</time>
      </trkpt>
      <trkpt lat="44.42331" lon="2.42458">
        <ele>414.6</ele>
        <time>2011-01-09T10:43:23Z</time>
      </trkpt>
      <trkpt lat="44.42335" lon="2.4246">
        <ele>414.7</ele>
        <time>2011-01-09T10:43:24Z</time>
      </trkpt>
      <trkpt lat="44.42339" lon="2.42461">
        <ele>414.8</ele>
        <time>2011-01-09T10:43:25Z</time>
      </trkpt>
      <trkpt lat="44.42343" lon="2.42462">
        <ele>414.9</ele>
        <time>2011-01-09T10:43:26Z</time>
      </trkpt>
      <trkpt lat="44.42348" lon="2.42463">
        <ele>414.8</ele>
        <time>2011-01-09T10:43:27Z</time>
      </trkpt>
      <trkpt lat="44.42353" lon="2.42463">
        <ele>414.8</ele>
        <time>2011-01-09T10:43:28Z</time>
      </trkpt>
      <trkpt lat="44.42358" lon="2.42464">
        <ele>414.8</ele>
        <time>2011-01-09T10:43:29Z</time>
      </trkpt>
      <trkpt lat="44.42363" lon="2.42464">
        <ele>414.7</ele>
        <time>2011-01-09T10:43:30Z</time>
      </trkpt>
      <trkpt lat="44.42368" lon="2.42465">
        <ele>414.8</ele>
        <time>2011-01-09T10:43:31Z</time>
      </trkpt>
      <trkpt lat="44.42374" lon="2.42466">
        <ele>414.8</ele>
        <time>2011-01-09T10:43:32Z</time>
      </trkpt>
      <trkpt lat="44.4238" lon="2.42467">
        <ele>414.9</ele>
        <time>2011-01-09T10:43:33Z</time>
      </trkpt>
      <trkpt lat="44.42385" lon="2.4247">
        <ele>414.6</ele>
        <time>2011-01-09T10:43:34Z</time>
      </trkpt>
      <trkpt lat="44.42391" lon="2.42473">
        <ele>414.5</ele>
        <time>2011-01-09T10:43:35Z</time>
      </trkpt>
      <trkpt lat="44.42396" lon="2.42476">
        <ele>414.3</ele>
        <time>2011-01-09T10:43:36Z</time>
      </trkpt>
      <trkpt lat="44.42402" lon="2.4248">
        <ele>413.9</ele>
        <time>2011-01-09T10:43:37Z</time>
      </trkpt>
      <trkpt lat="44.42407" lon="2.42485">
        <ele>413.5</ele>
        <time>2011-01-09T10:43:38Z</time>
      </trkpt>
      <trkpt lat="44.42412" lon="2.42489">
        <ele>413.3</ele>
        <time>2011-01-09T10:43:39Z</time>
      </trkpt>
      <trkpt lat="44.42417" lon="2.42494">
        <ele>412.8</ele>
        <time>2011-01-09T10:43:40Z</time>
      </trkpt>
      <trkpt lat="44.42423" lon="2.42498">
        <ele>412.5</ele>
        <time>2011-01-09T10:43:41Z</time>
      </trkpt>
      <trkpt lat="44.42429" lon="2.42501">
        <ele>412.3</ele>
        <time>2011-01-09T10:43:42Z</time>
      </trkpt>
      <trkpt lat="44.42435" lon="2.42504">
        <ele>412.5</ele>
        <time>2011-01-09T10:43:43Z</time>
      </trkpt>
      <trkpt lat="44.42441" lon="2.42506">
        <ele>412.6</ele>
        <time>2011-01-09T10:43:44Z</time>
      </trkpt>
      <trkpt lat="44.42446" lon="2.42508">
        <ele>412.8</ele>
        <time>2011-01-09T10:43:45Z</time>
      </trkpt>
      <trkpt lat="44.42451" lon="2.42511">
        <ele>412</ele>
        <time>2011-01-09T10:43:46Z</time>
      </trkpt>
      <trkpt lat="44.42456" lon="2.42515">
        <ele>411.5</ele>
        <time>2011-01-09T10:43:47Z</time>
      </trkpt>
      <trkpt lat="44.42459" lon="2.42521">
        <ele>411.1</ele>
        <time>2011-01-09T10:43:48Z</time>
      </trkpt>
      <trkpt lat="44.42461" lon="2.42529">
        <ele>410.8</ele>
        <time>2011-01-09T10:43:49Z</time>
      </trkpt>
      <trkpt lat="44.42461" lon="2.42537">
        <ele>410.6</ele>
        <time>2011-01-09T10:43:50Z</time>
      </trkpt>
      <trkpt lat="44.42461" lon="2.42545">
        <ele>410.4</ele>
        <time>2011-01-09T10:43:51Z</time>
      </trkpt>
      <trkpt lat="44.4246" lon="2.42553">
        <ele>410.3</ele>
        <time>2011-01-09T10:43:52Z</time>
      </trkpt>
      <trkpt lat="44.4246" lon="2.42561">
        <ele>410.6</ele>
        <time>2011-01-09T10:43:53Z</time>
      </trkpt>
      <trkpt lat="44.42459" lon="2.42568">
        <ele>410.8</ele>
        <time>2011-01-09T10:43:54Z</time>
      </trkpt>
      <trkpt lat="44.4246" lon="2.42575">
        <ele>411</ele>
        <time>2011-01-09T10:43:55Z</time>
      </trkpt>
      <trkpt lat="44.42462" lon="2.42579">
        <ele>410.8</ele>
        <time>2011-01-09T10:43:56Z</time>
      </trkpt>
      <trkpt lat="44.42465" lon="2.4258">
        <ele>410.7</ele>
        <time>2011-01-09T10:43:57Z</time>
      </trkpt>
      <trkpt lat="44.42468" lon="2.42577">
        <ele>410.6</ele>
        <time>2011-01-09T10:43:58Z</time>
      </trkpt>
      <trkpt lat="44.4247" lon="2.42572">
        <ele>410</ele>
        <time>2011-01-09T10:43:59Z</time>
      </trkpt>
      <trkpt lat="44.42472" lon="2.42565">
        <ele>409.6</ele>
        <time>2011-01-09T10:44:00Z</time>
      </trkpt>
      <trkpt lat="44.42474" lon="2.42557">
        <ele>409.3</ele>
        <time>2011-01-09T10:44:01Z</time>
      </trkpt>
      <trkpt lat="44.42475" lon="2.42549">
        <ele>408.8</ele>
        <time>2011-01-09T10:44:02Z</time>
      </trkpt>
      <trkpt lat="44.42477" lon="2.4254">
        <ele>408.4</ele>
        <time>2011-01-09T10:44:03Z</time>
      </trkpt>
      <trkpt lat="44.42478" lon="2.42531">
        <ele>408.1</ele>
        <time>2011-01-09T10:44:04Z</time>
      </trkpt>
      <trkpt lat="44.42479" lon="2.42521">
        <ele>407.8</ele>
        <time>2011-01-09T10:44:05Z</time>
      </trkpt>
      <trkpt lat="44.42479" lon="2.42511">
        <ele>407.5</ele>
        <time>2011-01-09T10:44:06Z</time>
      </trkpt>
      <trkpt lat="44.42477" lon="2.42501">
        <ele>407.3</ele>
        <time>2011-01-09T10:44:07Z</time>
      </trkpt>
      <trkpt lat="44.42473" lon="2.42492">
        <ele>407.1</ele>
        <time>2011-01-09T10:44:08Z</time>
      </trkpt>
      <trkpt lat="44.42468" lon="2.42484">
        <ele>406.6</ele>
        <time>2011-01-09T10:44:09Z</time>
      </trkpt>
      <trkpt lat="44.42461" lon="2.42478">
        <ele>406.2</ele>
        <time>2011-01-09T10:44:10Z</time>
      </trkpt>
      <trkpt lat="44.42454" lon="2.42472">
        <ele>406</ele>
        <time>2011-01-09T10:44:11Z</time>
      </trkpt>
      <trkpt lat="44.42448" lon="2.42468">
        <ele>404.7</ele>
        <time>2011-01-09T10:44:12Z</time>
      </trkpt>
      <trkpt lat="44.42442" lon="2.42462">
        <ele>403.7</ele>
        <time>2011-01-09T10:44:13Z</time>
      </trkpt>
      <trkpt lat="44.42437" lon="2.42454">
        <ele>403</ele>
        <time>2011-01-09T10:44:14Z</time>
      </trkpt>
      <trkpt lat="44.42434" lon="2.42444">
        <ele>402</ele>
        <time>2011-01-09T10:44:15Z</time>
      </trkpt>
      <trkpt lat="44.42431" lon="2.42433">
        <ele>401.3</ele>
        <time>2011-01-09T10:44:16Z</time>
      </trkpt>
      <trkpt lat="44.4243" lon="2.42422">
        <ele>400.8</ele>
        <time>2011-01-09T10:44:17Z</time>
      </trkpt>
      <trkpt lat="44.42431" lon="2.4241">
        <ele>399.8</ele>
        <time>2011-01-09T10:44:18Z</time>
      </trkpt>
      <trkpt lat="44.42431" lon="2.42397">
        <ele>399</ele>
        <time>2011-01-09T10:44:19Z</time>
      </trkpt>
      <trkpt lat="44.42431" lon="2.42385">
        <ele>398.4</ele>
        <time>2011-01-09T10:44:20Z</time>
      </trkpt>
      <trkpt lat="44.42431" lon="2.42373">
        <ele>398</ele>
        <time>2011-01-09T10:44:21Z</time>
      </trkpt>
      <trkpt lat="44.42431" lon="2.4236">
        <ele>397.3</ele>
        <time>2011-01-09T10:44:22Z</time>
      </trkpt>
      <trkpt lat="44.4243" lon="2.42348">
        <ele>396.8</ele>
        <time>2011-01-09T10:44:23Z</time>
      </trkpt>
      <trkpt lat="44.42428" lon="2.42335">
        <ele>396.5</ele>
        <time>2011-01-09T10:44:24Z</time>
      </trkpt>
      <trkpt lat="44.42425" lon="2.42322">
        <ele>395.6</ele>
        <time>2011-01-09T10:44:25Z</time>
      </trkpt>
      <trkpt lat="44.42421" lon="2.4231">
        <ele>394.9</ele>
        <time>2011-01-09T10:44:26Z</time>
      </trkpt>
      <trkpt lat="44.42417" lon="2.42299">
        <ele>394.4</ele>
        <time>2011-01-09T10:44:27Z</time>
      </trkpt>
      <trkpt lat="44.42413" lon="2.42287">
        <ele>393.1</ele>
        <time>2011-01-09T10:44:28Z</time>
      </trkpt>
      <trkpt lat="44.42408" lon="2.42275">
        <ele>392.1</ele>
        <time>2011-01-09T10:44:29Z</time>
      </trkpt>
      <trkpt lat="44.42404" lon="2.42263">
        <ele>391.4</ele>
        <time>2011-01-09T10:44:30Z</time>
      </trkpt>
      <trkpt lat="44.42399" lon="2.42251">
        <ele>390.5</ele>
        <time>2011-01-09T10:44:31Z</time>
      </trkpt>
      <trkpt lat="44.42394" lon="2.4224">
        <ele>389.8</ele>
        <time>2011-01-09T10:44:32Z</time>
      </trkpt>
      <trkpt lat="44.4239" lon="2.42229">
        <ele>389.2</ele>
        <time>2011-01-09T10:44:33Z</time>
      </trkpt>
      <trkpt lat="44.42385" lon="2.42217">
        <ele>388.3</ele>
        <time>2011-01-09T10:44:34Z</time>
      </trkpt>
      <trkpt lat="44.42381" lon="2.42205">
        <ele>387.5</ele>
        <time>2011-01-09T10:44:35Z</time>
      </trkpt>
      <trkpt lat="44.42377" lon="2.42193">
        <ele>387</ele>
        <time>2011-01-09T10:44:36Z</time>
      </trkpt>
      <trkpt lat="44.42374" lon="2.4218">
        <ele>386.6</ele>
        <time>2011-01-09T10:44:37Z</time>
      </trkpt>
      <trkpt lat="44.42372" lon="2.42167">
        <ele>385.6</ele>
        <time>2011-01-09T10:44:38Z</time>
      </trkpt>
      <trkpt lat="44.4237" lon="2.42153">
        <ele>384.9</ele>
        <time>2011-01-09T10:44:39Z</time>
      </trkpt>
      <trkpt lat="44.42369" lon="2.42139">
        <ele>384.4</ele>
        <time>2011-01-09T10:44:40Z</time>
      </trkpt>
      <trkpt lat="44.42368" lon="2.42125">
        <ele>383.1</ele>
        <time>2011-01-09T10:44:41Z</time>
      </trkpt>
      <trkpt lat="44.42368" lon="2.42111">
        <ele>382.2</ele>
        <time>2011-01-09T10:44:42Z</time>
      </trkpt>
      <trkpt lat="44.42369" lon="2.42097">
        <ele>381.5</ele>
        <time>2011-01-09T10:44:43Z</time>
      </trkpt>
      <trkpt lat="44.4237" lon="2.42083">
        <ele>380.2</ele>
        <time>2011-01-09T10:44:44Z</time>
      </trkpt>
      <trkpt lat="44.42371" lon="2.42068">
        <ele>379.2</ele>
        <time>2011-01-09T10:44:45Z</time>
      </trkpt>
      <trkpt lat="44.42373" lon="2.42054">
        <ele>378.4</ele>
        <time>2011-01-09T10:44:46Z</time>
      </trkpt>
      <trkpt lat="44.42374" lon="2.42039">
        <ele>377.7</ele>
        <time>2011-01-09T10:44:47Z</time>
      </trkpt>
      <trkpt lat="44.42376" lon="2.42024">
        <ele>377.1</ele>
        <time>2011-01-09T10:44:48Z</time>
      </trkpt>
      <trkpt lat="44.42378" lon="2.42009">
        <ele>376.7</ele>
        <time>2011-01-09T10:44:49Z</time>
      </trkpt>
      <trkpt lat="44.42379" lon="2.41994">
        <ele>375.7</ele>
        <time>2011-01-09T10:44:50Z</time>
      </trkpt>
      <trkpt lat="44.42381" lon="2.41979">
        <ele>375</ele>
        <time>2011-01-09T10:44:51Z</time>
      </trkpt>
      <trkpt lat="44.42382" lon="2.41963">
        <ele>374.4</ele>
        <time>2011-01-09T10:44:52Z</time>
      </trkpt>
      <trkpt lat="44.42384" lon="2.41948">
        <ele>374</ele>
        <time>2011-01-09T10:44:53Z</time>
      </trkpt>
      <trkpt lat="44.42386" lon="2.41932">
        <ele>372.9</ele>
        <time>2011-01-09T10:44:54Z</time>
      </trkpt>
      <trkpt lat="44.42388" lon="2.41917">
        <ele>372.1</ele>
        <time>2011-01-09T10:44:55Z</time>
      </trkpt>
      <trkpt lat="44.42389" lon="2.41901">
        <ele>371.6</ele>
        <time>2011-01-09T10:44:56Z</time>
      </trkpt>
      <trkpt lat="44.42391" lon="2.41885">
        <ele>370.4</ele>
        <time>2011-01-09T10:44:57Z</time>
      </trkpt>
      <trkpt lat="44.42393" lon="2.41869">
        <ele>369.6</ele>
        <time>2011-01-09T10:44:58Z</time>
      </trkpt>
      <trkpt lat="44.42395" lon="2.41853">
        <ele>368.9</ele>
        <time>2011-01-09T10:44:59Z</time>
      </trkpt>
      <trkpt lat="44.42397" lon="2.41837">
        <ele>367.8</ele>
        <time>2011-01-09T10:45:00Z</time>
      </trkpt>
      <trkpt lat="44.42398" lon="2.41821">
        <ele>366.9</ele>
        <time>2011-01-09T10:45:01Z</time>
      </trkpt>
      <trkpt lat="44.424" lon="2.41805">
        <ele>366.3</ele>
        <time>2011-01-09T10:45:02Z</time>
      </trkpt>
      <trkpt lat="44.42403" lon="2.4179">
        <ele>365.2</ele>
        <time>2011-01-09T10:45:03Z</time>
      </trkpt>
      <trkpt lat="44.42406" lon="2.41775">
        <ele>364.5</ele>
        <time>2011-01-09T10:45:04Z</time>
      </trkpt>
      <trkpt lat="44.4241" lon="2.41761">
        <ele>363.9</ele>
        <time>2011-01-09T10:45:05Z</time>
      </trkpt>
      <trkpt lat="44.42415" lon="2.41748">
        <ele>362.6</ele>
        <time>2011-01-09T10:45:06Z</time>
      </trkpt>
      <trkpt lat="44.42421" lon="2.41735">
        <ele>361.7</ele>
        <time>2011-01-09T10:45:07Z</time>
      </trkpt>
      <trkpt lat="44.42427" lon="2.41724">
        <ele>361</ele>
        <time>2011-01-09T10:45:08Z</time>
      </trkpt>
      <trkpt lat="44.42434" lon="2.41714">
        <ele>360.4</ele>
        <time>2011-01-09T10:45:09Z</time>
      </trkpt>
      <trkpt lat="44.42441" lon="2.41704">
        <ele>359.8</ele>
        <time>2011-01-09T10:45:10Z</time>
      </trkpt>
      <trkpt lat="44.42449" lon="2.41695">
        <ele>359.3</ele>
        <time>2011-01-09T10:45:11Z</time>
      </trkpt>
      <trkpt lat="44.42456" lon="2.41687">
        <ele>359</ele>
        <time>2011-01-09T10:45:12Z</time>
      </trkpt>
      <trkpt lat="44.42464" lon="2.41678">
        <ele>358.5</ele>
        <time>2011-01-09T10:45:13Z</time>
      </trkpt>
      <trkpt lat="44.42471" lon="2.4167">
        <ele>358.1</ele>
        <time>2011-01-09T10:45:14Z</time>
      </trkpt>
      <trkpt lat="44.42478" lon="2.41661">
        <ele>357.8</ele>
        <time>2011-01-09T10:45:15Z</time>
      </trkpt>
      <trkpt lat="44.42485" lon="2.41652">
        <ele>357.2</ele>
        <time>2011-01-09T10:45:16Z</time>
      </trkpt>
      <trkpt lat="44.42492" lon="2.41642">
        <ele>356.7</ele>
        <time>2011-01-09T10:45:17Z</time>
      </trkpt>
      <trkpt lat="44.42499" lon="2.41632">
        <ele>356.4</ele>
        <time>2011-01-09T10:45:18Z</time>
      </trkpt>
      <trkpt lat="44.42506" lon="2.41621">
        <ele>355.6</ele>
        <time>2011-01-09T10:45:19Z</time>
      </trkpt>
      <trkpt lat="44.42512" lon="2.41609">
        <ele>355</ele>
        <time>2011-01-09T10:45:20Z</time>
      </trkpt>
      <trkpt lat="44.42518" lon="2.41598">
        <ele>354.6</ele>
        <time>2011-01-09T10:45:21Z</time>
      </trkpt>
      <trkpt lat="44.42524" lon="2.41586">
        <ele>353.5</ele>
        <time>2011-01-09T10:45:22Z</time>
      </trkpt>
      <trkpt lat="44.4253" lon="2.41573">
        <ele>352.8</ele>
        <time>2011-01-09T10:45:23Z</time>
      </trkpt>
      <trkpt lat="44.42536" lon="2.41561">
        <ele>352.2</ele>
        <time>2011-01-09T10:45:24Z</time>
      </trkpt>
      <trkpt lat="44.42542" lon="2.41548">
        <ele>351.3</ele>
        <time>2011-01-09T10:45:25Z</time>
      </trkpt>
      <trkpt lat="44.42548" lon="2.41535">
        <ele>350.7</ele>
        <time>2011-01-09T10:45:26Z</time>
      </trkpt>
      <trkpt lat="44.42554" lon="2.41522">
        <ele>350.2</ele>
        <time>2011-01-09T10:45:27Z</time>
      </trkpt>
      <trkpt lat="44.42561" lon="2.41509">
        <ele>349.8</ele>
        <time>2011-01-09T10:45:28Z</time>
      </trkpt>
      <trkpt lat="44.42567" lon="2.41496">
        <ele>348.9</ele>
        <time>2011-01-09T10:45:29Z</time>
      </trkpt>
      <trkpt lat="44.42573" lon="2.41483">
        <ele>348.3</ele>
        <time>2011-01-09T10:45:30Z</time>
      </trkpt>
      <trkpt lat="44.42579" lon="2.41469">
        <ele>347.8</ele>
        <time>2011-01-09T10:45:31Z</time>
      </trkpt>
      <trkpt lat="44.42584" lon="2.41455">
        <ele>346.7</ele>
        <time>2011-01-09T10:45:32Z</time>
      </trkpt>
      <trkpt lat="44.42589" lon="2.41441">
        <ele>346</ele>
        <time>2011-01-09T10:45:33Z</time>
      </trkpt>
      <trkpt lat="44.42593" lon="2.41427">
        <ele>345.4</ele>
        <time>2011-01-09T10:45:34Z</time>
      </trkpt>
      <trkpt lat="44.42597" lon="2.41413">
        <ele>344.1</ele>
        <time>2011-01-09T10:45:35Z</time>
      </trkpt>
      <trkpt lat="44.42601" lon="2.41399">
        <ele>343.2</ele>
        <time>2011-01-09T10:45:36Z</time>
      </trkpt>
      <trkpt lat="44.42605" lon="2.41385">
        <ele>342.4</ele>
        <time>2011-01-09T10:45:37Z</time>
      </trkpt>
      <trkpt lat="44.42609" lon="2.41371">
        <ele>341.8</ele>
        <time>2011-01-09T10:45:38Z</time>
      </trkpt>
      <trkpt lat="44.42613" lon="2.41358">
        <ele>341.3</ele>
        <time>2011-01-09T10:45:39Z</time>
      </trkpt>
      <trkpt lat="44.42616" lon="2.41347">
        <ele>340.9</ele>
        <time>2011-01-09T10:45:40Z</time>
      </trkpt>
      <trkpt lat="44.42619" lon="2.41338">
        <ele>340</ele>
        <time>2011-01-09T10:45:41Z</time>
      </trkpt>
      <trkpt lat="44.42622" lon="2.41331">
        <ele>339.3</ele>
        <time>2011-01-09T10:45:42Z</time>
      </trkpt>
      <trkpt lat="44.42626" lon="2.41326">
        <ele>338.8</ele>
        <time>2011-01-09T10:45:43Z</time>
      </trkpt>
      <trkpt lat="44.42631" lon="2.41322">
        <ele>338.5</ele>
        <time>2011-01-09T10:45:44Z</time>
      </trkpt>
      <trkpt lat="44.42635" lon="2.41318">
        <ele>337.8</ele>
        <time>2011-01-09T10:45:45Z</time>
      </trkpt>
      <trkpt lat="44.42639" lon="2.41314">
        <ele>337.4</ele>
        <time>2011-01-09T10:45:46Z</time>
      </trkpt>
      <trkpt lat="44.42642" lon="2.41309">
        <ele>337</ele>
        <time>2011-01-09T10:45:47Z</time>
      </trkpt>
      <trkpt lat="44.42645" lon="2.41302">
        <ele>336.9</ele>
        <time>2011-01-09T10:45:48Z</time>
      </trkpt>
      <trkpt lat="44.42647" lon="2.41297">
        <ele>336.8</ele>
        <time>2011-01-09T10:45:49Z</time>
      </trkpt>
      <trkpt lat="44.42649" lon="2.41291">
        <ele>336.7</ele>
        <time>2011-01-09T10:45:50Z</time>
      </trkpt>
      <trkpt lat="44.42651" lon="2.41284">
        <ele>336.2</ele>
        <time>2011-01-09T10:45:51Z</time>
      </trkpt>
      <trkpt lat="44.42652" lon="2.41278">
        <ele>335.9</ele>
        <time>2011-01-09T10:45:52Z</time>
      </trkpt>
      <trkpt lat="44.42653" lon="2.41272">
        <ele>335.7</ele>
        <time>2011-01-09T10:45:53Z</time>
      </trkpt>
      <trkpt lat="44.42654" lon="2.41266">
        <ele>335.9</ele>
        <time>2011-01-09T10:45:54Z</time>
      </trkpt>
      <trkpt lat="44.42654" lon="2.41261">
        <ele>336</ele>
        <time>2011-01-09T10:45:55Z</time>
      </trkpt>
      <trkpt lat="44.42656" lon="2.41255">
        <ele>336.1</ele>
        <time>2011-01-09T10:45:56Z</time>
      </trkpt>
      <trkpt lat="44.42657" lon="2.4125">
        <ele>336.4</ele>
        <time>2011-01-09T10:45:57Z</time>
      </trkpt>
      <trkpt lat="44.42658" lon="2.41245">
        <ele>336.7</ele>
        <time>2011-01-09T10:45:58Z</time>
      </trkpt>
      <trkpt lat="44.42659" lon="2.41239">
        <ele>336.8</ele>
        <time>2011-01-09T10:45:59Z</time>
      </trkpt>
      <trkpt lat="44.42661" lon="2.41233">
        <ele>337.1</ele>
        <time>2011-01-09T10:46:00Z</time>
      </trkpt>
      <trkpt lat="44.42662" lon="2.41227">
        <ele>337.2</ele>
        <time>2011-01-09T10:46:01Z</time>
      </trkpt>
      <trkpt lat="44.42664" lon="2.41221">
        <ele>337.4</ele>
        <time>2011-01-09T10:46:02Z</time>
      </trkpt>
      <trkpt lat="44.42666" lon="2.41215">
        <ele>337.5</ele>
        <time>2011-01-09T10:46:03Z</time>
      </trkpt>
      <trkpt lat="44.42667" lon="2.41209">
        <ele>337.6</ele>
        <time>2011-01-09T10:46:04Z</time>
      </trkpt>
      <trkpt lat="44.42668" lon="2.41202">
        <ele>337.7</ele>
        <time>2011-01-09T10:46:05Z</time>
      </trkpt>
      <trkpt lat="44.4267" lon="2.41196">
        <ele>337.8</ele>
        <time>2011-01-09T10:46:06Z</time>
      </trkpt>
      <trkpt lat="44.42671" lon="2.41189">
        <ele>337.9</ele>
        <time>2011-01-09T10:46:07Z</time>
      </trkpt>
      <trkpt lat="44.42673" lon="2.41183">
        <ele>337.9</ele>
        <time>2011-01-09T10:46:08Z</time>
      </trkpt>
      <trkpt lat="44.42675" lon="2.41175">
        <ele>338</ele>
        <time>2011-01-09T10:46:09Z</time>
      </trkpt>
      <trkpt lat="44.42676" lon="2.4117">
        <ele>337.8</ele>
        <time>2011-01-09T10:46:10Z</time>
      </trkpt>
      <trkpt lat="44.42678" lon="2.41164">
        <ele>337.6</ele>
        <time>2011-01-09T10:46:11Z</time>
      </trkpt>
      <trkpt lat="44.42679" lon="2.41158">
        <ele>337.5</ele>
        <time>2011-01-09T10:46:12Z</time>
      </trkpt>
      <trkpt lat="44.42681" lon="2.41153">
        <ele>337.7</ele>
        <time>2011-01-09T10:46:13Z</time>
      </trkpt>
      <trkpt lat="44.42682" lon="2.41147">
        <ele>337.9</ele>
        <time>2011-01-09T10:46:14Z</time>
      </trkpt>
      <trkpt lat="44.42684" lon="2.41142">
        <ele>338</ele>
        <time>2011-01-09T10:46:15Z</time>
      </trkpt>
      <trkpt lat="44.42686" lon="2.41137">
        <ele>338.1</ele>
        <time>2011-01-09T10:46:16Z</time>
      </trkpt>
      <trkpt lat="44.42687" lon="2.41132">
        <ele>338.5</ele>
        <time>2011-01-09T10:46:17Z</time>
      </trkpt>
      <trkpt lat="44.42689" lon="2.41126">
        <ele>338.9</ele>
        <time>2011-01-09T10:46:18Z</time>
      </trkpt>
      <trkpt lat="44.4269" lon="2.41121">
        <ele>339.1</ele>
        <time>2011-01-09T10:46:19Z</time>
      </trkpt>
      <trkpt lat="44.42691" lon="2.41116">
        <ele>339.1</ele>
        <time>2011-01-09T10:46:20Z</time>
      </trkpt>
      <trkpt lat="44.42692" lon="2.41111">
        <ele>339.2</ele>
        <time>2011-01-09T10:46:21Z</time>
      </trkpt>
      <trkpt lat="44.42694" lon="2.41106">
        <ele>339.2</ele>
        <time>2011-01-09T10:46:22Z</time>
      </trkpt>
      <trkpt lat="44.42695" lon="2.41102">
        <ele>339.3</ele>
        <time>2011-01-09T10:46:23Z</time>
      </trkpt>
      <trkpt lat="44.42696" lon="2.41096">
        <ele>339.3</ele>
        <time>2011-01-09T10:46:24Z</time>
      </trkpt>
      <trkpt lat="44.42698" lon="2.41091">
        <ele>339.4</ele>
        <time>2011-01-09T10:46:25Z</time>
      </trkpt>
      <trkpt lat="44.427" lon="2.41087">
        <ele>339.3</ele>
        <time>2011-01-09T10:46:26Z</time>
      </trkpt>
      <trkpt lat="44.42702" lon="2.41082">
        <ele>339.2</ele>
        <time>2011-01-09T10:46:27Z</time>
      </trkpt>
      <trkpt lat="44.42703" lon="2.41078">
        <ele>339.1</ele>
        <time>2011-01-09T10:46:28Z</time>
      </trkpt>
      <trkpt lat="44.42705" lon="2.41075">
        <ele>339.5</ele>
        <time>2011-01-09T10:46:29Z</time>
      </trkpt>
      <trkpt lat="44.42707" lon="2.41074">
        <ele>339.7</ele>
        <time>2011-01-09T10:46:30Z</time>
      </trkpt>
      <trkpt lat="44.4271" lon="2.41072">
        <ele>340.3</ele>
        <time>2011-01-09T10:46:32Z</time>
      </trkpt>
      <trkpt lat="44.42714" lon="2.41071">
        <ele>341</ele>
        <time>2011-01-09T10:46:34Z</time>
      </trkpt>
      <trkpt lat="44.42716" lon="2.41071">
        <ele>341.2</ele>
        <time>2011-01-09T10:46:35Z</time>
      </trkpt>
      <trkpt lat="44.42719" lon="2.41071">
        <ele>341.2</ele>
        <time>2011-01-09T10:46:36Z</time>
      </trkpt>
      <trkpt lat="44.42721" lon="2.41072">
        <ele>341.1</ele>
        <time>2011-01-09T10:46:37Z</time>
      </trkpt>
      <trkpt lat="44.42724" lon="2.41072">
        <ele>341.1</ele>
        <time>2011-01-09T10:46:38Z</time>
      </trkpt>
      <trkpt lat="44.42727" lon="2.41073">
        <ele>341</ele>
        <time>2011-01-09T10:46:39Z</time>
      </trkpt>
      <trkpt lat="44.42729" lon="2.41074">
        <ele>340.9</ele>
        <time>2011-01-09T10:46:40Z</time>
      </trkpt>
      <trkpt lat="44.42732" lon="2.41075">
        <ele>340.9</ele>
        <time>2011-01-09T10:46:41Z</time>
      </trkpt>
      <trkpt lat="44.42736" lon="2.41076">
        <ele>340.8</ele>
        <time>2011-01-09T10:46:42Z</time>
      </trkpt>
      <trkpt lat="44.42738" lon="2.41078">
        <ele>340.8</ele>
        <time>2011-01-09T10:46:43Z</time>
      </trkpt>
      <trkpt lat="44.42741" lon="2.41079">
        <ele>340.8</ele>
        <time>2011-01-09T10:46:44Z</time>
      </trkpt>
      <trkpt lat="44.42744" lon="2.4108">
        <ele>341.2</ele>
        <time>2011-01-09T10:46:45Z</time>
      </trkpt>
      <trkpt lat="44.42746" lon="2.41081">
        <ele>341.5</ele>
        <time>2011-01-09T10:46:46Z</time>
      </trkpt>
      <trkpt lat="44.4275" lon="2.41082">
        <ele>341.3</ele>
        <time>2011-01-09T10:46:48Z</time>
      </trkpt>
      <trkpt lat="44.42754" lon="2.4108">
        <ele>340.9</ele>
        <time>2011-01-09T10:46:50Z</time>
      </trkpt>
      <trkpt lat="44.42756" lon="2.41078">
        <ele>340.7</ele>
        <time>2011-01-09T10:46:51Z</time>
      </trkpt>
      <trkpt lat="44.42758" lon="2.41076">
        <ele>340.8</ele>
        <time>2011-01-09T10:46:52Z</time>
      </trkpt>
      <trkpt lat="44.4276" lon="2.41071">
        <ele>340.9</ele>
        <time>2011-01-09T10:46:54Z</time>
      </trkpt>
      <trkpt lat="44.42762" lon="2.41069">
        <ele>340.8</ele>
        <time>2011-01-09T10:46:55Z</time>
      </trkpt>
      <trkpt lat="44.42764" lon="2.41066">
        <ele>340.7</ele>
        <time>2011-01-09T10:46:56Z</time>
      </trkpt>
      <trkpt lat="44.42766" lon="2.41061">
        <ele>340.4</ele>
        <time>2011-01-09T10:46:58Z</time>
      </trkpt>
      <trkpt lat="44.42768" lon="2.41058">
        <ele>340.3</ele>
        <time>2011-01-09T10:46:59Z</time>
      </trkpt>
      <trkpt lat="44.4277" lon="2.41055">
        <ele>340.2</ele>
        <time>2011-01-09T10:47:00Z</time>
      </trkpt>
      <trkpt lat="44.42772" lon="2.41051">
        <ele>340.7</ele>
        <time>2011-01-09T10:47:01Z</time>
      </trkpt>
      <trkpt lat="44.42774" lon="2.41047">
        <ele>341</ele>
        <time>2011-01-09T10:47:02Z</time>
      </trkpt>
      <trkpt lat="44.42775" lon="2.41044">
        <ele>341.2</ele>
        <time>2011-01-09T10:47:03Z</time>
      </trkpt>
      <trkpt lat="44.42777" lon="2.4104">
        <ele>341.1</ele>
        <time>2011-01-09T10:47:04Z</time>
      </trkpt>
      <trkpt lat="44.42779" lon="2.41036">
        <ele>341.1</ele>
        <time>2011-01-09T10:47:05Z</time>
      </trkpt>
      <trkpt lat="44.42781" lon="2.41032">
        <ele>341</ele>
        <time>2011-01-09T10:47:06Z</time>
      </trkpt>
      <trkpt lat="44.42783" lon="2.41028">
        <ele>341</ele>
        <time>2011-01-09T10:47:07Z</time>
      </trkpt>
      <trkpt lat="44.42784" lon="2.41024">
        <ele>341.5</ele>
        <time>2011-01-09T10:47:08Z</time>
      </trkpt>
      <trkpt lat="44.42785" lon="2.41019">
        <ele>341.8</ele>
        <time>2011-01-09T10:47:09Z</time>
      </trkpt>
      <trkpt lat="44.42786" lon="2.41015">
        <ele>342.1</ele>
        <time>2011-01-09T10:47:10Z</time>
      </trkpt>
      <trkpt lat="44.42788" lon="2.41011">
        <ele>341.9</ele>
        <time>2011-01-09T10:47:11Z</time>
      </trkpt>
      <trkpt lat="44.42789" lon="2.41007">
        <ele>341.7</ele>
        <time>2011-01-09T10:47:12Z</time>
      </trkpt>
      <trkpt lat="44.42791" lon="2.41003">
        <ele>341.6</ele>
        <time>2011-01-09T10:47:13Z</time>
      </trkpt>
      <trkpt lat="44.42792" lon="2.40999">
        <ele>341.6</ele>
        <time>2011-01-09T10:47:14Z</time>
      </trkpt>
      <trkpt lat="44.42793" lon="2.40995">
        <ele>341.6</ele>
        <time>2011-01-09T10:47:15Z</time>
      </trkpt>
      <trkpt lat="44.42794" lon="2.40992">
        <ele>341.7</ele>
        <time>2011-01-09T10:47:16Z</time>
      </trkpt>
      <trkpt lat="44.42796" lon="2.40989">
        <ele>342</ele>
        <time>2011-01-09T10:47:17Z</time>
      </trkpt>
      <trkpt lat="44.42797" lon="2.40986">
        <ele>342.3</ele>
        <time>2011-01-09T10:47:18Z</time>
      </trkpt>
      <trkpt lat="44.42799" lon="2.40983">
        <ele>342.5</ele>
        <time>2011-01-09T10:47:19Z</time>
      </trkpt>
      <trkpt lat="44.42802" lon="2.40981">
        <ele>342.6</ele>
        <time>2011-01-09T10:47:20Z</time>
      </trkpt>
      <trkpt lat="44.42805" lon="2.40979">
        <ele>342.6</ele>
        <time>2011-01-09T10:47:21Z</time>
      </trkpt>
      <trkpt lat="44.42808" lon="2.40977">
        <ele>342.7</ele>
        <time>2011-01-09T10:47:22Z</time>
      </trkpt>
      <trkpt lat="44.42811" lon="2.40976">
        <ele>342.7</ele>
        <time>2011-01-09T10:47:23Z</time>
      </trkpt>
      <trkpt lat="44.42814" lon="2.40974">
        <ele>343</ele>
        <time>2011-01-09T10:47:24Z</time>
      </trkpt>
      <trkpt lat="44.42818" lon="2.40973">
        <ele>343.3</ele>
        <time>2011-01-09T10:47:25Z</time>
      </trkpt>
      <trkpt lat="44.42821" lon="2.40972">
        <ele>343.5</ele>
        <time>2011-01-09T10:47:26Z</time>
      </trkpt>
      <trkpt lat="44.42825" lon="2.4097">
        <ele>343.6</ele>
        <time>2011-01-09T10:47:27Z</time>
      </trkpt>
      <trkpt lat="44.42829" lon="2.40969">
        <ele>343.6</ele>
        <time>2011-01-09T10:47:28Z</time>
      </trkpt>
      <trkpt lat="44.42833" lon="2.40968">
        <ele>343.7</ele>
        <time>2011-01-09T10:47:29Z</time>
      </trkpt>
      <trkpt lat="44.42837" lon="2.40968">
        <ele>343.5</ele>
        <time>2011-01-09T10:47:30Z</time>
      </trkpt>
      <trkpt lat="44.42841" lon="2.40967">
        <ele>343.5</ele>
        <time>2011-01-09T10:47:31Z</time>
      </trkpt>
      <trkpt lat="44.42846" lon="2.40967">
        <ele>343.4</ele>
        <time>2011-01-09T10:47:32Z</time>
      </trkpt>
      <trkpt lat="44.4285" lon="2.40966">
        <ele>343.4</ele>
        <time>2011-01-09T10:47:33Z</time>
      </trkpt>
      <trkpt lat="44.42855" lon="2.40965">
        <ele>343.5</ele>
        <time>2011-01-09T10:47:34Z</time>
      </trkpt>
      <trkpt lat="44.42859" lon="2.40964">
        <ele>343.5</ele>
        <time>2011-01-09T10:47:35Z</time>
      </trkpt>
      <trkpt lat="44.42863" lon="2.40963">
        <ele>343.5</ele>
        <time>2011-01-09T10:47:36Z</time>
      </trkpt>
      <trkpt lat="44.42867" lon="2.4096">
        <ele>343.5</ele>
        <time>2011-01-09T10:47:37Z</time>
      </trkpt>
      <trkpt lat="44.4287" lon="2.40957">
        <ele>343.5</ele>
        <time>2011-01-09T10:47:38Z</time>
      </trkpt>
      <trkpt lat="44.42873" lon="2.40953">
        <ele>343.5</ele>
        <time>2011-01-09T10:47:39Z</time>
      </trkpt>
      <trkpt lat="44.42876" lon="2.4095">
        <ele>343.4</ele>
        <time>2011-01-09T10:47:40Z</time>
      </trkpt>
      <trkpt lat="44.42878" lon="2.40946">
        <ele>343.3</ele>
        <time>2011-01-09T10:47:41Z</time>
      </trkpt>
      <trkpt lat="44.4288" lon="2.40943">
        <ele>343.3</ele>
        <time>2011-01-09T10:47:42Z</time>
      </trkpt>
      <trkpt lat="44.42882" lon="2.40939">
        <ele>343.5</ele>
        <time>2011-01-09T10:47:43Z</time>
      </trkpt>
      <trkpt lat="44.42884" lon="2.40936">
        <ele>343.8</ele>
        <time>2011-01-09T10:47:44Z</time>
      </trkpt>
      <trkpt lat="44.42885" lon="2.40933">
        <ele>343.9</ele>
        <time>2011-01-09T10:47:45Z</time>
      </trkpt>
      <trkpt lat="44.42887" lon="2.4093">
        <ele>344.3</ele>
        <time>2011-01-09T10:47:46Z</time>
      </trkpt>
      <trkpt lat="44.4289" lon="2.40925">
        <ele>344.8</ele>
        <time>2011-01-09T10:47:48Z</time>
      </trkpt>
      <trkpt lat="44.42892" lon="2.40921">
        <ele>345.5</ele>
        <time>2011-01-09T10:47:50Z</time>
      </trkpt>
      <trkpt lat="44.42894" lon="2.40916">
        <ele>345.8</ele>
        <time>2011-01-09T10:47:53Z</time>
      </trkpt>
      <trkpt lat="44.42895" lon="2.40912">
        <ele>346.3</ele>
        <time>2011-01-09T10:47:55Z</time>
      </trkpt>
      <trkpt lat="44.42898" lon="2.40907">
        <ele>347.2</ele>
        <time>2011-01-09T10:47:58Z</time>
      </trkpt>
      <trkpt lat="44.429" lon="2.40904">
        <ele>347.2</ele>
        <time>2011-01-09T10:48:00Z</time>
      </trkpt>
      <trkpt lat="44.42902" lon="2.40901">
        <ele>347.5</ele>
        <time>2011-01-09T10:48:02Z</time>
      </trkpt>
      <trkpt lat="44.42905" lon="2.40898">
        <ele>347.9</ele>
        <time>2011-01-09T10:48:04Z</time>
      </trkpt>
      <trkpt lat="44.42907" lon="2.40895">
        <ele>347.7</ele>
        <time>2011-01-09T10:48:06Z</time>
      </trkpt>
      <trkpt lat="44.4291" lon="2.40892">
        <ele>348.4</ele>
        <time>2011-01-09T10:48:09Z</time>
      </trkpt>
      <trkpt lat="44.42913" lon="2.40887">
        <ele>349.5</ele>
        <time>2011-01-09T10:48:12Z</time>
      </trkpt>
      <trkpt lat="44.42916" lon="2.40885">
        <ele>350</ele>
        <time>2011-01-09T10:48:14Z</time>
      </trkpt>
      <trkpt lat="44.42918" lon="2.40882">
        <ele>350.5</ele>
        <time>2011-01-09T10:48:16Z</time>
      </trkpt>
      <trkpt lat="44.42922" lon="2.40879">
        <ele>351.1</ele>
        <time>2011-01-09T10:48:19Z</time>
      </trkpt>
      <trkpt lat="44.42924" lon="2.40876">
        <ele>351.4</ele>
        <time>2011-01-09T10:48:21Z</time>
      </trkpt>
      <trkpt lat="44.42927" lon="2.40874">
        <ele>351.5</ele>
        <time>2011-01-09T10:48:23Z</time>
      </trkpt>
      <trkpt lat="44.42929" lon="2.40871">
        <ele>352</ele>
        <time>2011-01-09T10:48:25Z</time>
      </trkpt>
      <trkpt lat="44.42932" lon="2.40867">
        <ele>352.3</ele>
        <time>2011-01-09T10:48:28Z</time>
      </trkpt>
      <trkpt lat="44.42935" lon="2.40864">
        <ele>352.5</ele>
        <time>2011-01-09T10:48:31Z</time>
      </trkpt>
      <trkpt lat="44.42938" lon="2.40861">
        <ele>352.7</ele>
        <time>2011-01-09T10:48:33Z</time>
      </trkpt>
      <trkpt lat="44.42941" lon="2.40858">
        <ele>353.6</ele>
        <time>2011-01-09T10:48:36Z</time>
      </trkpt>
      <trkpt lat="44.42944" lon="2.40856">
        <ele>353.7</ele>
        <time>2011-01-09T10:48:39Z</time>
      </trkpt>
      <trkpt lat="44.42945" lon="2.40855">
        <ele>354.1</ele>
        <time>2011-01-09T10:48:40Z</time>
      </trkpt>
      <trkpt lat="44.42951" lon="2.40849">
        <ele>356</ele>
        <time>2011-01-09T10:48:47Z</time>
      </trkpt>
      <trkpt lat="44.42953" lon="2.40846">
        <ele>356.6</ele>
        <time>2011-01-09T10:48:50Z</time>
      </trkpt>
      <trkpt lat="44.42956" lon="2.40843">
        <ele>357.5</ele>
        <time>2011-01-09T10:48:53Z</time>
      </trkpt>
      <trkpt lat="44.42959" lon="2.40839">
        <ele>358.5</ele>
        <time>2011-01-09T10:48:57Z</time>
      </trkpt>
      <trkpt lat="44.42962" lon="2.40836">
        <ele>358.9</ele>
        <time>2011-01-09T10:49:01Z</time>
      </trkpt>
      <trkpt lat="44.42965" lon="2.40833">
        <ele>359.1</ele>
        <time>2011-01-09T10:49:04Z</time>
      </trkpt>
      <trkpt lat="44.42969" lon="2.40832">
        <ele>359.4</ele>
        <time>2011-01-09T10:49:07Z</time>
      </trkpt>
      <trkpt lat="44.42972" lon="2.40828">
        <ele>360.3</ele>
        <time>2011-01-09T10:49:11Z</time>
      </trkpt>
      <trkpt lat="44.42976" lon="2.40826">
        <ele>361.5</ele>
        <time>2011-01-09T10:49:15Z</time>
      </trkpt>
      <trkpt lat="44.4298" lon="2.40825">
        <ele>361.8</ele>
        <time>2011-01-09T10:49:18Z</time>
      </trkpt>
      <trkpt lat="44.42983" lon="2.40822">
        <ele>362.3</ele>
        <time>2011-01-09T10:49:21Z</time>
      </trkpt>
      <trkpt lat="44.42986" lon="2.40821">
        <ele>362.5</ele>
        <time>2011-01-09T10:49:24Z</time>
      </trkpt>
      <trkpt lat="44.4299" lon="2.40819">
        <ele>363</ele>
        <time>2011-01-09T10:49:27Z</time>
      </trkpt>
      <trkpt lat="44.42994" lon="2.40818">
        <ele>364.1</ele>
        <time>2011-01-09T10:49:31Z</time>
      </trkpt>
      <trkpt lat="44.42998" lon="2.40816">
        <ele>364.8</ele>
        <time>2011-01-09T10:49:35Z</time>
      </trkpt>
      <trkpt lat="44.43002" lon="2.40814">
        <ele>365.4</ele>
        <time>2011-01-09T10:49:39Z</time>
      </trkpt>
      <trkpt lat="44.43006" lon="2.40811">
        <ele>366</ele>
        <time>2011-01-09T10:49:43Z</time>
      </trkpt>
      <trkpt lat="44.43007" lon="2.4081">
        <ele>366.2</ele>
        <time>2011-01-09T10:49:44Z</time>
      </trkpt>
      <trkpt lat="44.43012" lon="2.40803">
        <ele>367.8</ele>
        <time>2011-01-09T10:49:51Z</time>
      </trkpt>
      <trkpt lat="44.43015" lon="2.40801">
        <ele>368</ele>
        <time>2011-01-09T10:49:54Z</time>
      </trkpt>
      <trkpt lat="44.43018" lon="2.40798">
        <ele>368.3</ele>
        <time>2011-01-09T10:49:57Z</time>
      </trkpt>
      <trkpt lat="44.43021" lon="2.40795">
        <ele>369.2</ele>
        <time>2011-01-09T10:50:00Z</time>
      </trkpt>
      <trkpt lat="44.43024" lon="2.4079">
        <ele>370</ele>
        <time>2011-01-09T10:50:04Z</time>
      </trkpt>
      <trkpt lat="44.43027" lon="2.40786">
        <ele>370.9</ele>
        <time>2011-01-09T10:50:08Z</time>
      </trkpt>
      <trkpt lat="44.4303" lon="2.40782">
        <ele>371.3</ele>
        <time>2011-01-09T10:50:12Z</time>
      </trkpt>
      <trkpt lat="44.43033" lon="2.40779">
        <ele>371.7</ele>
        <time>2011-01-09T10:50:15Z</time>
      </trkpt>
      <trkpt lat="44.43035" lon="2.40776">
        <ele>372.3</ele>
        <time>2011-01-09T10:50:18Z</time>
      </trkpt>
      <trkpt lat="44.43039" lon="2.40773">
        <ele>373.5</ele>
        <time>2011-01-09T10:50:22Z</time>
      </trkpt>
      <trkpt lat="44.43043" lon="2.40769">
        <ele>373.9</ele>
        <time>2011-01-09T10:50:26Z</time>
      </trkpt>
      <trkpt lat="44.43046" lon="2.40766">
        <ele>374.5</ele>
        <time>2011-01-09T10:50:30Z</time>
      </trkpt>
      <trkpt lat="44.43049" lon="2.40762">
        <ele>375.8</ele>
        <time>2011-01-09T10:50:34Z</time>
      </trkpt>
      <trkpt lat="44.43052" lon="2.40758">
        <ele>376.4</ele>
        <time>2011-01-09T10:50:38Z</time>
      </trkpt>
      <trkpt lat="44.43054" lon="2.40753">
        <ele>377</ele>
        <time>2011-01-09T10:50:42Z</time>
      </trkpt>
      <trkpt lat="44.43058" lon="2.4075">
        <ele>377.8</ele>
        <time>2011-01-09T10:50:46Z</time>
      </trkpt>
      <trkpt lat="44.43058" lon="2.40749">
        <ele>377.9</ele>
        <time>2011-01-09T10:50:47Z</time>
      </trkpt>
      <trkpt lat="44.43064" lon="2.40743">
        <ele>379.2</ele>
        <time>2011-01-09T10:50:54Z</time>
      </trkpt>
      <trkpt lat="44.43066" lon="2.4074">
        <ele>379.4</ele>
        <time>2011-01-09T10:50:57Z</time>
      </trkpt>
      <trkpt lat="44.43069" lon="2.40737">
        <ele>379.8</ele>
        <time>2011-01-09T10:51:00Z</time>
      </trkpt>
      <trkpt lat="44.43072" lon="2.40733">
        <ele>381</ele>
        <time>2011-01-09T10:51:03Z</time>
      </trkpt>
      <trkpt lat="44.43076" lon="2.4073">
        <ele>381.8</ele>
        <time>2011-01-09T10:51:06Z</time>
      </trkpt>
      <trkpt lat="44.43079" lon="2.40727">
        <ele>381.4</ele>
        <time>2011-01-09T10:51:10Z</time>
      </trkpt>
      <trkpt lat="44.43082" lon="2.40725">
        <ele>381.9</ele>
        <time>2011-01-09T10:51:17Z</time>
      </trkpt>
      <trkpt lat="44.43086" lon="2.40722">
        <ele>382.1</ele>
        <time>2011-01-09T10:51:20Z</time>
      </trkpt>
      <trkpt lat="44.43089" lon="2.40719">
        <ele>382.8</ele>
        <time>2011-01-09T10:51:23Z</time>
      </trkpt>
      <trkpt lat="44.43092" lon="2.40716">
        <ele>383.4</ele>
        <time>2011-01-09T10:51:26Z</time>
      </trkpt>
      <trkpt lat="44.43096" lon="2.40714">
        <ele>384.3</ele>
        <time>2011-01-09T10:51:29Z</time>
      </trkpt>
      <trkpt lat="44.43099" lon="2.40712">
        <ele>384.6</ele>
        <time>2011-01-09T10:51:31Z</time>
      </trkpt>
      <trkpt lat="44.43101" lon="2.40709">
        <ele>384.9</ele>
        <time>2011-01-09T10:51:33Z</time>
      </trkpt>
      <trkpt lat="44.43105" lon="2.40706">
        <ele>385</ele>
        <time>2011-01-09T10:51:36Z</time>
      </trkpt>
      <trkpt lat="44.43107" lon="2.40703">
        <ele>384.7</ele>
        <time>2011-01-09T10:51:38Z</time>
      </trkpt>
      <trkpt lat="44.4311" lon="2.40701">
        <ele>385.4</ele>
        <time>2011-01-09T10:51:40Z</time>
      </trkpt>
      <trkpt lat="44.43112" lon="2.40699">
        <ele>385.7</ele>
        <time>2011-01-09T10:51:42Z</time>
      </trkpt>
      <trkpt lat="44.43115" lon="2.40696">
        <ele>385.8</ele>
        <time>2011-01-09T10:51:44Z</time>
      </trkpt>
      <trkpt lat="44.43119" lon="2.40693">
        <ele>386.2</ele>
        <time>2011-01-09T10:51:47Z</time>
      </trkpt>
      <trkpt lat="44.43122" lon="2.40689">
        <ele>386.6</ele>
        <time>2011-01-09T10:51:50Z</time>
      </trkpt>
      <trkpt lat="44.43123" lon="2.40688">
        <ele>386.7</ele>
        <time>2011-01-09T10:51:51Z</time>
      </trkpt>
      <trkpt lat="44.43128" lon="2.40682">
        <ele>388</ele>
        <time>2011-01-09T10:51:56Z</time>
      </trkpt>
      <trkpt lat="44.43132" lon="2.4068">
        <ele>388.4</ele>
        <time>2011-01-09T10:51:59Z</time>
      </trkpt>
      <trkpt lat="44.43135" lon="2.40676">
        <ele>389.2</ele>
        <time>2011-01-09T10:52:02Z</time>
      </trkpt>
      <trkpt lat="44.43138" lon="2.40672">
        <ele>389.7</ele>
        <time>2011-01-09T10:52:05Z</time>
      </trkpt>
      <trkpt lat="44.4314" lon="2.40669">
        <ele>389.8</ele>
        <time>2011-01-09T10:52:07Z</time>
      </trkpt>
      <trkpt lat="44.43144" lon="2.40664">
        <ele>390.4</ele>
        <time>2011-01-09T10:52:10Z</time>
      </trkpt>
      <trkpt lat="44.43146" lon="2.40662">
        <ele>391</ele>
        <time>2011-01-09T10:52:12Z</time>
      </trkpt>
      <trkpt lat="44.4315" lon="2.40658">
        <ele>391.5</ele>
        <time>2011-01-09T10:52:15Z</time>
      </trkpt>
      <trkpt lat="44.43153" lon="2.40655">
        <ele>391.6</ele>
        <time>2011-01-09T10:52:18Z</time>
      </trkpt>
      <trkpt lat="44.43156" lon="2.4065">
        <ele>391.3</ele>
        <time>2011-01-09T10:52:21Z</time>
      </trkpt>
      <trkpt lat="44.43159" lon="2.40646">
        <ele>391.4</ele>
        <time>2011-01-09T10:52:24Z</time>
      </trkpt>
      <trkpt lat="44.43162" lon="2.40642">
        <ele>392.1</ele>
        <time>2011-01-09T10:52:27Z</time>
      </trkpt>
      <trkpt lat="44.43165" lon="2.40638">
        <ele>392.9</ele>
        <time>2011-01-09T10:52:30Z</time>
      </trkpt>
      <trkpt lat="44.43168" lon="2.40634">
        <ele>393.5</ele>
        <time>2011-01-09T10:52:33Z</time>
      </trkpt>
      <trkpt lat="44.4317" lon="2.4063">
        <ele>394</ele>
        <time>2011-01-09T10:52:36Z</time>
      </trkpt>
      <trkpt lat="44.43174" lon="2.40626">
        <ele>394.4</ele>
        <time>2011-01-09T10:52:39Z</time>
      </trkpt>
      <trkpt lat="44.43176" lon="2.40621">
        <ele>394.8</ele>
        <time>2011-01-09T10:52:42Z</time>
      </trkpt>
      <trkpt lat="44.43178" lon="2.40618">
        <ele>394.9</ele>
        <time>2011-01-09T10:52:44Z</time>
      </trkpt>
      <trkpt lat="44.43181" lon="2.40614">
        <ele>395.1</ele>
        <time>2011-01-09T10:52:47Z</time>
      </trkpt>
      <trkpt lat="44.43185" lon="2.4061">
        <ele>395.9</ele>
        <time>2011-01-09T10:52:50Z</time>
      </trkpt>
      <trkpt lat="44.43187" lon="2.40607">
        <ele>396.4</ele>
        <time>2011-01-09T10:52:52Z</time>
      </trkpt>
      <trkpt lat="44.43188" lon="2.40605">
        <ele>396.7</ele>
        <time>2011-01-09T10:52:53Z</time>
      </trkpt>
      <trkpt lat="44.43192" lon="2.40599">
        <ele>397.3</ele>
        <time>2011-01-09T10:52:57Z</time>
      </trkpt>
      <trkpt lat="44.43195" lon="2.40597">
        <ele>397.6</ele>
        <time>2011-01-09T10:52:59Z</time>
      </trkpt>
      <trkpt lat="44.43197" lon="2.40594">
        <ele>397.8</ele>
        <time>2011-01-09T10:53:01Z</time>
      </trkpt>
      <trkpt lat="44.432" lon="2.40591">
        <ele>397.7</ele>
        <time>2011-01-09T10:53:03Z</time>
      </trkpt>
      <trkpt lat="44.43203" lon="2.40587">
        <ele>398.2</ele>
        <time>2011-01-09T10:53:06Z</time>
      </trkpt>
      <trkpt lat="44.43207" lon="2.40583">
        <ele>398.8</ele>
        <time>2011-01-09T10:53:09Z</time>
      </trkpt>
      <trkpt lat="44.4321" lon="2.40579">
        <ele>399.3</ele>
        <time>2011-01-09T10:53:12Z</time>
      </trkpt>
      <trkpt lat="44.43212" lon="2.40575">
        <ele>400.2</ele>
        <time>2011-01-09T10:53:15Z</time>
      </trkpt>
      <trkpt lat="44.43213" lon="2.40569">
        <ele>401.1</ele>
        <time>2011-01-09T10:53:18Z</time>
      </trkpt>
      <trkpt lat="44.43214" lon="2.40564">
        <ele>401.5</ele>
        <time>2011-01-09T10:53:21Z</time>
      </trkpt>
      <trkpt lat="44.43215" lon="2.40559">
        <ele>401.6</ele>
        <time>2011-01-09T10:53:24Z</time>
      </trkpt>
      <trkpt lat="44.43215" lon="2.40554">
        <ele>401.5</ele>
        <time>2011-01-09T10:53:27Z</time>
      </trkpt>
      <trkpt lat="44.43215" lon="2.40548">
        <ele>402.7</ele>
        <time>2011-01-09T10:53:31Z</time>
      </trkpt>
      <trkpt lat="44.43215" lon="2.40542">
        <ele>403.7</ele>
        <time>2011-01-09T10:53:34Z</time>
      </trkpt>
      <trkpt lat="44.43216" lon="2.40536">
        <ele>404.7</ele>
        <time>2011-01-09T10:53:37Z</time>
      </trkpt>
      <trkpt lat="44.43218" lon="2.40531">
        <ele>405.2</ele>
        <time>2011-01-09T10:53:40Z</time>
      </trkpt>
      <trkpt lat="44.43218" lon="2.40525">
        <ele>405</ele>
        <time>2011-01-09T10:53:43Z</time>
      </trkpt>
      <trkpt lat="44.43218" lon="2.40519">
        <ele>405.2</ele>
        <time>2011-01-09T10:53:46Z</time>
      </trkpt>
      <trkpt lat="44.43218" lon="2.40513">
        <ele>405.8</ele>
        <time>2011-01-09T10:53:49Z</time>
      </trkpt>
      <trkpt lat="44.43217" lon="2.40507">
        <ele>406</ele>
        <time>2011-01-09T10:53:52Z</time>
      </trkpt>
      <trkpt lat="44.43217" lon="2.40504">
        <ele>406.7</ele>
        <time>2011-01-09T10:53:54Z</time>
      </trkpt>
      <trkpt lat="44.43218" lon="2.405">
        <ele>406.9</ele>
        <time>2011-01-09T10:53:55Z</time>
      </trkpt>
      <trkpt lat="44.43218" lon="2.40494">
        <ele>407.3</ele>
        <time>2011-01-09T10:53:58Z</time>
      </trkpt>
      <trkpt lat="44.43217" lon="2.40489">
        <ele>407.6</ele>
        <time>2011-01-09T10:54:01Z</time>
      </trkpt>
      <trkpt lat="44.43217" lon="2.40483">
        <ele>408.1</ele>
        <time>2011-01-09T10:54:04Z</time>
      </trkpt>
      <trkpt lat="44.43217" lon="2.40477">
        <ele>408.5</ele>
        <time>2011-01-09T10:54:07Z</time>
      </trkpt>
      <trkpt lat="44.43217" lon="2.40473">
        <ele>408.6</ele>
        <time>2011-01-09T10:54:09Z</time>
      </trkpt>
      <trkpt lat="44.43216" lon="2.40468">
        <ele>408.9</ele>
        <time>2011-01-09T10:54:12Z</time>
      </trkpt>
      <trkpt lat="44.43216" lon="2.40463">
        <ele>409.3</ele>
        <time>2011-01-09T10:54:14Z</time>
      </trkpt>
      <trkpt lat="44.43215" lon="2.40458">
        <ele>409.9</ele>
        <time>2011-01-09T10:54:16Z</time>
      </trkpt>
      <trkpt lat="44.43213" lon="2.40455">
        <ele>410.2</ele>
        <time>2011-01-09T10:54:18Z</time>
      </trkpt>
      <trkpt lat="44.43212" lon="2.4045">
        <ele>410.8</ele>
        <time>2011-01-09T10:54:20Z</time>
      </trkpt>
      <trkpt lat="44.4321" lon="2.40446">
        <ele>410.9</ele>
        <time>2011-01-09T10:54:22Z</time>
      </trkpt>
      <trkpt lat="44.43209" lon="2.4044">
        <ele>410.9</ele>
        <time>2011-01-09T10:54:25Z</time>
      </trkpt>
      <trkpt lat="44.43207" lon="2.40435">
        <ele>411.5</ele>
        <time>2011-01-09T10:54:28Z</time>
      </trkpt>
      <trkpt lat="44.43206" lon="2.40431">
        <ele>411.9</ele>
        <time>2011-01-09T10:54:30Z</time>
      </trkpt>
      <trkpt lat="44.43205" lon="2.40426">
        <ele>412</ele>
        <time>2011-01-09T10:54:32Z</time>
      </trkpt>
      <trkpt lat="44.43203" lon="2.40422">
        <ele>412.3</ele>
        <time>2011-01-09T10:54:34Z</time>
      </trkpt>
      <trkpt lat="44.43201" lon="2.40417">
        <ele>412.5</ele>
        <time>2011-01-09T10:54:36Z</time>
      </trkpt>
      <trkpt lat="44.43199" lon="2.40414">
        <ele>412.7</ele>
        <time>2011-01-09T10:54:38Z</time>
      </trkpt>
      <trkpt lat="44.43197" lon="2.40411">
        <ele>412.9</ele>
        <time>2011-01-09T10:54:40Z</time>
      </trkpt>
      <trkpt lat="44.43194" lon="2.40408">
        <ele>413.1</ele>
        <time>2011-01-09T10:54:42Z</time>
      </trkpt>
      <trkpt lat="44.43191" lon="2.40404">
        <ele>414.1</ele>
        <time>2011-01-09T10:54:45Z</time>
      </trkpt>
      <trkpt lat="44.43188" lon="2.40401">
        <ele>414.6</ele>
        <time>2011-01-09T10:54:47Z</time>
      </trkpt>
      <trkpt lat="44.43185" lon="2.40398">
        <ele>415.2</ele>
        <time>2011-01-09T10:54:50Z</time>
      </trkpt>
      <trkpt lat="44.43181" lon="2.40396">
        <ele>415.6</ele>
        <time>2011-01-09T10:54:53Z</time>
      </trkpt>
      <trkpt lat="44.43178" lon="2.40393">
        <ele>416.3</ele>
        <time>2011-01-09T10:54:56Z</time>
      </trkpt>
      <trkpt lat="44.43176" lon="2.40392">
        <ele>416.6</ele>
        <time>2011-01-09T10:54:57Z</time>
      </trkpt>
      <trkpt lat="44.4317" lon="2.40389">
        <ele>417.4</ele>
        <time>2011-01-09T10:55:02Z</time>
      </trkpt>
      <trkpt lat="44.43166" lon="2.40387">
        <ele>417.7</ele>
        <time>2011-01-09T10:55:05Z</time>
      </trkpt>
      <trkpt lat="44.43162" lon="2.40385">
        <ele>418.4</ele>
        <time>2011-01-09T10:55:08Z</time>
      </trkpt>
      <trkpt lat="44.43159" lon="2.40385">
        <ele>418.8</ele>
        <time>2011-01-09T10:55:10Z</time>
      </trkpt>
      <trkpt lat="44.43156" lon="2.40384">
        <ele>419.1</ele>
        <time>2011-01-09T10:55:12Z</time>
      </trkpt>
      <trkpt lat="44.43152" lon="2.40384">
        <ele>418.6</ele>
        <time>2011-01-09T10:55:15Z</time>
      </trkpt>
      <trkpt lat="44.43148" lon="2.40383">
        <ele>419.2</ele>
        <time>2011-01-09T10:55:18Z</time>
      </trkpt>
      <trkpt lat="44.43144" lon="2.40384">
        <ele>420.2</ele>
        <time>2011-01-09T10:55:21Z</time>
      </trkpt>
      <trkpt lat="44.4314" lon="2.40384">
        <ele>420.9</ele>
        <time>2011-01-09T10:55:24Z</time>
      </trkpt>
      <trkpt lat="44.43136" lon="2.40383">
        <ele>420.9</ele>
        <time>2011-01-09T10:55:27Z</time>
      </trkpt>
      <trkpt lat="44.43133" lon="2.40383">
        <ele>421.3</ele>
        <time>2011-01-09T10:55:29Z</time>
      </trkpt>
      <trkpt lat="44.43129" lon="2.40381">
        <ele>422.1</ele>
        <time>2011-01-09T10:55:32Z</time>
      </trkpt>
      <trkpt lat="44.43125" lon="2.4038">
        <ele>422.4</ele>
        <time>2011-01-09T10:55:35Z</time>
      </trkpt>
      <trkpt lat="44.43122" lon="2.4038">
        <ele>422.7</ele>
        <time>2011-01-09T10:55:37Z</time>
      </trkpt>
      <trkpt lat="44.43119" lon="2.40379">
        <ele>422.4</ele>
        <time>2011-01-09T10:55:39Z</time>
      </trkpt>
      <trkpt lat="44.43116" lon="2.40378">
        <ele>422.3</ele>
        <time>2011-01-09T10:55:41Z</time>
      </trkpt>
      <trkpt lat="44.43113" lon="2.40377">
        <ele>422.4</ele>
        <time>2011-01-09T10:55:43Z</time>
      </trkpt>
      <trkpt lat="44.43109" lon="2.40375">
        <ele>424.1</ele>
        <time>2011-01-09T10:55:46Z</time>
      </trkpt>
      <trkpt lat="44.43105" lon="2.40373">
        <ele>425.4</ele>
        <time>2011-01-09T10:55:49Z</time>
      </trkpt>
      <trkpt lat="44.43101" lon="2.40372">
        <ele>425.5</ele>
        <time>2011-01-09T10:55:52Z</time>
      </trkpt>
      <trkpt lat="44.43097" lon="2.4037">
        <ele>426.1</ele>
        <time>2011-01-09T10:55:55Z</time>
      </trkpt>
      <trkpt lat="44.43094" lon="2.40368">
        <ele>426.3</ele>
        <time>2011-01-09T10:55:57Z</time>
      </trkpt>
      <trkpt lat="44.43091" lon="2.40366">
        <ele>426.3</ele>
        <time>2011-01-09T10:55:59Z</time>
      </trkpt>
      <trkpt lat="44.4309" lon="2.40365">
        <ele>426.3</ele>
        <time>2011-01-09T10:56:00Z</time>
      </trkpt>
      <trkpt lat="44.43085" lon="2.40363">
        <ele>426.7</ele>
        <time>2011-01-09T10:56:03Z</time>
      </trkpt>
      <trkpt lat="44.43082" lon="2.40361">
        <ele>426.9</ele>
        <time>2011-01-09T10:56:05Z</time>
      </trkpt>
      <trkpt lat="44.43079" lon="2.4036">
        <ele>427.2</ele>
        <time>2011-01-09T10:56:07Z</time>
      </trkpt>
      <trkpt lat="44.43076" lon="2.40359">
        <ele>427.5</ele>
        <time>2011-01-09T10:56:09Z</time>
      </trkpt>
      <trkpt lat="44.43073" lon="2.40357">
        <ele>428.3</ele>
        <time>2011-01-09T10:56:11Z</time>
      </trkpt>
      <trkpt lat="44.4307" lon="2.40356">
        <ele>428.7</ele>
        <time>2011-01-09T10:56:13Z</time>
      </trkpt>
      <trkpt lat="44.43067" lon="2.40355">
        <ele>428.8</ele>
        <time>2011-01-09T10:56:15Z</time>
      </trkpt>
      <trkpt lat="44.43064" lon="2.40353">
        <ele>429.2</ele>
        <time>2011-01-09T10:56:17Z</time>
      </trkpt>
      <trkpt lat="44.43061" lon="2.40351">
        <ele>429.8</ele>
        <time>2011-01-09T10:56:19Z</time>
      </trkpt>
      <trkpt lat="44.43058" lon="2.40349">
        <ele>429.6</ele>
        <time>2011-01-09T10:56:21Z</time>
      </trkpt>
      <trkpt lat="44.43055" lon="2.40347">
        <ele>429.7</ele>
        <time>2011-01-09T10:56:23Z</time>
      </trkpt>
      <trkpt lat="44.43052" lon="2.40344">
        <ele>430.4</ele>
        <time>2011-01-09T10:56:26Z</time>
      </trkpt>
      <trkpt lat="44.43048" lon="2.40343">
        <ele>431.5</ele>
        <time>2011-01-09T10:56:29Z</time>
      </trkpt>
      <trkpt lat="44.43044" lon="2.4034">
        <ele>432.7</ele>
        <time>2011-01-09T10:56:32Z</time>
      </trkpt>
      <trkpt lat="44.4304" lon="2.40338">
        <ele>432.9</ele>
        <time>2011-01-09T10:56:35Z</time>
      </trkpt>
      <trkpt lat="44.43035" lon="2.40337">
        <ele>433.7</ele>
        <time>2011-01-09T10:56:38Z</time>
      </trkpt>
      <trkpt lat="44.43031" lon="2.40335">
        <ele>434</ele>
        <time>2011-01-09T10:56:41Z</time>
      </trkpt>
      <trkpt lat="44.43028" lon="2.40333">
        <ele>433.8</ele>
        <time>2011-01-09T10:56:43Z</time>
      </trkpt>
      <trkpt lat="44.43024" lon="2.40332">
        <ele>434.5</ele>
        <time>2011-01-09T10:56:46Z</time>
      </trkpt>
      <trkpt lat="44.43021" lon="2.4033">
        <ele>435.2</ele>
        <time>2011-01-09T10:56:49Z</time>
      </trkpt>
      <trkpt lat="44.43018" lon="2.40326">
        <ele>435.8</ele>
        <time>2011-01-09T10:56:52Z</time>
      </trkpt>
      <trkpt lat="44.43015" lon="2.40323">
        <ele>436</ele>
        <time>2011-01-09T10:56:55Z</time>
      </trkpt>
      <trkpt lat="44.43011" lon="2.4032">
        <ele>436.6</ele>
        <time>2011-01-09T10:56:59Z</time>
      </trkpt>
      <trkpt lat="44.43013" lon="2.40315">
        <ele>437</ele>
        <time>2011-01-09T10:57:03Z</time>
      </trkpt>
      <trkpt lat="44.43015" lon="2.40315">
        <ele>437</ele>
        <time>2011-01-09T10:57:04Z</time>
      </trkpt>
      <trkpt lat="44.4302" lon="2.40309">
        <ele>437.7</ele>
        <time>2011-01-09T10:57:09Z</time>
      </trkpt>
      <trkpt lat="44.43024" lon="2.40306">
        <ele>438.4</ele>
        <time>2011-01-09T10:57:12Z</time>
      </trkpt>
      <trkpt lat="44.43027" lon="2.40302">
        <ele>437.8</ele>
        <time>2011-01-09T10:57:15Z</time>
      </trkpt>
      <trkpt lat="44.43029" lon="2.403">
        <ele>437.7</ele>
        <time>2011-01-09T10:57:17Z</time>
      </trkpt>
      <trkpt lat="44.43032" lon="2.40298">
        <ele>438</ele>
        <time>2011-01-09T10:57:19Z</time>
      </trkpt>
      <trkpt lat="44.43036" lon="2.40295">
        <ele>439.3</ele>
        <time>2011-01-09T10:57:22Z</time>
      </trkpt>
      <trkpt lat="44.43038" lon="2.40292">
        <ele>439.7</ele>
        <time>2011-01-09T10:57:24Z</time>
      </trkpt>
      <trkpt lat="44.43041" lon="2.40289">
        <ele>439.8</ele>
        <time>2011-01-09T10:57:26Z</time>
      </trkpt>
      <trkpt lat="44.43044" lon="2.40286">
        <ele>439.4</ele>
        <time>2011-01-09T10:57:28Z</time>
      </trkpt>
      <trkpt lat="44.43046" lon="2.40283">
        <ele>439.5</ele>
        <time>2011-01-09T10:57:30Z</time>
      </trkpt>
      <trkpt lat="44.43048" lon="2.4028">
        <ele>439.9</ele>
        <time>2011-01-09T10:57:32Z</time>
      </trkpt>
      <trkpt lat="44.43051" lon="2.40278">
        <ele>439.5</ele>
        <time>2011-01-09T10:57:34Z</time>
      </trkpt>
      <trkpt lat="44.43054" lon="2.40275">
        <ele>439.8</ele>
        <time>2011-01-09T10:57:36Z</time>
      </trkpt>
      <trkpt lat="44.43056" lon="2.40273">
        <ele>440.3</ele>
        <time>2011-01-09T10:57:38Z</time>
      </trkpt>
      <trkpt lat="44.43059" lon="2.4027">
        <ele>440.7</ele>
        <time>2011-01-09T10:57:40Z</time>
      </trkpt>
      <trkpt lat="44.43062" lon="2.40267">
        <ele>441</ele>
        <time>2011-01-09T10:57:42Z</time>
      </trkpt>
      <trkpt lat="44.43064" lon="2.40265">
        <ele>441.2</ele>
        <time>2011-01-09T10:57:44Z</time>
      </trkpt>
      <trkpt lat="44.43067" lon="2.40262">
        <ele>441.2</ele>
        <time>2011-01-09T10:57:46Z</time>
      </trkpt>
      <trkpt lat="44.4307" lon="2.40259">
        <ele>441.1</ele>
        <time>2011-01-09T10:57:48Z</time>
      </trkpt>
      <trkpt lat="44.43073" lon="2.40256">
        <ele>441</ele>
        <time>2011-01-09T10:57:50Z</time>
      </trkpt>
      <trkpt lat="44.43075" lon="2.40254">
        <ele>441.6</ele>
        <time>2011-01-09T10:57:52Z</time>
      </trkpt>
      <trkpt lat="44.43078" lon="2.40252">
        <ele>442.3</ele>
        <time>2011-01-09T10:57:54Z</time>
      </trkpt>
      <trkpt lat="44.43081" lon="2.4025">
        <ele>442.7</ele>
        <time>2011-01-09T10:57:56Z</time>
      </trkpt>
      <trkpt lat="44.43085" lon="2.40247">
        <ele>443.3</ele>
        <time>2011-01-09T10:57:59Z</time>
      </trkpt>
      <trkpt lat="44.43088" lon="2.40244">
        <ele>444.4</ele>
        <time>2011-01-09T10:58:02Z</time>
      </trkpt>
      <trkpt lat="44.43091" lon="2.40241">
        <ele>445.4</ele>
        <time>2011-01-09T10:58:05Z</time>
      </trkpt>
      <trkpt lat="44.43092" lon="2.4024">
        <ele>445.4</ele>
        <time>2011-01-09T10:58:06Z</time>
      </trkpt>
      <trkpt lat="44.43097" lon="2.40235">
        <ele>445.9</ele>
        <time>2011-01-09T10:58:11Z</time>
      </trkpt>
      <trkpt lat="44.43101" lon="2.40232">
        <ele>446.2</ele>
        <time>2011-01-09T10:58:14Z</time>
      </trkpt>
      <trkpt lat="44.43104" lon="2.40229">
        <ele>447.9</ele>
        <time>2011-01-09T10:58:17Z</time>
      </trkpt>
      <trkpt lat="44.43107" lon="2.40227">
        <ele>447.1</ele>
        <time>2011-01-09T10:58:20Z</time>
      </trkpt>
      <trkpt lat="44.4311" lon="2.40225">
        <ele>448.1</ele>
        <time>2011-01-09T10:58:23Z</time>
      </trkpt>
      <trkpt lat="44.43113" lon="2.40222">
        <ele>448.9</ele>
        <time>2011-01-09T10:58:26Z</time>
      </trkpt>
      <trkpt lat="44.43116" lon="2.40219">
        <ele>450.5</ele>
        <time>2011-01-09T10:58:29Z</time>
      </trkpt>
      <trkpt lat="44.4312" lon="2.40218">
        <ele>450.8</ele>
        <time>2011-01-09T10:58:32Z</time>
      </trkpt>
      <trkpt lat="44.43124" lon="2.40215">
        <ele>450.7</ele>
        <time>2011-01-09T10:58:36Z</time>
      </trkpt>
      <trkpt lat="44.43127" lon="2.40213">
        <ele>450.9</ele>
        <time>2011-01-09T10:58:40Z</time>
      </trkpt>
      <trkpt lat="44.43131" lon="2.40212">
        <ele>451.7</ele>
        <time>2011-01-09T10:58:44Z</time>
      </trkpt>
      <trkpt lat="44.43135" lon="2.40211">
        <ele>452.2</ele>
        <time>2011-01-09T10:58:47Z</time>
      </trkpt>
      <trkpt lat="44.43139" lon="2.40209">
        <ele>453.2</ele>
        <time>2011-01-09T10:58:50Z</time>
      </trkpt>
      <trkpt lat="44.43143" lon="2.40209">
        <ele>453.9</ele>
        <time>2011-01-09T10:58:53Z</time>
      </trkpt>
      <trkpt lat="44.43146" lon="2.40208">
        <ele>453.9</ele>
        <time>2011-01-09T10:58:56Z</time>
      </trkpt>
      <trkpt lat="44.4315" lon="2.40208">
        <ele>454.2</ele>
        <time>2011-01-09T10:58:59Z</time>
      </trkpt>
      <trkpt lat="44.43154" lon="2.40207">
        <ele>456.1</ele>
        <time>2011-01-09T10:59:02Z</time>
      </trkpt>
      <trkpt lat="44.43157" lon="2.40207">
        <ele>456.5</ele>
        <time>2011-01-09T10:59:05Z</time>
      </trkpt>
      <trkpt lat="44.43159" lon="2.40207">
        <ele>456.7</ele>
        <time>2011-01-09T10:59:06Z</time>
      </trkpt>
      <trkpt lat="44.43165" lon="2.40206">
        <ele>457.3</ele>
        <time>2011-01-09T10:59:11Z</time>
      </trkpt>
      <trkpt lat="44.43169" lon="2.40206">
        <ele>458</ele>
        <time>2011-01-09T10:59:14Z</time>
      </trkpt>
      <trkpt lat="44.43173" lon="2.40208">
        <ele>458.3</ele>
        <time>2011-01-09T10:59:17Z</time>
      </trkpt>
      <trkpt lat="44.43177" lon="2.40208">
        <ele>458.5</ele>
        <time>2011-01-09T10:59:20Z</time>
      </trkpt>
      <trkpt lat="44.43182" lon="2.40209">
        <ele>458.3</ele>
        <time>2011-01-09T10:59:23Z</time>
      </trkpt>
      <trkpt lat="44.43186" lon="2.4021">
        <ele>458.7</ele>
        <time>2011-01-09T10:59:26Z</time>
      </trkpt>
      <trkpt lat="44.4319" lon="2.40211">
        <ele>459.3</ele>
        <time>2011-01-09T10:59:29Z</time>
      </trkpt>
      <trkpt lat="44.43193" lon="2.40212">
        <ele>459.6</ele>
        <time>2011-01-09T10:59:31Z</time>
      </trkpt>
      <trkpt lat="44.43197" lon="2.40213">
        <ele>460.4</ele>
        <time>2011-01-09T10:59:33Z</time>
      </trkpt>
      <trkpt lat="44.432" lon="2.40214">
        <ele>460.7</ele>
        <time>2011-01-09T10:59:35Z</time>
      </trkpt>
      <trkpt lat="44.43204" lon="2.40214">
        <ele>460.9</ele>
        <time>2011-01-09T10:59:37Z</time>
      </trkpt>
      <trkpt lat="44.43207" lon="2.40214">
        <ele>461</ele>
        <time>2011-01-09T10:59:39Z</time>
      </trkpt>
      <trkpt lat="44.4321" lon="2.40213">
        <ele>461.3</ele>
        <time>2011-01-09T10:59:41Z</time>
      </trkpt>
      <trkpt lat="44.43213" lon="2.40212">
        <ele>461.6</ele>
        <time>2011-01-09T10:59:43Z</time>
      </trkpt>
      <trkpt lat="44.43218" lon="2.4021">
        <ele>462.4</ele>
        <time>2011-01-09T10:59:46Z</time>
      </trkpt>
      <trkpt lat="44.43221" lon="2.40206">
        <ele>463.2</ele>
        <time>2011-01-09T10:59:49Z</time>
      </trkpt>
      <trkpt lat="44.43224" lon="2.40202">
        <ele>463.2</ele>
        <time>2011-01-09T10:59:52Z</time>
      </trkpt>
      <trkpt lat="44.43226" lon="2.40198">
        <ele>463.2</ele>
        <time>2011-01-09T10:59:55Z</time>
      </trkpt>
      <trkpt lat="44.43227" lon="2.40192">
        <ele>464.4</ele>
        <time>2011-01-09T10:59:58Z</time>
      </trkpt>
      <trkpt lat="44.43227" lon="2.40187">
        <ele>465.4</ele>
        <time>2011-01-09T11:00:01Z</time>
      </trkpt>
      <trkpt lat="44.43225" lon="2.40181">
        <ele>466.3</ele>
        <time>2011-01-09T11:00:04Z</time>
      </trkpt>
      <trkpt lat="44.43223" lon="2.40177">
        <ele>466.9</ele>
        <time>2011-01-09T11:00:07Z</time>
      </trkpt>
      <trkpt lat="44.43222" lon="2.40175">
        <ele>467.1</ele>
        <time>2011-01-09T11:00:08Z</time>
      </trkpt>
      <trkpt lat="44.43218" lon="2.40168">
        <ele>468.1</ele>
        <time>2011-01-09T11:00:13Z</time>
      </trkpt>
      <trkpt lat="44.43215" lon="2.40164">
        <ele>468.2</ele>
        <time>2011-01-09T11:00:16Z</time>
      </trkpt>
      <trkpt lat="44.43212" lon="2.40161">
        <ele>468.7</ele>
        <time>2011-01-09T11:00:19Z</time>
      </trkpt>
      <trkpt lat="44.43208" lon="2.40158">
        <ele>469.5</ele>
        <time>2011-01-09T11:00:22Z</time>
      </trkpt>
      <trkpt lat="44.43205" lon="2.40155">
        <ele>470.6</ele>
        <time>2011-01-09T11:00:25Z</time>
      </trkpt>
      <trkpt lat="44.43202" lon="2.40151">
        <ele>472</ele>
        <time>2011-01-09T11:00:30Z</time>
      </trkpt>
      <trkpt lat="44.43199" lon="2.40149">
        <ele>470.4</ele>
        <time>2011-01-09T11:00:52Z</time>
      </trkpt>
      <trkpt lat="44.43195" lon="2.40146">
        <ele>470.4</ele>
        <time>2011-01-09T11:00:55Z</time>
      </trkpt>
      <trkpt lat="44.43192" lon="2.40144">
        <ele>470.9</ele>
        <time>2011-01-09T11:00:57Z</time>
      </trkpt>
      <trkpt lat="44.43189" lon="2.40142">
        <ele>471.5</ele>
        <time>2011-01-09T11:00:59Z</time>
      </trkpt>
      <trkpt lat="44.43186" lon="2.40139">
        <ele>471.9</ele>
        <time>2011-01-09T11:01:01Z</time>
      </trkpt>
      <trkpt lat="44.43183" lon="2.40137">
        <ele>472.2</ele>
        <time>2011-01-09T11:01:03Z</time>
      </trkpt>
      <trkpt lat="44.43179" lon="2.40134">
        <ele>472.3</ele>
        <time>2011-01-09T11:01:05Z</time>
      </trkpt>
      <trkpt lat="44.43177" lon="2.40133">
        <ele>472.3</ele>
        <time>2011-01-09T11:01:06Z</time>
      </trkpt>
      <trkpt lat="44.43173" lon="2.40132">
        <ele>472.8</ele>
        <time>2011-01-09T11:01:08Z</time>
      </trkpt>
      <trkpt lat="44.43168" lon="2.4013">
        <ele>473</ele>
        <time>2011-01-09T11:01:10Z</time>
      </trkpt>
      <trkpt lat="44.43166" lon="2.40129">
        <ele>473</ele>
        <time>2011-01-09T11:01:11Z</time>
      </trkpt>
      <trkpt lat="44.43164" lon="2.40128">
        <ele>473.1</ele>
        <time>2011-01-09T11:01:12Z</time>
      </trkpt>
      <trkpt lat="44.4316" lon="2.40126">
        <ele>473.3</ele>
        <time>2011-01-09T11:01:14Z</time>
      </trkpt>
      <trkpt lat="44.43156" lon="2.40125">
        <ele>473.5</ele>
        <time>2011-01-09T11:01:16Z</time>
      </trkpt>
      <trkpt lat="44.43153" lon="2.40125">
        <ele>473.4</ele>
        <time>2011-01-09T11:01:17Z</time>
      </trkpt>
      <trkpt lat="44.43151" lon="2.40125">
        <ele>473.2</ele>
        <time>2011-01-09T11:01:18Z</time>
      </trkpt>
      <trkpt lat="44.43149" lon="2.40124">
        <ele>473.1</ele>
        <time>2011-01-09T11:01:19Z</time>
      </trkpt>
      <trkpt lat="44.43146" lon="2.40124">
        <ele>473.2</ele>
        <time>2011-01-09T11:01:20Z</time>
      </trkpt>
      <trkpt lat="44.43142" lon="2.40124">
        <ele>473.3</ele>
        <time>2011-01-09T11:01:22Z</time>
      </trkpt>
      <trkpt lat="44.4314" lon="2.40124">
        <ele>473.5</ele>
        <time>2011-01-09T11:01:23Z</time>
      </trkpt>
      <trkpt lat="44.43137" lon="2.40124">
        <ele>473.6</ele>
        <time>2011-01-09T11:01:24Z</time>
      </trkpt>
      <trkpt lat="44.43133" lon="2.40124">
        <ele>474</ele>
        <time>2011-01-09T11:01:26Z</time>
      </trkpt>
      <trkpt lat="44.43129" lon="2.40124">
        <ele>474.3</ele>
        <time>2011-01-09T11:01:28Z</time>
      </trkpt>
      <trkpt lat="44.43124" lon="2.40124">
        <ele>474.4</ele>
        <time>2011-01-09T11:01:30Z</time>
      </trkpt>
      <trkpt lat="44.4312" lon="2.40123">
        <ele>474.4</ele>
        <time>2011-01-09T11:01:32Z</time>
      </trkpt>
      <trkpt lat="44.43116" lon="2.40122">
        <ele>475</ele>
        <time>2011-01-09T11:01:34Z</time>
      </trkpt>
      <trkpt lat="44.43112" lon="2.40121">
        <ele>475.4</ele>
        <time>2011-01-09T11:01:36Z</time>
      </trkpt>
      <trkpt lat="44.43109" lon="2.40119">
        <ele>475.7</ele>
        <time>2011-01-09T11:01:38Z</time>
      </trkpt>
      <trkpt lat="44.43106" lon="2.40116">
        <ele>476</ele>
        <time>2011-01-09T11:01:40Z</time>
      </trkpt>
      <trkpt lat="44.43103" lon="2.40111">
        <ele>476.5</ele>
        <time>2011-01-09T11:01:42Z</time>
      </trkpt>
      <trkpt lat="44.43101" lon="2.40108">
        <ele>477</ele>
        <time>2011-01-09T11:01:44Z</time>
      </trkpt>
      <trkpt lat="44.431" lon="2.40104">
        <ele>477.4</ele>
        <time>2011-01-09T11:01:46Z</time>
      </trkpt>
      <trkpt lat="44.431" lon="2.40099">
        <ele>477.6</ele>
        <time>2011-01-09T11:01:48Z</time>
      </trkpt>
      <trkpt lat="44.431" lon="2.40095">
        <ele>477.7</ele>
        <time>2011-01-09T11:01:50Z</time>
      </trkpt>
      <trkpt lat="44.431" lon="2.40091">
        <ele>478.3</ele>
        <time>2011-01-09T11:01:52Z</time>
      </trkpt>
      <trkpt lat="44.43101" lon="2.40087">
        <ele>479.1</ele>
        <time>2011-01-09T11:01:54Z</time>
      </trkpt>
      <trkpt lat="44.43103" lon="2.40083">
        <ele>479.9</ele>
        <time>2011-01-09T11:01:56Z</time>
      </trkpt>
      <trkpt lat="44.43105" lon="2.40079">
        <ele>480.4</ele>
        <time>2011-01-09T11:01:58Z</time>
      </trkpt>
      <trkpt lat="44.43107" lon="2.40075">
        <ele>480.7</ele>
        <time>2011-01-09T11:02:00Z</time>
      </trkpt>
      <trkpt lat="44.43109" lon="2.40071">
        <ele>481</ele>
        <time>2011-01-09T11:02:02Z</time>
      </trkpt>
      <trkpt lat="44.43112" lon="2.40069">
        <ele>481.3</ele>
        <time>2011-01-09T11:02:04Z</time>
      </trkpt>
      <trkpt lat="44.43114" lon="2.40066">
        <ele>481.7</ele>
        <time>2011-01-09T11:02:06Z</time>
      </trkpt>
      <trkpt lat="44.43117" lon="2.40063">
        <ele>482.3</ele>
        <time>2011-01-09T11:02:08Z</time>
      </trkpt>
      <trkpt lat="44.4312" lon="2.4006">
        <ele>482.9</ele>
        <time>2011-01-09T11:02:10Z</time>
      </trkpt>
      <trkpt lat="44.43123" lon="2.40057">
        <ele>483.4</ele>
        <time>2011-01-09T11:02:12Z</time>
      </trkpt>
      <trkpt lat="44.43124" lon="2.40056">
        <ele>483.6</ele>
        <time>2011-01-09T11:02:13Z</time>
      </trkpt>
      <trkpt lat="44.43129" lon="2.40051">
        <ele>483.6</ele>
        <time>2011-01-09T11:02:16Z</time>
      </trkpt>
      <trkpt lat="44.4313" lon="2.40046">
        <ele>483.3</ele>
        <time>2011-01-09T11:02:18Z</time>
      </trkpt>
      <trkpt lat="44.43132" lon="2.40041">
        <ele>483.2</ele>
        <time>2011-01-09T11:02:20Z</time>
      </trkpt>
      <trkpt lat="44.43133" lon="2.40036">
        <ele>483.8</ele>
        <time>2011-01-09T11:02:22Z</time>
      </trkpt>
      <trkpt lat="44.43133" lon="2.4003">
        <ele>484</ele>
        <time>2011-01-09T11:02:24Z</time>
      </trkpt>
      <trkpt lat="44.43132" lon="2.40026">
        <ele>484.1</ele>
        <time>2011-01-09T11:02:26Z</time>
      </trkpt>
      <trkpt lat="44.43131" lon="2.40022">
        <ele>484.8</ele>
        <time>2011-01-09T11:02:28Z</time>
      </trkpt>
      <trkpt lat="44.4313" lon="2.40017">
        <ele>485.2</ele>
        <time>2011-01-09T11:02:30Z</time>
      </trkpt>
      <trkpt lat="44.43129" lon="2.40013">
        <ele>485.4</ele>
        <time>2011-01-09T11:02:32Z</time>
      </trkpt>
      <trkpt lat="44.43128" lon="2.40009">
        <ele>485.4</ele>
        <time>2011-01-09T11:02:34Z</time>
      </trkpt>
      <trkpt lat="44.43127" lon="2.40005">
        <ele>485.4</ele>
        <time>2011-01-09T11:02:36Z</time>
      </trkpt>
      <trkpt lat="44.43126" lon="2.40001">
        <ele>486.1</ele>
        <time>2011-01-09T11:02:38Z</time>
      </trkpt>
      <trkpt lat="44.43125" lon="2.39996">
        <ele>486.4</ele>
        <time>2011-01-09T11:02:40Z</time>
      </trkpt>
      <trkpt lat="44.43124" lon="2.39992">
        <ele>486.6</ele>
        <time>2011-01-09T11:02:42Z</time>
      </trkpt>
      <trkpt lat="44.43123" lon="2.39988">
        <ele>486.7</ele>
        <time>2011-01-09T11:02:44Z</time>
      </trkpt>
      <trkpt lat="44.43122" lon="2.39984">
        <ele>486.8</ele>
        <time>2011-01-09T11:02:46Z</time>
      </trkpt>
      <trkpt lat="44.4312" lon="2.39978">
        <ele>487.1</ele>
        <time>2011-01-09T11:02:49Z</time>
      </trkpt>
      <trkpt lat="44.43119" lon="2.39974">
        <ele>487.3</ele>
        <time>2011-01-09T11:02:51Z</time>
      </trkpt>
      <trkpt lat="44.43118" lon="2.39969">
        <ele>487.4</ele>
        <time>2011-01-09T11:02:53Z</time>
      </trkpt>
      <trkpt lat="44.43116" lon="2.39964">
        <ele>487.7</ele>
        <time>2011-01-09T11:02:56Z</time>
      </trkpt>
      <trkpt lat="44.43115" lon="2.39959">
        <ele>488</ele>
        <time>2011-01-09T11:02:59Z</time>
      </trkpt>
      <trkpt lat="44.43113" lon="2.39955">
        <ele>488.2</ele>
        <time>2011-01-09T11:03:01Z</time>
      </trkpt>
      <trkpt lat="44.43111" lon="2.39951">
        <ele>488.6</ele>
        <time>2011-01-09T11:03:03Z</time>
      </trkpt>
      <trkpt lat="44.4311" lon="2.39947">
        <ele>489.2</ele>
        <time>2011-01-09T11:03:05Z</time>
      </trkpt>
      <trkpt lat="44.43108" lon="2.39943">
        <ele>489.8</ele>
        <time>2011-01-09T11:03:07Z</time>
      </trkpt>
      <trkpt lat="44.43107" lon="2.39939">
        <ele>489.9</ele>
        <time>2011-01-09T11:03:09Z</time>
      </trkpt>
      <trkpt lat="44.43106" lon="2.39935">
        <ele>489.8</ele>
        <time>2011-01-09T11:03:11Z</time>
      </trkpt>
      <trkpt lat="44.43105" lon="2.39931">
        <ele>489.6</ele>
        <time>2011-01-09T11:03:13Z</time>
      </trkpt>
      <trkpt lat="44.43103" lon="2.39926">
        <ele>490.1</ele>
        <time>2011-01-09T11:03:15Z</time>
      </trkpt>
      <trkpt lat="44.43103" lon="2.39924">
        <ele>490.4</ele>
        <time>2011-01-09T11:03:16Z</time>
      </trkpt>
      <trkpt lat="44.43101" lon="2.39918">
        <ele>490.9</ele>
        <time>2011-01-09T11:03:19Z</time>
      </trkpt>
      <trkpt lat="44.431" lon="2.39912">
        <ele>491.2</ele>
        <time>2011-01-09T11:03:22Z</time>
      </trkpt>
      <trkpt lat="44.43099" lon="2.39907">
        <ele>492.3</ele>
        <time>2011-01-09T11:03:25Z</time>
      </trkpt>
      <trkpt lat="44.43097" lon="2.39903">
        <ele>493</ele>
        <time>2011-01-09T11:03:28Z</time>
      </trkpt>
      <trkpt lat="44.43094" lon="2.39899">
        <ele>493.4</ele>
        <time>2011-01-09T11:03:31Z</time>
      </trkpt>
      <trkpt lat="44.43091" lon="2.39896">
        <ele>493.6</ele>
        <time>2011-01-09T11:03:35Z</time>
      </trkpt>
      <trkpt lat="44.43088" lon="2.39896">
        <ele>494.1</ele>
        <time>2011-01-09T11:03:39Z</time>
      </trkpt>
      <trkpt lat="44.43084" lon="2.39896">
        <ele>495.7</ele>
        <time>2011-01-09T11:03:42Z</time>
      </trkpt>
      <trkpt lat="44.4308" lon="2.39897">
        <ele>495.6</ele>
        <time>2011-01-09T11:03:46Z</time>
      </trkpt>
      <trkpt lat="44.43077" lon="2.39898">
        <ele>495.7</ele>
        <time>2011-01-09T11:03:53Z</time>
      </trkpt>
      <trkpt lat="44.43073" lon="2.39899">
        <ele>496.1</ele>
        <time>2011-01-09T11:03:56Z</time>
      </trkpt>
      <trkpt lat="44.43069" lon="2.399">
        <ele>496.5</ele>
        <time>2011-01-09T11:03:59Z</time>
      </trkpt>
      <trkpt lat="44.43065" lon="2.39901">
        <ele>497</ele>
        <time>2011-01-09T11:04:02Z</time>
      </trkpt>
      <trkpt lat="44.43061" lon="2.399">
        <ele>498.1</ele>
        <time>2011-01-09T11:04:05Z</time>
      </trkpt>
      <trkpt lat="44.43058" lon="2.39899">
        <ele>498.6</ele>
        <time>2011-01-09T11:04:07Z</time>
      </trkpt>
      <trkpt lat="44.43055" lon="2.39897">
        <ele>498.7</ele>
        <time>2011-01-09T11:04:09Z</time>
      </trkpt>
      <trkpt lat="44.43052" lon="2.39896">
        <ele>498.6</ele>
        <time>2011-01-09T11:04:11Z</time>
      </trkpt>
      <trkpt lat="44.43048" lon="2.39895">
        <ele>499.2</ele>
        <time>2011-01-09T11:04:14Z</time>
      </trkpt>
      <trkpt lat="44.43045" lon="2.39891">
        <ele>500</ele>
        <time>2011-01-09T11:04:17Z</time>
      </trkpt>
      <trkpt lat="44.43044" lon="2.39889">
        <ele>500.2</ele>
        <time>2011-01-09T11:04:18Z</time>
      </trkpt>
      <trkpt lat="44.43042" lon="2.39882">
        <ele>501.3</ele>
        <time>2011-01-09T11:04:22Z</time>
      </trkpt>
      <trkpt lat="44.43042" lon="2.39876">
        <ele>501.7</ele>
        <time>2011-01-09T11:04:26Z</time>
      </trkpt>
      <trkpt lat="44.43044" lon="2.39871">
        <ele>503</ele>
        <time>2011-01-09T11:04:30Z</time>
      </trkpt>
      <trkpt lat="44.43045" lon="2.39866">
        <ele>503.6</ele>
        <time>2011-01-09T11:04:33Z</time>
      </trkpt>
      <trkpt lat="44.43048" lon="2.39862">
        <ele>504.3</ele>
        <time>2011-01-09T11:04:37Z</time>
      </trkpt>
      <trkpt lat="44.43051" lon="2.39858">
        <ele>504.6</ele>
        <time>2011-01-09T11:04:40Z</time>
      </trkpt>
      <trkpt lat="44.43054" lon="2.39854">
        <ele>505</ele>
        <time>2011-01-09T11:04:44Z</time>
      </trkpt>
      <trkpt lat="44.43057" lon="2.3985">
        <ele>505.4</ele>
        <time>2011-01-09T11:04:48Z</time>
      </trkpt>
      <trkpt lat="44.43059" lon="2.39845">
        <ele>506.2</ele>
        <time>2011-01-09T11:04:52Z</time>
      </trkpt>
      <trkpt lat="44.43063" lon="2.39841">
        <ele>506.9</ele>
        <time>2011-01-09T11:04:56Z</time>
      </trkpt>
      <trkpt lat="44.43066" lon="2.39839">
        <ele>507.6</ele>
        <time>2011-01-09T11:04:59Z</time>
      </trkpt>
      <trkpt lat="44.43069" lon="2.39836">
        <ele>507.2</ele>
        <time>2011-01-09T11:05:02Z</time>
      </trkpt>
      <trkpt lat="44.43071" lon="2.39832">
        <ele>508.2</ele>
        <time>2011-01-09T11:05:05Z</time>
      </trkpt>
      <trkpt lat="44.43074" lon="2.39829">
        <ele>508.7</ele>
        <time>2011-01-09T11:05:08Z</time>
      </trkpt>
      <trkpt lat="44.43075" lon="2.39825">
        <ele>509</ele>
        <time>2011-01-09T11:05:10Z</time>
      </trkpt>
      <trkpt lat="44.43078" lon="2.39821">
        <ele>509.7</ele>
        <time>2011-01-09T11:05:14Z</time>
      </trkpt>
      <trkpt lat="44.43081" lon="2.39817">
        <ele>511.6</ele>
        <time>2011-01-09T11:05:18Z</time>
      </trkpt>
      <trkpt lat="44.43081" lon="2.39816">
        <ele>511.4</ele>
        <time>2011-01-09T11:05:19Z</time>
      </trkpt>
      <trkpt lat="44.43083" lon="2.39807">
        <ele>511.4</ele>
        <time>2011-01-09T11:05:28Z</time>
      </trkpt>
      <trkpt lat="44.43082" lon="2.39801">
        <ele>513.6</ele>
        <time>2011-01-09T11:05:34Z</time>
      </trkpt>
      <trkpt lat="44.43081" lon="2.39795">
        <ele>514.8</ele>
        <time>2011-01-09T11:05:38Z</time>
      </trkpt>
      <trkpt lat="44.43079" lon="2.39792">
        <ele>514.6</ele>
        <time>2011-01-09T11:05:41Z</time>
      </trkpt>
      <trkpt lat="44.43077" lon="2.39787">
        <ele>514.4</ele>
        <time>2011-01-09T11:05:44Z</time>
      </trkpt>
      <trkpt lat="44.43076" lon="2.39783">
        <ele>515.1</ele>
        <time>2011-01-09T11:05:47Z</time>
      </trkpt>
      <trkpt lat="44.43074" lon="2.39778">
        <ele>515.6</ele>
        <time>2011-01-09T11:05:51Z</time>
      </trkpt>
      <trkpt lat="44.43072" lon="2.39774">
        <ele>516.4</ele>
        <time>2011-01-09T11:05:55Z</time>
      </trkpt>
      <trkpt lat="44.4307" lon="2.3977">
        <ele>517.4</ele>
        <time>2011-01-09T11:05:58Z</time>
      </trkpt>
      <trkpt lat="44.43068" lon="2.39766">
        <ele>517.9</ele>
        <time>2011-01-09T11:06:01Z</time>
      </trkpt>
      <trkpt lat="44.43066" lon="2.3976">
        <ele>518.6</ele>
        <time>2011-01-09T11:06:05Z</time>
      </trkpt>
      <trkpt lat="44.43064" lon="2.39756">
        <ele>518.6</ele>
        <time>2011-01-09T11:06:08Z</time>
      </trkpt>
      <trkpt lat="44.43063" lon="2.3975">
        <ele>518.8</ele>
        <time>2011-01-09T11:06:11Z</time>
      </trkpt>
      <trkpt lat="44.43062" lon="2.39745">
        <ele>518.9</ele>
        <time>2011-01-09T11:06:14Z</time>
      </trkpt>
      <trkpt lat="44.43059" lon="2.3974">
        <ele>519.4</ele>
        <time>2011-01-09T11:06:17Z</time>
      </trkpt>
      <trkpt lat="44.43057" lon="2.39735">
        <ele>520.5</ele>
        <time>2011-01-09T11:06:20Z</time>
      </trkpt>
      <trkpt lat="44.43056" lon="2.39733">
        <ele>520.8</ele>
        <time>2011-01-09T11:06:21Z</time>
      </trkpt>
      <trkpt lat="44.43053" lon="2.39726">
        <ele>520.2</ele>
        <time>2011-01-09T11:06:25Z</time>
      </trkpt>
      <trkpt lat="44.43051" lon="2.39721">
        <ele>521.2</ele>
        <time>2011-01-09T11:06:28Z</time>
      </trkpt>
      <trkpt lat="44.4305" lon="2.39717">
        <ele>521.5</ele>
        <time>2011-01-09T11:06:31Z</time>
      </trkpt>
      <trkpt lat="44.43048" lon="2.39713">
        <ele>521.8</ele>
        <time>2011-01-09T11:06:33Z</time>
      </trkpt>
      <trkpt lat="44.43047" lon="2.39709">
        <ele>522.3</ele>
        <time>2011-01-09T11:06:35Z</time>
      </trkpt>
      <trkpt lat="44.43045" lon="2.39705">
        <ele>522.6</ele>
        <time>2011-01-09T11:06:37Z</time>
      </trkpt>
      <trkpt lat="44.43043" lon="2.39701">
        <ele>522.9</ele>
        <time>2011-01-09T11:06:39Z</time>
      </trkpt>
      <trkpt lat="44.43042" lon="2.39696">
        <ele>523.1</ele>
        <time>2011-01-09T11:06:41Z</time>
      </trkpt>
      <trkpt lat="44.4304" lon="2.39691">
        <ele>523.4</ele>
        <time>2011-01-09T11:06:43Z</time>
      </trkpt>
      <trkpt lat="44.43039" lon="2.39687">
        <ele>523.6</ele>
        <time>2011-01-09T11:06:45Z</time>
      </trkpt>
      <trkpt lat="44.43038" lon="2.39682">
        <ele>523.5</ele>
        <time>2011-01-09T11:06:47Z</time>
      </trkpt>
      <trkpt lat="44.43037" lon="2.39677">
        <ele>523.6</ele>
        <time>2011-01-09T11:06:49Z</time>
      </trkpt>
      <trkpt lat="44.43036" lon="2.39673">
        <ele>523.8</ele>
        <time>2011-01-09T11:06:51Z</time>
      </trkpt>
      <trkpt lat="44.43035" lon="2.39669">
        <ele>523.6</ele>
        <time>2011-01-09T11:06:53Z</time>
      </trkpt>
      <trkpt lat="44.43034" lon="2.39664">
        <ele>523.6</ele>
        <time>2011-01-09T11:06:55Z</time>
      </trkpt>
      <trkpt lat="44.43032" lon="2.3966">
        <ele>523.6</ele>
        <time>2011-01-09T11:06:57Z</time>
      </trkpt>
      <trkpt lat="44.43031" lon="2.39655">
        <ele>523.7</ele>
        <time>2011-01-09T11:06:59Z</time>
      </trkpt>
      <trkpt lat="44.4303" lon="2.3965">
        <ele>523.7</ele>
        <time>2011-01-09T11:07:01Z</time>
      </trkpt>
      <trkpt lat="44.4303" lon="2.39646">
        <ele>524.1</ele>
        <time>2011-01-09T11:07:03Z</time>
      </trkpt>
      <trkpt lat="44.43028" lon="2.39641">
        <ele>524.6</ele>
        <time>2011-01-09T11:07:05Z</time>
      </trkpt>
      <trkpt lat="44.43027" lon="2.39637">
        <ele>525.2</ele>
        <time>2011-01-09T11:07:07Z</time>
      </trkpt>
      <trkpt lat="44.43026" lon="2.39633">
        <ele>526.1</ele>
        <time>2011-01-09T11:07:09Z</time>
      </trkpt>
      <trkpt lat="44.43024" lon="2.39629">
        <ele>526.3</ele>
        <time>2011-01-09T11:07:11Z</time>
      </trkpt>
      <trkpt lat="44.43022" lon="2.39625">
        <ele>526.2</ele>
        <time>2011-01-09T11:07:13Z</time>
      </trkpt>
      <trkpt lat="44.43022" lon="2.39621">
        <ele>526.3</ele>
        <time>2011-01-09T11:07:15Z</time>
      </trkpt>
      <trkpt lat="44.4302" lon="2.39617">
        <ele>526.3</ele>
        <time>2011-01-09T11:07:17Z</time>
      </trkpt>
      <trkpt lat="44.43018" lon="2.39613">
        <ele>526</ele>
        <time>2011-01-09T11:07:19Z</time>
      </trkpt>
      <trkpt lat="44.43017" lon="2.39609">
        <ele>526.4</ele>
        <time>2011-01-09T11:07:21Z</time>
      </trkpt>
      <trkpt lat="44.43016" lon="2.39606">
        <ele>526.8</ele>
        <time>2011-01-09T11:07:22Z</time>
      </trkpt>
      <trkpt lat="44.43014" lon="2.39599">
        <ele>526.7</ele>
        <time>2011-01-09T11:07:25Z</time>
      </trkpt>
      <trkpt lat="44.43012" lon="2.39594">
        <ele>526.6</ele>
        <time>2011-01-09T11:07:27Z</time>
      </trkpt>
      <trkpt lat="44.43011" lon="2.3959">
        <ele>526.6</ele>
        <time>2011-01-09T11:07:29Z</time>
      </trkpt>
      <trkpt lat="44.43009" lon="2.39585">
        <ele>526.6</ele>
        <time>2011-01-09T11:07:31Z</time>
      </trkpt>
      <trkpt lat="44.43008" lon="2.39581">
        <ele>526.5</ele>
        <time>2011-01-09T11:07:33Z</time>
      </trkpt>
      <trkpt lat="44.43007" lon="2.39576">
        <ele>526.5</ele>
        <time>2011-01-09T11:07:35Z</time>
      </trkpt>
      <trkpt lat="44.43006" lon="2.39571">
        <ele>527.2</ele>
        <time>2011-01-09T11:07:37Z</time>
      </trkpt>
      <trkpt lat="44.43005" lon="2.39567">
        <ele>528.1</ele>
        <time>2011-01-09T11:07:39Z</time>
      </trkpt>
      <trkpt lat="44.43003" lon="2.39562">
        <ele>527.8</ele>
        <time>2011-01-09T11:07:41Z</time>
      </trkpt>
      <trkpt lat="44.43002" lon="2.39558">
        <ele>527.6</ele>
        <time>2011-01-09T11:07:43Z</time>
      </trkpt>
      <trkpt lat="44.43001" lon="2.39554">
        <ele>527.4</ele>
        <time>2011-01-09T11:07:45Z</time>
      </trkpt>
      <trkpt lat="44.43" lon="2.39549">
        <ele>528</ele>
        <time>2011-01-09T11:07:47Z</time>
      </trkpt>
      <trkpt lat="44.42999" lon="2.39545">
        <ele>528.3</ele>
        <time>2011-01-09T11:07:49Z</time>
      </trkpt>
      <trkpt lat="44.42997" lon="2.3954">
        <ele>528.3</ele>
        <time>2011-01-09T11:07:51Z</time>
      </trkpt>
      <trkpt lat="44.42996" lon="2.39536">
        <ele>528.4</ele>
        <time>2011-01-09T11:07:53Z</time>
      </trkpt>
      <trkpt lat="44.42994" lon="2.39532">
        <ele>528.5</ele>
        <time>2011-01-09T11:07:55Z</time>
      </trkpt>
      <trkpt lat="44.42993" lon="2.39528">
        <ele>529.5</ele>
        <time>2011-01-09T11:07:57Z</time>
      </trkpt>
      <trkpt lat="44.42992" lon="2.39524">
        <ele>530.2</ele>
        <time>2011-01-09T11:07:59Z</time>
      </trkpt>
      <trkpt lat="44.42991" lon="2.3952">
        <ele>530.7</ele>
        <time>2011-01-09T11:08:01Z</time>
      </trkpt>
      <trkpt lat="44.4299" lon="2.39516">
        <ele>530.9</ele>
        <time>2011-01-09T11:08:03Z</time>
      </trkpt>
      <trkpt lat="44.42987" lon="2.39511">
        <ele>531.3</ele>
        <time>2011-01-09T11:08:06Z</time>
      </trkpt>
      <trkpt lat="44.42985" lon="2.39506">
        <ele>531.7</ele>
        <time>2011-01-09T11:08:09Z</time>
      </trkpt>
      <trkpt lat="44.42984" lon="2.39501">
        <ele>532</ele>
        <time>2011-01-09T11:08:12Z</time>
      </trkpt>
      <trkpt lat="44.42982" lon="2.39496">
        <ele>532.5</ele>
        <time>2011-01-09T11:08:15Z</time>
      </trkpt>
      <trkpt lat="44.42978" lon="2.39492">
        <ele>533.8</ele>
        <time>2011-01-09T11:08:19Z</time>
      </trkpt>
      <trkpt lat="44.42977" lon="2.39487">
        <ele>534.2</ele>
        <time>2011-01-09T11:08:23Z</time>
      </trkpt>
      <trkpt lat="44.42976" lon="2.39485">
        <ele>534.2</ele>
        <time>2011-01-09T11:08:24Z</time>
      </trkpt>
      <trkpt lat="44.42971" lon="2.39478">
        <ele>534.7</ele>
        <time>2011-01-09T11:08:31Z</time>
      </trkpt>
      <trkpt lat="44.42968" lon="2.39473">
        <ele>535.9</ele>
        <time>2011-01-09T11:08:35Z</time>
      </trkpt>
      <trkpt lat="44.42967" lon="2.39469">
        <ele>536.3</ele>
        <time>2011-01-09T11:08:38Z</time>
      </trkpt>
      <trkpt lat="44.42964" lon="2.39466">
        <ele>536.9</ele>
        <time>2011-01-09T11:08:41Z</time>
      </trkpt>
      <trkpt lat="44.42962" lon="2.39461">
        <ele>537.9</ele>
        <time>2011-01-09T11:08:44Z</time>
      </trkpt>
      <trkpt lat="44.4296" lon="2.39456">
        <ele>538.2</ele>
        <time>2011-01-09T11:08:47Z</time>
      </trkpt>
      <trkpt lat="44.42959" lon="2.39451">
        <ele>538.6</ele>
        <time>2011-01-09T11:08:50Z</time>
      </trkpt>
      <trkpt lat="44.42956" lon="2.39448">
        <ele>539.4</ele>
        <time>2011-01-09T11:08:53Z</time>
      </trkpt>
      <trkpt lat="44.42955" lon="2.39443">
        <ele>539.6</ele>
        <time>2011-01-09T11:08:56Z</time>
      </trkpt>
      <trkpt lat="44.42952" lon="2.39438">
        <ele>539.7</ele>
        <time>2011-01-09T11:09:00Z</time>
      </trkpt>
      <trkpt lat="44.42949" lon="2.39435">
        <ele>540</ele>
        <time>2011-01-09T11:09:03Z</time>
      </trkpt>
      <trkpt lat="44.42946" lon="2.39432">
        <ele>541.4</ele>
        <time>2011-01-09T11:09:06Z</time>
      </trkpt>
      <trkpt lat="44.42943" lon="2.39428">
        <ele>542.7</ele>
        <time>2011-01-09T11:09:10Z</time>
      </trkpt>
      <trkpt lat="44.4294" lon="2.39427">
        <ele>543.3</ele>
        <time>2011-01-09T11:09:16Z</time>
      </trkpt>
      <trkpt lat="44.42936" lon="2.39425">
        <ele>543.8</ele>
        <time>2011-01-09T11:09:20Z</time>
      </trkpt>
      <trkpt lat="44.42931" lon="2.39426">
        <ele>544.2</ele>
        <time>2011-01-09T11:09:26Z</time>
      </trkpt>
      <trkpt lat="44.4293" lon="2.39426">
        <ele>544.4</ele>
        <time>2011-01-09T11:09:27Z</time>
      </trkpt>
      <trkpt lat="44.42923" lon="2.39427">
        <ele>545.5</ele>
        <time>2011-01-09T11:09:36Z</time>
      </trkpt>
      <trkpt lat="44.4292" lon="2.39429">
        <ele>547</ele>
        <time>2011-01-09T11:09:41Z</time>
      </trkpt>
      <trkpt lat="44.42915" lon="2.39429">
        <ele>548.1</ele>
        <time>2011-01-09T11:09:46Z</time>
      </trkpt>
      <trkpt lat="44.42911" lon="2.3943">
        <ele>548.1</ele>
        <time>2011-01-09T11:09:50Z</time>
      </trkpt>
      <trkpt lat="44.42908" lon="2.39428">
        <ele>548.7</ele>
        <time>2011-01-09T11:09:54Z</time>
      </trkpt>
      <trkpt lat="44.42904" lon="2.39426">
        <ele>549.5</ele>
        <time>2011-01-09T11:09:57Z</time>
      </trkpt>
      <trkpt lat="44.42901" lon="2.39425">
        <ele>549.9</ele>
        <time>2011-01-09T11:10:00Z</time>
      </trkpt>
      <trkpt lat="44.42897" lon="2.39424">
        <ele>550.3</ele>
        <time>2011-01-09T11:10:03Z</time>
      </trkpt>
      <trkpt lat="44.42895" lon="2.3942">
        <ele>550.6</ele>
        <time>2011-01-09T11:10:06Z</time>
      </trkpt>
      <trkpt lat="44.42892" lon="2.39416">
        <ele>550.7</ele>
        <time>2011-01-09T11:10:09Z</time>
      </trkpt>
      <trkpt lat="44.42889" lon="2.39413">
        <ele>552.4</ele>
        <time>2011-01-09T11:10:12Z</time>
      </trkpt>
      <trkpt lat="44.42887" lon="2.39409">
        <ele>551.6</ele>
        <time>2011-01-09T11:10:15Z</time>
      </trkpt>
      <trkpt lat="44.42885" lon="2.39404">
        <ele>552</ele>
        <time>2011-01-09T11:10:19Z</time>
      </trkpt>
      <trkpt lat="44.42884" lon="2.39398">
        <ele>552.6</ele>
        <time>2011-01-09T11:10:23Z</time>
      </trkpt>
      <trkpt lat="44.42882" lon="2.39393">
        <ele>553.3</ele>
        <time>2011-01-09T11:10:26Z</time>
      </trkpt>
      <trkpt lat="44.42881" lon="2.39387">
        <ele>554.2</ele>
        <time>2011-01-09T11:10:30Z</time>
      </trkpt>
      <trkpt lat="44.42881" lon="2.39386">
        <ele>554.3</ele>
        <time>2011-01-09T11:10:31Z</time>
      </trkpt>
      <trkpt lat="44.4288" lon="2.39375">
        <ele>556.4</ele>
        <time>2011-01-09T11:10:41Z</time>
      </trkpt>
      <trkpt lat="44.4288" lon="2.3937">
        <ele>556.9</ele>
        <time>2011-01-09T11:10:46Z</time>
      </trkpt>
      <trkpt lat="44.4288" lon="2.39364">
        <ele>556.4</ele>
        <time>2011-01-09T11:10:50Z</time>
      </trkpt>
      <trkpt lat="44.42881" lon="2.39358">
        <ele>557</ele>
        <time>2011-01-09T11:10:54Z</time>
      </trkpt>
      <trkpt lat="44.42881" lon="2.39353">
        <ele>557.4</ele>
        <time>2011-01-09T11:10:57Z</time>
      </trkpt>
      <trkpt lat="44.42882" lon="2.39348">
        <ele>557.9</ele>
        <time>2011-01-09T11:11:01Z</time>
      </trkpt>
      <trkpt lat="44.42882" lon="2.39342">
        <ele>558.1</ele>
        <time>2011-01-09T11:11:05Z</time>
      </trkpt>
      <trkpt lat="44.42883" lon="2.39337">
        <ele>559.1</ele>
        <time>2011-01-09T11:11:08Z</time>
      </trkpt>
      <trkpt lat="44.42883" lon="2.39332">
        <ele>559.6</ele>
        <time>2011-01-09T11:11:11Z</time>
      </trkpt>
      <trkpt lat="44.42884" lon="2.39326">
        <ele>559.6</ele>
        <time>2011-01-09T11:11:15Z</time>
      </trkpt>
      <trkpt lat="44.42885" lon="2.39321">
        <ele>560.2</ele>
        <time>2011-01-09T11:11:18Z</time>
      </trkpt>
      <trkpt lat="44.42886" lon="2.39316">
        <ele>560.5</ele>
        <time>2011-01-09T11:11:21Z</time>
      </trkpt>
      <trkpt lat="44.42886" lon="2.39311">
        <ele>561</ele>
        <time>2011-01-09T11:11:24Z</time>
      </trkpt>
      <trkpt lat="44.42887" lon="2.39306">
        <ele>561.5</ele>
        <time>2011-01-09T11:11:27Z</time>
      </trkpt>
      <trkpt lat="44.42888" lon="2.393">
        <ele>562.9</ele>
        <time>2011-01-09T11:11:31Z</time>
      </trkpt>
      <trkpt lat="44.42888" lon="2.39295">
        <ele>563.5</ele>
        <time>2011-01-09T11:11:34Z</time>
      </trkpt>
      <trkpt lat="44.42889" lon="2.39293">
        <ele>563.6</ele>
        <time>2011-01-09T11:11:35Z</time>
      </trkpt>
      <trkpt lat="44.42889" lon="2.39285">
        <ele>563.6</ele>
        <time>2011-01-09T11:11:41Z</time>
      </trkpt>
      <trkpt lat="44.4289" lon="2.39279">
        <ele>564</ele>
        <time>2011-01-09T11:11:45Z</time>
      </trkpt>
      <trkpt lat="44.42891" lon="2.39273">
        <ele>564.7</ele>
        <time>2011-01-09T11:11:49Z</time>
      </trkpt>
      <trkpt lat="44.42892" lon="2.39268">
        <ele>565.5</ele>
        <time>2011-01-09T11:11:52Z</time>
      </trkpt>
      <trkpt lat="44.42892" lon="2.39262">
        <ele>566.3</ele>
        <time>2011-01-09T11:11:56Z</time>
      </trkpt>
      <trkpt lat="44.42892" lon="2.39257">
        <ele>566.9</ele>
        <time>2011-01-09T11:11:59Z</time>
      </trkpt>
      <trkpt lat="44.42894" lon="2.39252">
        <ele>567</ele>
        <time>2011-01-09T11:12:00Z</time>
      </trkpt>
      <trkpt lat="44.42895" lon="2.39247">
        <ele>567.4</ele>
        <time>2011-01-09T11:12:03Z</time>
      </trkpt>
      <trkpt lat="44.42895" lon="2.39242">
        <ele>567.5</ele>
        <time>2011-01-09T11:12:06Z</time>
      </trkpt>
      <trkpt lat="44.42895" lon="2.39237">
        <ele>567.7</ele>
        <time>2011-01-09T11:12:09Z</time>
      </trkpt>
      <trkpt lat="44.42896" lon="2.39231">
        <ele>568.4</ele>
        <time>2011-01-09T11:12:12Z</time>
      </trkpt>
      <trkpt lat="44.42897" lon="2.39226">
        <ele>569.2</ele>
        <time>2011-01-09T11:12:15Z</time>
      </trkpt>
      <trkpt lat="44.42897" lon="2.39221">
        <ele>569</ele>
        <time>2011-01-09T11:12:18Z</time>
      </trkpt>
      <trkpt lat="44.42897" lon="2.39216">
        <ele>568.8</ele>
        <time>2011-01-09T11:12:21Z</time>
      </trkpt>
      <trkpt lat="44.42897" lon="2.39211">
        <ele>569.8</ele>
        <time>2011-01-09T11:12:24Z</time>
      </trkpt>
      <trkpt lat="44.42898" lon="2.39204">
        <ele>571.2</ele>
        <time>2011-01-09T11:12:28Z</time>
      </trkpt>
      <trkpt lat="44.42899" lon="2.39199">
        <ele>571.2</ele>
        <time>2011-01-09T11:12:32Z</time>
      </trkpt>
      <trkpt lat="44.42898" lon="2.39194">
        <ele>572.1</ele>
        <time>2011-01-09T11:12:36Z</time>
      </trkpt>
      <trkpt lat="44.42898" lon="2.39193">
        <ele>572.5</ele>
        <time>2011-01-09T11:12:37Z</time>
      </trkpt>
      <trkpt lat="44.429" lon="2.39185">
        <ele>573.1</ele>
        <time>2011-01-09T11:12:40Z</time>
      </trkpt>
      <trkpt lat="44.429" lon="2.3918">
        <ele>573.6</ele>
        <time>2011-01-09T11:12:43Z</time>
      </trkpt>
      <trkpt lat="44.429" lon="2.39175">
        <ele>574.2</ele>
        <time>2011-01-09T11:12:46Z</time>
      </trkpt>
      <trkpt lat="44.42899" lon="2.3917">
        <ele>574.4</ele>
        <time>2011-01-09T11:12:49Z</time>
      </trkpt>
      <trkpt lat="44.429" lon="2.39165">
        <ele>575.2</ele>
        <time>2011-01-09T11:12:52Z</time>
      </trkpt>
      <trkpt lat="44.42901" lon="2.3916">
        <ele>575.8</ele>
        <time>2011-01-09T11:12:55Z</time>
      </trkpt>
      <trkpt lat="44.42901" lon="2.39155">
        <ele>576.3</ele>
        <time>2011-01-09T11:12:58Z</time>
      </trkpt>
      <trkpt lat="44.42901" lon="2.3915">
        <ele>575.6</ele>
        <time>2011-01-09T11:13:01Z</time>
      </trkpt>
      <trkpt lat="44.429" lon="2.39144">
        <ele>575.9</ele>
        <time>2011-01-09T11:13:04Z</time>
      </trkpt>
      <trkpt lat="44.429" lon="2.39139">
        <ele>577.1</ele>
        <time>2011-01-09T11:13:07Z</time>
      </trkpt>
      <trkpt lat="44.429" lon="2.39134">
        <ele>577.7</ele>
        <time>2011-01-09T11:13:10Z</time>
      </trkpt>
      <trkpt lat="44.429" lon="2.39129">
        <ele>578.5</ele>
        <time>2011-01-09T11:13:13Z</time>
      </trkpt>
      <trkpt lat="44.429" lon="2.39123">
        <ele>578.9</ele>
        <time>2011-01-09T11:13:16Z</time>
      </trkpt>
      <trkpt lat="44.429" lon="2.39119">
        <ele>579</ele>
        <time>2011-01-09T11:13:18Z</time>
      </trkpt>
      <trkpt lat="44.42899" lon="2.39114">
        <ele>579.1</ele>
        <time>2011-01-09T11:13:20Z</time>
      </trkpt>
      <trkpt lat="44.42898" lon="2.39109">
        <ele>579.5</ele>
        <time>2011-01-09T11:13:23Z</time>
      </trkpt>
      <trkpt lat="44.42899" lon="2.39103">
        <ele>580.2</ele>
        <time>2011-01-09T11:13:26Z</time>
      </trkpt>
      <trkpt lat="44.429" lon="2.39099">
        <ele>580.2</ele>
        <time>2011-01-09T11:13:28Z</time>
      </trkpt>
      <trkpt lat="44.42903" lon="2.39095">
        <ele>580</ele>
        <time>2011-01-09T11:13:30Z</time>
      </trkpt>
      <trkpt lat="44.42905" lon="2.39092">
        <ele>580.8</ele>
        <time>2011-01-09T11:13:32Z</time>
      </trkpt>
      <trkpt lat="44.42909" lon="2.39091">
        <ele>581</ele>
        <time>2011-01-09T11:13:34Z</time>
      </trkpt>
      <trkpt lat="44.42912" lon="2.3909">
        <ele>580.9</ele>
        <time>2011-01-09T11:13:36Z</time>
      </trkpt>
      <trkpt lat="44.42916" lon="2.3909">
        <ele>581.9</ele>
        <time>2011-01-09T11:13:38Z</time>
      </trkpt>
      <trkpt lat="44.42917" lon="2.3909">
        <ele>582.2</ele>
        <time>2011-01-09T11:13:39Z</time>
      </trkpt>
      <trkpt lat="44.42922" lon="2.3909">
        <ele>582.6</ele>
        <time>2011-01-09T11:13:42Z</time>
      </trkpt>
      <trkpt lat="44.42925" lon="2.3909">
        <ele>583.1</ele>
        <time>2011-01-09T11:13:44Z</time>
      </trkpt>
      <trkpt lat="44.42929" lon="2.3909">
        <ele>583.6</ele>
        <time>2011-01-09T11:13:46Z</time>
      </trkpt>
      <trkpt lat="44.42933" lon="2.39091">
        <ele>583.1</ele>
        <time>2011-01-09T11:13:48Z</time>
      </trkpt>
      <trkpt lat="44.42937" lon="2.39091">
        <ele>582.9</ele>
        <time>2011-01-09T11:13:50Z</time>
      </trkpt>
      <trkpt lat="44.42941" lon="2.39091">
        <ele>583</ele>
        <time>2011-01-09T11:13:52Z</time>
      </trkpt>
      <trkpt lat="44.42944" lon="2.3909">
        <ele>583.6</ele>
        <time>2011-01-09T11:13:54Z</time>
      </trkpt>
      <trkpt lat="44.42948" lon="2.39089">
        <ele>584</ele>
        <time>2011-01-09T11:13:56Z</time>
      </trkpt>
      <trkpt lat="44.42951" lon="2.39087">
        <ele>584.4</ele>
        <time>2011-01-09T11:13:59Z</time>
      </trkpt>
      <trkpt lat="44.42954" lon="2.39082">
        <ele>584.8</ele>
        <time>2011-01-09T11:14:21Z</time>
      </trkpt>
      <trkpt lat="44.42956" lon="2.39078">
        <ele>584.4</ele>
        <time>2011-01-09T11:14:25Z</time>
      </trkpt>
      <trkpt lat="44.42959" lon="2.39075">
        <ele>584.1</ele>
        <time>2011-01-09T11:14:27Z</time>
      </trkpt>
      <trkpt lat="44.42962" lon="2.39072">
        <ele>584.7</ele>
        <time>2011-01-09T11:14:29Z</time>
      </trkpt>
      <trkpt lat="44.42965" lon="2.3907">
        <ele>584.9</ele>
        <time>2011-01-09T11:14:30Z</time>
      </trkpt>
      <trkpt lat="44.42967" lon="2.39068">
        <ele>585</ele>
        <time>2011-01-09T11:14:31Z</time>
      </trkpt>
      <trkpt lat="44.42969" lon="2.39066">
        <ele>585.1</ele>
        <time>2011-01-09T11:14:32Z</time>
      </trkpt>
      <trkpt lat="44.42972" lon="2.39064">
        <ele>585.2</ele>
        <time>2011-01-09T11:14:33Z</time>
      </trkpt>
      <trkpt lat="44.42974" lon="2.39061">
        <ele>585.3</ele>
        <time>2011-01-09T11:14:34Z</time>
      </trkpt>
      <trkpt lat="44.42977" lon="2.39059">
        <ele>585.2</ele>
        <time>2011-01-09T11:14:35Z</time>
      </trkpt>
      <trkpt lat="44.42979" lon="2.39057">
        <ele>585.1</ele>
        <time>2011-01-09T11:14:36Z</time>
      </trkpt>
      <trkpt lat="44.42982" lon="2.39055">
        <ele>585</ele>
        <time>2011-01-09T11:14:37Z</time>
      </trkpt>
      <trkpt lat="44.42985" lon="2.39052">
        <ele>584.5</ele>
        <time>2011-01-09T11:14:38Z</time>
      </trkpt>
      <trkpt lat="44.42988" lon="2.3905">
        <ele>584.2</ele>
        <time>2011-01-09T11:14:39Z</time>
      </trkpt>
      <trkpt lat="44.42991" lon="2.39048">
        <ele>584</ele>
        <time>2011-01-09T11:14:40Z</time>
      </trkpt>
      <trkpt lat="44.42994" lon="2.39046">
        <ele>583.8</ele>
        <time>2011-01-09T11:14:41Z</time>
      </trkpt>
      <trkpt lat="44.42997" lon="2.39043">
        <ele>583.6</ele>
        <time>2011-01-09T11:14:42Z</time>
      </trkpt>
      <trkpt lat="44.43001" lon="2.39041">
        <ele>583.5</ele>
        <time>2011-01-09T11:14:43Z</time>
      </trkpt>
      <trkpt lat="44.43004" lon="2.39038">
        <ele>583.6</ele>
        <time>2011-01-09T11:14:44Z</time>
      </trkpt>
      <trkpt lat="44.43007" lon="2.39036">
        <ele>583.7</ele>
        <time>2011-01-09T11:14:45Z</time>
      </trkpt>
      <trkpt lat="44.43011" lon="2.39033">
        <ele>583.8</ele>
        <time>2011-01-09T11:14:46Z</time>
      </trkpt>
      <trkpt lat="44.43014" lon="2.3903">
        <ele>583.9</ele>
        <time>2011-01-09T11:14:47Z</time>
      </trkpt>
      <trkpt lat="44.43017" lon="2.39027">
        <ele>583.9</ele>
        <time>2011-01-09T11:14:48Z</time>
      </trkpt>
      <trkpt lat="44.43021" lon="2.39025">
        <ele>583.9</ele>
        <time>2011-01-09T11:14:49Z</time>
      </trkpt>
      <trkpt lat="44.43024" lon="2.39022">
        <ele>583.9</ele>
        <time>2011-01-09T11:14:50Z</time>
      </trkpt>
      <trkpt lat="44.43028" lon="2.3902">
        <ele>583.6</ele>
        <time>2011-01-09T11:14:51Z</time>
      </trkpt>
      <trkpt lat="44.43032" lon="2.39017">
        <ele>583.4</ele>
        <time>2011-01-09T11:14:52Z</time>
      </trkpt>
      <trkpt lat="44.43035" lon="2.39014">
        <ele>583.2</ele>
        <time>2011-01-09T11:14:53Z</time>
      </trkpt>
      <trkpt lat="44.43039" lon="2.39011">
        <ele>583.4</ele>
        <time>2011-01-09T11:14:54Z</time>
      </trkpt>
      <trkpt lat="44.43043" lon="2.39007">
        <ele>583.5</ele>
        <time>2011-01-09T11:14:55Z</time>
      </trkpt>
      <trkpt lat="44.43047" lon="2.39004">
        <ele>583.6</ele>
        <time>2011-01-09T11:14:56Z</time>
      </trkpt>
      <trkpt lat="44.43051" lon="2.39">
        <ele>583.3</ele>
        <time>2011-01-09T11:14:57Z</time>
      </trkpt>
      <trkpt lat="44.43055" lon="2.38996">
        <ele>583.1</ele>
        <time>2011-01-09T11:14:58Z</time>
      </trkpt>
      <trkpt lat="44.4306" lon="2.38992">
        <ele>582.9</ele>
        <time>2011-01-09T11:14:59Z</time>
      </trkpt>
      <trkpt lat="44.43064" lon="2.38988">
        <ele>582.7</ele>
        <time>2011-01-09T11:15:00Z</time>
      </trkpt>
      <trkpt lat="44.43068" lon="2.38984">
        <ele>582.5</ele>
        <time>2011-01-09T11:15:01Z</time>
      </trkpt>
      <trkpt lat="44.43072" lon="2.3898">
        <ele>582.3</ele>
        <time>2011-01-09T11:15:02Z</time>
      </trkpt>
      <trkpt lat="44.43077" lon="2.38975">
        <ele>582.2</ele>
        <time>2011-01-09T11:15:03Z</time>
      </trkpt>
      <trkpt lat="44.43081" lon="2.38971">
        <ele>581.9</ele>
        <time>2011-01-09T11:15:04Z</time>
      </trkpt>
      <trkpt lat="44.43086" lon="2.38966">
        <ele>581.6</ele>
        <time>2011-01-09T11:15:05Z</time>
      </trkpt>
      <trkpt lat="44.4309" lon="2.38961">
        <ele>581.4</ele>
        <time>2011-01-09T11:15:06Z</time>
      </trkpt>
      <trkpt lat="44.43095" lon="2.38956">
        <ele>581.5</ele>
        <time>2011-01-09T11:15:07Z</time>
      </trkpt>
      <trkpt lat="44.43099" lon="2.38951">
        <ele>581.5</ele>
        <time>2011-01-09T11:15:08Z</time>
      </trkpt>
      <trkpt lat="44.43104" lon="2.38945">
        <ele>581.5</ele>
        <time>2011-01-09T11:15:09Z</time>
      </trkpt>
      <trkpt lat="44.43108" lon="2.3894">
        <ele>581.1</ele>
        <time>2011-01-09T11:15:10Z</time>
      </trkpt>
      <trkpt lat="44.43113" lon="2.38936">
        <ele>580.8</ele>
        <time>2011-01-09T11:15:11Z</time>
      </trkpt>
      <trkpt lat="44.43117" lon="2.3893">
        <ele>580.6</ele>
        <time>2011-01-09T11:15:12Z</time>
      </trkpt>
      <trkpt lat="44.43122" lon="2.38925">
        <ele>580.5</ele>
        <time>2011-01-09T11:15:13Z</time>
      </trkpt>
      <trkpt lat="44.43127" lon="2.3892">
        <ele>580.4</ele>
        <time>2011-01-09T11:15:14Z</time>
      </trkpt>
      <trkpt lat="44.43131" lon="2.38915">
        <ele>580.3</ele>
        <time>2011-01-09T11:15:15Z</time>
      </trkpt>
      <trkpt lat="44.43136" lon="2.38909">
        <ele>580.3</ele>
        <time>2011-01-09T11:15:16Z</time>
      </trkpt>
      <trkpt lat="44.43141" lon="2.38903">
        <ele>580.2</ele>
        <time>2011-01-09T11:15:17Z</time>
      </trkpt>
      <trkpt lat="44.43146" lon="2.38897">
        <ele>580.2</ele>
        <time>2011-01-09T11:15:18Z</time>
      </trkpt>
      <trkpt lat="44.43151" lon="2.38892">
        <ele>580.2</ele>
        <time>2011-01-09T11:15:19Z</time>
      </trkpt>
      <trkpt lat="44.43156" lon="2.38886">
        <ele>579.7</ele>
        <time>2011-01-09T11:15:20Z</time>
      </trkpt>
      <trkpt lat="44.43161" lon="2.3888">
        <ele>579.3</ele>
        <time>2011-01-09T11:15:21Z</time>
      </trkpt>
      <trkpt lat="44.43166" lon="2.38874">
        <ele>579</ele>
        <time>2011-01-09T11:15:22Z</time>
      </trkpt>
      <trkpt lat="44.43171" lon="2.38868">
        <ele>578.8</ele>
        <time>2011-01-09T11:15:23Z</time>
      </trkpt>
      <trkpt lat="44.43176" lon="2.38862">
        <ele>578.7</ele>
        <time>2011-01-09T11:15:24Z</time>
      </trkpt>
      <trkpt lat="44.43182" lon="2.38856">
        <ele>578.6</ele>
        <time>2011-01-09T11:15:25Z</time>
      </trkpt>
      <trkpt lat="44.43187" lon="2.3885">
        <ele>577.9</ele>
        <time>2011-01-09T11:15:26Z</time>
      </trkpt>
      <trkpt lat="44.43192" lon="2.38845">
        <ele>577.4</ele>
        <time>2011-01-09T11:15:27Z</time>
      </trkpt>
      <trkpt lat="44.43197" lon="2.38839">
        <ele>577</ele>
        <time>2011-01-09T11:15:28Z</time>
      </trkpt>
      <trkpt lat="44.43203" lon="2.38833">
        <ele>576.7</ele>
        <time>2011-01-09T11:15:29Z</time>
      </trkpt>
      <trkpt lat="44.43208" lon="2.38827">
        <ele>576.5</ele>
        <time>2011-01-09T11:15:30Z</time>
      </trkpt>
      <trkpt lat="44.43213" lon="2.38821">
        <ele>576.3</ele>
        <time>2011-01-09T11:15:31Z</time>
      </trkpt>
      <trkpt lat="44.43218" lon="2.38815">
        <ele>575.7</ele>
        <time>2011-01-09T11:15:32Z</time>
      </trkpt>
      <trkpt lat="44.43224" lon="2.38808">
        <ele>575.2</ele>
        <time>2011-01-09T11:15:33Z</time>
      </trkpt>
      <trkpt lat="44.43229" lon="2.38802">
        <ele>574.8</ele>
        <time>2011-01-09T11:15:34Z</time>
      </trkpt>
      <trkpt lat="44.43233" lon="2.38795">
        <ele>574.6</ele>
        <time>2011-01-09T11:15:35Z</time>
      </trkpt>
      <trkpt lat="44.43238" lon="2.38789">
        <ele>574.5</ele>
        <time>2011-01-09T11:15:36Z</time>
      </trkpt>
      <trkpt lat="44.43243" lon="2.38782">
        <ele>574.5</ele>
        <time>2011-01-09T11:15:37Z</time>
      </trkpt>
      <trkpt lat="44.43248" lon="2.38776">
        <ele>574.4</ele>
        <time>2011-01-09T11:15:38Z</time>
      </trkpt>
      <trkpt lat="44.43252" lon="2.3877">
        <ele>574.1</ele>
        <time>2011-01-09T11:15:39Z</time>
      </trkpt>
      <trkpt lat="44.43257" lon="2.38764">
        <ele>573.8</ele>
        <time>2011-01-09T11:15:40Z</time>
      </trkpt>
      <trkpt lat="44.43261" lon="2.38758">
        <ele>573.6</ele>
        <time>2011-01-09T11:15:41Z</time>
      </trkpt>
      <trkpt lat="44.43266" lon="2.38751">
        <ele>573.4</ele>
        <time>2011-01-09T11:15:42Z</time>
      </trkpt>
      <trkpt lat="44.4327" lon="2.38745">
        <ele>573.1</ele>
        <time>2011-01-09T11:15:43Z</time>
      </trkpt>
      <trkpt lat="44.43275" lon="2.38739">
        <ele>573</ele>
        <time>2011-01-09T11:15:44Z</time>
      </trkpt>
      <trkpt lat="44.43279" lon="2.38733">
        <ele>572.7</ele>
        <time>2011-01-09T11:15:45Z</time>
      </trkpt>
      <trkpt lat="44.43284" lon="2.38726">
        <ele>572.5</ele>
        <time>2011-01-09T11:15:46Z</time>
      </trkpt>
      <trkpt lat="44.43288" lon="2.3872">
        <ele>572.4</ele>
        <time>2011-01-09T11:15:47Z</time>
      </trkpt>
      <trkpt lat="44.43293" lon="2.38714">
        <ele>571.8</ele>
        <time>2011-01-09T11:15:48Z</time>
      </trkpt>
      <trkpt lat="44.43297" lon="2.38708">
        <ele>571.3</ele>
        <time>2011-01-09T11:15:49Z</time>
      </trkpt>
      <trkpt lat="44.43302" lon="2.38702">
        <ele>571</ele>
        <time>2011-01-09T11:15:50Z</time>
      </trkpt>
      <trkpt lat="44.43306" lon="2.38696">
        <ele>570.8</ele>
        <time>2011-01-09T11:15:51Z</time>
      </trkpt>
      <trkpt lat="44.43311" lon="2.38689">
        <ele>570.7</ele>
        <time>2011-01-09T11:15:52Z</time>
      </trkpt>
      <trkpt lat="44.43315" lon="2.38683">
        <ele>570.6</ele>
        <time>2011-01-09T11:15:53Z</time>
      </trkpt>
      <trkpt lat="44.4332" lon="2.38676">
        <ele>570.5</ele>
        <time>2011-01-09T11:15:54Z</time>
      </trkpt>
      <trkpt lat="44.43325" lon="2.3867">
        <ele>570</ele>
        <time>2011-01-09T11:15:55Z</time>
      </trkpt>
      <trkpt lat="44.4333" lon="2.38664">
        <ele>569.6</ele>
        <time>2011-01-09T11:15:56Z</time>
      </trkpt>
      <trkpt lat="44.43335" lon="2.38657">
        <ele>569.3</ele>
        <time>2011-01-09T11:15:57Z</time>
      </trkpt>
      <trkpt lat="44.43339" lon="2.38651">
        <ele>569.2</ele>
        <time>2011-01-09T11:15:58Z</time>
      </trkpt>
      <trkpt lat="44.43344" lon="2.38644">
        <ele>569.2</ele>
        <time>2011-01-09T11:15:59Z</time>
      </trkpt>
      <trkpt lat="44.43349" lon="2.38637">
        <ele>569.2</ele>
        <time>2011-01-09T11:16:00Z</time>
      </trkpt>
      <trkpt lat="44.43354" lon="2.3863">
        <ele>569.1</ele>
        <time>2011-01-09T11:16:01Z</time>
      </trkpt>
      <trkpt lat="44.4336" lon="2.38624">
        <ele>569</ele>
        <time>2011-01-09T11:16:02Z</time>
      </trkpt>
      <trkpt lat="44.43365" lon="2.38618">
        <ele>568.9</ele>
        <time>2011-01-09T11:16:03Z</time>
      </trkpt>
      <trkpt lat="44.4337" lon="2.38612">
        <ele>568.1</ele>
        <time>2011-01-09T11:16:04Z</time>
      </trkpt>
      <trkpt lat="44.43377" lon="2.38607">
        <ele>567.5</ele>
        <time>2011-01-09T11:16:05Z</time>
      </trkpt>
      <trkpt lat="44.43383" lon="2.38601">
        <ele>567.1</ele>
        <time>2011-01-09T11:16:06Z</time>
      </trkpt>
      <trkpt lat="44.4339" lon="2.38597">
        <ele>566.5</ele>
        <time>2011-01-09T11:16:07Z</time>
      </trkpt>
      <trkpt lat="44.43397" lon="2.38594">
        <ele>566</ele>
        <time>2011-01-09T11:16:08Z</time>
      </trkpt>
      <trkpt lat="44.43405" lon="2.38592">
        <ele>565.6</ele>
        <time>2011-01-09T11:16:09Z</time>
      </trkpt>
      <trkpt lat="44.43412" lon="2.38592">
        <ele>565.4</ele>
        <time>2011-01-09T11:16:10Z</time>
      </trkpt>
      <trkpt lat="44.4342" lon="2.38593">
        <ele>565.4</ele>
        <time>2011-01-09T11:16:11Z</time>
      </trkpt>
      <trkpt lat="44.43428" lon="2.38595">
        <ele>565.4</ele>
        <time>2011-01-09T11:16:12Z</time>
      </trkpt>
      <trkpt lat="44.43435" lon="2.38598">
        <ele>565.4</ele>
        <time>2011-01-09T11:16:13Z</time>
      </trkpt>
      <trkpt lat="44.43443" lon="2.386">
        <ele>565.2</ele>
        <time>2011-01-09T11:16:14Z</time>
      </trkpt>
      <trkpt lat="44.43451" lon="2.38602">
        <ele>565</ele>
        <time>2011-01-09T11:16:15Z</time>
      </trkpt>
      <trkpt lat="44.43458" lon="2.38602">
        <ele>564.9</ele>
        <time>2011-01-09T11:16:16Z</time>
      </trkpt>
      <trkpt lat="44.43466" lon="2.38601">
        <ele>565</ele>
        <time>2011-01-09T11:16:17Z</time>
      </trkpt>
      <trkpt lat="44.43472" lon="2.38597">
        <ele>565</ele>
        <time>2011-01-09T11:16:18Z</time>
      </trkpt>
      <trkpt lat="44.43478" lon="2.3859">
        <ele>565.1</ele>
        <time>2011-01-09T11:16:19Z</time>
      </trkpt>
      <trkpt lat="44.43483" lon="2.38583">
        <ele>564.9</ele>
        <time>2011-01-09T11:16:20Z</time>
      </trkpt>
      <trkpt lat="44.43486" lon="2.38574">
        <ele>564.7</ele>
        <time>2011-01-09T11:16:21Z</time>
      </trkpt>
      <trkpt lat="44.4349" lon="2.38565">
        <ele>564.6</ele>
        <time>2011-01-09T11:16:22Z</time>
      </trkpt>
      <trkpt lat="44.43493" lon="2.38556">
        <ele>564.7</ele>
        <time>2011-01-09T11:16:23Z</time>
      </trkpt>
      <trkpt lat="44.43496" lon="2.38547">
        <ele>564.8</ele>
        <time>2011-01-09T11:16:24Z</time>
      </trkpt>
      <trkpt lat="44.435" lon="2.38539">
        <ele>564.9</ele>
        <time>2011-01-09T11:16:25Z</time>
      </trkpt>
      <trkpt lat="44.43502" lon="2.38531">
        <ele>564.9</ele>
        <time>2011-01-09T11:16:26Z</time>
      </trkpt>
      <trkpt lat="44.43505" lon="2.38523">
        <ele>564.5</ele>
        <time>2011-01-09T11:16:27Z</time>
      </trkpt>
      <trkpt lat="44.43508" lon="2.38516">
        <ele>564.2</ele>
        <time>2011-01-09T11:16:28Z</time>
      </trkpt>
      <trkpt lat="44.4351" lon="2.38508">
        <ele>563.9</ele>
        <time>2011-01-09T11:16:29Z</time>
      </trkpt>
      <trkpt lat="44.43513" lon="2.38501">
        <ele>564.4</ele>
        <time>2011-01-09T11:16:30Z</time>
      </trkpt>
      <trkpt lat="44.43516" lon="2.38493">
        <ele>564.7</ele>
        <time>2011-01-09T11:16:31Z</time>
      </trkpt>
      <trkpt lat="44.43518" lon="2.38485">
        <ele>565</ele>
        <time>2011-01-09T11:16:32Z</time>
      </trkpt>
      <trkpt lat="44.4352" lon="2.38478">
        <ele>564.8</ele>
        <time>2011-01-09T11:16:33Z</time>
      </trkpt>
      <trkpt lat="44.43521" lon="2.3847">
        <ele>564.6</ele>
        <time>2011-01-09T11:16:34Z</time>
      </trkpt>
      <trkpt lat="44.43521" lon="2.38463">
        <ele>564.5</ele>
        <time>2011-01-09T11:16:35Z</time>
      </trkpt>
      <trkpt lat="44.4352" lon="2.38455">
        <ele>564.4</ele>
        <time>2011-01-09T11:16:36Z</time>
      </trkpt>
      <trkpt lat="44.4352" lon="2.38447">
        <ele>564.3</ele>
        <time>2011-01-09T11:16:37Z</time>
      </trkpt>
      <trkpt lat="44.43518" lon="2.38439">
        <ele>564.2</ele>
        <time>2011-01-09T11:16:38Z</time>
      </trkpt>
      <trkpt lat="44.43517" lon="2.38431">
        <ele>564.1</ele>
        <time>2011-01-09T11:16:39Z</time>
      </trkpt>
      <trkpt lat="44.43515" lon="2.38423">
        <ele>564.1</ele>
        <time>2011-01-09T11:16:40Z</time>
      </trkpt>
      <trkpt lat="44.43513" lon="2.38415">
        <ele>564.1</ele>
        <time>2011-01-09T11:16:41Z</time>
      </trkpt>
      <trkpt lat="44.43512" lon="2.38408">
        <ele>564.1</ele>
        <time>2011-01-09T11:16:42Z</time>
      </trkpt>
      <trkpt lat="44.43511" lon="2.384">
        <ele>563.7</ele>
        <time>2011-01-09T11:16:43Z</time>
      </trkpt>
      <trkpt lat="44.43509" lon="2.38393">
        <ele>563.3</ele>
        <time>2011-01-09T11:16:44Z</time>
      </trkpt>
      <trkpt lat="44.43507" lon="2.38385">
        <ele>563.1</ele>
        <time>2011-01-09T11:16:45Z</time>
      </trkpt>
      <trkpt lat="44.43506" lon="2.38377">
        <ele>563.3</ele>
        <time>2011-01-09T11:16:46Z</time>
      </trkpt>
      <trkpt lat="44.43504" lon="2.3837">
        <ele>563.5</ele>
        <time>2011-01-09T11:16:47Z</time>
      </trkpt>
      <trkpt lat="44.43503" lon="2.38361">
        <ele>563.6</ele>
        <time>2011-01-09T11:16:48Z</time>
      </trkpt>
      <trkpt lat="44.43502" lon="2.38353">
        <ele>563.6</ele>
        <time>2011-01-09T11:16:49Z</time>
      </trkpt>
      <trkpt lat="44.435" lon="2.38345">
        <ele>563.5</ele>
        <time>2011-01-09T11:16:50Z</time>
      </trkpt>
      <trkpt lat="44.43498" lon="2.38336">
        <ele>563.5</ele>
        <time>2011-01-09T11:16:51Z</time>
      </trkpt>
      <trkpt lat="44.43497" lon="2.38328">
        <ele>562.9</ele>
        <time>2011-01-09T11:16:52Z</time>
      </trkpt>
      <trkpt lat="44.43496" lon="2.3832">
        <ele>562.5</ele>
        <time>2011-01-09T11:16:53Z</time>
      </trkpt>
      <trkpt lat="44.43495" lon="2.38312">
        <ele>562.3</ele>
        <time>2011-01-09T11:16:54Z</time>
      </trkpt>
      <trkpt lat="44.43494" lon="2.38304">
        <ele>562.3</ele>
        <time>2011-01-09T11:16:55Z</time>
      </trkpt>
      <trkpt lat="44.43494" lon="2.38295">
        <ele>562.3</ele>
        <time>2011-01-09T11:16:56Z</time>
      </trkpt>
      <trkpt lat="44.43493" lon="2.38286">
        <ele>562.3</ele>
        <time>2011-01-09T11:16:57Z</time>
      </trkpt>
      <trkpt lat="44.43493" lon="2.38277">
        <ele>562.1</ele>
        <time>2011-01-09T11:16:58Z</time>
      </trkpt>
      <trkpt lat="44.43492" lon="2.38269">
        <ele>561.9</ele>
        <time>2011-01-09T11:16:59Z</time>
      </trkpt>
      <trkpt lat="44.43491" lon="2.3826">
        <ele>561.8</ele>
        <time>2011-01-09T11:17:00Z</time>
      </trkpt>
      <trkpt lat="44.43491" lon="2.38252">
        <ele>561.7</ele>
        <time>2011-01-09T11:17:01Z</time>
      </trkpt>
      <trkpt lat="44.43491" lon="2.38243">
        <ele>561.6</ele>
        <time>2011-01-09T11:17:02Z</time>
      </trkpt>
      <trkpt lat="44.43491" lon="2.38234">
        <ele>561.5</ele>
        <time>2011-01-09T11:17:03Z</time>
      </trkpt>
      <trkpt lat="44.4349" lon="2.38225">
        <ele>561.5</ele>
        <time>2011-01-09T11:17:04Z</time>
      </trkpt>
      <trkpt lat="44.4349" lon="2.38216">
        <ele>561.2</ele>
        <time>2011-01-09T11:17:05Z</time>
      </trkpt>
      <trkpt lat="44.4349" lon="2.38207">
        <ele>561</ele>
        <time>2011-01-09T11:17:06Z</time>
      </trkpt>
      <trkpt lat="44.4349" lon="2.38198">
        <ele>560.9</ele>
        <time>2011-01-09T11:17:07Z</time>
      </trkpt>
      <trkpt lat="44.43489" lon="2.38189">
        <ele>560.6</ele>
        <time>2011-01-09T11:17:08Z</time>
      </trkpt>
      <trkpt lat="44.43489" lon="2.3818">
        <ele>560.3</ele>
        <time>2011-01-09T11:17:09Z</time>
      </trkpt>
      <trkpt lat="44.43489" lon="2.38171">
        <ele>560.2</ele>
        <time>2011-01-09T11:17:10Z</time>
      </trkpt>
      <trkpt lat="44.43489" lon="2.38162">
        <ele>559.7</ele>
        <time>2011-01-09T11:17:11Z</time>
      </trkpt>
      <trkpt lat="44.43489" lon="2.38153">
        <ele>559.4</ele>
        <time>2011-01-09T11:17:12Z</time>
      </trkpt>
      <trkpt lat="44.43489" lon="2.38143">
        <ele>559.2</ele>
        <time>2011-01-09T11:17:13Z</time>
      </trkpt>
      <trkpt lat="44.43489" lon="2.38133">
        <ele>558.9</ele>
        <time>2011-01-09T11:17:14Z</time>
      </trkpt>
      <trkpt lat="44.43489" lon="2.38123">
        <ele>558.7</ele>
        <time>2011-01-09T11:17:15Z</time>
      </trkpt>
      <trkpt lat="44.4349" lon="2.38113">
        <ele>558.6</ele>
        <time>2011-01-09T11:17:16Z</time>
      </trkpt>
      <trkpt lat="44.43491" lon="2.38104">
        <ele>558.5</ele>
        <time>2011-01-09T11:17:17Z</time>
      </trkpt>
      <trkpt lat="44.43492" lon="2.38095">
        <ele>558.3</ele>
        <time>2011-01-09T11:17:18Z</time>
      </trkpt>
      <trkpt lat="44.43494" lon="2.38085">
        <ele>558.1</ele>
        <time>2011-01-09T11:17:19Z</time>
      </trkpt>
      <trkpt lat="44.43498" lon="2.38076">
        <ele>558</ele>
        <time>2011-01-09T11:17:20Z</time>
      </trkpt>
      <trkpt lat="44.43502" lon="2.38067">
        <ele>557.5</ele>
        <time>2011-01-09T11:17:21Z</time>
      </trkpt>
      <trkpt lat="44.43507" lon="2.38059">
        <ele>557.1</ele>
        <time>2011-01-09T11:17:22Z</time>
      </trkpt>
      <trkpt lat="44.43512" lon="2.3805">
        <ele>556.8</ele>
        <time>2011-01-09T11:17:23Z</time>
      </trkpt>
      <trkpt lat="44.43518" lon="2.38042">
        <ele>556.3</ele>
        <time>2011-01-09T11:17:24Z</time>
      </trkpt>
      <trkpt lat="44.43524" lon="2.38035">
        <ele>556</ele>
        <time>2011-01-09T11:17:25Z</time>
      </trkpt>
      <trkpt lat="44.4353" lon="2.38027">
        <ele>555.7</ele>
        <time>2011-01-09T11:17:26Z</time>
      </trkpt>
      <trkpt lat="44.43536" lon="2.3802">
        <ele>555.5</ele>
        <time>2011-01-09T11:17:27Z</time>
      </trkpt>
      <trkpt lat="44.43542" lon="2.38013">
        <ele>555.4</ele>
        <time>2011-01-09T11:17:28Z</time>
      </trkpt>
      <trkpt lat="44.43548" lon="2.38007">
        <ele>555.3</ele>
        <time>2011-01-09T11:17:29Z</time>
      </trkpt>
      <trkpt lat="44.43554" lon="2.38001">
        <ele>554.8</ele>
        <time>2011-01-09T11:17:30Z</time>
      </trkpt>
      <trkpt lat="44.4356" lon="2.37995">
        <ele>554.5</ele>
        <time>2011-01-09T11:17:31Z</time>
      </trkpt>
      <trkpt lat="44.43567" lon="2.3799">
        <ele>554.2</ele>
        <time>2011-01-09T11:17:32Z</time>
      </trkpt>
      <trkpt lat="44.43574" lon="2.37984">
        <ele>554</ele>
        <time>2011-01-09T11:17:33Z</time>
      </trkpt>
      <trkpt lat="44.43581" lon="2.37979">
        <ele>554.1</ele>
        <time>2011-01-09T11:17:34Z</time>
      </trkpt>
      <trkpt lat="44.43588" lon="2.37975">
        <ele>554.1</ele>
        <time>2011-01-09T11:17:35Z</time>
      </trkpt>
      <trkpt lat="44.43595" lon="2.3797">
        <ele>554.1</ele>
        <time>2011-01-09T11:17:36Z</time>
      </trkpt>
      <trkpt lat="44.43602" lon="2.37965">
        <ele>553.9</ele>
        <time>2011-01-09T11:17:37Z</time>
      </trkpt>
      <trkpt lat="44.43609" lon="2.3796">
        <ele>553.8</ele>
        <time>2011-01-09T11:17:38Z</time>
      </trkpt>
      <trkpt lat="44.43616" lon="2.37955">
        <ele>553.7</ele>
        <time>2011-01-09T11:17:39Z</time>
      </trkpt>
      <trkpt lat="44.43622" lon="2.37949">
        <ele>553.1</ele>
        <time>2011-01-09T11:17:40Z</time>
      </trkpt>
      <trkpt lat="44.43628" lon="2.37943">
        <ele>552.7</ele>
        <time>2011-01-09T11:17:41Z</time>
      </trkpt>
      <trkpt lat="44.43634" lon="2.37936">
        <ele>552.4</ele>
        <time>2011-01-09T11:17:42Z</time>
      </trkpt>
      <trkpt lat="44.43639" lon="2.37929">
        <ele>552.7</ele>
        <time>2011-01-09T11:17:43Z</time>
      </trkpt>
      <trkpt lat="44.43643" lon="2.37922">
        <ele>553</ele>
        <time>2011-01-09T11:17:44Z</time>
      </trkpt>
      <trkpt lat="44.43648" lon="2.37916">
        <ele>553.2</ele>
        <time>2011-01-09T11:17:45Z</time>
      </trkpt>
      <trkpt lat="44.43652" lon="2.37909">
        <ele>553.2</ele>
        <time>2011-01-09T11:17:46Z</time>
      </trkpt>
      <trkpt lat="44.43656" lon="2.37903">
        <ele>553.1</ele>
        <time>2011-01-09T11:17:47Z</time>
      </trkpt>
      <trkpt lat="44.4366" lon="2.37897">
        <ele>553.1</ele>
        <time>2011-01-09T11:17:48Z</time>
      </trkpt>
      <trkpt lat="44.43664" lon="2.37892">
        <ele>553.1</ele>
        <time>2011-01-09T11:17:49Z</time>
      </trkpt>
      <trkpt lat="44.43668" lon="2.37887">
        <ele>553.2</ele>
        <time>2011-01-09T11:17:50Z</time>
      </trkpt>
      <trkpt lat="44.43673" lon="2.37882">
        <ele>553.3</ele>
        <time>2011-01-09T11:17:51Z</time>
      </trkpt>
      <trkpt lat="44.43677" lon="2.37877">
        <ele>553.4</ele>
        <time>2011-01-09T11:17:52Z</time>
      </trkpt>
      <trkpt lat="44.43682" lon="2.37872">
        <ele>553.2</ele>
        <time>2011-01-09T11:17:53Z</time>
      </trkpt>
      <trkpt lat="44.43686" lon="2.37868">
        <ele>553</ele>
        <time>2011-01-09T11:17:54Z</time>
      </trkpt>
      <trkpt lat="44.43691" lon="2.37863">
        <ele>552.9</ele>
        <time>2011-01-09T11:17:55Z</time>
      </trkpt>
      <trkpt lat="44.43695" lon="2.37859">
        <ele>553</ele>
        <time>2011-01-09T11:17:56Z</time>
      </trkpt>
      <trkpt lat="44.437" lon="2.37855">
        <ele>553</ele>
        <time>2011-01-09T11:17:57Z</time>
      </trkpt>
      <trkpt lat="44.43704" lon="2.37851">
        <ele>553.1</ele>
        <time>2011-01-09T11:17:58Z</time>
      </trkpt>
      <trkpt lat="44.43708" lon="2.37847">
        <ele>553.4</ele>
        <time>2011-01-09T11:17:59Z</time>
      </trkpt>
      <trkpt lat="44.43713" lon="2.37844">
        <ele>553.6</ele>
        <time>2011-01-09T11:18:00Z</time>
      </trkpt>
      <trkpt lat="44.43717" lon="2.3784">
        <ele>553.8</ele>
        <time>2011-01-09T11:18:01Z</time>
      </trkpt>
      <trkpt lat="44.43722" lon="2.37837">
        <ele>553.6</ele>
        <time>2011-01-09T11:18:02Z</time>
      </trkpt>
      <trkpt lat="44.43726" lon="2.37833">
        <ele>553.5</ele>
        <time>2011-01-09T11:18:03Z</time>
      </trkpt>
      <trkpt lat="44.43731" lon="2.3783">
        <ele>553.4</ele>
        <time>2011-01-09T11:18:04Z</time>
      </trkpt>
      <trkpt lat="44.43735" lon="2.37826">
        <ele>553.3</ele>
        <time>2011-01-09T11:18:05Z</time>
      </trkpt>
      <trkpt lat="44.4374" lon="2.37822">
        <ele>553.1</ele>
        <time>2011-01-09T11:18:06Z</time>
      </trkpt>
      <trkpt lat="44.43744" lon="2.37818">
        <ele>553</ele>
        <time>2011-01-09T11:18:07Z</time>
      </trkpt>
      <trkpt lat="44.43748" lon="2.37815">
        <ele>552.9</ele>
        <time>2011-01-09T11:18:08Z</time>
      </trkpt>
      <trkpt lat="44.43752" lon="2.37811">
        <ele>553.2</ele>
        <time>2011-01-09T11:18:09Z</time>
      </trkpt>
      <trkpt lat="44.43756" lon="2.37808">
        <ele>553.5</ele>
        <time>2011-01-09T11:18:10Z</time>
      </trkpt>
      <trkpt lat="44.4376" lon="2.37805">
        <ele>553.6</ele>
        <time>2011-01-09T11:18:11Z</time>
      </trkpt>
      <trkpt lat="44.43763" lon="2.37801">
        <ele>553.9</ele>
        <time>2011-01-09T11:18:12Z</time>
      </trkpt>
      <trkpt lat="44.43767" lon="2.37798">
        <ele>554.1</ele>
        <time>2011-01-09T11:18:13Z</time>
      </trkpt>
      <trkpt lat="44.4377" lon="2.37794">
        <ele>554.3</ele>
        <time>2011-01-09T11:18:14Z</time>
      </trkpt>
      <trkpt lat="44.43774" lon="2.3779">
        <ele>554.4</ele>
        <time>2011-01-09T11:18:15Z</time>
      </trkpt>
      <trkpt lat="44.43777" lon="2.37787">
        <ele>554.6</ele>
        <time>2011-01-09T11:18:16Z</time>
      </trkpt>
      <trkpt lat="44.4378" lon="2.37783">
        <ele>554.6</ele>
        <time>2011-01-09T11:18:17Z</time>
      </trkpt>
      <trkpt lat="44.43784" lon="2.3778">
        <ele>555.3</ele>
        <time>2011-01-09T11:18:18Z</time>
      </trkpt>
      <trkpt lat="44.43787" lon="2.37777">
        <ele>555.8</ele>
        <time>2011-01-09T11:18:19Z</time>
      </trkpt>
      <trkpt lat="44.43791" lon="2.37774">
        <ele>556.2</ele>
        <time>2011-01-09T11:18:20Z</time>
      </trkpt>
      <trkpt lat="44.43795" lon="2.37771">
        <ele>556.5</ele>
        <time>2011-01-09T11:18:21Z</time>
      </trkpt>
      <trkpt lat="44.43798" lon="2.37768">
        <ele>556.4</ele>
        <time>2011-01-09T11:18:22Z</time>
      </trkpt>
      <trkpt lat="44.43802" lon="2.37765">
        <ele>556.3</ele>
        <time>2011-01-09T11:18:23Z</time>
      </trkpt>
      <trkpt lat="44.43807" lon="2.37761">
        <ele>556.2</ele>
        <time>2011-01-09T11:18:24Z</time>
      </trkpt>
      <trkpt lat="44.43812" lon="2.37758">
        <ele>555.8</ele>
        <time>2011-01-09T11:18:25Z</time>
      </trkpt>
      <trkpt lat="44.43817" lon="2.37756">
        <ele>555.4</ele>
        <time>2011-01-09T11:18:26Z</time>
      </trkpt>
      <trkpt lat="44.43823" lon="2.37754">
        <ele>555.2</ele>
        <time>2011-01-09T11:18:27Z</time>
      </trkpt>
      <trkpt lat="44.43829" lon="2.37754">
        <ele>554.8</ele>
        <time>2011-01-09T11:18:28Z</time>
      </trkpt>
      <trkpt lat="44.43835" lon="2.37755">
        <ele>554.6</ele>
        <time>2011-01-09T11:18:29Z</time>
      </trkpt>
      <trkpt lat="44.43841" lon="2.37757">
        <ele>554.4</ele>
        <time>2011-01-09T11:18:30Z</time>
      </trkpt>
      <trkpt lat="44.43848" lon="2.37759">
        <ele>554.1</ele>
        <time>2011-01-09T11:18:31Z</time>
      </trkpt>
      <trkpt lat="44.43855" lon="2.37763">
        <ele>553.9</ele>
        <time>2011-01-09T11:18:32Z</time>
      </trkpt>
      <trkpt lat="44.43861" lon="2.37767">
        <ele>553.7</ele>
        <time>2011-01-09T11:18:33Z</time>
      </trkpt>
      <trkpt lat="44.43869" lon="2.37771">
        <ele>553.1</ele>
        <time>2011-01-09T11:18:34Z</time>
      </trkpt>
      <trkpt lat="44.43876" lon="2.37776">
        <ele>552.7</ele>
        <time>2011-01-09T11:18:35Z</time>
      </trkpt>
      <trkpt lat="44.43883" lon="2.37782">
        <ele>552.4</ele>
        <time>2011-01-09T11:18:36Z</time>
      </trkpt>
      <trkpt lat="44.4389" lon="2.37788">
        <ele>552.2</ele>
        <time>2011-01-09T11:18:37Z</time>
      </trkpt>
      <trkpt lat="44.43897" lon="2.37796">
        <ele>552.1</ele>
        <time>2011-01-09T11:18:38Z</time>
      </trkpt>
      <trkpt lat="44.43904" lon="2.37804">
        <ele>552.1</ele>
        <time>2011-01-09T11:18:39Z</time>
      </trkpt>
      <trkpt lat="44.4391" lon="2.37813">
        <ele>552</ele>
        <time>2011-01-09T11:18:40Z</time>
      </trkpt>
      <trkpt lat="44.43917" lon="2.37822">
        <ele>551.6</ele>
        <time>2011-01-09T11:18:41Z</time>
      </trkpt>
      <trkpt lat="44.43923" lon="2.37831">
        <ele>551.2</ele>
        <time>2011-01-09T11:18:42Z</time>
      </trkpt>
      <trkpt lat="44.43929" lon="2.37841">
        <ele>551</ele>
        <time>2011-01-09T11:18:43Z</time>
      </trkpt>
      <trkpt lat="44.43936" lon="2.37851">
        <ele>550.2</ele>
        <time>2011-01-09T11:18:44Z</time>
      </trkpt>
      <trkpt lat="44.43943" lon="2.37861">
        <ele>549.6</ele>
        <time>2011-01-09T11:18:45Z</time>
      </trkpt>
      <trkpt lat="44.4395" lon="2.3787">
        <ele>549.1</ele>
        <time>2011-01-09T11:18:46Z</time>
      </trkpt>
      <trkpt lat="44.43958" lon="2.37878">
        <ele>548.3</ele>
        <time>2011-01-09T11:18:47Z</time>
      </trkpt>
      <trkpt lat="44.43967" lon="2.37884">
        <ele>547.7</ele>
        <time>2011-01-09T11:18:48Z</time>
      </trkpt>
      <trkpt lat="44.43975" lon="2.37888">
        <ele>547.2</ele>
        <time>2011-01-09T11:18:49Z</time>
      </trkpt>
      <trkpt lat="44.43985" lon="2.37889">
        <ele>546.3</ele>
        <time>2011-01-09T11:18:50Z</time>
      </trkpt>
      <trkpt lat="44.43995" lon="2.37888">
        <ele>545.6</ele>
        <time>2011-01-09T11:18:51Z</time>
      </trkpt>
      <trkpt lat="44.44005" lon="2.37884">
        <ele>545.1</ele>
        <time>2011-01-09T11:18:52Z</time>
      </trkpt>
      <trkpt lat="44.44015" lon="2.37879">
        <ele>544.6</ele>
        <time>2011-01-09T11:18:53Z</time>
      </trkpt>
      <trkpt lat="44.44024" lon="2.37874">
        <ele>544.2</ele>
        <time>2011-01-09T11:18:54Z</time>
      </trkpt>
      <trkpt lat="44.44034" lon="2.37869">
        <ele>543.8</ele>
        <time>2011-01-09T11:18:55Z</time>
      </trkpt>
      <trkpt lat="44.44043" lon="2.37865">
        <ele>543.6</ele>
        <time>2011-01-09T11:18:56Z</time>
      </trkpt>
      <trkpt lat="44.44052" lon="2.3786">
        <ele>542.9</ele>
        <time>2011-01-09T11:18:57Z</time>
      </trkpt>
      <trkpt lat="44.4406" lon="2.37856">
        <ele>542.4</ele>
        <time>2011-01-09T11:18:58Z</time>
      </trkpt>
      <trkpt lat="44.44069" lon="2.37852">
        <ele>542.1</ele>
        <time>2011-01-09T11:18:59Z</time>
      </trkpt>
      <trkpt lat="44.44077" lon="2.37847">
        <ele>541.9</ele>
        <time>2011-01-09T11:19:00Z</time>
      </trkpt>
      <trkpt lat="44.44085" lon="2.37842">
        <ele>541.8</ele>
        <time>2011-01-09T11:19:01Z</time>
      </trkpt>
      <trkpt lat="44.44092" lon="2.37836">
        <ele>541.7</ele>
        <time>2011-01-09T11:19:02Z</time>
      </trkpt>
      <trkpt lat="44.44098" lon="2.37828">
        <ele>541.5</ele>
        <time>2011-01-09T11:19:03Z</time>
      </trkpt>
      <trkpt lat="44.44103" lon="2.37818">
        <ele>541.3</ele>
        <time>2011-01-09T11:19:04Z</time>
      </trkpt>
      <trkpt lat="44.44108" lon="2.37808">
        <ele>541.2</ele>
        <time>2011-01-09T11:19:05Z</time>
      </trkpt>
      <trkpt lat="44.44112" lon="2.37797">
        <ele>541.2</ele>
        <time>2011-01-09T11:19:06Z</time>
      </trkpt>
      <trkpt lat="44.44117" lon="2.37787">
        <ele>541.2</ele>
        <time>2011-01-09T11:19:07Z</time>
      </trkpt>
      <trkpt lat="44.44121" lon="2.37777">
        <ele>541.2</ele>
        <time>2011-01-09T11:19:08Z</time>
      </trkpt>
      <trkpt lat="44.44125" lon="2.37767">
        <ele>541.1</ele>
        <time>2011-01-09T11:19:09Z</time>
      </trkpt>
      <trkpt lat="44.44129" lon="2.37758">
        <ele>541</ele>
        <time>2011-01-09T11:19:10Z</time>
      </trkpt>
      <trkpt lat="44.44133" lon="2.37748">
        <ele>541</ele>
        <time>2011-01-09T11:19:11Z</time>
      </trkpt>
      <trkpt lat="44.44137" lon="2.37738">
        <ele>540.9</ele>
        <time>2011-01-09T11:19:12Z</time>
      </trkpt>
      <trkpt lat="44.44141" lon="2.37729">
        <ele>541</ele>
        <time>2011-01-09T11:19:13Z</time>
      </trkpt>
      <trkpt lat="44.44144" lon="2.3772">
        <ele>541.1</ele>
        <time>2011-01-09T11:19:14Z</time>
      </trkpt>
      <trkpt lat="44.44148" lon="2.37711">
        <ele>541.1</ele>
        <time>2011-01-09T11:19:15Z</time>
      </trkpt>
      <trkpt lat="44.44152" lon="2.37702">
        <ele>541.4</ele>
        <time>2011-01-09T11:19:16Z</time>
      </trkpt>
      <trkpt lat="44.44156" lon="2.37694">
        <ele>541.7</ele>
        <time>2011-01-09T11:19:17Z</time>
      </trkpt>
      <trkpt lat="44.44159" lon="2.37685">
        <ele>541.9</ele>
        <time>2011-01-09T11:19:18Z</time>
      </trkpt>
      <trkpt lat="44.44163" lon="2.37676">
        <ele>542.3</ele>
        <time>2011-01-09T11:19:19Z</time>
      </trkpt>
      <trkpt lat="44.44166" lon="2.37668">
        <ele>542.7</ele>
        <time>2011-01-09T11:19:20Z</time>
      </trkpt>
      <trkpt lat="44.44169" lon="2.3766">
        <ele>542.9</ele>
        <time>2011-01-09T11:19:21Z</time>
      </trkpt>
      <trkpt lat="44.44172" lon="2.37652">
        <ele>543</ele>
        <time>2011-01-09T11:19:22Z</time>
      </trkpt>
      <trkpt lat="44.44175" lon="2.37645">
        <ele>543.1</ele>
        <time>2011-01-09T11:19:23Z</time>
      </trkpt>
      <trkpt lat="44.44178" lon="2.37637">
        <ele>543.2</ele>
        <time>2011-01-09T11:19:24Z</time>
      </trkpt>
      <trkpt lat="44.44181" lon="2.3763">
        <ele>543.2</ele>
        <time>2011-01-09T11:19:25Z</time>
      </trkpt>
      <trkpt lat="44.44184" lon="2.37623">
        <ele>543.1</ele>
        <time>2011-01-09T11:19:26Z</time>
      </trkpt>
      <trkpt lat="44.44187" lon="2.37616">
        <ele>543.1</ele>
        <time>2011-01-09T11:19:27Z</time>
      </trkpt>
      <trkpt lat="44.4419" lon="2.37608">
        <ele>543.1</ele>
        <time>2011-01-09T11:19:28Z</time>
      </trkpt>
      <trkpt lat="44.44192" lon="2.37601">
        <ele>543.3</ele>
        <time>2011-01-09T11:19:29Z</time>
      </trkpt>
      <trkpt lat="44.44195" lon="2.37594">
        <ele>543.5</ele>
        <time>2011-01-09T11:19:30Z</time>
      </trkpt>
      <trkpt lat="44.44198" lon="2.37587">
        <ele>543.7</ele>
        <time>2011-01-09T11:19:31Z</time>
      </trkpt>
      <trkpt lat="44.442" lon="2.3758">
        <ele>543.5</ele>
        <time>2011-01-09T11:19:32Z</time>
      </trkpt>
      <trkpt lat="44.44203" lon="2.37574">
        <ele>543.3</ele>
        <time>2011-01-09T11:19:33Z</time>
      </trkpt>
      <trkpt lat="44.44206" lon="2.37568">
        <ele>543.2</ele>
        <time>2011-01-09T11:19:34Z</time>
      </trkpt>
      <trkpt lat="44.44209" lon="2.37562">
        <ele>543.3</ele>
        <time>2011-01-09T11:19:35Z</time>
      </trkpt>
      <trkpt lat="44.44212" lon="2.37557">
        <ele>543.3</ele>
        <time>2011-01-09T11:19:36Z</time>
      </trkpt>
      <trkpt lat="44.44215" lon="2.37552">
        <ele>543.3</ele>
        <time>2011-01-09T11:19:37Z</time>
      </trkpt>
      <trkpt lat="44.44218" lon="2.37547">
        <ele>543.6</ele>
        <time>2011-01-09T11:19:38Z</time>
      </trkpt>
      <trkpt lat="44.44221" lon="2.37542">
        <ele>543.9</ele>
        <time>2011-01-09T11:19:39Z</time>
      </trkpt>
      <trkpt lat="44.44224" lon="2.37537">
        <ele>544.1</ele>
        <time>2011-01-09T11:19:40Z</time>
      </trkpt>
      <trkpt lat="44.44227" lon="2.37532">
        <ele>544.1</ele>
        <time>2011-01-09T11:19:41Z</time>
      </trkpt>
      <trkpt lat="44.4423" lon="2.37526">
        <ele>544.2</ele>
        <time>2011-01-09T11:19:42Z</time>
      </trkpt>
      <trkpt lat="44.44233" lon="2.37521">
        <ele>544.2</ele>
        <time>2011-01-09T11:19:43Z</time>
      </trkpt>
      <trkpt lat="44.44236" lon="2.37515">
        <ele>544.2</ele>
        <time>2011-01-09T11:19:44Z</time>
      </trkpt>
      <trkpt lat="44.44238" lon="2.3751">
        <ele>544.2</ele>
        <time>2011-01-09T11:19:45Z</time>
      </trkpt>
      <trkpt lat="44.44241" lon="2.37504">
        <ele>544.2</ele>
        <time>2011-01-09T11:19:46Z</time>
      </trkpt>
      <trkpt lat="44.44243" lon="2.37499">
        <ele>544.2</ele>
        <time>2011-01-09T11:19:47Z</time>
      </trkpt>
      <trkpt lat="44.44245" lon="2.37494">
        <ele>544.2</ele>
        <time>2011-01-09T11:19:48Z</time>
      </trkpt>
      <trkpt lat="44.44247" lon="2.37489">
        <ele>544.3</ele>
        <time>2011-01-09T11:19:49Z</time>
      </trkpt>
      <trkpt lat="44.44249" lon="2.37483">
        <ele>544.3</ele>
        <time>2011-01-09T11:19:50Z</time>
      </trkpt>
      <trkpt lat="44.44251" lon="2.37478">
        <ele>544.3</ele>
        <time>2011-01-09T11:19:51Z</time>
      </trkpt>
      <trkpt lat="44.44253" lon="2.37473">
        <ele>544.2</ele>
        <time>2011-01-09T11:19:52Z</time>
      </trkpt>
      <trkpt lat="44.44255" lon="2.37468">
        <ele>544.2</ele>
        <time>2011-01-09T11:19:53Z</time>
      </trkpt>
      <trkpt lat="44.44257" lon="2.37463">
        <ele>544.4</ele>
        <time>2011-01-09T11:19:54Z</time>
      </trkpt>
      <trkpt lat="44.44259" lon="2.37458">
        <ele>544.6</ele>
        <time>2011-01-09T11:19:55Z</time>
      </trkpt>
      <trkpt lat="44.44261" lon="2.37453">
        <ele>544.8</ele>
        <time>2011-01-09T11:19:56Z</time>
      </trkpt>
      <trkpt lat="44.44263" lon="2.37448">
        <ele>545</ele>
        <time>2011-01-09T11:19:57Z</time>
      </trkpt>
      <trkpt lat="44.44265" lon="2.37443">
        <ele>545.3</ele>
        <time>2011-01-09T11:19:58Z</time>
      </trkpt>
      <trkpt lat="44.44267" lon="2.37439">
        <ele>545.4</ele>
        <time>2011-01-09T11:19:59Z</time>
      </trkpt>
      <trkpt lat="44.44269" lon="2.37434">
        <ele>545.7</ele>
        <time>2011-01-09T11:20:00Z</time>
      </trkpt>
      <trkpt lat="44.44271" lon="2.3743">
        <ele>545.8</ele>
        <time>2011-01-09T11:20:01Z</time>
      </trkpt>
      <trkpt lat="44.44273" lon="2.37426">
        <ele>546</ele>
        <time>2011-01-09T11:20:02Z</time>
      </trkpt>
      <trkpt lat="44.44275" lon="2.37421">
        <ele>546.1</ele>
        <time>2011-01-09T11:20:03Z</time>
      </trkpt>
      <trkpt lat="44.44277" lon="2.37417">
        <ele>545.7</ele>
        <time>2011-01-09T11:20:04Z</time>
      </trkpt>
      <trkpt lat="44.44278" lon="2.37414">
        <ele>545.5</ele>
        <time>2011-01-09T11:20:05Z</time>
      </trkpt>
      <trkpt lat="44.4428" lon="2.3741">
        <ele>545.3</ele>
        <time>2011-01-09T11:20:06Z</time>
      </trkpt>
      <trkpt lat="44.44282" lon="2.37406">
        <ele>545.3</ele>
        <time>2011-01-09T11:20:07Z</time>
      </trkpt>
      <trkpt lat="44.44284" lon="2.37402">
        <ele>545.4</ele>
        <time>2011-01-09T11:20:08Z</time>
      </trkpt>
      <trkpt lat="44.44286" lon="2.37398">
        <ele>545.4</ele>
        <time>2011-01-09T11:20:09Z</time>
      </trkpt>
      <trkpt lat="44.44288" lon="2.37394">
        <ele>545.3</ele>
        <time>2011-01-09T11:20:10Z</time>
      </trkpt>
      <trkpt lat="44.4429" lon="2.37391">
        <ele>545.2</ele>
        <time>2011-01-09T11:20:11Z</time>
      </trkpt>
      <trkpt lat="44.44293" lon="2.37387">
        <ele>545.2</ele>
        <time>2011-01-09T11:20:12Z</time>
      </trkpt>
      <trkpt lat="44.44295" lon="2.37383">
        <ele>545.3</ele>
        <time>2011-01-09T11:20:13Z</time>
      </trkpt>
      <trkpt lat="44.44297" lon="2.3738">
        <ele>545.3</ele>
        <time>2011-01-09T11:20:14Z</time>
      </trkpt>
      <trkpt lat="44.443" lon="2.37377">
        <ele>545.4</ele>
        <time>2011-01-09T11:20:15Z</time>
      </trkpt>
      <trkpt lat="44.44302" lon="2.37374">
        <ele>545.9</ele>
        <time>2011-01-09T11:20:16Z</time>
      </trkpt>
      <trkpt lat="44.44304" lon="2.37371">
        <ele>546.3</ele>
        <time>2011-01-09T11:20:17Z</time>
      </trkpt>
      <trkpt lat="44.44307" lon="2.37368">
        <ele>546.6</ele>
        <time>2011-01-09T11:20:18Z</time>
      </trkpt>
      <trkpt lat="44.4431" lon="2.37366">
        <ele>546.8</ele>
        <time>2011-01-09T11:20:19Z</time>
      </trkpt>
      <trkpt lat="44.44312" lon="2.37363">
        <ele>546.5</ele>
        <time>2011-01-09T11:20:20Z</time>
      </trkpt>
      <trkpt lat="44.44315" lon="2.37361">
        <ele>546.4</ele>
        <time>2011-01-09T11:20:21Z</time>
      </trkpt>
      <trkpt lat="44.44317" lon="2.37357">
        <ele>546.2</ele>
        <time>2011-01-09T11:20:22Z</time>
      </trkpt>
      <trkpt lat="44.44318" lon="2.37353">
        <ele>546.4</ele>
        <time>2011-01-09T11:20:23Z</time>
      </trkpt>
      <trkpt lat="44.44319" lon="2.37349">
        <ele>546.6</ele>
        <time>2011-01-09T11:20:24Z</time>
      </trkpt>
      <trkpt lat="44.44318" lon="2.37344">
        <ele>546.7</ele>
        <time>2011-01-09T11:20:25Z</time>
      </trkpt>
      <trkpt lat="44.44318" lon="2.37339">
        <ele>546.6</ele>
        <time>2011-01-09T11:20:26Z</time>
      </trkpt>
      <trkpt lat="44.44317" lon="2.37334">
        <ele>546.6</ele>
        <time>2011-01-09T11:20:27Z</time>
      </trkpt>
      <trkpt lat="44.44317" lon="2.37328">
        <ele>546.6</ele>
        <time>2011-01-09T11:20:28Z</time>
      </trkpt>
      <trkpt lat="44.44317" lon="2.37322">
        <ele>546.5</ele>
        <time>2011-01-09T11:20:29Z</time>
      </trkpt>
      <trkpt lat="44.44316" lon="2.37316">
        <ele>546.5</ele>
        <time>2011-01-09T11:20:30Z</time>
      </trkpt>
      <trkpt lat="44.44315" lon="2.37309">
        <ele>546.4</ele>
        <time>2011-01-09T11:20:31Z</time>
      </trkpt>
      <trkpt lat="44.44313" lon="2.37303">
        <ele>546.2</ele>
        <time>2011-01-09T11:20:32Z</time>
      </trkpt>
      <trkpt lat="44.44312" lon="2.37296">
        <ele>546</ele>
        <time>2011-01-09T11:20:33Z</time>
      </trkpt>
      <trkpt lat="44.44311" lon="2.37288">
        <ele>545.9</ele>
        <time>2011-01-09T11:20:34Z</time>
      </trkpt>
      <trkpt lat="44.4431" lon="2.37281">
        <ele>545.8</ele>
        <time>2011-01-09T11:20:35Z</time>
      </trkpt>
      <trkpt lat="44.44308" lon="2.37274">
        <ele>545.5</ele>
        <time>2011-01-09T11:20:36Z</time>
      </trkpt>
      <trkpt lat="44.44307" lon="2.37268">
        <ele>545.2</ele>
        <time>2011-01-09T11:20:37Z</time>
      </trkpt>
      <trkpt lat="44.44305" lon="2.37262">
        <ele>545</ele>
        <time>2011-01-09T11:20:38Z</time>
      </trkpt>
      <trkpt lat="44.44305" lon="2.37257">
        <ele>544.7</ele>
        <time>2011-01-09T11:20:39Z</time>
      </trkpt>
      <trkpt lat="44.44304" lon="2.37251">
        <ele>544.5</ele>
        <time>2011-01-09T11:20:40Z</time>
      </trkpt>
      <trkpt lat="44.44304" lon="2.37245">
        <ele>544.3</ele>
        <time>2011-01-09T11:20:41Z</time>
      </trkpt>
      <trkpt lat="44.44303" lon="2.37238">
        <ele>544</ele>
        <time>2011-01-09T11:20:42Z</time>
      </trkpt>
      <trkpt lat="44.44301" lon="2.37232">
        <ele>543.8</ele>
        <time>2011-01-09T11:20:43Z</time>
      </trkpt>
      <trkpt lat="44.443" lon="2.37225">
        <ele>543.6</ele>
        <time>2011-01-09T11:20:44Z</time>
      </trkpt>
      <trkpt lat="44.44298" lon="2.37218">
        <ele>543.6</ele>
        <time>2011-01-09T11:20:45Z</time>
      </trkpt>
      <trkpt lat="44.44297" lon="2.3721">
        <ele>543.6</ele>
        <time>2011-01-09T11:20:46Z</time>
      </trkpt>
      <trkpt lat="44.44296" lon="2.37203">
        <ele>543.6</ele>
        <time>2011-01-09T11:20:47Z</time>
      </trkpt>
      <trkpt lat="44.44294" lon="2.37195">
        <ele>542.9</ele>
        <time>2011-01-09T11:20:48Z</time>
      </trkpt>
      <trkpt lat="44.44293" lon="2.37187">
        <ele>542.3</ele>
        <time>2011-01-09T11:20:49Z</time>
      </trkpt>
      <trkpt lat="44.44291" lon="2.3718">
        <ele>541.9</ele>
        <time>2011-01-09T11:20:50Z</time>
      </trkpt>
      <trkpt lat="44.4429" lon="2.37173">
        <ele>541.6</ele>
        <time>2011-01-09T11:20:51Z</time>
      </trkpt>
      <trkpt lat="44.44288" lon="2.37165">
        <ele>541.8</ele>
        <time>2011-01-09T11:20:52Z</time>
      </trkpt>
      <trkpt lat="44.44287" lon="2.37157">
        <ele>541.9</ele>
        <time>2011-01-09T11:20:53Z</time>
      </trkpt>
      <trkpt lat="44.44286" lon="2.37149">
        <ele>541.9</ele>
        <time>2011-01-09T11:20:54Z</time>
      </trkpt>
      <trkpt lat="44.44285" lon="2.37141">
        <ele>541.7</ele>
        <time>2011-01-09T11:20:55Z</time>
      </trkpt>
      <trkpt lat="44.44284" lon="2.37134">
        <ele>541.5</ele>
        <time>2011-01-09T11:20:56Z</time>
      </trkpt>
      <trkpt lat="44.44283" lon="2.37127">
        <ele>541.4</ele>
        <time>2011-01-09T11:20:57Z</time>
      </trkpt>
      <trkpt lat="44.44283" lon="2.37121">
        <ele>540.9</ele>
        <time>2011-01-09T11:20:58Z</time>
      </trkpt>
      <trkpt lat="44.44282" lon="2.37115">
        <ele>540.5</ele>
        <time>2011-01-09T11:20:59Z</time>
      </trkpt>
      <trkpt lat="44.44281" lon="2.37111">
        <ele>540.2</ele>
        <time>2011-01-09T11:21:00Z</time>
      </trkpt>
      <trkpt lat="44.44278" lon="2.37107">
        <ele>539.8</ele>
        <time>2011-01-09T11:21:02Z</time>
      </trkpt>
      <trkpt lat="44.44276" lon="2.37102">
        <ele>539.4</ele>
        <time>2011-01-09T11:21:04Z</time>
      </trkpt>
      <trkpt lat="44.44275" lon="2.37098">
        <ele>539.1</ele>
        <time>2011-01-09T11:21:05Z</time>
      </trkpt>
      <trkpt lat="44.44274" lon="2.37095">
        <ele>538.9</ele>
        <time>2011-01-09T11:21:06Z</time>
      </trkpt>
      <trkpt lat="44.44271" lon="2.3709">
        <ele>538.3</ele>
        <time>2011-01-09T11:21:08Z</time>
      </trkpt>
      <trkpt lat="44.44268" lon="2.3709">
        <ele>538</ele>
        <time>2011-01-09T11:21:10Z</time>
      </trkpt>
      <trkpt lat="44.44263" lon="2.3709">
        <ele>538.1</ele>
        <time>2011-01-09T11:21:12Z</time>
      </trkpt>
      <trkpt lat="44.44259" lon="2.37091">
        <ele>538.4</ele>
        <time>2011-01-09T11:21:14Z</time>
      </trkpt>
      <trkpt lat="44.44255" lon="2.37091">
        <ele>538.6</ele>
        <time>2011-01-09T11:21:17Z</time>
      </trkpt>
      <trkpt lat="44.44251" lon="2.37088">
        <ele>537.7</ele>
        <time>2011-01-09T11:21:25Z</time>
      </trkpt>
      <trkpt lat="44.44247" lon="2.37089">
        <ele>538</ele>
        <time>2011-01-09T11:21:30Z</time>
      </trkpt>
      <trkpt lat="44.44243" lon="2.37091">
        <ele>537.6</ele>
        <time>2011-01-09T11:21:33Z</time>
      </trkpt>
      <trkpt lat="44.4424" lon="2.37088">
        <ele>537.2</ele>
        <time>2011-01-09T11:22:03Z</time>
      </trkpt>
      <trkpt lat="44.44239" lon="2.37088">
        <ele>537</ele>
        <time>2011-01-09T11:22:04Z</time>
      </trkpt>
      <trkpt lat="44.44236" lon="2.37079">
        <ele>538</ele>
        <time>2011-01-09T11:22:55Z</time>
      </trkpt>
      <trkpt lat="44.44239" lon="2.37078">
        <ele>536.8</ele>
        <time>2011-01-09T11:23:13Z</time>
      </trkpt>
      <trkpt lat="44.44241" lon="2.37079">
        <ele>536.8</ele>
        <time>2011-01-09T11:23:14Z</time>
      </trkpt>
      <trkpt lat="44.44248" lon="2.37078">
        <ele>537.4</ele>
        <time>2011-01-09T11:23:22Z</time>
      </trkpt>
      <trkpt lat="44.44251" lon="2.37079">
        <ele>537.6</ele>
        <time>2011-01-09T11:23:25Z</time>
      </trkpt>
      <trkpt lat="44.44255" lon="2.37081">
        <ele>537.4</ele>
        <time>2011-01-09T11:23:28Z</time>
      </trkpt>
      <trkpt lat="44.44256" lon="2.37086">
        <ele>537.8</ele>
        <time>2011-01-09T11:23:31Z</time>
      </trkpt>
      <trkpt lat="44.44257" lon="2.3709">
        <ele>538.2</ele>
        <time>2011-01-09T11:23:33Z</time>
      </trkpt>
      <trkpt lat="44.44257" lon="2.37095">
        <ele>538</ele>
        <time>2011-01-09T11:23:35Z</time>
      </trkpt>
      <trkpt lat="44.44258" lon="2.371">
        <ele>538</ele>
        <time>2011-01-09T11:23:37Z</time>
      </trkpt>
      <trkpt lat="44.44258" lon="2.37106">
        <ele>538</ele>
        <time>2011-01-09T11:23:40Z</time>
      </trkpt>
      <trkpt lat="44.4426" lon="2.37111">
        <ele>537</ele>
        <time>2011-01-09T11:23:46Z</time>
      </trkpt>
      <trkpt lat="44.4426" lon="2.37116">
        <ele>536.3</ele>
        <time>2011-01-09T11:23:53Z</time>
      </trkpt>
      <trkpt lat="44.44262" lon="2.37122">
        <ele>536.9</ele>
        <time>2011-01-09T11:24:01Z</time>
      </trkpt>
      <trkpt lat="44.44264" lon="2.37127">
        <ele>537</ele>
        <time>2011-01-09T11:24:23Z</time>
      </trkpt>
      <trkpt lat="44.44264" lon="2.37127">
        <ele>537</ele>
        <time>2011-01-09T11:24:24Z</time>
      </trkpt>
      <trkpt lat="44.44268" lon="2.37137">
        <ele>536.2</ele>
        <time>2011-01-09T11:25:23Z</time>
      </trkpt>
      <trkpt lat="44.44265" lon="2.37133">
        <ele>536.1</ele>
        <time>2011-01-09T11:25:56Z</time>
      </trkpt>
      <trkpt lat="44.44265" lon="2.37133">
        <ele>536.1</ele>
        <time>2011-01-09T11:25:57Z</time>
      </trkpt>
      <trkpt lat="44.44268" lon="2.37129">
        <ele>536.6</ele>
        <time>2011-01-09T11:28:10Z</time>
      </trkpt>
      <trkpt lat="44.44276" lon="2.37133">
        <ele>537.1</ele>
        <time>2011-01-09T11:28:41Z</time>
      </trkpt>
      <trkpt lat="44.44274" lon="2.37128">
        <ele>537.2</ele>
        <time>2011-01-09T11:29:40Z</time>
      </trkpt>
      <trkpt lat="44.44273" lon="2.37128">
        <ele>537.2</ele>
        <time>2011-01-09T11:29:41Z</time>
      </trkpt>
      <trkpt lat="44.44275" lon="2.37125">
        <ele>537.2</ele>
        <time>2011-01-09T11:30:34Z</time>
      </trkpt>
      <trkpt lat="44.44279" lon="2.37126">
        <ele>536.9</ele>
        <time>2011-01-09T11:30:42Z</time>
      </trkpt>
      <trkpt lat="44.44279" lon="2.37126">
        <ele>536.8</ele>
        <time>2011-01-09T11:30:43Z</time>
      </trkpt>
      <trkpt lat="44.44284" lon="2.37124">
        <ele>536.6</ele>
        <time>2011-01-09T11:32:01Z</time>
      </trkpt>
      <trkpt lat="44.44284" lon="2.37124">
        <ele>536.4</ele>
        <time>2011-01-09T11:32:25Z</time>
      </trkpt>
      <trkpt lat="44.44279" lon="2.37123">
        <ele>537.1</ele>
        <time>2011-01-09T11:32:32Z</time>
      </trkpt>
      <trkpt lat="44.44275" lon="2.37122">
        <ele>537.1</ele>
        <time>2011-01-09T11:32:39Z</time>
      </trkpt>
      <trkpt lat="44.44271" lon="2.37121">
        <ele>536.9</ele>
        <time>2011-01-09T11:33:19Z</time>
      </trkpt>
      <trkpt lat="44.44271" lon="2.3712">
        <ele>536.7</ele>
        <time>2011-01-09T11:33:20Z</time>
      </trkpt>
      <trkpt lat="44.44262" lon="2.37118">
        <ele>536.3</ele>
        <time>2011-01-09T11:33:54Z</time>
      </trkpt>
      <trkpt lat="44.44263" lon="2.37119">
        <ele>537.1</ele>
        <time>2011-01-09T11:34:30Z</time>
      </trkpt>
      <trkpt lat="44.44263" lon="2.37119">
        <ele>537.1</ele>
        <time>2011-01-09T11:34:31Z</time>
      </trkpt>
    </trkseg>
  </trk>
</gpx>